<?xml version='1.0' encoding='UTF-8'?><gpx version="1.1" creator="JPX - https://github.com/jenetics/jpx" xmlns="http://www.topografix.com/GPX/1/1"><trk><trkseg><trkpt lat="39.79437879426993" lon="8.549689734324113"><ele>10.0</ele><time>2026-05-03T05:49:30.999Z</time></trkpt><trkpt lat="39.7943762355984" lon="8.549772246318218"><ele>10.0</ele><time>2026-05-03T05:49:31.999Z</time></trkpt><trkpt lat="39.794388491507696" lon="8.549890968262844"><ele>10.0</ele><time>2026-05-03T05:49:32.999Z</time></trkpt><trkpt lat="39.79439580720989" lon="8.549985362428806"><ele>10.0</ele><time>2026-05-03T05:49:33.999Z</time></trkpt><trkpt lat="39.79439684583318" lon="8.550074271670999"><ele>10.0</ele><time>2026-05-03T05:49:34.999Z</time></trkpt><trkpt lat="39.794384637943395" lon="8.550164718670795"><ele>10.0</ele><time>2026-05-03T05:49:35.999Z</time></trkpt><trkpt lat="39.794399440747036" lon="8.55026000330375"><ele>10.0</ele><time>2026-05-03T05:49:36.999Z</time></trkpt><trkpt lat="39.79439987214315" lon="8.550357735633103"><ele>9.5</ele><time>2026-05-03T05:49:37.999Z</time></trkpt><trkpt lat="39.79438185670677" lon="8.550461933813581"><ele>9.0</ele><time>2026-05-03T05:49:38.999Z</time></trkpt><trkpt lat="39.79438057078823" lon="8.550568442995347"><ele>8.5</ele><time>2026-05-03T05:49:39.999Z</time></trkpt><trkpt lat="39.79438125077454" lon="8.550668809022243"><ele>8.0</ele><time>2026-05-03T05:49:40.999Z</time></trkpt><trkpt lat="39.79438445341758" lon="8.550774852155655"><ele>7.500000000000001</ele><time>2026-05-03T05:49:41.999Z</time></trkpt><trkpt lat="39.794404920873525" lon="8.550881819217647"><ele>7.0</ele><time>2026-05-03T05:49:42.999Z</time></trkpt><trkpt lat="39.79440888126117" lon="8.55099372979731"><ele>7.000000000000001</ele><time>2026-05-03T05:49:43.999Z</time></trkpt><trkpt lat="39.79441602109407" lon="8.551106285232764"><ele>7.0</ele><time>2026-05-03T05:49:44.999Z</time></trkpt><trkpt lat="39.79442007270469" lon="8.55121796304296"><ele>7.0</ele><time>2026-05-03T05:49:45.999Z</time></trkpt><trkpt lat="39.79441885568238" lon="8.551331418107262"><ele>7.0</ele><time>2026-05-03T05:49:46.999Z</time></trkpt><trkpt lat="39.79441993598691" lon="8.551445867850937"><ele>7.000000000000001</ele><time>2026-05-03T05:49:47.999Z</time></trkpt><trkpt lat="39.79442141215356" lon="8.551560259066996"><ele>7.0</ele><time>2026-05-03T05:49:48.999Z</time></trkpt><trkpt lat="39.794421867031524" lon="8.551677979266552"><ele>7.000000000000001</ele><time>2026-05-03T05:49:49.999Z</time></trkpt><trkpt lat="39.79442183096383" lon="8.551793717553661"><ele>7.0</ele><time>2026-05-03T05:49:50.999Z</time></trkpt><trkpt lat="39.794418528774294" lon="8.5519056685126"><ele>7.0</ele><time>2026-05-03T05:49:51.999Z</time></trkpt><trkpt lat="39.79441969746186" lon="8.552010727260585"><ele>7.0</ele><time>2026-05-03T05:49:52.999Z</time></trkpt><trkpt lat="39.79440714189836" lon="8.552118837252513"><ele>7.000000000000001</ele><time>2026-05-03T05:49:53.999Z</time></trkpt><trkpt lat="39.79441857996122" lon="8.55223040251761"><ele>7.0</ele><time>2026-05-03T05:49:54.999Z</time></trkpt><trkpt lat="39.79441922383926" lon="8.552347754534408"><ele>7.000000000000001</ele><time>2026-05-03T05:49:55.999Z</time></trkpt><trkpt lat="39.79441669798656" lon="8.55245286769159"><ele>7.0</ele><time>2026-05-03T05:49:56.999Z</time></trkpt><trkpt lat="39.79441566680629" lon="8.552568454850766"><ele>7.0</ele><time>2026-05-03T05:49:57.999Z</time></trkpt><trkpt lat="39.79440071360261" lon="8.552684916070572"><ele>7.0</ele><time>2026-05-03T05:49:58.999Z</time></trkpt><trkpt lat="39.794416737280045" lon="8.552802158724939"><ele>7.000000000000001</ele><time>2026-05-03T05:49:59.999Z</time></trkpt><trkpt lat="39.79441395324669" lon="8.55292427246553"><ele>7.0</ele><time>2026-05-03T05:50:00.999Z</time></trkpt><trkpt lat="39.79441453360681" lon="8.553046459384227"><ele>6.199999999999999</ele><time>2026-05-03T05:50:01.999Z</time></trkpt><trkpt lat="39.79441660116305" lon="8.553176269906848"><ele>5.3999999999999995</ele><time>2026-05-03T05:50:02.999Z</time></trkpt><trkpt lat="39.79442075544399" lon="8.55330729686257"><ele>4.6</ele><time>2026-05-03T05:50:03.999Z</time></trkpt><trkpt lat="39.79442384487477" lon="8.55343728238728"><ele>3.8</ele><time>2026-05-03T05:50:04.999Z</time></trkpt><trkpt lat="39.7944096462449" lon="8.553567243974669"><ele>3.0</ele><time>2026-05-03T05:50:05.999Z</time></trkpt><trkpt lat="39.79442669260794" lon="8.553700603268068"><ele>3.0</ele><time>2026-05-03T05:50:06.999Z</time></trkpt><trkpt lat="39.794423821981276" lon="8.553839808659044"><ele>3.0</ele><time>2026-05-03T05:50:07.999Z</time></trkpt><trkpt lat="39.794426693496874" lon="8.553977714440158"><ele>3.0</ele><time>2026-05-03T05:50:08.999Z</time></trkpt><trkpt lat="39.79442634932712" lon="8.554122421827172"><ele>3.0</ele><time>2026-05-03T05:50:09.999Z</time></trkpt><trkpt lat="39.79442751507084" lon="8.554267750272619"><ele>3.0</ele><time>2026-05-03T05:50:10.999Z</time></trkpt><trkpt lat="39.794426732145595" lon="8.554413173172351"><ele>3.1666666666666665</ele><time>2026-05-03T05:50:11.999Z</time></trkpt><trkpt lat="39.79442868763305" lon="8.55455442326222"><ele>3.333333333333333</ele><time>2026-05-03T05:50:12.999Z</time></trkpt><trkpt lat="39.794429059578064" lon="8.554689660510274"><ele>3.5</ele><time>2026-05-03T05:50:13.999Z</time></trkpt><trkpt lat="39.79442597560986" lon="8.554799457373491"><ele>3.6666666666666665</ele><time>2026-05-03T05:50:14.999Z</time></trkpt><trkpt lat="39.79442663909244" lon="8.554883195848447"><ele>3.833333333333333</ele><time>2026-05-03T05:50:15.999Z</time></trkpt><trkpt lat="39.794416657105224" lon="8.554969716068328"><ele>4.0</ele><time>2026-05-03T05:50:17.999Z</time></trkpt><trkpt lat="39.79460368252243" lon="8.555004534610312"><ele>4.0</ele><time>2026-05-03T05:50:20.999Z</time></trkpt><trkpt lat="39.79472089174703" lon="8.554992619769855"><ele>4.0</ele><time>2026-05-03T05:50:21.999Z</time></trkpt><trkpt lat="39.79483907292132" lon="8.554994874194117"><ele>4.0</ele><time>2026-05-03T05:50:22.999Z</time></trkpt><trkpt lat="39.79496078688505" lon="8.554996938184354"><ele>4.0</ele><time>2026-05-03T05:50:23.999Z</time></trkpt><trkpt lat="39.79509351578342" lon="8.555000516515538"><ele>3.75</ele><time>2026-05-03T05:50:24.999Z</time></trkpt><trkpt lat="39.79522894773916" lon="8.55499880624168"><ele>3.5</ele><time>2026-05-03T05:50:25.998Z</time></trkpt><trkpt lat="39.795361099686126" lon="8.554994960460464"><ele>3.25</ele><time>2026-05-03T05:50:26.998Z</time></trkpt><trkpt lat="39.795487793185615" lon="8.554990657589993"><ele>3.0</ele><time>2026-05-03T05:50:27.998Z</time></trkpt><trkpt lat="39.795605515878215" lon="8.554988042709216"><ele>3.0</ele><time>2026-05-03T05:50:28.998Z</time></trkpt><trkpt lat="39.795720890112236" lon="8.554989423586864"><ele>3.0</ele><time>2026-05-03T05:50:29.998Z</time></trkpt><trkpt lat="39.79584319424875" lon="8.554989894299085"><ele>3.0</ele><time>2026-05-03T05:50:30.998Z</time></trkpt><trkpt lat="39.79596673797595" lon="8.554991894368737"><ele>3.0</ele><time>2026-05-03T05:50:31.998Z</time></trkpt><trkpt lat="39.796095925713544" lon="8.55498895119653"><ele>3.25</ele><time>2026-05-03T05:50:32.998Z</time></trkpt><trkpt lat="39.79623195284137" lon="8.554986951011402"><ele>3.5</ele><time>2026-05-03T05:50:33.998Z</time></trkpt><trkpt lat="39.79637065536786" lon="8.554988134534927"><ele>3.75</ele><time>2026-05-03T05:50:34.998Z</time></trkpt><trkpt lat="39.796513956919696" lon="8.554990333491304"><ele>4.0</ele><time>2026-05-03T05:50:35.998Z</time></trkpt><trkpt lat="39.79665825517975" lon="8.554994246484693"><ele>4.0</ele><time>2026-05-03T05:50:36.998Z</time></trkpt><trkpt lat="39.79680498161338" lon="8.554995716229714"><ele>4.0</ele><time>2026-05-03T05:50:37.998Z</time></trkpt><trkpt lat="39.79694136028104" lon="8.554996438107489"><ele>4.0</ele><time>2026-05-03T05:50:38.998Z</time></trkpt><trkpt lat="39.79706282107387" lon="8.554997033506007"><ele>4.0</ele><time>2026-05-03T05:50:39.998Z</time></trkpt><trkpt lat="39.79718080018641" lon="8.554997363182558"><ele>4.4</ele><time>2026-05-03T05:50:40.998Z</time></trkpt><trkpt lat="39.79728933988474" lon="8.554994625517512"><ele>4.800000000000001</ele><time>2026-05-03T05:50:42Z</time></trkpt><trkpt lat="39.79738963008918" lon="8.554995740181933"><ele>5.199999999999999</ele><time>2026-05-03T05:50:43Z</time></trkpt><trkpt lat="39.7974947286143" lon="8.554990867832098"><ele>5.6</ele><time>2026-05-03T05:50:44Z</time></trkpt><trkpt lat="39.79761051573083" lon="8.55498857557046"><ele>6.0</ele><time>2026-05-03T05:50:45Z</time></trkpt><trkpt lat="39.797728388295866" lon="8.554988834007565"><ele>6.166666666666667</ele><time>2026-05-03T05:50:46Z</time></trkpt><trkpt lat="39.79783501475103" lon="8.554988904284787"><ele>6.333333333333334</ele><time>2026-05-03T05:50:47Z</time></trkpt><trkpt lat="39.79791840261642" lon="8.554989268850596"><ele>6.5</ele><time>2026-05-03T05:50:48Z</time></trkpt><trkpt lat="39.79799112508606" lon="8.554991872464203"><ele>6.666666666666667</ele><time>2026-05-03T05:50:49Z</time></trkpt><trkpt lat="39.79805445818203" lon="8.55501739458469"><ele>6.833333333333334</ele><time>2026-05-03T05:50:50Z</time></trkpt><trkpt lat="39.79810085355353" lon="8.555082284978202"><ele>7.0</ele><time>2026-05-03T05:50:51Z</time></trkpt><trkpt lat="39.79810819411067" lon="8.555205580399456"><ele>7.0</ele><time>2026-05-03T05:50:52Z</time></trkpt><trkpt lat="39.798065627180584" lon="8.555367122513276"><ele>7.0</ele><time>2026-05-03T05:50:53Z</time></trkpt><trkpt lat="39.79807021326302" lon="8.5555395726385"><ele>7.0</ele><time>2026-05-03T05:50:54Z</time></trkpt><trkpt lat="39.798059333009164" lon="8.555699753753423"><ele>7.0</ele><time>2026-05-03T05:50:55Z</time></trkpt><trkpt lat="39.79805550563239" lon="8.55586840720862"><ele>6.25</ele><time>2026-05-03T05:50:56Z</time></trkpt><trkpt lat="39.79805287032808" lon="8.556050370787649"><ele>5.5</ele><time>2026-05-03T05:50:57Z</time></trkpt><trkpt lat="39.79804422651768" lon="8.556241347922157"><ele>4.75</ele><time>2026-05-03T05:50:58Z</time></trkpt><trkpt lat="39.79803951274126" lon="8.556431463861491"><ele>4.0</ele><time>2026-05-03T05:50:59Z</time></trkpt><trkpt lat="39.79803319595207" lon="8.556621355409433"><ele>3.8000000000000003</ele><time>2026-05-03T05:51:00Z</time></trkpt><trkpt lat="39.798033582806255" lon="8.556803109385832"><ele>3.6000000000000005</ele><time>2026-05-03T05:51:01Z</time></trkpt><trkpt lat="39.79803830847852" lon="8.556957204253017"><ele>3.4</ele><time>2026-05-03T05:51:02Z</time></trkpt><trkpt lat="39.79804431271469" lon="8.557080370612372"><ele>3.2</ele><time>2026-05-03T05:51:03Z</time></trkpt><trkpt lat="39.79804400917738" lon="8.557180987019533"><ele>3.0</ele><time>2026-05-03T05:51:04Z</time></trkpt><trkpt lat="39.798040498842845" lon="8.557271718846208"><ele>3.0</ele><time>2026-05-03T05:51:05Z</time></trkpt><trkpt lat="39.79804293851314" lon="8.557416981003431"><ele>3.0</ele><time>2026-05-03T05:51:07Z</time></trkpt><trkpt lat="39.79812170531927" lon="8.557527920639256"><ele>3.0</ele><time>2026-05-03T05:51:09Z</time></trkpt><trkpt lat="39.79821510647192" lon="8.557533106273228"><ele>3.0</ele><time>2026-05-03T05:51:10Z</time></trkpt><trkpt lat="39.79834184337393" lon="8.557512894322569"><ele>3.0</ele><time>2026-05-03T05:51:11Z</time></trkpt><trkpt lat="39.79848918778494" lon="8.55749336978971"><ele>3.333333333333333</ele><time>2026-05-03T05:51:12Z</time></trkpt><trkpt lat="39.7986784573356" lon="8.557480031564292"><ele>3.6666666666666665</ele><time>2026-05-03T05:51:13Z</time></trkpt><trkpt lat="39.79889057333165" lon="8.55747701560251"><ele>4.0</ele><time>2026-05-03T05:51:14Z</time></trkpt><trkpt lat="39.79911326886934" lon="8.557481364539548"><ele>3.5</ele><time>2026-05-03T05:51:15Z</time></trkpt><trkpt lat="39.79935726155718" lon="8.5574764874741"><ele>3.0</ele><time>2026-05-03T05:51:16Z</time></trkpt><trkpt lat="39.799612872258905" lon="8.557469490158914"><ele>3.0</ele><time>2026-05-03T05:51:17Z</time></trkpt><trkpt lat="39.79987901792854" lon="8.557476765922868"><ele>3.0</ele><time>2026-05-03T05:51:18Z</time></trkpt><trkpt lat="39.800153043408855" lon="8.557485286214082"><ele>3.5</ele><time>2026-05-03T05:51:19Z</time></trkpt><trkpt lat="39.80041524553397" lon="8.557486302698406"><ele>4.0</ele><time>2026-05-03T05:51:20Z</time></trkpt><trkpt lat="39.80066150266846" lon="8.557489219226452"><ele>4.0</ele><time>2026-05-03T05:51:21Z</time></trkpt><trkpt lat="39.80087890675751" lon="8.557487159794297"><ele>4.0</ele><time>2026-05-03T05:51:22Z</time></trkpt><trkpt lat="39.80107848664527" lon="8.55748688527008"><ele>4.0</ele><time>2026-05-03T05:51:23Z</time></trkpt><trkpt lat="39.80126225286289" lon="8.557484662458098"><ele>3.75</ele><time>2026-05-03T05:51:24Z</time></trkpt><trkpt lat="39.80143047321179" lon="8.557479646807824"><ele>3.5</ele><time>2026-05-03T05:51:25Z</time></trkpt><trkpt lat="39.80157124845138" lon="8.557476132680653"><ele>3.25</ele><time>2026-05-03T05:51:25.999Z</time></trkpt><trkpt lat="39.801688453496254" lon="8.557470555009694"><ele>3.0</ele><time>2026-05-03T05:51:26.999Z</time></trkpt><trkpt lat="39.801791453477996" lon="8.557461332391162"><ele>2.75</ele><time>2026-05-03T05:51:27.999Z</time></trkpt><trkpt lat="39.80186255649433" lon="8.557459710040028"><ele>2.5</ele><time>2026-05-03T05:51:28.999Z</time></trkpt><trkpt lat="39.80190972450719" lon="8.557650513123816"><ele>2.25</ele><time>2026-05-03T05:51:31.999Z</time></trkpt><trkpt lat="39.80191452542522" lon="8.557784398390165"><ele>2.0</ele><time>2026-05-03T05:51:32.999Z</time></trkpt><trkpt lat="39.8019146313961" lon="8.557965376082333"><ele>1.6666666666666665</ele><time>2026-05-03T05:51:33.999Z</time></trkpt><trkpt lat="39.80191696923617" lon="8.558172044551684"><ele>1.3333333333333333</ele><time>2026-05-03T05:51:34.999Z</time></trkpt><trkpt lat="39.80192027018726" lon="8.558387944130638"><ele>1.0</ele><time>2026-05-03T05:51:35.999Z</time></trkpt><trkpt lat="39.80192535103891" lon="8.558630387857765"><ele>1.6666666666666665</ele><time>2026-05-03T05:51:36.999Z</time></trkpt><trkpt lat="39.80192643409961" lon="8.55887699973087"><ele>2.3333333333333335</ele><time>2026-05-03T05:51:37.999Z</time></trkpt><trkpt lat="39.80192921944683" lon="8.55912903993294"><ele>3.0</ele><time>2026-05-03T05:51:38.999Z</time></trkpt><trkpt lat="39.80193436355368" lon="8.5593847929803"><ele>2.6666666666666665</ele><time>2026-05-03T05:51:39.999Z</time></trkpt><trkpt lat="39.801940437671135" lon="8.559634222583448"><ele>2.333333333333333</ele><time>2026-05-03T05:51:40.999Z</time></trkpt><trkpt lat="39.801945618127455" lon="8.55987665692461"><ele>2.0</ele><time>2026-05-03T05:51:41.999Z</time></trkpt><trkpt lat="39.80195061539147" lon="8.560115600522714"><ele>2.0</ele><time>2026-05-03T05:51:42.999Z</time></trkpt><trkpt lat="39.80192395799771" lon="8.560354496633543"><ele>2.0</ele><time>2026-05-03T05:51:43.999Z</time></trkpt><trkpt lat="39.80192450830754" lon="8.560592716317164"><ele>2.0</ele><time>2026-05-03T05:51:44.999Z</time></trkpt><trkpt lat="39.80192507368292" lon="8.560837457501759"><ele>2.0</ele><time>2026-05-03T05:51:45.999Z</time></trkpt><trkpt lat="39.80192566878976" lon="8.56109506885139"><ele>2.0</ele><time>2026-05-03T05:51:46.999Z</time></trkpt><trkpt lat="39.80193712791522" lon="8.561368089692289"><ele>2.0</ele><time>2026-05-03T05:51:47.999Z</time></trkpt><trkpt lat="39.80193492523474" lon="8.561654704503786"><ele>2.0</ele><time>2026-05-03T05:51:48.999Z</time></trkpt><trkpt lat="39.80193824600295" lon="8.561946081714924"><ele>2.0</ele><time>2026-05-03T05:51:49.999Z</time></trkpt><trkpt lat="39.80194034921503" lon="8.56223792011765"><ele>2.0</ele><time>2026-05-03T05:51:50.999Z</time></trkpt><trkpt lat="39.80194000003717" lon="8.562533405459037"><ele>3.0</ele><time>2026-05-03T05:51:51.999Z</time></trkpt><trkpt lat="39.80193997187247" lon="8.562829034335596"><ele>4.0</ele><time>2026-05-03T05:51:52.999Z</time></trkpt><trkpt lat="39.80193951154157" lon="8.563126372781575"><ele>4.0</ele><time>2026-05-03T05:51:53.999Z</time></trkpt><trkpt lat="39.801938786992025" lon="8.563422103415606"><ele>4.0</ele><time>2026-05-03T05:51:54.999Z</time></trkpt><trkpt lat="39.80194020739642" lon="8.563715590504742"><ele>3.6666666666666665</ele><time>2026-05-03T05:51:55.999Z</time></trkpt><trkpt lat="39.80194073632549" lon="8.564006179169946"><ele>3.333333333333333</ele><time>2026-05-03T05:51:56.999Z</time></trkpt><trkpt lat="39.80194192805319" lon="8.564295116611705"><ele>3.0</ele><time>2026-05-03T05:51:57.999Z</time></trkpt><trkpt lat="39.801943173208215" lon="8.564582636781001"><ele>3.0</ele><time>2026-05-03T05:51:58.999Z</time></trkpt><trkpt lat="39.80194521130508" lon="8.564869618457173"><ele>3.0</ele><time>2026-05-03T05:51:59.999Z</time></trkpt><trkpt lat="39.80194735412202" lon="8.565157118192701"><ele>3.0</ele><time>2026-05-03T05:52:00.999Z</time></trkpt><trkpt lat="39.80194785858024" lon="8.56544583762609"><ele>3.333333333333333</ele><time>2026-05-03T05:52:01.999Z</time></trkpt><trkpt lat="39.80194984755802" lon="8.565734533654387"><ele>3.6666666666666665</ele><time>2026-05-03T05:52:02.999Z</time></trkpt><trkpt lat="39.80195009945099" lon="8.566022854657657"><ele>4.0</ele><time>2026-05-03T05:52:03.999Z</time></trkpt><trkpt lat="39.801948635861564" lon="8.566311193328698"><ele>4.0</ele><time>2026-05-03T05:52:04.999Z</time></trkpt><trkpt lat="39.80194909804517" lon="8.566599475034538"><ele>4.0</ele><time>2026-05-03T05:52:05.999Z</time></trkpt><trkpt lat="39.80195162246112" lon="8.566887922840793"><ele>4.0</ele><time>2026-05-03T05:52:06.999Z</time></trkpt><trkpt lat="39.80195280891384" lon="8.567171520592801"><ele>4.333333333333333</ele><time>2026-05-03T05:52:07.999Z</time></trkpt><trkpt lat="39.801954034497555" lon="8.567450641104381"><ele>4.666666666666667</ele><time>2026-05-03T05:52:08.999Z</time></trkpt><trkpt lat="39.801952894866595" lon="8.567727950410612"><ele>5.0</ele><time>2026-05-03T05:52:09.999Z</time></trkpt><trkpt lat="39.80195517142602" lon="8.568003252672431"><ele>5.333333333333334</ele><time>2026-05-03T05:52:10.999Z</time></trkpt><trkpt lat="39.80195670467164" lon="8.568280098025143"><ele>5.666666666666667</ele><time>2026-05-03T05:52:11.999Z</time></trkpt><trkpt lat="39.801958777584524" lon="8.56855904521469"><ele>6.0</ele><time>2026-05-03T05:52:12.999Z</time></trkpt><trkpt lat="39.801962352395456" lon="8.568834330353207"><ele>5.333333333333333</ele><time>2026-05-03T05:52:13.999Z</time></trkpt><trkpt lat="39.80196571186732" lon="8.569078767837937"><ele>4.666666666666666</ele><time>2026-05-03T05:52:14.999Z</time></trkpt><trkpt lat="39.80196310998664" lon="8.569303283300082"><ele>4.0</ele><time>2026-05-03T05:52:15.999Z</time></trkpt><trkpt lat="39.80196304437447" lon="8.569531472260872"><ele>3.6666666666666665</ele><time>2026-05-03T05:52:16.999Z</time></trkpt><trkpt lat="39.801966729926356" lon="8.569765701046505"><ele>3.333333333333333</ele><time>2026-05-03T05:52:17.999Z</time></trkpt><trkpt lat="39.80196971390097" lon="8.570006308826251"><ele>3.0</ele><time>2026-05-03T05:52:18.999Z</time></trkpt><trkpt lat="39.80195618597317" lon="8.570259344482803"><ele>3.0</ele><time>2026-05-03T05:52:19.999Z</time></trkpt><trkpt lat="39.8019570678733" lon="8.570522753150621"><ele>3.0</ele><time>2026-05-03T05:52:20.999Z</time></trkpt><trkpt lat="39.801957981777825" lon="8.570795720901582"><ele>3.0</ele><time>2026-05-03T05:52:21.999Z</time></trkpt><trkpt lat="39.801958909662645" lon="8.571072864217545"><ele>3.333333333333333</ele><time>2026-05-03T05:52:22.999Z</time></trkpt><trkpt lat="39.80195909637789" lon="8.571353662221089"><ele>3.6666666666666665</ele><time>2026-05-03T05:52:23.999Z</time></trkpt><trkpt lat="39.80195934473742" lon="8.57164414367299"><ele>4.0</ele><time>2026-05-03T05:52:24.999Z</time></trkpt><trkpt lat="39.80195959611935" lon="8.571938159783178"><ele>4.0</ele><time>2026-05-03T05:52:25.999Z</time></trkpt><trkpt lat="39.801959894505615" lon="8.572233407472291"><ele>4.0</ele><time>2026-05-03T05:52:26.999Z</time></trkpt><trkpt lat="39.80196126081575" lon="8.572531637780948"><ele>4.0</ele><time>2026-05-03T05:52:27.998Z</time></trkpt><trkpt lat="39.80196263338416" lon="8.57283123399139"><ele>4.0</ele><time>2026-05-03T05:52:28.998Z</time></trkpt><trkpt lat="39.801977400501784" lon="8.57313009792226"><ele>4.0</ele><time>2026-05-03T05:52:29.998Z</time></trkpt><trkpt lat="39.801978459146675" lon="8.573424144300697"><ele>4.0</ele><time>2026-05-03T05:52:30.998Z</time></trkpt><trkpt lat="39.8019759452629" lon="8.57371650594515"><ele>4.0</ele><time>2026-05-03T05:52:31.998Z</time></trkpt><trkpt lat="39.80197824882803" lon="8.574009065489129"><ele>4.0</ele><time>2026-05-03T05:52:32.998Z</time></trkpt><trkpt lat="39.80198396999379" lon="8.574300067479511"><ele>4.0</ele><time>2026-05-03T05:52:33.998Z</time></trkpt><trkpt lat="39.80198748367176" lon="8.57459067870609"><ele>4.0</ele><time>2026-05-03T05:52:34.998Z</time></trkpt><trkpt lat="39.80198858718218" lon="8.574881319874288"><ele>4.0</ele><time>2026-05-03T05:52:35.998Z</time></trkpt><trkpt lat="39.80198803033103" lon="8.57516897019832"><ele>4.0</ele><time>2026-05-03T05:52:36.998Z</time></trkpt><trkpt lat="39.801985495459334" lon="8.575458163120913"><ele>4.0</ele><time>2026-05-03T05:52:37.998Z</time></trkpt><trkpt lat="39.8019853135463" lon="8.575748158278767"><ele>4.0</ele><time>2026-05-03T05:52:38.998Z</time></trkpt><trkpt lat="39.8019850420788" lon="8.576037447248412"><ele>4.0</ele><time>2026-05-03T05:52:39.998Z</time></trkpt><trkpt lat="39.80198844979235" lon="8.576326613015599"><ele>4.666666666666666</ele><time>2026-05-03T05:52:40.998Z</time></trkpt><trkpt lat="39.80198945335602" lon="8.576616348112093"><ele>5.333333333333333</ele><time>2026-05-03T05:52:41.998Z</time></trkpt><trkpt lat="39.80199031489515" lon="8.576907435778136"><ele>6.0</ele><time>2026-05-03T05:52:42.998Z</time></trkpt><trkpt lat="39.80198915926602" lon="8.577197488519907"><ele>6.333333333333334</ele><time>2026-05-03T05:52:43.998Z</time></trkpt><trkpt lat="39.80197337838338" lon="8.57748683317253"><ele>6.666666666666667</ele><time>2026-05-03T05:52:44.998Z</time></trkpt><trkpt lat="39.80197594557635" lon="8.57777414291134"><ele>7.0</ele><time>2026-05-03T05:52:45.998Z</time></trkpt><trkpt lat="39.80199404756823" lon="8.578058138273827"><ele>7.0</ele><time>2026-05-03T05:52:47Z</time></trkpt><trkpt lat="39.80197888056463" lon="8.578338662646244"><ele>7.0</ele><time>2026-05-03T05:52:48Z</time></trkpt><trkpt lat="39.801979727908815" lon="8.578614468776593"><ele>7.0</ele><time>2026-05-03T05:52:49Z</time></trkpt><trkpt lat="39.801980195808255" lon="8.578886615753488"><ele>7.0</ele><time>2026-05-03T05:52:50Z</time></trkpt><trkpt lat="39.80199528043181" lon="8.579156938208433"><ele>7.0</ele><time>2026-05-03T05:52:51Z</time></trkpt><trkpt lat="39.801995126167036" lon="8.579423181968648"><ele>7.0</ele><time>2026-05-03T05:52:52Z</time></trkpt><trkpt lat="39.80199532386022" lon="8.579685684144058"><ele>6.666666666666667</ele><time>2026-05-03T05:52:53Z</time></trkpt><trkpt lat="39.80199614761087" lon="8.579944496869585"><ele>6.333333333333334</ele><time>2026-05-03T05:52:54Z</time></trkpt><trkpt lat="39.80199732840538" lon="8.58020110249763"><ele>6.0</ele><time>2026-05-03T05:52:55Z</time></trkpt><trkpt lat="39.801991228364194" lon="8.580454704001813"><ele>6.0</ele><time>2026-05-03T05:52:56Z</time></trkpt><trkpt lat="39.80199921844276" lon="8.580699715018683"><ele>6.0</ele><time>2026-05-03T05:52:57Z</time></trkpt><trkpt lat="39.8019994759085" lon="8.580933818973486"><ele>6.0</ele><time>2026-05-03T05:52:58Z</time></trkpt><trkpt lat="39.80200054841099" lon="8.581156187373514"><ele>6.0</ele><time>2026-05-03T05:52:59Z</time></trkpt><trkpt lat="39.80200081457982" lon="8.58135596337807"><ele>6.0</ele><time>2026-05-03T05:53:00Z</time></trkpt><trkpt lat="39.80200149767664" lon="8.581545724247757"><ele>6.0</ele><time>2026-05-03T05:53:01Z</time></trkpt><trkpt lat="39.8020032451719" lon="8.581724823589337"><ele>6.0</ele><time>2026-05-03T05:53:02Z</time></trkpt><trkpt lat="39.8020054309273" lon="8.581874078816337"><ele>6.0</ele><time>2026-05-03T05:53:03Z</time></trkpt><trkpt lat="39.80200675269876" lon="8.582003662001624"><ele>6.0</ele><time>2026-05-03T05:53:04Z</time></trkpt><trkpt lat="39.80200819538782" lon="8.582107967917782"><ele>6.0</ele><time>2026-05-03T05:53:05Z</time></trkpt><trkpt lat="39.802010069686105" lon="8.582206074465649"><ele>6.0</ele><time>2026-05-03T05:53:06Z</time></trkpt><trkpt lat="39.80201656945293" lon="8.582358614787474"><ele>6.0</ele><time>2026-05-03T05:53:07Z</time></trkpt><trkpt lat="39.80201688715441" lon="8.582545032457698"><ele>5.666666666666667</ele><time>2026-05-03T05:53:08Z</time></trkpt><trkpt lat="39.80201357317265" lon="8.58275121183013"><ele>5.333333333333334</ele><time>2026-05-03T05:53:09Z</time></trkpt><trkpt lat="39.80201694175956" lon="8.582985654517442"><ele>5.0</ele><time>2026-05-03T05:53:10Z</time></trkpt><trkpt lat="39.802023031193926" lon="8.58324855252655"><ele>5.0</ele><time>2026-05-03T05:53:11Z</time></trkpt><trkpt lat="39.80202507355193" lon="8.583523027641741"><ele>5.0</ele><time>2026-05-03T05:53:12Z</time></trkpt><trkpt lat="39.8020262636124" lon="8.583803905401194"><ele>5.0</ele><time>2026-05-03T05:53:13Z</time></trkpt><trkpt lat="39.802024180071406" lon="8.58410045920834"><ele>5.5</ele><time>2026-05-03T05:53:14Z</time></trkpt><trkpt lat="39.802024360175544" lon="8.584398400037351"><ele>6.0</ele><time>2026-05-03T05:53:15Z</time></trkpt><trkpt lat="39.80202589478599" lon="8.584693971418751"><ele>6.0</ele><time>2026-05-03T05:53:16Z</time></trkpt><trkpt lat="39.802025241388364" lon="8.584982799407827"><ele>6.0</ele><time>2026-05-03T05:53:17Z</time></trkpt><trkpt lat="39.80202662178295" lon="8.58526720117096"><ele>6.0</ele><time>2026-05-03T05:53:18Z</time></trkpt><trkpt lat="39.802030840493785" lon="8.585543845400338"><ele>6.0</ele><time>2026-05-03T05:53:19Z</time></trkpt><trkpt lat="39.80203492490449" lon="8.585815297962563"><ele>6.0</ele><time>2026-05-03T05:53:20Z</time></trkpt><trkpt lat="39.80203889796494" lon="8.58608056070231"><ele>6.0</ele><time>2026-05-03T05:53:21Z</time></trkpt><trkpt lat="39.80204096794781" lon="8.586340803372924"><ele>5.666666666666667</ele><time>2026-05-03T05:53:22Z</time></trkpt><trkpt lat="39.80204271762458" lon="8.58659822678917"><ele>5.333333333333334</ele><time>2026-05-03T05:53:23Z</time></trkpt><trkpt lat="39.80203977285191" lon="8.586856049668349"><ele>5.0</ele><time>2026-05-03T05:53:24Z</time></trkpt><trkpt lat="39.802036747591906" lon="8.587113568553676"><ele>4.333333333333334</ele><time>2026-05-03T05:53:25Z</time></trkpt><trkpt lat="39.80203525210594" lon="8.587373447105406"><ele>3.666666666666667</ele><time>2026-05-03T05:53:26Z</time></trkpt><trkpt lat="39.802033661885915" lon="8.587633666542445"><ele>3.0</ele><time>2026-05-03T05:53:27Z</time></trkpt><trkpt lat="39.80203122276982" lon="8.587895221531866"><ele>3.0</ele><time>2026-05-03T05:53:28Z</time></trkpt><trkpt lat="39.802033638714214" lon="8.588156974729939"><ele>3.0</ele><time>2026-05-03T05:53:28.999Z</time></trkpt><trkpt lat="39.80203221485499" lon="8.588416791920213"><ele>3.0</ele><time>2026-05-03T05:53:29.999Z</time></trkpt><trkpt lat="39.80202988607358" lon="8.588673322426885"><ele>3.333333333333333</ele><time>2026-05-03T05:53:30.999Z</time></trkpt><trkpt lat="39.80202962678446" lon="8.588929035454484"><ele>3.6666666666666665</ele><time>2026-05-03T05:53:31.999Z</time></trkpt><trkpt lat="39.802027655126146" lon="8.589184489099722"><ele>4.0</ele><time>2026-05-03T05:53:32.999Z</time></trkpt><trkpt lat="39.80203098691211" lon="8.589431810813926"><ele>4.0</ele><time>2026-05-03T05:53:33.999Z</time></trkpt><trkpt lat="39.80202605285472" lon="8.589673711290994"><ele>4.0</ele><time>2026-05-03T05:53:34.999Z</time></trkpt><trkpt lat="39.8020296595289" lon="8.589917411658085"><ele>4.0</ele><time>2026-05-03T05:53:35.999Z</time></trkpt><trkpt lat="39.802037036283345" lon="8.590172650280438"><ele>4.0</ele><time>2026-05-03T05:53:36.999Z</time></trkpt><trkpt lat="39.80203914156487" lon="8.590429385745402"><ele>4.0</ele><time>2026-05-03T05:53:37.999Z</time></trkpt><trkpt lat="39.80204093340579" lon="8.590681480898207"><ele>4.0</ele><time>2026-05-03T05:53:38.999Z</time></trkpt><trkpt lat="39.80204312431314" lon="8.590913916319451"><ele>4.0</ele><time>2026-05-03T05:53:39.999Z</time></trkpt><trkpt lat="39.80204977454666" lon="8.591127245876825"><ele>4.0</ele><time>2026-05-03T05:53:40.999Z</time></trkpt><trkpt lat="39.802053323128916" lon="8.591335254146463"><ele>4.0</ele><time>2026-05-03T05:53:41.999Z</time></trkpt><trkpt lat="39.802054939373626" lon="8.591540991618992"><ele>5.0</ele><time>2026-05-03T05:53:42.999Z</time></trkpt><trkpt lat="39.802058051692455" lon="8.591746198771638"><ele>6.0</ele><time>2026-05-03T05:53:43.999Z</time></trkpt><trkpt lat="39.80206602878679" lon="8.591946659188777"><ele>7.0</ele><time>2026-05-03T05:53:44.999Z</time></trkpt><trkpt lat="39.8020778894675" lon="8.592137857451617"><ele>7.0</ele><time>2026-05-03T05:53:45.999Z</time></trkpt><trkpt lat="39.80209327830687" lon="8.592317233472675"><ele>7.0</ele><time>2026-05-03T05:53:46.999Z</time></trkpt><trkpt lat="39.80210821038421" lon="8.592489677028256"><ele>7.0</ele><time>2026-05-03T05:53:47.999Z</time></trkpt><trkpt lat="39.802114704783435" lon="8.592661641507975"><ele>7.0</ele><time>2026-05-03T05:53:48.999Z</time></trkpt><trkpt lat="39.80211049515935" lon="8.592840100399242"><ele>6.666666666666667</ele><time>2026-05-03T05:53:49.999Z</time></trkpt><trkpt lat="39.80209502859447" lon="8.593036915652318"><ele>6.333333333333334</ele><time>2026-05-03T05:53:50.999Z</time></trkpt><trkpt lat="39.80209054189665" lon="8.593242292347055"><ele>6.0</ele><time>2026-05-03T05:53:51.999Z</time></trkpt><trkpt lat="39.802092608392684" lon="8.593444883431939"><ele>6.0</ele><time>2026-05-03T05:53:52.999Z</time></trkpt><trkpt lat="39.80209619552314" lon="8.593649643317368"><ele>6.0</ele><time>2026-05-03T05:53:53.999Z</time></trkpt><trkpt lat="39.802100311289045" lon="8.593852052601333"><ele>6.0</ele><time>2026-05-03T05:53:54.999Z</time></trkpt><trkpt lat="39.802099098565215" lon="8.594054029713947"><ele>5.666666666666667</ele><time>2026-05-03T05:53:55.999Z</time></trkpt><trkpt lat="39.802096597346754" lon="8.594259087365227"><ele>5.333333333333334</ele><time>2026-05-03T05:53:56.999Z</time></trkpt><trkpt lat="39.802100015744365" lon="8.59446374240734"><ele>5.0</ele><time>2026-05-03T05:53:57.999Z</time></trkpt><trkpt lat="39.80210418819495" lon="8.594676053720056"><ele>5.0</ele><time>2026-05-03T05:53:58.999Z</time></trkpt><trkpt lat="39.80210646140302" lon="8.594880903517048"><ele>5.0</ele><time>2026-05-03T05:53:59.999Z</time></trkpt><trkpt lat="39.802109912884255" lon="8.595087529604688"><ele>5.0</ele><time>2026-05-03T05:54:00.999Z</time></trkpt><trkpt lat="39.8021093054953" lon="8.595291929269411"><ele>4.333333333333334</ele><time>2026-05-03T05:54:01.999Z</time></trkpt><trkpt lat="39.80211117043277" lon="8.59550086949696"><ele>3.666666666666667</ele><time>2026-05-03T05:54:02.999Z</time></trkpt><trkpt lat="39.80210987906823" lon="8.59571252576603"><ele>3.0</ele><time>2026-05-03T05:54:03.999Z</time></trkpt><trkpt lat="39.802110063981" lon="8.595920866997453"><ele>3.0</ele><time>2026-05-03T05:54:04.999Z</time></trkpt><trkpt lat="39.802111635015905" lon="8.59611731879672"><ele>3.0</ele><time>2026-05-03T05:54:05.999Z</time></trkpt><trkpt lat="39.80211301940093" lon="8.596306443231244"><ele>3.0</ele><time>2026-05-03T05:54:06.999Z</time></trkpt><trkpt lat="39.80211664179082" lon="8.596489072996699"><ele>3.0</ele><time>2026-05-03T05:54:07.999Z</time></trkpt><trkpt lat="39.80212898548562" lon="8.596662139900083"><ele>3.0</ele><time>2026-05-03T05:54:08.999Z</time></trkpt><trkpt lat="39.80217051348552" lon="8.596825473628575"><ele>3.0</ele><time>2026-05-03T05:54:09.999Z</time></trkpt><trkpt lat="39.80225830562214" lon="8.59696508964799"><ele>3.0</ele><time>2026-05-03T05:54:10.999Z</time></trkpt><trkpt lat="39.802369510973456" lon="8.597059694113598"><ele>3.0</ele><time>2026-05-03T05:54:11.999Z</time></trkpt><trkpt lat="39.80249776617609" lon="8.597114023019879"><ele>2.3333333333333335</ele><time>2026-05-03T05:54:12.999Z</time></trkpt><trkpt lat="39.80265044828357" lon="8.597103865844185"><ele>1.6666666666666665</ele><time>2026-05-03T05:54:13.999Z</time></trkpt><trkpt lat="39.80282059594905" lon="8.597115269459737"><ele>1.0</ele><time>2026-05-03T05:54:14.999Z</time></trkpt><trkpt lat="39.80299292257549" lon="8.597094572944018"><ele>1.0</ele><time>2026-05-03T05:54:15.999Z</time></trkpt><trkpt lat="39.803155178594224" lon="8.597082984731012"><ele>1.0</ele><time>2026-05-03T05:54:16.999Z</time></trkpt><trkpt lat="39.803299349322" lon="8.597083166232641"><ele>1.0</ele><time>2026-05-03T05:54:17.999Z</time></trkpt><trkpt lat="39.803431301763204" lon="8.59709012146615"><ele>1.0</ele><time>2026-05-03T05:54:18.999Z</time></trkpt><trkpt lat="39.80355340732877" lon="8.597124093143703"><ele>1.0</ele><time>2026-05-03T05:54:19.999Z</time></trkpt><trkpt lat="39.80366581900285" lon="8.597206478453282"><ele>1.0</ele><time>2026-05-03T05:54:20.999Z</time></trkpt><trkpt lat="39.803758713524914" lon="8.597321723253112"><ele>1.0</ele><time>2026-05-03T05:54:21.999Z</time></trkpt><trkpt lat="39.80381578353827" lon="8.597482555068629"><ele>1.0</ele><time>2026-05-03T05:54:22.999Z</time></trkpt><trkpt lat="39.803852085090554" lon="8.597662415497451"><ele>0.6666666666666666</ele><time>2026-05-03T05:54:23.999Z</time></trkpt><trkpt lat="39.80383872636027" lon="8.5978748262295"><ele>0.3333333333333333</ele><time>2026-05-03T05:54:24.999Z</time></trkpt><trkpt lat="39.803850347380774" lon="8.598116699524557"><ele>0.0</ele><time>2026-05-03T05:54:25.999Z</time></trkpt><trkpt lat="39.80384690249194" lon="8.598385975213477"><ele>-0.5</ele><time>2026-05-03T05:54:26.999Z</time></trkpt><trkpt lat="39.80384561987461" lon="8.598677498371167"><ele>-1.0</ele><time>2026-05-03T05:54:27.999Z</time></trkpt><trkpt lat="39.80384598599588" lon="8.598973494872427"><ele>-1.0</ele><time>2026-05-03T05:54:28.999Z</time></trkpt><trkpt lat="39.803844946452394" lon="8.599292968967369"><ele>-1.0</ele><time>2026-05-03T05:54:29.998Z</time></trkpt><trkpt lat="39.80384426934595" lon="8.599609694421472"><ele>-1.0</ele><time>2026-05-03T05:54:30.998Z</time></trkpt><trkpt lat="39.80384660593422" lon="8.599926733944013"><ele>-1.0</ele><time>2026-05-03T05:54:31.998Z</time></trkpt><trkpt lat="39.80384928682031" lon="8.600249396718963"><ele>-1.0</ele><time>2026-05-03T05:54:32.998Z</time></trkpt><trkpt lat="39.803853639359325" lon="8.600567137774906"><ele>-1.0</ele><time>2026-05-03T05:54:33.998Z</time></trkpt><trkpt lat="39.80385496160242" lon="8.600881327777595"><ele>-1.5</ele><time>2026-05-03T05:54:34.998Z</time></trkpt><trkpt lat="39.80385561804704" lon="8.601193460549224"><ele>-2.0</ele><time>2026-05-03T05:54:35.998Z</time></trkpt><trkpt lat="39.80385481997668" lon="8.601503349208736"><ele>-2.0</ele><time>2026-05-03T05:54:36.998Z</time></trkpt><trkpt lat="39.803854255590245" lon="8.60181185328213"><ele>-2.0</ele><time>2026-05-03T05:54:37.998Z</time></trkpt><trkpt lat="39.80385718179505" lon="8.602119790702366"><ele>-1.5</ele><time>2026-05-03T05:54:38.998Z</time></trkpt><trkpt lat="39.80386044324685" lon="8.602426439715472"><ele>-1.0</ele><time>2026-05-03T05:54:39.998Z</time></trkpt><trkpt lat="39.803864570202016" lon="8.60273177716677"><ele>-1.0</ele><time>2026-05-03T05:54:40.998Z</time></trkpt><trkpt lat="39.803866418714" lon="8.603031276393084"><ele>-1.0</ele><time>2026-05-03T05:54:41.998Z</time></trkpt><trkpt lat="39.80386749547671" lon="8.603330219383249"><ele>-1.0</ele><time>2026-05-03T05:54:42.998Z</time></trkpt><trkpt lat="39.80386899160394" lon="8.603626986270225"><ele>-1.0</ele><time>2026-05-03T05:54:43.998Z</time></trkpt><trkpt lat="39.80386990830662" lon="8.603914238060792"><ele>-1.0</ele><time>2026-05-03T05:54:44.998Z</time></trkpt><trkpt lat="39.8038707831173" lon="8.60419030040351"><ele>-1.0</ele><time>2026-05-03T05:54:45.998Z</time></trkpt><trkpt lat="39.803869659543366" lon="8.60445509622151"><ele>-1.0</ele><time>2026-05-03T05:54:46.998Z</time></trkpt><trkpt lat="39.80386899646752" lon="8.604714539647562"><ele>-1.0</ele><time>2026-05-03T05:54:47.998Z</time></trkpt><trkpt lat="39.80387829032115" lon="8.604978863304762"><ele>-1.0</ele><time>2026-05-03T05:54:48.998Z</time></trkpt><trkpt lat="39.80386584659528" lon="8.605254924186468"><ele>-1.0</ele><time>2026-05-03T05:54:49.998Z</time></trkpt><trkpt lat="39.803866389096484" lon="8.60553635956495"><ele>-1.0</ele><time>2026-05-03T05:54:50.998Z</time></trkpt><trkpt lat="39.80386693981391" lon="8.605822057284879"><ele>-1.0</ele><time>2026-05-03T05:54:52Z</time></trkpt><trkpt lat="39.80388146700466" lon="8.606111305243902"><ele>-1.0</ele><time>2026-05-03T05:54:53Z</time></trkpt><trkpt lat="39.803877937359566" lon="8.606404701238906"><ele>-1.0</ele><time>2026-05-03T05:54:54Z</time></trkpt><trkpt lat="39.80388076856265" lon="8.606697794326667"><ele>-2.0</ele><time>2026-05-03T05:54:55Z</time></trkpt><trkpt lat="39.803884470375145" lon="8.606992926540746"><ele>-3.0</ele><time>2026-05-03T05:54:56Z</time></trkpt><trkpt lat="39.803887155306434" lon="8.607288877714062"><ele>-3.0</ele><time>2026-05-03T05:54:57Z</time></trkpt><trkpt lat="39.803890570890395" lon="8.607586290945852"><ele>-3.0</ele><time>2026-05-03T05:54:58Z</time></trkpt><trkpt lat="39.80389328314952" lon="8.607884346718844"><ele>-3.0</ele><time>2026-05-03T05:54:59Z</time></trkpt><trkpt lat="39.80389456966982" lon="8.608181971214456"><ele>-3.0</ele><time>2026-05-03T05:55:00Z</time></trkpt><trkpt lat="39.80389473195674" lon="8.608484253005683"><ele>-2.0</ele><time>2026-05-03T05:55:01Z</time></trkpt><trkpt lat="39.803893481369265" lon="8.608785921614915"><ele>-1.0</ele><time>2026-05-03T05:55:02Z</time></trkpt><trkpt lat="39.80389648564582" lon="8.6090949347648"><ele>-1.0</ele><time>2026-05-03T05:55:03Z</time></trkpt><trkpt lat="39.80389872301586" lon="8.609405222371699"><ele>-1.0</ele><time>2026-05-03T05:55:04Z</time></trkpt><trkpt lat="39.80390205374092" lon="8.609717363351091"><ele>-1.0</ele><time>2026-05-03T05:55:05Z</time></trkpt><trkpt lat="39.803903120173175" lon="8.610026895210172"><ele>-1.0</ele><time>2026-05-03T05:55:06Z</time></trkpt><trkpt lat="39.80390374194981" lon="8.610332848151616"><ele>-0.3333333333333333</ele><time>2026-05-03T05:55:07Z</time></trkpt><trkpt lat="39.803903112985346" lon="8.610629943838497"><ele>0.3333333333333333</ele><time>2026-05-03T05:55:08Z</time></trkpt><trkpt lat="39.803901141712096" lon="8.610916158842437"><ele>1.0</ele><time>2026-05-03T05:55:09Z</time></trkpt><trkpt lat="39.80390041239994" lon="8.611192469820116"><ele>1.0</ele><time>2026-05-03T05:55:10Z</time></trkpt><trkpt lat="39.80390135053496" lon="8.611460402796506"><ele>1.0</ele><time>2026-05-03T05:55:11Z</time></trkpt><trkpt lat="39.80390173638618" lon="8.611734606970485"><ele>1.0</ele><time>2026-05-03T05:55:12Z</time></trkpt><trkpt lat="39.803901181414396" lon="8.612002974687481"><ele>0.6666666666666666</ele><time>2026-05-03T05:55:13Z</time></trkpt><trkpt lat="39.80390258914261" lon="8.612259132302226"><ele>0.3333333333333333</ele><time>2026-05-03T05:55:14Z</time></trkpt><trkpt lat="39.803907464623194" lon="8.612521608109871"><ele>0.0</ele><time>2026-05-03T05:55:15Z</time></trkpt><trkpt lat="39.80391035021261" lon="8.612788221717215"><ele>-0.3333333333333333</ele><time>2026-05-03T05:55:16Z</time></trkpt><trkpt lat="39.80390954630242" lon="8.613056142623543"><ele>-0.6666666666666666</ele><time>2026-05-03T05:55:17Z</time></trkpt><trkpt lat="39.803909439564556" lon="8.613328042274114"><ele>-1.0</ele><time>2026-05-03T05:55:18Z</time></trkpt><trkpt lat="39.80391052253487" lon="8.613599794185474"><ele>-0.6666666666666666</ele><time>2026-05-03T05:55:19Z</time></trkpt><trkpt lat="39.8039113638491" lon="8.613871396323617"><ele>-0.3333333333333333</ele><time>2026-05-03T05:55:20Z</time></trkpt><trkpt lat="39.80391218841706" lon="8.614146865035597"><ele>0.0</ele><time>2026-05-03T05:55:21Z</time></trkpt><trkpt lat="39.80391337514898" lon="8.614422424016663"><ele>0.0</ele><time>2026-05-03T05:55:22Z</time></trkpt><trkpt lat="39.80391493970479" lon="8.614697537738442"><ele>0.0</ele><time>2026-05-03T05:55:23Z</time></trkpt><trkpt lat="39.803915917087956" lon="8.614972243641844"><ele>0.0</ele><time>2026-05-03T05:55:24Z</time></trkpt><trkpt lat="39.80391786519051" lon="8.615250403645257"><ele>0.3333333333333333</ele><time>2026-05-03T05:55:25Z</time></trkpt><trkpt lat="39.80391820337416" lon="8.615529173250259"><ele>0.6666666666666666</ele><time>2026-05-03T05:55:26Z</time></trkpt><trkpt lat="39.80392252878648" lon="8.615806876039496"><ele>1.0</ele><time>2026-05-03T05:55:27Z</time></trkpt><trkpt lat="39.80392053359065" lon="8.61608225096679"><ele>1.0</ele><time>2026-05-03T05:55:28Z</time></trkpt><trkpt lat="39.80392042781686" lon="8.616358382910196"><ele>1.0</ele><time>2026-05-03T05:55:28.999Z</time></trkpt><trkpt lat="39.80392286792422" lon="8.61663268724085"><ele>1.0</ele><time>2026-05-03T05:55:29.999Z</time></trkpt><trkpt lat="39.80392531808254" lon="8.616907067912294"><ele>0.6666666666666666</ele><time>2026-05-03T05:55:30.999Z</time></trkpt><trkpt lat="39.80392716599956" lon="8.617178148952702"><ele>0.3333333333333333</ele><time>2026-05-03T05:55:31.999Z</time></trkpt><trkpt lat="39.80392146817999" lon="8.61744415513422"><ele>0.0</ele><time>2026-05-03T05:55:32.999Z</time></trkpt><trkpt lat="39.80392299698001" lon="8.617709163046895"><ele>0.0</ele><time>2026-05-03T05:55:33.999Z</time></trkpt><trkpt lat="39.80392572919968" lon="8.617972722484879"><ele>0.0</ele><time>2026-05-03T05:55:34.999Z</time></trkpt><trkpt lat="39.80392712094273" lon="8.618239578096876"><ele>0.0</ele><time>2026-05-03T05:55:35.999Z</time></trkpt><trkpt lat="39.803928963892105" lon="8.61850784667603"><ele>0.0</ele><time>2026-05-03T05:55:36.999Z</time></trkpt><trkpt lat="39.803921880793176" lon="8.61877710300532"><ele>0.0</ele><time>2026-05-03T05:55:37.999Z</time></trkpt><trkpt lat="39.80392505494472" lon="8.619046978848672"><ele>0.0</ele><time>2026-05-03T05:55:38.999Z</time></trkpt><trkpt lat="39.80392799134621" lon="8.619319434489984"><ele>0.0</ele><time>2026-05-03T05:55:39.999Z</time></trkpt><trkpt lat="39.803931876996764" lon="8.619590217718768"><ele>0.0</ele><time>2026-05-03T05:55:40.999Z</time></trkpt><trkpt lat="39.80393511389425" lon="8.619861998810835"><ele>0.0</ele><time>2026-05-03T05:55:41.999Z</time></trkpt><trkpt lat="39.80393565913873" lon="8.620135563501533"><ele>-0.3333333333333333</ele><time>2026-05-03T05:55:42.999Z</time></trkpt><trkpt lat="39.803937828053506" lon="8.620410059848435"><ele>-0.6666666666666666</ele><time>2026-05-03T05:55:43.999Z</time></trkpt><trkpt lat="39.80394032921965" lon="8.620686115080616"><ele>-1.0</ele><time>2026-05-03T05:55:44.999Z</time></trkpt><trkpt lat="39.80394170747179" lon="8.620960456898795"><ele>0.0</ele><time>2026-05-03T05:55:45.999Z</time></trkpt><trkpt lat="39.80394276129006" lon="8.621235368823658"><ele>1.0</ele><time>2026-05-03T05:55:46.999Z</time></trkpt><trkpt lat="39.80394481438344" lon="8.621512941862697"><ele>2.0</ele><time>2026-05-03T05:55:47.999Z</time></trkpt><trkpt lat="39.80394686413436" lon="8.621790053876627"><ele>3.0</ele><time>2026-05-03T05:55:48.999Z</time></trkpt><trkpt lat="39.8039471097897" lon="8.622066491587221"><ele>4.0</ele><time>2026-05-03T05:55:49.999Z</time></trkpt><trkpt lat="39.80394871635775" lon="8.622337499082363"><ele>5.0</ele><time>2026-05-03T05:55:50.999Z</time></trkpt><trkpt lat="39.80394999517377" lon="8.622603179537021"><ele>5.0</ele><time>2026-05-03T05:55:51.999Z</time></trkpt><trkpt lat="39.80395131847818" lon="8.622868214263207"><ele>5.0</ele><time>2026-05-03T05:55:52.999Z</time></trkpt><trkpt lat="39.803951247305626" lon="8.623131952308093"><ele>5.0</ele><time>2026-05-03T05:55:53.999Z</time></trkpt><trkpt lat="39.803950615437756" lon="8.623394016589033"><ele>5.333333333333334</ele><time>2026-05-03T05:55:54.999Z</time></trkpt><trkpt lat="39.80395116940683" lon="8.623654569394988"><ele>5.666666666666667</ele><time>2026-05-03T05:55:55.999Z</time></trkpt><trkpt lat="39.80395241904109" lon="8.623914345782145"><ele>6.0</ele><time>2026-05-03T05:55:56.999Z</time></trkpt><trkpt lat="39.80395383717261" lon="8.624177249087777"><ele>6.0</ele><time>2026-05-03T05:55:57.999Z</time></trkpt><trkpt lat="39.80395689146242" lon="8.624443640844234"><ele>6.0</ele><time>2026-05-03T05:55:58.999Z</time></trkpt><trkpt lat="39.80396068217706" lon="8.62471143311244"><ele>6.0</ele><time>2026-05-03T05:55:59.999Z</time></trkpt><trkpt lat="39.80396475374641" lon="8.624981651475153"><ele>6.333333333333334</ele><time>2026-05-03T05:56:00.999Z</time></trkpt><trkpt lat="39.8039685418916" lon="8.625252272757459"><ele>6.666666666666667</ele><time>2026-05-03T05:56:01.999Z</time></trkpt><trkpt lat="39.80396955931287" lon="8.625526341843102"><ele>7.0</ele><time>2026-05-03T05:56:02.999Z</time></trkpt><trkpt lat="39.803965938435944" lon="8.625802340646564"><ele>7.0</ele><time>2026-05-03T05:56:03.999Z</time></trkpt><trkpt lat="39.803961745265" lon="8.626077672572157"><ele>7.0</ele><time>2026-05-03T05:56:04.999Z</time></trkpt><trkpt lat="39.803960236153124" lon="8.626352174431782"><ele>7.0</ele><time>2026-05-03T05:56:05.999Z</time></trkpt><trkpt lat="39.803961370990464" lon="8.626626038278703"><ele>7.0</ele><time>2026-05-03T05:56:06.999Z</time></trkpt><trkpt lat="39.803964590882416" lon="8.62689864903034"><ele>7.0</ele><time>2026-05-03T05:56:07.999Z</time></trkpt><trkpt lat="39.80396830628067" lon="8.62717150271214"><ele>7.0</ele><time>2026-05-03T05:56:08.999Z</time></trkpt><trkpt lat="39.80397091909639" lon="8.62744290934317"><ele>7.333333333333334</ele><time>2026-05-03T05:56:09.999Z</time></trkpt><trkpt lat="39.803971661654764" lon="8.627714377350816"><ele>7.666666666666666</ele><time>2026-05-03T05:56:10.999Z</time></trkpt><trkpt lat="39.80396959703135" lon="8.627987629803574"><ele>8.0</ele><time>2026-05-03T05:56:11.999Z</time></trkpt><trkpt lat="39.80396698258291" lon="8.628259448871079"><ele>9.0</ele><time>2026-05-03T05:56:12.999Z</time></trkpt><trkpt lat="39.80396327456061" lon="8.628531237980093"><ele>10.0</ele><time>2026-05-03T05:56:13.999Z</time></trkpt><trkpt lat="39.803962963463135" lon="8.628801275060614"><ele>11.0</ele><time>2026-05-03T05:56:14.999Z</time></trkpt><trkpt lat="39.80396589977414" lon="8.629070307298807"><ele>11.333333333333332</ele><time>2026-05-03T05:56:15.999Z</time></trkpt><trkpt lat="39.80396907824195" lon="8.629339410646136"><ele>11.666666666666666</ele><time>2026-05-03T05:56:16.999Z</time></trkpt><trkpt lat="39.803971954175545" lon="8.629609259506742"><ele>12.0</ele><time>2026-05-03T05:56:17.999Z</time></trkpt><trkpt lat="39.80397541255575" lon="8.629878569895437"><ele>12.333333333333332</ele><time>2026-05-03T05:56:18.999Z</time></trkpt><trkpt lat="39.80397732755667" lon="8.630147930504931"><ele>12.666666666666666</ele><time>2026-05-03T05:56:19.999Z</time></trkpt><trkpt lat="39.80397822622322" lon="8.630419131665924"><ele>13.0</ele><time>2026-05-03T05:56:20.999Z</time></trkpt><trkpt lat="39.803976736472855" lon="8.63069087174595"><ele>12.333333333333332</ele><time>2026-05-03T05:56:21.999Z</time></trkpt><trkpt lat="39.80397337027741" lon="8.630963612705974"><ele>11.666666666666666</ele><time>2026-05-03T05:56:22.999Z</time></trkpt><trkpt lat="39.8039720608936" lon="8.631232681850333"><ele>11.0</ele><time>2026-05-03T05:56:23.999Z</time></trkpt><trkpt lat="39.80397245205553" lon="8.631500393819225"><ele>10.666666666666666</ele><time>2026-05-03T05:56:24.999Z</time></trkpt><trkpt lat="39.80397285962307" lon="8.63176858534751"><ele>10.333333333333334</ele><time>2026-05-03T05:56:25.999Z</time></trkpt><trkpt lat="39.80397428729809" lon="8.63204047693142"><ele>10.0</ele><time>2026-05-03T05:56:26.999Z</time></trkpt><trkpt lat="39.80398070421075" lon="8.63231165262002"><ele>10.0</ele><time>2026-05-03T05:56:27.999Z</time></trkpt><trkpt lat="39.80400131645597" lon="8.632583306840441"><ele>10.0</ele><time>2026-05-03T05:56:28.998Z</time></trkpt><trkpt lat="39.80405749083195" lon="8.632850566158568"><ele>10.0</ele><time>2026-05-03T05:56:29.998Z</time></trkpt><trkpt lat="39.80414738110987" lon="8.633099985165288"><ele>10.0</ele><time>2026-05-03T05:56:30.998Z</time></trkpt><trkpt lat="39.804268693014286" lon="8.633329833137797"><ele>10.0</ele><time>2026-05-03T05:56:31.998Z</time></trkpt><trkpt lat="39.804408295359565" lon="8.633536561397351"><ele>10.0</ele><time>2026-05-03T05:56:32.998Z</time></trkpt><trkpt lat="39.804551174947534" lon="8.633743789964663"><ele>10.333333333333334</ele><time>2026-05-03T05:56:33.998Z</time></trkpt><trkpt lat="39.80469080740289" lon="8.633956643398301"><ele>10.666666666666666</ele><time>2026-05-03T05:56:34.998Z</time></trkpt><trkpt lat="39.80483319653583" lon="8.63417421698665"><ele>11.0</ele><time>2026-05-03T05:56:35.998Z</time></trkpt><trkpt lat="39.80497693714328" lon="8.634389207046757"><ele>11.0</ele><time>2026-05-03T05:56:36.998Z</time></trkpt><trkpt lat="39.8051193601839" lon="8.634606899831644"><ele>11.0</ele><time>2026-05-03T05:56:37.998Z</time></trkpt><trkpt lat="39.805261800227456" lon="8.634822389269338"><ele>11.0</ele><time>2026-05-03T05:56:38.998Z</time></trkpt><trkpt lat="39.805405531718215" lon="8.63503424632871"><ele>10.666666666666666</ele><time>2026-05-03T05:56:39.998Z</time></trkpt><trkpt lat="39.80554676055546" lon="8.635246950372903"><ele>10.333333333333334</ele><time>2026-05-03T05:56:40.998Z</time></trkpt><trkpt lat="39.8056860307936" lon="8.635461631051152"><ele>10.0</ele><time>2026-05-03T05:56:41.998Z</time></trkpt><trkpt lat="39.80582475654359" lon="8.635675427279391"><ele>10.0</ele><time>2026-05-03T05:56:42.998Z</time></trkpt><trkpt lat="39.805963865961964" lon="8.6358878249731"><ele>10.0</ele><time>2026-05-03T05:56:43.998Z</time></trkpt><trkpt lat="39.80610280151017" lon="8.63609912124081"><ele>10.0</ele><time>2026-05-03T05:56:44.998Z</time></trkpt><trkpt lat="39.806239752645794" lon="8.63631215623764"><ele>10.0</ele><time>2026-05-03T05:56:45.998Z</time></trkpt><trkpt lat="39.806376286424126" lon="8.636516303452217"><ele>10.0</ele><time>2026-05-03T05:56:46.998Z</time></trkpt><trkpt lat="39.806517006891845" lon="8.636686590540906"><ele>10.0</ele><time>2026-05-03T05:56:47.998Z</time></trkpt><trkpt lat="39.80668736446586" lon="8.6368198690675"><ele>9.666666666666668</ele><time>2026-05-03T05:56:48.998Z</time></trkpt><trkpt lat="39.806885253213004" lon="8.636910450869149"><ele>9.333333333333334</ele><time>2026-05-03T05:56:49.998Z</time></trkpt><trkpt lat="39.807090355339504" lon="8.63697023585194"><ele>9.0</ele><time>2026-05-03T05:56:50.998Z</time></trkpt><trkpt lat="39.80730786974395" lon="8.6370012208258"><ele>9.0</ele><time>2026-05-03T05:56:51.998Z</time></trkpt><trkpt lat="39.807530491240065" lon="8.637027784377159"><ele>9.0</ele><time>2026-05-03T05:56:52.998Z</time></trkpt><trkpt lat="39.80775263802727" lon="8.63705849235149"><ele>9.0</ele><time>2026-05-03T05:56:53.998Z</time></trkpt><trkpt lat="39.80797045219822" lon="8.637089029969859"><ele>9.0</ele><time>2026-05-03T05:56:54.998Z</time></trkpt><trkpt lat="39.8081804497979" lon="8.637120194332898"><ele>9.0</ele><time>2026-05-03T05:56:55.998Z</time></trkpt><trkpt lat="39.8083725397189" lon="8.637147235124408"><ele>9.0</ele><time>2026-05-03T05:56:56.998Z</time></trkpt><trkpt lat="39.80855850069813" lon="8.637174728864403"><ele>10.333333333333332</ele><time>2026-05-03T05:56:58Z</time></trkpt><trkpt lat="39.80874336686895" lon="8.637201296329117"><ele>11.666666666666666</ele><time>2026-05-03T05:56:59Z</time></trkpt><trkpt lat="39.80892874818922" lon="8.637227698472175"><ele>13.0</ele><time>2026-05-03T05:57:00Z</time></trkpt><trkpt lat="39.809119471285065" lon="8.63725824787255"><ele>13.0</ele><time>2026-05-03T05:57:01Z</time></trkpt><trkpt lat="39.80931657029842" lon="8.63728878281429"><ele>13.0</ele><time>2026-05-03T05:57:02Z</time></trkpt><trkpt lat="39.809518578339016" lon="8.637319705482833"><ele>13.0</ele><time>2026-05-03T05:57:03Z</time></trkpt><trkpt lat="39.80972165827686" lon="8.637351517946339"><ele>13.0</ele><time>2026-05-03T05:57:04Z</time></trkpt><trkpt lat="39.809925654477055" lon="8.637380675722499"><ele>13.0</ele><time>2026-05-03T05:57:05Z</time></trkpt><trkpt lat="39.81012882826044" lon="8.63740932673529"><ele>13.0</ele><time>2026-05-03T05:57:06Z</time></trkpt><trkpt lat="39.81033115655313" lon="8.63743992031977"><ele>13.0</ele><time>2026-05-03T05:57:07Z</time></trkpt><trkpt lat="39.81053493244028" lon="8.63747329828369"><ele>13.0</ele><time>2026-05-03T05:57:08Z</time></trkpt><trkpt lat="39.81073853690778" lon="8.63750692062429"><ele>13.0</ele><time>2026-05-03T05:57:09Z</time></trkpt><trkpt lat="39.81094040752881" lon="8.637537249882078"><ele>12.666666666666666</ele><time>2026-05-03T05:57:10Z</time></trkpt><trkpt lat="39.81114170716161" lon="8.637565472332376"><ele>12.333333333333332</ele><time>2026-05-03T05:57:11Z</time></trkpt><trkpt lat="39.81133972464693" lon="8.637593723342897"><ele>12.0</ele><time>2026-05-03T05:57:12Z</time></trkpt><trkpt lat="39.81152423378128" lon="8.637624218890132"><ele>12.0</ele><time>2026-05-03T05:57:13Z</time></trkpt><trkpt lat="39.811693796723866" lon="8.637651649722054"><ele>12.0</ele><time>2026-05-03T05:57:14Z</time></trkpt><trkpt lat="39.811849904909366" lon="8.637680927566633"><ele>12.0</ele><time>2026-05-03T05:57:15Z</time></trkpt><trkpt lat="39.81200199879155" lon="8.637708168575587"><ele>12.333333333333332</ele><time>2026-05-03T05:57:16Z</time></trkpt><trkpt lat="39.81215648014047" lon="8.63774470750296"><ele>12.666666666666666</ele><time>2026-05-03T05:57:17Z</time></trkpt><trkpt lat="39.81229298409992" lon="8.637826358539776"><ele>13.0</ele><time>2026-05-03T05:57:18Z</time></trkpt><trkpt lat="39.81241792105229" lon="8.637946750567286"><ele>13.333333333333332</ele><time>2026-05-03T05:57:19Z</time></trkpt><trkpt lat="39.81253586863602" lon="8.638120257891138"><ele>13.666666666666668</ele><time>2026-05-03T05:57:20Z</time></trkpt><trkpt lat="39.812643708026" lon="8.638338517335695"><ele>14.0</ele><time>2026-05-03T05:57:21Z</time></trkpt><trkpt lat="39.81274102986628" lon="8.638591581044473"><ele>15.5</ele><time>2026-05-03T05:57:22Z</time></trkpt><trkpt lat="39.81283235457532" lon="8.638876012218965"><ele>17.0</ele><time>2026-05-03T05:57:23Z</time></trkpt><trkpt lat="39.812921848205484" lon="8.63916645673515"><ele>16.5</ele><time>2026-05-03T05:57:24Z</time></trkpt><trkpt lat="39.81301474250425" lon="8.63947965019198"><ele>16.0</ele><time>2026-05-03T05:57:25Z</time></trkpt><trkpt lat="39.81309542165815" lon="8.639790931038847"><ele>16.0</ele><time>2026-05-03T05:57:26Z</time></trkpt><trkpt lat="39.813153013020134" lon="8.640068884593001"><ele>16.0</ele><time>2026-05-03T05:57:27Z</time></trkpt><trkpt lat="39.813191167780765" lon="8.64027247081375"><ele>16.0</ele><time>2026-05-03T05:57:28Z</time></trkpt><trkpt lat="39.81322849697245" lon="8.640447768242776"><ele>16.333333333333332</ele><time>2026-05-03T05:57:29Z</time></trkpt><trkpt lat="39.813262626377224" lon="8.640636522240623"><ele>16.666666666666668</ele><time>2026-05-03T05:57:30Z</time></trkpt><trkpt lat="39.813294400997414" lon="8.640845434088769"><ele>17.0</ele><time>2026-05-03T05:57:31Z</time></trkpt><trkpt lat="39.81330714102886" lon="8.641071368719144"><ele>17.0</ele><time>2026-05-03T05:57:31.999Z</time></trkpt><trkpt lat="39.81329333614364" lon="8.641306264152709"><ele>17.0</ele><time>2026-05-03T05:57:32.999Z</time></trkpt><trkpt lat="39.81321457460962" lon="8.641534075833965"><ele>17.0</ele><time>2026-05-03T05:57:33.999Z</time></trkpt><trkpt lat="39.813115083487126" lon="8.641742221111603"><ele>17.0</ele><time>2026-05-03T05:57:34.999Z</time></trkpt><trkpt lat="39.812991193050415" lon="8.641941252850803"><ele>17.0</ele><time>2026-05-03T05:57:35.999Z</time></trkpt><trkpt lat="39.81285311310137" lon="8.642083340211837"><ele>17.0</ele><time>2026-05-03T05:57:36.999Z</time></trkpt><trkpt lat="39.8126890816712" lon="8.64216977878258"><ele>16.333333333333336</ele><time>2026-05-03T05:57:37.999Z</time></trkpt><trkpt lat="39.81252201375718" lon="8.642247912672655"><ele>15.666666666666668</ele><time>2026-05-03T05:57:38.999Z</time></trkpt><trkpt lat="39.812360075940624" lon="8.642310046858851"><ele>15.0</ele><time>2026-05-03T05:57:39.999Z</time></trkpt><trkpt lat="39.812202176436166" lon="8.642394260403025"><ele>15.0</ele><time>2026-05-03T05:57:40.999Z</time></trkpt><trkpt lat="39.81203798927801" lon="8.642454027865325"><ele>15.0</ele><time>2026-05-03T05:57:41.999Z</time></trkpt><trkpt lat="39.8118730493575" lon="8.642524304091571"><ele>15.0</ele><time>2026-05-03T05:57:42.999Z</time></trkpt><trkpt lat="39.81170650306431" lon="8.642591342179806"><ele>15.0</ele><time>2026-05-03T05:57:43.999Z</time></trkpt><trkpt lat="39.81153978833219" lon="8.642658660671051"><ele>15.0</ele><time>2026-05-03T05:57:44.999Z</time></trkpt><trkpt lat="39.81137248658539" lon="8.642723900847407"><ele>15.0</ele><time>2026-05-03T05:57:45.999Z</time></trkpt><trkpt lat="39.81120748802636" lon="8.642790188943264"><ele>15.25</ele><time>2026-05-03T05:57:46.999Z</time></trkpt><trkpt lat="39.81105182923762" lon="8.642849707877112"><ele>15.5</ele><time>2026-05-03T05:57:47.999Z</time></trkpt><trkpt lat="39.81091899329132" lon="8.642901028656079"><ele>15.75</ele><time>2026-05-03T05:57:48.999Z</time></trkpt><trkpt lat="39.810807494253446" lon="8.64294106832953"><ele>16.0</ele><time>2026-05-03T05:57:49.999Z</time></trkpt><trkpt lat="39.810716196927814" lon="8.64298011219329"><ele>16.2</ele><time>2026-05-03T05:57:50.999Z</time></trkpt><trkpt lat="39.81062742371257" lon="8.643017838819512"><ele>16.400000000000002</ele><time>2026-05-03T05:57:51.999Z</time></trkpt><trkpt lat="39.81054676720716" lon="8.643036861096284"><ele>16.6</ele><time>2026-05-03T05:57:52.999Z</time></trkpt><trkpt lat="39.81044745947093" lon="8.64307658691107"><ele>16.8</ele><time>2026-05-03T05:57:54.999Z</time></trkpt><trkpt lat="39.81045771326922" lon="8.643215629325349"><ele>17.0</ele><time>2026-05-03T05:57:56.999Z</time></trkpt><trkpt lat="39.810459633708234" lon="8.643338561429037"><ele>17.0</ele><time>2026-05-03T05:57:58.999Z</time></trkpt><trkpt lat="39.81045574633862" lon="8.643461661448319"><ele>17.0</ele><time>2026-05-03T05:57:59.999Z</time></trkpt><trkpt lat="39.81045166887378" lon="8.643612076300014"><ele>17.0</ele><time>2026-05-03T05:58:00.999Z</time></trkpt><trkpt lat="39.81043458991674" lon="8.643782606397371"><ele>17.0</ele><time>2026-05-03T05:58:01.999Z</time></trkpt><trkpt lat="39.810435386604766" lon="8.643985350918342"><ele>17.0</ele><time>2026-05-03T05:58:02.999Z</time></trkpt><trkpt lat="39.810434689498166" lon="8.644211987150904"><ele>17.0</ele><time>2026-05-03T05:58:03.999Z</time></trkpt><trkpt lat="39.81042310895734" lon="8.64444776160959"><ele>17.0</ele><time>2026-05-03T05:58:04.999Z</time></trkpt><trkpt lat="39.810414383829155" lon="8.64470353417741"><ele>17.333333333333336</ele><time>2026-05-03T05:58:05.999Z</time></trkpt><trkpt lat="39.81041446284208" lon="8.644979220885986"><ele>17.666666666666668</ele><time>2026-05-03T05:58:06.999Z</time></trkpt><trkpt lat="39.81040863229731" lon="8.645261777557167"><ele>18.0</ele><time>2026-05-03T05:58:07.999Z</time></trkpt><trkpt lat="39.810398701992135" lon="8.645541350088605"><ele>19.333333333333332</ele><time>2026-05-03T05:58:08.999Z</time></trkpt><trkpt lat="39.810397845530055" lon="8.645781457137167"><ele>20.666666666666664</ele><time>2026-05-03T05:58:09.999Z</time></trkpt><trkpt lat="39.810397081739985" lon="8.645990967023852"><ele>22.0</ele><time>2026-05-03T05:58:10.999Z</time></trkpt><trkpt lat="39.81038779301993" lon="8.646186605974837"><ele>22.0</ele><time>2026-05-03T05:58:11.999Z</time></trkpt><trkpt lat="39.810381804502626" lon="8.646378585571263"><ele>22.0</ele><time>2026-05-03T05:58:12.999Z</time></trkpt><trkpt lat="39.810378118482184" lon="8.646558349735425"><ele>22.0</ele><time>2026-05-03T05:58:13.999Z</time></trkpt><trkpt lat="39.81037477621152" lon="8.646749340072375"><ele>22.0</ele><time>2026-05-03T05:58:14.999Z</time></trkpt><trkpt lat="39.81037032245004" lon="8.646940277668662"><ele>21.8</ele><time>2026-05-03T05:58:15.999Z</time></trkpt><trkpt lat="39.810366614285094" lon="8.647110559443224"><ele>21.6</ele><time>2026-05-03T05:58:16.999Z</time></trkpt><trkpt lat="39.8103658931866" lon="8.647240517792664"><ele>21.400000000000002</ele><time>2026-05-03T05:58:17.999Z</time></trkpt><trkpt lat="39.810361798216974" lon="8.647349627438352"><ele>21.200000000000003</ele><time>2026-05-03T05:58:18.999Z</time></trkpt><trkpt lat="39.81036279769053" lon="8.647456753143459"><ele>21.0</ele><time>2026-05-03T05:58:19.999Z</time></trkpt><trkpt lat="39.81035038740508" lon="8.647587321428132"><ele>21.0</ele><time>2026-05-03T05:58:21.999Z</time></trkpt><trkpt lat="39.81054500352772" lon="8.647620682095024"><ele>21.0</ele><time>2026-05-03T05:58:22.999Z</time></trkpt><trkpt lat="39.8106835816634" lon="8.647620611095075"><ele>21.0</ele><time>2026-05-03T05:58:23.999Z</time></trkpt><trkpt lat="39.810855010963785" lon="8.6476091767712"><ele>21.0</ele><time>2026-05-03T05:58:24.999Z</time></trkpt><trkpt lat="39.81100022698399" lon="8.647618060725524"><ele>21.0</ele><time>2026-05-03T05:58:25.999Z</time></trkpt><trkpt lat="39.811119197479535" lon="8.64762767678575"><ele>21.0</ele><time>2026-05-03T05:58:26.999Z</time></trkpt><trkpt lat="39.81122710593058" lon="8.647633277387179"><ele>21.0</ele><time>2026-05-03T05:58:27.999Z</time></trkpt><trkpt lat="39.81133353896084" lon="8.647640763524155"><ele>21.0</ele><time>2026-05-03T05:58:28.999Z</time></trkpt><trkpt lat="39.81144107086189" lon="8.647650570788928"><ele>21.0</ele><time>2026-05-03T05:58:29.999Z</time></trkpt><trkpt lat="39.8115431808279" lon="8.647655189209258"><ele>21.0</ele><time>2026-05-03T05:58:30.999Z</time></trkpt><trkpt lat="39.81163609238683" lon="8.647658982848167"><ele>21.0</ele><time>2026-05-03T05:58:31.998Z</time></trkpt><trkpt lat="39.811729588865035" lon="8.647664988503069"><ele>21.0</ele><time>2026-05-03T05:58:32.998Z</time></trkpt><trkpt lat="39.81181850604076" lon="8.647670271672894"><ele>20.2</ele><time>2026-05-03T05:58:33.998Z</time></trkpt><trkpt lat="39.81188880348952" lon="8.647674302951415"><ele>19.400000000000002</ele><time>2026-05-03T05:58:34.998Z</time></trkpt><trkpt lat="39.811965537105614" lon="8.647663842922316"><ele>18.6</ele><time>2026-05-03T05:58:36.998Z</time></trkpt><trkpt lat="39.8120322689835" lon="8.647629876277133"><ele>17.8</ele><time>2026-05-03T05:58:38.998Z</time></trkpt><trkpt lat="39.812050056675965" lon="8.647430843200171"><ele>17.0</ele><time>2026-05-03T05:58:39.998Z</time></trkpt><trkpt lat="39.81204668080807" lon="8.647278959374828"><ele>17.0</ele><time>2026-05-03T05:58:40.998Z</time></trkpt><trkpt lat="39.812045309420675" lon="8.647108841960094"><ele>17.0</ele><time>2026-05-03T05:58:41.998Z</time></trkpt><trkpt lat="39.81205976291904" lon="8.646918266520371"><ele>17.0</ele><time>2026-05-03T05:58:42.998Z</time></trkpt><trkpt lat="39.812068408324734" lon="8.64672003774784"><ele>17.0</ele><time>2026-05-03T05:58:43.998Z</time></trkpt><trkpt lat="39.81209347175265" lon="8.646516003147186"><ele>17.0</ele><time>2026-05-03T05:58:44.998Z</time></trkpt><trkpt lat="39.81210798680272" lon="8.646320049173344"><ele>17.0</ele><time>2026-05-03T05:58:45.998Z</time></trkpt><trkpt lat="39.81212907595909" lon="8.646138226845073"><ele>17.0</ele><time>2026-05-03T05:58:46.998Z</time></trkpt><trkpt lat="39.81218125633496" lon="8.645965340138705"><ele>17.0</ele><time>2026-05-03T05:58:47.998Z</time></trkpt><trkpt lat="39.812241776300255" lon="8.645783548469364"><ele>17.0</ele><time>2026-05-03T05:58:48.998Z</time></trkpt><trkpt lat="39.81232972568642" lon="8.645605130193589"><ele>17.0</ele><time>2026-05-03T05:58:49.998Z</time></trkpt><trkpt lat="39.81241502935971" lon="8.645413205407614"><ele>17.0</ele><time>2026-05-03T05:58:50.998Z</time></trkpt><trkpt lat="39.81249757438912" lon="8.645217367775148"><ele>17.333333333333336</ele><time>2026-05-03T05:58:51.998Z</time></trkpt><trkpt lat="39.81258575940163" lon="8.64501586081061"><ele>17.666666666666668</ele><time>2026-05-03T05:58:52.998Z</time></trkpt><trkpt lat="39.8126723574166" lon="8.644817895935391"><ele>18.0</ele><time>2026-05-03T05:58:53.998Z</time></trkpt><trkpt lat="39.81274939019933" lon="8.644632529006223"><ele>17.5</ele><time>2026-05-03T05:58:54.998Z</time></trkpt><trkpt lat="39.812823312825714" lon="8.644460258487822"><ele>17.0</ele><time>2026-05-03T05:58:55.998Z</time></trkpt><trkpt lat="39.81289688733411" lon="8.644294516945191"><ele>16.5</ele><time>2026-05-03T05:58:56.998Z</time></trkpt><trkpt lat="39.81296637147209" lon="8.644136884743682"><ele>16.0</ele><time>2026-05-03T05:58:57.998Z</time></trkpt><trkpt lat="39.813031672941015" lon="8.643999582516475"><ele>16.0</ele><time>2026-05-03T05:58:58.998Z</time></trkpt><trkpt lat="39.81309248898562" lon="8.643870721948266"><ele>16.0</ele><time>2026-05-03T05:58:59.998Z</time></trkpt><trkpt lat="39.81313617420043" lon="8.643776504316575"><ele>16.0</ele><time>2026-05-03T05:59:00.998Z</time></trkpt><trkpt lat="39.81320033938603" lon="8.643663411600656"><ele>16.0</ele><time>2026-05-03T05:59:02.998Z</time></trkpt><trkpt lat="39.81326214611295" lon="8.643764909915925"><ele>16.0</ele><time>2026-05-03T06:00:11.999Z</time></trkpt><trkpt lat="39.81334715233197" lon="8.6438732766245"><ele>16.0</ele><time>2026-05-03T06:00:12.999Z</time></trkpt><trkpt lat="39.81345547883251" lon="8.64397144240776"><ele>16.0</ele><time>2026-05-03T06:00:13.999Z</time></trkpt><trkpt lat="39.813554414891385" lon="8.644052548541046"><ele>16.0</ele><time>2026-05-03T06:00:14.999Z</time></trkpt><trkpt lat="39.81363677484254" lon="8.644127344826693"><ele>16.0</ele><time>2026-05-03T06:00:15.999Z</time></trkpt><trkpt lat="39.8137039711329" lon="8.644196537882406"><ele>16.0</ele><time>2026-05-03T06:00:16.999Z</time></trkpt><trkpt lat="39.81376316412749" lon="8.644252847722427"><ele>16.0</ele><time>2026-05-03T06:00:17.999Z</time></trkpt><trkpt lat="39.81387353188256" lon="8.644354578617834"><ele>16.0</ele><time>2026-05-03T06:00:19.999Z</time></trkpt><trkpt lat="39.81394783936763" lon="8.6444212623605"><ele>16.0</ele><time>2026-05-03T06:00:20.999Z</time></trkpt><trkpt lat="39.81403377485788" lon="8.644496645090856"><ele>16.0</ele><time>2026-05-03T06:00:21.999Z</time></trkpt><trkpt lat="39.8141313460262" lon="8.644580410669098"><ele>16.0</ele><time>2026-05-03T06:00:22.999Z</time></trkpt><trkpt lat="39.81423673625255" lon="8.64468142006462"><ele>15.600000000000001</ele><time>2026-05-03T06:00:23.999Z</time></trkpt><trkpt lat="39.81433764559879" lon="8.64477827336007"><ele>15.200000000000001</ele><time>2026-05-03T06:00:24.999Z</time></trkpt><trkpt lat="39.81442074912591" lon="8.644857656679047"><ele>14.799999999999999</ele><time>2026-05-03T06:00:25.999Z</time></trkpt><trkpt lat="39.81448718134757" lon="8.644910596889847"><ele>14.399999999999999</ele><time>2026-05-03T06:00:26.999Z</time></trkpt><trkpt lat="39.81452004081832" lon="8.644982248901034"><ele>14.0</ele><time>2026-05-03T06:00:27.999Z</time></trkpt><trkpt lat="39.814656756268235" lon="8.644954183282563"><ele>14.0</ele><time>2026-05-03T06:00:28.999Z</time></trkpt><trkpt lat="39.814767420012046" lon="8.644960725590323"><ele>13.999999999999998</ele><time>2026-05-03T06:00:29.999Z</time></trkpt><trkpt lat="39.814847838604216" lon="8.644964219904965"><ele>13.999999999999998</ele><time>2026-05-03T06:00:30.999Z</time></trkpt><trkpt lat="39.81492434717402" lon="8.644942222771327"><ele>14.0</ele><time>2026-05-03T06:00:31.999Z</time></trkpt><trkpt lat="39.81500261647936" lon="8.644883199189616"><ele>14.0</ele><time>2026-05-03T06:00:32.999Z</time></trkpt><trkpt lat="39.81507285038624" lon="8.644797175990638"><ele>14.0</ele><time>2026-05-03T06:00:33.999Z</time></trkpt><trkpt lat="39.81514419036442" lon="8.644678783072466"><ele>14.0</ele><time>2026-05-03T06:00:34.999Z</time></trkpt><trkpt lat="39.81522814884847" lon="8.644531942653499"><ele>14.0</ele><time>2026-05-03T06:00:35.999Z</time></trkpt><trkpt lat="39.81533124211144" lon="8.644371729979108"><ele>14.0</ele><time>2026-05-03T06:00:36.998Z</time></trkpt><trkpt lat="39.81543435059942" lon="8.64421557319487"><ele>12.75</ele><time>2026-05-03T06:00:37.998Z</time></trkpt><trkpt lat="39.81553330496136" lon="8.644073106492153"><ele>11.5</ele><time>2026-05-03T06:00:38.998Z</time></trkpt><trkpt lat="39.81562674523845" lon="8.643962721079923"><ele>10.25</ele><time>2026-05-03T06:00:39.998Z</time></trkpt><trkpt lat="39.81571543493823" lon="8.64386310135994"><ele>9.0</ele><time>2026-05-03T06:00:40.998Z</time></trkpt><trkpt lat="39.815798916749216" lon="8.643768500792934"><ele>9.0</ele><time>2026-05-03T06:00:41.998Z</time></trkpt><trkpt lat="39.81588159839783" lon="8.643693436240985"><ele>9.0</ele><time>2026-05-03T06:00:42.998Z</time></trkpt><trkpt lat="39.815954165306024" lon="8.643644764277928"><ele>9.0</ele><time>2026-05-03T06:00:43.998Z</time></trkpt><trkpt lat="39.8160269215355" lon="8.643635219817893"><ele>9.0</ele><time>2026-05-03T06:00:44.998Z</time></trkpt><trkpt lat="39.816088477397194" lon="8.643600993773418"><ele>9.0</ele><time>2026-05-03T06:00:45.998Z</time></trkpt><trkpt lat="39.81613313590176" lon="8.64351403773754"><ele>9.0</ele><time>2026-05-03T06:00:46.998Z</time></trkpt><trkpt lat="39.816189738662075" lon="8.64337720370378"><ele>9.166666666666666</ele><time>2026-05-03T06:00:47.998Z</time></trkpt><trkpt lat="39.816239638460516" lon="8.643267428791066"><ele>9.333333333333334</ele><time>2026-05-03T06:00:48.998Z</time></trkpt><trkpt lat="39.8162919384787" lon="8.643185286221557"><ele>9.5</ele><time>2026-05-03T06:00:49.998Z</time></trkpt><trkpt lat="39.816357224716725" lon="8.643133379027345"><ele>9.666666666666668</ele><time>2026-05-03T06:00:50.998Z</time></trkpt><trkpt lat="39.816426620881764" lon="8.643136416542003"><ele>9.833333333333334</ele><time>2026-05-03T06:00:51.998Z</time></trkpt><trkpt lat="39.8165124800267" lon="8.643122653250787"><ele>10.0</ele><time>2026-05-03T06:00:52.998Z</time></trkpt><trkpt lat="39.81660893191322" lon="8.643139528178512"><ele>10.0</ele><time>2026-05-03T06:00:53.998Z</time></trkpt><trkpt lat="39.81668513231565" lon="8.64314982761411"><ele>10.0</ele><time>2026-05-03T06:00:54.998Z</time></trkpt><trkpt lat="39.8167514820009" lon="8.643143116487181"><ele>10.0</ele><time>2026-05-03T06:00:55.998Z</time></trkpt><trkpt lat="39.81685894351524" lon="8.643050472269401"><ele>10.0</ele><time>2026-05-03T06:00:57.998Z</time></trkpt><trkpt lat="39.81690640587737" lon="8.642933778250276"><ele>10.0</ele><time>2026-05-03T06:00:58.998Z</time></trkpt><trkpt lat="39.81697138259247" lon="8.642794250684569"><ele>11.25</ele><time>2026-05-03T06:00:59.998Z</time></trkpt><trkpt lat="39.81698562951691" lon="8.642646922574583"><ele>12.5</ele><time>2026-05-03T06:01:00.998Z</time></trkpt><trkpt lat="39.81698876429605" lon="8.64249516354098"><ele>13.75</ele><time>2026-05-03T06:01:01.998Z</time></trkpt><trkpt lat="39.81697577965819" lon="8.642325910956705"><ele>15.0</ele><time>2026-05-03T06:01:02.998Z</time></trkpt><trkpt lat="39.81696094385259" lon="8.642139385728408"><ele>15.0</ele><time>2026-05-03T06:01:03.998Z</time></trkpt><trkpt lat="39.8169647564047" lon="8.641938167986046"><ele>15.0</ele><time>2026-05-03T06:01:04.998Z</time></trkpt><trkpt lat="39.816978297646145" lon="8.641740622023777"><ele>15.0</ele><time>2026-05-03T06:01:05.998Z</time></trkpt><trkpt lat="39.81698963421134" lon="8.641566785061315"><ele>15.0</ele><time>2026-05-03T06:01:06.998Z</time></trkpt><trkpt lat="39.81693221522189" lon="8.641413092944159"><ele>15.0</ele><time>2026-05-03T06:01:07.998Z</time></trkpt><trkpt lat="39.81693525555785" lon="8.641303625418134"><ele>15.0</ele><time>2026-05-03T06:01:08.998Z</time></trkpt><trkpt lat="39.816936884683614" lon="8.64116989995472"><ele>15.0</ele><time>2026-05-03T06:01:11Z</time></trkpt><trkpt lat="39.816866286719346" lon="8.641139657004036"><ele>15.0</ele><time>2026-05-03T06:01:13Z</time></trkpt><trkpt lat="39.81675241594481" lon="8.641154112136638"><ele>15.0</ele><time>2026-05-03T06:01:15Z</time></trkpt><trkpt lat="39.81670995492682" lon="8.641033245203829"><ele>13.5</ele><time>2026-05-03T06:01:17Z</time></trkpt><trkpt lat="39.81670286017552" lon="8.640908175263114"><ele>12.0</ele><time>2026-05-03T06:01:18Z</time></trkpt><trkpt lat="39.81671323721664" lon="8.640764534562607"><ele>10.5</ele><time>2026-05-03T06:01:19Z</time></trkpt><trkpt lat="39.8167203182267" lon="8.640604363221138"><ele>9.0</ele><time>2026-05-03T06:01:20Z</time></trkpt><trkpt lat="39.816722673198754" lon="8.640432698814037"><ele>9.0</ele><time>2026-05-03T06:01:21Z</time></trkpt><trkpt lat="39.81674511054505" lon="8.640276529038257"><ele>9.0</ele><time>2026-05-03T06:01:22Z</time></trkpt><trkpt lat="39.816789754435014" lon="8.640145005768192"><ele>9.0</ele><time>2026-05-03T06:01:23Z</time></trkpt><trkpt lat="39.81685820382834" lon="8.640032103008815"><ele>9.0</ele><time>2026-05-03T06:01:24Z</time></trkpt><trkpt lat="39.81694543186726" lon="8.639913693031756"><ele>9.5</ele><time>2026-05-03T06:01:25Z</time></trkpt><trkpt lat="39.817046256991" lon="8.6397794132286"><ele>10.0</ele><time>2026-05-03T06:01:26Z</time></trkpt><trkpt lat="39.81715698573329" lon="8.639641613129664"><ele>10.5</ele><time>2026-05-03T06:01:27Z</time></trkpt><trkpt lat="39.81727271145055" lon="8.639519005815362"><ele>11.0</ele><time>2026-05-03T06:01:28Z</time></trkpt><trkpt lat="39.81739700987999" lon="8.639415071528715"><ele>11.0</ele><time>2026-05-03T06:01:29Z</time></trkpt><trkpt lat="39.817527821915505" lon="8.63932590732774"><ele>11.0</ele><time>2026-05-03T06:01:30Z</time></trkpt><trkpt lat="39.81766130988726" lon="8.639261028911477"><ele>11.0</ele><time>2026-05-03T06:01:31Z</time></trkpt><trkpt lat="39.81779546965103" lon="8.63920227303555"><ele>11.0</ele><time>2026-05-03T06:01:32Z</time></trkpt><trkpt lat="39.81793882183475" lon="8.63914273502533"><ele>12.0</ele><time>2026-05-03T06:01:33Z</time></trkpt><trkpt lat="39.81809455954353" lon="8.639081686429577"><ele>13.0</ele><time>2026-05-03T06:01:34Z</time></trkpt><trkpt lat="39.81824419283692" lon="8.639022839834379"><ele>14.0</ele><time>2026-05-03T06:01:35Z</time></trkpt><trkpt lat="39.81837503800614" lon="8.63896518504957"><ele>14.0</ele><time>2026-05-03T06:01:36Z</time></trkpt><trkpt lat="39.81847907685558" lon="8.63891847819177"><ele>14.0</ele><time>2026-05-03T06:01:37Z</time></trkpt><trkpt lat="39.81859214801578" lon="8.638875105382363"><ele>14.0</ele><time>2026-05-03T06:01:37.999Z</time></trkpt><trkpt lat="39.818721680679985" lon="8.638834309337252"><ele>14.0</ele><time>2026-05-03T06:01:38.999Z</time></trkpt><trkpt lat="39.81885870430071" lon="8.638792825401238"><ele>14.0</ele><time>2026-05-03T06:01:39.999Z</time></trkpt><trkpt lat="39.8189929290093" lon="8.638752983022954"><ele>14.0</ele><time>2026-05-03T06:01:40.999Z</time></trkpt><trkpt lat="39.819134435015926" lon="8.638712125693546"><ele>14.0</ele><time>2026-05-03T06:01:41.999Z</time></trkpt><trkpt lat="39.8192845674397" lon="8.638664936620984"><ele>14.0</ele><time>2026-05-03T06:01:42.999Z</time></trkpt><trkpt lat="39.8194355316588" lon="8.638618742961274"><ele>13.666666666666668</ele><time>2026-05-03T06:01:43.999Z</time></trkpt><trkpt lat="39.81959278419479" lon="8.638571026045573"><ele>13.333333333333332</ele><time>2026-05-03T06:01:44.999Z</time></trkpt><trkpt lat="39.81974715647726" lon="8.638520910043221"><ele>13.0</ele><time>2026-05-03T06:01:45.999Z</time></trkpt><trkpt lat="39.819872748536646" lon="8.638477873329972"><ele>13.0</ele><time>2026-05-03T06:01:46.999Z</time></trkpt><trkpt lat="39.81999084102947" lon="8.638432280414422"><ele>13.0</ele><time>2026-05-03T06:01:47.999Z</time></trkpt><trkpt lat="39.820102111062766" lon="8.63840583782018"><ele>13.0</ele><time>2026-05-03T06:01:48.999Z</time></trkpt><trkpt lat="39.82019776078121" lon="8.638394321464409"><ele>13.0</ele><time>2026-05-03T06:01:49.999Z</time></trkpt><trkpt lat="39.82029542138277" lon="8.638388267554493"><ele>13.0</ele><time>2026-05-03T06:01:50.999Z</time></trkpt><trkpt lat="39.82040099111593" lon="8.638395067433063"><ele>12.600000000000001</ele><time>2026-05-03T06:01:51.999Z</time></trkpt><trkpt lat="39.82049940860973" lon="8.63840874933489"><ele>12.200000000000001</ele><time>2026-05-03T06:01:52.999Z</time></trkpt><trkpt lat="39.82058680069281" lon="8.638429253927955"><ele>11.8</ele><time>2026-05-03T06:01:53.999Z</time></trkpt><trkpt lat="39.82067877965128" lon="8.638461392560464"><ele>11.4</ele><time>2026-05-03T06:01:54.999Z</time></trkpt><trkpt lat="39.82077709545182" lon="8.638513070162698"><ele>11.0</ele><time>2026-05-03T06:01:55.999Z</time></trkpt><trkpt lat="39.820874257348294" lon="8.638591256686"><ele>11.0</ele><time>2026-05-03T06:01:56.999Z</time></trkpt><trkpt lat="39.82095862439537" lon="8.638676027015297"><ele>11.0</ele><time>2026-05-03T06:01:57.999Z</time></trkpt><trkpt lat="39.821038124764314" lon="8.638764122739161"><ele>11.0</ele><time>2026-05-03T06:01:58.999Z</time></trkpt><trkpt lat="39.82111684672344" lon="8.638864300288057"><ele>11.0</ele><time>2026-05-03T06:01:59.999Z</time></trkpt><trkpt lat="39.82119075228319" lon="8.638985029996645"><ele>11.0</ele><time>2026-05-03T06:02:00.999Z</time></trkpt><trkpt lat="39.821261034065365" lon="8.639123718914915"><ele>10.600000000000001</ele><time>2026-05-03T06:02:01.999Z</time></trkpt><trkpt lat="39.82132706524421" lon="8.639252561856166"><ele>10.200000000000001</ele><time>2026-05-03T06:02:02.999Z</time></trkpt><trkpt lat="39.82139396362915" lon="8.639360719249241"><ele>9.8</ele><time>2026-05-03T06:02:03.999Z</time></trkpt><trkpt lat="39.82146811596741" lon="8.639459421043115"><ele>9.4</ele><time>2026-05-03T06:02:04.999Z</time></trkpt><trkpt lat="39.821551368970376" lon="8.639539857974466"><ele>9.0</ele><time>2026-05-03T06:02:05.999Z</time></trkpt><trkpt lat="39.82164423259491" lon="8.63961407250803"><ele>9.0</ele><time>2026-05-03T06:02:06.999Z</time></trkpt><trkpt lat="39.82174887481418" lon="8.63968133333509"><ele>9.0</ele><time>2026-05-03T06:02:07.999Z</time></trkpt><trkpt lat="39.821846492513586" lon="8.6397310241308"><ele>9.0</ele><time>2026-05-03T06:02:08.999Z</time></trkpt><trkpt lat="39.82194701119671" lon="8.639765043960203"><ele>9.0</ele><time>2026-05-03T06:02:09.999Z</time></trkpt><trkpt lat="39.82204331832886" lon="8.639791512434172"><ele>9.0</ele><time>2026-05-03T06:02:10.999Z</time></trkpt><trkpt lat="39.8221461384602" lon="8.639811548030043"><ele>8.8</ele><time>2026-05-03T06:02:11.999Z</time></trkpt><trkpt lat="39.82225981329802" lon="8.639822918114152"><ele>8.600000000000001</ele><time>2026-05-03T06:02:12.999Z</time></trkpt><trkpt lat="39.82236874836135" lon="8.639831154858474"><ele>8.4</ele><time>2026-05-03T06:02:13.999Z</time></trkpt><trkpt lat="39.822462753001844" lon="8.639839423114607"><ele>8.200000000000001</ele><time>2026-05-03T06:02:14.999Z</time></trkpt><trkpt lat="39.82255302735966" lon="8.639852163282765"><ele>8.0</ele><time>2026-05-03T06:02:15.999Z</time></trkpt><trkpt lat="39.82264198901577" lon="8.639865789537344"><ele>7.833333333333333</ele><time>2026-05-03T06:02:16.999Z</time></trkpt><trkpt lat="39.822719273008396" lon="8.639876916866871"><ele>7.666666666666666</ele><time>2026-05-03T06:02:17.999Z</time></trkpt><trkpt lat="39.822790158744795" lon="8.639880606701725"><ele>7.5</ele><time>2026-05-03T06:02:18.999Z</time></trkpt><trkpt lat="39.82285325822183" lon="8.639881548142423"><ele>7.333333333333334</ele><time>2026-05-03T06:02:19.999Z</time></trkpt><trkpt lat="39.82294422580438" lon="8.639880249823252"><ele>7.166666666666667</ele><time>2026-05-03T06:02:21.999Z</time></trkpt><trkpt lat="39.82301036153101" lon="8.63991045579921"><ele>7.0</ele><time>2026-05-03T06:02:23.999Z</time></trkpt><trkpt lat="39.82301437652671" lon="8.640039184100084"><ele>7.0</ele><time>2026-05-03T06:02:25.999Z</time></trkpt><trkpt lat="39.822975525262564" lon="8.640146256008975"><ele>6.999999999999999</ele><time>2026-05-03T06:02:26.999Z</time></trkpt><trkpt lat="39.82295368388559" lon="8.640267522406162"><ele>6.999999999999999</ele><time>2026-05-03T06:02:27.999Z</time></trkpt><trkpt lat="39.82295069370786" lon="8.640424219169386"><ele>7.0</ele><time>2026-05-03T06:02:28.999Z</time></trkpt><trkpt lat="39.82294941081826" lon="8.640580962268182"><ele>7.0</ele><time>2026-05-03T06:02:29.999Z</time></trkpt><trkpt lat="39.82294620904886" lon="8.640735765020382"><ele>7.0</ele><time>2026-05-03T06:02:30.999Z</time></trkpt><trkpt lat="39.82294225153197" lon="8.64089835760655"><ele>7.0</ele><time>2026-05-03T06:02:31.999Z</time></trkpt><trkpt lat="39.822939812955624" lon="8.641067840583196"><ele>7.0</ele><time>2026-05-03T06:02:32.999Z</time></trkpt><trkpt lat="39.82293616793431" lon="8.6412455637146"><ele>7.0</ele><time>2026-05-03T06:02:33.999Z</time></trkpt><trkpt lat="39.822925575205964" lon="8.641451905334206"><ele>7.0</ele><time>2026-05-03T06:02:34.999Z</time></trkpt><trkpt lat="39.82291269094602" lon="8.641679553105705"><ele>7.0</ele><time>2026-05-03T06:02:35.999Z</time></trkpt><trkpt lat="39.82290020654843" lon="8.641906949798944"><ele>7.0</ele><time>2026-05-03T06:02:36.999Z</time></trkpt><trkpt lat="39.82289336090121" lon="8.642182209385414"><ele>7.333333333333334</ele><time>2026-05-03T06:02:37.998Z</time></trkpt><trkpt lat="39.822885803865816" lon="8.642459022102429"><ele>7.666666666666666</ele><time>2026-05-03T06:02:38.998Z</time></trkpt><trkpt lat="39.82287424605262" lon="8.642745328914398"><ele>8.0</ele><time>2026-05-03T06:02:39.998Z</time></trkpt><trkpt lat="39.82286426357066" lon="8.643029756486033"><ele>8.666666666666666</ele><time>2026-05-03T06:02:40.998Z</time></trkpt><trkpt lat="39.82285057667267" lon="8.643304036196314"><ele>9.333333333333334</ele><time>2026-05-03T06:02:41.998Z</time></trkpt><trkpt lat="39.822841361759714" lon="8.643560981715265"><ele>10.0</ele><time>2026-05-03T06:02:42.998Z</time></trkpt><trkpt lat="39.822833710331516" lon="8.643771255083863"><ele>10.0</ele><time>2026-05-03T06:02:43.998Z</time></trkpt><trkpt lat="39.82282049261548" lon="8.643950466555792"><ele>10.0</ele><time>2026-05-03T06:02:44.998Z</time></trkpt><trkpt lat="39.82280988801026" lon="8.644083540545216"><ele>10.0</ele><time>2026-05-03T06:02:45.998Z</time></trkpt><trkpt lat="39.822801208375786" lon="8.64417042424011"><ele>10.0</ele><time>2026-05-03T06:02:46.998Z</time></trkpt><trkpt lat="39.822801330184916" lon="8.644272169423795"><ele>10.0</ele><time>2026-05-03T06:02:47.998Z</time></trkpt><trkpt lat="39.82281002479297" lon="8.644413030181513"><ele>10.25</ele><time>2026-05-03T06:02:48.998Z</time></trkpt><trkpt lat="39.822821622810636" lon="8.644595159317063"><ele>10.5</ele><time>2026-05-03T06:02:49.998Z</time></trkpt><trkpt lat="39.82282670112903" lon="8.64478792668083"><ele>10.75</ele><time>2026-05-03T06:02:50.998Z</time></trkpt><trkpt lat="39.82282148057406" lon="8.644975899815664"><ele>11.0</ele><time>2026-05-03T06:02:51.998Z</time></trkpt><trkpt lat="39.82282242913602" lon="8.645164909907379"><ele>11.0</ele><time>2026-05-03T06:02:52.998Z</time></trkpt><trkpt lat="39.822815786381796" lon="8.64536200567841"><ele>11.0</ele><time>2026-05-03T06:02:53.998Z</time></trkpt><trkpt lat="39.82279113252082" lon="8.645572672973987"><ele>11.0</ele><time>2026-05-03T06:02:54.998Z</time></trkpt><trkpt lat="39.8227508133744" lon="8.64579983070232"><ele>11.0</ele><time>2026-05-03T06:02:55.998Z</time></trkpt><trkpt lat="39.822711955470275" lon="8.646019023426181"><ele>11.0</ele><time>2026-05-03T06:02:56.998Z</time></trkpt><trkpt lat="39.822688030419116" lon="8.646222239145589"><ele>11.0</ele><time>2026-05-03T06:02:57.998Z</time></trkpt><trkpt lat="39.82268019888343" lon="8.646421836418037"><ele>11.25</ele><time>2026-05-03T06:02:58.998Z</time></trkpt><trkpt lat="39.822678364966414" lon="8.64656264604715"><ele>11.5</ele><time>2026-05-03T06:02:59.998Z</time></trkpt><trkpt lat="39.82267369774575" lon="8.646712632337154"><ele>11.75</ele><time>2026-05-03T06:03:00.998Z</time></trkpt><trkpt lat="39.82266600042013" lon="8.64689931145006"><ele>12.0</ele><time>2026-05-03T06:03:01.998Z</time></trkpt><trkpt lat="39.82264788267577" lon="8.647099109572453"><ele>12.333333333333332</ele><time>2026-05-03T06:03:02.998Z</time></trkpt><trkpt lat="39.82262805843669" lon="8.647303022335036"><ele>12.666666666666666</ele><time>2026-05-03T06:03:03.998Z</time></trkpt><trkpt lat="39.82261093162494" lon="8.647501501674082"><ele>13.0</ele><time>2026-05-03T06:03:04.998Z</time></trkpt><trkpt lat="39.82258730991698" lon="8.647681821189677"><ele>13.0</ele><time>2026-05-03T06:03:05.998Z</time></trkpt><trkpt lat="39.822551311882734" lon="8.647865099733952"><ele>13.0</ele><time>2026-05-03T06:03:06.998Z</time></trkpt><trkpt lat="39.82251737177954" lon="8.648053672470494"><ele>13.0</ele><time>2026-05-03T06:03:07.998Z</time></trkpt><trkpt lat="39.82248180327818" lon="8.648245668067458"><ele>13.0</ele><time>2026-05-03T06:03:08.998Z</time></trkpt><trkpt lat="39.822440568154704" lon="8.648440136950757"><ele>13.333333333333332</ele><time>2026-05-03T06:03:09.998Z</time></trkpt><trkpt lat="39.82240026774691" lon="8.648638758239045"><ele>13.666666666666668</ele><time>2026-05-03T06:03:10.998Z</time></trkpt><trkpt lat="39.82235644303273" lon="8.648833422783317"><ele>14.0</ele><time>2026-05-03T06:03:11.998Z</time></trkpt><trkpt lat="39.82230746603209" lon="8.649034146087963"><ele>14.0</ele><time>2026-05-03T06:03:12.998Z</time></trkpt><trkpt lat="39.82226160475383" lon="8.649244821219062"><ele>14.0</ele><time>2026-05-03T06:03:13.998Z</time></trkpt><trkpt lat="39.82222888006917" lon="8.649465802976161"><ele>14.0</ele><time>2026-05-03T06:03:14.998Z</time></trkpt><trkpt lat="39.82219515331327" lon="8.649680225179354"><ele>14.666666666666668</ele><time>2026-05-03T06:03:16Z</time></trkpt><trkpt lat="39.82215034294517" lon="8.649890849255346"><ele>15.333333333333332</ele><time>2026-05-03T06:03:17Z</time></trkpt><trkpt lat="39.822104877193794" lon="8.65009987703"><ele>16.0</ele><time>2026-05-03T06:03:18Z</time></trkpt><trkpt lat="39.82206797241849" lon="8.650284141860084"><ele>16.0</ele><time>2026-05-03T06:03:19Z</time></trkpt><trkpt lat="39.82202548739029" lon="8.650481977266377"><ele>16.0</ele><time>2026-05-03T06:03:20Z</time></trkpt><trkpt lat="39.82197305990788" lon="8.650682261423242"><ele>16.0</ele><time>2026-05-03T06:03:21Z</time></trkpt><trkpt lat="39.821923219163835" lon="8.650897761286016"><ele>16.0</ele><time>2026-05-03T06:03:22Z</time></trkpt><trkpt lat="39.82188765012719" lon="8.651113388434629"><ele>16.0</ele><time>2026-05-03T06:03:23Z</time></trkpt><trkpt lat="39.82184404622352" lon="8.651340667743339"><ele>16.0</ele><time>2026-05-03T06:03:24Z</time></trkpt><trkpt lat="39.82179800631794" lon="8.651563565947903"><ele>16.333333333333332</ele><time>2026-05-03T06:03:25Z</time></trkpt><trkpt lat="39.82174401811902" lon="8.651786589771262"><ele>16.666666666666668</ele><time>2026-05-03T06:03:26Z</time></trkpt><trkpt lat="39.82169403163929" lon="8.652027539552636"><ele>17.0</ele><time>2026-05-03T06:03:27Z</time></trkpt><trkpt lat="39.82164355838329" lon="8.652285830694563"><ele>17.0</ele><time>2026-05-03T06:03:28Z</time></trkpt><trkpt lat="39.821599288172386" lon="8.652486349882"><ele>17.0</ele><time>2026-05-03T06:03:29Z</time></trkpt><trkpt lat="39.82156966723414" lon="8.65261926126784"><ele>17.0</ele><time>2026-05-03T06:03:30Z</time></trkpt><trkpt lat="39.82153885800437" lon="8.652737790100957"><ele>17.0</ele><time>2026-05-03T06:03:31Z</time></trkpt><trkpt lat="39.82151499496029" lon="8.652853369885513"><ele>17.0</ele><time>2026-05-03T06:03:32Z</time></trkpt><trkpt lat="39.8214968186733" lon="8.652953011474745"><ele>17.0</ele><time>2026-05-03T06:03:33Z</time></trkpt><trkpt lat="39.821479333083786" lon="8.653054083978171"><ele>17.0</ele><time>2026-05-03T06:03:34Z</time></trkpt><trkpt lat="39.821460060896335" lon="8.653164206228444"><ele>17.0</ele><time>2026-05-03T06:03:35Z</time></trkpt><trkpt lat="39.82143339719813" lon="8.65327509659104"><ele>17.0</ele><time>2026-05-03T06:03:36Z</time></trkpt><trkpt lat="39.82140268690577" lon="8.653388991019048"><ele>17.0</ele><time>2026-05-03T06:03:37Z</time></trkpt><trkpt lat="39.821382038775354" lon="8.653489455950995"><ele>17.0</ele><time>2026-05-03T06:03:38Z</time></trkpt><trkpt lat="39.821369725807564" lon="8.653571556603728"><ele>17.0</ele><time>2026-05-03T06:03:39Z</time></trkpt><trkpt lat="39.8213595820169" lon="8.653654511064437"><ele>17.0</ele><time>2026-05-03T06:03:40Z</time></trkpt><trkpt lat="39.821342235245666" lon="8.65374652519196"><ele>17.0</ele><time>2026-05-03T06:03:41Z</time></trkpt><trkpt lat="39.82130078752232" lon="8.653897470933476"><ele>17.0</ele><time>2026-05-03T06:03:42.999Z</time></trkpt><trkpt lat="39.821277852951035" lon="8.653987169549298"><ele>17.0</ele><time>2026-05-03T06:03:43.999Z</time></trkpt><trkpt lat="39.82125275532142" lon="8.654097411798181"><ele>17.0</ele><time>2026-05-03T06:03:44.999Z</time></trkpt><trkpt lat="39.821227928175524" lon="8.65422387974293"><ele>17.0</ele><time>2026-05-03T06:03:45.999Z</time></trkpt><trkpt lat="39.82120956405875" lon="8.654339525955658"><ele>17.0</ele><time>2026-05-03T06:03:46.999Z</time></trkpt><trkpt lat="39.82118727659387" lon="8.654441134556679"><ele>17.0</ele><time>2026-05-03T06:03:47.999Z</time></trkpt><trkpt lat="39.82116334657158" lon="8.654534942056136"><ele>17.0</ele><time>2026-05-03T06:03:48.999Z</time></trkpt><trkpt lat="39.82113580273011" lon="8.654631078233905"><ele>17.0</ele><time>2026-05-03T06:03:49.999Z</time></trkpt><trkpt lat="39.821119447880264" lon="8.654723255261148"><ele>17.166666666666668</ele><time>2026-05-03T06:03:50.999Z</time></trkpt><trkpt lat="39.82111904445039" lon="8.654821013940689"><ele>17.333333333333336</ele><time>2026-05-03T06:03:51.999Z</time></trkpt><trkpt lat="39.82111292230128" lon="8.654935453916954"><ele>17.5</ele><time>2026-05-03T06:03:52.999Z</time></trkpt><trkpt lat="39.82109711356585" lon="8.655040448220651"><ele>17.666666666666668</ele><time>2026-05-03T06:03:53.999Z</time></trkpt><trkpt lat="39.82107067289833" lon="8.655143540675727"><ele>17.833333333333332</ele><time>2026-05-03T06:03:54.999Z</time></trkpt><trkpt lat="39.82104862547325" lon="8.655250510929271"><ele>18.0</ele><time>2026-05-03T06:03:55.999Z</time></trkpt><trkpt lat="39.82103112865932" lon="8.655352999667207"><ele>18.166666666666668</ele><time>2026-05-03T06:03:56.999Z</time></trkpt><trkpt lat="39.821005766697304" lon="8.655459280572252"><ele>18.333333333333332</ele><time>2026-05-03T06:03:57.999Z</time></trkpt><trkpt lat="39.82097489936561" lon="8.655565880293317"><ele>18.5</ele><time>2026-05-03T06:03:58.999Z</time></trkpt><trkpt lat="39.82093959506955" lon="8.655669255384264"><ele>18.666666666666664</ele><time>2026-05-03T06:03:59.999Z</time></trkpt><trkpt lat="39.82090710564534" lon="8.655771911095233"><ele>18.833333333333332</ele><time>2026-05-03T06:04:00.999Z</time></trkpt><trkpt lat="39.820884540199636" lon="8.655881839380083"><ele>19.0</ele><time>2026-05-03T06:04:01.999Z</time></trkpt><trkpt lat="39.82086460219289" lon="8.655999908136149"><ele>19.0</ele><time>2026-05-03T06:04:02.999Z</time></trkpt><trkpt lat="39.82083959387067" lon="8.65613556273685"><ele>19.0</ele><time>2026-05-03T06:04:03.999Z</time></trkpt><trkpt lat="39.82080978473791" lon="8.656266406368982"><ele>19.0</ele><time>2026-05-03T06:04:04.999Z</time></trkpt><trkpt lat="39.82077888779049" lon="8.656391565173777"><ele>19.0</ele><time>2026-05-03T06:04:05.999Z</time></trkpt><trkpt lat="39.8207525607843" lon="8.65651838677687"><ele>19.0</ele><time>2026-05-03T06:04:06.999Z</time></trkpt><trkpt lat="39.82073102244176" lon="8.65664281099859"><ele>19.0</ele><time>2026-05-03T06:04:07.999Z</time></trkpt><trkpt lat="39.82071445960285" lon="8.65674975762542"><ele>19.0</ele><time>2026-05-03T06:04:08.999Z</time></trkpt><trkpt lat="39.82070234827525" lon="8.656852202264"><ele>19.0</ele><time>2026-05-03T06:04:09.999Z</time></trkpt><trkpt lat="39.82068693796009" lon="8.656961063840352"><ele>19.0</ele><time>2026-05-03T06:04:10.999Z</time></trkpt><trkpt lat="39.82066754141272" lon="8.657053844443896"><ele>19.0</ele><time>2026-05-03T06:04:11.999Z</time></trkpt><trkpt lat="39.820656713889036" lon="8.657136361531796"><ele>19.0</ele><time>2026-05-03T06:04:12.999Z</time></trkpt><trkpt lat="39.82063542738085" lon="8.657230731666191"><ele>19.166666666666664</ele><time>2026-05-03T06:04:13.999Z</time></trkpt><trkpt lat="39.82061393474748" lon="8.65733078463399"><ele>19.333333333333332</ele><time>2026-05-03T06:04:14.999Z</time></trkpt><trkpt lat="39.82059393831696" lon="8.65743640673406"><ele>19.5</ele><time>2026-05-03T06:04:15.999Z</time></trkpt><trkpt lat="39.820575173919714" lon="8.65754409576927"><ele>19.666666666666668</ele><time>2026-05-03T06:04:16.999Z</time></trkpt><trkpt lat="39.820557763620876" lon="8.657642927160774"><ele>19.833333333333336</ele><time>2026-05-03T06:04:17.999Z</time></trkpt><trkpt lat="39.820539914931054" lon="8.657737510588314"><ele>20.0</ele><time>2026-05-03T06:04:18.999Z</time></trkpt><trkpt lat="39.82051672620412" lon="8.657836377494679"><ele>20.333333333333336</ele><time>2026-05-03T06:04:19.999Z</time></trkpt><trkpt lat="39.82049014120919" lon="8.657947204654603"><ele>20.666666666666668</ele><time>2026-05-03T06:04:20.999Z</time></trkpt><trkpt lat="39.820465011006476" lon="8.65806198021385"><ele>21.0</ele><time>2026-05-03T06:04:21.999Z</time></trkpt><trkpt lat="39.820438532588724" lon="8.65816550005611"><ele>21.333333333333332</ele><time>2026-05-03T06:04:22.999Z</time></trkpt><trkpt lat="39.82041008308249" lon="8.658277202772547"><ele>21.666666666666664</ele><time>2026-05-03T06:04:23.999Z</time></trkpt><trkpt lat="39.82038904382834" lon="8.65839063194127"><ele>22.0</ele><time>2026-05-03T06:04:24.999Z</time></trkpt><trkpt lat="39.82036746473249" lon="8.65850843565682"><ele>22.400000000000002</ele><time>2026-05-03T06:04:25.999Z</time></trkpt><trkpt lat="39.82034085964106" lon="8.658632515895773"><ele>22.8</ele><time>2026-05-03T06:04:26.999Z</time></trkpt><trkpt lat="39.82031846472352" lon="8.658758173956235"><ele>23.2</ele><time>2026-05-03T06:04:27.999Z</time></trkpt><trkpt lat="39.82029678164566" lon="8.65888356039943"><ele>23.6</ele><time>2026-05-03T06:04:28.999Z</time></trkpt><trkpt lat="39.820276548646376" lon="8.658997766040535"><ele>24.0</ele><time>2026-05-03T06:04:29.999Z</time></trkpt><trkpt lat="39.82025823575927" lon="8.659106196082806"><ele>24.0</ele><time>2026-05-03T06:04:30.999Z</time></trkpt><trkpt lat="39.82024096924247" lon="8.659214834671387"><ele>24.0</ele><time>2026-05-03T06:04:31.999Z</time></trkpt><trkpt lat="39.82021539572352" lon="8.65932476768807"><ele>24.0</ele><time>2026-05-03T06:04:32.999Z</time></trkpt><trkpt lat="39.82018721464828" lon="8.659436315466579"><ele>24.0</ele><time>2026-05-03T06:04:33.999Z</time></trkpt><trkpt lat="39.82015719094303" lon="8.659550715196206"><ele>24.0</ele><time>2026-05-03T06:04:34.999Z</time></trkpt><trkpt lat="39.820132817383936" lon="8.659667145040933"><ele>24.0</ele><time>2026-05-03T06:04:35.999Z</time></trkpt><trkpt lat="39.820108363937365" lon="8.65978547156269"><ele>24.333333333333332</ele><time>2026-05-03T06:04:36.999Z</time></trkpt><trkpt lat="39.82009185409753" lon="8.659896320621542"><ele>24.666666666666664</ele><time>2026-05-03T06:04:37.999Z</time></trkpt><trkpt lat="39.8200728180917" lon="8.659994178133486"><ele>25.0</ele><time>2026-05-03T06:04:38.999Z</time></trkpt><trkpt lat="39.82005243873815" lon="8.660082008242819"><ele>25.333333333333332</ele><time>2026-05-03T06:04:39.999Z</time></trkpt><trkpt lat="39.82003187409877" lon="8.660173934473907"><ele>25.666666666666664</ele><time>2026-05-03T06:04:40.999Z</time></trkpt><trkpt lat="39.82001204734434" lon="8.660285501750751"><ele>26.0</ele><time>2026-05-03T06:04:41.999Z</time></trkpt><trkpt lat="39.819995546821566" lon="8.660405996453582"><ele>26.0</ele><time>2026-05-03T06:04:42.998Z</time></trkpt><trkpt lat="39.81998176251427" lon="8.660518472877435"><ele>26.0</ele><time>2026-05-03T06:04:43.998Z</time></trkpt><trkpt lat="39.81995982842433" lon="8.660615739439145"><ele>26.0</ele><time>2026-05-03T06:04:44.998Z</time></trkpt><trkpt lat="39.81993166802247" lon="8.660727514025268"><ele>26.0</ele><time>2026-05-03T06:04:45.998Z</time></trkpt><trkpt lat="39.81989880933947" lon="8.660851344407932"><ele>26.0</ele><time>2026-05-03T06:04:46.998Z</time></trkpt><trkpt lat="39.81987185577461" lon="8.660977666492192"><ele>25.999999999999996</ele><time>2026-05-03T06:04:47.998Z</time></trkpt><trkpt lat="39.819850098243734" lon="8.66109428351676"><ele>26.0</ele><time>2026-05-03T06:04:48.998Z</time></trkpt><trkpt lat="39.81983484891253" lon="8.661202195484718"><ele>26.0</ele><time>2026-05-03T06:04:49.998Z</time></trkpt><trkpt lat="39.8198145110076" lon="8.66130793338862"><ele>26.0</ele><time>2026-05-03T06:04:50.998Z</time></trkpt><trkpt lat="39.81978716343633" lon="8.661417876019941"><ele>25.999999999999996</ele><time>2026-05-03T06:04:51.998Z</time></trkpt><trkpt lat="39.81976629452746" lon="8.661532623631215"><ele>26.0</ele><time>2026-05-03T06:04:52.998Z</time></trkpt><trkpt lat="39.81975552380642" lon="8.661644792785802"><ele>25.999999999999996</ele><time>2026-05-03T06:04:53.998Z</time></trkpt><trkpt lat="39.81974658108193" lon="8.661747063289196"><ele>26.0</ele><time>2026-05-03T06:04:54.998Z</time></trkpt><trkpt lat="39.819726640220935" lon="8.6618668829131"><ele>26.0</ele><time>2026-05-03T06:04:55.998Z</time></trkpt><trkpt lat="39.81970549731073" lon="8.66197924563067"><ele>26.0</ele><time>2026-05-03T06:04:56.998Z</time></trkpt><trkpt lat="39.81969217477087" lon="8.662081554710923"><ele>25.999999999999996</ele><time>2026-05-03T06:04:57.998Z</time></trkpt><trkpt lat="39.819657967803195" lon="8.66220849440063"><ele>26.0</ele><time>2026-05-03T06:04:58.998Z</time></trkpt><trkpt lat="39.819618594448045" lon="8.662368788123457"><ele>26.0</ele><time>2026-05-03T06:04:59.998Z</time></trkpt><trkpt lat="39.819581685632855" lon="8.662533554722938"><ele>26.0</ele><time>2026-05-03T06:05:00.998Z</time></trkpt><trkpt lat="39.8195433663739" lon="8.662700999554298"><ele>26.0</ele><time>2026-05-03T06:05:01.998Z</time></trkpt><trkpt lat="39.81951637253218" lon="8.662839733347749"><ele>26.0</ele><time>2026-05-03T06:05:02.998Z</time></trkpt><trkpt lat="39.81949291404414" lon="8.66296630401558"><ele>26.25</ele><time>2026-05-03T06:05:03.998Z</time></trkpt><trkpt lat="39.81946053317669" lon="8.663095785536731"><ele>26.5</ele><time>2026-05-03T06:05:04.998Z</time></trkpt><trkpt lat="39.81943425600451" lon="8.663244050005375"><ele>26.75</ele><time>2026-05-03T06:05:05.998Z</time></trkpt><trkpt lat="39.81940006573304" lon="8.66339687258373"><ele>27.0</ele><time>2026-05-03T06:05:06.998Z</time></trkpt><trkpt lat="39.81935530575593" lon="8.663559528896883"><ele>27.6</ele><time>2026-05-03T06:05:07.998Z</time></trkpt><trkpt lat="39.81931611477789" lon="8.663718473161106"><ele>28.200000000000003</ele><time>2026-05-03T06:05:08.998Z</time></trkpt><trkpt lat="39.8192868670242" lon="8.663865337853172"><ele>28.8</ele><time>2026-05-03T06:05:09.998Z</time></trkpt><trkpt lat="39.81926385523949" lon="8.664002935787622"><ele>29.4</ele><time>2026-05-03T06:05:10.998Z</time></trkpt><trkpt lat="39.81924697120053" lon="8.664125298082917"><ele>30.0</ele><time>2026-05-03T06:05:11.998Z</time></trkpt><trkpt lat="39.819233739629574" lon="8.664229431068389"><ele>30.0</ele><time>2026-05-03T06:05:12.998Z</time></trkpt><trkpt lat="39.819214056897" lon="8.664322132433497"><ele>30.0</ele><time>2026-05-03T06:05:13.998Z</time></trkpt><trkpt lat="39.81917084502912" lon="8.664441692910998"><ele>30.0</ele><time>2026-05-03T06:05:14.998Z</time></trkpt><trkpt lat="39.819149633519096" lon="8.6645746536891"><ele>30.0</ele><time>2026-05-03T06:05:15.998Z</time></trkpt><trkpt lat="39.81913447588078" lon="8.664689664675537"><ele>30.0</ele><time>2026-05-03T06:05:16.998Z</time></trkpt><trkpt lat="39.81911169678292" lon="8.66480276730074"><ele>30.0</ele><time>2026-05-03T06:05:17.998Z</time></trkpt><trkpt lat="39.819074232206106" lon="8.664925365174541"><ele>30.0</ele><time>2026-05-03T06:05:18.998Z</time></trkpt><trkpt lat="39.81903365104864" lon="8.665055470308348"><ele>30.0</ele><time>2026-05-03T06:05:19.998Z</time></trkpt><trkpt lat="39.81899524424287" lon="8.665197961953263"><ele>30.0</ele><time>2026-05-03T06:05:20.998Z</time></trkpt><trkpt lat="39.81895568006356" lon="8.665332857518413"><ele>30.0</ele><time>2026-05-03T06:05:22Z</time></trkpt><trkpt lat="39.818917119981265" lon="8.665465916843134"><ele>29.75</ele><time>2026-05-03T06:05:23Z</time></trkpt><trkpt lat="39.81889083959763" lon="8.665608241584362"><ele>29.5</ele><time>2026-05-03T06:05:24Z</time></trkpt><trkpt lat="39.81888476503581" lon="8.665771362483248"><ele>29.25</ele><time>2026-05-03T06:05:25Z</time></trkpt><trkpt lat="39.818866940437445" lon="8.665947003362676"><ele>29.0</ele><time>2026-05-03T06:05:26Z</time></trkpt><trkpt lat="39.818833615077054" lon="8.666125374814554"><ele>29.0</ele><time>2026-05-03T06:05:27Z</time></trkpt><trkpt lat="39.81879537194358" lon="8.666316091854872"><ele>29.0</ele><time>2026-05-03T06:05:28Z</time></trkpt><trkpt lat="39.81875710084981" lon="8.666526131109318"><ele>29.0</ele><time>2026-05-03T06:05:29Z</time></trkpt><trkpt lat="39.81872138433267" lon="8.666724834530365"><ele>29.0</ele><time>2026-05-03T06:05:30Z</time></trkpt><trkpt lat="39.81868499670204" lon="8.666898207422387"><ele>29.0</ele><time>2026-05-03T06:05:31Z</time></trkpt><trkpt lat="39.81864865142955" lon="8.667061565584994"><ele>29.0</ele><time>2026-05-03T06:05:32Z</time></trkpt><trkpt lat="39.81862476124553" lon="8.667217448665266"><ele>29.0</ele><time>2026-05-03T06:05:33Z</time></trkpt><trkpt lat="39.818615585196866" lon="8.667372958668434"><ele>29.25</ele><time>2026-05-03T06:05:34Z</time></trkpt><trkpt lat="39.81862068026949" lon="8.66751672128627"><ele>29.5</ele><time>2026-05-03T06:05:35Z</time></trkpt><trkpt lat="39.81864349710899" lon="8.667650481305929"><ele>29.75</ele><time>2026-05-03T06:05:36Z</time></trkpt><trkpt lat="39.81867659981605" lon="8.667795475851054"><ele>30.0</ele><time>2026-05-03T06:05:37Z</time></trkpt><trkpt lat="39.818714086695245" lon="8.667960611252626"><ele>30.0</ele><time>2026-05-03T06:05:38Z</time></trkpt><trkpt lat="39.81874865623516" lon="8.668151793063577"><ele>30.0</ele><time>2026-05-03T06:05:39Z</time></trkpt><trkpt lat="39.81877737876876" lon="8.66835741969942"><ele>30.0</ele><time>2026-05-03T06:05:40Z</time></trkpt><trkpt lat="39.8188082363944" lon="8.668555797125512"><ele>30.666666666666664</ele><time>2026-05-03T06:05:41Z</time></trkpt><trkpt lat="39.818841206965374" lon="8.668756871381367"><ele>31.333333333333332</ele><time>2026-05-03T06:05:42Z</time></trkpt><trkpt lat="39.81888297933037" lon="8.668962530518424"><ele>32.0</ele><time>2026-05-03T06:05:43Z</time></trkpt><trkpt lat="39.81893124620571" lon="8.66916838235965"><ele>32.0</ele><time>2026-05-03T06:05:44Z</time></trkpt><trkpt lat="39.81897588959678" lon="8.669380235062247"><ele>32.0</ele><time>2026-05-03T06:05:45Z</time></trkpt><trkpt lat="39.819016347047985" lon="8.66958516756192"><ele>32.0</ele><time>2026-05-03T06:05:45.999Z</time></trkpt><trkpt lat="39.819056424713196" lon="8.669778889093392"><ele>32.25</ele><time>2026-05-03T06:05:46.999Z</time></trkpt><trkpt lat="39.81910043521889" lon="8.669941912742885"><ele>32.5</ele><time>2026-05-03T06:05:47.999Z</time></trkpt><trkpt lat="39.81914014623101" lon="8.670109936636285"><ele>32.75</ele><time>2026-05-03T06:05:48.999Z</time></trkpt><trkpt lat="39.819179153919514" lon="8.670315639516659"><ele>33.0</ele><time>2026-05-03T06:05:49.999Z</time></trkpt><trkpt lat="39.81923379376316" lon="8.67054551425857"><ele>32.666666666666664</ele><time>2026-05-03T06:05:50.999Z</time></trkpt><trkpt lat="39.81929420296571" lon="8.67078442184989"><ele>32.33333333333333</ele><time>2026-05-03T06:05:51.999Z</time></trkpt><trkpt lat="39.819347473218556" lon="8.671006824920482"><ele>32.0</ele><time>2026-05-03T06:05:52.999Z</time></trkpt><trkpt lat="39.81939156880921" lon="8.671209584225616"><ele>32.0</ele><time>2026-05-03T06:05:53.999Z</time></trkpt><trkpt lat="39.8194315015487" lon="8.671405610267232"><ele>32.0</ele><time>2026-05-03T06:05:54.999Z</time></trkpt><trkpt lat="39.819467962964474" lon="8.671589939077887"><ele>32.0</ele><time>2026-05-03T06:05:55.999Z</time></trkpt><trkpt lat="39.819504785875516" lon="8.671765262101447"><ele>32.0</ele><time>2026-05-03T06:05:56.999Z</time></trkpt><trkpt lat="39.81953579944063" lon="8.671937255869937"><ele>32.75</ele><time>2026-05-03T06:05:57.999Z</time></trkpt><trkpt lat="39.819561118697465" lon="8.672114667019413"><ele>33.5</ele><time>2026-05-03T06:05:58.999Z</time></trkpt><trkpt lat="39.81956628296563" lon="8.6722651773013"><ele>34.25</ele><time>2026-05-03T06:05:59.999Z</time></trkpt><trkpt lat="39.81955137579448" lon="8.672407405008133"><ele>35.0</ele><time>2026-05-03T06:06:00.999Z</time></trkpt><trkpt lat="39.81950944049342" lon="8.67254374236286"><ele>35.0</ele><time>2026-05-03T06:06:01.999Z</time></trkpt><trkpt lat="39.819433540014124" lon="8.672673230647709"><ele>35.0</ele><time>2026-05-03T06:06:02.999Z</time></trkpt><trkpt lat="39.81933094813354" lon="8.672817926571511"><ele>35.0</ele><time>2026-05-03T06:06:03.999Z</time></trkpt><trkpt lat="39.819211534116526" lon="8.672972916678935"><ele>35.0</ele><time>2026-05-03T06:06:04.999Z</time></trkpt><trkpt lat="39.81909583831325" lon="8.67313299935436"><ele>35.75</ele><time>2026-05-03T06:06:05.999Z</time></trkpt><trkpt lat="39.8189919774817" lon="8.673290081475315"><ele>36.5</ele><time>2026-05-03T06:06:06.999Z</time></trkpt><trkpt lat="39.81891009668855" lon="8.673428353346482"><ele>37.25</ele><time>2026-05-03T06:06:07.999Z</time></trkpt><trkpt lat="39.81883904026233" lon="8.673547952178751"><ele>38.0</ele><time>2026-05-03T06:06:08.999Z</time></trkpt><trkpt lat="39.81876482513729" lon="8.67365196276317"><ele>38.199999999999996</ele><time>2026-05-03T06:06:09.999Z</time></trkpt><trkpt lat="39.818683848704346" lon="8.673753928623347"><ele>38.4</ele><time>2026-05-03T06:06:10.999Z</time></trkpt><trkpt lat="39.818606114025236" lon="8.67386622638436"><ele>38.599999999999994</ele><time>2026-05-03T06:06:11.999Z</time></trkpt><trkpt lat="39.81855235200944" lon="8.673986776988961"><ele>38.8</ele><time>2026-05-03T06:06:12.999Z</time></trkpt><trkpt lat="39.81851485817242" lon="8.674112886640012"><ele>39.0</ele><time>2026-05-03T06:06:13.999Z</time></trkpt><trkpt lat="39.81849158190594" lon="8.674262289746743"><ele>39.75</ele><time>2026-05-03T06:06:14.999Z</time></trkpt><trkpt lat="39.81847277552205" lon="8.674435413052706"><ele>40.5</ele><time>2026-05-03T06:06:15.999Z</time></trkpt><trkpt lat="39.818452375884675" lon="8.674622990107428"><ele>41.25</ele><time>2026-05-03T06:06:16.999Z</time></trkpt><trkpt lat="39.8184356535191" lon="8.67481497070834"><ele>42.0</ele><time>2026-05-03T06:06:17.999Z</time></trkpt><trkpt lat="39.81842954076566" lon="8.674995241502891"><ele>42.333333333333336</ele><time>2026-05-03T06:06:18.999Z</time></trkpt><trkpt lat="39.81842292453302" lon="8.67518908758748"><ele>42.66666666666667</ele><time>2026-05-03T06:06:19.999Z</time></trkpt><trkpt lat="39.818421644973384" lon="8.675383206894155"><ele>43.0</ele><time>2026-05-03T06:06:20.999Z</time></trkpt><trkpt lat="39.81841613124108" lon="8.675581678631483"><ele>43.0</ele><time>2026-05-03T06:06:21.999Z</time></trkpt><trkpt lat="39.818400855153506" lon="8.67578689892775"><ele>43.0</ele><time>2026-05-03T06:06:22.999Z</time></trkpt><trkpt lat="39.818379507732914" lon="8.676005528671238"><ele>43.0</ele><time>2026-05-03T06:06:23.999Z</time></trkpt><trkpt lat="39.818359935514444" lon="8.676227711607401"><ele>42.66666666666667</ele><time>2026-05-03T06:06:24.999Z</time></trkpt><trkpt lat="39.81833817328001" lon="8.676450891270282"><ele>42.333333333333336</ele><time>2026-05-03T06:06:25.999Z</time></trkpt><trkpt lat="39.8183058055514" lon="8.676676673262035"><ele>42.0</ele><time>2026-05-03T06:06:26.999Z</time></trkpt><trkpt lat="39.81826996749172" lon="8.676887540481793"><ele>42.0</ele><time>2026-05-03T06:06:27.999Z</time></trkpt><trkpt lat="39.818222356050676" lon="8.677064955135842"><ele>42.0</ele><time>2026-05-03T06:06:28.999Z</time></trkpt><trkpt lat="39.81815991307597" lon="8.67721884717093"><ele>42.0</ele><time>2026-05-03T06:06:29.999Z</time></trkpt><trkpt lat="39.818098791092446" lon="8.677368718264034"><ele>42.0</ele><time>2026-05-03T06:06:30.999Z</time></trkpt><trkpt lat="39.81805681103771" lon="8.677524888494599"><ele>42.0</ele><time>2026-05-03T06:06:31.999Z</time></trkpt><trkpt lat="39.818019925311056" lon="8.677661013247839"><ele>42.0</ele><time>2026-05-03T06:06:32.999Z</time></trkpt><trkpt lat="39.817961449304406" lon="8.677757111759886"><ele>42.0</ele><time>2026-05-03T06:06:33.999Z</time></trkpt><trkpt lat="39.81787381541094" lon="8.677838670447551"><ele>42.0</ele><time>2026-05-03T06:06:34.999Z</time></trkpt><trkpt lat="39.81776574790583" lon="8.67793485897254"><ele>42.0</ele><time>2026-05-03T06:06:35.999Z</time></trkpt><trkpt lat="39.81765969371918" lon="8.678034362262348"><ele>42.75</ele><time>2026-05-03T06:06:36.999Z</time></trkpt><trkpt lat="39.81756848810193" lon="8.678133890011146"><ele>43.5</ele><time>2026-05-03T06:06:37.999Z</time></trkpt><trkpt lat="39.817491926508865" lon="8.678241065947049"><ele>44.25</ele><time>2026-05-03T06:06:38.999Z</time></trkpt><trkpt lat="39.81742185731874" lon="8.678349120502853"><ele>45.0</ele><time>2026-05-03T06:06:39.999Z</time></trkpt><trkpt lat="39.81733390348299" lon="8.678458176198435"><ele>45.0</ele><time>2026-05-03T06:06:40.999Z</time></trkpt><trkpt lat="39.817229717123176" lon="8.678563617625198"><ele>45.0</ele><time>2026-05-03T06:06:41.999Z</time></trkpt><trkpt lat="39.81711312460715" lon="8.678688707925446"><ele>45.0</ele><time>2026-05-03T06:06:42.999Z</time></trkpt><trkpt lat="39.81698354794123" lon="8.678835326360822"><ele>45.333333333333336</ele><time>2026-05-03T06:06:43.999Z</time></trkpt><trkpt lat="39.81683290478155" lon="8.679002057917716"><ele>45.66666666666667</ele><time>2026-05-03T06:06:44.999Z</time></trkpt><trkpt lat="39.8166626983716" lon="8.679187777814866"><ele>46.0</ele><time>2026-05-03T06:06:45.998Z</time></trkpt><trkpt lat="39.816476675262486" lon="8.679384845352118"><ele>48.0</ele><time>2026-05-03T06:06:46.998Z</time></trkpt><trkpt lat="39.81628360949362" lon="8.679598130579269"><ele>50.0</ele><time>2026-05-03T06:06:47.998Z</time></trkpt><trkpt lat="39.816080847569104" lon="8.679832632804835"><ele>51.0</ele><time>2026-05-03T06:06:48.998Z</time></trkpt><trkpt lat="39.81591444302669" lon="8.68002070698761"><ele>52.0</ele><time>2026-05-03T06:06:49.998Z</time></trkpt><trkpt lat="39.815771968811944" lon="8.680172580718168"><ele>53.0</ele><time>2026-05-03T06:06:50.998Z</time></trkpt><trkpt lat="39.815665131800806" lon="8.680276412703414"><ele>53.0</ele><time>2026-05-03T06:06:51.998Z</time></trkpt><trkpt lat="39.81557833174603" lon="8.680335954219323"><ele>53.0</ele><time>2026-05-03T06:06:52.998Z</time></trkpt><trkpt lat="39.81549672823717" lon="8.68035737202577"><ele>53.0</ele><time>2026-05-03T06:06:53.998Z</time></trkpt><trkpt lat="39.815406724160304" lon="8.680354414105832"><ele>53.0</ele><time>2026-05-03T06:06:54.998Z</time></trkpt><trkpt lat="39.81529708730309" lon="8.680306431574811"><ele>53.0</ele><time>2026-05-03T06:06:55.998Z</time></trkpt><trkpt lat="39.81515720174389" lon="8.680225326326209"><ele>53.66666666666667</ele><time>2026-05-03T06:06:56.998Z</time></trkpt><trkpt lat="39.81499040027231" lon="8.680124503698067"><ele>54.33333333333333</ele><time>2026-05-03T06:06:57.998Z</time></trkpt><trkpt lat="39.814807430472385" lon="8.680036219531194"><ele>55.0</ele><time>2026-05-03T06:06:58.998Z</time></trkpt><trkpt lat="39.81462452263343" lon="8.67996688583616"><ele>55.0</ele><time>2026-05-03T06:06:59.998Z</time></trkpt><trkpt lat="39.814465157086076" lon="8.679913759442861"><ele>55.0</ele><time>2026-05-03T06:07:00.998Z</time></trkpt><trkpt lat="39.81426546295399" lon="8.679838019185368"><ele>55.0</ele><time>2026-05-03T06:07:01.998Z</time></trkpt><trkpt lat="39.81404538810458" lon="8.679748222185946"><ele>55.5</ele><time>2026-05-03T06:07:02.998Z</time></trkpt><trkpt lat="39.813873943290375" lon="8.679678776020088"><ele>56.0</ele><time>2026-05-03T06:07:03.998Z</time></trkpt><trkpt lat="39.81376551712659" lon="8.679628841683176"><ele>56.5</ele><time>2026-05-03T06:07:04.998Z</time></trkpt><trkpt lat="39.81369005076962" lon="8.679594568765562"><ele>57.0</ele><time>2026-05-03T06:07:05.998Z</time></trkpt><trkpt lat="39.81361785147216" lon="8.679567142925336"><ele>57.0</ele><time>2026-05-03T06:07:06.998Z</time></trkpt><trkpt lat="39.81354498720502" lon="8.67953250360238"><ele>57.0</ele><time>2026-05-03T06:07:08.998Z</time></trkpt><trkpt lat="39.81348417495421" lon="8.679597111889686"><ele>57.0</ele><time>2026-05-03T06:07:10.998Z</time></trkpt><trkpt lat="39.81345449969942" lon="8.679683118109676"><ele>57.0</ele><time>2026-05-03T06:07:11.998Z</time></trkpt><trkpt lat="39.81343723554172" lon="8.679807906232925"><ele>57.0</ele><time>2026-05-03T06:07:12.998Z</time></trkpt><trkpt lat="39.813420709783955" lon="8.679949254780423"><ele>57.0</ele><time>2026-05-03T06:07:13.998Z</time></trkpt><trkpt lat="39.813388662207004" lon="8.680065853753"><ele>57.0</ele><time>2026-05-03T06:07:14.998Z</time></trkpt><trkpt lat="39.813361740558854" lon="8.680148127992865"><ele>57.0</ele><time>2026-05-03T06:07:16.998Z</time></trkpt><trkpt lat="39.81340675148352" lon="8.680209384200957"><ele>57.0</ele><time>2026-05-03T06:07:18.998Z</time></trkpt><trkpt lat="39.81349055264969" lon="8.680278311416044"><ele>57.0</ele><time>2026-05-03T06:07:19.998Z</time></trkpt><trkpt lat="39.81361174268919" lon="8.680339704364236"><ele>57.0</ele><time>2026-05-03T06:07:20.998Z</time></trkpt><trkpt lat="39.81376148995766" lon="8.680390538655606"><ele>57.0</ele><time>2026-05-03T06:07:21.998Z</time></trkpt><trkpt lat="39.81392257746233" lon="8.680450965998071"><ele>57.0</ele><time>2026-05-03T06:07:22.998Z</time></trkpt><trkpt lat="39.81410557904254" lon="8.680530512684447"><ele>57.0</ele><time>2026-05-03T06:07:23.998Z</time></trkpt><trkpt lat="39.81429170904694" lon="8.68060982856159"><ele>56.66666666666667</ele><time>2026-05-03T06:07:24.998Z</time></trkpt><trkpt lat="39.814498127749836" lon="8.680692091391672"><ele>56.333333333333336</ele><time>2026-05-03T06:07:25.998Z</time></trkpt><trkpt lat="39.8147084995885" lon="8.680776352336023"><ele>56.0</ele><time>2026-05-03T06:07:26.998Z</time></trkpt><trkpt lat="39.8149287503867" lon="8.680866121530974"><ele>55.0</ele><time>2026-05-03T06:07:28Z</time></trkpt><trkpt lat="39.8151561966467" lon="8.680960084199821"><ele>54.0</ele><time>2026-05-03T06:07:29Z</time></trkpt><trkpt lat="39.81539062089893" lon="8.681055372848276"><ele>54.5</ele><time>2026-05-03T06:07:30Z</time></trkpt><trkpt lat="39.815617820308226" lon="8.68114617874394"><ele>55.0</ele><time>2026-05-03T06:07:31Z</time></trkpt><trkpt lat="39.81584021496778" lon="8.681236008477839"><ele>53.5</ele><time>2026-05-03T06:07:32Z</time></trkpt><trkpt lat="39.81606261463213" lon="8.681327419153268"><ele>52.0</ele><time>2026-05-03T06:07:33Z</time></trkpt><trkpt lat="39.81628401716287" lon="8.681420244551667"><ele>52.0</ele><time>2026-05-03T06:07:34Z</time></trkpt><trkpt lat="39.81650537255361" lon="8.681508784533596"><ele>52.0</ele><time>2026-05-03T06:07:35Z</time></trkpt><trkpt lat="39.81672642769864" lon="8.68159464250253"><ele>51.0</ele><time>2026-05-03T06:07:36Z</time></trkpt><trkpt lat="39.81694739374468" lon="8.681685115010524"><ele>50.0</ele><time>2026-05-03T06:07:37Z</time></trkpt><trkpt lat="39.81716744157821" lon="8.681775563470067"><ele>50.0</ele><time>2026-05-03T06:07:38Z</time></trkpt><trkpt lat="39.81738579232554" lon="8.681868512107942"><ele>50.0</ele><time>2026-05-03T06:07:39Z</time></trkpt><trkpt lat="39.81760326761309" lon="8.68195928869569"><ele>49.0</ele><time>2026-05-03T06:07:40Z</time></trkpt><trkpt lat="39.81781987866905" lon="8.682048677557546"><ele>48.0</ele><time>2026-05-03T06:07:41Z</time></trkpt><trkpt lat="39.81803620585017" lon="8.682132288648639"><ele>48.0</ele><time>2026-05-03T06:07:42Z</time></trkpt><trkpt lat="39.81825043008517" lon="8.682216367073408"><ele>48.0</ele><time>2026-05-03T06:07:43Z</time></trkpt><trkpt lat="39.81846460710836" lon="8.682303245578556"><ele>48.0</ele><time>2026-05-03T06:07:44Z</time></trkpt><trkpt lat="39.81867235322654" lon="8.682389900334513"><ele>48.0</ele><time>2026-05-03T06:07:45Z</time></trkpt><trkpt lat="39.81888046337143" lon="8.682476253080333"><ele>48.0</ele><time>2026-05-03T06:07:46Z</time></trkpt><trkpt lat="39.81908882546025" lon="8.682562006451404"><ele>48.0</ele><time>2026-05-03T06:07:47Z</time></trkpt><trkpt lat="39.819294805074165" lon="8.68264483367718"><ele>48.33333333333333</ele><time>2026-05-03T06:07:47.999Z</time></trkpt><trkpt lat="39.819501330250986" lon="8.682727214899499"><ele>48.666666666666664</ele><time>2026-05-03T06:07:48.999Z</time></trkpt><trkpt lat="39.81970795306238" lon="8.682810344754445"><ele>49.0</ele><time>2026-05-03T06:07:49.999Z</time></trkpt><trkpt lat="39.81991392002801" lon="8.682893293705261"><ele>49.33333333333333</ele><time>2026-05-03T06:07:50.999Z</time></trkpt><trkpt lat="39.82011832759874" lon="8.682977917271712"><ele>49.66666666666667</ele><time>2026-05-03T06:07:51.999Z</time></trkpt><trkpt lat="39.82032381453479" lon="8.683062138851618"><ele>50.0</ele><time>2026-05-03T06:07:52.999Z</time></trkpt><trkpt lat="39.82052875894026" lon="8.683144380550242"><ele>50.333333333333336</ele><time>2026-05-03T06:07:53.999Z</time></trkpt><trkpt lat="39.82073453809577" lon="8.68322651437592"><ele>50.66666666666667</ele><time>2026-05-03T06:07:54.999Z</time></trkpt><trkpt lat="39.82094203770569" lon="8.683309320774885"><ele>51.0</ele><time>2026-05-03T06:07:55.999Z</time></trkpt><trkpt lat="39.821148488189195" lon="8.683391144551646"><ele>51.0</ele><time>2026-05-03T06:07:56.999Z</time></trkpt><trkpt lat="39.82135498982419" lon="8.683473102726344"><ele>51.0</ele><time>2026-05-03T06:07:57.999Z</time></trkpt><trkpt lat="39.82156173807992" lon="8.683554110873583"><ele>51.0</ele><time>2026-05-03T06:07:58.999Z</time></trkpt><trkpt lat="39.82176677107982" lon="8.683636464522806"><ele>51.0</ele><time>2026-05-03T06:07:59.999Z</time></trkpt><trkpt lat="39.82196921313738" lon="8.683719772002638"><ele>51.0</ele><time>2026-05-03T06:08:00.999Z</time></trkpt><trkpt lat="39.822170292246355" lon="8.68380544395404"><ele>51.0</ele><time>2026-05-03T06:08:01.999Z</time></trkpt><trkpt lat="39.82237001745255" lon="8.683892757529733"><ele>51.0</ele><time>2026-05-03T06:08:02.999Z</time></trkpt><trkpt lat="39.82257010658293" lon="8.683976541669153"><ele>51.0</ele><time>2026-05-03T06:08:03.999Z</time></trkpt><trkpt lat="39.822772227126706" lon="8.684052979199112"><ele>51.0</ele><time>2026-05-03T06:08:04.999Z</time></trkpt><trkpt lat="39.822973467647735" lon="8.68413133383914"><ele>51.66666666666667</ele><time>2026-05-03T06:08:05.999Z</time></trkpt><trkpt lat="39.8231754451283" lon="8.68421086228164"><ele>52.333333333333336</ele><time>2026-05-03T06:08:06.999Z</time></trkpt><trkpt lat="39.82337616222784" lon="8.684293965003148"><ele>53.0</ele><time>2026-05-03T06:08:07.999Z</time></trkpt><trkpt lat="39.823576217644074" lon="8.684376290115784"><ele>53.0</ele><time>2026-05-03T06:08:08.999Z</time></trkpt><trkpt lat="39.823777405238395" lon="8.684456023501182"><ele>53.0</ele><time>2026-05-03T06:08:09.999Z</time></trkpt><trkpt lat="39.823979251977974" lon="8.684535260863816"><ele>53.0</ele><time>2026-05-03T06:08:10.999Z</time></trkpt><trkpt lat="39.82417983504918" lon="8.684616926242269"><ele>53.333333333333336</ele><time>2026-05-03T06:08:11.999Z</time></trkpt><trkpt lat="39.82437929135625" lon="8.684699761394553"><ele>53.66666666666667</ele><time>2026-05-03T06:08:12.999Z</time></trkpt><trkpt lat="39.82457951946407" lon="8.684782375044572"><ele>54.0</ele><time>2026-05-03T06:08:13.999Z</time></trkpt><trkpt lat="39.82478046984668" lon="8.684864650684109"><ele>54.0</ele><time>2026-05-03T06:08:14.999Z</time></trkpt><trkpt lat="39.82498367859234" lon="8.684945145979052"><ele>54.0</ele><time>2026-05-03T06:08:15.999Z</time></trkpt><trkpt lat="39.82518743785767" lon="8.685027340178841"><ele>54.0</ele><time>2026-05-03T06:08:16.999Z</time></trkpt><trkpt lat="39.8253942034225" lon="8.68510952514191"><ele>54.66666666666667</ele><time>2026-05-03T06:08:17.999Z</time></trkpt><trkpt lat="39.82560141456481" lon="8.685191911704313"><ele>55.333333333333336</ele><time>2026-05-03T06:08:18.999Z</time></trkpt><trkpt lat="39.82580972659899" lon="8.68527480052487"><ele>56.0</ele><time>2026-05-03T06:08:19.999Z</time></trkpt><trkpt lat="39.826018758347175" lon="8.685359124028118"><ele>56.0</ele><time>2026-05-03T06:08:20.999Z</time></trkpt><trkpt lat="39.82622760586258" lon="8.685444759208778"><ele>56.0</ele><time>2026-05-03T06:08:21.999Z</time></trkpt><trkpt lat="39.826437257687274" lon="8.68553317361608"><ele>56.0</ele><time>2026-05-03T06:08:22.999Z</time></trkpt><trkpt lat="39.82664783405686" lon="8.685621284395424"><ele>56.0</ele><time>2026-05-03T06:08:23.999Z</time></trkpt><trkpt lat="39.82685761577208" lon="8.685706916161429"><ele>56.0</ele><time>2026-05-03T06:08:24.999Z</time></trkpt><trkpt lat="39.82706806860675" lon="8.685790197214482"><ele>56.0</ele><time>2026-05-03T06:08:25.999Z</time></trkpt><trkpt lat="39.82727732412167" lon="8.685872277974115"><ele>56.0</ele><time>2026-05-03T06:08:26.999Z</time></trkpt><trkpt lat="39.827485805606294" lon="8.685956545116817"><ele>56.0</ele><time>2026-05-03T06:08:27.999Z</time></trkpt><trkpt lat="39.82769330096109" lon="8.686040522532602"><ele>56.0</ele><time>2026-05-03T06:08:28.999Z</time></trkpt><trkpt lat="39.82790024926297" lon="8.686126094645385"><ele>56.66666666666667</ele><time>2026-05-03T06:08:29.999Z</time></trkpt><trkpt lat="39.82810765093361" lon="8.686212262957921"><ele>57.33333333333333</ele><time>2026-05-03T06:08:30.999Z</time></trkpt><trkpt lat="39.82831677508592" lon="8.686296757536203"><ele>58.0</ele><time>2026-05-03T06:08:31.999Z</time></trkpt><trkpt lat="39.82852611606473" lon="8.686382488559845"><ele>58.0</ele><time>2026-05-03T06:08:32.999Z</time></trkpt><trkpt lat="39.828736685378836" lon="8.686467096599378"><ele>58.0</ele><time>2026-05-03T06:08:33.999Z</time></trkpt><trkpt lat="39.82894676333051" lon="8.68655302734103"><ele>58.0</ele><time>2026-05-03T06:08:34.999Z</time></trkpt><trkpt lat="39.82915904647113" lon="8.6866402837575"><ele>58.0</ele><time>2026-05-03T06:08:35.999Z</time></trkpt><trkpt lat="39.82937169576361" lon="8.686725311421629"><ele>58.0</ele><time>2026-05-03T06:08:36.999Z</time></trkpt><trkpt lat="39.829584486689626" lon="8.686809035572153"><ele>58.0</ele><time>2026-05-03T06:08:37.999Z</time></trkpt><trkpt lat="39.82979804221333" lon="8.686891388491237"><ele>58.0</ele><time>2026-05-03T06:08:38.999Z</time></trkpt><trkpt lat="39.83001045326719" lon="8.6869753620528"><ele>58.0</ele><time>2026-05-03T06:08:39.999Z</time></trkpt><trkpt lat="39.830221361962494" lon="8.68706039091362"><ele>58.0</ele><time>2026-05-03T06:08:40.999Z</time></trkpt><trkpt lat="39.830429804559124" lon="8.68714851461542"><ele>58.666666666666664</ele><time>2026-05-03T06:08:41.999Z</time></trkpt><trkpt lat="39.83063731119975" lon="8.687235359500805"><ele>59.33333333333333</ele><time>2026-05-03T06:08:42.999Z</time></trkpt><trkpt lat="39.830844942792446" lon="8.687320271499795"><ele>60.0</ele><time>2026-05-03T06:08:43.999Z</time></trkpt><trkpt lat="39.83105277742952" lon="8.687402949059805"><ele>60.0</ele><time>2026-05-03T06:08:44.999Z</time></trkpt><trkpt lat="39.831261606253975" lon="8.687486790457779"><ele>60.0</ele><time>2026-05-03T06:08:45.999Z</time></trkpt><trkpt lat="39.83147202152165" lon="8.687570099128802"><ele>60.0</ele><time>2026-05-03T06:08:46.999Z</time></trkpt><trkpt lat="39.831684849143976" lon="8.687654812727256"><ele>60.0</ele><time>2026-05-03T06:08:47.998Z</time></trkpt><trkpt lat="39.83189522641028" lon="8.68773916039752"><ele>60.0</ele><time>2026-05-03T06:08:48.998Z</time></trkpt><trkpt lat="39.8321072440318" lon="8.687823655309623"><ele>60.0</ele><time>2026-05-03T06:08:49.998Z</time></trkpt><trkpt lat="39.832320693662204" lon="8.687908198028454"><ele>60.0</ele><time>2026-05-03T06:08:50.998Z</time></trkpt><trkpt lat="39.83253473854489" lon="8.687993138302268"><ele>60.0</ele><time>2026-05-03T06:08:51.998Z</time></trkpt><trkpt lat="39.832746601909506" lon="8.688077847305042"><ele>60.0</ele><time>2026-05-03T06:08:52.998Z</time></trkpt><trkpt lat="39.83295880603285" lon="8.688163285384967"><ele>59.66666666666667</ele><time>2026-05-03T06:08:53.998Z</time></trkpt><trkpt lat="39.83316963611332" lon="8.688250050892544"><ele>59.333333333333336</ele><time>2026-05-03T06:08:54.998Z</time></trkpt><trkpt lat="39.8333807113638" lon="8.688336017912295"><ele>59.0</ele><time>2026-05-03T06:08:55.998Z</time></trkpt><trkpt lat="39.83359129499415" lon="8.6884218527767"><ele>59.0</ele><time>2026-05-03T06:08:56.998Z</time></trkpt><trkpt lat="39.83380209924399" lon="8.688505346960008"><ele>59.0</ele><time>2026-05-03T06:08:57.998Z</time></trkpt><trkpt lat="39.83401197439749" lon="8.688590194177905"><ele>59.0</ele><time>2026-05-03T06:08:58.998Z</time></trkpt><trkpt lat="39.83421991905744" lon="8.688673812789277"><ele>59.0</ele><time>2026-05-03T06:08:59.998Z</time></trkpt><trkpt lat="39.83442869657038" lon="8.688759699715147"><ele>59.0</ele><time>2026-05-03T06:09:00.998Z</time></trkpt><trkpt lat="39.83463461714073" lon="8.688843753682786"><ele>59.0</ele><time>2026-05-03T06:09:01.998Z</time></trkpt><trkpt lat="39.83483154910266" lon="8.68892018028501"><ele>59.0</ele><time>2026-05-03T06:09:02.998Z</time></trkpt><trkpt lat="39.835015523699695" lon="8.68899184449738"><ele>59.0</ele><time>2026-05-03T06:09:03.998Z</time></trkpt><trkpt lat="39.835182034984626" lon="8.689059200689277"><ele>59.0</ele><time>2026-05-03T06:09:04.998Z</time></trkpt><trkpt lat="39.8353372124452" lon="8.689123468838991"><ele>58.66666666666667</ele><time>2026-05-03T06:09:05.998Z</time></trkpt><trkpt lat="39.83548327446202" lon="8.689178642962496"><ele>58.33333333333333</ele><time>2026-05-03T06:09:06.998Z</time></trkpt><trkpt lat="39.83562105338889" lon="8.68923521079156"><ele>58.0</ele><time>2026-05-03T06:09:07.998Z</time></trkpt><trkpt lat="39.83576655200836" lon="8.689300209362008"><ele>58.0</ele><time>2026-05-03T06:09:08.998Z</time></trkpt><trkpt lat="39.835908640408945" lon="8.689348852767738"><ele>58.0</ele><time>2026-05-03T06:09:09.998Z</time></trkpt><trkpt lat="39.83604491131521" lon="8.689402122422399"><ele>58.0</ele><time>2026-05-03T06:09:10.998Z</time></trkpt><trkpt lat="39.836164586148364" lon="8.689456023263073"><ele>58.0</ele><time>2026-05-03T06:09:11.998Z</time></trkpt><trkpt lat="39.83628112676828" lon="8.689498715444632"><ele>58.33333333333333</ele><time>2026-05-03T06:09:12.998Z</time></trkpt><trkpt lat="39.836382883336995" lon="8.689525923511656"><ele>58.666666666666664</ele><time>2026-05-03T06:09:13.998Z</time></trkpt><trkpt lat="39.83645489059666" lon="8.689554144502585"><ele>59.0</ele><time>2026-05-03T06:09:14.998Z</time></trkpt><trkpt lat="39.836498715793056" lon="8.689638968888566"><ele>59.33333333333333</ele><time>2026-05-03T06:09:16.998Z</time></trkpt><trkpt lat="39.83648584602266" lon="8.689719459196262"><ele>59.666666666666664</ele><time>2026-05-03T06:09:17.998Z</time></trkpt><trkpt lat="39.8364417881533" lon="8.689825525630123"><ele>60.0</ele><time>2026-05-03T06:09:18.998Z</time></trkpt><trkpt lat="39.83638820236275" lon="8.689948099628241"><ele>60.0</ele><time>2026-05-03T06:09:19.998Z</time></trkpt><trkpt lat="39.836320929806" lon="8.690102427323879"><ele>60.0</ele><time>2026-05-03T06:09:20.998Z</time></trkpt><trkpt lat="39.83623396075376" lon="8.690294706493304"><ele>60.0</ele><time>2026-05-03T06:09:21.998Z</time></trkpt><trkpt lat="39.836141016191256" lon="8.690507646051303"><ele>60.0</ele><time>2026-05-03T06:09:22.998Z</time></trkpt><trkpt lat="39.83605072924327" lon="8.690710160981988"><ele>60.0</ele><time>2026-05-03T06:09:23.998Z</time></trkpt><trkpt lat="39.83597273130441" lon="8.690894360511221"><ele>60.0</ele><time>2026-05-03T06:09:24.998Z</time></trkpt><trkpt lat="39.83589563802435" lon="8.69109442172723"><ele>60.66666666666667</ele><time>2026-05-03T06:09:25.998Z</time></trkpt><trkpt lat="39.835813455419256" lon="8.691327303623176"><ele>61.333333333333336</ele><time>2026-05-03T06:09:26.998Z</time></trkpt><trkpt lat="39.83573278429463" lon="8.691578963991546"><ele>62.0</ele><time>2026-05-03T06:09:27.998Z</time></trkpt><trkpt lat="39.83565854725045" lon="8.69182073080369"><ele>62.66666666666667</ele><time>2026-05-03T06:09:28.998Z</time></trkpt><trkpt lat="39.835578399199" lon="8.69204651711503"><ele>63.33333333333333</ele><time>2026-05-03T06:09:29.998Z</time></trkpt><trkpt lat="39.835477317580136" lon="8.692295970243398"><ele>64.0</ele><time>2026-05-03T06:09:30.998Z</time></trkpt><trkpt lat="39.83536173900468" lon="8.69258713356481"><ele>64.5</ele><time>2026-05-03T06:09:31.998Z</time></trkpt><trkpt lat="39.83524880377842" lon="8.692877134131258"><ele>65.0</ele><time>2026-05-03T06:09:32.998Z</time></trkpt><trkpt lat="39.83514310319659" lon="8.69313770848563"><ele>65.33333333333334</ele><time>2026-05-03T06:09:34Z</time></trkpt><trkpt lat="39.8350420390834" lon="8.693378756457756"><ele>65.66666666666667</ele><time>2026-05-03T06:09:35Z</time></trkpt><trkpt lat="39.83493911340348" lon="8.693628232204263"><ele>66.0</ele><time>2026-05-03T06:09:36Z</time></trkpt><trkpt lat="39.83482872919162" lon="8.693899188413907"><ele>67.0</ele><time>2026-05-03T06:09:37Z</time></trkpt><trkpt lat="39.834714421481415" lon="8.694183798686733"><ele>68.0</ele><time>2026-05-03T06:09:38Z</time></trkpt><trkpt lat="39.83459967272401" lon="8.694473851670024"><ele>69.0</ele><time>2026-05-03T06:09:39Z</time></trkpt><trkpt lat="39.834488888654604" lon="8.694738038529167"><ele>70.0</ele><time>2026-05-03T06:09:40Z</time></trkpt><trkpt lat="39.83437264422605" lon="8.695015487860474"><ele>70.5</ele><time>2026-05-03T06:09:41Z</time></trkpt><trkpt lat="39.83426478753508" lon="8.69528986776798"><ele>71.0</ele><time>2026-05-03T06:09:42Z</time></trkpt><trkpt lat="39.83416187631375" lon="8.695549117540393"><ele>71.0</ele><time>2026-05-03T06:09:43Z</time></trkpt><trkpt lat="39.83406332415974" lon="8.695794716523638"><ele>71.0</ele><time>2026-05-03T06:09:44Z</time></trkpt><trkpt lat="39.83396119021003" lon="8.696047214201176"><ele>71.0</ele><time>2026-05-03T06:09:45Z</time></trkpt><trkpt lat="39.833852352589055" lon="8.69631207825085"><ele>72.33333333333334</ele><time>2026-05-03T06:09:46Z</time></trkpt><trkpt lat="39.83375871120812" lon="8.6965467717572"><ele>73.66666666666667</ele><time>2026-05-03T06:09:47Z</time></trkpt><trkpt lat="39.83368757757381" lon="8.696734833928117"><ele>75.0</ele><time>2026-05-03T06:09:48Z</time></trkpt><trkpt lat="39.8336139841778" lon="8.696917020924777"><ele>75.0</ele><time>2026-05-03T06:09:49Z</time></trkpt><trkpt lat="39.83353934198271" lon="8.697098590572704"><ele>75.0</ele><time>2026-05-03T06:09:50Z</time></trkpt><trkpt lat="39.83346468402821" lon="8.697308538947613"><ele>75.0</ele><time>2026-05-03T06:09:50.999Z</time></trkpt><trkpt lat="39.83337991039546" lon="8.697529031197854"><ele>74.66666666666667</ele><time>2026-05-03T06:09:51.999Z</time></trkpt><trkpt lat="39.8332917912259" lon="8.697744979127467"><ele>74.33333333333334</ele><time>2026-05-03T06:09:52.999Z</time></trkpt><trkpt lat="39.83321455056819" lon="8.697932421696358"><ele>74.0</ele><time>2026-05-03T06:09:53.999Z</time></trkpt><trkpt lat="39.83313755060424" lon="8.698117507610107"><ele>74.66666666666667</ele><time>2026-05-03T06:09:54.999Z</time></trkpt><trkpt lat="39.833065725674956" lon="8.69831682227461"><ele>75.33333333333333</ele><time>2026-05-03T06:09:55.999Z</time></trkpt><trkpt lat="39.833003721793595" lon="8.698493202420883"><ele>76.0</ele><time>2026-05-03T06:09:56.999Z</time></trkpt><trkpt lat="39.8329430566081" lon="8.698660491256339"><ele>76.75</ele><time>2026-05-03T06:09:57.999Z</time></trkpt><trkpt lat="39.83287709089099" lon="8.698823977392248"><ele>77.5</ele><time>2026-05-03T06:09:58.999Z</time></trkpt><trkpt lat="39.8328106932312" lon="8.698986955974"><ele>78.25</ele><time>2026-05-03T06:09:59.999Z</time></trkpt><trkpt lat="39.83275786163851" lon="8.699153249147486"><ele>79.0</ele><time>2026-05-03T06:10:00.999Z</time></trkpt><trkpt lat="39.83270800610964" lon="8.699334847803692"><ele>79.66666666666666</ele><time>2026-05-03T06:10:01.999Z</time></trkpt><trkpt lat="39.832633704879505" lon="8.699525641713855"><ele>80.33333333333333</ele><time>2026-05-03T06:10:02.999Z</time></trkpt><trkpt lat="39.832547576247734" lon="8.69972699090894"><ele>81.0</ele><time>2026-05-03T06:10:03.999Z</time></trkpt><trkpt lat="39.83246519913118" lon="8.699926770230318"><ele>81.0</ele><time>2026-05-03T06:10:04.999Z</time></trkpt><trkpt lat="39.832401747700295" lon="8.700098613384993"><ele>81.0</ele><time>2026-05-03T06:10:05.999Z</time></trkpt><trkpt lat="39.83235426594185" lon="8.700247215052862"><ele>81.0</ele><time>2026-05-03T06:10:06.999Z</time></trkpt><trkpt lat="39.83230924077256" lon="8.70038810012737"><ele>81.0</ele><time>2026-05-03T06:10:07.999Z</time></trkpt><trkpt lat="39.83225929152583" lon="8.70051355982501"><ele>81.5</ele><time>2026-05-03T06:10:08.999Z</time></trkpt><trkpt lat="39.83221997989801" lon="8.700610936445742"><ele>82.0</ele><time>2026-05-03T06:10:09.999Z</time></trkpt><trkpt lat="39.83217365578243" lon="8.700706459441461"><ele>82.5</ele><time>2026-05-03T06:10:11.999Z</time></trkpt><trkpt lat="39.83212348174243" lon="8.700833125802044"><ele>83.0</ele><time>2026-05-03T06:10:13.999Z</time></trkpt><trkpt lat="39.832148189039074" lon="8.70091703022205"><ele>83.5</ele><time>2026-05-03T06:10:18.999Z</time></trkpt><trkpt lat="39.83223066722345" lon="8.700896839237885"><ele>84.0</ele><time>2026-05-03T06:10:20.999Z</time></trkpt><trkpt lat="39.83232522115346" lon="8.700849173311184"><ele>84.0</ele><time>2026-05-03T06:10:21.999Z</time></trkpt><trkpt lat="39.83241418439311" lon="8.700818199497883"><ele>84.0</ele><time>2026-05-03T06:10:22.999Z</time></trkpt><trkpt lat="39.83247883569931" lon="8.700792088144322"><ele>84.0</ele><time>2026-05-03T06:10:23.999Z</time></trkpt><trkpt lat="39.83259009024343" lon="8.700724325856601"><ele>84.0</ele><time>2026-05-03T06:10:25.999Z</time></trkpt><trkpt lat="39.832642289257066" lon="8.700653941503237"><ele>84.0</ele><time>2026-05-03T06:10:26.999Z</time></trkpt><trkpt lat="39.832691793046585" lon="8.700582668365088"><ele>84.0</ele><time>2026-05-03T06:10:27.999Z</time></trkpt><trkpt lat="39.83274928689044" lon="8.700516453392995"><ele>84.33333333333333</ele><time>2026-05-03T06:10:28.999Z</time></trkpt><trkpt lat="39.83281256564006" lon="8.700450802110225"><ele>84.66666666666667</ele><time>2026-05-03T06:10:29.999Z</time></trkpt><trkpt lat="39.832895609387826" lon="8.70038691302491"><ele>85.0</ele><time>2026-05-03T06:10:30.999Z</time></trkpt><trkpt lat="39.83296154056405" lon="8.700351985001681"><ele>85.33333333333334</ele><time>2026-05-03T06:10:31.999Z</time></trkpt><trkpt lat="39.83304443921755" lon="8.7002693216506"><ele>85.66666666666667</ele><time>2026-05-03T06:10:34.999Z</time></trkpt><trkpt lat="39.83313196765322" lon="8.700225961911652"><ele>86.0</ele><time>2026-05-03T06:10:35.999Z</time></trkpt><trkpt lat="39.83321739131468" lon="8.700193074842536"><ele>85.25</ele><time>2026-05-03T06:10:36.999Z</time></trkpt><trkpt lat="39.83330902199573" lon="8.700105005756999"><ele>84.5</ele><time>2026-05-03T06:10:37.999Z</time></trkpt><trkpt lat="39.83340640128387" lon="8.699990381862477"><ele>83.75</ele><time>2026-05-03T06:10:38.999Z</time></trkpt><trkpt lat="39.8335180485909" lon="8.699879762992177"><ele>83.0</ele><time>2026-05-03T06:10:39.999Z</time></trkpt><trkpt lat="39.83363081816109" lon="8.699773153188763"><ele>83.0</ele><time>2026-05-03T06:10:40.999Z</time></trkpt><trkpt lat="39.83372671451137" lon="8.699709223532937"><ele>83.0</ele><time>2026-05-03T06:10:41.999Z</time></trkpt><trkpt lat="39.83386624329859" lon="8.699709001599134"><ele>83.0</ele><time>2026-05-03T06:10:43.999Z</time></trkpt><trkpt lat="39.83394782745436" lon="8.699738953645806"><ele>83.0</ele><time>2026-05-03T06:10:44.999Z</time></trkpt><trkpt lat="39.83403145422318" lon="8.69975452741577"><ele>83.0</ele><time>2026-05-03T06:10:45.999Z</time></trkpt><trkpt lat="39.83412693517875" lon="8.699744193632409"><ele>83.0</ele><time>2026-05-03T06:10:46.999Z</time></trkpt><trkpt lat="39.83422613759595" lon="8.699699723825763"><ele>83.0</ele><time>2026-05-03T06:10:47.999Z</time></trkpt><trkpt lat="39.83435162419551" lon="8.699636898487357"><ele>83.0</ele><time>2026-05-03T06:10:48.999Z</time></trkpt><trkpt lat="39.83448020777571" lon="8.699563974617599"><ele>83.0</ele><time>2026-05-03T06:10:49.999Z</time></trkpt><trkpt lat="39.83461652699152" lon="8.699498232782757"><ele>83.33333333333334</ele><time>2026-05-03T06:10:50.998Z</time></trkpt><trkpt lat="39.83470682818921" lon="8.69944598823024"><ele>83.66666666666667</ele><time>2026-05-03T06:10:51.998Z</time></trkpt><trkpt lat="39.83476757632635" lon="8.69939495812133"><ele>84.0</ele><time>2026-05-03T06:10:52.998Z</time></trkpt><trkpt lat="39.83486449210909" lon="8.699321576375256"><ele>84.33333333333333</ele><time>2026-05-03T06:10:54.998Z</time></trkpt><trkpt lat="39.834930272021346" lon="8.699298211868136"><ele>84.66666666666666</ele><time>2026-05-03T06:10:55.998Z</time></trkpt><trkpt lat="39.83499241000887" lon="8.699254287654872"><ele>85.0</ele><time>2026-05-03T06:10:56.998Z</time></trkpt><trkpt lat="39.83504419219989" lon="8.699197377382633"><ele>84.5</ele><time>2026-05-03T06:10:57.998Z</time></trkpt><trkpt lat="39.8350947349046" lon="8.699146247410544"><ele>84.0</ele><time>2026-05-03T06:10:58.998Z</time></trkpt><trkpt lat="39.83515907189407" lon="8.69910807982647"><ele>83.5</ele><time>2026-05-03T06:11:02.998Z</time></trkpt><trkpt lat="39.835218079539175" lon="8.699059623434797"><ele>83.0</ele><time>2026-05-03T06:11:03.998Z</time></trkpt><trkpt lat="39.835280015513966" lon="8.698995322081418"><ele>82.5</ele><time>2026-05-03T06:11:04.998Z</time></trkpt><trkpt lat="39.8353385682959" lon="8.698957456899267"><ele>82.0</ele><time>2026-05-03T06:11:05.998Z</time></trkpt><trkpt lat="39.83544822345056" lon="8.698992523739982"><ele>82.0</ele><time>2026-05-03T06:11:07.998Z</time></trkpt><trkpt lat="39.8354902615046" lon="8.699056757841731"><ele>82.0</ele><time>2026-05-03T06:11:08.998Z</time></trkpt><trkpt lat="39.835506405765116" lon="8.699150849714822"><ele>82.0</ele><time>2026-05-03T06:11:09.998Z</time></trkpt><trkpt lat="39.83554732433851" lon="8.699279522412876"><ele>82.0</ele><time>2026-05-03T06:11:10.998Z</time></trkpt><trkpt lat="39.835603352864325" lon="8.699415865535805"><ele>82.0</ele><time>2026-05-03T06:11:11.998Z</time></trkpt><trkpt lat="39.83567623709016" lon="8.699568130778912"><ele>82.0</ele><time>2026-05-03T06:11:12.998Z</time></trkpt><trkpt lat="39.835745922547446" lon="8.699719532425263"><ele>82.0</ele><time>2026-05-03T06:11:13.998Z</time></trkpt><trkpt lat="39.83580536532637" lon="8.699852004517306"><ele>82.0</ele><time>2026-05-03T06:11:14.998Z</time></trkpt><trkpt lat="39.83586468964721" lon="8.699962815031835"><ele>82.0</ele><time>2026-05-03T06:11:15.998Z</time></trkpt><trkpt lat="39.835933347538266" lon="8.700075856723249"><ele>82.0</ele><time>2026-05-03T06:11:16.998Z</time></trkpt><trkpt lat="39.83601741069449" lon="8.700198401924391"><ele>82.0</ele><time>2026-05-03T06:11:17.998Z</time></trkpt><trkpt lat="39.836096986343044" lon="8.700321789936527"><ele>82.0</ele><time>2026-05-03T06:11:18.998Z</time></trkpt><trkpt lat="39.836154741452624" lon="8.700422973089779"><ele>82.0</ele><time>2026-05-03T06:11:19.998Z</time></trkpt><trkpt lat="39.836203386398836" lon="8.70050083192426"><ele>82.0</ele><time>2026-05-03T06:11:20.998Z</time></trkpt><trkpt lat="39.8362727811155" lon="8.700551701295423"><ele>82.0</ele><time>2026-05-03T06:11:21.998Z</time></trkpt><trkpt lat="39.83635283921986" lon="8.700595199810966"><ele>82.0</ele><time>2026-05-03T06:11:22.998Z</time></trkpt><trkpt lat="39.836417876786186" lon="8.700601439779877"><ele>82.0</ele><time>2026-05-03T06:11:23.998Z</time></trkpt><trkpt lat="39.83651090137854" lon="8.700483226231814"><ele>82.0</ele><time>2026-05-03T06:11:25.998Z</time></trkpt><trkpt lat="39.83655034401459" lon="8.700358371791319"><ele>82.0</ele><time>2026-05-03T06:11:26.998Z</time></trkpt><trkpt lat="39.83658406761823" lon="8.700227023229425"><ele>82.0</ele><time>2026-05-03T06:11:27.998Z</time></trkpt><trkpt lat="39.836619956114326" lon="8.700111467189647"><ele>82.0</ele><time>2026-05-03T06:11:28.998Z</time></trkpt><trkpt lat="39.83666744257783" lon="8.700025517733357"><ele>82.0</ele><time>2026-05-03T06:11:30.998Z</time></trkpt><trkpt lat="39.83659544632858" lon="8.700119656022904"><ele>82.0</ele><time>2026-05-03T06:11:37.998Z</time></trkpt><trkpt lat="39.83656169361233" lon="8.700238863935928"><ele>82.0</ele><time>2026-05-03T06:11:38.998Z</time></trkpt><trkpt lat="39.83652338307265" lon="8.70036402082452"><ele>82.0</ele><time>2026-05-03T06:11:40Z</time></trkpt><trkpt lat="39.83649379954286" lon="8.700455558851985"><ele>82.0</ele><time>2026-05-03T06:11:41Z</time></trkpt><trkpt lat="39.83643846164117" lon="8.700545917176527"><ele>82.0</ele><time>2026-05-03T06:11:43Z</time></trkpt><trkpt lat="39.836380914680056" lon="8.70057952242601"><ele>82.0</ele><time>2026-05-03T06:11:44.999Z</time></trkpt><trkpt lat="39.836367465079995" lon="8.70069567535053"><ele>82.0</ele><time>2026-05-03T06:11:47.999Z</time></trkpt><trkpt lat="39.836494835812886" lon="8.700757524750395"><ele>82.0</ele><time>2026-05-03T06:11:50Z</time></trkpt><trkpt lat="39.83659952407383" lon="8.700786635762078"><ele>82.0</ele><time>2026-05-03T06:11:50.999Z</time></trkpt><trkpt lat="39.836699947029054" lon="8.700838164478256"><ele>82.0</ele><time>2026-05-03T06:11:52Z</time></trkpt><trkpt lat="39.83679992439797" lon="8.700886659686933"><ele>82.0</ele><time>2026-05-03T06:11:53Z</time></trkpt><trkpt lat="39.83690343896609" lon="8.700921371234795"><ele>82.0</ele><time>2026-05-03T06:11:54Z</time></trkpt><trkpt lat="39.837013450375196" lon="8.700962204186427"><ele>81.8</ele><time>2026-05-03T06:11:54.999Z</time></trkpt><trkpt lat="39.83712156089136" lon="8.700999766359782"><ele>81.6</ele><time>2026-05-03T06:11:55.999Z</time></trkpt><trkpt lat="39.83723467087246" lon="8.701041720143444"><ele>81.39999999999999</ele><time>2026-05-03T06:11:56.999Z</time></trkpt><trkpt lat="39.83734056842035" lon="8.701095707824804"><ele>81.19999999999999</ele><time>2026-05-03T06:11:57.999Z</time></trkpt><trkpt lat="39.837432928508626" lon="8.701154157323058"><ele>81.0</ele><time>2026-05-03T06:11:58.999Z</time></trkpt><trkpt lat="39.837515970496696" lon="8.70120307065562"><ele>81.0</ele><time>2026-05-03T06:11:59.999Z</time></trkpt><trkpt lat="39.83759003494907" lon="8.70122314426953"><ele>81.0</ele><time>2026-05-03T06:12:00.999Z</time></trkpt><trkpt lat="39.83769716053494" lon="8.701171644892074"><ele>81.0</ele><time>2026-05-03T06:12:02.999Z</time></trkpt><trkpt lat="39.83774043947448" lon="8.701091490091763"><ele>81.0</ele><time>2026-05-03T06:12:03.999Z</time></trkpt><trkpt lat="39.8377901943305" lon="8.700971024650595"><ele>81.0</ele><time>2026-05-03T06:12:04.999Z</time></trkpt><trkpt lat="39.83785728352247" lon="8.700824932111416"><ele>81.0</ele><time>2026-05-03T06:12:05.999Z</time></trkpt><trkpt lat="39.8379382743884" lon="8.700664110953108"><ele>81.0</ele><time>2026-05-03T06:12:06.999Z</time></trkpt><trkpt lat="39.83802154488099" lon="8.700492235839288"><ele>81.0</ele><time>2026-05-03T06:12:07.999Z</time></trkpt><trkpt lat="39.838101149463576" lon="8.700305679012256"><ele>80.6</ele><time>2026-05-03T06:12:08.999Z</time></trkpt><trkpt lat="39.83816718583657" lon="8.70013976766045"><ele>80.19999999999999</ele><time>2026-05-03T06:12:09.999Z</time></trkpt><trkpt lat="39.83822152075355" lon="8.700018506352503"><ele>79.80000000000001</ele><time>2026-05-03T06:12:10.999Z</time></trkpt><trkpt lat="39.83826324526197" lon="8.699942041576511"><ele>79.4</ele><time>2026-05-03T06:12:11.999Z</time></trkpt><trkpt lat="39.83834525210779" lon="8.699875823238555"><ele>79.0</ele><time>2026-05-03T06:12:13.999Z</time></trkpt><trkpt lat="39.83843388577199" lon="8.699915119606178"><ele>79.25</ele><time>2026-05-03T06:12:15.999Z</time></trkpt><trkpt lat="39.838497816812165" lon="8.699976281925096"><ele>79.5</ele><time>2026-05-03T06:12:16.999Z</time></trkpt><trkpt lat="39.83859660114132" lon="8.700071917695446"><ele>79.75</ele><time>2026-05-03T06:12:17.999Z</time></trkpt><trkpt lat="39.838735706349134" lon="8.700185544400668"><ele>80.0</ele><time>2026-05-03T06:12:18.999Z</time></trkpt><trkpt lat="39.83890307123127" lon="8.700302786419666"><ele>80.0</ele><time>2026-05-03T06:12:19.999Z</time></trkpt><trkpt lat="39.839090357426834" lon="8.700424744144897"><ele>80.0</ele><time>2026-05-03T06:12:20.999Z</time></trkpt><trkpt lat="39.8392731561881" lon="8.70055165306512"><ele>80.0</ele><time>2026-05-03T06:12:21.999Z</time></trkpt><trkpt lat="39.83943663778465" lon="8.700665136350606"><ele>80.0</ele><time>2026-05-03T06:12:22.999Z</time></trkpt><trkpt lat="39.83954083747323" lon="8.7007335377937"><ele>80.0</ele><time>2026-05-03T06:12:23.999Z</time></trkpt><trkpt lat="39.83962438712882" lon="8.700781975489097"><ele>80.0</ele><time>2026-05-03T06:12:24.999Z</time></trkpt><trkpt lat="39.83971239643846" lon="8.700823034750908"><ele>80.0</ele><time>2026-05-03T06:12:25.999Z</time></trkpt><trkpt lat="39.839786820630145" lon="8.700840114824548"><ele>80.0</ele><time>2026-05-03T06:12:26.999Z</time></trkpt><trkpt lat="39.83986499176248" lon="8.700849319574543"><ele>80.0</ele><time>2026-05-03T06:12:28.999Z</time></trkpt><trkpt lat="39.83986124076088" lon="8.700940756712669"><ele>80.0</ele><time>2026-05-03T06:12:31.999Z</time></trkpt><trkpt lat="39.83981645745924" lon="8.701054625993844"><ele>80.0</ele><time>2026-05-03T06:12:33.999Z</time></trkpt><trkpt lat="39.839773790287076" lon="8.701205683656562"><ele>80.0</ele><time>2026-05-03T06:12:35.999Z</time></trkpt><trkpt lat="39.83971508142142" lon="8.701304766270495"><ele>80.0</ele><time>2026-05-03T06:12:36.999Z</time></trkpt><trkpt lat="39.83964938299764" lon="8.701430605677691"><ele>81.0</ele><time>2026-05-03T06:12:37.999Z</time></trkpt><trkpt lat="39.83956756248869" lon="8.70156232728072"><ele>82.0</ele><time>2026-05-03T06:12:38.999Z</time></trkpt><trkpt lat="39.839501123924784" lon="8.701715789510265"><ele>83.0</ele><time>2026-05-03T06:12:39.999Z</time></trkpt><trkpt lat="39.83943433596275" lon="8.701870058788876"><ele>84.0</ele><time>2026-05-03T06:12:40.999Z</time></trkpt><trkpt lat="39.83937003825274" lon="8.702018575994558"><ele>84.5</ele><time>2026-05-03T06:12:41.999Z</time></trkpt><trkpt lat="39.83930526968367" lon="8.702168180808469"><ele>85.0</ele><time>2026-05-03T06:12:42.999Z</time></trkpt><trkpt lat="39.839236270986724" lon="8.702327556523542"><ele>85.5</ele><time>2026-05-03T06:12:43.999Z</time></trkpt><trkpt lat="39.83916816332515" lon="8.70248487409465"><ele>86.0</ele><time>2026-05-03T06:12:44.999Z</time></trkpt><trkpt lat="39.83910499570084" lon="8.702630502529278"><ele>86.75</ele><time>2026-05-03T06:12:45.999Z</time></trkpt><trkpt lat="39.8390484910101" lon="8.702759707327246"><ele>87.5</ele><time>2026-05-03T06:12:46.999Z</time></trkpt><trkpt lat="39.83899011177012" lon="8.702893198505857"><ele>88.25</ele><time>2026-05-03T06:12:47.999Z</time></trkpt><trkpt lat="39.83892268502423" lon="8.703047377901612"><ele>89.0</ele><time>2026-05-03T06:12:48.999Z</time></trkpt><trkpt lat="39.83885257493085" lon="8.703207693099749"><ele>89.0</ele><time>2026-05-03T06:12:49.999Z</time></trkpt><trkpt lat="39.83878365723614" lon="8.703365281724686"><ele>89.0</ele><time>2026-05-03T06:12:50.999Z</time></trkpt><trkpt lat="39.83871870296265" lon="8.703514239689452"><ele>89.0</ele><time>2026-05-03T06:12:51.999Z</time></trkpt><trkpt lat="39.83865051993907" lon="8.70367097161629"><ele>89.0</ele><time>2026-05-03T06:12:52.999Z</time></trkpt><trkpt lat="39.83858208618724" lon="8.703828279885125"><ele>89.5</ele><time>2026-05-03T06:12:53.998Z</time></trkpt><trkpt lat="39.838520667143904" lon="8.703969463488294"><ele>90.0</ele><time>2026-05-03T06:12:54.998Z</time></trkpt><trkpt lat="39.83846272159976" lon="8.704102662582047"><ele>90.5</ele><time>2026-05-03T06:12:55.998Z</time></trkpt><trkpt lat="39.838410818268265" lon="8.704221972467895"><ele>91.0</ele><time>2026-05-03T06:12:56.998Z</time></trkpt><trkpt lat="39.83835186514389" lon="8.704358056204612"><ele>91.25</ele><time>2026-05-03T06:12:57.998Z</time></trkpt><trkpt lat="39.83828912715669" lon="8.704503290400014"><ele>91.5</ele><time>2026-05-03T06:12:58.998Z</time></trkpt><trkpt lat="39.83822334260536" lon="8.704655577188417"><ele>91.75</ele><time>2026-05-03T06:12:59.999Z</time></trkpt><trkpt lat="39.83815481015255" lon="8.704814225180343"><ele>92.0</ele><time>2026-05-03T06:13:00.999Z</time></trkpt><trkpt lat="39.838087311992865" lon="8.704970478857202"><ele>92.0</ele><time>2026-05-03T06:13:01.999Z</time></trkpt><trkpt lat="39.83802559395702" lon="8.70511335193733"><ele>92.0</ele><time>2026-05-03T06:13:02.999Z</time></trkpt><trkpt lat="39.837970278326225" lon="8.705241403879208"><ele>92.0</ele><time>2026-05-03T06:13:03.999Z</time></trkpt><trkpt lat="39.83791463170761" lon="8.7053702220394"><ele>92.0</ele><time>2026-05-03T06:13:04.999Z</time></trkpt><trkpt lat="39.837862767472195" lon="8.705491159416582"><ele>92.19999999999999</ele><time>2026-05-03T06:13:05.999Z</time></trkpt><trkpt lat="39.83782371232606" lon="8.705582235924869"><ele>92.4</ele><time>2026-05-03T06:13:06.999Z</time></trkpt><trkpt lat="39.837770175660076" lon="8.705707083301713"><ele>92.6</ele><time>2026-05-03T06:13:07.999Z</time></trkpt><trkpt lat="39.83771767769213" lon="8.705829508433178"><ele>92.80000000000001</ele><time>2026-05-03T06:13:08.999Z</time></trkpt><trkpt lat="39.83766948964671" lon="8.705941882842763"><ele>93.0</ele><time>2026-05-03T06:13:09.999Z</time></trkpt><trkpt lat="39.837623169978784" lon="8.706049900198881"><ele>94.5</ele><time>2026-05-03T06:13:10.999Z</time></trkpt><trkpt lat="39.837570747900315" lon="8.70617133966268"><ele>96.0</ele><time>2026-05-03T06:13:11.999Z</time></trkpt><trkpt lat="39.83751466190717" lon="8.706299735215548"><ele>97.5</ele><time>2026-05-03T06:13:12.999Z</time></trkpt><trkpt lat="39.83746734294338" lon="8.706441073303164"><ele>99.0</ele><time>2026-05-03T06:13:13.999Z</time></trkpt><trkpt lat="39.83740191485026" lon="8.70655784281589"><ele>99.0</ele><time>2026-05-03T06:13:14.999Z</time></trkpt><trkpt lat="39.837343159480845" lon="8.706692349274956"><ele>99.0</ele><time>2026-05-03T06:13:15.999Z</time></trkpt><trkpt lat="39.83727935365725" lon="8.706838417549479"><ele>99.0</ele><time>2026-05-03T06:13:16.999Z</time></trkpt><trkpt lat="39.83721722586133" lon="8.706980644377454"><ele>99.0</ele><time>2026-05-03T06:13:17.999Z</time></trkpt><trkpt lat="39.837162468696484" lon="8.707105997889188"><ele>99.5</ele><time>2026-05-03T06:13:18.999Z</time></trkpt><trkpt lat="39.837108546522614" lon="8.707229439895787"><ele>100.0</ele><time>2026-05-03T06:13:19.999Z</time></trkpt><trkpt lat="39.83705015979413" lon="8.707363102449232"><ele>100.5</ele><time>2026-05-03T06:13:20.999Z</time></trkpt><trkpt lat="39.8370050792223" lon="8.707509817367644"><ele>101.0</ele><time>2026-05-03T06:13:21.999Z</time></trkpt><trkpt lat="39.836932828422334" lon="8.707638699766013"><ele>101.25</ele><time>2026-05-03T06:13:22.999Z</time></trkpt><trkpt lat="39.83687771598784" lon="8.707768618219024"><ele>101.5</ele><time>2026-05-03T06:13:23.999Z</time></trkpt><trkpt lat="39.83682268110206" lon="8.707901121987364"><ele>101.75</ele><time>2026-05-03T06:13:24.999Z</time></trkpt><trkpt lat="39.83676642411284" lon="8.708036355024527"><ele>102.0</ele><time>2026-05-03T06:13:25.999Z</time></trkpt><trkpt lat="39.83671252736123" lon="8.708164005231344"><ele>102.75</ele><time>2026-05-03T06:13:26.999Z</time></trkpt><trkpt lat="39.83665570306954" lon="8.708295801355606"><ele>103.5</ele><time>2026-05-03T06:13:27.999Z</time></trkpt><trkpt lat="39.83659932825782" lon="8.708424209840464"><ele>104.25</ele><time>2026-05-03T06:13:28.999Z</time></trkpt><trkpt lat="39.83655334921963" lon="8.708565794234206"><ele>105.0</ele><time>2026-05-03T06:13:29.999Z</time></trkpt><trkpt lat="39.836486078552916" lon="8.708698497404859"><ele>105.25</ele><time>2026-05-03T06:13:30.999Z</time></trkpt><trkpt lat="39.836426249552844" lon="8.708832713446013"><ele>105.5</ele><time>2026-05-03T06:13:31.999Z</time></trkpt><trkpt lat="39.836373627671954" lon="8.708981236386935"><ele>105.75</ele><time>2026-05-03T06:13:32.999Z</time></trkpt><trkpt lat="39.83629311826452" lon="8.709122049358658"><ele>106.0</ele><time>2026-05-03T06:13:33.999Z</time></trkpt><trkpt lat="39.83622626438556" lon="8.709277786723666"><ele>106.25</ele><time>2026-05-03T06:13:34.999Z</time></trkpt><trkpt lat="39.83617290482418" lon="8.709439318021508"><ele>106.5</ele><time>2026-05-03T06:13:35.999Z</time></trkpt><trkpt lat="39.83610937657414" lon="8.709590691699676"><ele>106.75</ele><time>2026-05-03T06:13:36.999Z</time></trkpt><trkpt lat="39.836036305931316" lon="8.709720298507033"><ele>107.0</ele><time>2026-05-03T06:13:37.999Z</time></trkpt><trkpt lat="39.83597252882908" lon="8.709868868462504"><ele>107.75</ele><time>2026-05-03T06:13:38.999Z</time></trkpt><trkpt lat="39.835907565274354" lon="8.710020202276237"><ele>108.5</ele><time>2026-05-03T06:13:39.999Z</time></trkpt><trkpt lat="39.835843257120764" lon="8.710170009331875"><ele>109.25</ele><time>2026-05-03T06:13:40.999Z</time></trkpt><trkpt lat="39.83577728712439" lon="8.710323687671"><ele>110.0</ele><time>2026-05-03T06:13:41.999Z</time></trkpt><trkpt lat="39.83571917203014" lon="8.710489420665986"><ele>110.75</ele><time>2026-05-03T06:13:42.999Z</time></trkpt><trkpt lat="39.835649970855975" lon="8.710645537050516"><ele>111.5</ele><time>2026-05-03T06:13:43.999Z</time></trkpt><trkpt lat="39.83558913632683" lon="8.710790053999961"><ele>112.25</ele><time>2026-05-03T06:13:44.999Z</time></trkpt><trkpt lat="39.83551986519861" lon="8.710914675705304"><ele>113.0</ele><time>2026-05-03T06:13:46Z</time></trkpt><trkpt lat="39.83546293661295" lon="8.7110432011407"><ele>113.75</ele><time>2026-05-03T06:13:47Z</time></trkpt><trkpt lat="39.83540655596514" lon="8.711170489523202"><ele>114.5</ele><time>2026-05-03T06:13:48Z</time></trkpt><trkpt lat="39.83534993778553" lon="8.711298314173913"><ele>115.25</ele><time>2026-05-03T06:13:49Z</time></trkpt><trkpt lat="39.83529862114891" lon="8.711457171692418"><ele>116.0</ele><time>2026-05-03T06:13:50Z</time></trkpt><trkpt lat="39.83521995939329" lon="8.71159109158842"><ele>116.0</ele><time>2026-05-03T06:13:51Z</time></trkpt><trkpt lat="39.83516571352473" lon="8.711756269926214"><ele>116.0</ele><time>2026-05-03T06:13:52Z</time></trkpt><trkpt lat="39.83508109513777" lon="8.711903607454504"><ele>116.0</ele><time>2026-05-03T06:13:53Z</time></trkpt><trkpt lat="39.83501307653076" lon="8.712056684238748"><ele>116.0</ele><time>2026-05-03T06:13:54Z</time></trkpt><trkpt lat="39.83494817356365" lon="8.712199240599201"><ele>116.75</ele><time>2026-05-03T06:13:55Z</time></trkpt><trkpt lat="39.8348925815623" lon="8.712323163334682"><ele>117.5</ele><time>2026-05-03T06:13:56Z</time></trkpt><trkpt lat="39.83483882707075" lon="8.712442989787167"><ele>118.25</ele><time>2026-05-03T06:13:57Z</time></trkpt><trkpt lat="39.83477543324677" lon="8.712584304363682"><ele>119.0</ele><time>2026-05-03T06:13:58Z</time></trkpt><trkpt lat="39.834709927268115" lon="8.712730326567439"><ele>119.5</ele><time>2026-05-03T06:13:59Z</time></trkpt><trkpt lat="39.83464421662085" lon="8.712876806068168"><ele>120.0</ele><time>2026-05-03T06:14:00Z</time></trkpt><trkpt lat="39.83458146814439" lon="8.713016681662772"><ele>120.5</ele><time>2026-05-03T06:14:01Z</time></trkpt><trkpt lat="39.83452452494686" lon="8.713143616408885"><ele>121.0</ele><time>2026-05-03T06:14:02Z</time></trkpt><trkpt lat="39.83448608084581" lon="8.71326133566693"><ele>121.0</ele><time>2026-05-03T06:14:03Z</time></trkpt><trkpt lat="39.834442686134416" lon="8.713357545946657"><ele>121.0</ele><time>2026-05-03T06:14:04Z</time></trkpt><trkpt lat="39.834379790673836" lon="8.713466250393985"><ele>121.0</ele><time>2026-05-03T06:14:06Z</time></trkpt><trkpt lat="39.834343934402746" lon="8.713546179294696"><ele>121.0</ele><time>2026-05-03T06:14:07Z</time></trkpt><trkpt lat="39.8342905185616" lon="8.713663192769049"><ele>121.0</ele><time>2026-05-03T06:14:08Z</time></trkpt><trkpt lat="39.83423263191838" lon="8.713784858612126"><ele>121.83333333333334</ele><time>2026-05-03T06:14:09Z</time></trkpt><trkpt lat="39.83417944743345" lon="8.713895597094401"><ele>122.66666666666667</ele><time>2026-05-03T06:14:10Z</time></trkpt><trkpt lat="39.834135476475616" lon="8.713991483464078"><ele>123.5</ele><time>2026-05-03T06:14:11Z</time></trkpt><trkpt lat="39.8341023531573" lon="8.714080169878983"><ele>124.33333333333334</ele><time>2026-05-03T06:14:12Z</time></trkpt><trkpt lat="39.83407988896192" lon="8.71416337126249"><ele>125.16666666666667</ele><time>2026-05-03T06:14:13Z</time></trkpt><trkpt lat="39.834083275228096" lon="8.71429692383045"><ele>126.0</ele><time>2026-05-03T06:14:15Z</time></trkpt><trkpt lat="39.834083391548475" lon="8.714467208391522"><ele>126.4</ele><time>2026-05-03T06:14:17Z</time></trkpt><trkpt lat="39.834088584694186" lon="8.714585243326143"><ele>126.8</ele><time>2026-05-03T06:14:18Z</time></trkpt><trkpt lat="39.834094763678024" lon="8.714718727859024"><ele>127.20000000000002</ele><time>2026-05-03T06:14:19Z</time></trkpt><trkpt lat="39.834100791778354" lon="8.714848952846927"><ele>127.60000000000001</ele><time>2026-05-03T06:14:20Z</time></trkpt><trkpt lat="39.8341065545732" lon="8.71497344646552"><ele>128.0</ele><time>2026-05-03T06:14:21Z</time></trkpt><trkpt lat="39.83411205638381" lon="8.715096620289847"><ele>128.25</ele><time>2026-05-03T06:14:22Z</time></trkpt><trkpt lat="39.83411853392847" lon="8.71525413187905"><ele>128.5</ele><time>2026-05-03T06:14:23Z</time></trkpt><trkpt lat="39.834125933024936" lon="8.71543405233321"><ele>128.75</ele><time>2026-05-03T06:14:24Z</time></trkpt><trkpt lat="39.83413366922838" lon="8.715622170047578"><ele>129.0</ele><time>2026-05-03T06:14:25Z</time></trkpt><trkpt lat="39.83413986843754" lon="8.715778089446891"><ele>129.0</ele><time>2026-05-03T06:14:26Z</time></trkpt><trkpt lat="39.83414435963971" lon="8.715901746505947"><ele>129.0</ele><time>2026-05-03T06:14:27Z</time></trkpt><trkpt lat="39.83414803891985" lon="8.716003048721086"><ele>129.0</ele><time>2026-05-03T06:14:28Z</time></trkpt><trkpt lat="39.83415115824319" lon="8.716088933574628"><ele>129.0</ele><time>2026-05-03T06:14:29Z</time></trkpt><trkpt lat="39.83416678934436" lon="8.716203038420021"><ele>129.0</ele><time>2026-05-03T06:14:31Z</time></trkpt><trkpt lat="39.83419237173225" lon="8.716365450810379"><ele>129.4</ele><time>2026-05-03T06:15:30.999Z</time></trkpt><trkpt lat="39.834196900539176" lon="8.716463968107174"><ele>129.8</ele><time>2026-05-03T06:15:31.999Z</time></trkpt><trkpt lat="39.8342041734991" lon="8.716574187485378"><ele>130.2</ele><time>2026-05-03T06:15:32.999Z</time></trkpt><trkpt lat="39.83420763280542" lon="8.716715522921499"><ele>130.6</ele><time>2026-05-03T06:15:33.999Z</time></trkpt><trkpt lat="39.8342082967452" lon="8.716840382879322"><ele>131.0</ele><time>2026-05-03T06:15:34.999Z</time></trkpt><trkpt lat="39.834212721356764" lon="8.716956605389445"><ele>131.4</ele><time>2026-05-03T06:15:35.999Z</time></trkpt><trkpt lat="39.83421611769845" lon="8.717067582508298"><ele>131.8</ele><time>2026-05-03T06:15:36.999Z</time></trkpt><trkpt lat="39.83421842401025" lon="8.717188360473898"><ele>132.20000000000002</ele><time>2026-05-03T06:15:37.999Z</time></trkpt><trkpt lat="39.83421761147697" lon="8.71730804715212"><ele>132.6</ele><time>2026-05-03T06:15:38.999Z</time></trkpt><trkpt lat="39.83419979296712" lon="8.717428001416705"><ele>133.0</ele><time>2026-05-03T06:15:39.999Z</time></trkpt><trkpt lat="39.83420421842208" lon="8.717549848190988"><ele>133.0</ele><time>2026-05-03T06:15:40.999Z</time></trkpt><trkpt lat="39.83420839491164" lon="8.717664840164586"><ele>133.0</ele><time>2026-05-03T06:15:41.999Z</time></trkpt><trkpt lat="39.83421260052675" lon="8.717780634051627"><ele>133.0</ele><time>2026-05-03T06:15:42.999Z</time></trkpt><trkpt lat="39.834217026804325" lon="8.717902503505178"><ele>133.0</ele><time>2026-05-03T06:15:43.999Z</time></trkpt><trkpt lat="39.83424866560321" lon="8.718025463624954"><ele>133.0</ele><time>2026-05-03T06:15:44.999Z</time></trkpt><trkpt lat="39.83424850115061" lon="8.71814513186883"><ele>133.6</ele><time>2026-05-03T06:15:45.999Z</time></trkpt><trkpt lat="39.83425635008302" lon="8.718271596321067"><ele>134.20000000000002</ele><time>2026-05-03T06:15:46.999Z</time></trkpt><trkpt lat="39.83425863021825" lon="8.718397852778727"><ele>134.8</ele><time>2026-05-03T06:15:47.999Z</time></trkpt><trkpt lat="39.83426309438142" lon="8.718522039483355"><ele>135.4</ele><time>2026-05-03T06:15:48.999Z</time></trkpt><trkpt lat="39.83426439328927" lon="8.71864698838524"><ele>136.0</ele><time>2026-05-03T06:15:49.999Z</time></trkpt><trkpt lat="39.83426653216803" lon="8.718760744018185"><ele>136.8</ele><time>2026-05-03T06:15:50.999Z</time></trkpt><trkpt lat="39.83427232072036" lon="8.718885141101662"><ele>137.6</ele><time>2026-05-03T06:15:52Z</time></trkpt><trkpt lat="39.834278644361554" lon="8.719002751978513"><ele>138.4</ele><time>2026-05-03T06:15:53Z</time></trkpt><trkpt lat="39.83428377164926" lon="8.719123826926293"><ele>139.2</ele><time>2026-05-03T06:15:54Z</time></trkpt><trkpt lat="39.834290122605005" lon="8.719246651774485"><ele>140.0</ele><time>2026-05-03T06:15:55Z</time></trkpt><trkpt lat="39.83429321167315" lon="8.71936982015735"><ele>140.33333333333331</ele><time>2026-05-03T06:15:56Z</time></trkpt><trkpt lat="39.83427491420635" lon="8.719489471695208"><ele>140.66666666666666</ele><time>2026-05-03T06:15:57Z</time></trkpt><trkpt lat="39.8342933174569" lon="8.719596692973852"><ele>141.0</ele><time>2026-05-03T06:15:58Z</time></trkpt><trkpt lat="39.83428267371638" lon="8.719706410525129"><ele>141.33333333333334</ele><time>2026-05-03T06:15:59Z</time></trkpt><trkpt lat="39.83428698352559" lon="8.71982690331501"><ele>141.66666666666669</ele><time>2026-05-03T06:16:00Z</time></trkpt><trkpt lat="39.834291309461854" lon="8.719947846967866"><ele>142.0</ele><time>2026-05-03T06:16:01Z</time></trkpt><trkpt lat="39.8342961229539" lon="8.720082421594347"><ele>142.0</ele><time>2026-05-03T06:16:02Z</time></trkpt><trkpt lat="39.83430059121976" lon="8.720207344491731"><ele>142.0</ele><time>2026-05-03T06:16:03Z</time></trkpt><trkpt lat="39.83430495633504" lon="8.720329383515367"><ele>142.0</ele><time>2026-05-03T06:16:04Z</time></trkpt><trkpt lat="39.83430867901792" lon="8.720433461519297"><ele>142.0</ele><time>2026-05-03T06:16:05Z</time></trkpt><trkpt lat="39.83432645593302" lon="8.720535088094193"><ele>142.0</ele><time>2026-05-03T06:16:06Z</time></trkpt><trkpt lat="39.834315828424934" lon="8.720635676767843"><ele>142.0</ele><time>2026-05-03T06:16:07Z</time></trkpt><trkpt lat="39.83432033760034" lon="8.72076334441679"><ele>143.16666666666669</ele><time>2026-05-03T06:16:08Z</time></trkpt><trkpt lat="39.834324486769965" lon="8.720880819260945"><ele>144.33333333333334</ele><time>2026-05-03T06:16:09Z</time></trkpt><trkpt lat="39.83432831074912" lon="8.72098908706399"><ele>145.5</ele><time>2026-05-03T06:16:10Z</time></trkpt><trkpt lat="39.834364568241085" lon="8.721091383846142"><ele>146.66666666666666</ele><time>2026-05-03T06:16:11Z</time></trkpt><trkpt lat="39.834364667920646" lon="8.72119578414449"><ele>147.83333333333331</ele><time>2026-05-03T06:16:12Z</time></trkpt><trkpt lat="39.8343652224209" lon="8.72130908577614"><ele>149.0</ele><time>2026-05-03T06:16:13Z</time></trkpt><trkpt lat="39.834373507944164" lon="8.721436723292761"><ele>150.0</ele><time>2026-05-03T06:16:14Z</time></trkpt><trkpt lat="39.83437236868238" lon="8.721562785657625"><ele>151.0</ele><time>2026-05-03T06:16:15Z</time></trkpt><trkpt lat="39.834373188126264" lon="8.721694897379328"><ele>152.0</ele><time>2026-05-03T06:16:16Z</time></trkpt><trkpt lat="39.8343732058276" lon="8.721820706316313"><ele>153.0</ele><time>2026-05-03T06:16:17Z</time></trkpt><trkpt lat="39.8343763578958" lon="8.721944869700252"><ele>154.0</ele><time>2026-05-03T06:16:18Z</time></trkpt><trkpt lat="39.83438923985176" lon="8.72207238108003"><ele>154.6</ele><time>2026-05-03T06:16:19Z</time></trkpt><trkpt lat="39.83439889587129" lon="8.722225323562824"><ele>155.2</ele><time>2026-05-03T06:16:20Z</time></trkpt><trkpt lat="39.834403164441945" lon="8.722368429129894"><ele>155.79999999999998</ele><time>2026-05-03T06:16:21Z</time></trkpt><trkpt lat="39.83441244575615" lon="8.722498603193573"><ele>156.4</ele><time>2026-05-03T06:16:22Z</time></trkpt><trkpt lat="39.83441585240106" lon="8.722637908118893"><ele>157.0</ele><time>2026-05-03T06:16:23Z</time></trkpt><trkpt lat="39.834410649286916" lon="8.722763658622465"><ele>157.66666666666669</ele><time>2026-05-03T06:16:24Z</time></trkpt><trkpt lat="39.83441000271659" lon="8.722890588302866"><ele>158.33333333333334</ele><time>2026-05-03T06:16:25Z</time></trkpt><trkpt lat="39.83442632063863" lon="8.723015293499603"><ele>159.0</ele><time>2026-05-03T06:16:26Z</time></trkpt><trkpt lat="39.83442420877156" lon="8.723136012891986"><ele>159.66666666666666</ele><time>2026-05-03T06:16:27Z</time></trkpt><trkpt lat="39.83444248203339" lon="8.723239872873148"><ele>160.33333333333331</ele><time>2026-05-03T06:16:28Z</time></trkpt><trkpt lat="39.83444404761925" lon="8.72333507158812"><ele>161.0</ele><time>2026-05-03T06:16:29Z</time></trkpt><trkpt lat="39.83444311968705" lon="8.72344132568622"><ele>161.0</ele><time>2026-05-03T06:16:30Z</time></trkpt><trkpt lat="39.834445597723516" lon="8.723546983475531"><ele>161.0</ele><time>2026-05-03T06:16:31Z</time></trkpt><trkpt lat="39.834451983032324" lon="8.723687438199493"><ele>161.0</ele><time>2026-05-03T06:16:32Z</time></trkpt><trkpt lat="39.83445460031837" lon="8.723839043082064"><ele>161.0</ele><time>2026-05-03T06:16:33Z</time></trkpt><trkpt lat="39.834455585212794" lon="8.72399185714354"><ele>161.0</ele><time>2026-05-03T06:16:34Z</time></trkpt><trkpt lat="39.83445839314872" lon="8.724138560238979"><ele>161.5</ele><time>2026-05-03T06:16:35Z</time></trkpt><trkpt lat="39.83446549327768" lon="8.72426979346911"><ele>162.0</ele><time>2026-05-03T06:16:36Z</time></trkpt><trkpt lat="39.834471084723674" lon="8.724384321999544"><ele>162.5</ele><time>2026-05-03T06:16:37Z</time></trkpt><trkpt lat="39.834462759917294" lon="8.724474485368537"><ele>163.0</ele><time>2026-05-03T06:16:38Z</time></trkpt><trkpt lat="39.834394515116855" lon="8.724569946052714"><ele>163.5</ele><time>2026-05-03T06:16:40Z</time></trkpt><trkpt lat="39.83433788493589" lon="8.724622491113129"><ele>164.0</ele><time>2026-05-03T06:16:41Z</time></trkpt><trkpt lat="39.83428255497485" lon="8.724690626537006"><ele>164.42857142857142</ele><time>2026-05-03T06:16:42Z</time></trkpt><trkpt lat="39.83421589868975" lon="8.724757141002147"><ele>164.85714285714286</ele><time>2026-05-03T06:16:43Z</time></trkpt><trkpt lat="39.834166359908444" lon="8.724831560224166"><ele>165.28571428571428</ele><time>2026-05-03T06:16:44Z</time></trkpt><trkpt lat="39.83412481068877" lon="8.724898179215154"><ele>165.71428571428572</ele><time>2026-05-03T06:16:45Z</time></trkpt><trkpt lat="39.834084234413524" lon="8.724964420488174"><ele>166.14285714285714</ele><time>2026-05-03T06:16:46Z</time></trkpt><trkpt lat="39.834043185181415" lon="8.725035562388182"><ele>166.57142857142856</ele><time>2026-05-03T06:16:47Z</time></trkpt><trkpt lat="39.83400045613477" lon="8.725110546711834"><ele>167.0</ele><time>2026-05-03T06:16:48Z</time></trkpt><trkpt lat="39.83395646872653" lon="8.725190407357037"><ele>167.8</ele><time>2026-05-03T06:16:49Z</time></trkpt><trkpt lat="39.833906179126146" lon="8.725281709837134"><ele>168.6</ele><time>2026-05-03T06:16:50Z</time></trkpt><trkpt lat="39.83385303741353" lon="8.72537819043285"><ele>169.4</ele><time>2026-05-03T06:16:51Z</time></trkpt><trkpt lat="39.83379758651053" lon="8.725476589735138"><ele>170.20000000000002</ele><time>2026-05-03T06:16:52Z</time></trkpt><trkpt lat="39.833738689672124" lon="8.725576446029406"><ele>171.0</ele><time>2026-05-03T06:16:53Z</time></trkpt><trkpt lat="39.833671595588164" lon="8.725689510030714"><ele>171.0</ele><time>2026-05-03T06:16:54Z</time></trkpt><trkpt lat="39.83360545814911" lon="8.725824199473596"><ele>171.0</ele><time>2026-05-03T06:16:55Z</time></trkpt><trkpt lat="39.83356316096502" lon="8.725979137965302"><ele>171.0</ele><time>2026-05-03T06:16:56Z</time></trkpt><trkpt lat="39.83352391868898" lon="8.726135564601408"><ele>171.0</ele><time>2026-05-03T06:16:57Z</time></trkpt><trkpt lat="39.833468610732076" lon="8.7262815450782"><ele>170.75</ele><time>2026-05-03T06:16:58Z</time></trkpt><trkpt lat="39.83342971266746" lon="8.726434539204808"><ele>170.5</ele><time>2026-05-03T06:16:59Z</time></trkpt><trkpt lat="39.83340047116202" lon="8.726598669030958"><ele>170.25</ele><time>2026-05-03T06:17:00Z</time></trkpt><trkpt lat="39.83341099518576" lon="8.72679277410025"><ele>170.0</ele><time>2026-05-03T06:17:01Z</time></trkpt><trkpt lat="39.83341742201298" lon="8.726991562469946"><ele>170.5</ele><time>2026-05-03T06:17:02Z</time></trkpt><trkpt lat="39.83340744838697" lon="8.727180213521889"><ele>171.0</ele><time>2026-05-03T06:17:02.999Z</time></trkpt><trkpt lat="39.833400267242084" lon="8.727345336846772"><ele>171.5</ele><time>2026-05-03T06:17:03.999Z</time></trkpt><trkpt lat="39.83335485124121" lon="8.727499009580267"><ele>172.0</ele><time>2026-05-03T06:17:04.999Z</time></trkpt><trkpt lat="39.83328853798886" lon="8.727658327735487"><ele>173.25</ele><time>2026-05-03T06:17:05.999Z</time></trkpt><trkpt lat="39.83322282595208" lon="8.727807527915337"><ele>174.5</ele><time>2026-05-03T06:17:06.999Z</time></trkpt><trkpt lat="39.833158399148964" lon="8.727954799115695"><ele>175.75</ele><time>2026-05-03T06:17:07.999Z</time></trkpt><trkpt lat="39.83309538442853" lon="8.728095536365661"><ele>177.0</ele><time>2026-05-03T06:17:08.999Z</time></trkpt><trkpt lat="39.833037686183125" lon="8.72822410753271"><ele>177.0</ele><time>2026-05-03T06:17:09.999Z</time></trkpt><trkpt lat="39.83297740678798" lon="8.728344896232407"><ele>177.0</ele><time>2026-05-03T06:17:10.999Z</time></trkpt><trkpt lat="39.83291852897314" lon="8.728458668960295"><ele>177.0</ele><time>2026-05-03T06:17:11.999Z</time></trkpt><trkpt lat="39.832882954236034" lon="8.728586757334377"><ele>177.0</ele><time>2026-05-03T06:17:12.999Z</time></trkpt><trkpt lat="39.832847137768404" lon="8.728711101543427"><ele>177.0</ele><time>2026-05-03T06:17:13.999Z</time></trkpt><trkpt lat="39.83285075154475" lon="8.728847839767496"><ele>179.0</ele><time>2026-05-03T06:17:14.999Z</time></trkpt><trkpt lat="39.8328575764678" lon="8.728987079422124"><ele>181.0</ele><time>2026-05-03T06:17:15.999Z</time></trkpt><trkpt lat="39.832895794055" lon="8.729126760340389"><ele>183.0</ele><time>2026-05-03T06:17:16.999Z</time></trkpt><trkpt lat="39.83298263281306" lon="8.729259142332094"><ele>185.0</ele><time>2026-05-03T06:17:17.999Z</time></trkpt><trkpt lat="39.83306199762472" lon="8.729409130871375"><ele>186.0</ele><time>2026-05-03T06:17:18.999Z</time></trkpt><trkpt lat="39.83307781094137" lon="8.729593728353086"><ele>187.0</ele><time>2026-05-03T06:17:19.999Z</time></trkpt><trkpt lat="39.83312341831323" lon="8.729820472611848"><ele>188.0</ele><time>2026-05-03T06:17:20.999Z</time></trkpt><trkpt lat="39.83318560989318" lon="8.730051812335391"><ele>189.0</ele><time>2026-05-03T06:17:21.999Z</time></trkpt><trkpt lat="39.833246568934946" lon="8.730270016971016"><ele>190.0</ele><time>2026-05-03T06:17:22.999Z</time></trkpt><trkpt lat="39.833285837913536" lon="8.730443925115969"><ele>191.0</ele><time>2026-05-03T06:17:23.999Z</time></trkpt><trkpt lat="39.83330625753589" lon="8.730579128128628"><ele>192.0</ele><time>2026-05-03T06:17:24.999Z</time></trkpt><trkpt lat="39.83329958456245" lon="8.730711697650861"><ele>192.0</ele><time>2026-05-03T06:17:25.999Z</time></trkpt><trkpt lat="39.833282604240715" lon="8.73090387082288"><ele>192.0</ele><time>2026-05-03T06:17:26.999Z</time></trkpt><trkpt lat="39.833272401130365" lon="8.731102730093482"><ele>192.0</ele><time>2026-05-03T06:17:27.999Z</time></trkpt><trkpt lat="39.833241233647264" lon="8.73129027272209"><ele>192.0</ele><time>2026-05-03T06:17:28.999Z</time></trkpt><trkpt lat="39.83316865922437" lon="8.73148114185688"><ele>192.33333333333331</ele><time>2026-05-03T06:17:29.999Z</time></trkpt><trkpt lat="39.83314630786146" lon="8.73171862939702"><ele>192.66666666666666</ele><time>2026-05-03T06:17:30.999Z</time></trkpt><trkpt lat="39.83313443042328" lon="8.731958201988263"><ele>193.0</ele><time>2026-05-03T06:17:31.999Z</time></trkpt><trkpt lat="39.8331112657989" lon="8.73214619425192"><ele>194.25</ele><time>2026-05-03T06:17:32.999Z</time></trkpt><trkpt lat="39.8330693762688" lon="8.73228574092758"><ele>195.5</ele><time>2026-05-03T06:17:33.999Z</time></trkpt><trkpt lat="39.83300381919045" lon="8.732424956652192"><ele>196.75</ele><time>2026-05-03T06:17:34.999Z</time></trkpt><trkpt lat="39.8329107444343" lon="8.732571621245457"><ele>198.0</ele><time>2026-05-03T06:17:35.999Z</time></trkpt><trkpt lat="39.83282231507574" lon="8.732715294044269"><ele>198.75</ele><time>2026-05-03T06:17:36.999Z</time></trkpt><trkpt lat="39.83274143103043" lon="8.732850973421005"><ele>199.5</ele><time>2026-05-03T06:17:37.999Z</time></trkpt><trkpt lat="39.83266165392639" lon="8.732991426851802"><ele>200.25</ele><time>2026-05-03T06:17:38.999Z</time></trkpt><trkpt lat="39.83257656753028" lon="8.733156520980666"><ele>201.0</ele><time>2026-05-03T06:17:39.999Z</time></trkpt><trkpt lat="39.832483441872476" lon="8.733345855919902"><ele>201.0</ele><time>2026-05-03T06:17:40.999Z</time></trkpt><trkpt lat="39.832384536959424" lon="8.73355388767024"><ele>201.0</ele><time>2026-05-03T06:17:41.999Z</time></trkpt><trkpt lat="39.83229024888186" lon="8.733769725598533"><ele>201.0</ele><time>2026-05-03T06:17:42.999Z</time></trkpt><trkpt lat="39.83221171245474" lon="8.733979081003714"><ele>202.0</ele><time>2026-05-03T06:17:43.999Z</time></trkpt><trkpt lat="39.83214191033752" lon="8.734159106573474"><ele>203.0</ele><time>2026-05-03T06:17:44.999Z</time></trkpt><trkpt lat="39.83206655431874" lon="8.734308592991024"><ele>204.0</ele><time>2026-05-03T06:17:45.999Z</time></trkpt><trkpt lat="39.831990740346164" lon="8.73443619485612"><ele>205.0</ele><time>2026-05-03T06:17:46.999Z</time></trkpt><trkpt lat="39.83190447133925" lon="8.734563518315099"><ele>206.5</ele><time>2026-05-03T06:17:47.999Z</time></trkpt><trkpt lat="39.83182657516285" lon="8.734665684971832"><ele>208.0</ele><time>2026-05-03T06:17:48.999Z</time></trkpt><trkpt lat="39.83174128110497" lon="8.734774252894285"><ele>209.5</ele><time>2026-05-03T06:17:49.999Z</time></trkpt><trkpt lat="39.831658286787366" lon="8.734879663593407"><ele>211.0</ele><time>2026-05-03T06:17:50.999Z</time></trkpt><trkpt lat="39.831571300983505" lon="8.734990143873473"><ele>211.0</ele><time>2026-05-03T06:17:51.999Z</time></trkpt><trkpt lat="39.831486633319216" lon="8.735096244578896"><ele>211.0</ele><time>2026-05-03T06:17:52.999Z</time></trkpt><trkpt lat="39.83140025427256" lon="8.735202973344599"><ele>211.0</ele><time>2026-05-03T06:17:53.999Z</time></trkpt><trkpt lat="39.83131049405271" lon="8.73531387983355"><ele>211.0</ele><time>2026-05-03T06:17:54.999Z</time></trkpt><trkpt lat="39.83120927809282" lon="8.735438940883588"><ele>214.0</ele><time>2026-05-03T06:17:55.999Z</time></trkpt><trkpt lat="39.83110091642962" lon="8.73557410580867"><ele>217.0</ele><time>2026-05-03T06:17:56.999Z</time></trkpt><trkpt lat="39.830989784166036" lon="8.735718131854894"><ele>220.0</ele><time>2026-05-03T06:17:58Z</time></trkpt><trkpt lat="39.830894790945464" lon="8.735882609781898"><ele>220.0</ele><time>2026-05-03T06:17:59Z</time></trkpt><trkpt lat="39.830777716794344" lon="8.736024751209197"><ele>220.0</ele><time>2026-05-03T06:18:00Z</time></trkpt><trkpt lat="39.830677326656485" lon="8.736164607162099"><ele>220.0</ele><time>2026-05-03T06:18:01Z</time></trkpt><trkpt lat="39.83058740410569" lon="8.736267552982618"><ele>220.0</ele><time>2026-05-03T06:18:02Z</time></trkpt><trkpt lat="39.83049884818809" lon="8.736351573700059"><ele>220.8</ele><time>2026-05-03T06:18:03Z</time></trkpt><trkpt lat="39.830410065591245" lon="8.73642269300147"><ele>221.6</ele><time>2026-05-03T06:18:04Z</time></trkpt><trkpt lat="39.8303234552331" lon="8.736483689581576"><ele>222.39999999999998</ele><time>2026-05-03T06:18:05Z</time></trkpt><trkpt lat="39.83023188539432" lon="8.736543658300048"><ele>223.2</ele><time>2026-05-03T06:18:06Z</time></trkpt><trkpt lat="39.83014050368869" lon="8.736602520458572"><ele>224.0</ele><time>2026-05-03T06:18:07Z</time></trkpt><trkpt lat="39.83003676936752" lon="8.736672053118165"><ele>224.0</ele><time>2026-05-03T06:18:08Z</time></trkpt><trkpt lat="39.82994050170319" lon="8.73674863603382"><ele>223.99999999999997</ele><time>2026-05-03T06:18:09Z</time></trkpt><trkpt lat="39.82985985915582" lon="8.736784969982626"><ele>223.99999999999997</ele><time>2026-05-03T06:18:10Z</time></trkpt><trkpt lat="39.82979048119623" lon="8.736834087006402"><ele>224.0</ele><time>2026-05-03T06:18:11Z</time></trkpt><trkpt lat="39.82972319277503" lon="8.736907607208805"><ele>224.0</ele><time>2026-05-03T06:18:12Z</time></trkpt><trkpt lat="39.82962916246086" lon="8.736981005007914"><ele>225.6</ele><time>2026-05-03T06:18:13Z</time></trkpt><trkpt lat="39.829529351846304" lon="8.73704954215621"><ele>227.2</ele><time>2026-05-03T06:18:14Z</time></trkpt><trkpt lat="39.829448370116715" lon="8.737098777865608"><ele>228.79999999999998</ele><time>2026-05-03T06:18:15Z</time></trkpt><trkpt lat="39.82936859104189" lon="8.73714778563407"><ele>230.39999999999998</ele><time>2026-05-03T06:18:16Z</time></trkpt><trkpt lat="39.829290915468114" lon="8.737190073081074"><ele>232.0</ele><time>2026-05-03T06:18:17Z</time></trkpt><trkpt lat="39.82921175508856" lon="8.73722677950584"><ele>232.0</ele><time>2026-05-03T06:18:18Z</time></trkpt><trkpt lat="39.829129185944446" lon="8.73725034769521"><ele>232.0</ele><time>2026-05-03T06:18:19Z</time></trkpt><trkpt lat="39.82905408419334" lon="8.737260606294642"><ele>232.0</ele><time>2026-05-03T06:18:20Z</time></trkpt><trkpt lat="39.82897585181003" lon="8.737249523308758"><ele>232.0</ele><time>2026-05-03T06:18:22Z</time></trkpt><trkpt lat="39.828867380191795" lon="8.737213302249575"><ele>232.0</ele><time>2026-05-03T06:18:24Z</time></trkpt><trkpt lat="39.82876087177157" lon="8.737166554006508"><ele>232.0</ele><time>2026-05-03T06:18:25Z</time></trkpt><trkpt lat="39.82863796375449" lon="8.737130037115062"><ele>232.0</ele><time>2026-05-03T06:18:26Z</time></trkpt><trkpt lat="39.828524343973776" lon="8.737061665524609"><ele>232.0</ele><time>2026-05-03T06:18:27Z</time></trkpt><trkpt lat="39.82842470589596" lon="8.7370055951957"><ele>232.0</ele><time>2026-05-03T06:18:28Z</time></trkpt><trkpt lat="39.82831941972677" lon="8.736950335857252"><ele>232.8</ele><time>2026-05-03T06:18:29Z</time></trkpt><trkpt lat="39.82820164042205" lon="8.736887094028333"><ele>233.6</ele><time>2026-05-03T06:18:30Z</time></trkpt><trkpt lat="39.82809272957214" lon="8.736828040757567"><ele>234.40000000000003</ele><time>2026-05-03T06:18:31Z</time></trkpt><trkpt lat="39.828019016239324" lon="8.736800435624088"><ele>235.20000000000002</ele><time>2026-05-03T06:18:32Z</time></trkpt><trkpt lat="39.82793123195814" lon="8.736789516147917"><ele>236.0</ele><time>2026-05-03T06:18:33Z</time></trkpt><trkpt lat="39.8278467830933" lon="8.736806951321894"><ele>236.0</ele><time>2026-05-03T06:18:34Z</time></trkpt><trkpt lat="39.82775357182702" lon="8.7368518060127"><ele>236.00000000000003</ele><time>2026-05-03T06:18:35Z</time></trkpt><trkpt lat="39.82767849206579" lon="8.736915727623044"><ele>236.00000000000003</ele><time>2026-05-03T06:18:36Z</time></trkpt><trkpt lat="39.82759237076157" lon="8.737004378675088"><ele>236.0</ele><time>2026-05-03T06:18:37Z</time></trkpt><trkpt lat="39.827489469583405" lon="8.737083165178664"><ele>236.0</ele><time>2026-05-03T06:18:38Z</time></trkpt><trkpt lat="39.82738760424031" lon="8.737154773401391"><ele>238.20000000000002</ele><time>2026-05-03T06:18:39Z</time></trkpt><trkpt lat="39.82729891154562" lon="8.737221719388168"><ele>240.40000000000003</ele><time>2026-05-03T06:18:40Z</time></trkpt><trkpt lat="39.82722264703879" lon="8.737294566131581"><ele>242.6</ele><time>2026-05-03T06:18:41Z</time></trkpt><trkpt lat="39.82714355574823" lon="8.73735647894943"><ele>244.8</ele><time>2026-05-03T06:18:42Z</time></trkpt><trkpt lat="39.82706282785453" lon="8.737428688812907"><ele>247.0</ele><time>2026-05-03T06:18:43Z</time></trkpt><trkpt lat="39.82698306775982" lon="8.73749453008838"><ele>247.0</ele><time>2026-05-03T06:18:44Z</time></trkpt><trkpt lat="39.82690239489266" lon="8.737559227673259"><ele>247.0</ele><time>2026-05-03T06:18:45Z</time></trkpt><trkpt lat="39.82683041795482" lon="8.737617417305687"><ele>247.0</ele><time>2026-05-03T06:18:46Z</time></trkpt><trkpt lat="39.82676061941045" lon="8.737675198887157"><ele>247.0</ele><time>2026-05-03T06:18:47Z</time></trkpt><trkpt lat="39.82667646521953" lon="8.737744864558067"><ele>247.0</ele><time>2026-05-03T06:18:48Z</time></trkpt><trkpt lat="39.826583546640556" lon="8.73782107660082"><ele>247.99999999999997</ele><time>2026-05-03T06:18:49Z</time></trkpt><trkpt lat="39.82650432334908" lon="8.73788565243045"><ele>249.0</ele><time>2026-05-03T06:18:50Z</time></trkpt><trkpt lat="39.82644175951963" lon="8.737959468319412"><ele>250.0</ele><time>2026-05-03T06:18:51Z</time></trkpt><trkpt lat="39.82635135198811" lon="8.738007818037008"><ele>251.0</ele><time>2026-05-03T06:18:52Z</time></trkpt><trkpt lat="39.826270279669274" lon="8.738069911802532"><ele>251.99999999999997</ele><time>2026-05-03T06:18:53Z</time></trkpt><trkpt lat="39.82620103971545" lon="8.738116543975952"><ele>253.0</ele><time>2026-05-03T06:18:54Z</time></trkpt><trkpt lat="39.826141396973036" lon="8.73815601786096"><ele>252.99999999999997</ele><time>2026-05-03T06:18:55Z</time></trkpt><trkpt lat="39.826072006159166" lon="8.738185607277462"><ele>253.0</ele><time>2026-05-03T06:18:56Z</time></trkpt><trkpt lat="39.82599473495167" lon="8.738204212311452"><ele>253.0</ele><time>2026-05-03T06:18:57Z</time></trkpt><trkpt lat="39.82591136505336" lon="8.738208606492329"><ele>253.0</ele><time>2026-05-03T06:18:58Z</time></trkpt><trkpt lat="39.82581528310756" lon="8.738222743779547"><ele>252.99999999999997</ele><time>2026-05-03T06:18:59Z</time></trkpt><trkpt lat="39.82572125611061" lon="8.73818846332352"><ele>253.0</ele><time>2026-05-03T06:19:00Z</time></trkpt><trkpt lat="39.82561892906241" lon="8.738189658459149"><ele>251.8</ele><time>2026-05-03T06:19:01Z</time></trkpt><trkpt lat="39.82553345680801" lon="8.738216274916443"><ele>250.60000000000002</ele><time>2026-05-03T06:19:02Z</time></trkpt><trkpt lat="39.825450546809314" lon="8.738265654254057"><ele>249.39999999999998</ele><time>2026-05-03T06:19:04Z</time></trkpt><trkpt lat="39.825358758780496" lon="8.738365466549704"><ele>248.2</ele><time>2026-05-03T06:19:05.999Z</time></trkpt><trkpt lat="39.82529701116062" lon="8.738425278828524"><ele>247.0</ele><time>2026-05-03T06:19:06.999Z</time></trkpt><trkpt lat="39.82523443211113" lon="8.738485896469555"><ele>251.5</ele><time>2026-05-03T06:19:07.999Z</time></trkpt><trkpt lat="39.82530747965023" lon="8.738746220425657"><ele>256.0</ele><time>2026-05-03T06:19:08.999Z</time></trkpt><trkpt lat="39.825294488273194" lon="8.738826507596194"><ele>260.5</ele><time>2026-05-03T06:19:09.999Z</time></trkpt><trkpt lat="39.82529412723758" lon="8.738952436681439"><ele>265.0</ele><time>2026-05-03T06:19:11.999Z</time></trkpt><trkpt lat="39.82523632864408" lon="8.739029320880665"><ele>263.2</ele><time>2026-05-03T06:19:13.999Z</time></trkpt><trkpt lat="39.82513422306122" lon="8.739101389505981"><ele>261.4</ele><time>2026-05-03T06:19:16.999Z</time></trkpt><trkpt lat="39.82506987205744" lon="8.739118404481955"><ele>259.6</ele><time>2026-05-03T06:19:17.999Z</time></trkpt><trkpt lat="39.82499583851531" lon="8.739168232156699"><ele>257.8</ele><time>2026-05-03T06:19:18.999Z</time></trkpt><trkpt lat="39.82493199649894" lon="8.73924200490521"><ele>256.0</ele><time>2026-05-03T06:19:19.999Z</time></trkpt><trkpt lat="39.824849579969396" lon="8.739317279985581"><ele>256.0</ele><time>2026-05-03T06:19:20.999Z</time></trkpt><trkpt lat="39.82474726079536" lon="8.739346921081646"><ele>256.0</ele><time>2026-05-03T06:19:21.999Z</time></trkpt><trkpt lat="39.824615267097705" lon="8.739366821456336"><ele>256.0</ele><time>2026-05-03T06:19:22.999Z</time></trkpt><trkpt lat="39.824479226634494" lon="8.739403803007935"><ele>256.0</ele><time>2026-05-03T06:19:23.999Z</time></trkpt><trkpt lat="39.82433780702346" lon="8.73946545976222"><ele>261.25</ele><time>2026-05-03T06:19:24.999Z</time></trkpt><trkpt lat="39.82417396987612" lon="8.73951865502797"><ele>266.5</ele><time>2026-05-03T06:19:25.999Z</time></trkpt><trkpt lat="39.82404344335086" lon="8.739549849182254"><ele>271.75</ele><time>2026-05-03T06:19:26.999Z</time></trkpt><trkpt lat="39.82393770588867" lon="8.739572362213297"><ele>277.0</ele><time>2026-05-03T06:19:27.999Z</time></trkpt><trkpt lat="39.82383474678177" lon="8.739610189990923"><ele>277.0</ele><time>2026-05-03T06:19:28.999Z</time></trkpt><trkpt lat="39.823723384087714" lon="8.73967587153838"><ele>277.0</ele><time>2026-05-03T06:19:29.999Z</time></trkpt><trkpt lat="39.82361289180161" lon="8.739764202241307"><ele>277.0</ele><time>2026-05-03T06:19:30.999Z</time></trkpt><trkpt lat="39.82351778263554" lon="8.739845228528747"><ele>277.0</ele><time>2026-05-03T06:19:31.999Z</time></trkpt><trkpt lat="39.82342561042624" lon="8.73992199022927"><ele>276.8</ele><time>2026-05-03T06:19:32.999Z</time></trkpt><trkpt lat="39.82335549301563" lon="8.74000792927466"><ele>276.6</ele><time>2026-05-03T06:19:33.999Z</time></trkpt><trkpt lat="39.8232878423262" lon="8.74012534843995"><ele>276.40000000000003</ele><time>2026-05-03T06:19:34.999Z</time></trkpt><trkpt lat="39.82321542341535" lon="8.740246284251956"><ele>276.2</ele><time>2026-05-03T06:19:35.999Z</time></trkpt><trkpt lat="39.82314156435829" lon="8.740343278278159"><ele>276.0</ele><time>2026-05-03T06:19:36.999Z</time></trkpt><trkpt lat="39.82303612331581" lon="8.740435676434737"><ele>281.25</ele><time>2026-05-03T06:19:37.999Z</time></trkpt><trkpt lat="39.8229236469842" lon="8.74051840719684"><ele>286.5</ele><time>2026-05-03T06:19:38.999Z</time></trkpt><trkpt lat="39.82282289829247" lon="8.740586809136778"><ele>291.75</ele><time>2026-05-03T06:19:39.999Z</time></trkpt><trkpt lat="39.8227476431328" lon="8.740675177725121"><ele>297.0</ele><time>2026-05-03T06:19:40.999Z</time></trkpt><trkpt lat="39.82269301074254" lon="8.740798753109372"><ele>295.25</ele><time>2026-05-03T06:19:41.999Z</time></trkpt><trkpt lat="39.822630257148276" lon="8.740916727544176"><ele>293.5</ele><time>2026-05-03T06:19:42.999Z</time></trkpt><trkpt lat="39.822553318989215" lon="8.74100875621087"><ele>291.75</ele><time>2026-05-03T06:19:43.999Z</time></trkpt><trkpt lat="39.822446275574876" lon="8.741078432216776"><ele>290.0</ele><time>2026-05-03T06:19:44.999Z</time></trkpt><trkpt lat="39.8223257094635" lon="8.741125364978956"><ele>297.0</ele><time>2026-05-03T06:19:45.999Z</time></trkpt><trkpt lat="39.82218314692837" lon="8.741163055425426"><ele>304.0</ele><time>2026-05-03T06:19:46.999Z</time></trkpt><trkpt lat="39.82202688726163" lon="8.741214044873276"><ele>311.0</ele><time>2026-05-03T06:19:47.999Z</time></trkpt><trkpt lat="39.82187334925573" lon="8.741252225742517"><ele>308.75</ele><time>2026-05-03T06:19:48.999Z</time></trkpt><trkpt lat="39.821731099572034" lon="8.741293516718562"><ele>306.5</ele><time>2026-05-03T06:19:49.999Z</time></trkpt><trkpt lat="39.82158344014789" lon="8.741323530264399"><ele>304.25</ele><time>2026-05-03T06:19:50.999Z</time></trkpt><trkpt lat="39.82144044772008" lon="8.74133678524453"><ele>302.0</ele><time>2026-05-03T06:19:51.999Z</time></trkpt><trkpt lat="39.82129451858582" lon="8.741343606222825"><ele>302.0</ele><time>2026-05-03T06:19:52.999Z</time></trkpt><trkpt lat="39.82115819584555" lon="8.741345230319471"><ele>302.0</ele><time>2026-05-03T06:19:53.999Z</time></trkpt><trkpt lat="39.821037642094986" lon="8.74134148045537"><ele>302.0</ele><time>2026-05-03T06:19:54.999Z</time></trkpt><trkpt lat="39.82091162740341" lon="8.741315230594118"><ele>302.0</ele><time>2026-05-03T06:19:55.999Z</time></trkpt><trkpt lat="39.82081950732488" lon="8.741262440300696"><ele>303.2</ele><time>2026-05-03T06:19:56.999Z</time></trkpt><trkpt lat="39.820739358298155" lon="8.741194590784247"><ele>304.4</ele><time>2026-05-03T06:19:57.999Z</time></trkpt><trkpt lat="39.82065860594563" lon="8.741132431929108"><ele>305.6</ele><time>2026-05-03T06:19:58.999Z</time></trkpt><trkpt lat="39.82057594991392" lon="8.74113250617072"><ele>306.8</ele><time>2026-05-03T06:19:59.999Z</time></trkpt><trkpt lat="39.82049049381053" lon="8.74119462590436"><ele>308.0</ele><time>2026-05-03T06:20:00.999Z</time></trkpt><trkpt lat="39.820403790024095" lon="8.741296183588359"><ele>308.0</ele><time>2026-05-03T06:20:01.999Z</time></trkpt><trkpt lat="39.820325897210104" lon="8.741372638677237"><ele>308.0</ele><time>2026-05-03T06:20:02.999Z</time></trkpt><trkpt lat="39.82019339133696" lon="8.741385818124417"><ele>308.0</ele><time>2026-05-03T06:20:04Z</time></trkpt><trkpt lat="39.82008379150084" lon="8.741384900509061"><ele>308.0</ele><time>2026-05-03T06:20:05Z</time></trkpt><trkpt lat="39.819934473070276" lon="8.74140735153881"><ele>309.25</ele><time>2026-05-03T06:20:06Z</time></trkpt><trkpt lat="39.81980299175378" lon="8.741497327053018"><ele>310.5</ele><time>2026-05-03T06:20:07Z</time></trkpt><trkpt lat="39.819702452992416" lon="8.741538591166806"><ele>311.75</ele><time>2026-05-03T06:20:08Z</time></trkpt><trkpt lat="39.81960497395079" lon="8.74158202853818"><ele>313.0</ele><time>2026-05-03T06:20:09Z</time></trkpt><trkpt lat="39.819490783947224" lon="8.741692212821317"><ele>313.0</ele><time>2026-05-03T06:20:10Z</time></trkpt><trkpt lat="39.81936441295936" lon="8.74178813452395"><ele>313.0</ele><time>2026-05-03T06:20:11Z</time></trkpt><trkpt lat="39.819261632942315" lon="8.74187164495771"><ele>313.0</ele><time>2026-05-03T06:20:12Z</time></trkpt><trkpt lat="39.81917405457266" lon="8.741938794193839"><ele>313.0</ele><time>2026-05-03T06:20:13Z</time></trkpt><trkpt lat="39.81901623276569" lon="8.741917272427779"><ele>316.5</ele><time>2026-05-03T06:20:15Z</time></trkpt><trkpt lat="39.818891558527696" lon="8.741853261398637"><ele>320.0</ele><time>2026-05-03T06:20:16Z</time></trkpt><trkpt lat="39.81874196435409" lon="8.741794576475673"><ele>323.5</ele><time>2026-05-03T06:20:17Z</time></trkpt><trkpt lat="39.81860571894238" lon="8.741740780803523"><ele>327.0</ele><time>2026-05-03T06:20:18Z</time></trkpt><trkpt lat="39.81848984540852" lon="8.741667717186553"><ele>330.25</ele><time>2026-05-03T06:20:19Z</time></trkpt><trkpt lat="39.8183748922486" lon="8.741537322722678"><ele>333.5</ele><time>2026-05-03T06:20:20Z</time></trkpt><trkpt lat="39.81826244952489" lon="8.741411910772596"><ele>336.75</ele><time>2026-05-03T06:20:21Z</time></trkpt><trkpt lat="39.81815457229615" lon="8.741304029675156"><ele>340.0</ele><time>2026-05-03T06:20:22Z</time></trkpt><trkpt lat="39.81806881172263" lon="8.74120640874662"><ele>340.0</ele><time>2026-05-03T06:20:23Z</time></trkpt><trkpt lat="39.81796691452472" lon="8.741114005464773"><ele>340.0</ele><time>2026-05-03T06:20:24Z</time></trkpt><trkpt lat="39.81787234740509" lon="8.74101305160989"><ele>340.0</ele><time>2026-05-03T06:20:25Z</time></trkpt><trkpt lat="39.81777812303295" lon="8.740939517535312"><ele>340.0</ele><time>2026-05-03T06:20:26Z</time></trkpt><trkpt lat="39.817680559497106" lon="8.740930583999864"><ele>344.5</ele><time>2026-05-03T06:20:27Z</time></trkpt><trkpt lat="39.81754981224679" lon="8.74095971876682"><ele>349.0</ele><time>2026-05-03T06:20:28Z</time></trkpt><trkpt lat="39.817443332203325" lon="8.741012358005763"><ele>353.5</ele><time>2026-05-03T06:20:29Z</time></trkpt><trkpt lat="39.81733925345014" lon="8.74106942855695"><ele>358.0</ele><time>2026-05-03T06:20:30Z</time></trkpt><trkpt lat="39.81720422375197" lon="8.741176774834981"><ele>358.0</ele><time>2026-05-03T06:20:31Z</time></trkpt><trkpt lat="39.81705709771842" lon="8.74123325246404"><ele>358.0</ele><time>2026-05-03T06:20:32Z</time></trkpt><trkpt lat="39.816890485062" lon="8.741229532847745"><ele>358.0</ele><time>2026-05-03T06:20:33Z</time></trkpt><trkpt lat="39.81675040731578" lon="8.741235467439946"><ele>361.5</ele><time>2026-05-03T06:20:34Z</time></trkpt><trkpt lat="39.81658092448761" lon="8.741218368742741"><ele>365.0</ele><time>2026-05-03T06:20:35Z</time></trkpt><trkpt lat="39.81646537838682" lon="8.741221297511824"><ele>368.5</ele><time>2026-05-03T06:20:36Z</time></trkpt><trkpt lat="39.81636247522248" lon="8.7412499552684"><ele>372.0</ele><time>2026-05-03T06:20:37Z</time></trkpt><trkpt lat="39.81620484349955" lon="8.741332514122723"><ele>372.0</ele><time>2026-05-03T06:20:39Z</time></trkpt><trkpt lat="39.81610146454383" lon="8.741345125971671"><ele>372.0</ele><time>2026-05-03T06:20:40Z</time></trkpt><trkpt lat="39.815969933875316" lon="8.74136048285392"><ele>372.0</ele><time>2026-05-03T06:20:41Z</time></trkpt><trkpt lat="39.81580605699861" lon="8.741409946257189"><ele>372.0</ele><time>2026-05-03T06:20:42Z</time></trkpt><trkpt lat="39.815638118530785" lon="8.741426518923886"><ele>376.33333333333337</ele><time>2026-05-03T06:20:43Z</time></trkpt><trkpt lat="39.81546425970271" lon="8.741418861064414"><ele>380.6666666666667</ele><time>2026-05-03T06:20:44Z</time></trkpt><trkpt lat="39.81531181283488" lon="8.74136940376937"><ele>385.0</ele><time>2026-05-03T06:20:45Z</time></trkpt><trkpt lat="39.81517679205418" lon="8.74126426233151"><ele>387.5</ele><time>2026-05-03T06:20:46Z</time></trkpt><trkpt lat="39.81506857920072" lon="8.741223330886346"><ele>390.0</ele><time>2026-05-03T06:20:47Z</time></trkpt><trkpt lat="39.81496513867426" lon="8.741254274481374"><ele>392.5</ele><time>2026-05-03T06:20:48Z</time></trkpt><trkpt lat="39.81483583858307" lon="8.741306901929724"><ele>395.0</ele><time>2026-05-03T06:20:49Z</time></trkpt><trkpt lat="39.81471160501914" lon="8.741358174397336"><ele>394.99999999999994</ele><time>2026-05-03T06:20:50Z</time></trkpt><trkpt lat="39.81461305069743" lon="8.741411736272692"><ele>395.0</ele><time>2026-05-03T06:20:51Z</time></trkpt><trkpt lat="39.81452298954664" lon="8.741471716773844"><ele>395.0</ele><time>2026-05-03T06:20:52Z</time></trkpt><trkpt lat="39.81445531009044" lon="8.74151841293117"><ele>395.0</ele><time>2026-05-03T06:20:53Z</time></trkpt><trkpt lat="39.81439710892918" lon="8.741577858259795"><ele>394.99999999999994</ele><time>2026-05-03T06:20:54Z</time></trkpt><trkpt lat="39.8143749798472" lon="8.741669148472"><ele>395.0</ele><time>2026-05-03T06:20:55Z</time></trkpt><trkpt lat="39.81436993646411" lon="8.741753423745507"><ele>398.5</ele><time>2026-05-03T06:20:56Z</time></trkpt><trkpt lat="39.814347604162464" lon="8.741943420058469"><ele>402.0</ele><time>2026-05-03T06:20:58Z</time></trkpt><trkpt lat="39.81434198237292" lon="8.742092186289387"><ele>405.5</ele><time>2026-05-03T06:20:59Z</time></trkpt><trkpt lat="39.814306515222235" lon="8.742232341931079"><ele>409.0</ele><time>2026-05-03T06:21:00Z</time></trkpt><trkpt lat="39.814210615964065" lon="8.742370755334901"><ele>410.25</ele><time>2026-05-03T06:21:01Z</time></trkpt><trkpt lat="39.814123647389295" lon="8.74248522646712"><ele>411.5</ele><time>2026-05-03T06:21:02Z</time></trkpt><trkpt lat="39.81402964685527" lon="8.742608308703256"><ele>412.75</ele><time>2026-05-03T06:21:03Z</time></trkpt><trkpt lat="39.813935988596526" lon="8.742706543445813"><ele>414.0</ele><time>2026-05-03T06:21:04Z</time></trkpt><trkpt lat="39.81382746447757" lon="8.742786694625966"><ele>416.2</ele><time>2026-05-03T06:21:05Z</time></trkpt><trkpt lat="39.81372666415791" lon="8.742899545990198"><ele>418.4</ele><time>2026-05-03T06:21:06Z</time></trkpt><trkpt lat="39.813648429693245" lon="8.742995261039228"><ele>420.6</ele><time>2026-05-03T06:21:07Z</time></trkpt><trkpt lat="39.813587512083146" lon="8.743100199202928"><ele>422.8</ele><time>2026-05-03T06:21:08Z</time></trkpt><trkpt lat="39.81353600993245" lon="8.743196713558211"><ele>425.0</ele><time>2026-05-03T06:21:08.999Z</time></trkpt><trkpt lat="39.81354273198985" lon="8.743322367742252"><ele>425.0</ele><time>2026-05-03T06:21:10.999Z</time></trkpt><trkpt lat="39.813570189556174" lon="8.743479258532115"><ele>425.0</ele><time>2026-05-03T06:21:12.999Z</time></trkpt><trkpt lat="39.81360841367628" lon="8.743896335200505"><ele>425.0</ele><time>2026-05-03T06:21:14.999Z</time></trkpt><trkpt lat="39.813577354244174" lon="8.744055701432671"><ele>430.0</ele><time>2026-05-03T06:21:15.999Z</time></trkpt><trkpt lat="39.81354822569204" lon="8.74423845386861"><ele>435.0</ele><time>2026-05-03T06:21:16.999Z</time></trkpt><trkpt lat="39.81352560700484" lon="8.74444497983055"><ele>440.0</ele><time>2026-05-03T06:21:17.999Z</time></trkpt><trkpt lat="39.813550375864565" lon="8.7446189245283"><ele>445.0</ele><time>2026-05-03T06:21:18.999Z</time></trkpt><trkpt lat="39.81352905696507" lon="8.744734075006876"><ele>445.75</ele><time>2026-05-03T06:21:19.999Z</time></trkpt><trkpt lat="39.81347270758399" lon="8.744867672306777"><ele>446.5</ele><time>2026-05-03T06:21:20.999Z</time></trkpt><trkpt lat="39.81337736493058" lon="8.745008161153143"><ele>447.25</ele><time>2026-05-03T06:21:21.999Z</time></trkpt><trkpt lat="39.813303148717104" lon="8.745172740330203"><ele>448.0</ele><time>2026-05-03T06:21:22.999Z</time></trkpt><trkpt lat="39.813255471978955" lon="8.745355404746471"><ele>451.0</ele><time>2026-05-03T06:21:23.999Z</time></trkpt><trkpt lat="39.81322777731796" lon="8.745532297344937"><ele>453.99999999999994</ele><time>2026-05-03T06:21:24.999Z</time></trkpt><trkpt lat="39.81318183767449" lon="8.745650917244628"><ele>456.99999999999994</ele><time>2026-05-03T06:21:25.999Z</time></trkpt><trkpt lat="39.81311951323591" lon="8.745746766451884"><ele>460.0</ele><time>2026-05-03T06:21:26.999Z</time></trkpt><trkpt lat="39.81303939178413" lon="8.74580837574762"><ele>463.0</ele><time>2026-05-03T06:21:27.999Z</time></trkpt><trkpt lat="39.81298447256323" lon="8.745856013441133"><ele>463.0</ele><time>2026-05-03T06:21:28.999Z</time></trkpt><trkpt lat="39.812993447975266" lon="8.745988342469426"><ele>462.99999999999994</ele><time>2026-05-03T06:21:30.999Z</time></trkpt><trkpt lat="39.813055082757614" lon="8.74607881368543"><ele>462.99999999999994</ele><time>2026-05-03T06:21:31.999Z</time></trkpt><trkpt lat="39.81315107619546" lon="8.746151461935586"><ele>463.0</ele><time>2026-05-03T06:21:32.999Z</time></trkpt><trkpt lat="39.813266830191736" lon="8.74620398742065"><ele>463.0</ele><time>2026-05-03T06:21:33.999Z</time></trkpt><trkpt lat="39.813343767259354" lon="8.74622810123767"><ele>463.59999999999997</ele><time>2026-05-03T06:21:34.999Z</time></trkpt><trkpt lat="39.8134268033331" lon="8.746332296101299"><ele>464.19999999999993</ele><time>2026-05-03T06:21:36.999Z</time></trkpt><trkpt lat="39.81346077806282" lon="8.746439761003792"><ele>464.8</ele><time>2026-05-03T06:21:37.999Z</time></trkpt><trkpt lat="39.81347970619173" lon="8.746588393095237"><ele>465.4</ele><time>2026-05-03T06:21:38.999Z</time></trkpt><trkpt lat="39.81351162395148" lon="8.746735449031327"><ele>466.0</ele><time>2026-05-03T06:21:39.999Z</time></trkpt><trkpt lat="39.81354366148619" lon="8.746837490962495"><ele>468.4</ele><time>2026-05-03T06:21:40.999Z</time></trkpt><trkpt lat="39.81357613630139" lon="8.746951181943354"><ele>470.8</ele><time>2026-05-03T06:21:41.999Z</time></trkpt><trkpt lat="39.81367387702811" lon="8.747028564390218"><ele>473.19999999999993</ele><time>2026-05-03T06:21:42.999Z</time></trkpt><trkpt lat="39.8137285777105" lon="8.747110823462904"><ele>475.59999999999997</ele><time>2026-05-03T06:21:43.999Z</time></trkpt><trkpt lat="39.81376407547491" lon="8.747244435387328"><ele>478.0</ele><time>2026-05-03T06:21:44.999Z</time></trkpt><trkpt lat="39.813826264020705" lon="8.747390874878105"><ele>478.0</ele><time>2026-05-03T06:21:45.999Z</time></trkpt><trkpt lat="39.81388819619756" lon="8.747551482298272"><ele>477.99999999999994</ele><time>2026-05-03T06:21:46.999Z</time></trkpt><trkpt lat="39.813906312167695" lon="8.747681950053122"><ele>477.99999999999994</ele><time>2026-05-03T06:21:47.999Z</time></trkpt><trkpt lat="39.813913626038556" lon="8.74777797664078"><ele>478.0</ele><time>2026-05-03T06:21:48.999Z</time></trkpt><trkpt lat="39.813914420440156" lon="8.747917475878683"><ele>478.0</ele><time>2026-05-03T06:21:49.999Z</time></trkpt><trkpt lat="39.813855821514686" lon="8.748047085112182"><ele>479.5</ele><time>2026-05-03T06:21:50.999Z</time></trkpt><trkpt lat="39.81382517513663" lon="8.748211322496637"><ele>481.0</ele><time>2026-05-03T06:21:51.999Z</time></trkpt><trkpt lat="39.8138332240537" lon="8.748342242551475"><ele>482.5</ele><time>2026-05-03T06:21:52.999Z</time></trkpt><trkpt lat="39.813852214425125" lon="8.748489174604869"><ele>484.0</ele><time>2026-05-03T06:21:53.999Z</time></trkpt><trkpt lat="39.8138640978038" lon="8.74864281087354"><ele>485.83333333333337</ele><time>2026-05-03T06:21:54.999Z</time></trkpt><trkpt lat="39.81386708644714" lon="8.748788773373853"><ele>487.6666666666667</ele><time>2026-05-03T06:21:55.999Z</time></trkpt><trkpt lat="39.81384120754787" lon="8.748894979629778"><ele>489.5</ele><time>2026-05-03T06:21:56.999Z</time></trkpt><trkpt lat="39.81380307313722" lon="8.74900108722639"><ele>491.33333333333337</ele><time>2026-05-03T06:21:57.999Z</time></trkpt><trkpt lat="39.81378193171605" lon="8.749085923455963"><ele>493.1666666666667</ele><time>2026-05-03T06:21:58.999Z</time></trkpt><trkpt lat="39.813783540952684" lon="8.749184643023858"><ele>495.0</ele><time>2026-05-03T06:21:59.999Z</time></trkpt><trkpt lat="39.81380176204781" lon="8.749352606584337"><ele>496.4</ele><time>2026-05-03T06:22:01.999Z</time></trkpt><trkpt lat="39.813826325130066" lon="8.749479505904993"><ele>497.8</ele><time>2026-05-03T06:22:02.999Z</time></trkpt><trkpt lat="39.81379057595866" lon="8.749613168170116"><ele>499.20000000000005</ele><time>2026-05-03T06:22:03.999Z</time></trkpt><trkpt lat="39.813751817304585" lon="8.749759318259704"><ele>500.6</ele><time>2026-05-03T06:22:04.999Z</time></trkpt><trkpt lat="39.813701991534174" lon="8.749881242490973"><ele>502.0</ele><time>2026-05-03T06:22:05.999Z</time></trkpt><trkpt lat="39.81363012923028" lon="8.749964920548285"><ele>502.0</ele><time>2026-05-03T06:22:06.999Z</time></trkpt><trkpt lat="39.81354812004935" lon="8.750017583731292"><ele>502.00000000000006</ele><time>2026-05-03T06:22:07.999Z</time></trkpt><trkpt lat="39.81347661368945" lon="8.750090014583654"><ele>502.00000000000006</ele><time>2026-05-03T06:22:08.998Z</time></trkpt><trkpt lat="39.81341207012512" lon="8.750214663251125"><ele>502.0</ele><time>2026-05-03T06:22:10Z</time></trkpt><trkpt lat="39.813353383989075" lon="8.750319509338023"><ele>502.0</ele><time>2026-05-03T06:22:11Z</time></trkpt><trkpt lat="39.81329390523679" lon="8.75040969691809"><ele>507.0</ele><time>2026-05-03T06:22:12Z</time></trkpt><trkpt lat="39.813227513553905" lon="8.750469699214667"><ele>512.0</ele><time>2026-05-03T06:22:13Z</time></trkpt><trkpt lat="39.813163335033046" lon="8.750533549123016"><ele>517.0</ele><time>2026-05-03T06:22:15Z</time></trkpt><trkpt lat="39.81308346485709" lon="8.750651272000843"><ele>522.0</ele><time>2026-05-03T06:22:17Z</time></trkpt><trkpt lat="39.813008298415525" lon="8.750744998424667"><ele>527.0</ele><time>2026-05-03T06:22:18Z</time></trkpt><trkpt lat="39.81291368462723" lon="8.75084265341548"><ele>527.0</ele><time>2026-05-03T06:22:19Z</time></trkpt><trkpt lat="39.81282610731137" lon="8.750960860247812"><ele>527.0</ele><time>2026-05-03T06:22:20Z</time></trkpt><trkpt lat="39.812746249439535" lon="8.751077799504822"><ele>527.0</ele><time>2026-05-03T06:22:21Z</time></trkpt><trkpt lat="39.812684106505856" lon="8.751161498617192"><ele>527.0</ele><time>2026-05-03T06:22:22Z</time></trkpt><trkpt lat="39.81262463733613" lon="8.751211238009137"><ele>527.0</ele><time>2026-05-03T06:22:23Z</time></trkpt><trkpt lat="39.81256008649681" lon="8.75120216183966"><ele>528.6</ele><time>2026-05-03T06:22:24Z</time></trkpt><trkpt lat="39.812497464794966" lon="8.751158570050517"><ele>530.2</ele><time>2026-05-03T06:22:25Z</time></trkpt><trkpt lat="39.81240179082015" lon="8.751119979282503"><ele>531.8</ele><time>2026-05-03T06:22:26Z</time></trkpt><trkpt lat="39.81230835715019" lon="8.75107736562629"><ele>533.4</ele><time>2026-05-03T06:22:27Z</time></trkpt><trkpt lat="39.812165548568274" lon="8.751034581822342"><ele>535.0</ele><time>2026-05-03T06:22:28Z</time></trkpt><trkpt lat="39.81202835552093" lon="8.750996753576631"><ele>535.3333333333334</ele><time>2026-05-03T06:22:29Z</time></trkpt><trkpt lat="39.811940102583684" lon="8.750956263982932"><ele>535.6666666666667</ele><time>2026-05-03T06:22:30Z</time></trkpt><trkpt lat="39.81187771188625" lon="8.750916120964895"><ele>536.0</ele><time>2026-05-03T06:22:31Z</time></trkpt><trkpt lat="39.81181297423779" lon="8.75090851377501"><ele>536.3333333333334</ele><time>2026-05-03T06:22:32Z</time></trkpt><trkpt lat="39.81175296308355" lon="8.750943379080935"><ele>536.6666666666666</ele><time>2026-05-03T06:22:33Z</time></trkpt><trkpt lat="39.81168354876173" lon="8.75099882597146"><ele>537.0</ele><time>2026-05-03T06:22:34Z</time></trkpt><trkpt lat="39.81160306159804" lon="8.751070916604075"><ele>539.0</ele><time>2026-05-03T06:22:35Z</time></trkpt><trkpt lat="39.81152960410769" lon="8.751174163982427"><ele>541.0</ele><time>2026-05-03T06:22:36Z</time></trkpt><trkpt lat="39.811469324502255" lon="8.751272258329863"><ele>543.0</ele><time>2026-05-03T06:22:37Z</time></trkpt><trkpt lat="39.81142990413912" lon="8.75138535909739"><ele>545.0</ele><time>2026-05-03T06:22:38Z</time></trkpt><trkpt lat="39.811390325232125" lon="8.751502239189561"><ele>547.0</ele><time>2026-05-03T06:22:39Z</time></trkpt><trkpt lat="39.811392084200186" lon="8.751681461867415"><ele>547.0</ele><time>2026-05-03T06:22:40Z</time></trkpt><trkpt lat="39.81131394228154" lon="8.75179687926227"><ele>547.0</ele><time>2026-05-03T06:22:41Z</time></trkpt><trkpt lat="39.811195963788556" lon="8.751951512418657"><ele>547.0</ele><time>2026-05-03T06:22:42Z</time></trkpt><trkpt lat="39.811119313447335" lon="8.7521199300912"><ele>547.0</ele><time>2026-05-03T06:22:43Z</time></trkpt><trkpt lat="39.81102327891127" lon="8.75231852939852"><ele>553.25</ele><time>2026-05-03T06:22:44Z</time></trkpt><trkpt lat="39.81096148261179" lon="8.752503128388122"><ele>559.5</ele><time>2026-05-03T06:22:45Z</time></trkpt><trkpt lat="39.81094638516566" lon="8.752648493422896"><ele>565.75</ele><time>2026-05-03T06:22:46Z</time></trkpt><trkpt lat="39.81089873396942" lon="8.752799719391604"><ele>572.0</ele><time>2026-05-03T06:22:47Z</time></trkpt><trkpt lat="39.81093685829631" lon="8.752993531529567"><ele>570.0</ele><time>2026-05-03T06:22:48Z</time></trkpt><trkpt lat="39.810994647670086" lon="8.753194919891467"><ele>568.0</ele><time>2026-05-03T06:22:49Z</time></trkpt><trkpt lat="39.8110534672174" lon="8.753355020751325"><ele>566.0</ele><time>2026-05-03T06:22:50Z</time></trkpt><trkpt lat="39.81112962917515" lon="8.753509795719571"><ele>564.0</ele><time>2026-05-03T06:22:51Z</time></trkpt><trkpt lat="39.811280679166885" lon="8.75368897243915"><ele>569.25</ele><time>2026-05-03T06:22:52Z</time></trkpt><trkpt lat="39.81138094772792" lon="8.753802206213598"><ele>574.5</ele><time>2026-05-03T06:22:53Z</time></trkpt><trkpt lat="39.811440725312956" lon="8.75390166336138"><ele>579.75</ele><time>2026-05-03T06:22:54Z</time></trkpt><trkpt lat="39.8114985189079" lon="8.754077575976888"><ele>585.0</ele><time>2026-05-03T06:22:55Z</time></trkpt><trkpt lat="39.81153123653123" lon="8.754211622514193"><ele>585.0</ele><time>2026-05-03T06:22:56Z</time></trkpt><trkpt lat="39.811568024693855" lon="8.75433265916464"><ele>585.0</ele><time>2026-05-03T06:22:57Z</time></trkpt><trkpt lat="39.811656085981895" lon="8.754498563615666"><ele>585.0</ele><time>2026-05-03T06:22:58Z</time></trkpt><trkpt lat="39.81179794161454" lon="8.754657544094494"><ele>585.0</ele><time>2026-05-03T06:22:59Z</time></trkpt><trkpt lat="39.8119217827307" lon="8.754777461470526"><ele>588.0</ele><time>2026-05-03T06:23:00Z</time></trkpt><trkpt lat="39.81205026505642" lon="8.754916356339919"><ele>591.0</ele><time>2026-05-03T06:23:01Z</time></trkpt><trkpt lat="39.812168650553964" lon="8.755115665998359"><ele>594.0</ele><time>2026-05-03T06:23:02Z</time></trkpt><trkpt lat="39.81228527040073" lon="8.755325200174447"><ele>602.6666666666666</ele><time>2026-05-03T06:23:03Z</time></trkpt><trkpt lat="39.81246717528298" lon="8.755511098324721"><ele>611.3333333333333</ele><time>2026-05-03T06:23:04Z</time></trkpt><trkpt lat="39.81261282016519" lon="8.755600301130867"><ele>620.0</ele><time>2026-05-03T06:23:05Z</time></trkpt><trkpt lat="39.812753577292995" lon="8.755660007878552"><ele>620.0</ele><time>2026-05-03T06:23:06Z</time></trkpt><trkpt lat="39.812917539982536" lon="8.755700552665859"><ele>620.0</ele><time>2026-05-03T06:23:07Z</time></trkpt><trkpt lat="39.8131007009016" lon="8.755721722751401"><ele>620.0</ele><time>2026-05-03T06:23:08Z</time></trkpt><trkpt lat="39.81330172359602" lon="8.755738079010932"><ele>621.6666666666666</ele><time>2026-05-03T06:23:09Z</time></trkpt><trkpt lat="39.81351332768665" lon="8.75575389409249"><ele>623.3333333333334</ele><time>2026-05-03T06:23:10Z</time></trkpt><trkpt lat="39.813739124784014" lon="8.755763209682275"><ele>625.0</ele><time>2026-05-03T06:23:11Z</time></trkpt><trkpt lat="39.813928768986564" lon="8.755773355850007"><ele>625.0</ele><time>2026-05-03T06:23:11.999Z</time></trkpt><trkpt lat="39.814050317525165" lon="8.75579147618473"><ele>625.0</ele><time>2026-05-03T06:23:12.999Z</time></trkpt><trkpt lat="39.81417381579641" lon="8.755837975304084"><ele>625.0</ele><time>2026-05-03T06:23:13.999Z</time></trkpt><trkpt lat="39.81427285931968" lon="8.755912160687037"><ele>625.0</ele><time>2026-05-03T06:23:14.999Z</time></trkpt><trkpt lat="39.814311134579626" lon="8.755980437359607"><ele>625.0</ele><time>2026-05-03T06:23:15.999Z</time></trkpt><trkpt lat="39.81430423641827" lon="8.756153300307897"><ele>624.2</ele><time>2026-05-03T06:23:17.999Z</time></trkpt><trkpt lat="39.81428996382066" lon="8.756269352328285"><ele>623.4</ele><time>2026-05-03T06:23:18.999Z</time></trkpt><trkpt lat="39.81425646844248" lon="8.756373028182173"><ele>622.6</ele><time>2026-05-03T06:23:19.999Z</time></trkpt><trkpt lat="39.81424667811431" lon="8.756485244925157"><ele>621.8</ele><time>2026-05-03T06:23:20.999Z</time></trkpt><trkpt lat="39.81429636545031" lon="8.756636675360511"><ele>621.0</ele><time>2026-05-03T06:23:22.999Z</time></trkpt><trkpt lat="39.81433259192739" lon="8.756742147613355"><ele>623.0</ele><time>2026-05-03T06:23:23.999Z</time></trkpt><trkpt lat="39.814381850851504" lon="8.756870562686089"><ele>625.0</ele><time>2026-05-03T06:23:24.999Z</time></trkpt><trkpt lat="39.8144313480745" lon="8.756982997772775"><ele>627.0</ele><time>2026-05-03T06:23:25.999Z</time></trkpt><trkpt lat="39.81445406459815" lon="8.757099941223503"><ele>629.0</ele><time>2026-05-03T06:23:26.999Z</time></trkpt><trkpt lat="39.81443458384554" lon="8.757178985474546"><ele>631.0</ele><time>2026-05-03T06:23:27.999Z</time></trkpt><trkpt lat="39.814461159024354" lon="8.75729686669261"><ele>631.0</ele><time>2026-05-03T06:23:28.999Z</time></trkpt><trkpt lat="39.81443196307865" lon="8.757405317414149"><ele>631.0</ele><time>2026-05-03T06:23:29.999Z</time></trkpt><trkpt lat="39.81437429422891" lon="8.757529670998956"><ele>631.0</ele><time>2026-05-03T06:23:30.999Z</time></trkpt><trkpt lat="39.81431718577731" lon="8.757652836035515"><ele>631.0</ele><time>2026-05-03T06:23:31.999Z</time></trkpt><trkpt lat="39.814275773180846" lon="8.757770189535218"><ele>631.0</ele><time>2026-05-03T06:23:32.999Z</time></trkpt><trkpt lat="39.81426874751087" lon="8.757901428911522"><ele>634.8</ele><time>2026-05-03T06:23:33.999Z</time></trkpt><trkpt lat="39.81426536205465" lon="8.758043759028757"><ele>638.6</ele><time>2026-05-03T06:23:34.999Z</time></trkpt><trkpt lat="39.81425959056736" lon="8.758187870333574"><ele>642.4</ele><time>2026-05-03T06:23:35.999Z</time></trkpt><trkpt lat="39.81424414912386" lon="8.75827215942885"><ele>646.2</ele><time>2026-05-03T06:23:36.999Z</time></trkpt><trkpt lat="39.81420177807797" lon="8.758395962502602"><ele>650.0</ele><time>2026-05-03T06:23:38.999Z</time></trkpt><trkpt lat="39.81418685854772" lon="8.758259151141942"><ele>650.0</ele><time>2026-05-03T06:23:44.999Z</time></trkpt><trkpt lat="39.814203339863205" lon="8.758164992432569"><ele>650.0</ele><time>2026-05-03T06:23:45.999Z</time></trkpt><trkpt lat="39.81423075492102" lon="8.758068998600475"><ele>650.0</ele><time>2026-05-03T06:23:46.999Z</time></trkpt><trkpt lat="39.814262417333055" lon="8.757990699870971"><ele>650.0</ele><time>2026-05-03T06:23:47.999Z</time></trkpt><trkpt lat="39.814325284245086" lon="8.757917969619628"><ele>650.0</ele><time>2026-05-03T06:23:48.999Z</time></trkpt><trkpt lat="39.81439548340714" lon="8.757826193814774"><ele>650.0</ele><time>2026-05-03T06:23:49.999Z</time></trkpt><trkpt lat="39.814451450369475" lon="8.75774389850818"><ele>646.2</ele><time>2026-05-03T06:23:50.999Z</time></trkpt><trkpt lat="39.814499225282134" lon="8.757655641951354"><ele>642.4</ele><time>2026-05-03T06:23:51.999Z</time></trkpt><trkpt lat="39.81454882803825" lon="8.757603913279475"><ele>638.6</ele><time>2026-05-03T06:23:52.999Z</time></trkpt><trkpt lat="39.81465237133903" lon="8.757584922197855"><ele>634.8</ele><time>2026-05-03T06:23:54.999Z</time></trkpt><trkpt lat="39.814748863173875" lon="8.757497036737156"><ele>631.0</ele><time>2026-05-03T06:23:56.999Z</time></trkpt><trkpt lat="39.81482101212763" lon="8.75756744969336"><ele>631.0</ele><time>2026-05-03T06:23:58.999Z</time></trkpt><trkpt lat="39.814881381908755" lon="8.757603785897516"><ele>631.0</ele><time>2026-05-03T06:23:59.999Z</time></trkpt><trkpt lat="39.814904206131715" lon="8.757722200436838"><ele>631.0</ele><time>2026-05-03T06:24:00.999Z</time></trkpt><trkpt lat="39.814934636908085" lon="8.757874696220297"><ele>631.0</ele><time>2026-05-03T06:24:02.999Z</time></trkpt><trkpt lat="39.81495017352445" lon="8.75795687576846"><ele>631.0</ele><time>2026-05-03T06:24:03.999Z</time></trkpt><trkpt lat="39.814992166447965" lon="8.75804620405183"><ele>631.0</ele><time>2026-05-03T06:24:04.999Z</time></trkpt><trkpt lat="39.815050462879526" lon="8.758120441950046"><ele>630.0</ele><time>2026-05-03T06:24:05.999Z</time></trkpt><trkpt lat="39.81510882016448" lon="8.758180267119123"><ele>629.0</ele><time>2026-05-03T06:24:06.999Z</time></trkpt><trkpt lat="39.81516531677289" lon="8.75824503655919"><ele>628.0</ele><time>2026-05-03T06:24:07.999Z</time></trkpt><trkpt lat="39.815234397462206" lon="8.758306998988909"><ele>627.0</ele><time>2026-05-03T06:24:08.999Z</time></trkpt><trkpt lat="39.81534329768777" lon="8.758356834013574"><ele>626.0</ele><time>2026-05-03T06:24:09.999Z</time></trkpt><trkpt lat="39.81544498163207" lon="8.758428740128561"><ele>626.0</ele><time>2026-05-03T06:24:10.999Z</time></trkpt><trkpt lat="39.81553301029707" lon="8.758457982690246"><ele>626.0</ele><time>2026-05-03T06:24:11.998Z</time></trkpt><trkpt lat="39.815620594896515" lon="8.758460736585942"><ele>626.0</ele><time>2026-05-03T06:24:12.998Z</time></trkpt><trkpt lat="39.81569791481443" lon="8.758448829848403"><ele>626.0</ele><time>2026-05-03T06:24:13.998Z</time></trkpt><trkpt lat="39.81576745780274" lon="8.7584071024458"><ele>626.0</ele><time>2026-05-03T06:24:14.998Z</time></trkpt><trkpt lat="39.81583982779568" lon="8.758344746164239"><ele>626.0</ele><time>2026-05-03T06:24:16Z</time></trkpt><trkpt lat="39.81591384983523" lon="8.758281833063402"><ele>623.6666666666666</ele><time>2026-05-03T06:24:17Z</time></trkpt><trkpt lat="39.816004665401216" lon="8.758243872161442"><ele>621.3333333333333</ele><time>2026-05-03T06:24:18Z</time></trkpt><trkpt lat="39.81607936242122" lon="8.758216713177442"><ele>619.0</ele><time>2026-05-03T06:24:19Z</time></trkpt><trkpt lat="39.816188565377075" lon="8.758204630743538"><ele>616.6666666666666</ele><time>2026-05-03T06:24:21Z</time></trkpt><trkpt lat="39.816255511105865" lon="8.758231974405055"><ele>614.3333333333334</ele><time>2026-05-03T06:24:22Z</time></trkpt><trkpt lat="39.81632085431207" lon="8.758272389842759"><ele>612.0</ele><time>2026-05-03T06:24:23Z</time></trkpt><trkpt lat="39.816416106019396" lon="8.758351252477174"><ele>612.0</ele><time>2026-05-03T06:24:24Z</time></trkpt><trkpt lat="39.81651311772598" lon="8.758415652101379"><ele>612.0</ele><time>2026-05-03T06:24:25Z</time></trkpt><trkpt lat="39.816587314398" lon="8.75843484939318"><ele>612.0</ele><time>2026-05-03T06:24:26Z</time></trkpt><trkpt lat="39.81666629818212" lon="8.758400807946646"><ele>612.0</ele><time>2026-05-03T06:24:27Z</time></trkpt><trkpt lat="39.81673986685017" lon="8.758393686463949"><ele>612.0</ele><time>2026-05-03T06:24:28Z</time></trkpt><trkpt lat="39.81680526368025" lon="8.758425432112572"><ele>612.0</ele><time>2026-05-03T06:24:29Z</time></trkpt><trkpt lat="39.816920731181916" lon="8.758444519583378"><ele>608.8000000000001</ele><time>2026-05-03T06:24:31Z</time></trkpt><trkpt lat="39.817022130051264" lon="8.758402389090337"><ele>605.6</ele><time>2026-05-03T06:24:32Z</time></trkpt><trkpt lat="39.817102474817816" lon="8.758367340526652"><ele>602.4000000000001</ele><time>2026-05-03T06:24:33Z</time></trkpt><trkpt lat="39.81719793494337" lon="8.758343805712093"><ele>599.2</ele><time>2026-05-03T06:24:35Z</time></trkpt><trkpt lat="39.81723818361724" lon="8.75818222265862"><ele>596.0</ele><time>2026-05-03T06:24:37Z</time></trkpt><trkpt lat="39.817237528633235" lon="8.758056253654063"><ele>596.0</ele><time>2026-05-03T06:24:39Z</time></trkpt><trkpt lat="39.81717401413296" lon="8.757976869419304"><ele>596.0</ele><time>2026-05-03T06:24:42Z</time></trkpt><trkpt lat="39.81716715789488" lon="8.757839402272124"><ele>596.0</ele><time>2026-05-03T06:24:44Z</time></trkpt><trkpt lat="39.81722141022893" lon="8.757730475522001"><ele>596.0</ele><time>2026-05-03T06:24:45Z</time></trkpt><trkpt lat="39.81728034011506" lon="8.757628527576774"><ele>596.0</ele><time>2026-05-03T06:24:46Z</time></trkpt><trkpt lat="39.8173257286102" lon="8.757553997244349"><ele>594.5</ele><time>2026-05-03T06:24:47Z</time></trkpt><trkpt lat="39.81736931860624" lon="8.757488612466693"><ele>593.0</ele><time>2026-05-03T06:24:48Z</time></trkpt><trkpt lat="39.81741369302774" lon="8.757426095621373"><ele>591.5</ele><time>2026-05-03T06:24:49Z</time></trkpt><trkpt lat="39.81748759628231" lon="8.757356094884052"><ele>590.0</ele><time>2026-05-03T06:24:50Z</time></trkpt><trkpt lat="39.817561402995196" lon="8.757286327540264"><ele>588.5</ele><time>2026-05-03T06:24:51Z</time></trkpt><trkpt lat="39.81760071259094" lon="8.757124620370758"><ele>587.0</ele><time>2026-05-03T06:24:53Z</time></trkpt><trkpt lat="39.817627345158584" lon="8.756994744123165"><ele>583.4</ele><time>2026-05-03T06:24:54Z</time></trkpt><trkpt lat="39.81766773372753" lon="8.756861303318958"><ele>579.8000000000001</ele><time>2026-05-03T06:24:55Z</time></trkpt><trkpt lat="39.81771999574768" lon="8.756751047456698"><ele>576.2</ele><time>2026-05-03T06:24:56Z</time></trkpt><trkpt lat="39.817773017561265" lon="8.756663488411847"><ele>572.6</ele><time>2026-05-03T06:24:57Z</time></trkpt><trkpt lat="39.81783409576489" lon="8.756585314709266"><ele>569.0</ele><time>2026-05-03T06:24:58Z</time></trkpt><trkpt lat="39.81789641870564" lon="8.756534911601822"><ele>569.0000000000001</ele><time>2026-05-03T06:24:59Z</time></trkpt><trkpt lat="39.81796795791044" lon="8.75650168409584"><ele>569.0</ele><time>2026-05-03T06:25:00Z</time></trkpt><trkpt lat="39.81803338594579" lon="8.756481267660888"><ele>569.0</ele><time>2026-05-03T06:25:01Z</time></trkpt><trkpt lat="39.81809632792757" lon="8.756487619616925"><ele>569.0</ele><time>2026-05-03T06:25:02Z</time></trkpt><trkpt lat="39.81816402729848" lon="8.756503195063498"><ele>569.0</ele><time>2026-05-03T06:25:03Z</time></trkpt><trkpt lat="39.81823053642536" lon="8.756522433412815"><ele>569.0000000000001</ele><time>2026-05-03T06:25:04Z</time></trkpt><trkpt lat="39.818290908478055" lon="8.756575617086414"><ele>569.0</ele><time>2026-05-03T06:25:05Z</time></trkpt><trkpt lat="39.81835205467862" lon="8.756646761487895"><ele>569.0000000000001</ele><time>2026-05-03T06:25:06Z</time></trkpt><trkpt lat="39.81839709190782" lon="8.756716626400888"><ele>569.0</ele><time>2026-05-03T06:25:07Z</time></trkpt><trkpt lat="39.818447267842465" lon="8.756777138366173"><ele>569.0</ele><time>2026-05-03T06:25:08Z</time></trkpt><trkpt lat="39.818493229635465" lon="8.75683949269509"><ele>569.0</ele><time>2026-05-03T06:25:09Z</time></trkpt><trkpt lat="39.818528858406616" lon="8.756916912860696"><ele>569.0</ele><time>2026-05-03T06:25:10Z</time></trkpt><trkpt lat="39.81856353839958" lon="8.756999689906126"><ele>569.0000000000001</ele><time>2026-05-03T06:25:11Z</time></trkpt><trkpt lat="39.818592342561296" lon="8.757098732700827"><ele>569.0</ele><time>2026-05-03T06:25:12Z</time></trkpt><trkpt lat="39.818623298470754" lon="8.757204986129885"><ele>565.8333333333333</ele><time>2026-05-03T06:25:13Z</time></trkpt><trkpt lat="39.818663409404685" lon="8.757289945598602"><ele>562.6666666666666</ele><time>2026-05-03T06:25:14Z</time></trkpt><trkpt lat="39.81869264009233" lon="8.757364326864579"><ele>559.5</ele><time>2026-05-03T06:25:14.999Z</time></trkpt><trkpt lat="39.81872131932858" lon="8.757449246041368"><ele>556.3333333333334</ele><time>2026-05-03T06:25:15.999Z</time></trkpt><trkpt lat="39.81874573071556" lon="8.757550895304524"><ele>553.1666666666667</ele><time>2026-05-03T06:25:16.999Z</time></trkpt><trkpt lat="39.81874424673235" lon="8.757648067160096"><ele>550.0</ele><time>2026-05-03T06:25:17.999Z</time></trkpt><trkpt lat="39.818718643249476" lon="8.75776950664722"><ele>550.0</ele><time>2026-05-03T06:25:18.999Z</time></trkpt><trkpt lat="39.818698078270266" lon="8.757863858348042"><ele>550.0</ele><time>2026-05-03T06:25:19.999Z</time></trkpt><trkpt lat="39.81869367128183" lon="8.757947549435682"><ele>550.0</ele><time>2026-05-03T06:25:20.999Z</time></trkpt><trkpt lat="39.818694148717135" lon="8.758035819717012"><ele>550.0</ele><time>2026-05-03T06:25:21.999Z</time></trkpt><trkpt lat="39.81869904929733" lon="8.758130638455857"><ele>550.0</ele><time>2026-05-03T06:25:22.999Z</time></trkpt><trkpt lat="39.81871420461542" lon="8.758228985800596"><ele>550.0</ele><time>2026-05-03T06:25:23.999Z</time></trkpt><trkpt lat="39.81872141076037" lon="8.758329902259822"><ele>550.0</ele><time>2026-05-03T06:25:24.999Z</time></trkpt><trkpt lat="39.818731515380044" lon="8.758425092267256"><ele>550.0</ele><time>2026-05-03T06:25:25.999Z</time></trkpt><trkpt lat="39.81873343280909" lon="8.758529259298411"><ele>550.0</ele><time>2026-05-03T06:25:26.999Z</time></trkpt><trkpt lat="39.81870467494394" lon="8.75866017717347"><ele>550.0</ele><time>2026-05-03T06:25:28.999Z</time></trkpt><trkpt lat="39.81866451549715" lon="8.758736349934383"><ele>550.0</ele><time>2026-05-03T06:25:29.999Z</time></trkpt><trkpt lat="39.81861499975106" lon="8.758797610858384"><ele>550.0</ele><time>2026-05-03T06:25:30.999Z</time></trkpt><trkpt lat="39.81854438627814" lon="8.758888273994033"><ele>550.0</ele><time>2026-05-03T06:25:32.999Z</time></trkpt><trkpt lat="39.81849833489335" lon="8.758956924327284"><ele>553.1666666666667</ele><time>2026-05-03T06:25:33.999Z</time></trkpt><trkpt lat="39.81844053903516" lon="8.759043510049311"><ele>556.3333333333334</ele><time>2026-05-03T06:25:34.999Z</time></trkpt><trkpt lat="39.81838395256805" lon="8.759141946835825"><ele>559.5</ele><time>2026-05-03T06:25:35.999Z</time></trkpt><trkpt lat="39.818312267554504" lon="8.759233580448472"><ele>562.6666666666666</ele><time>2026-05-03T06:25:36.999Z</time></trkpt><trkpt lat="39.8182789788861" lon="8.759305944789311"><ele>565.8333333333333</ele><time>2026-05-03T06:25:37.999Z</time></trkpt><trkpt lat="39.818278745150295" lon="8.759404073372998"><ele>569.0</ele><time>2026-05-03T06:25:38.999Z</time></trkpt><trkpt lat="39.81827053838545" lon="8.759525242443415"><ele>569.0</ele><time>2026-05-03T06:25:39.999Z</time></trkpt><trkpt lat="39.81824215018385" lon="8.75965469535499"><ele>569.0</ele><time>2026-05-03T06:25:40.999Z</time></trkpt><trkpt lat="39.81818878009099" lon="8.759795585155974"><ele>569.0</ele><time>2026-05-03T06:25:41.999Z</time></trkpt><trkpt lat="39.818152503854506" lon="8.759938689587354"><ele>569.0</ele><time>2026-05-03T06:25:42.999Z</time></trkpt><trkpt lat="39.81813710155508" lon="8.76010713008655"><ele>570.1666666666666</ele><time>2026-05-03T06:25:43.999Z</time></trkpt><trkpt lat="39.8181178542312" lon="8.760222753098"><ele>571.3333333333333</ele><time>2026-05-03T06:25:44.999Z</time></trkpt><trkpt lat="39.81811341855555" lon="8.760332967835962"><ele>572.5</ele><time>2026-05-03T06:25:45.999Z</time></trkpt><trkpt lat="39.818100899036324" lon="8.760444398961418"><ele>573.6666666666666</ele><time>2026-05-03T06:25:46.999Z</time></trkpt><trkpt lat="39.8180619998114" lon="8.760540980023617"><ele>574.8333333333334</ele><time>2026-05-03T06:25:47.999Z</time></trkpt><trkpt lat="39.818021905107834" lon="8.760643400484673"><ele>576.0</ele><time>2026-05-03T06:25:48.999Z</time></trkpt><trkpt lat="39.81799366949381" lon="8.76076452953246"><ele>576.0</ele><time>2026-05-03T06:25:49.999Z</time></trkpt><trkpt lat="39.81796464435576" lon="8.760874689734568"><ele>576.0</ele><time>2026-05-03T06:25:50.999Z</time></trkpt><trkpt lat="39.8179163413019" lon="8.760980469491788"><ele>576.0</ele><time>2026-05-03T06:25:51.999Z</time></trkpt><trkpt lat="39.81789718806924" lon="8.761102053195415"><ele>576.0</ele><time>2026-05-03T06:25:52.999Z</time></trkpt><trkpt lat="39.81789596756038" lon="8.761231257994297"><ele>576.0</ele><time>2026-05-03T06:25:53.999Z</time></trkpt><trkpt lat="39.81788878915709" lon="8.761356953183308"><ele>577.0</ele><time>2026-05-03T06:25:54.999Z</time></trkpt><trkpt lat="39.81785122316141" lon="8.761460405687558"><ele>578.0</ele><time>2026-05-03T06:25:55.999Z</time></trkpt><trkpt lat="39.81781092592718" lon="8.761570567210045"><ele>579.0</ele><time>2026-05-03T06:25:56.999Z</time></trkpt><trkpt lat="39.81776804979651" lon="8.761671289322368"><ele>580.0</ele><time>2026-05-03T06:25:57.999Z</time></trkpt><trkpt lat="39.81773029725897" lon="8.761745249379343"><ele>581.0</ele><time>2026-05-03T06:25:58.999Z</time></trkpt><trkpt lat="39.81769980567855" lon="8.761829739813903"><ele>582.0</ele><time>2026-05-03T06:25:59.999Z</time></trkpt><trkpt lat="39.81764268347706" lon="8.76195566823795"><ele>582.5</ele><time>2026-05-03T06:26:01.999Z</time></trkpt><trkpt lat="39.81763228195092" lon="8.762062584756128"><ele>583.0</ele><time>2026-05-03T06:26:02.999Z</time></trkpt><trkpt lat="39.817650769559414" lon="8.762213257815645"><ele>583.5</ele><time>2026-05-03T06:26:03.999Z</time></trkpt><trkpt lat="39.81767157570256" lon="8.762390038625986"><ele>584.0</ele><time>2026-05-03T06:26:04.999Z</time></trkpt><trkpt lat="39.81769053756475" lon="8.762570887741173"><ele>583.1666666666666</ele><time>2026-05-03T06:26:05.999Z</time></trkpt><trkpt lat="39.81768283707539" lon="8.762701096057162"><ele>582.3333333333333</ele><time>2026-05-03T06:26:06.999Z</time></trkpt><trkpt lat="39.81766531941309" lon="8.76281392442"><ele>581.5</ele><time>2026-05-03T06:26:07.999Z</time></trkpt><trkpt lat="39.81762930004417" lon="8.762894392685181"><ele>580.6666666666666</ele><time>2026-05-03T06:26:08.999Z</time></trkpt><trkpt lat="39.8175854557493" lon="8.762966529560757"><ele>579.8333333333334</ele><time>2026-05-03T06:26:09.999Z</time></trkpt><trkpt lat="39.81755364136877" lon="8.763049948765529"><ele>579.0</ele><time>2026-05-03T06:26:10.999Z</time></trkpt><trkpt lat="39.81754559031004" lon="8.76313999840263"><ele>583.2</ele><time>2026-05-03T06:26:11.999Z</time></trkpt><trkpt lat="39.817532015229155" lon="8.763267021644873"><ele>587.4</ele><time>2026-05-03T06:26:12.999Z</time></trkpt><trkpt lat="39.81749912490339" lon="8.763431484435442"><ele>591.6</ele><time>2026-05-03T06:26:13.999Z</time></trkpt><trkpt lat="39.817465843509204" lon="8.76356008565223"><ele>595.8</ele><time>2026-05-03T06:26:14.999Z</time></trkpt><trkpt lat="39.817413464463286" lon="8.763647608839038"><ele>600.0</ele><time>2026-05-03T06:26:15.998Z</time></trkpt><trkpt lat="39.81735492284564" lon="8.763715043694663"><ele>600.0</ele><time>2026-05-03T06:26:16.998Z</time></trkpt><trkpt lat="39.81728143030881" lon="8.76380851560745"><ele>600.0</ele><time>2026-05-03T06:26:17.998Z</time></trkpt><trkpt lat="39.81719213635804" lon="8.763920430571469"><ele>600.0</ele><time>2026-05-03T06:26:18.998Z</time></trkpt><trkpt lat="39.817101701731325" lon="8.764044983598536"><ele>600.0</ele><time>2026-05-03T06:26:19.998Z</time></trkpt><trkpt lat="39.816972979275214" lon="8.764165873315104"><ele>600.0</ele><time>2026-05-03T06:26:20.998Z</time></trkpt><trkpt lat="39.81685512233174" lon="8.764272720832976"><ele>600.0</ele><time>2026-05-03T06:26:22Z</time></trkpt><trkpt lat="39.81674785608675" lon="8.764372028601416"><ele>600.0</ele><time>2026-05-03T06:26:23Z</time></trkpt><trkpt lat="39.81666707908217" lon="8.764464564921994"><ele>600.0</ele><time>2026-05-03T06:26:24Z</time></trkpt><trkpt lat="39.81658893949145" lon="8.764586437623443"><ele>602.6</ele><time>2026-05-03T06:26:25Z</time></trkpt><trkpt lat="39.81650884683517" lon="8.764698834678802"><ele>605.2</ele><time>2026-05-03T06:26:26Z</time></trkpt><trkpt lat="39.81642307917306" lon="8.764791647249762"><ele>607.8</ele><time>2026-05-03T06:26:27Z</time></trkpt><trkpt lat="39.8163368919066" lon="8.764853050075669"><ele>610.4</ele><time>2026-05-03T06:26:28Z</time></trkpt><trkpt lat="39.81626460686675" lon="8.764918654429044"><ele>613.0</ele><time>2026-05-03T06:26:29Z</time></trkpt><trkpt lat="39.8162135046502" lon="8.764975992918092"><ele>613.0</ele><time>2026-05-03T06:26:30Z</time></trkpt><trkpt lat="39.81615732630203" lon="8.765018170991269"><ele>613.0</ele><time>2026-05-03T06:26:32Z</time></trkpt><trkpt lat="39.81607440945213" lon="8.765126757510897"><ele>613.0</ele><time>2026-05-03T06:27:00Z</time></trkpt><trkpt lat="39.816045965514114" lon="8.76521431640921"><ele>613.0</ele><time>2026-05-03T06:27:01Z</time></trkpt><trkpt lat="39.81600530182686" lon="8.76534000395332"><ele>613.0</ele><time>2026-05-03T06:27:02Z</time></trkpt><trkpt lat="39.815944808669336" lon="8.76543625791358"><ele>615.1999999999999</ele><time>2026-05-03T06:27:03Z</time></trkpt><trkpt lat="39.81591056534603" lon="8.76554071105182"><ele>617.4</ele><time>2026-05-03T06:27:04Z</time></trkpt><trkpt lat="39.815860841080486" lon="8.76564882437133"><ele>619.5999999999999</ele><time>2026-05-03T06:27:05Z</time></trkpt><trkpt lat="39.815828508675885" lon="8.7657630188371"><ele>621.8</ele><time>2026-05-03T06:27:06Z</time></trkpt><trkpt lat="39.815797655973014" lon="8.765850942842187"><ele>624.0</ele><time>2026-05-03T06:27:07Z</time></trkpt><trkpt lat="39.815756439388444" lon="8.766016324853792"><ele>623.8333333333334</ele><time>2026-05-03T06:27:09Z</time></trkpt><trkpt lat="39.81568207168577" lon="8.766142024767657"><ele>623.6666666666666</ele><time>2026-05-03T06:27:11Z</time></trkpt><trkpt lat="39.81562670743125" lon="8.766204882324455"><ele>623.5</ele><time>2026-05-03T06:27:12Z</time></trkpt><trkpt lat="39.815571823258615" lon="8.7662632402444"><ele>623.3333333333333</ele><time>2026-05-03T06:27:13Z</time></trkpt><trkpt lat="39.81553109056033" lon="8.766327767195657"><ele>623.1666666666666</ele><time>2026-05-03T06:27:14Z</time></trkpt><trkpt lat="39.81550421245423" lon="8.766476221188888"><ele>623.0</ele><time>2026-05-03T06:27:16Z</time></trkpt><trkpt lat="39.81552453384091" lon="8.76655675020839"><ele>623.0</ele><time>2026-05-03T06:27:17Z</time></trkpt><trkpt lat="39.815563032611784" lon="8.766655587754945"><ele>623.0</ele><time>2026-05-03T06:27:18Z</time></trkpt><trkpt lat="39.815615653141485" lon="8.766774989189717"><ele>623.0</ele><time>2026-05-03T06:27:19Z</time></trkpt><trkpt lat="39.81566436546933" lon="8.766907313646808"><ele>623.0</ele><time>2026-05-03T06:27:19.999Z</time></trkpt><trkpt lat="39.81570344379173" lon="8.767044968637968"><ele>623.0</ele><time>2026-05-03T06:27:20.999Z</time></trkpt><trkpt lat="39.81573214480169" lon="8.767173651506534"><ele>622.6</ele><time>2026-05-03T06:27:21.999Z</time></trkpt><trkpt lat="39.81576153672905" lon="8.767305430331644"><ele>622.1999999999999</ele><time>2026-05-03T06:27:22.999Z</time></trkpt><trkpt lat="39.81578625845172" lon="8.767422469285805"><ele>621.8</ele><time>2026-05-03T06:27:23.999Z</time></trkpt><trkpt lat="39.815816740090675" lon="8.767543273234734"><ele>621.4</ele><time>2026-05-03T06:27:24.999Z</time></trkpt><trkpt lat="39.81585347201894" lon="8.767674437222007"><ele>621.0</ele><time>2026-05-03T06:27:25.999Z</time></trkpt><trkpt lat="39.815896939026736" lon="8.767792602592934"><ele>620.0</ele><time>2026-05-03T06:27:26.999Z</time></trkpt><trkpt lat="39.81593687984663" lon="8.767901907839526"><ele>619.0</ele><time>2026-05-03T06:27:27.999Z</time></trkpt><trkpt lat="39.81597402353351" lon="8.767996637611466"><ele>618.0</ele><time>2026-05-03T06:27:28.999Z</time></trkpt><trkpt lat="39.81600961879313" lon="8.768093152877162"><ele>617.0</ele><time>2026-05-03T06:27:29.999Z</time></trkpt><trkpt lat="39.816055425654" lon="8.768199967668112"><ele>616.0</ele><time>2026-05-03T06:27:30.999Z</time></trkpt><trkpt lat="39.81610889212652" lon="8.768310258623181"><ele>614.4</ele><time>2026-05-03T06:27:31.999Z</time></trkpt><trkpt lat="39.816146271177814" lon="8.768407917309137"><ele>612.8</ele><time>2026-05-03T06:27:32.999Z</time></trkpt><trkpt lat="39.8161708856533" lon="8.768519337267314"><ele>611.1999999999999</ele><time>2026-05-03T06:27:33.999Z</time></trkpt><trkpt lat="39.81618552074057" lon="8.76864444894985"><ele>609.6</ele><time>2026-05-03T06:27:34.999Z</time></trkpt><trkpt lat="39.81619365700861" lon="8.768782121512476"><ele>608.0</ele><time>2026-05-03T06:27:35.999Z</time></trkpt><trkpt lat="39.81619754512438" lon="8.76891405038783"><ele>607.4</ele><time>2026-05-03T06:27:36.999Z</time></trkpt><trkpt lat="39.81618863720175" lon="8.769049245356634"><ele>606.8</ele><time>2026-05-03T06:27:37.999Z</time></trkpt><trkpt lat="39.816181351969085" lon="8.769198170934438"><ele>606.2</ele><time>2026-05-03T06:27:38.999Z</time></trkpt><trkpt lat="39.8161797222134" lon="8.769335682260303"><ele>605.6</ele><time>2026-05-03T06:27:39.999Z</time></trkpt><trkpt lat="39.81618093437636" lon="8.769471747627348"><ele>605.0</ele><time>2026-05-03T06:27:40.999Z</time></trkpt><trkpt lat="39.81618801209921" lon="8.769619915945217"><ele>603.6666666666666</ele><time>2026-05-03T06:27:41.999Z</time></trkpt><trkpt lat="39.816180451344835" lon="8.769818739023489"><ele>602.3333333333334</ele><time>2026-05-03T06:27:42.999Z</time></trkpt><trkpt lat="39.81616717861563" lon="8.770063760696994"><ele>601.0</ele><time>2026-05-03T06:27:43.999Z</time></trkpt><trkpt lat="39.81615860361355" lon="8.770303979082446"><ele>599.75</ele><time>2026-05-03T06:27:44.999Z</time></trkpt><trkpt lat="39.81615818124971" lon="8.770494409519017"><ele>598.5</ele><time>2026-05-03T06:27:45.999Z</time></trkpt><trkpt lat="39.81615901786503" lon="8.770656315666995"><ele>597.25</ele><time>2026-05-03T06:27:46.999Z</time></trkpt><trkpt lat="39.81615945961123" lon="8.770810625869613"><ele>596.0</ele><time>2026-05-03T06:27:47.999Z</time></trkpt><trkpt lat="39.81615572906229" lon="8.770988350958156"><ele>594.3333333333333</ele><time>2026-05-03T06:27:48.999Z</time></trkpt><trkpt lat="39.816156397449745" lon="8.771189344763636"><ele>592.6666666666666</ele><time>2026-05-03T06:27:49.999Z</time></trkpt><trkpt lat="39.816160044174396" lon="8.771388805669803"><ele>591.0</ele><time>2026-05-03T06:27:50.999Z</time></trkpt><trkpt lat="39.816163421400006" lon="8.771588569656762"><ele>591.0</ele><time>2026-05-03T06:27:51.999Z</time></trkpt><trkpt lat="39.81616158997255" lon="8.771761971813252"><ele>591.0</ele><time>2026-05-03T06:27:52.999Z</time></trkpt><trkpt lat="39.81615727442748" lon="8.77192993047172"><ele>591.0</ele><time>2026-05-03T06:27:53.999Z</time></trkpt><trkpt lat="39.816154968058505" lon="8.772101566307834"><ele>591.0</ele><time>2026-05-03T06:27:54.999Z</time></trkpt><trkpt lat="39.81614966529937" lon="8.77227092146603"><ele>589.5</ele><time>2026-05-03T06:27:55.999Z</time></trkpt><trkpt lat="39.816144920691784" lon="8.772425024774297"><ele>588.0</ele><time>2026-05-03T06:27:56.999Z</time></trkpt><trkpt lat="39.816139773263686" lon="8.772585705410382"><ele>586.5</ele><time>2026-05-03T06:27:57.999Z</time></trkpt><trkpt lat="39.816133571319575" lon="8.772745689383676"><ele>585.0</ele><time>2026-05-03T06:27:58.999Z</time></trkpt><trkpt lat="39.8161284804003" lon="8.772896822245384"><ele>584.0</ele><time>2026-05-03T06:27:59.999Z</time></trkpt><trkpt lat="39.816130278406675" lon="8.773036113447649"><ele>583.0</ele><time>2026-05-03T06:28:00.999Z</time></trkpt><trkpt lat="39.81613444635593" lon="8.773169953263304"><ele>582.0</ele><time>2026-05-03T06:28:01.999Z</time></trkpt><trkpt lat="39.81613810193042" lon="8.773309776470247"><ele>581.0</ele><time>2026-05-03T06:28:02.999Z</time></trkpt><trkpt lat="39.8161391748958" lon="8.773447604401214"><ele>580.0</ele><time>2026-05-03T06:28:03.999Z</time></trkpt><trkpt lat="39.816131518236226" lon="8.773589340617601"><ele>579.0</ele><time>2026-05-03T06:28:04.999Z</time></trkpt><trkpt lat="39.81613524393467" lon="8.773737022878462"><ele>578.0</ele><time>2026-05-03T06:28:05.999Z</time></trkpt><trkpt lat="39.81614313513474" lon="8.773899250137404"><ele>577.0</ele><time>2026-05-03T06:28:06.999Z</time></trkpt><trkpt lat="39.81614200030273" lon="8.77406850748755"><ele>576.0</ele><time>2026-05-03T06:28:07.999Z</time></trkpt><trkpt lat="39.816132099632206" lon="8.774257527885194"><ele>574.5</ele><time>2026-05-03T06:28:08.999Z</time></trkpt><trkpt lat="39.81613347268908" lon="8.774430424018616"><ele>573.0</ele><time>2026-05-03T06:28:09.999Z</time></trkpt><trkpt lat="39.816132789865634" lon="8.774598462906747"><ele>571.5</ele><time>2026-05-03T06:28:10.999Z</time></trkpt><trkpt lat="39.816130993076904" lon="8.774766673206077"><ele>570.0</ele><time>2026-05-03T06:28:11.999Z</time></trkpt><trkpt lat="39.81612928758115" lon="8.774936903278606"><ele>570.0</ele><time>2026-05-03T06:28:12.999Z</time></trkpt><trkpt lat="39.81613066782894" lon="8.77511428540307"><ele>570.0</ele><time>2026-05-03T06:28:13.999Z</time></trkpt><trkpt lat="39.81614426429167" lon="8.775280169771358"><ele>570.0</ele><time>2026-05-03T06:28:14.999Z</time></trkpt><trkpt lat="39.81615635672057" lon="8.775449045613373"><ele>570.0</ele><time>2026-05-03T06:28:15.999Z</time></trkpt><trkpt lat="39.81614982979752" lon="8.775617270763801"><ele>568.5</ele><time>2026-05-03T06:28:16.999Z</time></trkpt><trkpt lat="39.816136232293054" lon="8.77580023251704"><ele>567.0</ele><time>2026-05-03T06:28:17.999Z</time></trkpt><trkpt lat="39.81613103427763" lon="8.775993113744104"><ele>565.5</ele><time>2026-05-03T06:28:18.999Z</time></trkpt><trkpt lat="39.816138495311" lon="8.776179824877499"><ele>564.0</ele><time>2026-05-03T06:28:19.998Z</time></trkpt><trkpt lat="39.81614905706517" lon="8.776357238812233"><ele>561.3333333333334</ele><time>2026-05-03T06:28:20.998Z</time></trkpt><trkpt lat="39.816147519702405" lon="8.776547852670303"><ele>558.6666666666667</ele><time>2026-05-03T06:28:21.998Z</time></trkpt><trkpt lat="39.816136852428045" lon="8.77675763876034"><ele>556.0</ele><time>2026-05-03T06:28:22.998Z</time></trkpt><trkpt lat="39.81612602520075" lon="8.776945517429208"><ele>554.2</ele><time>2026-05-03T06:28:23.998Z</time></trkpt><trkpt lat="39.816123163771" lon="8.777104372379894"><ele>552.4000000000001</ele><time>2026-05-03T06:28:24.998Z</time></trkpt><trkpt lat="39.816120452316845" lon="8.777220508800037"><ele>550.6</ele><time>2026-05-03T06:28:25.998Z</time></trkpt><trkpt lat="39.81611807683582" lon="8.777305413310712"><ele>548.8000000000001</ele><time>2026-05-03T06:28:27Z</time></trkpt><trkpt lat="39.81615354096422" lon="8.777426776285335"><ele>547.0</ele><time>2026-05-03T06:28:29Z</time></trkpt><trkpt lat="39.81626162637138" lon="8.777463346807858"><ele>547.0</ele><time>2026-05-03T06:28:31Z</time></trkpt><trkpt lat="39.8163340880935" lon="8.777432305065352"><ele>547.0</ele><time>2026-05-03T06:28:32Z</time></trkpt><trkpt lat="39.81642825272724" lon="8.777363390002298"><ele>547.0</ele><time>2026-05-03T06:28:33Z</time></trkpt><trkpt lat="39.81653823286106" lon="8.777266441532925"><ele>547.0</ele><time>2026-05-03T06:28:34Z</time></trkpt><trkpt lat="39.81667867318757" lon="8.777149879253592"><ele>545.6666666666667</ele><time>2026-05-03T06:28:35Z</time></trkpt><trkpt lat="39.81684836013759" lon="8.777004098436"><ele>544.3333333333334</ele><time>2026-05-03T06:28:36Z</time></trkpt><trkpt lat="39.817011268861506" lon="8.7768611816137"><ele>543.0</ele><time>2026-05-03T06:28:37Z</time></trkpt><trkpt lat="39.81716227341606" lon="8.776760784303242"><ele>545.6666666666666</ele><time>2026-05-03T06:28:38Z</time></trkpt><trkpt lat="39.81732855577211" lon="8.77667586259425"><ele>548.3333333333333</ele><time>2026-05-03T06:28:39Z</time></trkpt><trkpt lat="39.81748631036242" lon="8.776587313177679"><ele>551.0</ele><time>2026-05-03T06:28:40Z</time></trkpt><trkpt lat="39.81763868979594" lon="8.776473766305616"><ele>550.3333333333333</ele><time>2026-05-03T06:28:41Z</time></trkpt><trkpt lat="39.81779758494632" lon="8.776340585016683"><ele>549.6666666666666</ele><time>2026-05-03T06:28:42Z</time></trkpt><trkpt lat="39.81796971063218" lon="8.77620227912912"><ele>549.0</ele><time>2026-05-03T06:28:43Z</time></trkpt><trkpt lat="39.81814502749504" lon="8.776093668695685"><ele>550.6666666666666</ele><time>2026-05-03T06:28:44Z</time></trkpt><trkpt lat="39.81829680267581" lon="8.775991570379238"><ele>552.3333333333333</ele><time>2026-05-03T06:28:45Z</time></trkpt><trkpt lat="39.81844646013472" lon="8.775881428181437"><ele>554.0</ele><time>2026-05-03T06:28:46Z</time></trkpt><trkpt lat="39.81858681691133" lon="8.775768454513342"><ele>554.0</ele><time>2026-05-03T06:28:47Z</time></trkpt><trkpt lat="39.818709271192645" lon="8.775677063334957"><ele>554.0</ele><time>2026-05-03T06:28:48Z</time></trkpt><trkpt lat="39.818831794473176" lon="8.77561200767733"><ele>554.0</ele><time>2026-05-03T06:28:49Z</time></trkpt><trkpt lat="39.81895025329185" lon="8.775562357914588"><ele>554.0</ele><time>2026-05-03T06:28:50Z</time></trkpt><trkpt lat="39.819067174704955" lon="8.775530543795838"><ele>554.0</ele><time>2026-05-03T06:28:51Z</time></trkpt><trkpt lat="39.819175880116426" lon="8.775532671486365"><ele>554.0</ele><time>2026-05-03T06:28:52Z</time></trkpt><trkpt lat="39.81928572006953" lon="8.775556196640968"><ele>554.0</ele><time>2026-05-03T06:28:53Z</time></trkpt><trkpt lat="39.81939932879945" lon="8.775593647344294"><ele>554.0</ele><time>2026-05-03T06:28:54Z</time></trkpt><trkpt lat="39.81950398944331" lon="8.775617054143883"><ele>554.0</ele><time>2026-05-03T06:28:55Z</time></trkpt><trkpt lat="39.81960051894974" lon="8.775604937724156"><ele>553.0</ele><time>2026-05-03T06:28:56Z</time></trkpt><trkpt lat="39.819705995936054" lon="8.775567856191342"><ele>552.0</ele><time>2026-05-03T06:28:57Z</time></trkpt><trkpt lat="39.81982877759305" lon="8.775504555099856"><ele>551.0</ele><time>2026-05-03T06:28:58Z</time></trkpt><trkpt lat="39.81996330960445" lon="8.77541790250939"><ele>550.0</ele><time>2026-05-03T06:28:59Z</time></trkpt><trkpt lat="39.82010611984837" lon="8.775321705622268"><ele>549.0</ele><time>2026-05-03T06:29:00Z</time></trkpt><trkpt lat="39.82024309784761" lon="8.77524535558095"><ele>548.0</ele><time>2026-05-03T06:29:01Z</time></trkpt><trkpt lat="39.82036627732608" lon="8.775193604745587"><ele>547.0</ele><time>2026-05-03T06:29:02Z</time></trkpt><trkpt lat="39.82048998369866" lon="8.775151574781017"><ele>546.0</ele><time>2026-05-03T06:29:03Z</time></trkpt><trkpt lat="39.82061259491898" lon="8.775120623504296"><ele>545.5</ele><time>2026-05-03T06:29:04Z</time></trkpt><trkpt lat="39.82072922866075" lon="8.775073574144406"><ele>545.0</ele><time>2026-05-03T06:29:05Z</time></trkpt><trkpt lat="39.82084394206248" lon="8.77500627914326"><ele>544.5</ele><time>2026-05-03T06:29:06Z</time></trkpt><trkpt lat="39.820948925897014" lon="8.774951105336806"><ele>544.0</ele><time>2026-05-03T06:29:07Z</time></trkpt><trkpt lat="39.82103513769913" lon="8.774919527968486"><ele>542.6666666666667</ele><time>2026-05-03T06:29:08Z</time></trkpt><trkpt lat="39.82111676492445" lon="8.774878747312332"><ele>541.3333333333334</ele><time>2026-05-03T06:29:09Z</time></trkpt><trkpt lat="39.82120199876679" lon="8.774833388782033"><ele>540.0</ele><time>2026-05-03T06:29:10Z</time></trkpt><trkpt lat="39.821265918951795" lon="8.774793120829228"><ele>538.6666666666666</ele><time>2026-05-03T06:29:11Z</time></trkpt><trkpt lat="39.82135634550189" lon="8.774746944765495"><ele>537.3333333333333</ele><time>2026-05-03T06:29:13Z</time></trkpt><trkpt lat="39.821445167811085" lon="8.774735698746465"><ele>536.0</ele><time>2026-05-03T06:29:15Z</time></trkpt><trkpt lat="39.82153311316917" lon="8.774699850192086"><ele>536.0</ele><time>2026-05-03T06:29:17Z</time></trkpt><trkpt lat="39.82158423467861" lon="8.774641122050845"><ele>536.0</ele><time>2026-05-03T06:29:18Z</time></trkpt><trkpt lat="39.82163806540094" lon="8.774564797119263"><ele>536.0</ele><time>2026-05-03T06:29:19Z</time></trkpt><trkpt lat="39.821699396750276" lon="8.774483552726446"><ele>536.0</ele><time>2026-05-03T06:29:20Z</time></trkpt><trkpt lat="39.82181092720564" lon="8.774402824813993"><ele>536.0</ele><time>2026-05-03T06:29:21.999Z</time></trkpt><trkpt lat="39.82188482549391" lon="8.774374939743701"><ele>536.0</ele><time>2026-05-03T06:29:22.999Z</time></trkpt><trkpt lat="39.82194720487828" lon="8.774350483547096"><ele>533.8</ele><time>2026-05-03T06:29:23.999Z</time></trkpt><trkpt lat="39.82206140064179" lon="8.774264758250805"><ele>531.6</ele><time>2026-05-03T06:29:25.999Z</time></trkpt><trkpt lat="39.822135366737015" lon="8.774222603625983"><ele>529.4</ele><time>2026-05-03T06:29:26.999Z</time></trkpt><trkpt lat="39.822214605660584" lon="8.774196233601089"><ele>527.2</ele><time>2026-05-03T06:29:27.999Z</time></trkpt><trkpt lat="39.82231070753297" lon="8.774179117482925"><ele>525.0</ele><time>2026-05-03T06:29:28.999Z</time></trkpt><trkpt lat="39.82240793401664" lon="8.774151187021394"><ele>525.0</ele><time>2026-05-03T06:29:29.999Z</time></trkpt><trkpt lat="39.82248463276287" lon="8.774110571848656"><ele>525.0</ele><time>2026-05-03T06:29:30.999Z</time></trkpt><trkpt lat="39.82255732146543" lon="8.77407346712798"><ele>525.0</ele><time>2026-05-03T06:29:31.999Z</time></trkpt><trkpt lat="39.82262866421061" lon="8.774056264238176"><ele>525.0</ele><time>2026-05-03T06:29:32.999Z</time></trkpt><trkpt lat="39.82270253467177" lon="8.774028122115302"><ele>525.0</ele><time>2026-05-03T06:29:33.999Z</time></trkpt><trkpt lat="39.82276920509158" lon="8.7739902948184"><ele>525.0</ele><time>2026-05-03T06:29:34.999Z</time></trkpt><trkpt lat="39.82283100275513" lon="8.773937993151339"><ele>524.3333333333334</ele><time>2026-05-03T06:29:35.999Z</time></trkpt><trkpt lat="39.82289190153862" lon="8.773869791971281"><ele>523.6666666666666</ele><time>2026-05-03T06:29:36.999Z</time></trkpt><trkpt lat="39.822958643956994" lon="8.773780965578421"><ele>523.0</ele><time>2026-05-03T06:29:37.999Z</time></trkpt><trkpt lat="39.823030123233885" lon="8.773710686614011"><ele>522.3333333333333</ele><time>2026-05-03T06:29:38.999Z</time></trkpt><trkpt lat="39.82310183312444" lon="8.77366169046396"><ele>521.6666666666666</ele><time>2026-05-03T06:29:39.999Z</time></trkpt><trkpt lat="39.82317007808689" lon="8.773623467912598"><ele>521.0</ele><time>2026-05-03T06:29:40.999Z</time></trkpt><trkpt lat="39.823232050822845" lon="8.773597117276553"><ele>521.0</ele><time>2026-05-03T06:29:41.999Z</time></trkpt><trkpt lat="39.823297036415624" lon="8.773566763516127"><ele>521.0</ele><time>2026-05-03T06:29:42.999Z</time></trkpt><trkpt lat="39.82336777177746" lon="8.773530821464785"><ele>521.0</ele><time>2026-05-03T06:29:43.999Z</time></trkpt><trkpt lat="39.82345088607814" lon="8.773481899189619"><ele>521.0</ele><time>2026-05-03T06:29:44.999Z</time></trkpt><trkpt lat="39.823565138959324" lon="8.773481589883069"><ele>521.0</ele><time>2026-05-03T06:29:46.999Z</time></trkpt><trkpt lat="39.82363584297661" lon="8.773515216814626"><ele>521.0</ele><time>2026-05-03T06:29:47.999Z</time></trkpt><trkpt lat="39.82370809698462" lon="8.773474640928338"><ele>521.0</ele><time>2026-05-03T06:29:48.999Z</time></trkpt><trkpt lat="39.82378813482653" lon="8.773389372967486"><ele>521.0</ele><time>2026-05-03T06:29:49.999Z</time></trkpt><trkpt lat="39.82386982070466" lon="8.7733499029781"><ele>521.0</ele><time>2026-05-03T06:29:50.999Z</time></trkpt><trkpt lat="39.82398509851733" lon="8.773336951857875"><ele>521.0</ele><time>2026-05-03T06:29:51.999Z</time></trkpt><trkpt lat="39.82411664147312" lon="8.773302936322324"><ele>521.0</ele><time>2026-05-03T06:29:52.999Z</time></trkpt><trkpt lat="39.82424281676478" lon="8.77323139722908"><ele>521.75</ele><time>2026-05-03T06:29:53.999Z</time></trkpt><trkpt lat="39.82434986056154" lon="8.773162295092286"><ele>522.5</ele><time>2026-05-03T06:29:54.999Z</time></trkpt><trkpt lat="39.82447412071824" lon="8.77310747631768"><ele>523.25</ele><time>2026-05-03T06:29:55.999Z</time></trkpt><trkpt lat="39.82461187599678" lon="8.77305749691254"><ele>524.0</ele><time>2026-05-03T06:29:56.999Z</time></trkpt><trkpt lat="39.824725522880975" lon="8.773013938905414"><ele>524.0</ele><time>2026-05-03T06:29:57.999Z</time></trkpt><trkpt lat="39.82482750783858" lon="8.772969098506799"><ele>524.0</ele><time>2026-05-03T06:29:58.999Z</time></trkpt><trkpt lat="39.82490856224102" lon="8.772922896781713"><ele>524.0</ele><time>2026-05-03T06:29:59.999Z</time></trkpt><trkpt lat="39.824966235395316" lon="8.772880994462442"><ele>524.0</ele><time>2026-05-03T06:30:00.999Z</time></trkpt><trkpt lat="39.82502202393153" lon="8.77282468181435"><ele>524.0</ele><time>2026-05-03T06:30:01.999Z</time></trkpt><trkpt lat="39.825079051427544" lon="8.772744041501054"><ele>524.0</ele><time>2026-05-03T06:30:02.999Z</time></trkpt><trkpt lat="39.82513620088199" lon="8.772672174359144"><ele>523.0</ele><time>2026-05-03T06:30:03.999Z</time></trkpt><trkpt lat="39.82519231031979" lon="8.772605681797899"><ele>522.0</ele><time>2026-05-03T06:30:04.999Z</time></trkpt><trkpt lat="39.825246239663436" lon="8.772541354466856"><ele>521.0</ele><time>2026-05-03T06:30:05.999Z</time></trkpt><trkpt lat="39.82529685602813" lon="8.772482415650364"><ele>520.0</ele><time>2026-05-03T06:30:06.999Z</time></trkpt><trkpt lat="39.825414005874684" lon="8.772399503348518"><ele>519.0</ele><time>2026-05-03T06:30:08.999Z</time></trkpt><trkpt lat="39.82550216249422" lon="8.772374445683573"><ele>518.0</ele><time>2026-05-03T06:30:09.999Z</time></trkpt><trkpt lat="39.82562586673661" lon="8.772368005244935"><ele>518.0</ele><time>2026-05-03T06:30:10.999Z</time></trkpt><trkpt lat="39.8257447900495" lon="8.77237290193981"><ele>518.0</ele><time>2026-05-03T06:30:11.999Z</time></trkpt><trkpt lat="39.82583034270562" lon="8.772365505539272"><ele>518.0</ele><time>2026-05-03T06:30:12.999Z</time></trkpt><trkpt lat="39.825910040270266" lon="8.772373746022213"><ele>518.0</ele><time>2026-05-03T06:30:13.999Z</time></trkpt><trkpt lat="39.8259911332865" lon="8.772389238339368"><ele>518.0</ele><time>2026-05-03T06:30:14.999Z</time></trkpt><trkpt lat="39.82605807412652" lon="8.772365600396189"><ele>518.0</ele><time>2026-05-03T06:30:15.999Z</time></trkpt><trkpt lat="39.82612119140247" lon="8.772305070573397"><ele>519.3333333333333</ele><time>2026-05-03T06:30:16.999Z</time></trkpt><trkpt lat="39.82619665848839" lon="8.772229717789505"><ele>520.6666666666666</ele><time>2026-05-03T06:30:17.999Z</time></trkpt><trkpt lat="39.82627419820932" lon="8.772164248815914"><ele>522.0</ele><time>2026-05-03T06:30:18.999Z</time></trkpt><trkpt lat="39.826338340436365" lon="8.772137724721077"><ele>523.3333333333334</ele><time>2026-05-03T06:30:19.999Z</time></trkpt><trkpt lat="39.8264141761998" lon="8.77215062165186"><ele>524.6666666666667</ele><time>2026-05-03T06:30:20.999Z</time></trkpt><trkpt lat="39.826504475465725" lon="8.772174032164646"><ele>526.0</ele><time>2026-05-03T06:30:21.998Z</time></trkpt><trkpt lat="39.82659443085942" lon="8.772173186585416"><ele>526.0</ele><time>2026-05-03T06:30:22.998Z</time></trkpt><trkpt lat="39.82667802001229" lon="8.77214966434907"><ele>526.0</ele><time>2026-05-03T06:30:23.998Z</time></trkpt><trkpt lat="39.82677180362244" lon="8.772118192596409"><ele>526.0</ele><time>2026-05-03T06:30:24.998Z</time></trkpt><trkpt lat="39.82686959280887" lon="8.772051755552235"><ele>526.0</ele><time>2026-05-03T06:30:25.998Z</time></trkpt><trkpt lat="39.82698709458685" lon="8.771995380073262"><ele>526.0</ele><time>2026-05-03T06:30:26.998Z</time></trkpt><trkpt lat="39.82709268582379" lon="8.77195675129383"><ele>526.6666666666667</ele><time>2026-05-03T06:30:27.998Z</time></trkpt><trkpt lat="39.82717666449484" lon="8.77192289979697"><ele>527.3333333333334</ele><time>2026-05-03T06:30:28.998Z</time></trkpt><trkpt lat="39.827243972172944" lon="8.771877850075366"><ele>528.0</ele><time>2026-05-03T06:30:29.998Z</time></trkpt><trkpt lat="39.82729277616117" lon="8.771816071792767"><ele>528.6666666666666</ele><time>2026-05-03T06:30:30.998Z</time></trkpt><trkpt lat="39.827338198117644" lon="8.771723094030168"><ele>529.3333333333333</ele><time>2026-05-03T06:30:32Z</time></trkpt><trkpt lat="39.8273856388709" lon="8.771613835242556"><ele>530.0</ele><time>2026-05-03T06:30:33Z</time></trkpt><trkpt lat="39.827439806676644" lon="8.77150677126053"><ele>531.6</ele><time>2026-05-03T06:30:34Z</time></trkpt><trkpt lat="39.82750528452026" lon="8.771417431512463"><ele>533.2</ele><time>2026-05-03T06:30:35Z</time></trkpt><trkpt lat="39.82754515702447" lon="8.771352694373451"><ele>534.8</ele><time>2026-05-03T06:30:36Z</time></trkpt><trkpt lat="39.827531634521726" lon="8.771184131269958"><ele>536.4</ele><time>2026-05-03T06:30:38Z</time></trkpt><trkpt lat="39.82749566502367" lon="8.77104227211994"><ele>538.0</ele><time>2026-05-03T06:30:39Z</time></trkpt><trkpt lat="39.82747417783511" lon="8.770874562678172"><ele>539.5</ele><time>2026-05-03T06:30:40Z</time></trkpt><trkpt lat="39.827468317972816" lon="8.77071567143834"><ele>541.0</ele><time>2026-05-03T06:30:41Z</time></trkpt><trkpt lat="39.82746883856524" lon="8.770539285961956"><ele>542.5</ele><time>2026-05-03T06:30:42Z</time></trkpt><trkpt lat="39.82746553533602" lon="8.770378994184572"><ele>544.0</ele><time>2026-05-03T06:30:43Z</time></trkpt><trkpt lat="39.82743901980213" lon="8.770240580332578"><ele>545.6</ele><time>2026-05-03T06:30:44Z</time></trkpt><trkpt lat="39.82742277828289" lon="8.770100868233666"><ele>547.2</ele><time>2026-05-03T06:30:45Z</time></trkpt><trkpt lat="39.82740458628805" lon="8.770005172054216"><ele>548.8000000000001</ele><time>2026-05-03T06:30:46Z</time></trkpt><trkpt lat="39.82737232141001" lon="8.769916937039028"><ele>550.4</ele><time>2026-05-03T06:30:47Z</time></trkpt><trkpt lat="39.82734535260888" lon="8.769786862402995"><ele>552.0</ele><time>2026-05-03T06:30:48Z</time></trkpt><trkpt lat="39.82732089428928" lon="8.76962454759134"><ele>552.0</ele><time>2026-05-03T06:30:49Z</time></trkpt><trkpt lat="39.827300279419326" lon="8.769445845729013"><ele>552.0</ele><time>2026-05-03T06:30:50Z</time></trkpt><trkpt lat="39.82727656791231" lon="8.76926709076152"><ele>552.0</ele><time>2026-05-03T06:30:51Z</time></trkpt><trkpt lat="39.82725412981253" lon="8.769080091016026"><ele>552.0</ele><time>2026-05-03T06:30:52Z</time></trkpt><trkpt lat="39.82722939448335" lon="8.768900671900587"><ele>554.0</ele><time>2026-05-03T06:30:53Z</time></trkpt><trkpt lat="39.82721520640905" lon="8.768732339605375"><ele>556.0</ele><time>2026-05-03T06:30:54Z</time></trkpt><trkpt lat="39.827208645994595" lon="8.768581511353542"><ele>558.0</ele><time>2026-05-03T06:30:55Z</time></trkpt><trkpt lat="39.827191631073426" lon="8.768463492603436"><ele>560.0</ele><time>2026-05-03T06:30:56Z</time></trkpt><trkpt lat="39.82715359521759" lon="8.768313597639095"><ele>562.0</ele><time>2026-05-03T06:30:57Z</time></trkpt><trkpt lat="39.82712835569227" lon="8.7681514076293"><ele>564.0</ele><time>2026-05-03T06:30:58Z</time></trkpt><trkpt lat="39.82710302262371" lon="8.767987051792234"><ele>566.0</ele><time>2026-05-03T06:30:59Z</time></trkpt><trkpt lat="39.82709153331594" lon="8.767863071035238"><ele>568.0</ele><time>2026-05-03T06:31:00Z</time></trkpt><trkpt lat="39.82708436477685" lon="8.76772603983822"><ele>569.6666666666667</ele><time>2026-05-03T06:31:01Z</time></trkpt><trkpt lat="39.827071898281375" lon="8.767608192055613"><ele>571.3333333333334</ele><time>2026-05-03T06:31:02Z</time></trkpt><trkpt lat="39.827051646273134" lon="8.767520960918391"><ele>573.0</ele><time>2026-05-03T06:31:03Z</time></trkpt><trkpt lat="39.82709621428603" lon="8.76742920283086"><ele>574.6666666666666</ele><time>2026-05-03T06:31:05Z</time></trkpt><trkpt lat="39.82706618016469" lon="8.767353484452467"><ele>576.3333333333333</ele><time>2026-05-03T06:31:07Z</time></trkpt><trkpt lat="39.82704067728737" lon="8.767273579961229"><ele>578.0</ele><time>2026-05-03T06:31:09Z</time></trkpt><trkpt lat="39.826994800709805" lon="8.76714428253749"><ele>578.0</ele><time>2026-05-03T06:31:10Z</time></trkpt><trkpt lat="39.8269640282832" lon="8.767035921417655"><ele>578.0</ele><time>2026-05-03T06:31:11Z</time></trkpt><trkpt lat="39.826924641452436" lon="8.766966620719082"><ele>578.0</ele><time>2026-05-03T06:31:12Z</time></trkpt><trkpt lat="39.82688030146855" lon="8.766899965839134"><ele>578.0</ele><time>2026-05-03T06:31:13Z</time></trkpt><trkpt lat="39.82687499742696" lon="8.76674285976716"><ele>578.0</ele><time>2026-05-03T06:31:15Z</time></trkpt><trkpt lat="39.82686960967696" lon="8.766605054266606"><ele>578.0</ele><time>2026-05-03T06:31:16Z</time></trkpt><trkpt lat="39.82686031832469" lon="8.766476364647087"><ele>579.5</ele><time>2026-05-03T06:31:17Z</time></trkpt><trkpt lat="39.826860917936294" lon="8.7663745329719"><ele>581.0</ele><time>2026-05-03T06:31:18Z</time></trkpt><trkpt lat="39.82688762975694" lon="8.766283333883289"><ele>582.5</ele><time>2026-05-03T06:31:19Z</time></trkpt><trkpt lat="39.82692695580908" lon="8.76617500658166"><ele>584.0</ele><time>2026-05-03T06:31:20Z</time></trkpt><trkpt lat="39.82694202025765" lon="8.766080916309104"><ele>585.5</ele><time>2026-05-03T06:31:21Z</time></trkpt><trkpt lat="39.82693396336735" lon="8.765996846759618"><ele>587.0</ele><time>2026-05-03T06:31:22Z</time></trkpt><trkpt lat="39.82697493077529" lon="8.765882920855992"><ele>588.25</ele><time>2026-05-03T06:31:25.999Z</time></trkpt><trkpt lat="39.8270407698958" lon="8.765786065066989"><ele>589.5</ele><time>2026-05-03T06:31:28.999Z</time></trkpt><trkpt lat="39.826983548708185" lon="8.765627346362411"><ele>590.75</ele><time>2026-05-03T06:31:30.999Z</time></trkpt><trkpt lat="39.826981974028214" lon="8.765488467654407"><ele>592.0</ele><time>2026-05-03T06:31:31.999Z</time></trkpt><trkpt lat="39.826978237275625" lon="8.765320033175446"><ele>592.0</ele><time>2026-05-03T06:31:32.999Z</time></trkpt><trkpt lat="39.82696828548753" lon="8.765207807335972"><ele>592.0</ele><time>2026-05-03T06:31:33.999Z</time></trkpt><trkpt lat="39.826943301101245" lon="8.765082067950722"><ele>592.0</ele><time>2026-05-03T06:31:34.999Z</time></trkpt><trkpt lat="39.82692822936599" lon="8.764952727397036"><ele>592.0</ele><time>2026-05-03T06:31:35.999Z</time></trkpt><trkpt lat="39.82692051813802" lon="8.764825030582557"><ele>592.0</ele><time>2026-05-03T06:31:36.999Z</time></trkpt><trkpt lat="39.82690553824187" lon="8.764709578012074"><ele>592.2</ele><time>2026-05-03T06:31:37.999Z</time></trkpt><trkpt lat="39.82689015013083" lon="8.764611444283117"><ele>592.4000000000001</ele><time>2026-05-03T06:31:38.999Z</time></trkpt><trkpt lat="39.82686612226322" lon="8.764484933909836"><ele>592.5999999999999</ele><time>2026-05-03T06:31:39.999Z</time></trkpt><trkpt lat="39.82683557331044" lon="8.764357143885107"><ele>592.8</ele><time>2026-05-03T06:31:40.999Z</time></trkpt><trkpt lat="39.82683234512859" lon="8.764235972220515"><ele>593.0</ele><time>2026-05-03T06:31:41.999Z</time></trkpt><trkpt lat="39.826862874599904" lon="8.764110948218196"><ele>592.6</ele><time>2026-05-03T06:31:42.999Z</time></trkpt><trkpt lat="39.82689103940416" lon="8.763991822115743"><ele>592.1999999999999</ele><time>2026-05-03T06:31:43.999Z</time></trkpt><trkpt lat="39.82689908051565" lon="8.763866092123612"><ele>591.8</ele><time>2026-05-03T06:31:44.999Z</time></trkpt><trkpt lat="39.82690242244185" lon="8.763711759739225"><ele>591.4</ele><time>2026-05-03T06:31:45.999Z</time></trkpt><trkpt lat="39.826899614157774" lon="8.763552504356985"><ele>591.0</ele><time>2026-05-03T06:31:46.999Z</time></trkpt><trkpt lat="39.82690123691871" lon="8.76339656146944"><ele>590.0</ele><time>2026-05-03T06:31:47.999Z</time></trkpt><trkpt lat="39.826900321805326" lon="8.763245807994146"><ele>589.0</ele><time>2026-05-03T06:31:48.999Z</time></trkpt><trkpt lat="39.82689221485288" lon="8.763093804507655"><ele>588.0</ele><time>2026-05-03T06:31:49.999Z</time></trkpt><trkpt lat="39.82688668209497" lon="8.76296177114889"><ele>587.0</ele><time>2026-05-03T06:31:50.999Z</time></trkpt><trkpt lat="39.82688109062424" lon="8.76286891764449"><ele>586.0</ele><time>2026-05-03T06:31:52.999Z</time></trkpt><trkpt lat="39.82679856910639" lon="8.762851308168976"><ele>586.0</ele><time>2026-05-03T06:31:54.999Z</time></trkpt><trkpt lat="39.82672817344809" lon="8.762861830345578"><ele>586.0</ele><time>2026-05-03T06:31:55.999Z</time></trkpt><trkpt lat="39.82664055716258" lon="8.76285502187191"><ele>586.0</ele><time>2026-05-03T06:31:56.999Z</time></trkpt><trkpt lat="39.82654408893215" lon="8.762856269857897"><ele>586.0</ele><time>2026-05-03T06:31:57.999Z</time></trkpt><trkpt lat="39.82645113761176" lon="8.762886302405025"><ele>586.0</ele><time>2026-05-03T06:31:58.999Z</time></trkpt><trkpt lat="39.82635748387327" lon="8.762923500680703"><ele>586.0</ele><time>2026-05-03T06:31:59.999Z</time></trkpt><trkpt lat="39.8262729029515" lon="8.762952808611686"><ele>586.0</ele><time>2026-05-03T06:32:00.999Z</time></trkpt><trkpt lat="39.826197363553554" lon="8.762994541570945"><ele>586.0</ele><time>2026-05-03T06:32:01.999Z</time></trkpt><trkpt lat="39.82612589603038" lon="8.763071829125781"><ele>586.0</ele><time>2026-05-03T06:32:02.999Z</time></trkpt><trkpt lat="39.82605073953476" lon="8.763161970953265"><ele>586.0</ele><time>2026-05-03T06:32:03.999Z</time></trkpt><trkpt lat="39.82598832431988" lon="8.763256313548098"><ele>586.0</ele><time>2026-05-03T06:32:04.999Z</time></trkpt><trkpt lat="39.82593921424525" lon="8.763351204451547"><ele>583.8333333333334</ele><time>2026-05-03T06:32:05.999Z</time></trkpt><trkpt lat="39.825878354495465" lon="8.763457337855499"><ele>581.6666666666667</ele><time>2026-05-03T06:32:06.999Z</time></trkpt><trkpt lat="39.825822681611925" lon="8.763547549097664"><ele>579.5</ele><time>2026-05-03T06:32:07.999Z</time></trkpt><trkpt lat="39.82577941673596" lon="8.76361667785648"><ele>577.3333333333334</ele><time>2026-05-03T06:32:08.999Z</time></trkpt><trkpt lat="39.82571927970426" lon="8.763681328593355"><ele>575.1666666666666</ele><time>2026-05-03T06:32:10.999Z</time></trkpt><trkpt lat="39.825651664952865" lon="8.76372857321991"><ele>573.0</ele><time>2026-05-03T06:32:12.999Z</time></trkpt><trkpt lat="39.82554306960889" lon="8.76381405026011"><ele>573.0</ele><time>2026-05-03T06:32:14.999Z</time></trkpt><trkpt lat="39.82548057312075" lon="8.763862340987215"><ele>573.0</ele><time>2026-05-03T06:32:15.999Z</time></trkpt><trkpt lat="39.82541206993135" lon="8.763907656358803"><ele>573.0</ele><time>2026-05-03T06:32:16.999Z</time></trkpt><trkpt lat="39.825340848269185" lon="8.763944282235622"><ele>573.0</ele><time>2026-05-03T06:32:17.999Z</time></trkpt><trkpt lat="39.825264449144136" lon="8.76398007095111"><ele>573.0</ele><time>2026-05-03T06:32:18.999Z</time></trkpt><trkpt lat="39.82519118287596" lon="8.764022068272993"><ele>573.0</ele><time>2026-05-03T06:32:19.999Z</time></trkpt><trkpt lat="39.82512334764041" lon="8.764074892500293"><ele>569.1666666666666</ele><time>2026-05-03T06:32:20.999Z</time></trkpt><trkpt lat="39.82506115231355" lon="8.764127192808898"><ele>565.3333333333334</ele><time>2026-05-03T06:32:21.999Z</time></trkpt><trkpt lat="39.82499403486681" lon="8.7641864466389"><ele>561.5</ele><time>2026-05-03T06:32:22.999Z</time></trkpt><trkpt lat="39.82493812460559" lon="8.76426194479668"><ele>557.6666666666667</ele><time>2026-05-03T06:32:23.998Z</time></trkpt><trkpt lat="39.824890313189165" lon="8.764339019466568"><ele>553.8333333333334</ele><time>2026-05-03T06:32:24.998Z</time></trkpt><trkpt lat="39.82482824364283" lon="8.76441296770841"><ele>550.0</ele><time>2026-05-03T06:32:25.998Z</time></trkpt><trkpt lat="39.824765526846704" lon="8.764494241629574"><ele>550.0</ele><time>2026-05-03T06:32:26.998Z</time></trkpt><trkpt lat="39.82471117947121" lon="8.764563599665358"><ele>550.0</ele><time>2026-05-03T06:32:27.998Z</time></trkpt><trkpt lat="39.82465574004155" lon="8.764614031830991"><ele>550.0</ele><time>2026-05-03T06:32:28.998Z</time></trkpt><trkpt lat="39.82457103431823" lon="8.76463442386986"><ele>550.0</ele><time>2026-05-03T06:32:30.998Z</time></trkpt><trkpt lat="39.82453629333838" lon="8.76456274810047"><ele>550.0</ele><time>2026-05-03T06:32:32.998Z</time></trkpt><trkpt lat="39.82456938317103" lon="8.764412067099412"><ele>550.0</ele><time>2026-05-03T06:32:34.998Z</time></trkpt><trkpt lat="39.82460814032916" lon="8.764311694989741"><ele>550.0</ele><time>2026-05-03T06:32:35.998Z</time></trkpt><trkpt lat="39.824638015390015" lon="8.764195735845044"><ele>550.0</ele><time>2026-05-03T06:32:36.998Z</time></trkpt><trkpt lat="39.82466163677589" lon="8.764079468355897"><ele>550.0</ele><time>2026-05-03T06:32:38Z</time></trkpt><trkpt lat="39.824685663488445" lon="8.763977927125206"><ele>550.0</ele><time>2026-05-03T06:32:39Z</time></trkpt><trkpt lat="39.824714975670396" lon="8.763860849639439"><ele>550.0</ele><time>2026-05-03T06:32:40Z</time></trkpt><trkpt lat="39.82475271423948" lon="8.763735821464124"><ele>550.0</ele><time>2026-05-03T06:32:41Z</time></trkpt><trkpt lat="39.82480831645339" lon="8.763590025554183"><ele>550.0</ele><time>2026-05-03T06:32:42Z</time></trkpt><trkpt lat="39.824891217405856" lon="8.763410576161272"><ele>550.0</ele><time>2026-05-03T06:32:43Z</time></trkpt><trkpt lat="39.82498457211203" lon="8.763207557838737"><ele>550.6666666666667</ele><time>2026-05-03T06:32:44Z</time></trkpt><trkpt lat="39.825093369288574" lon="8.762973993432162"><ele>551.3333333333334</ele><time>2026-05-03T06:32:45Z</time></trkpt><trkpt lat="39.8251845491102" lon="8.76274131291551"><ele>552.0</ele><time>2026-05-03T06:32:46Z</time></trkpt><trkpt lat="39.825269685640144" lon="8.762520419143506"><ele>557.5</ele><time>2026-05-03T06:32:47Z</time></trkpt><trkpt lat="39.825390975681785" lon="8.762260222124528"><ele>563.0</ele><time>2026-05-03T06:32:48Z</time></trkpt><trkpt lat="39.82549563256334" lon="8.76201297341472"><ele>561.6666666666666</ele><time>2026-05-03T06:32:49Z</time></trkpt><trkpt lat="39.82558460380367" lon="8.761804013757502"><ele>560.3333333333334</ele><time>2026-05-03T06:32:50Z</time></trkpt><trkpt lat="39.82566453749174" lon="8.761618808523622"><ele>559.0</ele><time>2026-05-03T06:32:51Z</time></trkpt><trkpt lat="39.82573937592249" lon="8.761453075227182"><ele>559.0</ele><time>2026-05-03T06:32:52Z</time></trkpt><trkpt lat="39.825806185264426" lon="8.761308125847266"><ele>559.0</ele><time>2026-05-03T06:32:53Z</time></trkpt><trkpt lat="39.82586668845016" lon="8.761175763473979"><ele>559.0</ele><time>2026-05-03T06:32:54Z</time></trkpt><trkpt lat="39.825927094692354" lon="8.761042163728048"><ele>559.0</ele><time>2026-05-03T06:32:55Z</time></trkpt><trkpt lat="39.82597255683824" lon="8.76092997569611"><ele>559.2</ele><time>2026-05-03T06:32:56Z</time></trkpt><trkpt lat="39.8260152845709" lon="8.760842750101704"><ele>559.4</ele><time>2026-05-03T06:32:57Z</time></trkpt><trkpt lat="39.82602119691501" lon="8.760697687203884"><ele>559.6</ele><time>2026-05-03T06:32:59Z</time></trkpt><trkpt lat="39.82592921965719" lon="8.760574989086837"><ele>559.8</ele><time>2026-05-03T06:33:01Z</time></trkpt><trkpt lat="39.82586204163432" lon="8.76054620228715"><ele>560.0</ele><time>2026-05-03T06:33:02Z</time></trkpt><trkpt lat="39.8257583490969" lon="8.760577720751446"><ele>560.0</ele><time>2026-05-03T06:33:03Z</time></trkpt><trkpt lat="39.82564527450542" lon="8.760602493091698"><ele>560.0</ele><time>2026-05-03T06:33:04Z</time></trkpt><trkpt lat="39.825517231482884" lon="8.76061945856637"><ele>560.0</ele><time>2026-05-03T06:33:05Z</time></trkpt><trkpt lat="39.825391807001985" lon="8.760612583601368"><ele>560.0</ele><time>2026-05-03T06:33:06Z</time></trkpt><trkpt lat="39.82527698447601" lon="8.760588128981949"><ele>560.0</ele><time>2026-05-03T06:33:07Z</time></trkpt><trkpt lat="39.82515629268946" lon="8.76053924666359"><ele>560.0</ele><time>2026-05-03T06:33:08Z</time></trkpt><trkpt lat="39.82503444864409" lon="8.760472323996291"><ele>560.0</ele><time>2026-05-03T06:33:09Z</time></trkpt><trkpt lat="39.824915710501834" lon="8.76038987688311"><ele>560.0</ele><time>2026-05-03T06:33:10Z</time></trkpt><trkpt lat="39.824792216721086" lon="8.76030482145244"><ele>559.4</ele><time>2026-05-03T06:33:11Z</time></trkpt><trkpt lat="39.824666871558144" lon="8.76021694965273"><ele>558.8</ele><time>2026-05-03T06:33:12Z</time></trkpt><trkpt lat="39.82458739035292" lon="8.760167470937617"><ele>558.2</ele><time>2026-05-03T06:33:13Z</time></trkpt><trkpt lat="39.82457311431952" lon="8.760079875084969"><ele>557.6</ele><time>2026-05-03T06:33:16Z</time></trkpt><trkpt lat="39.824631006011145" lon="8.759927486959562"><ele>557.0</ele><time>2026-05-03T06:33:18Z</time></trkpt><trkpt lat="39.8246706560856" lon="8.75982614887735"><ele>559.1666666666666</ele><time>2026-05-03T06:33:19Z</time></trkpt><trkpt lat="39.82470492418299" lon="8.759717408733103"><ele>561.3333333333333</ele><time>2026-05-03T06:33:20Z</time></trkpt><trkpt lat="39.82474130088383" lon="8.759618442499248"><ele>563.5</ele><time>2026-05-03T06:33:21Z</time></trkpt><trkpt lat="39.82478696134163" lon="8.759554137069124"><ele>565.6666666666666</ele><time>2026-05-03T06:33:22Z</time></trkpt><trkpt lat="39.824872203245725" lon="8.759560216531733"><ele>567.8333333333334</ele><time>2026-05-03T06:33:24Z</time></trkpt><trkpt lat="39.82492038646117" lon="8.759626302354242"><ele>570.0</ele><time>2026-05-03T06:33:25Z</time></trkpt><trkpt lat="39.82497196179121" lon="8.759713972540686"><ele>570.0</ele><time>2026-05-03T06:33:26Z</time></trkpt><trkpt lat="39.82509065601859" lon="8.759759674621272"><ele>570.0</ele><time>2026-05-03T06:33:27.999Z</time></trkpt><trkpt lat="39.82518725286053" lon="8.75975881191795"><ele>570.0</ele><time>2026-05-03T06:33:28.999Z</time></trkpt><trkpt lat="39.82527727101205" lon="8.759736451372085"><ele>570.0</ele><time>2026-05-03T06:33:29.999Z</time></trkpt><trkpt lat="39.82538399422453" lon="8.759720457590527"><ele>570.0</ele><time>2026-05-03T06:33:30.999Z</time></trkpt><trkpt lat="39.825494164815794" lon="8.759709789232998"><ele>570.8</ele><time>2026-05-03T06:33:31.999Z</time></trkpt><trkpt lat="39.82563213747256" lon="8.759709946722522"><ele>571.6</ele><time>2026-05-03T06:33:32.999Z</time></trkpt><trkpt lat="39.825751065469774" lon="8.759693330152492"><ele>572.4</ele><time>2026-05-03T06:33:33.999Z</time></trkpt><trkpt lat="39.82584491062775" lon="8.759673456520018"><ele>573.2</ele><time>2026-05-03T06:33:34.999Z</time></trkpt><trkpt lat="39.825927644540286" lon="8.75963632449929"><ele>574.0</ele><time>2026-05-03T06:33:35.999Z</time></trkpt><trkpt lat="39.82602513738745" lon="8.759578005544276"><ele>576.0</ele><time>2026-05-03T06:33:36.999Z</time></trkpt><trkpt lat="39.826141858559474" lon="8.759505121555579"><ele>578.0</ele><time>2026-05-03T06:33:37.999Z</time></trkpt><trkpt lat="39.826276317465584" lon="8.759438378334973"><ele>580.0</ele><time>2026-05-03T06:33:38.999Z</time></trkpt><trkpt lat="39.82636887733475" lon="8.759413758113778"><ele>582.0</ele><time>2026-05-03T06:33:39.999Z</time></trkpt><trkpt lat="39.826451167039615" lon="8.75942827009223"><ele>582.0</ele><time>2026-05-03T06:33:40.999Z</time></trkpt><trkpt lat="39.82654663564918" lon="8.759473739433263"><ele>582.0</ele><time>2026-05-03T06:33:41.999Z</time></trkpt><trkpt lat="39.82665979537843" lon="8.759531891489058"><ele>582.0</ele><time>2026-05-03T06:33:42.999Z</time></trkpt><trkpt lat="39.82675490237678" lon="8.759578696408003"><ele>582.0</ele><time>2026-05-03T06:33:43.999Z</time></trkpt><trkpt lat="39.82682031278583" lon="8.759599798916621"><ele>582.0</ele><time>2026-05-03T06:33:44.999Z</time></trkpt><trkpt lat="39.82689496832593" lon="8.759611101843712"><ele>584.6</ele><time>2026-05-03T06:33:45.999Z</time></trkpt><trkpt lat="39.826977417213094" lon="8.759627682501831"><ele>587.2</ele><time>2026-05-03T06:33:46.999Z</time></trkpt><trkpt lat="39.827058226426004" lon="8.759652907972031"><ele>589.8</ele><time>2026-05-03T06:33:47.999Z</time></trkpt><trkpt lat="39.82712560030966" lon="8.75968333399541"><ele>592.4</ele><time>2026-05-03T06:33:48.999Z</time></trkpt><trkpt lat="39.82726847726458" lon="8.759675642467815"><ele>595.0</ele><time>2026-05-03T06:33:50.999Z</time></trkpt><trkpt lat="39.82737602982274" lon="8.759706804789872"><ele>595.0</ele><time>2026-05-03T06:33:51.999Z</time></trkpt><trkpt lat="39.827464352812186" lon="8.759740786108775"><ele>595.0</ele><time>2026-05-03T06:33:52.999Z</time></trkpt><trkpt lat="39.827527326257986" lon="8.75975519928132"><ele>595.0</ele><time>2026-05-03T06:33:53.999Z</time></trkpt><trkpt lat="39.827613566352255" lon="8.759738084306138"><ele>595.0</ele><time>2026-05-03T06:33:55.999Z</time></trkpt><trkpt lat="39.82765966158719" lon="8.759627764253091"><ele>595.0</ele><time>2026-05-03T06:33:58.999Z</time></trkpt><trkpt lat="39.82762009061777" lon="8.75947961857291"><ele>597.6</ele><time>2026-05-03T06:34:00.999Z</time></trkpt><trkpt lat="39.827608339435876" lon="8.759364970629669"><ele>600.2</ele><time>2026-05-03T06:34:01.999Z</time></trkpt><trkpt lat="39.82758752905219" lon="8.759233215753635"><ele>602.8</ele><time>2026-05-03T06:34:02.999Z</time></trkpt><trkpt lat="39.82754807597664" lon="8.75911349586847"><ele>605.4</ele><time>2026-05-03T06:34:03.999Z</time></trkpt><trkpt lat="39.82749662386915" lon="8.75902893295428"><ele>608.0</ele><time>2026-05-03T06:34:04.999Z</time></trkpt><trkpt lat="39.82743126422045" lon="8.758968718539373"><ele>608.0</ele><time>2026-05-03T06:34:05.999Z</time></trkpt><trkpt lat="39.82735228802265" lon="8.758926955461598"><ele>608.0</ele><time>2026-05-03T06:34:06.999Z</time></trkpt><trkpt lat="39.82724831260845" lon="8.758897447437596"><ele>608.0</ele><time>2026-05-03T06:34:07.999Z</time></trkpt><trkpt lat="39.827122681831014" lon="8.758859020777074"><ele>608.0</ele><time>2026-05-03T06:34:08.999Z</time></trkpt><trkpt lat="39.82698257387688" lon="8.75879559533314"><ele>608.0</ele><time>2026-05-03T06:34:09.999Z</time></trkpt><trkpt lat="39.82684088902997" lon="8.758727615143332"><ele>608.0</ele><time>2026-05-03T06:34:10.999Z</time></trkpt><trkpt lat="39.82671937018441" lon="8.758679079354769"><ele>608.0</ele><time>2026-05-03T06:34:11.999Z</time></trkpt><trkpt lat="39.82660833179178" lon="8.758650743747829"><ele>608.0</ele><time>2026-05-03T06:34:12.999Z</time></trkpt><trkpt lat="39.82650567348184" lon="8.75863910590655"><ele>607.5</ele><time>2026-05-03T06:34:13.999Z</time></trkpt><trkpt lat="39.826427150257864" lon="8.758616870271403"><ele>607.0</ele><time>2026-05-03T06:34:14.999Z</time></trkpt><trkpt lat="39.826377444718005" lon="8.758557392253982"><ele>606.5</ele><time>2026-05-03T06:34:15.999Z</time></trkpt><trkpt lat="39.82634219871735" lon="8.75846242782941"><ele>606.0</ele><time>2026-05-03T06:34:16.999Z</time></trkpt><trkpt lat="39.82631185881772" lon="8.758335856795666"><ele>605.5</ele><time>2026-05-03T06:34:17.999Z</time></trkpt><trkpt lat="39.8262859761956" lon="8.758185987066057"><ele>605.0</ele><time>2026-05-03T06:34:18.999Z</time></trkpt><trkpt lat="39.826264131302246" lon="8.758032370872986"><ele>605.0</ele><time>2026-05-03T06:34:19.999Z</time></trkpt><trkpt lat="39.826246042274384" lon="8.757875623340768"><ele>605.0</ele><time>2026-05-03T06:34:20.999Z</time></trkpt><trkpt lat="39.82623777321937" lon="8.757724787993498"><ele>605.0</ele><time>2026-05-03T06:34:21.999Z</time></trkpt><trkpt lat="39.82624722351346" lon="8.757573429221111"><ele>605.0</ele><time>2026-05-03T06:34:22.999Z</time></trkpt><trkpt lat="39.826275274479904" lon="8.757406992907134"><ele>601.75</ele><time>2026-05-03T06:34:23.999Z</time></trkpt><trkpt lat="39.8262980452949" lon="8.757249267809621"><ele>598.5</ele><time>2026-05-03T06:34:24.999Z</time></trkpt><trkpt lat="39.82630415231703" lon="8.757079116436708"><ele>595.25</ele><time>2026-05-03T06:34:25.998Z</time></trkpt><trkpt lat="39.82630543828027" lon="8.756920400080439"><ele>592.0</ele><time>2026-05-03T06:34:26.998Z</time></trkpt><trkpt lat="39.8263066683684" lon="8.75676686715364"><ele>591.5</ele><time>2026-05-03T06:34:27.998Z</time></trkpt><trkpt lat="39.82628874925286" lon="8.756587601586265"><ele>591.0</ele><time>2026-05-03T06:34:28.998Z</time></trkpt><trkpt lat="39.8262574622336" lon="8.75642701761385"><ele>590.5</ele><time>2026-05-03T06:34:29.998Z</time></trkpt><trkpt lat="39.82622904452253" lon="8.756279541230612"><ele>590.0</ele><time>2026-05-03T06:34:30.998Z</time></trkpt><trkpt lat="39.82620330691626" lon="8.756172271702807"><ele>590.0</ele><time>2026-05-03T06:34:31.998Z</time></trkpt><trkpt lat="39.82619340873537" lon="8.756065714523288"><ele>590.0</ele><time>2026-05-03T06:34:32.998Z</time></trkpt><trkpt lat="39.826221015829475" lon="8.755980354809678"><ele>590.0</ele><time>2026-05-03T06:34:33.998Z</time></trkpt><trkpt lat="39.82627441058808" lon="8.755909803877646"><ele>590.0</ele><time>2026-05-03T06:34:34.998Z</time></trkpt><trkpt lat="39.826339985433" lon="8.755867986732696"><ele>590.0</ele><time>2026-05-03T06:34:35.998Z</time></trkpt><trkpt lat="39.8264159641577" lon="8.755847065762255"><ele>590.0</ele><time>2026-05-03T06:34:36.998Z</time></trkpt><trkpt lat="39.82652118161766" lon="8.755848483313754"><ele>588.2</ele><time>2026-05-03T06:34:37.998Z</time></trkpt><trkpt lat="39.82662687893871" lon="8.755852161841192"><ele>586.4</ele><time>2026-05-03T06:34:38.998Z</time></trkpt><trkpt lat="39.826729426277055" lon="8.755831816468515"><ele>584.6</ele><time>2026-05-03T06:34:39.998Z</time></trkpt><trkpt lat="39.82683908476492" lon="8.75581126165858"><ele>582.8</ele><time>2026-05-03T06:34:40.998Z</time></trkpt><trkpt lat="39.82695106326237" lon="8.755799397422358"><ele>581.0</ele><time>2026-05-03T06:34:41.998Z</time></trkpt><trkpt lat="39.82706465812105" lon="8.755786171355668"><ele>581.0</ele><time>2026-05-03T06:34:42.998Z</time></trkpt><trkpt lat="39.82716191985334" lon="8.7557553070385"><ele>581.0</ele><time>2026-05-03T06:34:44Z</time></trkpt><trkpt lat="39.82725455177299" lon="8.755696683218664"><ele>581.0</ele><time>2026-05-03T06:34:45Z</time></trkpt><trkpt lat="39.82735550768357" lon="8.755606905343647"><ele>581.0</ele><time>2026-05-03T06:34:46Z</time></trkpt><trkpt lat="39.827447177975316" lon="8.755506924989172"><ele>581.0</ele><time>2026-05-03T06:34:47Z</time></trkpt><trkpt lat="39.827524444171274" lon="8.755406250310365"><ele>581.0</ele><time>2026-05-03T06:34:48Z</time></trkpt><trkpt lat="39.8276084431251" lon="8.755289705098495"><ele>581.0</ele><time>2026-05-03T06:34:49Z</time></trkpt><trkpt lat="39.82768834423726" lon="8.755172910363164"><ele>581.0</ele><time>2026-05-03T06:34:50Z</time></trkpt><trkpt lat="39.827773392878996" lon="8.755071211844959"><ele>581.0</ele><time>2026-05-03T06:34:51Z</time></trkpt><trkpt lat="39.82786807680719" lon="8.754969233725355"><ele>579.75</ele><time>2026-05-03T06:34:52Z</time></trkpt><trkpt lat="39.827973577681206" lon="8.754877708945045"><ele>578.5</ele><time>2026-05-03T06:34:53Z</time></trkpt><trkpt lat="39.828083658448165" lon="8.754795889513861"><ele>577.25</ele><time>2026-05-03T06:34:54Z</time></trkpt><trkpt lat="39.82820032528665" lon="8.754713848527153"><ele>576.0</ele><time>2026-05-03T06:34:55Z</time></trkpt><trkpt lat="39.82832546288313" lon="8.754618202559714"><ele>576.0</ele><time>2026-05-03T06:34:56Z</time></trkpt><trkpt lat="39.828446236134766" lon="8.754509940513215"><ele>576.0</ele><time>2026-05-03T06:34:57Z</time></trkpt><trkpt lat="39.828549796235095" lon="8.75439645184394"><ele>576.0</ele><time>2026-05-03T06:34:58Z</time></trkpt><trkpt lat="39.82864078859277" lon="8.754283753553624"><ele>576.0</ele><time>2026-05-03T06:34:59Z</time></trkpt><trkpt lat="39.82871834928667" lon="8.754160540574441"><ele>573.8</ele><time>2026-05-03T06:35:00Z</time></trkpt><trkpt lat="39.828771381126046" lon="8.754038795329514"><ele>571.6</ele><time>2026-05-03T06:35:01Z</time></trkpt><trkpt lat="39.82881094942378" lon="8.753925360696849"><ele>569.4</ele><time>2026-05-03T06:35:02Z</time></trkpt><trkpt lat="39.82883843230731" lon="8.753806626025296"><ele>567.2</ele><time>2026-05-03T06:35:03Z</time></trkpt><trkpt lat="39.828848855555165" lon="8.753687969059001"><ele>565.0</ele><time>2026-05-03T06:35:04Z</time></trkpt><trkpt lat="39.82884533993597" lon="8.753577216403043"><ele>565.2</ele><time>2026-05-03T06:35:05Z</time></trkpt><trkpt lat="39.828823949489475" lon="8.75346858319148"><ele>565.4</ele><time>2026-05-03T06:35:06Z</time></trkpt><trkpt lat="39.8287909818958" lon="8.75336433670538"><ele>565.6</ele><time>2026-05-03T06:35:07Z</time></trkpt><trkpt lat="39.82874448409956" lon="8.753256177379525"><ele>565.8</ele><time>2026-05-03T06:35:08Z</time></trkpt><trkpt lat="39.828689689807334" lon="8.753139403966525"><ele>566.0</ele><time>2026-05-03T06:35:09Z</time></trkpt><trkpt lat="39.82862180698984" lon="8.753016103749323"><ele>566.0</ele><time>2026-05-03T06:35:10Z</time></trkpt><trkpt lat="39.828551431045746" lon="8.752903596028046"><ele>566.0</ele><time>2026-05-03T06:35:11Z</time></trkpt><trkpt lat="39.828494666659715" lon="8.752797728020212"><ele>566.0</ele><time>2026-05-03T06:35:12Z</time></trkpt><trkpt lat="39.828457473319126" lon="8.75270941519076"><ele>566.0</ele><time>2026-05-03T06:35:13Z</time></trkpt><trkpt lat="39.82847288772606" lon="8.752610532451174"><ele>566.0</ele><time>2026-05-03T06:35:15Z</time></trkpt><trkpt lat="39.828567598454846" lon="8.752554954770407"><ele>564.75</ele><time>2026-05-03T06:35:18Z</time></trkpt><trkpt lat="39.8286587132561" lon="8.752502866814227"><ele>563.5</ele><time>2026-05-03T06:35:19Z</time></trkpt><trkpt lat="39.82876960343151" lon="8.752434062161905"><ele>562.25</ele><time>2026-05-03T06:35:20Z</time></trkpt><trkpt lat="39.82889145549658" lon="8.75235432513277"><ele>561.0</ele><time>2026-05-03T06:35:21Z</time></trkpt><trkpt lat="39.829005180121925" lon="8.752291105859493"><ele>561.0</ele><time>2026-05-03T06:35:22Z</time></trkpt><trkpt lat="39.8291125799186" lon="8.752243362070638"><ele>561.0</ele><time>2026-05-03T06:35:23Z</time></trkpt><trkpt lat="39.82922220093648" lon="8.752186296467185"><ele>561.0</ele><time>2026-05-03T06:35:24Z</time></trkpt><trkpt lat="39.82933322579141" lon="8.752127417630303"><ele>561.0</ele><time>2026-05-03T06:35:25Z</time></trkpt><trkpt lat="39.82943263457395" lon="8.752054065530459"><ele>557.8</ele><time>2026-05-03T06:35:26Z</time></trkpt><trkpt lat="39.829515598108316" lon="8.751980918343294"><ele>554.6</ele><time>2026-05-03T06:35:27Z</time></trkpt><trkpt lat="39.82959907368536" lon="8.75193432046426"><ele>551.4</ele><time>2026-05-03T06:35:28Z</time></trkpt><trkpt lat="39.82969474545577" lon="8.75191502034921"><ele>548.2</ele><time>2026-05-03T06:35:29Z</time></trkpt><trkpt lat="39.829814132325474" lon="8.751884768964842"><ele>545.0</ele><time>2026-05-03T06:35:29.999Z</time></trkpt><trkpt lat="39.82991209525838" lon="8.751836988947968"><ele>545.0</ele><time>2026-05-03T06:35:30.999Z</time></trkpt><trkpt lat="39.82999716158595" lon="8.75177649353219"><ele>545.0</ele><time>2026-05-03T06:35:31.999Z</time></trkpt><trkpt lat="39.83007646478452" lon="8.751704471461673"><ele>545.0</ele><time>2026-05-03T06:35:32.999Z</time></trkpt><trkpt lat="39.83015227895758" lon="8.751657843017027"><ele>545.0</ele><time>2026-05-03T06:35:33.999Z</time></trkpt><trkpt lat="39.83022523930457" lon="8.751642313167958"><ele>545.0</ele><time>2026-05-03T06:35:34.999Z</time></trkpt><trkpt lat="39.83029666806499" lon="8.751630345433814"><ele>545.0</ele><time>2026-05-03T06:35:35.999Z</time></trkpt><trkpt lat="39.83036213657061" lon="8.751610793802138"><ele>542.8333333333333</ele><time>2026-05-03T06:35:36.999Z</time></trkpt><trkpt lat="39.83042016547679" lon="8.75157053152773"><ele>540.6666666666666</ele><time>2026-05-03T06:35:37.999Z</time></trkpt><trkpt lat="39.8304715744164" lon="8.751504061284635"><ele>538.5</ele><time>2026-05-03T06:35:38.999Z</time></trkpt><trkpt lat="39.83051788623022" lon="8.751438033759989"><ele>536.3333333333334</ele><time>2026-05-03T06:35:39.999Z</time></trkpt><trkpt lat="39.830587763056776" lon="8.751349519383506"><ele>534.1666666666667</ele><time>2026-05-03T06:35:41.999Z</time></trkpt><trkpt lat="39.83064885343506" lon="8.751291460332904"><ele>532.0</ele><time>2026-05-03T06:35:43.999Z</time></trkpt><trkpt lat="39.830722885204096" lon="8.751258665279389"><ele>532.0</ele><time>2026-05-03T06:35:45.999Z</time></trkpt><trkpt lat="39.830782928076204" lon="8.751342638808634"><ele>532.0</ele><time>2026-05-03T06:35:48.999Z</time></trkpt><trkpt lat="39.83074853461517" lon="8.751509063361052"><ele>532.0</ele><time>2026-05-03T06:35:50.999Z</time></trkpt><trkpt lat="39.83071825408978" lon="8.751626694365811"><ele>532.0</ele><time>2026-05-03T06:35:51.999Z</time></trkpt><trkpt lat="39.83068567544102" lon="8.751748466430902"><ele>532.0</ele><time>2026-05-03T06:35:52.999Z</time></trkpt><trkpt lat="39.830659508315755" lon="8.751852666381266"><ele>530.1428571428571</ele><time>2026-05-03T06:35:53.999Z</time></trkpt><trkpt lat="39.83064129491946" lon="8.751942790778774"><ele>528.2857142857142</ele><time>2026-05-03T06:35:54.999Z</time></trkpt><trkpt lat="39.83061988897384" lon="8.75202796188256"><ele>526.4285714285714</ele><time>2026-05-03T06:35:55.999Z</time></trkpt><trkpt lat="39.83059251596051" lon="8.752104164296385"><ele>524.5714285714286</ele><time>2026-05-03T06:35:56.999Z</time></trkpt><trkpt lat="39.83055237874444" lon="8.752175348458952"><ele>522.7142857142857</ele><time>2026-05-03T06:35:57.999Z</time></trkpt><trkpt lat="39.83050647605444" lon="8.752255049816045"><ele>520.8571428571429</ele><time>2026-05-03T06:35:58.999Z</time></trkpt><trkpt lat="39.83046836353156" lon="8.752327976006917"><ele>519.0</ele><time>2026-05-03T06:35:59.999Z</time></trkpt><trkpt lat="39.8303992542965" lon="8.752458049050968"><ele>519.0</ele><time>2026-05-03T06:36:01.999Z</time></trkpt><trkpt lat="39.83031972410429" lon="8.752537582569191"><ele>519.0</ele><time>2026-05-03T06:36:03.999Z</time></trkpt><trkpt lat="39.830259324191395" lon="8.75256753753962"><ele>519.0</ele><time>2026-05-03T06:36:04.999Z</time></trkpt><trkpt lat="39.83019444114425" lon="8.752598834679496"><ele>519.0</ele><time>2026-05-03T06:36:05.999Z</time></trkpt><trkpt lat="39.830136562992585" lon="8.7526335570487"><ele>519.0</ele><time>2026-05-03T06:36:06.999Z</time></trkpt><trkpt lat="39.83009716796409" lon="8.752745729893515"><ele>519.0</ele><time>2026-05-03T06:36:08.999Z</time></trkpt><trkpt lat="39.83012605035228" lon="8.752827287048726"><ele>518.0</ele><time>2026-05-03T06:36:09.999Z</time></trkpt><trkpt lat="39.8301745943937" lon="8.752946643884112"><ele>517.0</ele><time>2026-05-03T06:36:10.999Z</time></trkpt><trkpt lat="39.830224508926904" lon="8.753090258814339"><ele>516.0</ele><time>2026-05-03T06:36:11.999Z</time></trkpt><trkpt lat="39.83026562139008" lon="8.753230277275533"><ele>515.0</ele><time>2026-05-03T06:36:12.999Z</time></trkpt><trkpt lat="39.83028398061637" lon="8.753377136853194"><ele>515.0</ele><time>2026-05-03T06:36:13.999Z</time></trkpt><trkpt lat="39.83027927416924" lon="8.753529512613534"><ele>515.0</ele><time>2026-05-03T06:36:14.999Z</time></trkpt><trkpt lat="39.830261759881346" lon="8.753691260064853"><ele>515.0</ele><time>2026-05-03T06:36:15.999Z</time></trkpt><trkpt lat="39.83022783641009" lon="8.753882760236243"><ele>515.0</ele><time>2026-05-03T06:36:16.999Z</time></trkpt><trkpt lat="39.83019377587147" lon="8.75406782341084"><ele>516.0</ele><time>2026-05-03T06:36:17.999Z</time></trkpt><trkpt lat="39.83018278960596" lon="8.754212227007113"><ele>517.0</ele><time>2026-05-03T06:36:18.999Z</time></trkpt><trkpt lat="39.83020633417416" lon="8.754342818026903"><ele>518.0</ele><time>2026-05-03T06:36:19.999Z</time></trkpt><trkpt lat="39.83024265544059" lon="8.754444421312277"><ele>519.0</ele><time>2026-05-03T06:36:20.999Z</time></trkpt><trkpt lat="39.83028852500389" lon="8.754505913230792"><ele>520.0</ele><time>2026-05-03T06:36:21.999Z</time></trkpt><trkpt lat="39.830397090702135" lon="8.754508847528411"><ele>520.0</ele><time>2026-05-03T06:36:23.999Z</time></trkpt><trkpt lat="39.8303217610529" lon="8.754636328837815"><ele>520.0</ele><time>2026-05-03T06:36:30.998Z</time></trkpt><trkpt lat="39.83024088751201" lon="8.754691717088567"><ele>520.0</ele><time>2026-05-03T06:36:31.998Z</time></trkpt><trkpt lat="39.8301658861463" lon="8.754745679454478"><ele>520.0</ele><time>2026-05-03T06:36:32.998Z</time></trkpt><trkpt lat="39.8301184867019" lon="8.754853154882793"><ele>520.0</ele><time>2026-05-03T06:36:33.998Z</time></trkpt><trkpt lat="39.83010174830172" lon="8.754948843826988"><ele>521.0</ele><time>2026-05-03T06:36:34.998Z</time></trkpt><trkpt lat="39.83010695188132" lon="8.755036649170487"><ele>522.0</ele><time>2026-05-03T06:36:35.998Z</time></trkpt><trkpt lat="39.83013771293122" lon="8.755128795764112"><ele>523.0</ele><time>2026-05-03T06:36:36.998Z</time></trkpt><trkpt lat="39.83019582828502" lon="8.755220150968578"><ele>524.0</ele><time>2026-05-03T06:36:37.998Z</time></trkpt><trkpt lat="39.830261328282404" lon="8.755307360405574"><ele>525.0</ele><time>2026-05-03T06:36:38.998Z</time></trkpt><trkpt lat="39.830322845696244" lon="8.755346829351227"><ele>526.0</ele><time>2026-05-03T06:36:39.998Z</time></trkpt><trkpt lat="39.830416458193056" lon="8.755371274396644"><ele>526.75</ele><time>2026-05-03T06:36:40.998Z</time></trkpt><trkpt lat="39.83055081684251" lon="8.755407407521847"><ele>527.5</ele><time>2026-05-03T06:36:41.998Z</time></trkpt><trkpt lat="39.8307091230977" lon="8.75544323298184"><ele>528.25</ele><time>2026-05-03T06:36:42.998Z</time></trkpt><trkpt lat="39.8308554583647" lon="8.755468849394124"><ele>529.0</ele><time>2026-05-03T06:36:43.998Z</time></trkpt><trkpt lat="39.83098840138056" lon="8.755472555821054"><ele>529.0</ele><time>2026-05-03T06:36:44.998Z</time></trkpt><trkpt lat="39.83113034466654" lon="8.755454085994158"><ele>529.0</ele><time>2026-05-03T06:36:45.998Z</time></trkpt><trkpt lat="39.83128498073215" lon="8.755417808678667"><ele>529.0</ele><time>2026-05-03T06:36:46.998Z</time></trkpt><trkpt lat="39.83142632144798" lon="8.755392590463067"><ele>529.0</ele><time>2026-05-03T06:36:47.998Z</time></trkpt><trkpt lat="39.831547626579244" lon="8.755391379080809"><ele>529.0</ele><time>2026-05-03T06:36:48.998Z</time></trkpt><trkpt lat="39.83165277772088" lon="8.755368138521032"><ele>529.0</ele><time>2026-05-03T06:36:50Z</time></trkpt><trkpt lat="39.831788895441804" lon="8.755298128719808"><ele>529.0</ele><time>2026-05-03T06:36:51Z</time></trkpt><trkpt lat="39.83194539795886" lon="8.755253422382948"><ele>529.0</ele><time>2026-05-03T06:36:52Z</time></trkpt><trkpt lat="39.83211282710055" lon="8.75523658498879"><ele>529.0</ele><time>2026-05-03T06:36:53Z</time></trkpt><trkpt lat="39.83228443171692" lon="8.755247679189575"><ele>529.0</ele><time>2026-05-03T06:36:54Z</time></trkpt><trkpt lat="39.83243821922243" lon="8.755259124335456"><ele>529.0</ele><time>2026-05-03T06:36:55Z</time></trkpt><trkpt lat="39.83257767823752" lon="8.755270967003588"><ele>530.5</ele><time>2026-05-03T06:36:56Z</time></trkpt><trkpt lat="39.83269743604095" lon="8.75528187760702"><ele>532.0</ele><time>2026-05-03T06:36:57Z</time></trkpt><trkpt lat="39.832839175258904" lon="8.755260185914588"><ele>533.5</ele><time>2026-05-03T06:36:58Z</time></trkpt><trkpt lat="39.8329713577766" lon="8.75521806784373"><ele>535.0</ele><time>2026-05-03T06:36:59Z</time></trkpt><trkpt lat="39.833104241603664" lon="8.75515731332441"><ele>531.3333333333334</ele><time>2026-05-03T06:37:00Z</time></trkpt><trkpt lat="39.83324973597187" lon="8.755087494553079"><ele>527.6666666666666</ele><time>2026-05-03T06:37:01Z</time></trkpt><trkpt lat="39.833413941150354" lon="8.755027325926873"><ele>524.0</ele><time>2026-05-03T06:37:02Z</time></trkpt><trkpt lat="39.83354077327455" lon="8.754962062646829"><ele>524.0</ele><time>2026-05-03T06:37:03Z</time></trkpt><trkpt lat="39.83364144245816" lon="8.754896823685245"><ele>524.0</ele><time>2026-05-03T06:37:04Z</time></trkpt><trkpt lat="39.83374901538016" lon="8.754845172270004"><ele>524.0</ele><time>2026-05-03T06:37:05Z</time></trkpt><trkpt lat="39.833875322541836" lon="8.754771308676492"><ele>524.0</ele><time>2026-05-03T06:37:06Z</time></trkpt><trkpt lat="39.83399183540865" lon="8.754677492508247"><ele>524.0</ele><time>2026-05-03T06:37:07Z</time></trkpt><trkpt lat="39.834082923216606" lon="8.754591322469834"><ele>524.0</ele><time>2026-05-03T06:37:08Z</time></trkpt><trkpt lat="39.834163794849836" lon="8.754513427207764"><ele>524.0</ele><time>2026-05-03T06:37:09Z</time></trkpt><trkpt lat="39.83424882203388" lon="8.754438730596918"><ele>524.0</ele><time>2026-05-03T06:37:10Z</time></trkpt><trkpt lat="39.83435489615974" lon="8.754363865173456"><ele>524.0</ele><time>2026-05-03T06:37:11Z</time></trkpt><trkpt lat="39.83445993561665" lon="8.7542886154958"><ele>521.1666666666666</ele><time>2026-05-03T06:37:12Z</time></trkpt><trkpt lat="39.83454111344377" lon="8.75423209825466"><ele>518.3333333333333</ele><time>2026-05-03T06:37:13Z</time></trkpt><trkpt lat="39.83460574513746" lon="8.7541732687383"><ele>515.5</ele><time>2026-05-03T06:37:14Z</time></trkpt><trkpt lat="39.83467669496835" lon="8.75410158941825"><ele>512.6666666666666</ele><time>2026-05-03T06:37:15Z</time></trkpt><trkpt lat="39.83474717674191" lon="8.754026540250843"><ele>509.8333333333333</ele><time>2026-05-03T06:37:16Z</time></trkpt><trkpt lat="39.8348092577872" lon="8.753965263567848"><ele>507.0</ele><time>2026-05-03T06:37:17Z</time></trkpt><trkpt lat="39.834917635347956" lon="8.753898950776836"><ele>507.0</ele><time>2026-05-03T06:37:19Z</time></trkpt><trkpt lat="39.83498310673518" lon="8.753845229794768"><ele>507.0</ele><time>2026-05-03T06:37:20Z</time></trkpt><trkpt lat="39.835047990008235" lon="8.753788115101676"><ele>507.0</ele><time>2026-05-03T06:37:21Z</time></trkpt><trkpt lat="39.83512687884453" lon="8.753749111625135"><ele>507.0</ele><time>2026-05-03T06:37:22Z</time></trkpt><trkpt lat="39.83522838701761" lon="8.753712157711476"><ele>507.0</ele><time>2026-05-03T06:37:23Z</time></trkpt><trkpt lat="39.835317738021025" lon="8.753683885472128"><ele>507.0</ele><time>2026-05-03T06:37:24Z</time></trkpt><trkpt lat="39.83539735727993" lon="8.753666630300549"><ele>509.40000000000003</ele><time>2026-05-03T06:37:25Z</time></trkpt><trkpt lat="39.83548871624425" lon="8.753642201994534"><ele>511.80000000000007</ele><time>2026-05-03T06:37:26Z</time></trkpt><trkpt lat="39.83555630156454" lon="8.753607241600674"><ele>514.2</ele><time>2026-05-03T06:37:27Z</time></trkpt><trkpt lat="39.8356331992106" lon="8.753568535448093"><ele>516.6</ele><time>2026-05-03T06:37:28Z</time></trkpt><trkpt lat="39.835732002968406" lon="8.753479966491254"><ele>519.0</ele><time>2026-05-03T06:37:29Z</time></trkpt><trkpt lat="39.835843139704785" lon="8.753357733030779"><ele>517.0</ele><time>2026-05-03T06:37:30Z</time></trkpt><trkpt lat="39.83596533868599" lon="8.75320850530103"><ele>515.0</ele><time>2026-05-03T06:37:31Z</time></trkpt><trkpt lat="39.83606363993488" lon="8.753086545683384"><ele>513.0</ele><time>2026-05-03T06:37:32Z</time></trkpt><trkpt lat="39.836155273619504" lon="8.752971135354475"><ele>511.0</ele><time>2026-05-03T06:37:32.999Z</time></trkpt><trkpt lat="39.83622776242663" lon="8.752858073826063"><ele>511.0</ele><time>2026-05-03T06:37:33.999Z</time></trkpt><trkpt lat="39.83629012208689" lon="8.752759603656587"><ele>511.0</ele><time>2026-05-03T06:37:34.999Z</time></trkpt><trkpt lat="39.83633543873633" lon="8.752664636119805"><ele>511.0</ele><time>2026-05-03T06:37:35.999Z</time></trkpt><trkpt lat="39.836375186318584" lon="8.752550451452032"><ele>511.0</ele><time>2026-05-03T06:37:36.999Z</time></trkpt><trkpt lat="39.83641388668995" lon="8.752445724117981"><ele>511.0</ele><time>2026-05-03T06:37:37.999Z</time></trkpt><trkpt lat="39.83643763301881" lon="8.752339494635308"><ele>506.20000000000005</ele><time>2026-05-03T06:37:38.999Z</time></trkpt><trkpt lat="39.83647431568869" lon="8.752227055417121"><ele>501.40000000000003</ele><time>2026-05-03T06:37:39.999Z</time></trkpt><trkpt lat="39.83653118399698" lon="8.752105697577115"><ele>496.6</ele><time>2026-05-03T06:37:40.999Z</time></trkpt><trkpt lat="39.83657102454262" lon="8.752004065733228"><ele>491.8</ele><time>2026-05-03T06:37:41.999Z</time></trkpt><trkpt lat="39.83660667906064" lon="8.75190582943233"><ele>487.0</ele><time>2026-05-03T06:37:42.999Z</time></trkpt><trkpt lat="39.836635115049226" lon="8.75181202820002"><ele>486.6666666666667</ele><time>2026-05-03T06:37:43.999Z</time></trkpt><trkpt lat="39.836675966471255" lon="8.751702237606183"><ele>486.33333333333337</ele><time>2026-05-03T06:37:44.999Z</time></trkpt><trkpt lat="39.83670326681059" lon="8.751604043654371"><ele>486.0</ele><time>2026-05-03T06:37:45.999Z</time></trkpt><trkpt lat="39.83672725405959" lon="8.751514354013798"><ele>485.66666666666663</ele><time>2026-05-03T06:37:46.999Z</time></trkpt><trkpt lat="39.83675826797023" lon="8.751438968982542"><ele>485.3333333333333</ele><time>2026-05-03T06:37:47.999Z</time></trkpt><trkpt lat="39.836799844952694" lon="8.751373927911013"><ele>485.0</ele><time>2026-05-03T06:37:48.999Z</time></trkpt><trkpt lat="39.83686689997907" lon="8.751264423974106"><ele>485.00000000000006</ele><time>2026-05-03T06:37:50.999Z</time></trkpt><trkpt lat="39.836913157176156" lon="8.75113860051354"><ele>485.0</ele><time>2026-05-03T06:37:52.999Z</time></trkpt><trkpt lat="39.83694677108921" lon="8.751067195445138"><ele>485.00000000000006</ele><time>2026-05-03T06:37:53.999Z</time></trkpt><trkpt lat="39.83699932872059" lon="8.751017176883769"><ele>485.00000000000006</ele><time>2026-05-03T06:37:54.999Z</time></trkpt><trkpt lat="39.83705591826377" lon="8.750972284325334"><ele>485.0</ele><time>2026-05-03T06:37:55.999Z</time></trkpt><trkpt lat="39.83711375019535" lon="8.750920216030142"><ele>485.00000000000006</ele><time>2026-05-03T06:37:56.999Z</time></trkpt><trkpt lat="39.837169648720064" lon="8.750868933179605"><ele>485.00000000000006</ele><time>2026-05-03T06:37:57.999Z</time></trkpt><trkpt lat="39.837226955955515" lon="8.750810662848792"><ele>482.6</ele><time>2026-05-03T06:37:58.999Z</time></trkpt><trkpt lat="39.837293551743464" lon="8.750755012538674"><ele>480.2</ele><time>2026-05-03T06:37:59.999Z</time></trkpt><trkpt lat="39.8373833543212" lon="8.750697322448154"><ele>477.79999999999995</ele><time>2026-05-03T06:38:00.999Z</time></trkpt><trkpt lat="39.837499728229055" lon="8.750615642005185"><ele>475.4</ele><time>2026-05-03T06:38:01.999Z</time></trkpt><trkpt lat="39.83761898025529" lon="8.750526210379551"><ele>473.0</ele><time>2026-05-03T06:38:02.999Z</time></trkpt><trkpt lat="39.83771927398712" lon="8.750453151742763"><ele>473.0</ele><time>2026-05-03T06:38:03.999Z</time></trkpt><trkpt lat="39.83779886063521" lon="8.750377507578854"><ele>473.0</ele><time>2026-05-03T06:38:04.999Z</time></trkpt><trkpt lat="39.83787624178217" lon="8.750281231088362"><ele>473.0</ele><time>2026-05-03T06:38:05.999Z</time></trkpt><trkpt lat="39.83796529982507" lon="8.750159147304933"><ele>473.0</ele><time>2026-05-03T06:38:06.999Z</time></trkpt><trkpt lat="39.838056977711744" lon="8.750052249517964"><ele>468.25</ele><time>2026-05-03T06:38:07.999Z</time></trkpt><trkpt lat="39.83814997210791" lon="8.749949698216774"><ele>463.5</ele><time>2026-05-03T06:38:08.999Z</time></trkpt><trkpt lat="39.838234493599856" lon="8.749837053285285"><ele>458.75</ele><time>2026-05-03T06:38:09.999Z</time></trkpt><trkpt lat="39.83830809342753" lon="8.749727395351144"><ele>454.0</ele><time>2026-05-03T06:38:10.999Z</time></trkpt><trkpt lat="39.83837366435348" lon="8.749622146071898"><ele>454.0</ele><time>2026-05-03T06:38:11.999Z</time></trkpt><trkpt lat="39.83844092019362" lon="8.749517238436137"><ele>454.0</ele><time>2026-05-03T06:38:12.999Z</time></trkpt><trkpt lat="39.8385051226318" lon="8.749393463701743"><ele>454.0</ele><time>2026-05-03T06:38:13.999Z</time></trkpt><trkpt lat="39.83856583647392" lon="8.749246358288008"><ele>454.0</ele><time>2026-05-03T06:38:14.999Z</time></trkpt><trkpt lat="39.838629858089945" lon="8.749103639475496"><ele>452.50000000000006</ele><time>2026-05-03T06:38:15.999Z</time></trkpt><trkpt lat="39.838682611675274" lon="8.74897172387507"><ele>451.0</ele><time>2026-05-03T06:38:16.999Z</time></trkpt><trkpt lat="39.83872965542509" lon="8.748872466781421"><ele>449.5</ele><time>2026-05-03T06:38:17.999Z</time></trkpt><trkpt lat="39.83878361368144" lon="8.748806988147722"><ele>448.0</ele><time>2026-05-03T06:38:18.999Z</time></trkpt><trkpt lat="39.83882831476565" lon="8.74874844232255"><ele>446.50000000000006</ele><time>2026-05-03T06:38:19.999Z</time></trkpt><trkpt lat="39.838866907077396" lon="8.748673746963924"><ele>445.0</ele><time>2026-05-03T06:38:20.999Z</time></trkpt><trkpt lat="39.83889141975106" lon="8.74858947195727"><ele>443.50000000000006</ele><time>2026-05-03T06:38:21.999Z</time></trkpt><trkpt lat="39.83891046248696" lon="8.748493683461737"><ele>442.0</ele><time>2026-05-03T06:38:22.999Z</time></trkpt><trkpt lat="39.83896055580823" lon="8.748360008271842"><ele>440.5</ele><time>2026-05-03T06:38:24.999Z</time></trkpt><trkpt lat="39.83902468186712" lon="8.748278124192453"><ele>439.0</ele><time>2026-05-03T06:38:25.999Z</time></trkpt><trkpt lat="39.83908441787282" lon="8.748213452286986"><ele>437.50000000000006</ele><time>2026-05-03T06:38:26.999Z</time></trkpt><trkpt lat="39.839154678121666" lon="8.74818341148061"><ele>436.0</ele><time>2026-05-03T06:38:27.999Z</time></trkpt><trkpt lat="39.83922582083551" lon="8.74819509853694"><ele>436.00000000000006</ele><time>2026-05-03T06:38:28.999Z</time></trkpt><trkpt lat="39.83929262106657" lon="8.748241103555712"><ele>436.0</ele><time>2026-05-03T06:38:29.999Z</time></trkpt><trkpt lat="39.83935133391071" lon="8.748271899412185"><ele>436.0</ele><time>2026-05-03T06:38:30.999Z</time></trkpt><trkpt lat="39.83947036027863" lon="8.748276035055824"><ele>436.0</ele><time>2026-05-03T06:38:32.998Z</time></trkpt><trkpt lat="39.83955445567276" lon="8.748259856601218"><ele>436.00000000000006</ele><time>2026-05-03T06:38:33.998Z</time></trkpt><trkpt lat="39.83963987799003" lon="8.74825946297992"><ele>436.0</ele><time>2026-05-03T06:38:34.998Z</time></trkpt><trkpt lat="39.83971120234672" lon="8.748288164195362"><ele>435.00000000000006</ele><time>2026-05-03T06:38:35.998Z</time></trkpt><trkpt lat="39.83977492306806" lon="8.748325943603167"><ele>434.0</ele><time>2026-05-03T06:38:36.998Z</time></trkpt><trkpt lat="39.83984077293099" lon="8.748353091278572"><ele>433.0</ele><time>2026-05-03T06:38:37.998Z</time></trkpt><trkpt lat="39.83990156157867" lon="8.748375903335365"><ele>432.0</ele><time>2026-05-03T06:38:38.998Z</time></trkpt><trkpt lat="39.839974973282494" lon="8.748388503408153"><ele>431.00000000000006</ele><time>2026-05-03T06:38:42.998Z</time></trkpt><trkpt lat="39.84007172968414" lon="8.748218272988094"><ele>430.0</ele><time>2026-05-03T06:38:44.998Z</time></trkpt><trkpt lat="39.84016450212588" lon="8.748121112434347"><ele>428.2</ele><time>2026-05-03T06:38:45.998Z</time></trkpt><trkpt lat="39.84027865678309" lon="8.748046452481338"><ele>426.4</ele><time>2026-05-03T06:38:46.998Z</time></trkpt><trkpt lat="39.840371202310884" lon="8.747974835143967"><ele>424.6</ele><time>2026-05-03T06:38:47.998Z</time></trkpt><trkpt lat="39.84045080189418" lon="8.747913629974716"><ele>422.8</ele><time>2026-05-03T06:38:48.998Z</time></trkpt><trkpt lat="39.840504068387474" lon="8.747860292889436"><ele>421.0</ele><time>2026-05-03T06:38:49.998Z</time></trkpt><trkpt lat="39.84057488270818" lon="8.747699025193436"><ele>420.1666666666667</ele><time>2026-05-03T06:38:51.998Z</time></trkpt><trkpt lat="39.84061928728983" lon="8.74759912307007"><ele>419.33333333333337</ele><time>2026-05-03T06:38:52.998Z</time></trkpt><trkpt lat="39.84066936403873" lon="8.747523052552923"><ele>418.5</ele><time>2026-05-03T06:38:53.998Z</time></trkpt><trkpt lat="39.84072687954646" lon="8.747476587302234"><ele>417.66666666666663</ele><time>2026-05-03T06:38:54.998Z</time></trkpt><trkpt lat="39.84079059732508" lon="8.747450859809414"><ele>416.8333333333333</ele><time>2026-05-03T06:38:56Z</time></trkpt><trkpt lat="39.840871991660634" lon="8.747441223605897"><ele>416.0</ele><time>2026-05-03T06:38:57Z</time></trkpt><trkpt lat="39.84097477780868" lon="8.747434407403164"><ele>413.5</ele><time>2026-05-03T06:38:58Z</time></trkpt><trkpt lat="39.841085831581545" lon="8.747415591142653"><ele>411.0</ele><time>2026-05-03T06:38:59Z</time></trkpt><trkpt lat="39.8411994084202" lon="8.747386318234284"><ele>408.5</ele><time>2026-05-03T06:39:00Z</time></trkpt><trkpt lat="39.841311502908475" lon="8.747353439119244"><ele>406.0</ele><time>2026-05-03T06:39:01Z</time></trkpt><trkpt lat="39.84141936345611" lon="8.74734041402086"><ele>406.0</ele><time>2026-05-03T06:39:02Z</time></trkpt><trkpt lat="39.84151764909021" lon="8.747340880145984"><ele>406.0</ele><time>2026-05-03T06:39:03Z</time></trkpt><trkpt lat="39.84161336076301" lon="8.747322498826561"><ele>406.0</ele><time>2026-05-03T06:39:04Z</time></trkpt><trkpt lat="39.841710273839354" lon="8.747282549663176"><ele>406.0</ele><time>2026-05-03T06:39:05Z</time></trkpt><trkpt lat="39.84180634960306" lon="8.747239202331818"><ele>406.0</ele><time>2026-05-03T06:39:06Z</time></trkpt><trkpt lat="39.84190632028362" lon="8.747209304640856"><ele>404.20000000000005</ele><time>2026-05-03T06:39:07Z</time></trkpt><trkpt lat="39.842004858555434" lon="8.747166799575817"><ele>402.40000000000003</ele><time>2026-05-03T06:39:08Z</time></trkpt><trkpt lat="39.84211795863147" lon="8.747116799550374"><ele>400.6</ele><time>2026-05-03T06:39:09Z</time></trkpt><trkpt lat="39.84222925471948" lon="8.747077379807283"><ele>398.8</ele><time>2026-05-03T06:39:10Z</time></trkpt><trkpt lat="39.84233226516425" lon="8.747043144553567"><ele>397.0</ele><time>2026-05-03T06:39:11Z</time></trkpt><trkpt lat="39.84242729918865" lon="8.747010047448693"><ele>397.00000000000006</ele><time>2026-05-03T06:39:12Z</time></trkpt><trkpt lat="39.84251723535255" lon="8.746968287639712"><ele>397.0</ele><time>2026-05-03T06:39:13Z</time></trkpt><trkpt lat="39.84260340255926" lon="8.746924609729392"><ele>397.0</ele><time>2026-05-03T06:39:14Z</time></trkpt><trkpt lat="39.84266895666078" lon="8.746907961790479"><ele>397.0</ele><time>2026-05-03T06:39:15Z</time></trkpt><trkpt lat="39.842784335483174" lon="8.746880326435841"><ele>397.00000000000006</ele><time>2026-05-03T06:39:17Z</time></trkpt><trkpt lat="39.84285536061237" lon="8.746863297431288"><ele>397.0</ele><time>2026-05-03T06:39:18Z</time></trkpt><trkpt lat="39.842933928266696" lon="8.746825576835423"><ele>394.83333333333337</ele><time>2026-05-03T06:39:19Z</time></trkpt><trkpt lat="39.84301103387011" lon="8.746779200387921"><ele>392.6666666666667</ele><time>2026-05-03T06:39:20Z</time></trkpt><trkpt lat="39.843091097158435" lon="8.746734414327552"><ele>390.5</ele><time>2026-05-03T06:39:21Z</time></trkpt><trkpt lat="39.843177612417215" lon="8.746715552078347"><ele>388.33333333333337</ele><time>2026-05-03T06:39:22Z</time></trkpt><trkpt lat="39.84326348074144" lon="8.746693633372404"><ele>386.1666666666667</ele><time>2026-05-03T06:39:23Z</time></trkpt><trkpt lat="39.843345481175895" lon="8.746656179374536"><ele>384.0</ele><time>2026-05-03T06:39:24Z</time></trkpt><trkpt lat="39.84343373706028" lon="8.746604390405231"><ele>382.2</ele><time>2026-05-03T06:39:25Z</time></trkpt><trkpt lat="39.84352721317566" lon="8.74656549807098"><ele>380.4</ele><time>2026-05-03T06:39:26Z</time></trkpt><trkpt lat="39.843622905370985" lon="8.746527788138353"><ele>378.6</ele><time>2026-05-03T06:39:27Z</time></trkpt><trkpt lat="39.8437165794676" lon="8.74647748365711"><ele>376.8</ele><time>2026-05-03T06:39:28Z</time></trkpt><trkpt lat="39.84379362086715" lon="8.746423569645646"><ele>375.0</ele><time>2026-05-03T06:39:29Z</time></trkpt><trkpt lat="39.843873900837366" lon="8.746373728671022"><ele>375.0</ele><time>2026-05-03T06:39:30Z</time></trkpt><trkpt lat="39.84395121811456" lon="8.746335970811026"><ele>375.0</ele><time>2026-05-03T06:39:31Z</time></trkpt><trkpt lat="39.84404801284616" lon="8.74631203793273"><ele>375.0</ele><time>2026-05-03T06:39:32Z</time></trkpt><trkpt lat="39.84416409446706" lon="8.746272227811243"><ele>375.0</ele><time>2026-05-03T06:39:33Z</time></trkpt><trkpt lat="39.844247261091894" lon="8.746224729322597"><ele>375.0</ele><time>2026-05-03T06:39:34Z</time></trkpt><trkpt lat="39.84432096110519" lon="8.746199575513785"><ele>373.0</ele><time>2026-05-03T06:39:35Z</time></trkpt><trkpt lat="39.84442198759326" lon="8.74618822117929"><ele>371.0</ele><time>2026-05-03T06:39:35.999Z</time></trkpt><trkpt lat="39.84454310651539" lon="8.746177439259887"><ele>369.0</ele><time>2026-05-03T06:39:36.999Z</time></trkpt><trkpt lat="39.844669236607" lon="8.74606354550577"><ele>367.0</ele><time>2026-05-03T06:39:37.999Z</time></trkpt><trkpt lat="39.84477837962917" lon="8.74606168108422"><ele>367.0</ele><time>2026-05-03T06:39:38.999Z</time></trkpt><trkpt lat="39.844879254583375" lon="8.746056464172366"><ele>367.0</ele><time>2026-05-03T06:39:39.999Z</time></trkpt><trkpt lat="39.84497877088874" lon="8.746047648342037"><ele>367.0</ele><time>2026-05-03T06:39:40.999Z</time></trkpt><trkpt lat="39.84507236974319" lon="8.7460514506206"><ele>367.0</ele><time>2026-05-03T06:39:41.999Z</time></trkpt><trkpt lat="39.845176908863294" lon="8.74605891396222"><ele>367.0</ele><time>2026-05-03T06:39:42.999Z</time></trkpt><trkpt lat="39.845289360774025" lon="8.746028608781035"><ele>363.0</ele><time>2026-05-03T06:39:43.999Z</time></trkpt><trkpt lat="39.84540345382265" lon="8.74601940945041"><ele>359.0</ele><time>2026-05-03T06:39:44.999Z</time></trkpt><trkpt lat="39.845514529893514" lon="8.745974061899698"><ele>355.0</ele><time>2026-05-03T06:39:45.999Z</time></trkpt><trkpt lat="39.84564072817956" lon="8.745920732262425"><ele>351.0</ele><time>2026-05-03T06:39:46.999Z</time></trkpt><trkpt lat="39.845762535575766" lon="8.745880016338413"><ele>351.0</ele><time>2026-05-03T06:39:47.999Z</time></trkpt><trkpt lat="39.845869099187865" lon="8.74584780400985"><ele>351.0</ele><time>2026-05-03T06:39:48.999Z</time></trkpt><trkpt lat="39.84596506317743" lon="8.745816571400296"><ele>351.0</ele><time>2026-05-03T06:39:49.999Z</time></trkpt><trkpt lat="39.84607966195646" lon="8.745795249012762"><ele>351.0</ele><time>2026-05-03T06:39:50.999Z</time></trkpt><trkpt lat="39.84622098472855" lon="8.745774393952779"><ele>349.5</ele><time>2026-05-03T06:39:51.999Z</time></trkpt><trkpt lat="39.84637320114283" lon="8.745746744993767"><ele>348.0</ele><time>2026-05-03T06:39:52.999Z</time></trkpt><trkpt lat="39.84651394662121" lon="8.745713203652134"><ele>346.5</ele><time>2026-05-03T06:39:53.999Z</time></trkpt><trkpt lat="39.84663937170669" lon="8.745682008088778"><ele>345.0</ele><time>2026-05-03T06:39:54.999Z</time></trkpt><trkpt lat="39.84675564648938" lon="8.745650759491236"><ele>343.2</ele><time>2026-05-03T06:39:55.999Z</time></trkpt><trkpt lat="39.84686490161061" lon="8.745624689513573"><ele>341.4</ele><time>2026-05-03T06:39:56.999Z</time></trkpt><trkpt lat="39.84696456965262" lon="8.745596626586613"><ele>339.6</ele><time>2026-05-03T06:39:57.999Z</time></trkpt><trkpt lat="39.84704587270257" lon="8.745559166630843"><ele>337.8</ele><time>2026-05-03T06:39:58.999Z</time></trkpt><trkpt lat="39.84712767675154" lon="8.745520511487054"><ele>336.0</ele><time>2026-05-03T06:39:59.999Z</time></trkpt><trkpt lat="39.84723078978294" lon="8.7454859926501"><ele>336.0</ele><time>2026-05-03T06:40:00.999Z</time></trkpt><trkpt lat="39.8473362160762" lon="8.745447483315871"><ele>336.0</ele><time>2026-05-03T06:40:01.999Z</time></trkpt><trkpt lat="39.84745614146294" lon="8.74540137535307"><ele>336.0</ele><time>2026-05-03T06:40:02.999Z</time></trkpt><trkpt lat="39.847593643573894" lon="8.745364041761581"><ele>336.0</ele><time>2026-05-03T06:40:03.999Z</time></trkpt><trkpt lat="39.84770543962789" lon="8.745332817150869"><ele>332.75</ele><time>2026-05-03T06:40:04.999Z</time></trkpt><trkpt lat="39.84781792347213" lon="8.745291787320339"><ele>329.5</ele><time>2026-05-03T06:40:05.999Z</time></trkpt><trkpt lat="39.84793419001421" lon="8.745245491350698"><ele>326.25</ele><time>2026-05-03T06:40:06.999Z</time></trkpt><trkpt lat="39.848075132106835" lon="8.74521274139682"><ele>323.0</ele><time>2026-05-03T06:40:07.999Z</time></trkpt><trkpt lat="39.848222078256796" lon="8.745216729316724"><ele>321.59999999999997</ele><time>2026-05-03T06:40:08.999Z</time></trkpt><trkpt lat="39.84833896141358" lon="8.745212243907046"><ele>320.2</ele><time>2026-05-03T06:40:09.999Z</time></trkpt><trkpt lat="39.848443830244875" lon="8.745200163345375"><ele>318.8</ele><time>2026-05-03T06:40:10.999Z</time></trkpt><trkpt lat="39.84853672504565" lon="8.745221291848772"><ele>317.4</ele><time>2026-05-03T06:40:11.999Z</time></trkpt><trkpt lat="39.84860756392945" lon="8.74523378494482"><ele>316.0</ele><time>2026-05-03T06:40:12.999Z</time></trkpt><trkpt lat="39.84866989757838" lon="8.745206574224433"><ele>314.0</ele><time>2026-05-03T06:40:13.999Z</time></trkpt><trkpt lat="39.84873160695471" lon="8.745146810675179"><ele>312.0</ele><time>2026-05-03T06:40:14.999Z</time></trkpt><trkpt lat="39.84878990903886" lon="8.745063009527843"><ele>310.0</ele><time>2026-05-03T06:40:15.999Z</time></trkpt><trkpt lat="39.848868148895185" lon="8.744972359461428"><ele>308.0</ele><time>2026-05-03T06:40:16.999Z</time></trkpt><trkpt lat="39.848951070185976" lon="8.74492574866098"><ele>306.0</ele><time>2026-05-03T06:40:17.999Z</time></trkpt><trkpt lat="39.84904230301603" lon="8.744964415663121"><ele>306.0</ele><time>2026-05-03T06:40:18.999Z</time></trkpt><trkpt lat="39.849132497824705" lon="8.744981390280861"><ele>306.0</ele><time>2026-05-03T06:40:19.999Z</time></trkpt><trkpt lat="39.84921996790748" lon="8.74502588791517"><ele>306.0</ele><time>2026-05-03T06:40:20.999Z</time></trkpt><trkpt lat="39.8493177489136" lon="8.745083303596775"><ele>306.0</ele><time>2026-05-03T06:40:21.999Z</time></trkpt><trkpt lat="39.84939398873092" lon="8.745161302856475"><ele>306.0</ele><time>2026-05-03T06:40:22.999Z</time></trkpt><trkpt lat="39.84947181020096" lon="8.745249289765335"><ele>303.75</ele><time>2026-05-03T06:40:23.999Z</time></trkpt><trkpt lat="39.849578920683705" lon="8.745338477293313"><ele>301.5</ele><time>2026-05-03T06:40:24.999Z</time></trkpt><trkpt lat="39.849678011281405" lon="8.745438326134531"><ele>299.25</ele><time>2026-05-03T06:40:25.999Z</time></trkpt><trkpt lat="39.849769288843625" lon="8.745515215104707"><ele>297.0</ele><time>2026-05-03T06:40:26.999Z</time></trkpt><trkpt lat="39.849845420920715" lon="8.745617781927258"><ele>297.0</ele><time>2026-05-03T06:40:27.999Z</time></trkpt><trkpt lat="39.84993436308627" lon="8.745709921064243"><ele>297.0</ele><time>2026-05-03T06:40:28.999Z</time></trkpt><trkpt lat="39.85003386024283" lon="8.745810215463784"><ele>297.0</ele><time>2026-05-03T06:40:29.999Z</time></trkpt><trkpt lat="39.850141657021595" lon="8.745889250373525"><ele>297.0</ele><time>2026-05-03T06:40:30.999Z</time></trkpt><trkpt lat="39.850241094662664" lon="8.745983383778338"><ele>294.6</ele><time>2026-05-03T06:40:31.999Z</time></trkpt><trkpt lat="39.85032570649998" lon="8.746099200022158"><ele>292.2</ele><time>2026-05-03T06:40:32.999Z</time></trkpt><trkpt lat="39.85040884229301" lon="8.74620186825085"><ele>289.8</ele><time>2026-05-03T06:40:33.999Z</time></trkpt><trkpt lat="39.85047605182566" lon="8.746275821132011"><ele>287.4</ele><time>2026-05-03T06:40:34.999Z</time></trkpt><trkpt lat="39.850565352811316" lon="8.74632116518905"><ele>285.0</ele><time>2026-05-03T06:40:36.998Z</time></trkpt><trkpt lat="39.85065795785366" lon="8.746202762321634"><ele>285.0</ele><time>2026-05-03T06:40:38.998Z</time></trkpt><trkpt lat="39.85072880269342" lon="8.746153113545459"><ele>285.0</ele><time>2026-05-03T06:40:39.998Z</time></trkpt><trkpt lat="39.85079524709546" lon="8.746078550727736"><ele>285.0</ele><time>2026-05-03T06:40:40.998Z</time></trkpt><trkpt lat="39.85089562822551" lon="8.74603883503657"><ele>285.0</ele><time>2026-05-03T06:40:41.998Z</time></trkpt><trkpt lat="39.85101786333433" lon="8.745961568429777"><ele>285.0</ele><time>2026-05-03T06:40:42.998Z</time></trkpt><trkpt lat="39.851122288279456" lon="8.745932292421964"><ele>282.8</ele><time>2026-05-03T06:40:43.998Z</time></trkpt><trkpt lat="39.85119112812371" lon="8.745854710224336"><ele>280.6</ele><time>2026-05-03T06:40:44.998Z</time></trkpt><trkpt lat="39.851280827756426" lon="8.745811371555861"><ele>278.4</ele><time>2026-05-03T06:40:45.998Z</time></trkpt><trkpt lat="39.851360916798804" lon="8.745735894544813"><ele>276.2</ele><time>2026-05-03T06:40:46.998Z</time></trkpt><trkpt lat="39.851458916418615" lon="8.74570632550996"><ele>274.0</ele><time>2026-05-03T06:40:47.998Z</time></trkpt><trkpt lat="39.85156457439653" lon="8.745682873339382"><ele>274.0</ele><time>2026-05-03T06:40:48.998Z</time></trkpt><trkpt lat="39.85167154823119" lon="8.745664209046089"><ele>274.0</ele><time>2026-05-03T06:40:49.998Z</time></trkpt><trkpt lat="39.851775211299696" lon="8.745662828022775"><ele>274.0</ele><time>2026-05-03T06:40:50.998Z</time></trkpt><trkpt lat="39.85187112887039" lon="8.745650101850838"><ele>274.0</ele><time>2026-05-03T06:40:51.998Z</time></trkpt><trkpt lat="39.85195715199418" lon="8.745682042001816"><ele>274.0</ele><time>2026-05-03T06:40:52.998Z</time></trkpt><trkpt lat="39.852048277638936" lon="8.745698450886993"><ele>271.59999999999997</ele><time>2026-05-03T06:40:53.998Z</time></trkpt><trkpt lat="39.85212930525777" lon="8.745668536896108"><ele>269.2</ele><time>2026-05-03T06:40:54.998Z</time></trkpt><trkpt lat="39.85221317046166" lon="8.745605207329765"><ele>266.79999999999995</ele><time>2026-05-03T06:40:55.998Z</time></trkpt><trkpt lat="39.85230715614467" lon="8.745526016169968"><ele>264.4</ele><time>2026-05-03T06:40:56.998Z</time></trkpt><trkpt lat="39.852398507991246" lon="8.74545325179566"><ele>262.0</ele><time>2026-05-03T06:40:57.998Z</time></trkpt><trkpt lat="39.85249441637211" lon="8.74540092329775"><ele>262.0</ele><time>2026-05-03T06:40:58.998Z</time></trkpt><trkpt lat="39.852617495767184" lon="8.745372074069069"><ele>262.0</ele><time>2026-05-03T06:40:59.998Z</time></trkpt><trkpt lat="39.85272628313178" lon="8.745324815574934"><ele>262.0</ele><time>2026-05-03T06:41:00.998Z</time></trkpt><trkpt lat="39.85283621365479" lon="8.745314484192484"><ele>262.0</ele><time>2026-05-03T06:41:02Z</time></trkpt><trkpt lat="39.85293036468591" lon="8.745348305571921"><ele>262.0</ele><time>2026-05-03T06:41:03Z</time></trkpt><trkpt lat="39.85300918641334" lon="8.745360466618578"><ele>260.6</ele><time>2026-05-03T06:41:04Z</time></trkpt><trkpt lat="39.853081532067556" lon="8.74535312406951"><ele>259.2</ele><time>2026-05-03T06:41:05Z</time></trkpt><trkpt lat="39.85316630384997" lon="8.745378958297668"><ele>257.8</ele><time>2026-05-03T06:41:06Z</time></trkpt><trkpt lat="39.85328084050442" lon="8.745394328630795"><ele>256.4</ele><time>2026-05-03T06:41:07Z</time></trkpt><trkpt lat="39.85338537638154" lon="8.745398890427612"><ele>255.0</ele><time>2026-05-03T06:41:08Z</time></trkpt><trkpt lat="39.853460974642026" lon="8.74542717882469"><ele>253.33333333333334</ele><time>2026-05-03T06:41:09Z</time></trkpt><trkpt lat="39.85351543346254" lon="8.745475258091293"><ele>251.66666666666669</ele><time>2026-05-03T06:41:10Z</time></trkpt><trkpt lat="39.85356733618148" lon="8.74552844333769"><ele>250.0</ele><time>2026-05-03T06:41:11Z</time></trkpt><trkpt lat="39.853635383287525" lon="8.745557832332151"><ele>248.33333333333334</ele><time>2026-05-03T06:41:12Z</time></trkpt><trkpt lat="39.85371363792702" lon="8.745611468035719"><ele>246.66666666666669</ele><time>2026-05-03T06:41:13Z</time></trkpt><trkpt lat="39.85382858491374" lon="8.745657897789952"><ele>245.0</ele><time>2026-05-03T06:41:14Z</time></trkpt><trkpt lat="39.85397057942643" lon="8.745701623825903"><ele>245.0</ele><time>2026-05-03T06:41:15Z</time></trkpt><trkpt lat="39.8541038835253" lon="8.74578088519427"><ele>245.0</ele><time>2026-05-03T06:41:16Z</time></trkpt><trkpt lat="39.85423245638583" lon="8.745835492025462"><ele>245.0</ele><time>2026-05-03T06:41:17Z</time></trkpt><trkpt lat="39.85434792105604" lon="8.745886306631396"><ele>245.0</ele><time>2026-05-03T06:41:18Z</time></trkpt><trkpt lat="39.85445693174289" lon="8.745900186129852"><ele>243.75</ele><time>2026-05-03T06:41:19Z</time></trkpt><trkpt lat="39.85456472786018" lon="8.745911785417467"><ele>242.5</ele><time>2026-05-03T06:41:20Z</time></trkpt><trkpt lat="39.85469386010763" lon="8.745907156775754"><ele>241.25</ele><time>2026-05-03T06:41:21Z</time></trkpt><trkpt lat="39.85486016331461" lon="8.745901424152441"><ele>240.0</ele><time>2026-05-03T06:41:22Z</time></trkpt><trkpt lat="39.85504699507686" lon="8.74590233220841"><ele>238.8</ele><time>2026-05-03T06:41:23Z</time></trkpt><trkpt lat="39.85519743033845" lon="8.745942346806014"><ele>237.6</ele><time>2026-05-03T06:41:24Z</time></trkpt><trkpt lat="39.85530090001093" lon="8.745966701919519"><ele>236.39999999999998</ele><time>2026-05-03T06:41:25Z</time></trkpt><trkpt lat="39.855395111515236" lon="8.745972323547338"><ele>235.2</ele><time>2026-05-03T06:41:26Z</time></trkpt><trkpt lat="39.85548520463196" lon="8.745975490789442"><ele>234.0</ele><time>2026-05-03T06:41:27Z</time></trkpt><trkpt lat="39.85558228176547" lon="8.745910670967733"><ele>234.0</ele><time>2026-05-03T06:41:28Z</time></trkpt><trkpt lat="39.85570073367226" lon="8.745858991014805"><ele>234.0</ele><time>2026-05-03T06:41:29Z</time></trkpt><trkpt lat="39.85581221345281" lon="8.745779709236691"><ele>234.0</ele><time>2026-05-03T06:41:30Z</time></trkpt><trkpt lat="39.855917968841894" lon="8.745716231052755"><ele>234.0</ele><time>2026-05-03T06:41:31Z</time></trkpt><trkpt lat="39.856018943143624" lon="8.74566244185454"><ele>232.39999999999998</ele><time>2026-05-03T06:41:32Z</time></trkpt><trkpt lat="39.85611140339859" lon="8.74562785928913"><ele>230.79999999999998</ele><time>2026-05-03T06:41:33Z</time></trkpt><trkpt lat="39.85620282241657" lon="8.745616552433088"><ele>229.20000000000002</ele><time>2026-05-03T06:41:34Z</time></trkpt><trkpt lat="39.85629461049987" lon="8.745574914803106"><ele>227.60000000000002</ele><time>2026-05-03T06:41:35Z</time></trkpt><trkpt lat="39.85638063039978" lon="8.745509096567229"><ele>226.0</ele><time>2026-05-03T06:41:36Z</time></trkpt><trkpt lat="39.856463768130695" lon="8.745445435695471"><ele>226.0</ele><time>2026-05-03T06:41:37Z</time></trkpt><trkpt lat="39.85650881066348" lon="8.74534868458928"><ele>226.00000000000003</ele><time>2026-05-03T06:41:38Z</time></trkpt><trkpt lat="39.8565349493947" lon="8.745261575548906"><ele>226.00000000000003</ele><time>2026-05-03T06:41:39Z</time></trkpt><trkpt lat="39.85653440527319" lon="8.745127870380964"><ele>226.0</ele><time>2026-05-03T06:41:40.999Z</time></trkpt><trkpt lat="39.85644957913934" lon="8.745013622888173"><ele>226.0</ele><time>2026-05-03T06:41:42.999Z</time></trkpt><trkpt lat="39.856384935673915" lon="8.744962016172959"><ele>224.60000000000002</ele><time>2026-05-03T06:41:43.999Z</time></trkpt><trkpt lat="39.85631293470358" lon="8.744909072019176"><ele>223.20000000000002</ele><time>2026-05-03T06:41:44.999Z</time></trkpt><trkpt lat="39.85622191111218" lon="8.74486073338543"><ele>221.79999999999998</ele><time>2026-05-03T06:41:45.999Z</time></trkpt><trkpt lat="39.856126458588136" lon="8.744823749882455"><ele>220.39999999999998</ele><time>2026-05-03T06:41:46.999Z</time></trkpt><trkpt lat="39.85601001920729" lon="8.74476819732336"><ele>219.0</ele><time>2026-05-03T06:41:47.999Z</time></trkpt><trkpt lat="39.85590899950353" lon="8.744703532555782"><ele>219.0</ele><time>2026-05-03T06:41:48.999Z</time></trkpt><trkpt lat="39.8558235450527" lon="8.744633881822063"><ele>219.0</ele><time>2026-05-03T06:41:49.999Z</time></trkpt><trkpt lat="39.85575224249864" lon="8.74457901722604"><ele>219.0</ele><time>2026-05-03T06:41:50.999Z</time></trkpt><trkpt lat="39.85567876510804" lon="8.744539698444873"><ele>219.0</ele><time>2026-05-03T06:41:51.999Z</time></trkpt><trkpt lat="39.85559750833851" lon="8.744511540096513"><ele>219.0</ele><time>2026-05-03T06:41:52.999Z</time></trkpt><trkpt lat="39.85551974434544" lon="8.744482293844898"><ele>219.0</ele><time>2026-05-03T06:41:53.999Z</time></trkpt><trkpt lat="39.85547180262023" lon="8.744412202966284"><ele>215.39999999999998</ele><time>2026-05-03T06:41:54.999Z</time></trkpt><trkpt lat="39.855452199818224" lon="8.744311254264789"><ele>211.79999999999998</ele><time>2026-05-03T06:41:55.999Z</time></trkpt><trkpt lat="39.85534490323325" lon="8.744183993819744"><ele>208.2</ele><time>2026-05-03T06:41:57.999Z</time></trkpt><trkpt lat="39.85528741667657" lon="8.744103564416989"><ele>204.60000000000002</ele><time>2026-05-03T06:41:58.999Z</time></trkpt><trkpt lat="39.85524163125805" lon="8.744025844504995"><ele>201.0</ele><time>2026-05-03T06:41:59.999Z</time></trkpt><trkpt lat="39.85525631918829" lon="8.743888147883894"><ele>201.0</ele><time>2026-05-03T06:42:01.999Z</time></trkpt><trkpt lat="39.855353585604135" lon="8.743839778423522"><ele>201.0</ele><time>2026-05-03T06:42:03.999Z</time></trkpt><trkpt lat="39.85545669475201" lon="8.743881085770134"><ele>201.0</ele><time>2026-05-03T06:42:04.999Z</time></trkpt><trkpt lat="39.85557186970226" lon="8.74387694279899"><ele>201.0</ele><time>2026-05-03T06:42:05.999Z</time></trkpt><trkpt lat="39.85570186263054" lon="8.743889719734236"><ele>201.0</ele><time>2026-05-03T06:42:06.999Z</time></trkpt><trkpt lat="39.85579521387675" lon="8.743921031109222"><ele>201.0</ele><time>2026-05-03T06:42:07.999Z</time></trkpt><trkpt lat="39.855896914984164" lon="8.744020891921128"><ele>201.0</ele><time>2026-05-03T06:42:09.999Z</time></trkpt><trkpt lat="39.8560147245583" lon="8.744044589848045"><ele>201.0</ele><time>2026-05-03T06:42:11.999Z</time></trkpt><trkpt lat="39.856080874893344" lon="8.744010734983247"><ele>201.0</ele><time>2026-05-03T06:42:12.999Z</time></trkpt><trkpt lat="39.85615431962062" lon="8.743965211536187"><ele>199.4</ele><time>2026-05-03T06:42:13.999Z</time></trkpt><trkpt lat="39.85624231834424" lon="8.74397668182774"><ele>197.8</ele><time>2026-05-03T06:42:14.999Z</time></trkpt><trkpt lat="39.85634670456716" lon="8.74396042292263"><ele>196.20000000000002</ele><time>2026-05-03T06:42:15.999Z</time></trkpt><trkpt lat="39.856458332077054" lon="8.743980479016443"><ele>194.60000000000002</ele><time>2026-05-03T06:42:16.999Z</time></trkpt><trkpt lat="39.85655221770744" lon="8.74402143001138"><ele>193.0</ele><time>2026-05-03T06:42:17.999Z</time></trkpt><trkpt lat="39.85662688044886" lon="8.744094306789732"><ele>193.0</ele><time>2026-05-03T06:42:18.999Z</time></trkpt><trkpt lat="39.856709319108234" lon="8.744198930430978"><ele>193.0</ele><time>2026-05-03T06:42:19.999Z</time></trkpt><trkpt lat="39.85679858677408" lon="8.744281446053563"><ele>193.0</ele><time>2026-05-03T06:42:20.999Z</time></trkpt><trkpt lat="39.85688256817332" lon="8.744312616324729"><ele>193.0</ele><time>2026-05-03T06:42:21.999Z</time></trkpt><trkpt lat="39.856968661316266" lon="8.744317458879925"><ele>193.0</ele><time>2026-05-03T06:42:22.999Z</time></trkpt><trkpt lat="39.8570652381627" lon="8.744328054509948"><ele>192.25</ele><time>2026-05-03T06:42:23.999Z</time></trkpt><trkpt lat="39.85717313914104" lon="8.744353696502797"><ele>191.5</ele><time>2026-05-03T06:42:24.999Z</time></trkpt><trkpt lat="39.85728254194891" lon="8.744397848658926"><ele>190.75</ele><time>2026-05-03T06:42:25.999Z</time></trkpt><trkpt lat="39.8573959646411" lon="8.7444539655136"><ele>190.0</ele><time>2026-05-03T06:42:26.999Z</time></trkpt><trkpt lat="39.85749682562565" lon="8.744558588558917"><ele>190.0</ele><time>2026-05-03T06:42:27.999Z</time></trkpt><trkpt lat="39.85758890847694" lon="8.74465560460948"><ele>190.0</ele><time>2026-05-03T06:42:28.999Z</time></trkpt><trkpt lat="39.85768333209445" lon="8.744730417369732"><ele>190.0</ele><time>2026-05-03T06:42:29.999Z</time></trkpt><trkpt lat="39.85776572635785" lon="8.744813477328522"><ele>190.0</ele><time>2026-05-03T06:42:30.999Z</time></trkpt><trkpt lat="39.85785312448293" lon="8.744883118491293"><ele>190.0</ele><time>2026-05-03T06:42:31.999Z</time></trkpt><trkpt lat="39.857930414246276" lon="8.744911191879293"><ele>187.0</ele><time>2026-05-03T06:42:32.999Z</time></trkpt><trkpt lat="39.85801197033717" lon="8.744923053485206"><ele>184.0</ele><time>2026-05-03T06:42:33.999Z</time></trkpt><trkpt lat="39.85810591374382" lon="8.744894657166519"><ele>181.0</ele><time>2026-05-03T06:42:34.999Z</time></trkpt><trkpt lat="39.858211829438204" lon="8.744886619172497"><ele>178.0</ele><time>2026-05-03T06:42:35.999Z</time></trkpt><trkpt lat="39.858329152826485" lon="8.7449219628323"><ele>175.0</ele><time>2026-05-03T06:42:36.999Z</time></trkpt><trkpt lat="39.85845046348266" lon="8.744939720574804"><ele>173.25</ele><time>2026-05-03T06:42:37.999Z</time></trkpt><trkpt lat="39.858566717291154" lon="8.744970364105665"><ele>171.5</ele><time>2026-05-03T06:42:38.999Z</time></trkpt><trkpt lat="39.8586842160182" lon="8.745031961645207"><ele>169.75</ele><time>2026-05-03T06:42:39.998Z</time></trkpt><trkpt lat="39.858771684273094" lon="8.745095096829692"><ele>168.0</ele><time>2026-05-03T06:42:40.998Z</time></trkpt><trkpt lat="39.85889565852057" lon="8.74519127946919"><ele>167.0</ele><time>2026-05-03T06:42:41.998Z</time></trkpt><trkpt lat="39.859031128853296" lon="8.745319001711362"><ele>166.0</ele><time>2026-05-03T06:42:42.998Z</time></trkpt><trkpt lat="39.85914218859274" lon="8.745421119241957"><ele>165.0</ele><time>2026-05-03T06:42:43.998Z</time></trkpt><trkpt lat="39.85923782941753" lon="8.745495899982302"><ele>164.0</ele><time>2026-05-03T06:42:44.998Z</time></trkpt><trkpt lat="39.85934269837855" lon="8.745539601700896"><ele>161.25</ele><time>2026-05-03T06:42:45.998Z</time></trkpt><trkpt lat="39.85944647952486" lon="8.74558330728143"><ele>158.5</ele><time>2026-05-03T06:42:46.998Z</time></trkpt><trkpt lat="39.85951471499911" lon="8.745707846012342"><ele>155.75</ele><time>2026-05-03T06:42:47.998Z</time></trkpt><trkpt lat="39.859571559640806" lon="8.745855867000047"><ele>153.0</ele><time>2026-05-03T06:42:48.998Z</time></trkpt><trkpt lat="39.859663721464" lon="8.745999601299403"><ele>152.20000000000002</ele><time>2026-05-03T06:42:49.998Z</time></trkpt><trkpt lat="39.85974451188022" lon="8.746125373694353"><ele>151.4</ele><time>2026-05-03T06:42:50.998Z</time></trkpt><trkpt lat="39.85981985028991" lon="8.746218282951897"><ele>150.60000000000002</ele><time>2026-05-03T06:42:51.998Z</time></trkpt><trkpt lat="39.85985731472379" lon="8.74628817509466"><ele>149.8</ele><time>2026-05-03T06:42:52.998Z</time></trkpt><trkpt lat="39.85981777874588" lon="8.746361921613584"><ele>149.0</ele><time>2026-05-03T06:42:53.998Z</time></trkpt><trkpt lat="39.859692143327145" lon="8.746475600468962"><ele>149.0</ele><time>2026-05-03T06:42:55.998Z</time></trkpt><trkpt lat="39.859625763801155" lon="8.746592042999191"><ele>149.0</ele><time>2026-05-03T06:42:56.998Z</time></trkpt><trkpt lat="39.859581725755056" lon="8.746687304081394"><ele>149.0</ele><time>2026-05-03T06:42:57.998Z</time></trkpt><trkpt lat="39.85957964758328" lon="8.746809546235676"><ele>149.0</ele><time>2026-05-03T06:42:58.998Z</time></trkpt><trkpt lat="39.85960277490638" lon="8.746914981929859"><ele>149.0</ele><time>2026-05-03T06:42:59.998Z</time></trkpt><trkpt lat="39.859674119184014" lon="8.746994047199026"><ele>147.0</ele><time>2026-05-03T06:43:00.998Z</time></trkpt><trkpt lat="39.85978046995495" lon="8.74702185695594"><ele>145.0</ele><time>2026-05-03T06:43:01.998Z</time></trkpt><trkpt lat="39.859900348127155" lon="8.747057053596825"><ele>143.0</ele><time>2026-05-03T06:43:02.998Z</time></trkpt><trkpt lat="39.86002714338916" lon="8.747115887104771"><ele>141.0</ele><time>2026-05-03T06:43:03.998Z</time></trkpt><trkpt lat="39.860167115468734" lon="8.747204940813369"><ele>141.0</ele><time>2026-05-03T06:43:04.998Z</time></trkpt><trkpt lat="39.8603299914112" lon="8.747298453738923"><ele>141.0</ele><time>2026-05-03T06:43:05.998Z</time></trkpt><trkpt lat="39.86048530486958" lon="8.747423490235459"><ele>141.0</ele><time>2026-05-03T06:43:06.998Z</time></trkpt><trkpt lat="39.86064101014982" lon="8.747556357678524"><ele>141.0</ele><time>2026-05-03T06:43:08Z</time></trkpt><trkpt lat="39.860784180336886" lon="8.74768471807035"><ele>141.0</ele><time>2026-05-03T06:43:09Z</time></trkpt><trkpt lat="39.86092189449152" lon="8.747840082852813"><ele>141.0</ele><time>2026-05-03T06:43:10Z</time></trkpt><trkpt lat="39.861079799744964" lon="8.748020342402175"><ele>142.0</ele><time>2026-05-03T06:43:11Z</time></trkpt><trkpt lat="39.861243759165866" lon="8.748199751801568"><ele>143.0</ele><time>2026-05-03T06:43:12Z</time></trkpt><trkpt lat="39.86142674771702" lon="8.748396308138503"><ele>143.0</ele><time>2026-05-03T06:43:13Z</time></trkpt><trkpt lat="39.86161453278156" lon="8.748534227022311"><ele>143.0</ele><time>2026-05-03T06:43:14Z</time></trkpt><trkpt lat="39.86176919524085" lon="8.748659014847805"><ele>143.0</ele><time>2026-05-03T06:43:15Z</time></trkpt><trkpt lat="39.86191781290025" lon="8.748780140651675"><ele>142.0</ele><time>2026-05-03T06:43:16Z</time></trkpt><trkpt lat="39.862091108185865" lon="8.748889873103694"><ele>141.0</ele><time>2026-05-03T06:43:17Z</time></trkpt><trkpt lat="39.862286780752946" lon="8.749029266450886"><ele>140.0</ele><time>2026-05-03T06:43:18Z</time></trkpt><trkpt lat="39.86250008072094" lon="8.749185593151548"><ele>135.5</ele><time>2026-05-03T06:43:19Z</time></trkpt><trkpt lat="39.862716845569814" lon="8.749357307338162"><ele>131.0</ele><time>2026-05-03T06:43:20Z</time></trkpt><trkpt lat="39.862939667259155" lon="8.749542394703623"><ele>131.0</ele><time>2026-05-03T06:43:21Z</time></trkpt><trkpt lat="39.86317289747183" lon="8.749706108552742"><ele>131.0</ele><time>2026-05-03T06:43:22Z</time></trkpt><trkpt lat="39.86339487324458" lon="8.749860461498436"><ele>128.0</ele><time>2026-05-03T06:43:23Z</time></trkpt><trkpt lat="39.8636010695145" lon="8.75000840062652"><ele>125.0</ele><time>2026-05-03T06:43:24Z</time></trkpt><trkpt lat="39.86380951182741" lon="8.750136244398329"><ele>126.0</ele><time>2026-05-03T06:43:25Z</time></trkpt><trkpt lat="39.864025661787124" lon="8.750243811088206"><ele>127.0</ele><time>2026-05-03T06:43:26Z</time></trkpt><trkpt lat="39.86424059865662" lon="8.750333048401837"><ele>127.66666666666667</ele><time>2026-05-03T06:43:27Z</time></trkpt><trkpt lat="39.8644412928139" lon="8.750424324934217"><ele>128.33333333333334</ele><time>2026-05-03T06:43:28Z</time></trkpt><trkpt lat="39.8646410875147" lon="8.750524940741492"><ele>129.0</ele><time>2026-05-03T06:43:29Z</time></trkpt><trkpt lat="39.86483602036605" lon="8.75061692176169"><ele>129.0</ele><time>2026-05-03T06:43:30Z</time></trkpt><trkpt lat="39.86501399569572" lon="8.750702042401166"><ele>129.0</ele><time>2026-05-03T06:43:31Z</time></trkpt><trkpt lat="39.86520363143343" lon="8.750789132303181"><ele>129.0</ele><time>2026-05-03T06:43:32Z</time></trkpt><trkpt lat="39.86540933695442" lon="8.750895847127198"><ele>128.5</ele><time>2026-05-03T06:43:33Z</time></trkpt><trkpt lat="39.865631892674585" lon="8.751005608105844"><ele>128.0</ele><time>2026-05-03T06:43:34Z</time></trkpt><trkpt lat="39.865857229283094" lon="8.751115443541675"><ele>128.33333333333331</ele><time>2026-05-03T06:43:35Z</time></trkpt><trkpt lat="39.8660616950194" lon="8.751207636953534"><ele>128.66666666666666</ele><time>2026-05-03T06:43:36Z</time></trkpt><trkpt lat="39.86623762786627" lon="8.75129348074792"><ele>129.0</ele><time>2026-05-03T06:43:37Z</time></trkpt><trkpt lat="39.86638346181842" lon="8.75136304938829"><ele>129.0</ele><time>2026-05-03T06:43:38Z</time></trkpt><trkpt lat="39.86650866906823" lon="8.751421869129741"><ele>129.0</ele><time>2026-05-03T06:43:39Z</time></trkpt><trkpt lat="39.86662365535357" lon="8.751515946932521"><ele>129.0</ele><time>2026-05-03T06:43:40Z</time></trkpt><trkpt lat="39.866706015635515" lon="8.751659310810476"><ele>129.0</ele><time>2026-05-03T06:43:41Z</time></trkpt><trkpt lat="39.86679963453293" lon="8.75184222517943"><ele>131.66666666666666</ele><time>2026-05-03T06:43:42Z</time></trkpt><trkpt lat="39.86691917224282" lon="8.752015716232147"><ele>134.33333333333331</ele><time>2026-05-03T06:43:43Z</time></trkpt><trkpt lat="39.86702498391575" lon="8.752212145140073"><ele>137.0</ele><time>2026-05-03T06:43:43.999Z</time></trkpt><trkpt lat="39.86714317898826" lon="8.752404668973078"><ele>137.0</ele><time>2026-05-03T06:43:44.999Z</time></trkpt><trkpt lat="39.86727647494494" lon="8.752595324146268"><ele>137.0</ele><time>2026-05-03T06:43:45.999Z</time></trkpt><trkpt lat="39.86742405063091" lon="8.752773836126332"><ele>137.0</ele><time>2026-05-03T06:43:46.999Z</time></trkpt><trkpt lat="39.86759160343512" lon="8.75293095579399"><ele>139.0</ele><time>2026-05-03T06:43:47.999Z</time></trkpt><trkpt lat="39.86776629695427" lon="8.753069927916638"><ele>141.0</ele><time>2026-05-03T06:43:48.999Z</time></trkpt><trkpt lat="39.867942318977136" lon="8.753206260533995"><ele>143.0</ele><time>2026-05-03T06:43:49.999Z</time></trkpt><trkpt lat="39.86811466717188" lon="8.753347484908929"><ele>143.0</ele><time>2026-05-03T06:43:50.999Z</time></trkpt><trkpt lat="39.86828249398773" lon="8.753485482566532"><ele>143.0</ele><time>2026-05-03T06:43:51.999Z</time></trkpt><trkpt lat="39.868418389281906" lon="8.753594738502153"><ele>143.0</ele><time>2026-05-03T06:43:52.999Z</time></trkpt><trkpt lat="39.86851290900645" lon="8.753679323094786"><ele>143.4</ele><time>2026-05-03T06:43:53.999Z</time></trkpt><trkpt lat="39.868547570169845" lon="8.753782285595545"><ele>143.8</ele><time>2026-05-03T06:43:54.999Z</time></trkpt><trkpt lat="39.86852213851447" lon="8.753886788863111"><ele>144.2</ele><time>2026-05-03T06:43:55.999Z</time></trkpt><trkpt lat="39.86848268707096" lon="8.7540139443574"><ele>144.6</ele><time>2026-05-03T06:43:56.999Z</time></trkpt><trkpt lat="39.86843089781827" lon="8.75418066975714"><ele>145.0</ele><time>2026-05-03T06:43:57.999Z</time></trkpt><trkpt lat="39.86836962296504" lon="8.75436412141847"><ele>147.66666666666669</ele><time>2026-05-03T06:43:58.999Z</time></trkpt><trkpt lat="39.868301964148955" lon="8.754562194092578"><ele>150.33333333333334</ele><time>2026-05-03T06:43:59.999Z</time></trkpt><trkpt lat="39.86822415076983" lon="8.75477625852737"><ele>153.0</ele><time>2026-05-03T06:44:00.999Z</time></trkpt><trkpt lat="39.86816063011023" lon="8.754964456443506"><ele>153.0</ele><time>2026-05-03T06:44:01.999Z</time></trkpt><trkpt lat="39.86812743772505" lon="8.755100714445444"><ele>153.0</ele><time>2026-05-03T06:44:02.999Z</time></trkpt><trkpt lat="39.868120691689306" lon="8.755199096892227"><ele>153.0</ele><time>2026-05-03T06:44:04.999Z</time></trkpt><trkpt lat="39.868168822836964" lon="8.755257562025703"><ele>153.0</ele><time>2026-05-03T06:44:26.999Z</time></trkpt><trkpt lat="39.86822844489137" lon="8.755358105787982"><ele>153.0</ele><time>2026-05-03T06:44:29.999Z</time></trkpt><trkpt lat="39.8682985292724" lon="8.755412014638962"><ele>153.0</ele><time>2026-05-03T06:44:31.999Z</time></trkpt><trkpt lat="39.86848018204114" lon="8.755380289540877"><ele>159.0</ele><time>2026-05-03T06:44:35.999Z</time></trkpt><trkpt lat="39.868581541387" lon="8.755349073407123"><ele>165.0</ele><time>2026-05-03T06:44:37.999Z</time></trkpt><trkpt lat="39.86870636638454" lon="8.755300320690113"><ele>171.0</ele><time>2026-05-03T06:44:39.999Z</time></trkpt><trkpt lat="39.868796000394255" lon="8.755280385190357"><ele>177.0</ele><time>2026-05-03T06:44:40.999Z</time></trkpt><trkpt lat="39.86888088764688" lon="8.75525659137656"><ele>183.0</ele><time>2026-05-03T06:44:41.999Z</time></trkpt><trkpt lat="39.868974208629304" lon="8.755227272376322"><ele>183.0</ele><time>2026-05-03T06:44:42.999Z</time></trkpt><trkpt lat="39.869081554132656" lon="8.755217477083669"><ele>183.0</ele><time>2026-05-03T06:44:43.998Z</time></trkpt><trkpt lat="39.86920487972909" lon="8.755224733358562"><ele>183.0</ele><time>2026-05-03T06:44:44.998Z</time></trkpt><trkpt lat="39.86934171963675" lon="8.755238306360567"><ele>183.0</ele><time>2026-05-03T06:44:45.998Z</time></trkpt><trkpt lat="39.86947971875362" lon="8.755243531087494"><ele>185.66666666666666</ele><time>2026-05-03T06:44:46.998Z</time></trkpt><trkpt lat="39.869635919049095" lon="8.75524509743843"><ele>188.33333333333331</ele><time>2026-05-03T06:44:47.998Z</time></trkpt><trkpt lat="39.86979835648473" lon="8.755242868613205"><ele>191.0</ele><time>2026-05-03T06:44:48.998Z</time></trkpt><trkpt lat="39.869965077462346" lon="8.755243079419097"><ele>191.33333333333331</ele><time>2026-05-03T06:44:49.998Z</time></trkpt><trkpt lat="39.870128976873005" lon="8.755242606796614"><ele>191.66666666666666</ele><time>2026-05-03T06:44:50.998Z</time></trkpt><trkpt lat="39.87030469526641" lon="8.755245471658249"><ele>192.0</ele><time>2026-05-03T06:44:51.998Z</time></trkpt><trkpt lat="39.87049212611717" lon="8.755269570208403"><ele>192.0</ele><time>2026-05-03T06:44:52.998Z</time></trkpt><trkpt lat="39.87068582991724" lon="8.755306498956399"><ele>192.0</ele><time>2026-05-03T06:44:53.998Z</time></trkpt><trkpt lat="39.87087486317967" lon="8.755337646011705"><ele>192.0</ele><time>2026-05-03T06:44:54.998Z</time></trkpt><trkpt lat="39.87105019530026" lon="8.75536277758773"><ele>193.33333333333331</ele><time>2026-05-03T06:44:55.998Z</time></trkpt><trkpt lat="39.871218803952615" lon="8.755390532348033"><ele>194.66666666666666</ele><time>2026-05-03T06:44:56.998Z</time></trkpt><trkpt lat="39.87138937622529" lon="8.755411142099055"><ele>196.0</ele><time>2026-05-03T06:44:57.998Z</time></trkpt><trkpt lat="39.87155553509102" lon="8.755432118515499"><ele>196.0</ele><time>2026-05-03T06:44:58.998Z</time></trkpt><trkpt lat="39.87172088045526" lon="8.7554529280727"><ele>196.0</ele><time>2026-05-03T06:44:59.998Z</time></trkpt><trkpt lat="39.87188902817181" lon="8.755471876490327"><ele>196.0</ele><time>2026-05-03T06:45:00.998Z</time></trkpt><trkpt lat="39.87206002504398" lon="8.755495215856083"><ele>196.33333333333331</ele><time>2026-05-03T06:45:01.998Z</time></trkpt><trkpt lat="39.8722319794375" lon="8.755518370394942"><ele>196.66666666666669</ele><time>2026-05-03T06:45:02.998Z</time></trkpt><trkpt lat="39.87240441191316" lon="8.755541585162836"><ele>197.0</ele><time>2026-05-03T06:45:03.998Z</time></trkpt><trkpt lat="39.87257072688738" lon="8.75556204094828"><ele>199.75</ele><time>2026-05-03T06:45:04.998Z</time></trkpt><trkpt lat="39.87271230161569" lon="8.755589672848364"><ele>202.5</ele><time>2026-05-03T06:45:05.998Z</time></trkpt><trkpt lat="39.87283578602073" lon="8.755632368075613"><ele>205.25</ele><time>2026-05-03T06:45:06.998Z</time></trkpt><trkpt lat="39.87294467604605" lon="8.755718415685859"><ele>208.0</ele><time>2026-05-03T06:45:07.998Z</time></trkpt><trkpt lat="39.873054569208506" lon="8.75584422661131"><ele>208.0</ele><time>2026-05-03T06:45:08.998Z</time></trkpt><trkpt lat="39.87317477301421" lon="8.755988790374557"><ele>208.0</ele><time>2026-05-03T06:45:09.998Z</time></trkpt><trkpt lat="39.87331774811417" lon="8.756120971709105"><ele>208.0</ele><time>2026-05-03T06:45:10.998Z</time></trkpt><trkpt lat="39.87347412398878" lon="8.756224932312684"><ele>207.75</ele><time>2026-05-03T06:45:11.998Z</time></trkpt><trkpt lat="39.873619205814975" lon="8.75627953289245"><ele>207.5</ele><time>2026-05-03T06:45:13Z</time></trkpt><trkpt lat="39.8737364212485" lon="8.756362975364944"><ele>207.25</ele><time>2026-05-03T06:45:14Z</time></trkpt><trkpt lat="39.87382132449128" lon="8.756472457215471"><ele>207.0</ele><time>2026-05-03T06:45:15Z</time></trkpt><trkpt lat="39.87388317625599" lon="8.756534475952773"><ele>207.0</ele><time>2026-05-03T06:45:16Z</time></trkpt><trkpt lat="39.87399758854297" lon="8.756524883216807"><ele>207.0</ele><time>2026-05-03T06:45:18Z</time></trkpt><trkpt lat="39.874116311884954" lon="8.75651228024469"><ele>207.0</ele><time>2026-05-03T06:45:19Z</time></trkpt><trkpt lat="39.87426906743393" lon="8.756490190936384"><ele>207.0</ele><time>2026-05-03T06:45:20Z</time></trkpt><trkpt lat="39.874442259180725" lon="8.756462297411291"><ele>202.0</ele><time>2026-05-03T06:45:21Z</time></trkpt><trkpt lat="39.87462346301636" lon="8.756433156553541"><ele>197.0</ele><time>2026-05-03T06:45:22Z</time></trkpt><trkpt lat="39.87480362244045" lon="8.756401779553501"><ele>192.0</ele><time>2026-05-03T06:45:23Z</time></trkpt><trkpt lat="39.874973192095304" lon="8.756368462580712"><ele>190.25</ele><time>2026-05-03T06:45:24Z</time></trkpt><trkpt lat="39.87512474098865" lon="8.75634576545244"><ele>188.5</ele><time>2026-05-03T06:45:25Z</time></trkpt><trkpt lat="39.8752635112466" lon="8.756350109480424"><ele>186.75</ele><time>2026-05-03T06:45:26Z</time></trkpt><trkpt lat="39.87539788011557" lon="8.756387845111279"><ele>185.0</ele><time>2026-05-03T06:45:27Z</time></trkpt><trkpt lat="39.875531025065506" lon="8.75644535628191"><ele>185.0</ele><time>2026-05-03T06:45:28Z</time></trkpt><trkpt lat="39.875652384696345" lon="8.756507448026841"><ele>185.0</ele><time>2026-05-03T06:45:29Z</time></trkpt><trkpt lat="39.87576147234732" lon="8.7565502593443"><ele>185.0</ele><time>2026-05-03T06:45:30Z</time></trkpt><trkpt lat="39.87587051671587" lon="8.756560061924217"><ele>185.0</ele><time>2026-05-03T06:45:31Z</time></trkpt><trkpt lat="39.875989164350855" lon="8.756526026244494"><ele>186.66666666666666</ele><time>2026-05-03T06:45:32Z</time></trkpt><trkpt lat="39.87611462317068" lon="8.756435990610628"><ele>188.33333333333334</ele><time>2026-05-03T06:45:33Z</time></trkpt><trkpt lat="39.87623130813962" lon="8.75629765234625"><ele>190.0</ele><time>2026-05-03T06:45:34Z</time></trkpt><trkpt lat="39.876338470646424" lon="8.756127621224492"><ele>186.66666666666669</ele><time>2026-05-03T06:45:35Z</time></trkpt><trkpt lat="39.87645061885657" lon="8.755952578128607"><ele>183.33333333333334</ele><time>2026-05-03T06:45:36Z</time></trkpt><trkpt lat="39.876568408740816" lon="8.755798010038303"><ele>180.0</ele><time>2026-05-03T06:45:37Z</time></trkpt><trkpt lat="39.87667604837511" lon="8.75566323264643"><ele>183.33333333333334</ele><time>2026-05-03T06:45:38Z</time></trkpt><trkpt lat="39.87679045999821" lon="8.755543342055702"><ele>186.66666666666669</ele><time>2026-05-03T06:45:39Z</time></trkpt><trkpt lat="39.87692923121577" lon="8.7554551941686"><ele>190.0</ele><time>2026-05-03T06:45:40Z</time></trkpt><trkpt lat="39.877088232194126" lon="8.755383840524459"><ele>190.0</ele><time>2026-05-03T06:45:41Z</time></trkpt><trkpt lat="39.87725408001586" lon="8.755309086590456"><ele>190.0</ele><time>2026-05-03T06:45:42Z</time></trkpt><trkpt lat="39.877431018615006" lon="8.755228707241828"><ele>190.0</ele><time>2026-05-03T06:45:43Z</time></trkpt><trkpt lat="39.87761528409682" lon="8.755143365968864"><ele>186.33333333333334</ele><time>2026-05-03T06:45:44Z</time></trkpt><trkpt lat="39.877796446821186" lon="8.755051968180307"><ele>182.66666666666666</ele><time>2026-05-03T06:45:45Z</time></trkpt><trkpt lat="39.87796134448266" lon="8.75497485958388"><ele>179.0</ele><time>2026-05-03T06:45:45.999Z</time></trkpt><trkpt lat="39.87812095676402" lon="8.75492455767491"><ele>179.0</ele><time>2026-05-03T06:45:46.999Z</time></trkpt><trkpt lat="39.87827031029993" lon="8.75489567018117"><ele>179.0</ele><time>2026-05-03T06:45:47.999Z</time></trkpt><trkpt lat="39.878410405603354" lon="8.754868506419776"><ele>179.0</ele><time>2026-05-03T06:45:48.999Z</time></trkpt><trkpt lat="39.87854302325819" lon="8.754853835321772"><ele>179.0</ele><time>2026-05-03T06:45:49.999Z</time></trkpt><trkpt lat="39.878694668914584" lon="8.754878649617348"><ele>176.33333333333331</ele><time>2026-05-03T06:45:50.999Z</time></trkpt><trkpt lat="39.87885725095871" lon="8.754915579884473"><ele>173.66666666666666</ele><time>2026-05-03T06:45:51.999Z</time></trkpt><trkpt lat="39.87902625806061" lon="8.75495860651055"><ele>171.0</ele><time>2026-05-03T06:45:52.999Z</time></trkpt><trkpt lat="39.879201314387906" lon="8.755015504411105"><ele>169.33333333333334</ele><time>2026-05-03T06:45:53.999Z</time></trkpt><trkpt lat="39.87939170481995" lon="8.755088467711769"><ele>167.66666666666669</ele><time>2026-05-03T06:45:54.999Z</time></trkpt><trkpt lat="39.87959073396048" lon="8.755167498399775"><ele>166.0</ele><time>2026-05-03T06:45:55.999Z</time></trkpt><trkpt lat="39.879778840801215" lon="8.755238004948028"><ele>166.0</ele><time>2026-05-03T06:45:56.999Z</time></trkpt><trkpt lat="39.87996008373651" lon="8.755290011404224"><ele>166.0</ele><time>2026-05-03T06:45:57.999Z</time></trkpt><trkpt lat="39.88012035455983" lon="8.755316480156942"><ele>166.0</ele><time>2026-05-03T06:45:58.999Z</time></trkpt><trkpt lat="39.880258958137524" lon="8.755331037504375"><ele>163.25</ele><time>2026-05-03T06:45:59.999Z</time></trkpt><trkpt lat="39.88036856606227" lon="8.755391498907981"><ele>160.5</ele><time>2026-05-03T06:46:00.999Z</time></trkpt><trkpt lat="39.88043625507332" lon="8.755495596221968"><ele>157.75</ele><time>2026-05-03T06:46:01.999Z</time></trkpt><trkpt lat="39.880483850603255" lon="8.755625429024695"><ele>155.0</ele><time>2026-05-03T06:46:02.999Z</time></trkpt><trkpt lat="39.88055491655067" lon="8.755804749235148"><ele>155.0</ele><time>2026-05-03T06:46:03.999Z</time></trkpt><trkpt lat="39.88063052218571" lon="8.755998133849268"><ele>155.0</ele><time>2026-05-03T06:46:04.999Z</time></trkpt><trkpt lat="39.88070668808123" lon="8.75619334412671"><ele>155.0</ele><time>2026-05-03T06:46:05.999Z</time></trkpt><trkpt lat="39.88077692631142" lon="8.756373885175101"><ele>154.33333333333331</ele><time>2026-05-03T06:46:06.999Z</time></trkpt><trkpt lat="39.88084625395817" lon="8.756550535842418"><ele>153.66666666666666</ele><time>2026-05-03T06:46:07.999Z</time></trkpt><trkpt lat="39.880918254271315" lon="8.756733699064963"><ele>153.0</ele><time>2026-05-03T06:46:08.999Z</time></trkpt><trkpt lat="39.88099233439465" lon="8.75692215316727"><ele>153.0</ele><time>2026-05-03T06:46:09.999Z</time></trkpt><trkpt lat="39.8810649804123" lon="8.757106959011365"><ele>153.0</ele><time>2026-05-03T06:46:10.999Z</time></trkpt><trkpt lat="39.8811337165978" lon="8.757275676171448"><ele>153.0</ele><time>2026-05-03T06:46:11.999Z</time></trkpt><trkpt lat="39.88120539765368" lon="8.7573940755217"><ele>153.0</ele><time>2026-05-03T06:46:12.999Z</time></trkpt><trkpt lat="39.881275846982724" lon="8.757470232675804"><ele>153.0</ele><time>2026-05-03T06:46:13.999Z</time></trkpt><trkpt lat="39.88137069035682" lon="8.757507694183518"><ele>153.0</ele><time>2026-05-03T06:46:14.999Z</time></trkpt><trkpt lat="39.88150812856504" lon="8.75748813766542"><ele>153.0</ele><time>2026-05-03T06:46:15.999Z</time></trkpt><trkpt lat="39.88166726706525" lon="8.757464097864993"><ele>153.0</ele><time>2026-05-03T06:46:16.999Z</time></trkpt><trkpt lat="39.88180785750433" lon="8.757453058462133"><ele>149.5</ele><time>2026-05-03T06:46:17.999Z</time></trkpt><trkpt lat="39.881939640059414" lon="8.757456339576866"><ele>146.0</ele><time>2026-05-03T06:46:18.999Z</time></trkpt><trkpt lat="39.882068309851505" lon="8.757473626654825"><ele>142.5</ele><time>2026-05-03T06:46:19.999Z</time></trkpt><trkpt lat="39.8822056174688" lon="8.757539120069694"><ele>139.0</ele><time>2026-05-03T06:46:20.999Z</time></trkpt><trkpt lat="39.882344741040086" lon="8.757606671126654"><ele>139.0</ele><time>2026-05-03T06:46:21.999Z</time></trkpt><trkpt lat="39.8824682741118" lon="8.757692415799845"><ele>139.0</ele><time>2026-05-03T06:46:22.999Z</time></trkpt><trkpt lat="39.882566388169074" lon="8.757802006940816"><ele>139.0</ele><time>2026-05-03T06:46:23.999Z</time></trkpt><trkpt lat="39.88267054334632" lon="8.757941411476619"><ele>139.0</ele><time>2026-05-03T06:46:24.999Z</time></trkpt><trkpt lat="39.88278845835938" lon="8.758079979110347"><ele>136.75</ele><time>2026-05-03T06:46:25.999Z</time></trkpt><trkpt lat="39.88289243946104" lon="8.758209849567315"><ele>134.5</ele><time>2026-05-03T06:46:26.999Z</time></trkpt><trkpt lat="39.88301939727399" lon="8.75829278914227"><ele>132.25</ele><time>2026-05-03T06:46:27.999Z</time></trkpt><trkpt lat="39.88317832909421" lon="8.758338452412222"><ele>130.0</ele><time>2026-05-03T06:46:28.999Z</time></trkpt><trkpt lat="39.883343254406796" lon="8.75839533988394"><ele>129.33333333333334</ele><time>2026-05-03T06:46:29.999Z</time></trkpt><trkpt lat="39.88350613847644" lon="8.75846343456354"><ele>128.66666666666666</ele><time>2026-05-03T06:46:30.999Z</time></trkpt><trkpt lat="39.8836771384794" lon="8.758535476497725"><ele>128.0</ele><time>2026-05-03T06:46:31.999Z</time></trkpt><trkpt lat="39.883842650979695" lon="8.758609564888491"><ele>128.0</ele><time>2026-05-03T06:46:32.999Z</time></trkpt><trkpt lat="39.88398900630838" lon="8.758682973428098"><ele>128.0</ele><time>2026-05-03T06:46:33.999Z</time></trkpt><trkpt lat="39.88409497691024" lon="8.75880538052081"><ele>128.0</ele><time>2026-05-03T06:46:34.999Z</time></trkpt><trkpt lat="39.88417991169019" lon="8.758937481136401"><ele>128.0</ele><time>2026-05-03T06:46:35.999Z</time></trkpt><trkpt lat="39.88426464114112" lon="8.759073444657577"><ele>128.20000000000002</ele><time>2026-05-03T06:46:36.999Z</time></trkpt><trkpt lat="39.884339651374766" lon="8.759169904564567"><ele>128.4</ele><time>2026-05-03T06:46:37.999Z</time></trkpt><trkpt lat="39.88439930333682" lon="8.75926723544563"><ele>128.60000000000002</ele><time>2026-05-03T06:46:39.999Z</time></trkpt><trkpt lat="39.88439653663071" lon="8.75937180772475"><ele>128.8</ele><time>2026-05-03T06:46:40.999Z</time></trkpt><trkpt lat="39.88441253505684" lon="8.759491017739302"><ele>129.0</ele><time>2026-05-03T06:46:41.999Z</time></trkpt><trkpt lat="39.88441438487905" lon="8.759649259167348"><ele>128.0</ele><time>2026-05-03T06:46:42.999Z</time></trkpt><trkpt lat="39.88443780694973" lon="8.759837625384112"><ele>127.0</ele><time>2026-05-03T06:46:43.999Z</time></trkpt><trkpt lat="39.88444594255696" lon="8.760050000698639"><ele>126.0</ele><time>2026-05-03T06:46:44.999Z</time></trkpt><trkpt lat="39.88445639131334" lon="8.760293873825029"><ele>125.0</ele><time>2026-05-03T06:46:45.998Z</time></trkpt><trkpt lat="39.884469544450944" lon="8.760546618424296"><ele>124.0</ele><time>2026-05-03T06:46:46.998Z</time></trkpt><trkpt lat="39.88447882136174" lon="8.760802065645802"><ele>123.0</ele><time>2026-05-03T06:46:47.998Z</time></trkpt><trkpt lat="39.884489902220935" lon="8.761052981384735"><ele>122.33333333333334</ele><time>2026-05-03T06:46:48.998Z</time></trkpt><trkpt lat="39.88453472165337" lon="8.76129619848447"><ele>121.66666666666667</ele><time>2026-05-03T06:46:49.998Z</time></trkpt><trkpt lat="39.88462891562868" lon="8.761523741473784"><ele>121.0</ele><time>2026-05-03T06:46:50.998Z</time></trkpt><trkpt lat="39.884755482388066" lon="8.761740212082085"><ele>120.66666666666667</ele><time>2026-05-03T06:46:51.998Z</time></trkpt><trkpt lat="39.88489484874554" lon="8.761949285520402"><ele>120.33333333333334</ele><time>2026-05-03T06:46:52.998Z</time></trkpt><trkpt lat="39.88503434141476" lon="8.762152224928874"><ele>120.0</ele><time>2026-05-03T06:46:53.998Z</time></trkpt><trkpt lat="39.8851706303033" lon="8.762355346938266"><ele>119.33333333333334</ele><time>2026-05-03T06:46:54.998Z</time></trkpt><trkpt lat="39.88530060361014" lon="8.762540432710049"><ele>118.66666666666667</ele><time>2026-05-03T06:46:55.998Z</time></trkpt><trkpt lat="39.885407263013434" lon="8.762688777792864"><ele>118.0</ele><time>2026-05-03T06:46:56.998Z</time></trkpt><trkpt lat="39.885466988116775" lon="8.762832131811326"><ele>118.0</ele><time>2026-05-03T06:46:57.998Z</time></trkpt><trkpt lat="39.8854798156262" lon="8.76304398572181"><ele>118.0</ele><time>2026-05-03T06:46:58.998Z</time></trkpt><trkpt lat="39.885501498015834" lon="8.763304765635363"><ele>118.0</ele><time>2026-05-03T06:46:59.998Z</time></trkpt><trkpt lat="39.88552273831334" lon="8.763580723048053"><ele>117.33333333333334</ele><time>2026-05-03T06:47:00.998Z</time></trkpt><trkpt lat="39.88555366891483" lon="8.763863240639596"><ele>116.66666666666666</ele><time>2026-05-03T06:47:01.998Z</time></trkpt><trkpt lat="39.8855759147751" lon="8.764144145028105"><ele>116.0</ele><time>2026-05-03T06:47:02.998Z</time></trkpt><trkpt lat="39.88559712601822" lon="8.764430663137935"><ele>115.33333333333333</ele><time>2026-05-03T06:47:03.998Z</time></trkpt><trkpt lat="39.88561981917399" lon="8.764717385771048"><ele>114.66666666666666</ele><time>2026-05-03T06:47:04.998Z</time></trkpt><trkpt lat="39.88564393452418" lon="8.764999952513074"><ele>114.0</ele><time>2026-05-03T06:47:05.998Z</time></trkpt><trkpt lat="39.88564741343956" lon="8.765283107757355"><ele>113.0</ele><time>2026-05-03T06:47:06.998Z</time></trkpt><trkpt lat="39.88566019563844" lon="8.765570211831498"><ele>112.0</ele><time>2026-05-03T06:47:07.998Z</time></trkpt><trkpt lat="39.88565556100406" lon="8.765856145357402"><ele>111.0</ele><time>2026-05-03T06:47:08.998Z</time></trkpt><trkpt lat="39.88563490524639" lon="8.766143423277619"><ele>111.0</ele><time>2026-05-03T06:47:09.998Z</time></trkpt><trkpt lat="39.885624534407505" lon="8.766430388097126"><ele>111.0</ele><time>2026-05-03T06:47:10.998Z</time></trkpt><trkpt lat="39.88559866639265" lon="8.766716716502225"><ele>111.0</ele><time>2026-05-03T06:47:11.998Z</time></trkpt><trkpt lat="39.88557713302891" lon="8.766998936968012"><ele>110.33333333333334</ele><time>2026-05-03T06:47:12.998Z</time></trkpt><trkpt lat="39.88556468990187" lon="8.767264087241177"><ele>109.66666666666667</ele><time>2026-05-03T06:47:13.998Z</time></trkpt><trkpt lat="39.88554956652178" lon="8.767504901726365"><ele>109.0</ele><time>2026-05-03T06:47:14.998Z</time></trkpt><trkpt lat="39.885567437218704" lon="8.76774933109248"><ele>106.33333333333334</ele><time>2026-05-03T06:47:15.998Z</time></trkpt><trkpt lat="39.8856014196635" lon="8.76799680412694"><ele>103.66666666666666</ele><time>2026-05-03T06:47:16.998Z</time></trkpt><trkpt lat="39.88561925916089" lon="8.768241122915905"><ele>101.0</ele><time>2026-05-03T06:47:17.998Z</time></trkpt><trkpt lat="39.885629461265985" lon="8.768471020089823"><ele>99.66666666666666</ele><time>2026-05-03T06:47:19Z</time></trkpt><trkpt lat="39.885706716283124" lon="8.768680975944097"><ele>98.33333333333334</ele><time>2026-05-03T06:47:20Z</time></trkpt><trkpt lat="39.885791577756414" lon="8.768889598667386"><ele>97.0</ele><time>2026-05-03T06:47:21Z</time></trkpt><trkpt lat="39.88585227457643" lon="8.769089626674484"><ele>97.0</ele><time>2026-05-03T06:47:22Z</time></trkpt><trkpt lat="39.88588858290526" lon="8.769272947488034"><ele>97.0</ele><time>2026-05-03T06:47:23Z</time></trkpt><trkpt lat="39.88587051266969" lon="8.769438672474436"><ele>97.0</ele><time>2026-05-03T06:47:24Z</time></trkpt><trkpt lat="39.88582880936583" lon="8.769601347820158"><ele>97.0</ele><time>2026-05-03T06:47:25Z</time></trkpt><trkpt lat="39.88579982964152" lon="8.769787427541395"><ele>96.39999999999999</ele><time>2026-05-03T06:47:26Z</time></trkpt><trkpt lat="39.88575044205149" lon="8.76996634452581"><ele>95.8</ele><time>2026-05-03T06:47:27Z</time></trkpt><trkpt lat="39.885711609468906" lon="8.770127579163093"><ele>95.2</ele><time>2026-05-03T06:47:28Z</time></trkpt><trkpt lat="39.885676747728546" lon="8.770244903192854"><ele>94.6</ele><time>2026-05-03T06:47:29Z</time></trkpt><trkpt lat="39.88565282063924" lon="8.770326908987396"><ele>94.0</ele><time>2026-05-03T06:47:31Z</time></trkpt><trkpt lat="39.885724990807745" lon="8.77014096156226"><ele>94.0</ele><time>2026-05-03T06:47:37Z</time></trkpt><trkpt lat="39.88575168264705" lon="8.769971632280246"><ele>94.0</ele><time>2026-05-03T06:47:38Z</time></trkpt><trkpt lat="39.885790201895816" lon="8.769815691716108"><ele>94.0</ele><time>2026-05-03T06:47:39Z</time></trkpt><trkpt lat="39.885827318185065" lon="8.769699984461717"><ele>94.0</ele><time>2026-05-03T06:47:40Z</time></trkpt><trkpt lat="39.88585561726761" lon="8.76962611771497"><ele>94.0</ele><time>2026-05-03T06:47:41Z</time></trkpt><trkpt lat="39.885905932112195" lon="8.769768001616226"><ele>94.0</ele><time>2026-05-03T06:47:44Z</time></trkpt><trkpt lat="39.885919685710064" lon="8.769891463626024"><ele>94.0</ele><time>2026-05-03T06:47:45Z</time></trkpt><trkpt lat="39.88594877098568" lon="8.770066554595228"><ele>94.0</ele><time>2026-05-03T06:47:46Z</time></trkpt><trkpt lat="39.88596438699781" lon="8.770246397512485"><ele>94.0</ele><time>2026-05-03T06:47:47Z</time></trkpt><trkpt lat="39.885961405226325" lon="8.77043437469578"><ele>93.0</ele><time>2026-05-03T06:47:48Z</time></trkpt><trkpt lat="39.885979591224924" lon="8.770632655597712"><ele>92.0</ele><time>2026-05-03T06:47:48.999Z</time></trkpt><trkpt lat="39.886001864178034" lon="8.770851850253276"><ele>91.0</ele><time>2026-05-03T06:47:49.999Z</time></trkpt><trkpt lat="39.88604979319351" lon="8.771065038095161"><ele>89.0</ele><time>2026-05-03T06:47:50.999Z</time></trkpt><trkpt lat="39.88610235263478" lon="8.771249539226682"><ele>87.0</ele><time>2026-05-03T06:47:51.999Z</time></trkpt><trkpt lat="39.886154140232854" lon="8.771413791834599"><ele>85.0</ele><time>2026-05-03T06:47:52.999Z</time></trkpt><trkpt lat="39.88621393984881" lon="8.77156044863793"><ele>83.0</ele><time>2026-05-03T06:47:53.999Z</time></trkpt><trkpt lat="39.8863058518884" lon="8.771692819405624"><ele>83.0</ele><time>2026-05-03T06:47:54.999Z</time></trkpt><trkpt lat="39.886421002406514" lon="8.771811884448887"><ele>83.0</ele><time>2026-05-03T06:47:55.999Z</time></trkpt><trkpt lat="39.88654707126218" lon="8.771915432432637"><ele>83.0</ele><time>2026-05-03T06:47:56.999Z</time></trkpt><trkpt lat="39.8866759583106" lon="8.772012596694115"><ele>83.0</ele><time>2026-05-03T06:47:57.999Z</time></trkpt><trkpt lat="39.886800974374886" lon="8.772114292886238"><ele>82.66666666666667</ele><time>2026-05-03T06:47:58.999Z</time></trkpt><trkpt lat="39.886925068456605" lon="8.772232356936838"><ele>82.33333333333333</ele><time>2026-05-03T06:47:59.999Z</time></trkpt><trkpt lat="39.887018847517986" lon="8.772392286473204"><ele>82.0</ele><time>2026-05-03T06:48:00.999Z</time></trkpt><trkpt lat="39.887099249023564" lon="8.772564434647942"><ele>80.33333333333333</ele><time>2026-05-03T06:48:01.999Z</time></trkpt><trkpt lat="39.887176827502785" lon="8.772750779185436"><ele>78.66666666666667</ele><time>2026-05-03T06:48:02.999Z</time></trkpt><trkpt lat="39.88725397696219" lon="8.772937437481504"><ele>77.0</ele><time>2026-05-03T06:48:03.999Z</time></trkpt><trkpt lat="39.88733879014214" lon="8.773096889047046"><ele>77.0</ele><time>2026-05-03T06:48:04.999Z</time></trkpt><trkpt lat="39.887415836538466" lon="8.773248833793483"><ele>77.0</ele><time>2026-05-03T06:48:05.999Z</time></trkpt><trkpt lat="39.887498799464296" lon="8.773388422828388"><ele>77.0</ele><time>2026-05-03T06:48:06.999Z</time></trkpt><trkpt lat="39.887582294852926" lon="8.773522921657495"><ele>77.0</ele><time>2026-05-03T06:48:07.999Z</time></trkpt><trkpt lat="39.88767178010883" lon="8.773653327507532"><ele>76.75</ele><time>2026-05-03T06:48:08.999Z</time></trkpt><trkpt lat="39.8877661918145" lon="8.77377671750829"><ele>76.5</ele><time>2026-05-03T06:48:09.999Z</time></trkpt><trkpt lat="39.88786138904698" lon="8.773896346550567"><ele>76.25</ele><time>2026-05-03T06:48:10.999Z</time></trkpt><trkpt lat="39.887953092702965" lon="8.774016748525742"><ele>76.0</ele><time>2026-05-03T06:48:11.999Z</time></trkpt><trkpt lat="39.88804357359413" lon="8.774138186602375"><ele>76.0</ele><time>2026-05-03T06:48:12.999Z</time></trkpt><trkpt lat="39.88811569012589" lon="8.774277834033882"><ele>76.0</ele><time>2026-05-03T06:48:13.999Z</time></trkpt><trkpt lat="39.888191439105476" lon="8.77441462314958"><ele>76.0</ele><time>2026-05-03T06:48:14.999Z</time></trkpt><trkpt lat="39.888261325256025" lon="8.774554798406456"><ele>76.0</ele><time>2026-05-03T06:48:15.999Z</time></trkpt><trkpt lat="39.88833201747935" lon="8.774701565804387"><ele>75.25</ele><time>2026-05-03T06:48:16.999Z</time></trkpt><trkpt lat="39.88841186115239" lon="8.774842438140665"><ele>74.5</ele><time>2026-05-03T06:48:17.999Z</time></trkpt><trkpt lat="39.888473299117074" lon="8.77500087585674"><ele>73.75</ele><time>2026-05-03T06:48:18.999Z</time></trkpt><trkpt lat="39.88849132615799" lon="8.775177288540778"><ele>73.0</ele><time>2026-05-03T06:48:19.999Z</time></trkpt><trkpt lat="39.88850388720014" lon="8.775351844094365"><ele>71.75</ele><time>2026-05-03T06:48:20.999Z</time></trkpt><trkpt lat="39.88850293969121" lon="8.7755281948867"><ele>70.5</ele><time>2026-05-03T06:48:21.999Z</time></trkpt><trkpt lat="39.888500397005735" lon="8.775689935941989"><ele>69.25</ele><time>2026-05-03T06:48:22.999Z</time></trkpt><trkpt lat="39.888511315426776" lon="8.775832948811626"><ele>68.0</ele><time>2026-05-03T06:48:23.999Z</time></trkpt><trkpt lat="39.88851034766402" lon="8.775944206284857"><ele>67.83333333333334</ele><time>2026-05-03T06:48:24.999Z</time></trkpt><trkpt lat="39.88849227654999" lon="8.776024753489127"><ele>67.66666666666667</ele><time>2026-05-03T06:48:25.999Z</time></trkpt><trkpt lat="39.88849070482471" lon="8.776112369480124"><ele>67.5</ele><time>2026-05-03T06:48:27.999Z</time></trkpt><trkpt lat="39.88862587025759" lon="8.776169760652516"><ele>67.33333333333333</ele><time>2026-05-03T06:48:29.999Z</time></trkpt><trkpt lat="39.88866451284761" lon="8.776239648587314"><ele>67.16666666666666</ele><time>2026-05-03T06:48:30.999Z</time></trkpt><trkpt lat="39.88870963899922" lon="8.776307069489896"><ele>67.0</ele><time>2026-05-03T06:48:31.999Z</time></trkpt><trkpt lat="39.888665881048325" lon="8.776435578981983"><ele>67.0</ele><time>2026-05-03T06:48:32.999Z</time></trkpt><trkpt lat="39.88866481811957" lon="8.776572038813809"><ele>67.0</ele><time>2026-05-03T06:48:33.999Z</time></trkpt><trkpt lat="39.88866208057405" lon="8.776692179261458"><ele>67.0</ele><time>2026-05-03T06:48:34.999Z</time></trkpt><trkpt lat="39.88865755959659" lon="8.776829738285356"><ele>67.0</ele><time>2026-05-03T06:48:35.999Z</time></trkpt><trkpt lat="39.88865917264706" lon="8.77695659391634"><ele>67.0</ele><time>2026-05-03T06:48:36.999Z</time></trkpt><trkpt lat="39.88863690002007" lon="8.777060730470653"><ele>67.25</ele><time>2026-05-03T06:48:38.999Z</time></trkpt><trkpt lat="39.88853210806961" lon="8.777064923457383"><ele>67.5</ele><time>2026-05-03T06:48:39.999Z</time></trkpt><trkpt lat="39.88841217971078" lon="8.777172149561093"><ele>67.75</ele><time>2026-05-03T06:48:40.999Z</time></trkpt><trkpt lat="39.88830617543583" lon="8.777315917668767"><ele>68.0</ele><time>2026-05-03T06:48:41.999Z</time></trkpt><trkpt lat="39.88823003967011" lon="8.777454458497642"><ele>68.4</ele><time>2026-05-03T06:48:42.999Z</time></trkpt><trkpt lat="39.8882198309971" lon="8.777585106702558"><ele>68.8</ele><time>2026-05-03T06:48:43.999Z</time></trkpt><trkpt lat="39.88824050629907" lon="8.777693883097555"><ele>69.2</ele><time>2026-05-03T06:48:44.999Z</time></trkpt><trkpt lat="39.88820115974988" lon="8.777815512567265"><ele>69.6</ele><time>2026-05-03T06:48:46.999Z</time></trkpt><trkpt lat="39.88808530475851" lon="8.777781399584473"><ele>70.0</ele><time>2026-05-03T06:54:46.999Z</time></trkpt><trkpt lat="39.88801618248758" lon="8.777849226488447"><ele>70.0</ele><time>2026-05-03T06:54:47.999Z</time></trkpt><trkpt lat="39.88796778383811" lon="8.777969011668358"><ele>70.0</ele><time>2026-05-03T06:54:48.999Z</time></trkpt><trkpt lat="39.887905578733914" lon="8.778095200507002"><ele>70.0</ele><time>2026-05-03T06:54:49.999Z</time></trkpt><trkpt lat="39.88783981757676" lon="8.778226231138788"><ele>70.0</ele><time>2026-05-03T06:54:50.999Z</time></trkpt><trkpt lat="39.88777527117921" lon="8.77835925527205"><ele>70.0</ele><time>2026-05-03T06:54:51.999Z</time></trkpt><trkpt lat="39.88771799074667" lon="8.778475712014966"><ele>70.0</ele><time>2026-05-03T06:54:52.999Z</time></trkpt><trkpt lat="39.88766467787486" lon="8.778560625210215"><ele>70.0</ele><time>2026-05-03T06:54:53.999Z</time></trkpt><trkpt lat="39.88761791218534" lon="8.778633234346232"><ele>70.0</ele><time>2026-05-03T06:54:54.999Z</time></trkpt><trkpt lat="39.88755846323482" lon="8.77866644306729"><ele>70.0</ele><time>2026-05-03T06:54:55.998Z</time></trkpt><trkpt lat="39.88745545763033" lon="8.778695443913938"><ele>70.0</ele><time>2026-05-03T06:54:57.998Z</time></trkpt><trkpt lat="39.887341232867705" lon="8.77869658213117"><ele>72.0</ele><time>2026-05-03T06:54:59.998Z</time></trkpt><trkpt lat="39.88724636823229" lon="8.7786816456617"><ele>74.0</ele><time>2026-05-03T06:55:01.998Z</time></trkpt><trkpt lat="39.887407502648685" lon="8.778689127983778"><ele>76.0</ele><time>2026-05-03T06:55:05.998Z</time></trkpt><trkpt lat="39.887155455103596" lon="8.778458380558991"><ele>77.0</ele><time>2026-05-03T06:55:06.998Z</time></trkpt><trkpt lat="39.88726880309264" lon="8.778303483550426"><ele>78.0</ele><time>2026-05-03T06:55:07.998Z</time></trkpt><trkpt lat="39.88735962813443" lon="8.778223583614151"><ele>79.0</ele><time>2026-05-03T06:55:08.998Z</time></trkpt><trkpt lat="39.88743281088742" lon="8.778163100842043"><ele>80.0</ele><time>2026-05-03T06:55:09.998Z</time></trkpt><trkpt lat="39.88748387271896" lon="8.778110098194563"><ele>81.0</ele><time>2026-05-03T06:55:10.998Z</time></trkpt><trkpt lat="39.88754430638834" lon="8.777996832180737"><ele>79.0</ele><time>2026-05-03T06:55:13.998Z</time></trkpt><trkpt lat="39.887607985130536" lon="8.777893891975094"><ele>77.0</ele><time>2026-05-03T06:55:15.998Z</time></trkpt><trkpt lat="39.88766939320016" lon="8.777763149618186"><ele>75.0</ele><time>2026-05-03T06:55:17.998Z</time></trkpt><trkpt lat="39.887722372526326" lon="8.777678964718483"><ele>73.0</ele><time>2026-05-03T06:55:19.998Z</time></trkpt><trkpt lat="39.88805917041693" lon="8.777319057865054"><ele>71.5</ele><time>2026-05-03T06:55:21.998Z</time></trkpt><trkpt lat="39.888152423272075" lon="8.777888785179087"><ele>70.0</ele><time>2026-05-03T06:55:49Z</time></trkpt><trkpt lat="39.88802735153048" lon="8.778023407454803"><ele>70.0</ele><time>2026-05-03T06:57:58Z</time></trkpt><trkpt lat="39.88796271669092" lon="8.778041885200436"><ele>70.0</ele><time>2026-05-03T06:57:59Z</time></trkpt><trkpt lat="39.88790250040549" lon="8.778094821426954"><ele>70.0</ele><time>2026-05-03T06:58:00Z</time></trkpt><trkpt lat="39.88785753075548" lon="8.778179756209157"><ele>70.0</ele><time>2026-05-03T06:58:01Z</time></trkpt><trkpt lat="39.88781813361015" lon="8.778271564936247"><ele>70.0</ele><time>2026-05-03T06:58:02Z</time></trkpt><trkpt lat="39.88777424581238" lon="8.778365718599137"><ele>70.0</ele><time>2026-05-03T06:58:03Z</time></trkpt><trkpt lat="39.88772497303031" lon="8.778465416270803"><ele>69.8</ele><time>2026-05-03T06:58:03.999Z</time></trkpt><trkpt lat="39.8876650198357" lon="8.778554591826575"><ele>69.6</ele><time>2026-05-03T06:58:04.999Z</time></trkpt><trkpt lat="39.887597797881774" lon="8.77862784274487"><ele>69.4</ele><time>2026-05-03T06:58:05.999Z</time></trkpt><trkpt lat="39.887519075236604" lon="8.77867919162015"><ele>69.2</ele><time>2026-05-03T06:58:06.999Z</time></trkpt><trkpt lat="39.887421575916555" lon="8.778694957610176"><ele>69.0</ele><time>2026-05-03T06:58:07.999Z</time></trkpt><trkpt lat="39.887327306097006" lon="8.778695445650653"><ele>70.4</ele><time>2026-05-03T06:58:08.999Z</time></trkpt><trkpt lat="39.88723820224294" lon="8.778679592287506"><ele>71.80000000000001</ele><time>2026-05-03T06:58:09.999Z</time></trkpt><trkpt lat="39.88714672148359" lon="8.778667567162268"><ele>73.19999999999999</ele><time>2026-05-03T06:58:10.999Z</time></trkpt><trkpt lat="39.8870549779597" lon="8.778666494878694"><ele>74.6</ele><time>2026-05-03T06:58:11.999Z</time></trkpt><trkpt lat="39.886955221568314" lon="8.778668258941515"><ele>76.0</ele><time>2026-05-03T06:58:12.999Z</time></trkpt><trkpt lat="39.88685555364166" lon="8.7786746540813"><ele>77.19999999999999</ele><time>2026-05-03T06:58:13.999Z</time></trkpt><trkpt lat="39.886749176901006" lon="8.778673294568295"><ele>78.39999999999999</ele><time>2026-05-03T06:58:14.999Z</time></trkpt><trkpt lat="39.88664093634899" lon="8.778663504781145"><ele>79.6</ele><time>2026-05-03T06:58:15.999Z</time></trkpt><trkpt lat="39.88653329949203" lon="8.778668713897112"><ele>80.8</ele><time>2026-05-03T06:58:16.999Z</time></trkpt><trkpt lat="39.88642846402894" lon="8.77867923375857"><ele>82.0</ele><time>2026-05-03T06:58:17.999Z</time></trkpt><trkpt lat="39.886327190472926" lon="8.778690409028314"><ele>82.0</ele><time>2026-05-03T06:58:18.999Z</time></trkpt><trkpt lat="39.88622235954031" lon="8.77870006036309"><ele>82.0</ele><time>2026-05-03T06:58:19.999Z</time></trkpt><trkpt lat="39.88611815182189" lon="8.778710374458726"><ele>82.0</ele><time>2026-05-03T06:58:20.999Z</time></trkpt><trkpt lat="39.88602069022167" lon="8.778710846908858"><ele>82.0</ele><time>2026-05-03T06:58:21.999Z</time></trkpt><trkpt lat="39.88592605678066" lon="8.77871178345834"><ele>82.0</ele><time>2026-05-03T06:58:22.999Z</time></trkpt><trkpt lat="39.88583369113384" lon="8.778725636577688"><ele>82.39999999999999</ele><time>2026-05-03T06:58:23.999Z</time></trkpt><trkpt lat="39.88573870462573" lon="8.778721259805618"><ele>82.8</ele><time>2026-05-03T06:58:24.999Z</time></trkpt><trkpt lat="39.88564702595784" lon="8.778733740030457"><ele>83.2</ele><time>2026-05-03T06:58:25.999Z</time></trkpt><trkpt lat="39.88555897479797" lon="8.778775500679808"><ele>83.6</ele><time>2026-05-03T06:58:26.999Z</time></trkpt><trkpt lat="39.88548411131087" lon="8.778842866515175"><ele>84.0</ele><time>2026-05-03T06:58:27.999Z</time></trkpt><trkpt lat="39.88541695398164" lon="8.77890952864145"><ele>84.0</ele><time>2026-05-03T06:58:28.999Z</time></trkpt><trkpt lat="39.88535494393041" lon="8.77893514112412"><ele>84.0</ele><time>2026-05-03T06:58:29.999Z</time></trkpt><trkpt lat="39.88526556727784" lon="8.779007448210608"><ele>84.0</ele><time>2026-05-03T06:58:31.999Z</time></trkpt><trkpt lat="39.8851848683697" lon="8.779074400301266"><ele>84.0</ele><time>2026-05-03T06:58:33.999Z</time></trkpt><trkpt lat="39.885082095534564" lon="8.779161670165411"><ele>84.0</ele><time>2026-05-03T06:58:35.999Z</time></trkpt><trkpt lat="39.885025240438814" lon="8.779211092767882"><ele>84.33333333333333</ele><time>2026-05-03T06:58:36.999Z</time></trkpt><trkpt lat="39.884965186400194" lon="8.779263296035499"><ele>84.66666666666667</ele><time>2026-05-03T06:58:37.999Z</time></trkpt><trkpt lat="39.88491030700279" lon="8.779334421506755"><ele>85.0</ele><time>2026-05-03T06:58:38.999Z</time></trkpt><trkpt lat="39.88485261016677" lon="8.779411142465648"><ele>85.33333333333334</ele><time>2026-05-03T06:58:39.999Z</time></trkpt><trkpt lat="39.884795519550316" lon="8.7794977859364"><ele>85.66666666666667</ele><time>2026-05-03T06:58:40.999Z</time></trkpt><trkpt lat="39.88474051530813" lon="8.779597015708005"><ele>86.0</ele><time>2026-05-03T06:58:41.999Z</time></trkpt><trkpt lat="39.88468518084597" lon="8.779701153928317"><ele>86.0</ele><time>2026-05-03T06:58:42.999Z</time></trkpt><trkpt lat="39.88463063808594" lon="8.779811551747816"><ele>86.0</ele><time>2026-05-03T06:58:43.999Z</time></trkpt><trkpt lat="39.88457734593853" lon="8.779929731011459"><ele>86.0</ele><time>2026-05-03T06:58:44.999Z</time></trkpt><trkpt lat="39.88452405493112" lon="8.780055382827031"><ele>86.0</ele><time>2026-05-03T06:58:45.999Z</time></trkpt><trkpt lat="39.88448575886749" lon="8.780200503755529"><ele>86.0</ele><time>2026-05-03T06:58:46.999Z</time></trkpt><trkpt lat="39.884467839473295" lon="8.780358694577814"><ele>85.75</ele><time>2026-05-03T06:58:47.999Z</time></trkpt><trkpt lat="39.88444914820435" lon="8.780515975941915"><ele>85.5</ele><time>2026-05-03T06:58:48.999Z</time></trkpt><trkpt lat="39.88443081697861" lon="8.780679546110164"><ele>85.25</ele><time>2026-05-03T06:58:49.999Z</time></trkpt><trkpt lat="39.88441324163504" lon="8.780845063801097"><ele>85.0</ele><time>2026-05-03T06:58:50.999Z</time></trkpt><trkpt lat="39.88439610492736" lon="8.781006450582364"><ele>85.0</ele><time>2026-05-03T06:58:51.999Z</time></trkpt><trkpt lat="39.88437866897019" lon="8.78115637744235"><ele>85.0</ele><time>2026-05-03T06:58:52.999Z</time></trkpt><trkpt lat="39.88435900645199" lon="8.781303282294898"><ele>85.0</ele><time>2026-05-03T06:58:53.999Z</time></trkpt><trkpt lat="39.88432169597016" lon="8.78144247905382"><ele>85.0</ele><time>2026-05-03T06:58:54.999Z</time></trkpt><trkpt lat="39.884265218999694" lon="8.781572399004796"><ele>85.5</ele><time>2026-05-03T06:58:55.999Z</time></trkpt><trkpt lat="39.884186652675375" lon="8.781689834073543"><ele>86.0</ele><time>2026-05-03T06:58:56.999Z</time></trkpt><trkpt lat="39.88408906620184" lon="8.781812153940999"><ele>86.5</ele><time>2026-05-03T06:58:57.999Z</time></trkpt><trkpt lat="39.883984982837596" lon="8.781939341404614"><ele>87.0</ele><time>2026-05-03T06:58:58.999Z</time></trkpt><trkpt lat="39.88387496051461" lon="8.782071609662246"><ele>87.0</ele><time>2026-05-03T06:58:59.999Z</time></trkpt><trkpt lat="39.883765006491295" lon="8.782203383164786"><ele>87.0</ele><time>2026-05-03T06:59:00.999Z</time></trkpt><trkpt lat="39.883658802678895" lon="8.782333601302167"><ele>87.0</ele><time>2026-05-03T06:59:01.999Z</time></trkpt><trkpt lat="39.88355403314406" lon="8.782463780418004"><ele>87.0</ele><time>2026-05-03T06:59:02.999Z</time></trkpt><trkpt lat="39.883449494271055" lon="8.782593957418833"><ele>87.0</ele><time>2026-05-03T06:59:03.998Z</time></trkpt><trkpt lat="39.8833535516668" lon="8.78271293526176"><ele>87.0</ele><time>2026-05-03T06:59:04.998Z</time></trkpt><trkpt lat="39.88329738358793" lon="8.782782588942466"><ele>87.0</ele><time>2026-05-03T06:59:05.998Z</time></trkpt><trkpt lat="39.88324852318835" lon="8.782843180432948"><ele>87.0</ele><time>2026-05-03T06:59:08.998Z</time></trkpt><trkpt lat="39.883376929515414" lon="8.782758512492931"><ele>87.0</ele><time>2026-05-03T06:59:11.998Z</time></trkpt><trkpt lat="39.88343493925149" lon="8.782663632300235"><ele>85.0</ele><time>2026-05-03T06:59:12.998Z</time></trkpt><trkpt lat="39.883696211971625" lon="8.782876410557277"><ele>83.0</ele><time>2026-05-03T06:59:15.998Z</time></trkpt><trkpt lat="39.88350007601521" lon="8.78281311277487"><ele>83.0</ele><time>2026-05-03T06:59:16.998Z</time></trkpt><trkpt lat="39.88348231041026" lon="8.782928101003566"><ele>83.0</ele><time>2026-05-03T06:59:17.998Z</time></trkpt><trkpt lat="39.88346509265553" lon="8.783051010033573"><ele>83.0</ele><time>2026-05-03T06:59:18.998Z</time></trkpt><trkpt lat="39.883442386572135" lon="8.783181051021298"><ele>83.0</ele><time>2026-05-03T06:59:19.998Z</time></trkpt><trkpt lat="39.883412684781824" lon="8.783315678890471"><ele>83.0</ele><time>2026-05-03T06:59:20.998Z</time></trkpt><trkpt lat="39.8833709381921" lon="8.783446686751263"><ele>83.75</ele><time>2026-05-03T06:59:21.998Z</time></trkpt><trkpt lat="39.88333637571481" lon="8.78359690492317"><ele>84.5</ele><time>2026-05-03T06:59:22.998Z</time></trkpt><trkpt lat="39.88327307975983" lon="8.783730936425885"><ele>85.25</ele><time>2026-05-03T06:59:23.998Z</time></trkpt><trkpt lat="39.88322324960851" lon="8.783878892878562"><ele>86.0</ele><time>2026-05-03T06:59:24.998Z</time></trkpt><trkpt lat="39.88317956501442" lon="8.784034404642934"><ele>86.0</ele><time>2026-05-03T06:59:25.998Z</time></trkpt><trkpt lat="39.88313964391631" lon="8.78419785315291"><ele>86.0</ele><time>2026-05-03T06:59:26.998Z</time></trkpt><trkpt lat="39.88310506105274" lon="8.784369166623108"><ele>86.0</ele><time>2026-05-03T06:59:27.998Z</time></trkpt><trkpt lat="39.88307696302192" lon="8.784537771287347"><ele>86.0</ele><time>2026-05-03T06:59:28.998Z</time></trkpt><trkpt lat="39.8830641215997" lon="8.784711869760825"><ele>85.8</ele><time>2026-05-03T06:59:29.998Z</time></trkpt><trkpt lat="39.88301953303319" lon="8.784876249857502"><ele>85.6</ele><time>2026-05-03T06:59:30.998Z</time></trkpt><trkpt lat="39.882988597470906" lon="8.785025270607031"><ele>85.4</ele><time>2026-05-03T06:59:31.998Z</time></trkpt><trkpt lat="39.88297644379946" lon="8.785157673358784"><ele>85.2</ele><time>2026-05-03T06:59:32.998Z</time></trkpt><trkpt lat="39.882954674038" lon="8.785257283318865"><ele>85.0</ele><time>2026-05-03T06:59:33.998Z</time></trkpt><trkpt lat="39.88292702513752" lon="8.785385777613751"><ele>84.2</ele><time>2026-05-03T06:59:35.998Z</time></trkpt><trkpt lat="39.88291017285397" lon="8.785525603117252"><ele>83.4</ele><time>2026-05-03T07:00:14.999Z</time></trkpt><trkpt lat="39.88290638980909" lon="8.785642169891695"><ele>82.6</ele><time>2026-05-03T07:00:15.999Z</time></trkpt><trkpt lat="39.88289962296397" lon="8.785797428027752"><ele>81.8</ele><time>2026-05-03T07:00:17Z</time></trkpt><trkpt lat="39.88285735727181" lon="8.78587505185873"><ele>81.0</ele><time>2026-05-03T07:00:18Z</time></trkpt><trkpt lat="39.882905255242235" lon="8.785673002741529"><ele>81.0</ele><time>2026-05-03T07:00:26Z</time></trkpt><trkpt lat="39.88292427870926" lon="8.785564086773375"><ele>81.0</ele><time>2026-05-03T07:00:27Z</time></trkpt><trkpt lat="39.88294823630788" lon="8.785466940056192"><ele>81.0</ele><time>2026-05-03T07:00:29Z</time></trkpt><trkpt lat="39.88280447192882" lon="8.785575748788045"><ele>81.0</ele><time>2026-05-03T07:00:32Z</time></trkpt><trkpt lat="39.88274917712221" lon="8.785662653254779"><ele>81.0</ele><time>2026-05-03T07:00:33Z</time></trkpt><trkpt lat="39.88270241203411" lon="8.78575529934066"><ele>81.0</ele><time>2026-05-03T07:00:34Z</time></trkpt><trkpt lat="39.882655813664556" lon="8.785863354363164"><ele>81.0</ele><time>2026-05-03T07:00:35Z</time></trkpt><trkpt lat="39.88260571761312" lon="8.78597952002338"><ele>81.0</ele><time>2026-05-03T07:00:36Z</time></trkpt><trkpt lat="39.88256595456924" lon="8.786113429591163"><ele>81.0</ele><time>2026-05-03T07:00:37Z</time></trkpt><trkpt lat="39.88251240192802" lon="8.786236006958152"><ele>81.0</ele><time>2026-05-03T07:00:38Z</time></trkpt><trkpt lat="39.88244706581312" lon="8.786352473334603"><ele>81.5</ele><time>2026-05-03T07:00:39Z</time></trkpt><trkpt lat="39.882402801279426" lon="8.786491176813204"><ele>82.0</ele><time>2026-05-03T07:00:40Z</time></trkpt><trkpt lat="39.882362892954184" lon="8.786641255036159"><ele>82.5</ele><time>2026-05-03T07:00:41Z</time></trkpt><trkpt lat="39.882324514226084" lon="8.786790684732763"><ele>83.0</ele><time>2026-05-03T07:00:42Z</time></trkpt><trkpt lat="39.8822825004369" lon="8.786942286054291"><ele>83.0</ele><time>2026-05-03T07:00:43Z</time></trkpt><trkpt lat="39.88224259696668" lon="8.787095826085244"><ele>83.0</ele><time>2026-05-03T07:00:44Z</time></trkpt><trkpt lat="39.882203155780786" lon="8.787260306295188"><ele>83.0</ele><time>2026-05-03T07:00:45Z</time></trkpt><trkpt lat="39.882162659978775" lon="8.787429184329051"><ele>83.0</ele><time>2026-05-03T07:00:46Z</time></trkpt><trkpt lat="39.8821301334043" lon="8.787603874211836"><ele>82.5</ele><time>2026-05-03T07:00:47Z</time></trkpt><trkpt lat="39.88207535290428" lon="8.787767596449571"><ele>82.0</ele><time>2026-05-03T07:00:48Z</time></trkpt><trkpt lat="39.88201665498668" lon="8.787928127014236"><ele>81.5</ele><time>2026-05-03T07:00:49Z</time></trkpt><trkpt lat="39.881950323291385" lon="8.788041901236655"><ele>81.0</ele><time>2026-05-03T07:00:50Z</time></trkpt><trkpt lat="39.88190653672591" lon="8.788114619394335"><ele>81.0</ele><time>2026-05-03T07:00:51Z</time></trkpt><trkpt lat="39.88184540007352" lon="8.788210165047373"><ele>81.0</ele><time>2026-05-03T07:00:53Z</time></trkpt><trkpt lat="39.88179856854801" lon="8.788282257962747"><ele>81.0</ele><time>2026-05-03T07:00:55Z</time></trkpt><trkpt lat="39.881745610708364" lon="8.788382330418834"><ele>81.0</ele><time>2026-05-03T07:00:57Z</time></trkpt><trkpt lat="39.88169287227409" lon="8.78847029098044"><ele>81.0</ele><time>2026-05-03T07:00:58Z</time></trkpt><trkpt lat="39.88162994386921" lon="8.788580214688691"><ele>81.19999999999999</ele><time>2026-05-03T07:00:59Z</time></trkpt><trkpt lat="39.88156519998725" lon="8.78869960303158"><ele>81.39999999999999</ele><time>2026-05-03T07:01:00Z</time></trkpt><trkpt lat="39.881500259665046" lon="8.788814489554522"><ele>81.6</ele><time>2026-05-03T07:01:01Z</time></trkpt><trkpt lat="39.881429220802" lon="8.788912444732837"><ele>81.8</ele><time>2026-05-03T07:01:02Z</time></trkpt><trkpt lat="39.88132595288402" lon="8.789002343232367"><ele>82.0</ele><time>2026-05-03T07:01:03Z</time></trkpt><trkpt lat="39.88119859279891" lon="8.789102390707448"><ele>82.0</ele><time>2026-05-03T07:01:04Z</time></trkpt><trkpt lat="39.88107042969284" lon="8.789210727826175"><ele>82.0</ele><time>2026-05-03T07:01:05Z</time></trkpt><trkpt lat="39.8809501953961" lon="8.789330096427717"><ele>82.0</ele><time>2026-05-03T07:01:06Z</time></trkpt><trkpt lat="39.88085855902961" lon="8.789454695317701"><ele>82.0</ele><time>2026-05-03T07:01:06.999Z</time></trkpt><trkpt lat="39.88078859296098" lon="8.789597007114976"><ele>82.0</ele><time>2026-05-03T07:01:07.999Z</time></trkpt><trkpt lat="39.880725037129636" lon="8.789769870165298"><ele>82.0</ele><time>2026-05-03T07:01:08.999Z</time></trkpt><trkpt lat="39.88065576786879" lon="8.789970134929305"><ele>82.0</ele><time>2026-05-03T07:01:09.999Z</time></trkpt><trkpt lat="39.88056941559028" lon="8.79018543896485"><ele>82.0</ele><time>2026-05-03T07:01:10.999Z</time></trkpt><trkpt lat="39.88050604890201" lon="8.790380433724588"><ele>82.0</ele><time>2026-05-03T07:01:11.999Z</time></trkpt><trkpt lat="39.88045261153145" lon="8.790552786955262"><ele>82.0</ele><time>2026-05-03T07:01:12.999Z</time></trkpt><trkpt lat="39.880396986382166" lon="8.790684987980343"><ele>82.0</ele><time>2026-05-03T07:01:13.999Z</time></trkpt><trkpt lat="39.88034895185799" lon="8.79078728854094"><ele>82.0</ele><time>2026-05-03T07:01:14.999Z</time></trkpt><trkpt lat="39.88028260385873" lon="8.79088138378086"><ele>82.0</ele><time>2026-05-03T07:01:15.999Z</time></trkpt><trkpt lat="39.8802024252299" lon="8.790978590916051"><ele>82.0</ele><time>2026-05-03T07:01:16.999Z</time></trkpt><trkpt lat="39.880116512638" lon="8.791061609780227"><ele>82.0</ele><time>2026-05-03T07:01:17.999Z</time></trkpt><trkpt lat="39.880007654114706" lon="8.791136371246946"><ele>82.0</ele><time>2026-05-03T07:01:18.999Z</time></trkpt><trkpt lat="39.87987702994769" lon="8.791226713101114"><ele>82.0</ele><time>2026-05-03T07:01:19.999Z</time></trkpt><trkpt lat="39.87974314534653" lon="8.791329066660888"><ele>82.0</ele><time>2026-05-03T07:01:20.999Z</time></trkpt><trkpt lat="39.879598456339394" lon="8.791422442328448"><ele>82.0</ele><time>2026-05-03T07:01:21.999Z</time></trkpt><trkpt lat="39.87945296271643" lon="8.791524456016829"><ele>82.0</ele><time>2026-05-03T07:01:22.999Z</time></trkpt><trkpt lat="39.879317415856775" lon="8.79163414524623"><ele>82.0</ele><time>2026-05-03T07:01:23.999Z</time></trkpt><trkpt lat="39.87918876979675" lon="8.791779836819703"><ele>82.0</ele><time>2026-05-03T07:01:24.999Z</time></trkpt><trkpt lat="39.87905754156795" lon="8.791958302322781"><ele>82.33333333333333</ele><time>2026-05-03T07:01:25.999Z</time></trkpt><trkpt lat="39.87890607667558" lon="8.792150225958126"><ele>82.66666666666667</ele><time>2026-05-03T07:01:26.999Z</time></trkpt><trkpt lat="39.87874763411393" lon="8.792336747443024"><ele>83.0</ele><time>2026-05-03T07:01:27.999Z</time></trkpt><trkpt lat="39.87860935249547" lon="8.792503956023205"><ele>83.0</ele><time>2026-05-03T07:01:28.999Z</time></trkpt><trkpt lat="39.87848462486015" lon="8.792653466560932"><ele>83.0</ele><time>2026-05-03T07:01:29.999Z</time></trkpt><trkpt lat="39.87836629578862" lon="8.792794404658201"><ele>83.0</ele><time>2026-05-03T07:01:30.999Z</time></trkpt><trkpt lat="39.8782645321387" lon="8.792903835598246"><ele>83.0</ele><time>2026-05-03T07:01:31.999Z</time></trkpt><trkpt lat="39.87816827430801" lon="8.792980665703059"><ele>83.0</ele><time>2026-05-03T07:01:32.999Z</time></trkpt><trkpt lat="39.87805528511235" lon="8.793026829335338"><ele>83.0</ele><time>2026-05-03T07:01:33.999Z</time></trkpt><trkpt lat="39.87791723308714" lon="8.793058923703443"><ele>83.0</ele><time>2026-05-03T07:01:34.999Z</time></trkpt><trkpt lat="39.877763352222374" lon="8.793116628228077"><ele>83.0</ele><time>2026-05-03T07:01:35.999Z</time></trkpt><trkpt lat="39.87761521118247" lon="8.793185224482883"><ele>83.0</ele><time>2026-05-03T07:01:36.999Z</time></trkpt><trkpt lat="39.87750062128786" lon="8.793237736146683"><ele>83.0</ele><time>2026-05-03T07:01:37.999Z</time></trkpt><trkpt lat="39.877414535316774" lon="8.793280193820442"><ele>83.0</ele><time>2026-05-03T07:01:38.999Z</time></trkpt><trkpt lat="39.87735637818646" lon="8.793322218629251"><ele>83.0</ele><time>2026-05-03T07:01:39.999Z</time></trkpt><trkpt lat="39.87731570498653" lon="8.793398846931884"><ele>83.16666666666667</ele><time>2026-05-03T07:01:41.999Z</time></trkpt><trkpt lat="39.87731996114415" lon="8.79350929520804"><ele>83.33333333333334</ele><time>2026-05-03T07:01:44.999Z</time></trkpt><trkpt lat="39.877315253918795" lon="8.793592705870617"><ele>83.5</ele><time>2026-05-03T07:01:46.999Z</time></trkpt><trkpt lat="39.87729334797588" lon="8.793671900653163"><ele>83.66666666666667</ele><time>2026-05-03T07:01:54.999Z</time></trkpt><trkpt lat="39.87724376613599" lon="8.793831841318799"><ele>83.83333333333333</ele><time>2026-05-03T07:01:56.999Z</time></trkpt><trkpt lat="39.877204547885036" lon="8.793931561869655"><ele>84.0</ele><time>2026-05-03T07:01:57.999Z</time></trkpt><trkpt lat="39.87714735641012" lon="8.794025808974107"><ele>84.0</ele><time>2026-05-03T07:01:59Z</time></trkpt><trkpt lat="39.87709256630973" lon="8.79411120384785"><ele>84.0</ele><time>2026-05-03T07:02:00Z</time></trkpt><trkpt lat="39.87706346330349" lon="8.794191332639372"><ele>84.0</ele><time>2026-05-03T07:02:01Z</time></trkpt><trkpt lat="39.87707833908077" lon="8.794271454511035"><ele>84.0</ele><time>2026-05-03T07:02:02Z</time></trkpt><trkpt lat="39.877119603323976" lon="8.794349819969652"><ele>84.0</ele><time>2026-05-03T07:02:03Z</time></trkpt><trkpt lat="39.87717104650517" lon="8.7944294296089"><ele>84.0</ele><time>2026-05-03T07:02:04Z</time></trkpt><trkpt lat="39.877231172157245" lon="8.794516544805253"><ele>84.4</ele><time>2026-05-03T07:02:05Z</time></trkpt><trkpt lat="39.87727372596078" lon="8.794596869853924"><ele>84.80000000000001</ele><time>2026-05-03T07:02:06Z</time></trkpt><trkpt lat="39.877309734951154" lon="8.794680471300142"><ele>85.19999999999999</ele><time>2026-05-03T07:02:07Z</time></trkpt><trkpt lat="39.87732366714333" lon="8.79478983447051"><ele>85.6</ele><time>2026-05-03T07:02:08Z</time></trkpt><trkpt lat="39.877317751510425" lon="8.794938639425085"><ele>86.0</ele><time>2026-05-03T07:02:09Z</time></trkpt><trkpt lat="39.87728849281678" lon="8.795127232215545"><ele>86.33333333333334</ele><time>2026-05-03T07:02:10Z</time></trkpt><trkpt lat="39.87726512289394" lon="8.795323978372453"><ele>86.66666666666667</ele><time>2026-05-03T07:02:11Z</time></trkpt><trkpt lat="39.87724121872896" lon="8.795534993417718"><ele>87.0</ele><time>2026-05-03T07:02:12Z</time></trkpt><trkpt lat="39.87721335282966" lon="8.795772510416779"><ele>87.33333333333333</ele><time>2026-05-03T07:02:13Z</time></trkpt><trkpt lat="39.87718954450294" lon="8.796026492360856"><ele>87.66666666666666</ele><time>2026-05-03T07:02:14Z</time></trkpt><trkpt lat="39.87716707837332" lon="8.79626867121581"><ele>88.0</ele><time>2026-05-03T07:02:15Z</time></trkpt><trkpt lat="39.87715071702978" lon="8.79645312144873"><ele>88.0</ele><time>2026-05-03T07:02:16Z</time></trkpt><trkpt lat="39.8771366454271" lon="8.79656694918603"><ele>88.0</ele><time>2026-05-03T07:02:17Z</time></trkpt><trkpt lat="39.87711172070137" lon="8.796648450374592"><ele>88.0</ele><time>2026-05-03T07:02:18Z</time></trkpt><trkpt lat="39.877060825720456" lon="8.796717046341936"><ele>88.0</ele><time>2026-05-03T07:02:19Z</time></trkpt><trkpt lat="39.87699512227409" lon="8.79676850243481"><ele>88.0</ele><time>2026-05-03T07:02:20Z</time></trkpt><trkpt lat="39.876923475949035" lon="8.79681172004988"><ele>88.0</ele><time>2026-05-03T07:02:21Z</time></trkpt><trkpt lat="39.87687325503283" lon="8.796915805260099"><ele>88.0</ele><time>2026-05-03T07:02:23Z</time></trkpt><trkpt lat="39.87690158548237" lon="8.797017946246669"><ele>88.0</ele><time>2026-05-03T07:02:25Z</time></trkpt><trkpt lat="39.87691598215661" lon="8.797163617989506"><ele>88.0</ele><time>2026-05-03T07:02:27Z</time></trkpt><trkpt lat="39.876927568753665" lon="8.79726120687716"><ele>88.0</ele><time>2026-05-03T07:02:28Z</time></trkpt><trkpt lat="39.87695423241479" lon="8.797361555534627"><ele>88.0</ele><time>2026-05-03T07:02:29Z</time></trkpt><trkpt lat="39.876959414060735" lon="8.797462448149858"><ele>88.0</ele><time>2026-05-03T07:02:30Z</time></trkpt><trkpt lat="39.876949834977985" lon="8.797548769694501"><ele>88.0</ele><time>2026-05-03T07:02:31Z</time></trkpt><trkpt lat="39.87692860919943" lon="8.797647395483775"><ele>88.0</ele><time>2026-05-03T07:02:32Z</time></trkpt><trkpt lat="39.87688592230041" lon="8.797734379880689"><ele>88.0</ele><time>2026-05-03T07:02:33Z</time></trkpt><trkpt lat="39.87684179258941" lon="8.797819064613279"><ele>88.0</ele><time>2026-05-03T07:02:34Z</time></trkpt><trkpt lat="39.87682767935214" lon="8.797899037309797"><ele>88.0</ele><time>2026-05-03T07:02:35Z</time></trkpt><trkpt lat="39.876888569032104" lon="8.798026101685519"><ele>88.0</ele><time>2026-05-03T07:02:37Z</time></trkpt><trkpt lat="39.8770012738096" lon="8.798082845568866"><ele>88.25</ele><time>2026-05-03T07:02:39Z</time></trkpt><trkpt lat="39.87708742725536" lon="8.798081522416444"><ele>88.5</ele><time>2026-05-03T07:02:40Z</time></trkpt><trkpt lat="39.87721174356434" lon="8.798080555745337"><ele>88.75</ele><time>2026-05-03T07:02:41Z</time></trkpt><trkpt lat="39.87735005367432" lon="8.798096559375942"><ele>89.0</ele><time>2026-05-03T07:02:42Z</time></trkpt><trkpt lat="39.877506431957116" lon="8.798113034344071"><ele>90.5</ele><time>2026-05-03T07:02:43Z</time></trkpt><trkpt lat="39.877650090765734" lon="8.798131312785056"><ele>92.0</ele><time>2026-05-03T07:02:44Z</time></trkpt><trkpt lat="39.877767917388304" lon="8.798144294583928"><ele>93.5</ele><time>2026-05-03T07:02:45Z</time></trkpt><trkpt lat="39.877868775207325" lon="8.79815153017662"><ele>95.0</ele><time>2026-05-03T07:02:46Z</time></trkpt><trkpt lat="39.877956127490386" lon="8.798158510794941"><ele>95.0</ele><time>2026-05-03T07:02:47Z</time></trkpt><trkpt lat="39.87802614197359" lon="8.79816007077084"><ele>95.0</ele><time>2026-05-03T07:02:48Z</time></trkpt><trkpt lat="39.87815385817935" lon="8.798091677881812"><ele>95.0</ele><time>2026-05-03T07:02:50Z</time></trkpt><trkpt lat="39.87824919652975" lon="8.798002240905877"><ele>95.0</ele><time>2026-05-03T07:02:51Z</time></trkpt><trkpt lat="39.878362390526114" lon="8.79789032522087"><ele>96.5</ele><time>2026-05-03T07:02:52Z</time></trkpt><trkpt lat="39.87847807291348" lon="8.797755788991065"><ele>98.0</ele><time>2026-05-03T07:02:53Z</time></trkpt><trkpt lat="39.878572676495025" lon="8.797599732126017"><ele>99.5</ele><time>2026-05-03T07:02:54Z</time></trkpt><trkpt lat="39.8786482050716" lon="8.797462093747086"><ele>101.0</ele><time>2026-05-03T07:02:55Z</time></trkpt><trkpt lat="39.87871876993114" lon="8.797394089425453"><ele>101.0</ele><time>2026-05-03T07:02:56Z</time></trkpt><trkpt lat="39.87876197798547" lon="8.797472921832243"><ele>101.0</ele><time>2026-05-03T07:03:00Z</time></trkpt><trkpt lat="39.87869602496551" lon="8.7975966071536"><ele>101.0</ele><time>2026-05-03T07:03:01Z</time></trkpt><trkpt lat="39.878659052408686" lon="8.7977746317378"><ele>101.0</ele><time>2026-05-03T07:03:02Z</time></trkpt><trkpt lat="39.87861799955132" lon="8.797980097764208"><ele>101.33333333333333</ele><time>2026-05-03T07:03:03Z</time></trkpt><trkpt lat="39.87857677470695" lon="8.79819172405563"><ele>101.66666666666666</ele><time>2026-05-03T07:03:04Z</time></trkpt><trkpt lat="39.87852875718479" lon="8.798439728825715"><ele>102.0</ele><time>2026-05-03T07:03:05Z</time></trkpt><trkpt lat="39.87847708331337" lon="8.798711613488221"><ele>99.0</ele><time>2026-05-03T07:03:06Z</time></trkpt><trkpt lat="39.8784243910778" lon="8.798988856433585"><ele>96.0</ele><time>2026-05-03T07:03:07Z</time></trkpt><trkpt lat="39.87836566999977" lon="8.799297821726572"><ele>97.0</ele><time>2026-05-03T07:03:08Z</time></trkpt><trkpt lat="39.878302823510694" lon="8.799628493600325"><ele>98.0</ele><time>2026-05-03T07:03:08.999Z</time></trkpt><trkpt lat="39.87824008220596" lon="8.799965608519484"><ele>99.0</ele><time>2026-05-03T07:03:09.999Z</time></trkpt><trkpt lat="39.878198445788776" lon="8.800329925825624"><ele>100.0</ele><time>2026-05-03T07:03:10.999Z</time></trkpt><trkpt lat="39.8781258996942" lon="8.800704723138345"><ele>102.5</ele><time>2026-05-03T07:03:11.999Z</time></trkpt><trkpt lat="39.87805091306638" lon="8.801088139946428"><ele>105.0</ele><time>2026-05-03T07:03:12.999Z</time></trkpt><trkpt lat="39.877961269102364" lon="8.801468503909312"><ele>105.0</ele><time>2026-05-03T07:03:13.999Z</time></trkpt><trkpt lat="39.87787141979798" lon="8.80179589223549"><ele>105.0</ele><time>2026-05-03T07:03:14.999Z</time></trkpt><trkpt lat="39.87778983626073" lon="8.802078167908183"><ele>105.66666666666666</ele><time>2026-05-03T07:03:15.999Z</time></trkpt><trkpt lat="39.877704246854606" lon="8.802347284915315"><ele>106.33333333333333</ele><time>2026-05-03T07:03:16.999Z</time></trkpt><trkpt lat="39.87761375989261" lon="8.802605706050898"><ele>107.0</ele><time>2026-05-03T07:03:17.999Z</time></trkpt><trkpt lat="39.87753443165312" lon="8.802825589495349"><ele>107.0</ele><time>2026-05-03T07:03:18.999Z</time></trkpt><trkpt lat="39.87746336016104" lon="8.803036045908213"><ele>107.0</ele><time>2026-05-03T07:03:19.999Z</time></trkpt><trkpt lat="39.877407620165656" lon="8.803253395051295"><ele>107.0</ele><time>2026-05-03T07:03:20.999Z</time></trkpt><trkpt lat="39.877376376386565" lon="8.803487708026438"><ele>108.0</ele><time>2026-05-03T07:03:21.999Z</time></trkpt><trkpt lat="39.877371640360735" lon="8.803744538762418"><ele>109.0</ele><time>2026-05-03T07:03:22.999Z</time></trkpt><trkpt lat="39.87736171569873" lon="8.804004796235903"><ele>110.0</ele><time>2026-05-03T07:03:23.999Z</time></trkpt><trkpt lat="39.877350593049314" lon="8.804262251138917"><ele>110.33333333333333</ele><time>2026-05-03T07:03:24.999Z</time></trkpt><trkpt lat="39.87734585645066" lon="8.804519663214581"><ele>110.66666666666666</ele><time>2026-05-03T07:03:25.999Z</time></trkpt><trkpt lat="39.877354785525526" lon="8.80478528334663"><ele>111.0</ele><time>2026-05-03T07:03:26.999Z</time></trkpt><trkpt lat="39.87737729098282" lon="8.805057558644164"><ele>110.66666666666666</ele><time>2026-05-03T07:03:27.999Z</time></trkpt><trkpt lat="39.87740492277603" lon="8.805338799542907"><ele>110.33333333333333</ele><time>2026-05-03T07:03:28.999Z</time></trkpt><trkpt lat="39.87744159943459" lon="8.805625490030172"><ele>110.0</ele><time>2026-05-03T07:03:29.999Z</time></trkpt><trkpt lat="39.87748180294084" lon="8.8059089779475"><ele>110.0</ele><time>2026-05-03T07:03:30.999Z</time></trkpt><trkpt lat="39.877521828369154" lon="8.806192697040181"><ele>110.0</ele><time>2026-05-03T07:03:31.999Z</time></trkpt><trkpt lat="39.877560926502255" lon="8.806464687967003"><ele>110.0</ele><time>2026-05-03T07:03:32.999Z</time></trkpt><trkpt lat="39.877595459753884" lon="8.806717244934582"><ele>111.66666666666666</ele><time>2026-05-03T07:03:33.999Z</time></trkpt><trkpt lat="39.87763670955739" lon="8.806977421575809"><ele>113.33333333333334</ele><time>2026-05-03T07:03:34.999Z</time></trkpt><trkpt lat="39.87770166746329" lon="8.807243637432673"><ele>115.0</ele><time>2026-05-03T07:03:35.999Z</time></trkpt><trkpt lat="39.87777137968594" lon="8.80750475137038"><ele>115.33333333333334</ele><time>2026-05-03T07:03:36.999Z</time></trkpt><trkpt lat="39.87783901856121" lon="8.807773275485166"><ele>115.66666666666666</ele><time>2026-05-03T07:03:37.999Z</time></trkpt><trkpt lat="39.87790544299745" lon="8.808034054828097"><ele>116.0</ele><time>2026-05-03T07:03:38.999Z</time></trkpt><trkpt lat="39.877974724300515" lon="8.808282757086848"><ele>116.33333333333333</ele><time>2026-05-03T07:03:39.999Z</time></trkpt><trkpt lat="39.87804223637928" lon="8.808525467406987"><ele>116.66666666666666</ele><time>2026-05-03T07:03:40.999Z</time></trkpt><trkpt lat="39.87809297651251" lon="8.808747992679368"><ele>117.0</ele><time>2026-05-03T07:03:41.999Z</time></trkpt><trkpt lat="39.87811871042868" lon="8.808955806296966"><ele>117.0</ele><time>2026-05-03T07:03:42.999Z</time></trkpt><trkpt lat="39.87812214038061" lon="8.80914554326108"><ele>117.0</ele><time>2026-05-03T07:03:43.999Z</time></trkpt><trkpt lat="39.87810218474501" lon="8.809338875537437"><ele>117.0</ele><time>2026-05-03T07:03:44.999Z</time></trkpt><trkpt lat="39.878066368982964" lon="8.809562493157996"><ele>117.0</ele><time>2026-05-03T07:03:45.999Z</time></trkpt><trkpt lat="39.87801649923861" lon="8.80980082004564"><ele>117.0</ele><time>2026-05-03T07:03:46.999Z</time></trkpt><trkpt lat="39.87796436081033" lon="8.810056077035142"><ele>117.0</ele><time>2026-05-03T07:03:47.999Z</time></trkpt><trkpt lat="39.877905724710715" lon="8.810323144474847"><ele>118.5</ele><time>2026-05-03T07:03:48.999Z</time></trkpt><trkpt lat="39.87784926377041" lon="8.810611171666094"><ele>120.0</ele><time>2026-05-03T07:03:49.999Z</time></trkpt><trkpt lat="39.87778953197347" lon="8.810916433986877"><ele>123.5</ele><time>2026-05-03T07:03:50.999Z</time></trkpt><trkpt lat="39.87771820124612" lon="8.811222564604922"><ele>127.0</ele><time>2026-05-03T07:03:51.999Z</time></trkpt><trkpt lat="39.87765371738428" lon="8.811528703203216"><ele>123.0</ele><time>2026-05-03T07:03:52.999Z</time></trkpt><trkpt lat="39.87759258886586" lon="8.811799692775912"><ele>119.0</ele><time>2026-05-03T07:03:53.999Z</time></trkpt><trkpt lat="39.877543035439466" lon="8.812031734736149"><ele>115.0</ele><time>2026-05-03T07:03:54.999Z</time></trkpt><trkpt lat="39.877503510890314" lon="8.81220375961825"><ele>115.0</ele><time>2026-05-03T07:03:55.999Z</time></trkpt><trkpt lat="39.87745190823748" lon="8.812351079553862"><ele>115.0</ele><time>2026-05-03T07:03:56.999Z</time></trkpt><trkpt lat="39.87737012177485" lon="8.81248795345424"><ele>115.0</ele><time>2026-05-03T07:03:57.999Z</time></trkpt><trkpt lat="39.87725560668898" lon="8.812607187520038"><ele>115.0</ele><time>2026-05-03T07:03:58.999Z</time></trkpt><trkpt lat="39.877125021005" lon="8.812717969136697"><ele>115.0</ele><time>2026-05-03T07:03:59.999Z</time></trkpt><trkpt lat="39.87700806886156" lon="8.812816530990245"><ele>115.0</ele><time>2026-05-03T07:04:00.999Z</time></trkpt><trkpt lat="39.87689969814761" lon="8.812924665556645"><ele>115.0</ele><time>2026-05-03T07:04:01.999Z</time></trkpt><trkpt lat="39.876804513589406" lon="8.813073058600999"><ele>115.0</ele><time>2026-05-03T07:04:02.999Z</time></trkpt><trkpt lat="39.87672194105806" lon="8.813255765786966"><ele>115.0</ele><time>2026-05-03T07:04:03.999Z</time></trkpt><trkpt lat="39.876650652508154" lon="8.813460705611085"><ele>115.0</ele><time>2026-05-03T07:04:05Z</time></trkpt><trkpt lat="39.876588798353566" lon="8.813689765695925"><ele>115.0</ele><time>2026-05-03T07:04:06Z</time></trkpt><trkpt lat="39.876526335445234" lon="8.813946176324668"><ele>116.33333333333334</ele><time>2026-05-03T07:04:07Z</time></trkpt><trkpt lat="39.87645861419026" lon="8.814169278369121"><ele>117.66666666666666</ele><time>2026-05-03T07:04:08Z</time></trkpt><trkpt lat="39.87639385611485" lon="8.814353895287423"><ele>119.0</ele><time>2026-05-03T07:04:09Z</time></trkpt><trkpt lat="39.87636109564646" lon="8.814515998889524"><ele>119.66666666666666</ele><time>2026-05-03T07:04:10Z</time></trkpt><trkpt lat="39.87636712875173" lon="8.81470363713187"><ele>120.33333333333334</ele><time>2026-05-03T07:04:11Z</time></trkpt><trkpt lat="39.87641539407771" lon="8.8149278248867"><ele>121.0</ele><time>2026-05-03T07:04:12Z</time></trkpt><trkpt lat="39.87645996010177" lon="8.815162297459132"><ele>121.66666666666667</ele><time>2026-05-03T07:04:13Z</time></trkpt><trkpt lat="39.87648003143652" lon="8.81539543526507"><ele>122.33333333333334</ele><time>2026-05-03T07:04:14Z</time></trkpt><trkpt lat="39.87647353647835" lon="8.81561932130839"><ele>123.0</ele><time>2026-05-03T07:04:15Z</time></trkpt><trkpt lat="39.87642633269553" lon="8.815841262530611"><ele>123.0</ele><time>2026-05-03T07:04:16Z</time></trkpt><trkpt lat="39.87636467926503" lon="8.816065510137744"><ele>123.0</ele><time>2026-05-03T07:04:17Z</time></trkpt><trkpt lat="39.87629944449008" lon="8.816281561259487"><ele>123.0</ele><time>2026-05-03T07:04:18Z</time></trkpt><trkpt lat="39.87626271160981" lon="8.81648097320394"><ele>123.0</ele><time>2026-05-03T07:04:19Z</time></trkpt><trkpt lat="39.87626533433056" lon="8.816676942827655"><ele>123.0</ele><time>2026-05-03T07:04:20Z</time></trkpt><trkpt lat="39.876311779582615" lon="8.816874780136432"><ele>123.0</ele><time>2026-05-03T07:04:21Z</time></trkpt><trkpt lat="39.876404691760385" lon="8.817069385003096"><ele>123.33333333333334</ele><time>2026-05-03T07:04:22Z</time></trkpt><trkpt lat="39.87653124869813" lon="8.817257307233794"><ele>123.66666666666667</ele><time>2026-05-03T07:04:23Z</time></trkpt><trkpt lat="39.87665796339169" lon="8.817446616930825"><ele>124.0</ele><time>2026-05-03T07:04:24Z</time></trkpt><trkpt lat="39.876754518617226" lon="8.817616023706638"><ele>130.75</ele><time>2026-05-03T07:04:25Z</time></trkpt><trkpt lat="39.87682307698486" lon="8.817772307188815"><ele>137.5</ele><time>2026-05-03T07:04:26Z</time></trkpt><trkpt lat="39.876869158821705" lon="8.817921232743105"><ele>144.25</ele><time>2026-05-03T07:04:27Z</time></trkpt><trkpt lat="39.876871250826014" lon="8.81805737768625"><ele>151.0</ele><time>2026-05-03T07:04:28Z</time></trkpt><trkpt lat="39.87682289159338" lon="8.818202726021958"><ele>145.0</ele><time>2026-05-03T07:04:29Z</time></trkpt><trkpt lat="39.876731588628815" lon="8.818349412691122"><ele>139.0</ele><time>2026-05-03T07:04:30Z</time></trkpt><trkpt lat="39.876612728614106" lon="8.818492778753718"><ele>133.0</ele><time>2026-05-03T07:04:31Z</time></trkpt><trkpt lat="39.8764784729607" lon="8.818645715352575"><ele>133.0</ele><time>2026-05-03T07:04:32Z</time></trkpt><trkpt lat="39.87633410604699" lon="8.81881047012791"><ele>133.0</ele><time>2026-05-03T07:04:33Z</time></trkpt><trkpt lat="39.876192970764514" lon="8.818994621389958"><ele>133.0</ele><time>2026-05-03T07:04:34Z</time></trkpt><trkpt lat="39.876042195558625" lon="8.819191426558206"><ele>134.33333333333334</ele><time>2026-05-03T07:04:35Z</time></trkpt><trkpt lat="39.87588236682098" lon="8.819392800738672"><ele>135.66666666666666</ele><time>2026-05-03T07:04:36Z</time></trkpt><trkpt lat="39.875717162375835" lon="8.819591155606219"><ele>137.0</ele><time>2026-05-03T07:04:37Z</time></trkpt><trkpt lat="39.87554283106371" lon="8.819800175496917"><ele>137.0</ele><time>2026-05-03T07:04:38Z</time></trkpt><trkpt lat="39.87537685226256" lon="8.819996108846905"><ele>137.0</ele><time>2026-05-03T07:04:39Z</time></trkpt><trkpt lat="39.87524148101379" lon="8.820159925729197"><ele>137.0</ele><time>2026-05-03T07:04:40Z</time></trkpt><trkpt lat="39.8751269602501" lon="8.820328483118624"><ele>136.0</ele><time>2026-05-03T07:04:41Z</time></trkpt><trkpt lat="39.87503794965787" lon="8.82052573864902"><ele>135.0</ele><time>2026-05-03T07:04:42Z</time></trkpt><trkpt lat="39.87497871521408" lon="8.820717471446601"><ele>134.0</ele><time>2026-05-03T07:04:43Z</time></trkpt><trkpt lat="39.87495666306253" lon="8.82090444499672"><ele>134.25</ele><time>2026-05-03T07:04:44Z</time></trkpt><trkpt lat="39.87496852762445" lon="8.82111145662597"><ele>134.5</ele><time>2026-05-03T07:04:45Z</time></trkpt><trkpt lat="39.87500610734391" lon="8.821300439023291"><ele>134.75</ele><time>2026-05-03T07:04:46Z</time></trkpt><trkpt lat="39.8750725686577" lon="8.821460032574178"><ele>135.0</ele><time>2026-05-03T07:04:47Z</time></trkpt><trkpt lat="39.87517717233705" lon="8.821614968934101"><ele>135.0</ele><time>2026-05-03T07:04:48Z</time></trkpt><trkpt lat="39.87530053787733" lon="8.821768625884022"><ele>135.0</ele><time>2026-05-03T07:04:49Z</time></trkpt><trkpt lat="39.87542555361902" lon="8.821907732880542"><ele>135.0</ele><time>2026-05-03T07:04:50Z</time></trkpt><trkpt lat="39.87557933317094" lon="8.822012607657294"><ele>135.0</ele><time>2026-05-03T07:04:51Z</time></trkpt><trkpt lat="39.875754891372466" lon="8.822100161465192"><ele>135.0</ele><time>2026-05-03T07:04:52Z</time></trkpt><trkpt lat="39.875917740463436" lon="8.822198656811398"><ele>135.0</ele><time>2026-05-03T07:04:53Z</time></trkpt><trkpt lat="39.876039763214486" lon="8.822325969835553"><ele>136.33333333333334</ele><time>2026-05-03T07:04:54Z</time></trkpt><trkpt lat="39.87612925570561" lon="8.822479635867339"><ele>137.66666666666669</ele><time>2026-05-03T07:04:55Z</time></trkpt><trkpt lat="39.87620905726543" lon="8.822643329552811"><ele>139.0</ele><time>2026-05-03T07:04:56Z</time></trkpt><trkpt lat="39.87629162849969" lon="8.822818975349282"><ele>139.0</ele><time>2026-05-03T07:04:57Z</time></trkpt><trkpt lat="39.876377218543965" lon="8.823009517836715"><ele>139.0</ele><time>2026-05-03T07:04:58Z</time></trkpt><trkpt lat="39.87645892820664" lon="8.823173761390887"><ele>139.0</ele><time>2026-05-03T07:04:59Z</time></trkpt><trkpt lat="39.876507597619764" lon="8.823271239986704"><ele>139.0</ele><time>2026-05-03T07:05:00Z</time></trkpt><trkpt lat="39.87644056257704" lon="8.823115559373937"><ele>139.0</ele><time>2026-05-03T07:05:07Z</time></trkpt><trkpt lat="39.8763806966097" lon="8.823024983293001"><ele>139.0</ele><time>2026-05-03T07:05:08Z</time></trkpt><trkpt lat="39.876322457994135" lon="8.822921210570712"><ele>139.0</ele><time>2026-05-03T07:05:09Z</time></trkpt><trkpt lat="39.87626498310829" lon="8.822798455362724"><ele>139.0</ele><time>2026-05-03T07:05:10Z</time></trkpt><trkpt lat="39.87621296453537" lon="8.822678952543905"><ele>139.0</ele><time>2026-05-03T07:05:11Z</time></trkpt><trkpt lat="39.87615846534065" lon="8.822560248109554"><ele>138.2</ele><time>2026-05-03T07:05:11.999Z</time></trkpt><trkpt lat="39.876098411005714" lon="8.82244368180763"><ele>137.4</ele><time>2026-05-03T07:05:12.999Z</time></trkpt><trkpt lat="39.87603404359016" lon="8.8223271527422"><ele>136.6</ele><time>2026-05-03T07:05:13.999Z</time></trkpt><trkpt lat="39.87595779994259" lon="8.822223232067238"><ele>135.8</ele><time>2026-05-03T07:05:14.999Z</time></trkpt><trkpt lat="39.8758699040783" lon="8.822135088845982"><ele>135.0</ele><time>2026-05-03T07:05:15.999Z</time></trkpt><trkpt lat="39.87576734117414" lon="8.822067275943882"><ele>135.0</ele><time>2026-05-03T07:05:16.999Z</time></trkpt><trkpt lat="39.87566162118373" lon="8.822010029728654"><ele>135.0</ele><time>2026-05-03T07:05:17.999Z</time></trkpt><trkpt lat="39.87556050067384" lon="8.821949797694943"><ele>135.0</ele><time>2026-05-03T07:05:18.999Z</time></trkpt><trkpt lat="39.87547994278704" lon="8.821898662489083"><ele>135.0</ele><time>2026-05-03T07:05:19.999Z</time></trkpt><trkpt lat="39.875421572354504" lon="8.821860040025953"><ele>135.0</ele><time>2026-05-03T07:05:20.999Z</time></trkpt><trkpt lat="39.87535802260806" lon="8.821893270412062"><ele>135.0</ele><time>2026-05-03T07:05:23.999Z</time></trkpt><trkpt lat="39.875392376945086" lon="8.822000672999575"><ele>135.0</ele><time>2026-05-03T07:05:25.999Z</time></trkpt><trkpt lat="39.875456434486274" lon="8.822126147822022"><ele>135.0</ele><time>2026-05-03T07:05:27.999Z</time></trkpt><trkpt lat="39.87549155608911" lon="8.82220735618559"><ele>135.0</ele><time>2026-05-03T07:05:29.999Z</time></trkpt><trkpt lat="39.87552170209737" lon="8.822297565817822"><ele>135.0</ele><time>2026-05-03T07:05:33.999Z</time></trkpt><trkpt lat="39.87556396290606" lon="8.822361075876794"><ele>135.0</ele><time>2026-05-03T07:05:35.999Z</time></trkpt><trkpt lat="39.875655945431745" lon="8.82239604117576"><ele>135.0</ele><time>2026-05-03T07:05:37.999Z</time></trkpt><trkpt lat="39.87570810872198" lon="8.822476808841083"><ele>135.0</ele><time>2026-05-03T07:05:39.999Z</time></trkpt><trkpt lat="39.87569138417375" lon="8.822605519285375"><ele>135.0</ele><time>2026-05-03T07:05:41.999Z</time></trkpt><trkpt lat="39.8756548114929" lon="8.82270182158366"><ele>135.0</ele><time>2026-05-03T07:05:42.999Z</time></trkpt><trkpt lat="39.875617708470756" lon="8.822801497565667"><ele>135.0</ele><time>2026-05-03T07:05:43.999Z</time></trkpt><trkpt lat="39.875584514732274" lon="8.822904383528403"><ele>135.0</ele><time>2026-05-03T07:05:44.999Z</time></trkpt><trkpt lat="39.87555172069624" lon="8.823034116710193"><ele>135.8</ele><time>2026-05-03T07:05:46.999Z</time></trkpt><trkpt lat="39.87554574585127" lon="8.823149339203885"><ele>136.6</ele><time>2026-05-03T07:05:48.999Z</time></trkpt><trkpt lat="39.87551374347387" lon="8.823270019219462"><ele>137.4</ele><time>2026-05-03T07:05:50.999Z</time></trkpt><trkpt lat="39.875457697395895" lon="8.823369632030039"><ele>138.2</ele><time>2026-05-03T07:05:52.999Z</time></trkpt><trkpt lat="39.875468806642" lon="8.823504977194021"><ele>139.0</ele><time>2026-05-03T07:05:54.999Z</time></trkpt><trkpt lat="39.87555412899198" lon="8.82354460838226"><ele>139.0</ele><time>2026-05-03T07:05:56.999Z</time></trkpt><trkpt lat="39.87562003045895" lon="8.82349276386862"><ele>139.0</ele><time>2026-05-03T07:05:57.999Z</time></trkpt><trkpt lat="39.875678407855965" lon="8.823440796496618"><ele>139.0</ele><time>2026-05-03T07:05:58.999Z</time></trkpt><trkpt lat="39.875767955743854" lon="8.823469431962488"><ele>139.0</ele><time>2026-05-03T07:06:00.999Z</time></trkpt><trkpt lat="39.87578953028747" lon="8.823607669470203"><ele>139.0</ele><time>2026-05-03T07:06:02.999Z</time></trkpt><trkpt lat="39.875779307324486" lon="8.82372221755775"><ele>139.0</ele><time>2026-05-03T07:06:03.999Z</time></trkpt><trkpt lat="39.875785227035024" lon="8.823833286872546"><ele>140.6</ele><time>2026-05-03T07:06:04.999Z</time></trkpt><trkpt lat="39.87581699111601" lon="8.823947178365257"><ele>142.2</ele><time>2026-05-03T07:06:05.999Z</time></trkpt><trkpt lat="39.87585265385199" lon="8.824069424736015"><ele>143.79999999999998</ele><time>2026-05-03T07:06:06.999Z</time></trkpt><trkpt lat="39.875871281276936" lon="8.824186977272278"><ele>145.4</ele><time>2026-05-03T07:06:07.999Z</time></trkpt><trkpt lat="39.875888555198706" lon="8.82428138406828"><ele>147.0</ele><time>2026-05-03T07:06:08.999Z</time></trkpt><trkpt lat="39.87593551523303" lon="8.824414291772772"><ele>147.16666666666666</ele><time>2026-05-03T07:06:11Z</time></trkpt><trkpt lat="39.875958842829874" lon="8.824505603292447"><ele>147.33333333333334</ele><time>2026-05-03T07:06:13Z</time></trkpt><trkpt lat="39.87599773280889" lon="8.824600460390402"><ele>147.5</ele><time>2026-05-03T07:06:16Z</time></trkpt><trkpt lat="39.87605909500809" lon="8.824681216905239"><ele>147.66666666666669</ele><time>2026-05-03T07:06:18Z</time></trkpt><trkpt lat="39.87609406728685" lon="8.824762042342151"><ele>147.83333333333334</ele><time>2026-05-03T07:06:20Z</time></trkpt><trkpt lat="39.87610258250396" lon="8.824857822615288"><ele>148.0</ele><time>2026-05-03T07:06:22Z</time></trkpt><trkpt lat="39.87610522618436" lon="8.825027358298108"><ele>148.0</ele><time>2026-05-03T07:06:24Z</time></trkpt><trkpt lat="39.876116754459275" lon="8.82512464589101"><ele>148.0</ele><time>2026-05-03T07:06:25Z</time></trkpt><trkpt lat="39.87613488656263" lon="8.825236518771641"><ele>148.0</ele><time>2026-05-03T07:06:26Z</time></trkpt><trkpt lat="39.87615413456797" lon="8.825376186533543"><ele>148.0</ele><time>2026-05-03T07:06:27Z</time></trkpt><trkpt lat="39.876171126313146" lon="8.825546554268517"><ele>148.0</ele><time>2026-05-03T07:06:28Z</time></trkpt><trkpt lat="39.87618572731891" lon="8.825701757789352"><ele>150.60000000000002</ele><time>2026-05-03T07:06:29Z</time></trkpt><trkpt lat="39.87619263860761" lon="8.825841422342616"><ele>153.20000000000002</ele><time>2026-05-03T07:06:30Z</time></trkpt><trkpt lat="39.87619129533013" lon="8.825976353906466"><ele>155.8</ele><time>2026-05-03T07:06:31Z</time></trkpt><trkpt lat="39.876187601539726" lon="8.826103678787682"><ele>158.4</ele><time>2026-05-03T07:06:32Z</time></trkpt><trkpt lat="39.876184794912014" lon="8.8262177941279"><ele>161.0</ele><time>2026-05-03T07:06:33Z</time></trkpt><trkpt lat="39.87618275528178" lon="8.82631604030775"><ele>162.4</ele><time>2026-05-03T07:06:34Z</time></trkpt><trkpt lat="39.87616139223019" lon="8.826429272248387"><ele>163.8</ele><time>2026-05-03T07:06:36Z</time></trkpt><trkpt lat="39.87605792772869" lon="8.826535190285622"><ele>165.20000000000002</ele><time>2026-05-03T07:06:38Z</time></trkpt><trkpt lat="39.87601538159779" lon="8.826602150990974"><ele>166.60000000000002</ele><time>2026-05-03T07:06:39Z</time></trkpt><trkpt lat="39.87596963598186" lon="8.826735483925953"><ele>168.0</ele><time>2026-05-03T07:06:41Z</time></trkpt><trkpt lat="39.87593454258175" lon="8.826833899472334"><ele>170.0</ele><time>2026-05-03T07:06:42Z</time></trkpt><trkpt lat="39.87589750720604" lon="8.826948625782729"><ele>172.0</ele><time>2026-05-03T07:06:43Z</time></trkpt><trkpt lat="39.87585195327723" lon="8.827080921510971"><ele>174.0</ele><time>2026-05-03T07:06:44Z</time></trkpt><trkpt lat="39.875792779305584" lon="8.82724175047582"><ele>176.0</ele><time>2026-05-03T07:06:45Z</time></trkpt><trkpt lat="39.87574793679536" lon="8.827351364795605"><ele>178.0</ele><time>2026-05-03T07:06:46Z</time></trkpt><trkpt lat="39.87570639562117" lon="8.82744626536499"><ele>178.0</ele><time>2026-05-03T07:06:47Z</time></trkpt><trkpt lat="39.87564732974519" lon="8.827540313084848"><ele>178.0</ele><time>2026-05-03T07:06:48Z</time></trkpt><trkpt lat="39.8755879402942" lon="8.82762705384882"><ele>178.0</ele><time>2026-05-03T07:06:49Z</time></trkpt><trkpt lat="39.87553899533401" lon="8.827678789583286"><ele>178.0</ele><time>2026-05-03T07:06:50Z</time></trkpt><trkpt lat="39.87547795495341" lon="8.82774841923403"><ele>178.0</ele><time>2026-05-03T07:06:51Z</time></trkpt><trkpt lat="39.875404781007646" lon="8.827815736770424"><ele>178.0</ele><time>2026-05-03T07:06:52Z</time></trkpt><trkpt lat="39.87532847956109" lon="8.827866118736585"><ele>178.8</ele><time>2026-05-03T07:06:53Z</time></trkpt><trkpt lat="39.87522905707511" lon="8.827931624422703"><ele>179.60000000000002</ele><time>2026-05-03T07:06:55Z</time></trkpt><trkpt lat="39.875150973178414" lon="8.827943582668325"><ele>180.39999999999998</ele><time>2026-05-03T07:06:56Z</time></trkpt><trkpt lat="39.87504610087259" lon="8.82797196417539"><ele>181.2</ele><time>2026-05-03T07:06:57Z</time></trkpt><trkpt lat="39.87494086909831" lon="8.82802726779992"><ele>182.0</ele><time>2026-05-03T07:06:58Z</time></trkpt><trkpt lat="39.87487011351074" lon="8.828073200810111"><ele>183.5</ele><time>2026-05-03T07:06:59Z</time></trkpt><trkpt lat="39.874815071480235" lon="8.82811812755722"><ele>185.0</ele><time>2026-05-03T07:07:00Z</time></trkpt><trkpt lat="39.87476002654218" lon="8.828163786657159"><ele>186.5</ele><time>2026-05-03T07:07:01Z</time></trkpt><trkpt lat="39.87465835868744" lon="8.828241752739604"><ele>188.0</ele><time>2026-05-03T07:07:03Z</time></trkpt><trkpt lat="39.874591190674344" lon="8.828296390325502"><ele>189.5</ele><time>2026-05-03T07:07:05Z</time></trkpt><trkpt lat="39.87451667482698" lon="8.828203605981166"><ele>191.0</ele><time>2026-05-03T07:07:08Z</time></trkpt><trkpt lat="39.874507650104924" lon="8.828081116698915"><ele>191.0</ele><time>2026-05-03T07:07:10Z</time></trkpt><trkpt lat="39.87444119728509" lon="8.827972935239705"><ele>191.0</ele><time>2026-05-03T07:07:12Z</time></trkpt><trkpt lat="39.87434875009097" lon="8.827899382805901"><ele>191.0</ele><time>2026-05-03T07:07:14Z</time></trkpt><trkpt lat="39.874288489707574" lon="8.827860826709644"><ele>191.0</ele><time>2026-05-03T07:07:15Z</time></trkpt><trkpt lat="39.87419499200446" lon="8.827780144962222"><ele>191.0</ele><time>2026-05-03T07:07:16.999Z</time></trkpt><trkpt lat="39.87409995219333" lon="8.8277099796822"><ele>193.33333333333331</ele><time>2026-05-03T07:07:18.999Z</time></trkpt><trkpt lat="39.87399953997052" lon="8.827647042539535"><ele>195.66666666666666</ele><time>2026-05-03T07:07:20.999Z</time></trkpt><trkpt lat="39.873936462913555" lon="8.8276051147969"><ele>198.0</ele><time>2026-05-03T07:07:21.999Z</time></trkpt><trkpt lat="39.87386587575934" lon="8.827553515701124"><ele>200.33333333333331</ele><time>2026-05-03T07:07:23.999Z</time></trkpt><trkpt lat="39.873865596823705" lon="8.827419545349299"><ele>202.66666666666666</ele><time>2026-05-03T07:07:26.999Z</time></trkpt><trkpt lat="39.87384596261823" lon="8.827339413200246"><ele>205.0</ele><time>2026-05-03T07:07:28.999Z</time></trkpt><trkpt lat="39.87378353967353" lon="8.827298579380159"><ele>205.99999999999997</ele><time>2026-05-03T07:07:30.999Z</time></trkpt><trkpt lat="39.87370192142814" lon="8.827325751463976"><ele>207.0</ele><time>2026-05-03T07:07:32.999Z</time></trkpt><trkpt lat="39.873615451630805" lon="8.82731949217504"><ele>208.0</ele><time>2026-05-03T07:07:34.999Z</time></trkpt><trkpt lat="39.8735300899041" lon="8.82730267301466"><ele>209.0</ele><time>2026-05-03T07:07:36.999Z</time></trkpt><trkpt lat="39.87346408162746" lon="8.827285459372375"><ele>209.99999999999997</ele><time>2026-05-03T07:07:39.999Z</time></trkpt><trkpt lat="39.87338063145" lon="8.827297344461607"><ele>211.0</ele><time>2026-05-03T07:07:46.999Z</time></trkpt><trkpt lat="39.8732584085547" lon="8.827298255251314"><ele>212.8</ele><time>2026-05-03T07:07:48.999Z</time></trkpt><trkpt lat="39.87318986554171" lon="8.827293418674303"><ele>214.60000000000002</ele><time>2026-05-03T07:07:49.999Z</time></trkpt><trkpt lat="39.87309391510306" lon="8.827298793309758"><ele>216.4</ele><time>2026-05-03T07:07:51.999Z</time></trkpt><trkpt lat="39.87297948903689" lon="8.827305215487682"><ele>218.2</ele><time>2026-05-03T07:07:53.999Z</time></trkpt><trkpt lat="39.872866574043876" lon="8.827305471531933"><ele>220.0</ele><time>2026-05-03T07:07:55.999Z</time></trkpt><trkpt lat="39.872749633005164" lon="8.827313950545339"><ele>219.99999999999997</ele><time>2026-05-03T07:07:57.999Z</time></trkpt><trkpt lat="39.872636695971906" lon="8.827316007096973"><ele>220.0</ele><time>2026-05-03T07:07:59.999Z</time></trkpt><trkpt lat="39.87252229830175" lon="8.827327135639418"><ele>220.0</ele><time>2026-05-03T07:08:01.999Z</time></trkpt><trkpt lat="39.872457367803094" lon="8.8273329286124"><ele>220.0</ele><time>2026-05-03T07:08:02.999Z</time></trkpt><trkpt lat="39.87238445945331" lon="8.827335785038494"><ele>219.99999999999997</ele><time>2026-05-03T07:08:03.999Z</time></trkpt><trkpt lat="39.87231945468947" lon="8.827340348921615"><ele>220.0</ele><time>2026-05-03T07:08:04.999Z</time></trkpt><trkpt lat="39.87221730720121" lon="8.827364326742039"><ele>219.83333333333331</ele><time>2026-05-03T07:08:06.999Z</time></trkpt><trkpt lat="39.87211915325057" lon="8.827412330216843"><ele>219.66666666666666</ele><time>2026-05-03T07:08:08.999Z</time></trkpt><trkpt lat="39.87199544064879" lon="8.827432277114863"><ele>219.5</ele><time>2026-05-03T07:08:10.999Z</time></trkpt><trkpt lat="39.87193076442172" lon="8.82742103857807"><ele>219.33333333333331</ele><time>2026-05-03T07:08:11.999Z</time></trkpt><trkpt lat="39.8718577167381" lon="8.827403178850016"><ele>219.16666666666666</ele><time>2026-05-03T07:08:12.999Z</time></trkpt><trkpt lat="39.87178305842068" lon="8.827381020169778"><ele>219.0</ele><time>2026-05-03T07:08:13.999Z</time></trkpt><trkpt lat="39.871716795491544" lon="8.827350039183822"><ele>218.5</ele><time>2026-05-03T07:08:14.999Z</time></trkpt><trkpt lat="39.87164091352596" lon="8.827306689134252"><ele>218.0</ele><time>2026-05-03T07:08:15.998Z</time></trkpt><trkpt lat="39.871575177866504" lon="8.827261481074572"><ele>217.5</ele><time>2026-05-03T07:08:17Z</time></trkpt><trkpt lat="39.87150224510869" lon="8.82722355978401"><ele>217.0</ele><time>2026-05-03T07:08:18Z</time></trkpt><trkpt lat="39.87141600508" lon="8.827188432649978"><ele>216.5</ele><time>2026-05-03T07:08:19Z</time></trkpt><trkpt lat="39.871333404972354" lon="8.827139914032632"><ele>216.0</ele><time>2026-05-03T07:08:20Z</time></trkpt><trkpt lat="39.87126170159547" lon="8.827097370813737"><ele>216.0</ele><time>2026-05-03T07:08:21Z</time></trkpt><trkpt lat="39.871189334768204" lon="8.827062063208391"><ele>216.0</ele><time>2026-05-03T07:08:22Z</time></trkpt><trkpt lat="39.87110351568032" lon="8.827032530567164"><ele>216.0</ele><time>2026-05-03T07:08:23Z</time></trkpt><trkpt lat="39.87103046620752" lon="8.827002682032898"><ele>216.0</ele><time>2026-05-03T07:08:24Z</time></trkpt><trkpt lat="39.870970351895885" lon="8.826962785899044"><ele>216.0</ele><time>2026-05-03T07:08:25Z</time></trkpt><trkpt lat="39.87091322207279" lon="8.82692332864128"><ele>216.0</ele><time>2026-05-03T07:08:26Z</time></trkpt><trkpt lat="39.870852809045" lon="8.826891748870098"><ele>216.0</ele><time>2026-05-03T07:08:27Z</time></trkpt><trkpt lat="39.870775311954354" lon="8.82686259220913"><ele>216.5</ele><time>2026-05-03T07:08:28Z</time></trkpt><trkpt lat="39.87068670738164" lon="8.826823935390138"><ele>217.0</ele><time>2026-05-03T07:08:29Z</time></trkpt><trkpt lat="39.87060668687116" lon="8.826782524169246"><ele>217.5</ele><time>2026-05-03T07:08:30Z</time></trkpt><trkpt lat="39.87054779540031" lon="8.826747867405324"><ele>218.0</ele><time>2026-05-03T07:08:31Z</time></trkpt><trkpt lat="39.870487004072" lon="8.826699242881604"><ele>218.5</ele><time>2026-05-03T07:08:33Z</time></trkpt><trkpt lat="39.87039701201063" lon="8.826591501598783"><ele>219.0</ele><time>2026-05-03T07:08:35Z</time></trkpt><trkpt lat="39.87031531646025" lon="8.826506951908122"><ele>219.0</ele><time>2026-05-03T07:08:37Z</time></trkpt><trkpt lat="39.87024455479597" lon="8.826463917867148"><ele>219.0</ele><time>2026-05-03T07:08:38Z</time></trkpt><trkpt lat="39.87017534787222" lon="8.826431073268894"><ele>219.0</ele><time>2026-05-03T07:08:39Z</time></trkpt><trkpt lat="39.87010938350959" lon="8.826457875390892"><ele>219.0</ele><time>2026-05-03T07:08:43Z</time></trkpt><trkpt lat="39.87007698618999" lon="8.82659471160991"><ele>219.0</ele><time>2026-05-03T07:08:45Z</time></trkpt><trkpt lat="39.870054017366854" lon="8.82669232747776"><ele>219.0</ele><time>2026-05-03T07:08:46Z</time></trkpt><trkpt lat="39.87003785448876" lon="8.82678019305988"><ele>219.66666666666666</ele><time>2026-05-03T07:08:47Z</time></trkpt><trkpt lat="39.87002408300739" lon="8.826862541629195"><ele>220.33333333333331</ele><time>2026-05-03T07:08:48Z</time></trkpt><trkpt lat="39.870006925229845" lon="8.826950060569853"><ele>221.0</ele><time>2026-05-03T07:08:49Z</time></trkpt><trkpt lat="39.86996721540106" lon="8.82709005023192"><ele>221.66666666666666</ele><time>2026-05-03T07:08:51Z</time></trkpt><trkpt lat="39.869896743753316" lon="8.827223739311613"><ele>222.33333333333331</ele><time>2026-05-03T07:08:53Z</time></trkpt><trkpt lat="39.869853872287116" lon="8.827300943731936"><ele>223.0</ele><time>2026-05-03T07:08:54Z</time></trkpt><trkpt lat="39.869819051479055" lon="8.827369923292437"><ele>222.99999999999997</ele><time>2026-05-03T07:08:55Z</time></trkpt><trkpt lat="39.86978362380367" lon="8.827453025603253"><ele>223.0</ele><time>2026-05-03T07:08:56Z</time></trkpt><trkpt lat="39.869749350983305" lon="8.827542166946278"><ele>223.0</ele><time>2026-05-03T07:08:57Z</time></trkpt><trkpt lat="39.86972111241614" lon="8.827637685617606"><ele>223.0</ele><time>2026-05-03T07:08:58Z</time></trkpt><trkpt lat="39.8696989595554" lon="8.827737212594462"><ele>222.99999999999997</ele><time>2026-05-03T07:08:59Z</time></trkpt><trkpt lat="39.86966756088199" lon="8.82783521150906"><ele>223.0</ele><time>2026-05-03T07:09:00Z</time></trkpt><trkpt lat="39.86962933092303" lon="8.82792734936624"><ele>222.99999999999997</ele><time>2026-05-03T07:09:01Z</time></trkpt><trkpt lat="39.86958693170728" lon="8.828024185203486"><ele>223.0</ele><time>2026-05-03T07:09:02Z</time></trkpt><trkpt lat="39.86955197847668" lon="8.828118956304808"><ele>223.0</ele><time>2026-05-03T07:09:03Z</time></trkpt><trkpt lat="39.86951872268012" lon="8.828201873124824"><ele>223.0</ele><time>2026-05-03T07:09:04Z</time></trkpt><trkpt lat="39.86949417197628" lon="8.82827922186957"><ele>222.99999999999997</ele><time>2026-05-03T07:09:05Z</time></trkpt><trkpt lat="39.86949116193636" lon="8.828381183542724"><ele>223.0</ele><time>2026-05-03T07:09:07Z</time></trkpt><trkpt lat="39.86947126486604" lon="8.828536585271165"><ele>223.0</ele><time>2026-05-03T07:09:09Z</time></trkpt><trkpt lat="39.86941251189253" lon="8.828673512809251"><ele>223.0</ele><time>2026-05-03T07:09:10Z</time></trkpt><trkpt lat="39.869351470778994" lon="8.8288006010548"><ele>223.0</ele><time>2026-05-03T07:09:11Z</time></trkpt><trkpt lat="39.869309199036685" lon="8.828912621797809"><ele>223.0</ele><time>2026-05-03T07:09:12Z</time></trkpt><trkpt lat="39.86927697479503" lon="8.829029231279858"><ele>223.0</ele><time>2026-05-03T07:09:13Z</time></trkpt><trkpt lat="39.86923913228989" lon="8.829135164969685"><ele>222.8</ele><time>2026-05-03T07:09:14Z</time></trkpt><trkpt lat="39.86919526893187" lon="8.829234640673727"><ele>222.60000000000002</ele><time>2026-05-03T07:09:15Z</time></trkpt><trkpt lat="39.86915584754508" lon="8.829325809247626"><ele>222.39999999999998</ele><time>2026-05-03T07:09:16Z</time></trkpt><trkpt lat="39.86912037925173" lon="8.82945684645763"><ele>222.2</ele><time>2026-05-03T07:09:17Z</time></trkpt><trkpt lat="39.86907434721774" lon="8.829604071574666"><ele>222.0</ele><time>2026-05-03T07:09:18Z</time></trkpt><trkpt lat="39.86902325263243" lon="8.829748480600118"><ele>222.6</ele><time>2026-05-03T07:09:19Z</time></trkpt><trkpt lat="39.868982385951014" lon="8.829881164213289"><ele>223.2</ele><time>2026-05-03T07:09:19.999Z</time></trkpt><trkpt lat="39.86894520053516" lon="8.830004741090658"><ele>223.8</ele><time>2026-05-03T07:09:20.999Z</time></trkpt><trkpt lat="39.86890682811635" lon="8.830115068915818"><ele>224.4</ele><time>2026-05-03T07:09:21.999Z</time></trkpt><trkpt lat="39.868876447588995" lon="8.830210482873753"><ele>225.0</ele><time>2026-05-03T07:09:22.999Z</time></trkpt><trkpt lat="39.86884278470002" lon="8.83030315883654"><ele>225.6</ele><time>2026-05-03T07:09:23.999Z</time></trkpt><trkpt lat="39.868804582440234" lon="8.830389182907975"><ele>226.2</ele><time>2026-05-03T07:09:24.999Z</time></trkpt><trkpt lat="39.86875556902597" lon="8.830491982921535"><ele>226.8</ele><time>2026-05-03T07:09:25.999Z</time></trkpt><trkpt lat="39.86871895047136" lon="8.830603226953738"><ele>227.4</ele><time>2026-05-03T07:09:26.999Z</time></trkpt><trkpt lat="39.868695040003296" lon="8.83069709407466"><ele>228.0</ele><time>2026-05-03T07:09:27.999Z</time></trkpt><trkpt lat="39.86864725544134" lon="8.83084611819894"><ele>228.0</ele><time>2026-05-03T07:09:29.999Z</time></trkpt><trkpt lat="39.86861236121093" lon="8.830930683601267"><ele>228.0</ele><time>2026-05-03T07:09:30.999Z</time></trkpt><trkpt lat="39.868577743304826" lon="8.831028243358894"><ele>228.0</ele><time>2026-05-03T07:09:31.999Z</time></trkpt><trkpt lat="39.86854459782592" lon="8.831131186069504"><ele>228.0</ele><time>2026-05-03T07:09:32.999Z</time></trkpt><trkpt lat="39.86851623093672" lon="8.831235414909605"><ele>228.0</ele><time>2026-05-03T07:09:33.999Z</time></trkpt><trkpt lat="39.8684932346571" lon="8.831316550386159"><ele>228.0</ele><time>2026-05-03T07:09:34.999Z</time></trkpt><trkpt lat="39.86847520380312" lon="8.831395255732065"><ele>227.83333333333334</ele><time>2026-05-03T07:09:35.999Z</time></trkpt><trkpt lat="39.86844485098895" lon="8.831497769157565"><ele>227.66666666666669</ele><time>2026-05-03T07:09:36.999Z</time></trkpt><trkpt lat="39.86841056655094" lon="8.831588101733983"><ele>227.5</ele><time>2026-05-03T07:09:37.999Z</time></trkpt><trkpt lat="39.86836442839453" lon="8.831736387718752"><ele>227.33333333333334</ele><time>2026-05-03T07:09:39.999Z</time></trkpt><trkpt lat="39.868340224191755" lon="8.831833463627142"><ele>227.16666666666669</ele><time>2026-05-03T07:09:40.999Z</time></trkpt><trkpt lat="39.86832658048591" lon="8.831926888274984"><ele>227.0</ele><time>2026-05-03T07:09:41.999Z</time></trkpt><trkpt lat="39.86831607024656" lon="8.832019585237576"><ele>227.0</ele><time>2026-05-03T07:09:42.999Z</time></trkpt><trkpt lat="39.86829217375606" lon="8.832129544986516"><ele>227.0</ele><time>2026-05-03T07:09:44.999Z</time></trkpt><trkpt lat="39.86822029424756" lon="8.832103174188154"><ele>227.0</ele><time>2026-05-03T07:09:46.999Z</time></trkpt><trkpt lat="39.868138552415516" lon="8.832036632853232"><ele>227.0</ele><time>2026-05-03T07:09:47.999Z</time></trkpt><trkpt lat="39.868035726819244" lon="8.831943547074667"><ele>227.0</ele><time>2026-05-03T07:09:48.999Z</time></trkpt><trkpt lat="39.86792627644581" lon="8.831851456378667"><ele>227.25</ele><time>2026-05-03T07:09:49.999Z</time></trkpt><trkpt lat="39.86780582488352" lon="8.831767762985013"><ele>227.5</ele><time>2026-05-03T07:09:50.999Z</time></trkpt><trkpt lat="39.86767331089889" lon="8.831676595488116"><ele>227.75</ele><time>2026-05-03T07:09:51.999Z</time></trkpt><trkpt lat="39.867547461339896" lon="8.83158528274638"><ele>228.0</ele><time>2026-05-03T07:09:52.999Z</time></trkpt><trkpt lat="39.86741642901126" lon="8.831489015278814"><ele>228.0</ele><time>2026-05-03T07:09:53.999Z</time></trkpt><trkpt lat="39.867278594828846" lon="8.831390728791405"><ele>228.0</ele><time>2026-05-03T07:09:54.999Z</time></trkpt><trkpt lat="39.867146812537094" lon="8.831294934797608"><ele>228.0</ele><time>2026-05-03T07:09:55.999Z</time></trkpt><trkpt lat="39.867023960068416" lon="8.831206071124546"><ele>228.0</ele><time>2026-05-03T07:09:56.999Z</time></trkpt><trkpt lat="39.86691009432571" lon="8.831120579417782"><ele>228.0</ele><time>2026-05-03T07:09:57.999Z</time></trkpt><trkpt lat="39.86680232825416" lon="8.831039360764294"><ele>228.0</ele><time>2026-05-03T07:09:58.999Z</time></trkpt><trkpt lat="39.86670250351339" lon="8.830965726194469"><ele>228.0</ele><time>2026-05-03T07:09:59.999Z</time></trkpt><trkpt lat="39.86661041617662" lon="8.830900847397858"><ele>228.0</ele><time>2026-05-03T07:10:00.999Z</time></trkpt><trkpt lat="39.86652742722106" lon="8.830838238484093"><ele>228.0</ele><time>2026-05-03T07:10:01.999Z</time></trkpt><trkpt lat="39.866475408852736" lon="8.830758373770049"><ele>227.2</ele><time>2026-05-03T07:10:03.999Z</time></trkpt><trkpt lat="39.86650852887544" lon="8.830625596976153"><ele>226.4</ele><time>2026-05-03T07:10:05.999Z</time></trkpt><trkpt lat="39.86654632611951" lon="8.830509411958015"><ele>225.59999999999997</ele><time>2026-05-03T07:10:06.999Z</time></trkpt><trkpt lat="39.86658897739749" lon="8.830392791478795"><ele>224.79999999999998</ele><time>2026-05-03T07:10:07.999Z</time></trkpt><trkpt lat="39.866621778078525" lon="8.830252952406607"><ele>224.0</ele><time>2026-05-03T07:10:08.999Z</time></trkpt><trkpt lat="39.86664788379091" lon="8.830114904396167"><ele>223.6</ele><time>2026-05-03T07:10:09.999Z</time></trkpt><trkpt lat="39.86669087813935" lon="8.829961395753408"><ele>223.2</ele><time>2026-05-03T07:10:10.999Z</time></trkpt><trkpt lat="39.86673138025031" lon="8.829818607873557"><ele>222.79999999999998</ele><time>2026-05-03T07:10:11.999Z</time></trkpt><trkpt lat="39.866769184647005" lon="8.829717451741283"><ele>222.39999999999998</ele><time>2026-05-03T07:10:12.999Z</time></trkpt><trkpt lat="39.86682589275512" lon="8.829602512708004"><ele>222.0</ele><time>2026-05-03T07:10:13.999Z</time></trkpt><trkpt lat="39.86690226295253" lon="8.829464372145189"><ele>222.0</ele><time>2026-05-03T07:10:14.999Z</time></trkpt><trkpt lat="39.86697542322391" lon="8.82934048383216"><ele>222.0</ele><time>2026-05-03T07:10:15.999Z</time></trkpt><trkpt lat="39.86703631285399" lon="8.829221038084523"><ele>222.0</ele><time>2026-05-03T07:10:16.999Z</time></trkpt><trkpt lat="39.8670806771987" lon="8.82909615026596"><ele>222.0</ele><time>2026-05-03T07:10:17.999Z</time></trkpt><trkpt lat="39.86712054006327" lon="8.828967938803729"><ele>222.0</ele><time>2026-05-03T07:10:18.998Z</time></trkpt><trkpt lat="39.86715626533961" lon="8.82882221067268"><ele>220.5</ele><time>2026-05-03T07:10:19.998Z</time></trkpt><trkpt lat="39.86718253248946" lon="8.828668478855302"><ele>219.0</ele><time>2026-05-03T07:10:20.998Z</time></trkpt><trkpt lat="39.867204992469915" lon="8.828514613456473"><ele>217.5</ele><time>2026-05-03T07:10:22Z</time></trkpt><trkpt lat="39.867231027351" lon="8.828376941018485"><ele>216.0</ele><time>2026-05-03T07:10:23Z</time></trkpt><trkpt lat="39.86726088767344" lon="8.828250158174223"><ele>215.0</ele><time>2026-05-03T07:10:24Z</time></trkpt><trkpt lat="39.867294933197385" lon="8.828142297372395"><ele>214.00000000000003</ele><time>2026-05-03T07:10:25Z</time></trkpt><trkpt lat="39.86733872854456" lon="8.828042925936284"><ele>213.0</ele><time>2026-05-03T07:10:26Z</time></trkpt><trkpt lat="39.867378344216974" lon="8.827934902115368"><ele>212.0</ele><time>2026-05-03T07:10:27Z</time></trkpt><trkpt lat="39.867414997816915" lon="8.827822806094293"><ele>211.0</ele><time>2026-05-03T07:10:28Z</time></trkpt><trkpt lat="39.86745048325928" lon="8.827712046099451"><ele>211.49999999999997</ele><time>2026-05-03T07:10:29Z</time></trkpt><trkpt lat="39.86749173056217" lon="8.82762131910096"><ele>212.0</ele><time>2026-05-03T07:10:30Z</time></trkpt><trkpt lat="39.867540933189815" lon="8.827529456303504"><ele>212.5</ele><time>2026-05-03T07:10:31Z</time></trkpt><trkpt lat="39.867590596966316" lon="8.827454997208644"><ele>213.0</ele><time>2026-05-03T07:10:32Z</time></trkpt><trkpt lat="39.867653368646934" lon="8.82731939404134"><ele>213.49999999999997</ele><time>2026-05-03T07:10:34Z</time></trkpt><trkpt lat="39.86768177317902" lon="8.827245522044874"><ele>214.0</ele><time>2026-05-03T07:10:35Z</time></trkpt><trkpt lat="39.86774910078864" lon="8.827139077140133"><ele>213.99999999999997</ele><time>2026-05-03T07:10:37Z</time></trkpt><trkpt lat="39.86780902725585" lon="8.827047558318908"><ele>214.0</ele><time>2026-05-03T07:10:39Z</time></trkpt><trkpt lat="39.867806904498195" lon="8.826948287125374"><ele>214.0</ele><time>2026-05-03T07:10:41Z</time></trkpt><trkpt lat="39.86778436523702" lon="8.826860582568159"><ele>214.0</ele><time>2026-05-03T07:10:44Z</time></trkpt><trkpt lat="39.867772971350604" lon="8.826756298639234"><ele>213.99999999999997</ele><time>2026-05-03T07:10:47Z</time></trkpt><trkpt lat="39.86777705632011" lon="8.826656536720103"><ele>214.0</ele><time>2026-05-03T07:10:49Z</time></trkpt><trkpt lat="39.86782332983853" lon="8.826573842683597"><ele>213.39999999999998</ele><time>2026-05-03T07:10:51Z</time></trkpt><trkpt lat="39.8678515268204" lon="8.826431787133354"><ele>212.79999999999998</ele><time>2026-05-03T07:10:53Z</time></trkpt><trkpt lat="39.8678828542084" lon="8.82631038702508"><ele>212.2</ele><time>2026-05-03T07:10:54Z</time></trkpt><trkpt lat="39.8679123773687" lon="8.82618040422583"><ele>211.60000000000002</ele><time>2026-05-03T07:10:55Z</time></trkpt><trkpt lat="39.867937267216135" lon="8.826060766895852"><ele>211.0</ele><time>2026-05-03T07:10:56Z</time></trkpt><trkpt lat="39.867952448068" lon="8.82593871635884"><ele>210.4</ele><time>2026-05-03T07:10:57Z</time></trkpt><trkpt lat="39.867949731407116" lon="8.825797802376451"><ele>209.8</ele><time>2026-05-03T07:10:58Z</time></trkpt><trkpt lat="39.86793154198528" lon="8.825679246880927"><ele>209.20000000000002</ele><time>2026-05-03T07:10:59Z</time></trkpt><trkpt lat="39.86791361231697" lon="8.825560778400018"><ele>208.60000000000002</ele><time>2026-05-03T07:11:00Z</time></trkpt><trkpt lat="39.867897992574605" lon="8.825423958246137"><ele>208.0</ele><time>2026-05-03T07:11:01Z</time></trkpt><trkpt lat="39.86788567984667" lon="8.82530320353618"><ele>208.0</ele><time>2026-05-03T07:11:02Z</time></trkpt><trkpt lat="39.86787281446115" lon="8.825189443392889"><ele>208.0</ele><time>2026-05-03T07:11:03Z</time></trkpt><trkpt lat="39.867849442304994" lon="8.825055078490308"><ele>208.0</ele><time>2026-05-03T07:11:04Z</time></trkpt><trkpt lat="39.86782384917059" lon="8.824934988381631"><ele>208.0</ele><time>2026-05-03T07:11:05Z</time></trkpt><trkpt lat="39.86779403445236" lon="8.824828338262202"><ele>208.0</ele><time>2026-05-03T07:11:06Z</time></trkpt><trkpt lat="39.86775571448949" lon="8.82471400580137"><ele>207.66666666666666</ele><time>2026-05-03T07:11:07Z</time></trkpt><trkpt lat="39.86771826746751" lon="8.82462327469016"><ele>207.33333333333331</ele><time>2026-05-03T07:11:08Z</time></trkpt><trkpt lat="39.867692954310776" lon="8.824543293389945"><ele>207.0</ele><time>2026-05-03T07:11:09Z</time></trkpt><trkpt lat="39.86767283176913" lon="8.824406232568128"><ele>206.66666666666669</ele><time>2026-05-03T07:11:11Z</time></trkpt><trkpt lat="39.86770705494104" lon="8.824282109288303"><ele>206.33333333333334</ele><time>2026-05-03T07:11:13Z</time></trkpt><trkpt lat="39.867739459560674" lon="8.824208137873157"><ele>206.0</ele><time>2026-05-03T07:11:14Z</time></trkpt><trkpt lat="39.867792497520405" lon="8.824144443611422"><ele>205.60000000000002</ele><time>2026-05-03T07:11:15Z</time></trkpt><trkpt lat="39.86787511115852" lon="8.824053518132231"><ele>205.2</ele><time>2026-05-03T07:11:16Z</time></trkpt><trkpt lat="39.86795505360857" lon="8.823957864413194"><ele>204.8</ele><time>2026-05-03T07:11:17Z</time></trkpt><trkpt lat="39.86801929196322" lon="8.823902606261669"><ele>204.39999999999998</ele><time>2026-05-03T07:11:18Z</time></trkpt><trkpt lat="39.868091908585356" lon="8.823799959146934"><ele>204.0</ele><time>2026-05-03T07:11:19Z</time></trkpt><trkpt lat="39.868154884514134" lon="8.823700154542289"><ele>204.0</ele><time>2026-05-03T07:11:20Z</time></trkpt><trkpt lat="39.868209787379456" lon="8.823606216494424"><ele>204.0</ele><time>2026-05-03T07:11:21Z</time></trkpt><trkpt lat="39.86825879374937" lon="8.823520579300146"><ele>204.0</ele><time>2026-05-03T07:11:22Z</time></trkpt><trkpt lat="39.86830262297548" lon="8.823440936544703"><ele>204.0</ele><time>2026-05-03T07:11:22.999Z</time></trkpt><trkpt lat="39.868354130080974" lon="8.82334810425764"><ele>204.0</ele><time>2026-05-03T07:11:23.999Z</time></trkpt><trkpt lat="39.868413053204065" lon="8.82323888969878"><ele>204.0</ele><time>2026-05-03T07:11:24.999Z</time></trkpt><trkpt lat="39.86847588395494" lon="8.82313629446703"><ele>204.16666666666666</ele><time>2026-05-03T07:11:25.999Z</time></trkpt><trkpt lat="39.86852838377994" lon="8.823052091993826"><ele>204.33333333333331</ele><time>2026-05-03T07:11:26.999Z</time></trkpt><trkpt lat="39.86857188002171" lon="8.822984421409142"><ele>204.5</ele><time>2026-05-03T07:11:27.999Z</time></trkpt><trkpt lat="39.86864503754113" lon="8.822882903129997"><ele>204.66666666666666</ele><time>2026-05-03T07:11:29.999Z</time></trkpt><trkpt lat="39.868688071659705" lon="8.822797358690249"><ele>204.83333333333331</ele><time>2026-05-03T07:11:31.999Z</time></trkpt><trkpt lat="39.86873183760915" lon="8.822730265966607"><ele>205.0</ele><time>2026-05-03T07:11:33.999Z</time></trkpt><trkpt lat="39.86879803904069" lon="8.822666590707016"><ele>203.83333333333331</ele><time>2026-05-03T07:11:36.999Z</time></trkpt><trkpt lat="39.868879185009334" lon="8.82261105270764"><ele>202.66666666666666</ele><time>2026-05-03T07:11:39.999Z</time></trkpt><trkpt lat="39.868970071327155" lon="8.822590789840058"><ele>201.5</ele><time>2026-05-03T07:11:42.999Z</time></trkpt><trkpt lat="39.86903682987651" lon="8.822599811473216"><ele>200.33333333333331</ele><time>2026-05-03T07:11:44.999Z</time></trkpt><trkpt lat="39.86911659627026" lon="8.822580978660971"><ele>199.16666666666666</ele><time>2026-05-03T07:11:46.999Z</time></trkpt><trkpt lat="39.86918143395681" lon="8.822537910396324"><ele>198.0</ele><time>2026-05-03T07:11:47.999Z</time></trkpt><trkpt lat="39.86921618363595" lon="8.822468091828757"><ele>198.0</ele><time>2026-05-03T07:11:49.999Z</time></trkpt><trkpt lat="39.8692906458346" lon="8.822231660458757"><ele>198.0</ele><time>2026-05-03T07:11:52.999Z</time></trkpt><trkpt lat="39.86925931889957" lon="8.822139571038347"><ele>198.0</ele><time>2026-05-03T07:11:54.999Z</time></trkpt><trkpt lat="39.86923613605171" lon="8.822025474462157"><ele>198.0</ele><time>2026-05-03T07:11:56.999Z</time></trkpt><trkpt lat="39.86921534728695" lon="8.82193274244215"><ele>198.0</ele><time>2026-05-03T07:11:59.999Z</time></trkpt><trkpt lat="39.86919102463008" lon="8.82184639173306"><ele>195.5</ele><time>2026-05-03T07:12:01.999Z</time></trkpt><trkpt lat="39.86917576757561" lon="8.821740417085229"><ele>193.0</ele><time>2026-05-03T07:12:03.999Z</time></trkpt><trkpt lat="39.869153195250895" lon="8.821615717527788"><ele>190.5</ele><time>2026-05-03T07:12:05.999Z</time></trkpt><trkpt lat="39.86911747740926" lon="8.821515030624273"><ele>188.0</ele><time>2026-05-03T07:12:07.999Z</time></trkpt><trkpt lat="39.86907938251221" lon="8.821411811631785"><ele>185.5</ele><time>2026-05-03T07:12:09.999Z</time></trkpt><trkpt lat="39.86904421462755" lon="8.821324712961566"><ele>183.0</ele><time>2026-05-03T07:12:11.999Z</time></trkpt><trkpt lat="39.86899808153346" lon="8.821235641455653"><ele>183.0</ele><time>2026-05-03T07:12:13.999Z</time></trkpt><trkpt lat="39.86889161072124" lon="8.821096622535206"><ele>183.0</ele><time>2026-05-03T07:12:16.999Z</time></trkpt><trkpt lat="39.86883195575372" lon="8.821023336489384"><ele>183.0</ele><time>2026-05-03T07:12:18.999Z</time></trkpt><trkpt lat="39.868798246034686" lon="8.820931399026172"><ele>183.0</ele><time>2026-05-03T07:12:20.999Z</time></trkpt><trkpt lat="39.86877865016571" lon="8.820837309378463"><ele>183.0</ele><time>2026-05-03T07:12:22.998Z</time></trkpt><trkpt lat="39.868790428016936" lon="8.820734694833485"><ele>180.2</ele><time>2026-05-03T07:12:24.998Z</time></trkpt><trkpt lat="39.86881299858961" lon="8.820650490780153"><ele>177.4</ele><time>2026-05-03T07:12:26.998Z</time></trkpt><trkpt lat="39.86886122304302" lon="8.820530216405956"><ele>174.6</ele><time>2026-05-03T07:12:29Z</time></trkpt><trkpt lat="39.868917675011865" lon="8.820400612032659"><ele>171.79999999999998</ele><time>2026-05-03T07:12:31Z</time></trkpt><trkpt lat="39.86895641870378" lon="8.820267980888811"><ele>169.0</ele><time>2026-05-03T07:12:33Z</time></trkpt><trkpt lat="39.86899373978209" lon="8.820143819249862"><ele>166.6</ele><time>2026-05-03T07:12:35Z</time></trkpt><trkpt lat="39.86904162035499" lon="8.820027324273843"><ele>164.2</ele><time>2026-05-03T07:12:37Z</time></trkpt><trkpt lat="39.869074157607926" lon="8.819911934543237"><ele>161.79999999999998</ele><time>2026-05-03T07:12:39Z</time></trkpt><trkpt lat="39.86912758500615" lon="8.819808889758093"><ele>159.39999999999998</ele><time>2026-05-03T07:12:41Z</time></trkpt><trkpt lat="39.86920146526076" lon="8.819682939433333"><ele>157.0</ele><time>2026-05-03T07:12:43Z</time></trkpt><trkpt lat="39.86927066854819" lon="8.819561705600604"><ele>158.2</ele><time>2026-05-03T07:12:45Z</time></trkpt><trkpt lat="39.869317908246494" lon="8.819468618721638"><ele>159.39999999999998</ele><time>2026-05-03T07:12:47Z</time></trkpt><trkpt lat="39.86939283667153" lon="8.81932402768797"><ele>160.60000000000002</ele><time>2026-05-03T07:12:51Z</time></trkpt><trkpt lat="39.869434978459154" lon="8.819173957053897"><ele>161.8</ele><time>2026-05-03T07:12:54Z</time></trkpt><trkpt lat="39.86939507846327" lon="8.819063902589745"><ele>163.0</ele><time>2026-05-03T07:12:56Z</time></trkpt><trkpt lat="39.869376631631866" lon="8.81893021547779"><ele>163.0</ele><time>2026-05-03T07:12:58Z</time></trkpt><trkpt lat="39.86940508974632" lon="8.81885126145548"><ele>163.0</ele><time>2026-05-03T07:12:59Z</time></trkpt><trkpt lat="39.869424307285534" lon="8.818771149869859"><ele>163.0</ele><time>2026-05-03T07:13:00Z</time></trkpt><trkpt lat="39.86943649475844" lon="8.818685063470753"><ele>163.0</ele><time>2026-05-03T07:13:01Z</time></trkpt><trkpt lat="39.869445278694904" lon="8.818592011909663"><ele>163.0</ele><time>2026-05-03T07:13:02Z</time></trkpt><trkpt lat="39.869446149951024" lon="8.818483628295576"><ele>163.0</ele><time>2026-05-03T07:13:03Z</time></trkpt><trkpt lat="39.86944810242372" lon="8.818387692648807"><ele>163.0</ele><time>2026-05-03T07:13:04Z</time></trkpt><trkpt lat="39.8694611430068" lon="8.818295734465721"><ele>160.83333333333334</ele><time>2026-05-03T07:13:05Z</time></trkpt><trkpt lat="39.86947310157818" lon="8.81814888245274"><ele>158.66666666666669</ele><time>2026-05-03T07:13:07Z</time></trkpt><trkpt lat="39.8694314255199" lon="8.818068619352813"><ele>156.5</ele><time>2026-05-03T07:13:09Z</time></trkpt><trkpt lat="39.86934545154353" lon="8.817987020251106"><ele>154.33333333333334</ele><time>2026-05-03T07:13:11Z</time></trkpt><trkpt lat="39.86927965376235" lon="8.81793195213476"><ele>152.16666666666666</ele><time>2026-05-03T07:13:12Z</time></trkpt><trkpt lat="39.8692270368446" lon="8.81788268277252"><ele>150.0</ele><time>2026-05-03T07:13:13Z</time></trkpt><trkpt lat="39.86916348041197" lon="8.817781747355225"><ele>150.0</ele><time>2026-05-03T07:13:15Z</time></trkpt><trkpt lat="39.869112134759916" lon="8.81764927416525"><ele>150.0</ele><time>2026-05-03T07:13:17Z</time></trkpt><trkpt lat="39.8690881666214" lon="8.817496948732426"><ele>150.0</ele><time>2026-05-03T07:13:19Z</time></trkpt><trkpt lat="39.869094204112656" lon="8.817410501520603"><ele>150.0</ele><time>2026-05-03T07:13:20Z</time></trkpt><trkpt lat="39.86911603475611" lon="8.817327538149483"><ele>150.0</ele><time>2026-05-03T07:13:21Z</time></trkpt><trkpt lat="39.86914053704075" lon="8.81724228546821"><ele>150.0</ele><time>2026-05-03T07:13:22Z</time></trkpt><trkpt lat="39.86915474956014" lon="8.817144302825445"><ele>150.0</ele><time>2026-05-03T07:13:23Z</time></trkpt><trkpt lat="39.86916177797172" lon="8.817051416301979"><ele>150.0</ele><time>2026-05-03T07:13:24Z</time></trkpt><trkpt lat="39.86916028112431" lon="8.81695484728908"><ele>150.0</ele><time>2026-05-03T07:13:24.999Z</time></trkpt><trkpt lat="39.86915164288884" lon="8.816852357480522"><ele>150.0</ele><time>2026-05-03T07:13:25.999Z</time></trkpt><trkpt lat="39.869132513181974" lon="8.816767140399987"><ele>150.0</ele><time>2026-05-03T07:13:26.999Z</time></trkpt><trkpt lat="39.86905820113539" lon="8.816661556332969"><ele>150.0</ele><time>2026-05-03T07:13:28.999Z</time></trkpt><trkpt lat="39.869004914998925" lon="8.816600588634252"><ele>151.33333333333334</ele><time>2026-05-03T07:13:29.999Z</time></trkpt><trkpt lat="39.86896296442396" lon="8.816532396897072"><ele>152.66666666666666</ele><time>2026-05-03T07:13:30.999Z</time></trkpt><trkpt lat="39.86887134610155" lon="8.816435159704493"><ele>154.0</ele><time>2026-05-03T07:13:32.999Z</time></trkpt><trkpt lat="39.86879441515057" lon="8.816390383932942"><ele>155.33333333333331</ele><time>2026-05-03T07:13:33.999Z</time></trkpt><trkpt lat="39.868715123229194" lon="8.816344473997724"><ele>156.66666666666666</ele><time>2026-05-03T07:13:34.999Z</time></trkpt><trkpt lat="39.868632158163074" lon="8.81631187050126"><ele>158.0</ele><time>2026-05-03T07:13:35.999Z</time></trkpt><trkpt lat="39.868564924519625" lon="8.816280566900616"><ele>158.0</ele><time>2026-05-03T07:13:36.999Z</time></trkpt><trkpt lat="39.86848341951974" lon="8.816192056687045"><ele>158.0</ele><time>2026-05-03T07:13:38.999Z</time></trkpt><trkpt lat="39.86840680395392" lon="8.816116661224783"><ele>158.0</ele><time>2026-05-03T07:13:40.999Z</time></trkpt><trkpt lat="39.86830139584832" lon="8.816060572216086"><ele>158.0</ele><time>2026-05-03T07:13:42.999Z</time></trkpt><trkpt lat="39.86821145746" lon="8.816070357197415"><ele>158.0</ele><time>2026-05-03T07:13:44.999Z</time></trkpt><trkpt lat="39.868117795662286" lon="8.816053915146554"><ele>162.5</ele><time>2026-05-03T07:13:47.999Z</time></trkpt><trkpt lat="39.8680129968323" lon="8.816002599762207"><ele>167.0</ele><time>2026-05-03T07:13:48.999Z</time></trkpt><trkpt lat="39.86794077820022" lon="8.816006498470045"><ele>171.5</ele><time>2026-05-03T07:13:49.999Z</time></trkpt><trkpt lat="39.867858882555616" lon="8.815963547906906"><ele>176.0</ele><time>2026-05-03T07:13:51.999Z</time></trkpt><trkpt lat="39.86783879006217" lon="8.815876546138545"><ele>180.5</ele><time>2026-05-03T07:13:53.999Z</time></trkpt><trkpt lat="39.86786618012269" lon="8.815751794104365"><ele>185.0</ele><time>2026-05-03T07:13:55.999Z</time></trkpt><trkpt lat="39.867870521419654" lon="8.815626956824714"><ele>186.2</ele><time>2026-05-03T07:13:57.999Z</time></trkpt><trkpt lat="39.86774882350324" lon="8.815585139303527"><ele>187.4</ele><time>2026-05-03T07:14:00.999Z</time></trkpt><trkpt lat="39.86764828060837" lon="8.815583814588333"><ele>188.60000000000002</ele><time>2026-05-03T07:14:01.999Z</time></trkpt><trkpt lat="39.86756066814879" lon="8.815556159646"><ele>189.8</ele><time>2026-05-03T07:14:02.999Z</time></trkpt><trkpt lat="39.86744747404131" lon="8.815530312522675"><ele>191.0</ele><time>2026-05-03T07:14:03.999Z</time></trkpt><trkpt lat="39.86731725324756" lon="8.815500337574255"><ele>194.25</ele><time>2026-05-03T07:14:04.999Z</time></trkpt><trkpt lat="39.86716889986232" lon="8.815489236753283"><ele>197.5</ele><time>2026-05-03T07:14:05.999Z</time></trkpt><trkpt lat="39.86703162430308" lon="8.815484853979534"><ele>200.75</ele><time>2026-05-03T07:14:06.999Z</time></trkpt><trkpt lat="39.86691898195382" lon="8.815462264131027"><ele>204.0</ele><time>2026-05-03T07:14:07.999Z</time></trkpt><trkpt lat="39.866811711340006" lon="8.81537736041892"><ele>205.2</ele><time>2026-05-03T07:14:09.999Z</time></trkpt><trkpt lat="39.866723159730604" lon="8.815349976178851"><ele>206.39999999999998</ele><time>2026-05-03T07:14:10.999Z</time></trkpt><trkpt lat="39.86666484972658" lon="8.8153974598361"><ele>207.6</ele><time>2026-05-03T07:14:12.999Z</time></trkpt><trkpt lat="39.866632945940076" lon="8.815475872954675"><ele>208.8</ele><time>2026-05-03T07:14:13.999Z</time></trkpt><trkpt lat="39.86660321154068" lon="8.815623097281703"><ele>210.0</ele><time>2026-05-03T07:14:14.999Z</time></trkpt><trkpt lat="39.86657497969394" lon="8.815808200413825"><ele>210.0</ele><time>2026-05-03T07:14:15.999Z</time></trkpt><trkpt lat="39.86654510432758" lon="8.815994474215682"><ele>210.0</ele><time>2026-05-03T07:14:16.999Z</time></trkpt><trkpt lat="39.866518164603036" lon="8.816172066856765"><ele>210.0</ele><time>2026-05-03T07:14:17.999Z</time></trkpt><trkpt lat="39.86649536355474" lon="8.81631965248199"><ele>210.0</ele><time>2026-05-03T07:14:18.999Z</time></trkpt><trkpt lat="39.866477880761586" lon="8.816451121595478"><ele>210.0</ele><time>2026-05-03T07:14:19.999Z</time></trkpt><trkpt lat="39.86645566633626" lon="8.816577221524105"><ele>210.0</ele><time>2026-05-03T07:14:20.999Z</time></trkpt><trkpt lat="39.86643026630035" lon="8.816718234773136"><ele>210.0</ele><time>2026-05-03T07:14:21.999Z</time></trkpt><trkpt lat="39.866408591259905" lon="8.81687250355881"><ele>210.0</ele><time>2026-05-03T07:14:22.999Z</time></trkpt><trkpt lat="39.86638934232297" lon="8.817024159616318"><ele>210.0</ele><time>2026-05-03T07:14:23.999Z</time></trkpt><trkpt lat="39.86637377615916" lon="8.817148773373953"><ele>209.4</ele><time>2026-05-03T07:14:24.998Z</time></trkpt><trkpt lat="39.86635067441037" lon="8.817276172673969"><ele>208.8</ele><time>2026-05-03T07:14:25.998Z</time></trkpt><trkpt lat="39.866325166937116" lon="8.817417050907794"><ele>208.2</ele><time>2026-05-03T07:14:26.998Z</time></trkpt><trkpt lat="39.86630838343" lon="8.817551649501642"><ele>207.6</ele><time>2026-05-03T07:14:27.998Z</time></trkpt><trkpt lat="39.866301315356864" lon="8.81767501020543"><ele>207.0</ele><time>2026-05-03T07:14:28.998Z</time></trkpt><trkpt lat="39.86629267806515" lon="8.817788464077225"><ele>204.83333333333334</ele><time>2026-05-03T07:14:29.998Z</time></trkpt><trkpt lat="39.86628723009916" lon="8.817893603618456"><ele>202.66666666666669</ele><time>2026-05-03T07:14:30.998Z</time></trkpt><trkpt lat="39.86627640251674" lon="8.817985142224476"><ele>200.5</ele><time>2026-05-03T07:14:31.998Z</time></trkpt><trkpt lat="39.86624790080741" lon="8.818081539882378"><ele>198.33333333333334</ele><time>2026-05-03T07:14:34Z</time></trkpt><trkpt lat="39.86616087416976" lon="8.81812331619361"><ele>196.16666666666669</ele><time>2026-05-03T07:14:36Z</time></trkpt><trkpt lat="39.866074714590646" lon="8.81811986602617"><ele>194.0</ele><time>2026-05-03T07:14:37Z</time></trkpt><trkpt lat="39.86596043928529" lon="8.818104991211333"><ele>195.0</ele><time>2026-05-03T07:14:38Z</time></trkpt><trkpt lat="39.8658305890525" lon="8.818104449443126"><ele>196.0</ele><time>2026-05-03T07:14:39Z</time></trkpt><trkpt lat="39.86569736159746" lon="8.818096338019137"><ele>197.0</ele><time>2026-05-03T07:14:40Z</time></trkpt><trkpt lat="39.865560975183406" lon="8.818081496397244"><ele>198.0</ele><time>2026-05-03T07:14:41Z</time></trkpt><trkpt lat="39.865427865217654" lon="8.818074066018161"><ele>198.0</ele><time>2026-05-03T07:14:42Z</time></trkpt><trkpt lat="39.86531037093133" lon="8.818085213735174"><ele>198.0</ele><time>2026-05-03T07:14:43Z</time></trkpt><trkpt lat="39.865187688029955" lon="8.818115043986133"><ele>198.0</ele><time>2026-05-03T07:14:44Z</time></trkpt><trkpt lat="39.86504447291434" lon="8.818146990915185"><ele>198.0</ele><time>2026-05-03T07:14:45Z</time></trkpt><trkpt lat="39.8648767850771" lon="8.818161061346915"><ele>198.75</ele><time>2026-05-03T07:14:46Z</time></trkpt><trkpt lat="39.86470066220051" lon="8.818176700558965"><ele>199.5</ele><time>2026-05-03T07:14:47Z</time></trkpt><trkpt lat="39.86456849124381" lon="8.818196792401533"><ele>200.25</ele><time>2026-05-03T07:14:48Z</time></trkpt><trkpt lat="39.86444386680722" lon="8.818220351202035"><ele>201.0</ele><time>2026-05-03T07:14:49Z</time></trkpt><trkpt lat="39.8643364728753" lon="8.818236887620937"><ele>201.0</ele><time>2026-05-03T07:14:50Z</time></trkpt><trkpt lat="39.864238115747945" lon="8.818253265042946"><ele>201.0</ele><time>2026-05-03T07:14:51Z</time></trkpt><trkpt lat="39.86416904607249" lon="8.818289129757456"><ele>201.0</ele><time>2026-05-03T07:14:52Z</time></trkpt><trkpt lat="39.864126714063275" lon="8.818369589607197"><ele>201.0</ele><time>2026-05-03T07:14:53Z</time></trkpt><trkpt lat="39.86409992009757" lon="8.818476316981707"><ele>201.0</ele><time>2026-05-03T07:14:54Z</time></trkpt><trkpt lat="39.864074064260684" lon="8.818574046249363"><ele>201.0</ele><time>2026-05-03T07:14:55Z</time></trkpt><trkpt lat="39.86407074958041" lon="8.81867348206071"><ele>201.0</ele><time>2026-05-03T07:14:56Z</time></trkpt><trkpt lat="39.8640675213285" lon="8.818808503206593"><ele>201.0</ele><time>2026-05-03T07:14:57Z</time></trkpt><trkpt lat="39.86406003165174" lon="8.818951924141796"><ele>201.0</ele><time>2026-05-03T07:14:58Z</time></trkpt><trkpt lat="39.86404457867331" lon="8.819087371820528"><ele>201.0</ele><time>2026-05-03T07:14:59Z</time></trkpt><trkpt lat="39.86402749329777" lon="8.81922201606585"><ele>201.0</ele><time>2026-05-03T07:15:00Z</time></trkpt><trkpt lat="39.86401095182659" lon="8.819352099275177"><ele>201.20000000000002</ele><time>2026-05-03T07:15:01Z</time></trkpt><trkpt lat="39.86398742045998" lon="8.819489831206411"><ele>201.4</ele><time>2026-05-03T07:15:02Z</time></trkpt><trkpt lat="39.86396350743194" lon="8.8196197957365"><ele>201.6</ele><time>2026-05-03T07:15:03Z</time></trkpt><trkpt lat="39.86395031074844" lon="8.819739486999147"><ele>201.8</ele><time>2026-05-03T07:15:04Z</time></trkpt><trkpt lat="39.86394832984291" lon="8.819865572523257"><ele>202.0</ele><time>2026-05-03T07:15:05Z</time></trkpt><trkpt lat="39.863947964159784" lon="8.81999430105952"><ele>202.0</ele><time>2026-05-03T07:15:06Z</time></trkpt><trkpt lat="39.86395173879875" lon="8.820102069218452"><ele>202.0</ele><time>2026-05-03T07:15:07Z</time></trkpt><trkpt lat="39.86403142765726" lon="8.82023862578455"><ele>202.0</ele><time>2026-05-03T07:15:09Z</time></trkpt><trkpt lat="39.86412561847403" lon="8.820270424831856"><ele>202.0</ele><time>2026-05-03T07:15:10Z</time></trkpt><trkpt lat="39.86423033242704" lon="8.8202948196034"><ele>202.0</ele><time>2026-05-03T07:15:11Z</time></trkpt><trkpt lat="39.86436389142761" lon="8.820311337811797"><ele>202.75</ele><time>2026-05-03T07:15:12Z</time></trkpt><trkpt lat="39.86452163997364" lon="8.820334494340097"><ele>203.5</ele><time>2026-05-03T07:15:13Z</time></trkpt><trkpt lat="39.8646674271066" lon="8.820360705205685"><ele>204.25</ele><time>2026-05-03T07:15:14Z</time></trkpt><trkpt lat="39.86476067996591" lon="8.82037620743936"><ele>205.0</ele><time>2026-05-03T07:15:15Z</time></trkpt><trkpt lat="39.864847271112446" lon="8.820384415106341"><ele>205.0</ele><time>2026-05-03T07:15:16Z</time></trkpt><trkpt lat="39.864923085860305" lon="8.820419175825815"><ele>205.0</ele><time>2026-05-03T07:15:17Z</time></trkpt><trkpt lat="39.86493073575318" lon="8.820550466136838"><ele>205.0</ele><time>2026-05-03T07:15:20Z</time></trkpt><trkpt lat="39.864897006959275" lon="8.820633665415501"><ele>205.0</ele><time>2026-05-03T07:15:21Z</time></trkpt><trkpt lat="39.86481999839807" lon="8.820784992195632"><ele>205.0</ele><time>2026-05-03T07:15:23Z</time></trkpt><trkpt lat="39.86479988488288" lon="8.820930812731241"><ele>205.5</ele><time>2026-05-03T07:15:24Z</time></trkpt><trkpt lat="39.86476958390876" lon="8.82108327878483"><ele>206.0</ele><time>2026-05-03T07:15:25Z</time></trkpt><trkpt lat="39.864719715546784" lon="8.821229007668666"><ele>206.5</ele><time>2026-05-03T07:15:26Z</time></trkpt><trkpt lat="39.8646828219936" lon="8.821389750495602"><ele>207.0</ele><time>2026-05-03T07:15:27Z</time></trkpt><trkpt lat="39.86465558356884" lon="8.82157382698178"><ele>207.0</ele><time>2026-05-03T07:15:27.999Z</time></trkpt><trkpt lat="39.86462108230915" lon="8.821749697750137"><ele>207.0</ele><time>2026-05-03T07:15:28.999Z</time></trkpt><trkpt lat="39.86458497362793" lon="8.821924862685481"><ele>207.0</ele><time>2026-05-03T07:15:29.999Z</time></trkpt><trkpt lat="39.864543486112524" lon="8.822109954607873"><ele>207.0</ele><time>2026-05-03T07:15:30.999Z</time></trkpt><trkpt lat="39.86449678734592" lon="8.822298620758657"><ele>207.0</ele><time>2026-05-03T07:15:31.999Z</time></trkpt><trkpt lat="39.864456749067315" lon="8.822478822653249"><ele>207.0</ele><time>2026-05-03T07:15:32.999Z</time></trkpt><trkpt lat="39.864421044071754" lon="8.82265105095784"><ele>207.0</ele><time>2026-05-03T07:15:33.999Z</time></trkpt><trkpt lat="39.864384979372225" lon="8.822797687120342"><ele>207.0</ele><time>2026-05-03T07:15:34.999Z</time></trkpt><trkpt lat="39.86434217354701" lon="8.822938870591768"><ele>207.0</ele><time>2026-05-03T07:15:35.999Z</time></trkpt><trkpt lat="39.86429783655023" lon="8.823101234217622"><ele>207.0</ele><time>2026-05-03T07:15:36.999Z</time></trkpt><trkpt lat="39.86425295952071" lon="8.823280227426869"><ele>207.0</ele><time>2026-05-03T07:15:37.999Z</time></trkpt><trkpt lat="39.86420319225087" lon="8.82346621981037"><ele>207.0</ele><time>2026-05-03T07:15:38.999Z</time></trkpt><trkpt lat="39.86415111448835" lon="8.82365677193538"><ele>207.66666666666669</ele><time>2026-05-03T07:15:39.999Z</time></trkpt><trkpt lat="39.86409616177631" lon="8.823853268896908"><ele>208.33333333333334</ele><time>2026-05-03T07:15:40.999Z</time></trkpt><trkpt lat="39.8640448861408" lon="8.824049363525498"><ele>209.0</ele><time>2026-05-03T07:15:41.999Z</time></trkpt><trkpt lat="39.863994046255605" lon="8.824239188029074"><ele>208.0</ele><time>2026-05-03T07:15:42.999Z</time></trkpt><trkpt lat="39.863956847986124" lon="8.82439404085842"><ele>207.0</ele><time>2026-05-03T07:15:43.999Z</time></trkpt><trkpt lat="39.863932300617385" lon="8.824511266967358"><ele>206.0</ele><time>2026-05-03T07:15:44.999Z</time></trkpt><trkpt lat="39.86390582517621" lon="8.824611722332639"><ele>205.0</ele><time>2026-05-03T07:15:45.999Z</time></trkpt><trkpt lat="39.86387766365025" lon="8.824694261033533"><ele>204.0</ele><time>2026-05-03T07:15:46.999Z</time></trkpt><trkpt lat="39.86383017949429" lon="8.824801749901441"><ele>204.0</ele><time>2026-05-03T07:15:48.999Z</time></trkpt><trkpt lat="39.863862559719784" lon="8.82488647971196"><ele>204.0</ele><time>2026-05-03T07:15:50.999Z</time></trkpt><trkpt lat="39.86394021284863" lon="8.825016275887974"><ele>204.0</ele><time>2026-05-03T07:15:52.999Z</time></trkpt><trkpt lat="39.864007806039346" lon="8.825155207011614"><ele>204.0</ele><time>2026-05-03T07:15:54.999Z</time></trkpt><trkpt lat="39.86403921193493" lon="8.825247882342705"><ele>204.0</ele><time>2026-05-03T07:15:55.999Z</time></trkpt><trkpt lat="39.8640795855901" lon="8.825361618012163"><ele>203.39999999999998</ele><time>2026-05-03T07:15:56.999Z</time></trkpt><trkpt lat="39.86413441923295" lon="8.82547338394272"><ele>202.8</ele><time>2026-05-03T07:15:57.999Z</time></trkpt><trkpt lat="39.8641825818109" lon="8.82559884995636"><ele>202.2</ele><time>2026-05-03T07:15:58.999Z</time></trkpt><trkpt lat="39.86420318224138" lon="8.825721705088096"><ele>201.60000000000002</ele><time>2026-05-03T07:15:59.999Z</time></trkpt><trkpt lat="39.86421661569406" lon="8.825841293653143"><ele>201.0</ele><time>2026-05-03T07:16:00.999Z</time></trkpt><trkpt lat="39.86425532825968" lon="8.82590613191317"><ele>201.0</ele><time>2026-05-03T07:16:01.999Z</time></trkpt><trkpt lat="39.86431879971973" lon="8.825925791038717"><ele>201.0</ele><time>2026-05-03T07:16:02.999Z</time></trkpt><trkpt lat="39.864410607936556" lon="8.825950723951788"><ele>201.0</ele><time>2026-05-03T07:16:03.999Z</time></trkpt><trkpt lat="39.864515955425155" lon="8.825992677626324"><ele>201.0</ele><time>2026-05-03T07:16:04.999Z</time></trkpt><trkpt lat="39.86461810148688" lon="8.826045303829721"><ele>201.0</ele><time>2026-05-03T07:16:05.999Z</time></trkpt><trkpt lat="39.86468971411024" lon="8.82608424122757"><ele>201.0</ele><time>2026-05-03T07:16:06.999Z</time></trkpt><trkpt lat="39.86480447655624" lon="8.826055879016911"><ele>201.0</ele><time>2026-05-03T07:16:08.999Z</time></trkpt><trkpt lat="39.864876284422344" lon="8.825975504184376"><ele>201.0</ele><time>2026-05-03T07:16:09.999Z</time></trkpt><trkpt lat="39.86494762441122" lon="8.825873963135974"><ele>201.0</ele><time>2026-05-03T07:16:10.999Z</time></trkpt><trkpt lat="39.86502037530122" lon="8.825792944898284"><ele>201.0</ele><time>2026-05-03T07:16:11.999Z</time></trkpt><trkpt lat="39.86510136751988" lon="8.825739576417385"><ele>201.0</ele><time>2026-05-03T07:16:12.999Z</time></trkpt><trkpt lat="39.865187574231" lon="8.825726863148375"><ele>201.0</ele><time>2026-05-03T07:16:13.999Z</time></trkpt><trkpt lat="39.865287106342656" lon="8.82574876791539"><ele>201.0</ele><time>2026-05-03T07:16:14.999Z</time></trkpt><trkpt lat="39.86538615945473" lon="8.825756045327129"><ele>201.0</ele><time>2026-05-03T07:16:15.999Z</time></trkpt><trkpt lat="39.86547306661795" lon="8.82574268108179"><ele>201.0</ele><time>2026-05-03T07:16:16.999Z</time></trkpt><trkpt lat="39.86555394208755" lon="8.825684469014988"><ele>201.0</ele><time>2026-05-03T07:16:17.999Z</time></trkpt><trkpt lat="39.86564637195014" lon="8.825588752331434"><ele>201.0</ele><time>2026-05-03T07:16:18.999Z</time></trkpt><trkpt lat="39.865740896706484" lon="8.82548064168302"><ele>201.0</ele><time>2026-05-03T07:16:19.999Z</time></trkpt><trkpt lat="39.86584132748922" lon="8.825393954999436"><ele>201.0</ele><time>2026-05-03T07:16:20.999Z</time></trkpt><trkpt lat="39.86594474762128" lon="8.825320483401907"><ele>198.8</ele><time>2026-05-03T07:16:21.999Z</time></trkpt><trkpt lat="39.866038025619666" lon="8.825265899410086"><ele>196.60000000000002</ele><time>2026-05-03T07:16:22.999Z</time></trkpt><trkpt lat="39.866134801545535" lon="8.825206799470267"><ele>194.4</ele><time>2026-05-03T07:16:23.999Z</time></trkpt><trkpt lat="39.86621515422146" lon="8.825161948096552"><ele>192.2</ele><time>2026-05-03T07:16:24.999Z</time></trkpt><trkpt lat="39.8663117963581" lon="8.825196024605626"><ele>190.0</ele><time>2026-05-03T07:16:26.999Z</time></trkpt><trkpt lat="39.86634071832214" lon="8.825356232307255"><ele>190.0</ele><time>2026-05-03T07:16:28.998Z</time></trkpt><trkpt lat="39.866312268196076" lon="8.825482336980349"><ele>190.0</ele><time>2026-05-03T07:16:29.998Z</time></trkpt><trkpt lat="39.86626221492096" lon="8.825629898482209"><ele>190.0</ele><time>2026-05-03T07:16:30.998Z</time></trkpt><trkpt lat="39.866204652445994" lon="8.825801096036503"><ele>190.0</ele><time>2026-05-03T07:16:31.998Z</time></trkpt><trkpt lat="39.86615229052785" lon="8.825982340171649"><ele>189.5</ele><time>2026-05-03T07:16:32.998Z</time></trkpt><trkpt lat="39.86609986847429" lon="8.826186816122728"><ele>189.0</ele><time>2026-05-03T07:16:33.998Z</time></trkpt><trkpt lat="39.86605991672303" lon="8.826372917643312"><ele>188.5</ele><time>2026-05-03T07:16:34.998Z</time></trkpt><trkpt lat="39.866041271357545" lon="8.826489260144134"><ele>188.0</ele><time>2026-05-03T07:16:35.998Z</time></trkpt><trkpt lat="39.8660231311649" lon="8.826592369001315"><ele>188.0</ele><time>2026-05-03T07:16:36.998Z</time></trkpt><trkpt lat="39.865994171563464" lon="8.826745185991342"><ele>188.0</ele><time>2026-05-03T07:16:37.998Z</time></trkpt><trkpt lat="39.86596667611481" lon="8.826900048580251"><ele>188.0</ele><time>2026-05-03T07:16:38.998Z</time></trkpt><trkpt lat="39.86594118798659" lon="8.827049488193566"><ele>188.0</ele><time>2026-05-03T07:16:40Z</time></trkpt><trkpt lat="39.865914259302556" lon="8.827175928337654"><ele>190.0</ele><time>2026-05-03T07:16:41Z</time></trkpt><trkpt lat="39.86587859228707" lon="8.82727832942025"><ele>192.0</ele><time>2026-05-03T07:16:42Z</time></trkpt><trkpt lat="39.86581344548177" lon="8.827386328020216"><ele>194.0</ele><time>2026-05-03T07:16:43Z</time></trkpt><trkpt lat="39.865712247129565" lon="8.827512753708882"><ele>196.0</ele><time>2026-05-03T07:16:44Z</time></trkpt><trkpt lat="39.86559786213171" lon="8.827656557729163"><ele>196.0</ele><time>2026-05-03T07:16:45Z</time></trkpt><trkpt lat="39.8655199398145" lon="8.827804827648333"><ele>196.0</ele><time>2026-05-03T07:16:46Z</time></trkpt><trkpt lat="39.86547139581088" lon="8.827950794195758"><ele>196.0</ele><time>2026-05-03T07:16:47Z</time></trkpt><trkpt lat="39.865417340246424" lon="8.828086638397282"><ele>196.0</ele><time>2026-05-03T07:16:48Z</time></trkpt><trkpt lat="39.865331966750404" lon="8.828189824625847"><ele>196.0</ele><time>2026-05-03T07:16:49Z</time></trkpt><trkpt lat="39.86521520605817" lon="8.828259960572401"><ele>196.0</ele><time>2026-05-03T07:16:50Z</time></trkpt><trkpt lat="39.86508237149628" lon="8.828339116997933"><ele>196.0</ele><time>2026-05-03T07:16:51Z</time></trkpt><trkpt lat="39.86495756806506" lon="8.828422696959594"><ele>196.0</ele><time>2026-05-03T07:16:52Z</time></trkpt><trkpt lat="39.86485824909927" lon="8.828485201191597"><ele>196.49999999999997</ele><time>2026-05-03T07:16:53Z</time></trkpt><trkpt lat="39.86476997511796" lon="8.828538386682478"><ele>197.0</ele><time>2026-05-03T07:16:54Z</time></trkpt><trkpt lat="39.864695190448735" lon="8.828590241200557"><ele>197.5</ele><time>2026-05-03T07:16:55Z</time></trkpt><trkpt lat="39.86463290150405" lon="8.828630054741193"><ele>198.0</ele><time>2026-05-03T07:16:56Z</time></trkpt><trkpt lat="39.864559309422845" lon="8.828697589853904"><ele>198.49999999999997</ele><time>2026-05-03T07:16:57Z</time></trkpt><trkpt lat="39.8644779143407" lon="8.828766917335017"><ele>199.0</ele><time>2026-05-03T07:16:58Z</time></trkpt><trkpt lat="39.864410762287605" lon="8.82885002900787"><ele>199.0</ele><time>2026-05-03T07:16:59Z</time></trkpt><trkpt lat="39.86434675014721" lon="8.828914813760194"><ele>199.0</ele><time>2026-05-03T07:17:00Z</time></trkpt><trkpt lat="39.864246350131324" lon="8.828977949589744"><ele>199.0</ele><time>2026-05-03T07:17:02Z</time></trkpt><trkpt lat="39.86413832422205" lon="8.82894297161025"><ele>199.0</ele><time>2026-05-03T07:17:04Z</time></trkpt><trkpt lat="39.864071862831764" lon="8.82890115040898"><ele>199.0</ele><time>2026-05-03T07:17:05Z</time></trkpt><trkpt lat="39.86399799605257" lon="8.828866571736983"><ele>201.0</ele><time>2026-05-03T07:17:06Z</time></trkpt><trkpt lat="39.86390305259834" lon="8.828819929394209"><ele>203.0</ele><time>2026-05-03T07:17:07Z</time></trkpt><trkpt lat="39.863800415189715" lon="8.828761039491516"><ele>205.0</ele><time>2026-05-03T07:17:08Z</time></trkpt><trkpt lat="39.86370706389404" lon="8.828702004684898"><ele>207.0</ele><time>2026-05-03T07:17:09Z</time></trkpt><trkpt lat="39.86362526109592" lon="8.828651893981139"><ele>209.0</ele><time>2026-05-03T07:17:10Z</time></trkpt><trkpt lat="39.86353200833038" lon="8.828598333670369"><ele>208.79999999999998</ele><time>2026-05-03T07:17:11Z</time></trkpt><trkpt lat="39.863424952886845" lon="8.828536494513234"><ele>208.6</ele><time>2026-05-03T07:17:12Z</time></trkpt><trkpt lat="39.863325654089" lon="8.828473035076279"><ele>208.4</ele><time>2026-05-03T07:17:13Z</time></trkpt><trkpt lat="39.86324271736023" lon="8.828410784263976"><ele>208.2</ele><time>2026-05-03T07:17:14Z</time></trkpt><trkpt lat="39.86316537887683" lon="8.828339859869933"><ele>208.0</ele><time>2026-05-03T07:17:15Z</time></trkpt><trkpt lat="39.863072453849796" lon="8.828263232468457"><ele>207.99999999999997</ele><time>2026-05-03T07:17:16Z</time></trkpt><trkpt lat="39.86299451193272" lon="8.828192541445333"><ele>208.0</ele><time>2026-05-03T07:17:17Z</time></trkpt><trkpt lat="39.86293048740369" lon="8.82812559614239"><ele>208.0</ele><time>2026-05-03T07:17:18Z</time></trkpt><trkpt lat="39.86287550366875" lon="8.828051006592021"><ele>208.0</ele><time>2026-05-03T07:17:19Z</time></trkpt><trkpt lat="39.86281849077378" lon="8.82799165296332"><ele>207.99999999999997</ele><time>2026-05-03T07:17:20Z</time></trkpt><trkpt lat="39.86272719522148" lon="8.82797748480997"><ele>208.0</ele><time>2026-05-03T07:17:22Z</time></trkpt><trkpt lat="39.862625276602756" lon="8.827906185274655"><ele>207.66666666666666</ele><time>2026-05-03T07:17:24Z</time></trkpt><trkpt lat="39.862547777947796" lon="8.82784071908055"><ele>207.33333333333331</ele><time>2026-05-03T07:17:25Z</time></trkpt><trkpt lat="39.86248455333079" lon="8.827802273813425"><ele>207.0</ele><time>2026-05-03T07:17:26Z</time></trkpt><trkpt lat="39.86237644684565" lon="8.827813927150242"><ele>206.66666666666669</ele><time>2026-05-03T07:17:28Z</time></trkpt><trkpt lat="39.86231081784863" lon="8.82785980016216"><ele>206.33333333333334</ele><time>2026-05-03T07:17:29Z</time></trkpt><trkpt lat="39.86223508870827" lon="8.827939683345393"><ele>206.0</ele><time>2026-05-03T07:17:30Z</time></trkpt><trkpt lat="39.86217739805952" lon="8.828040806658413"><ele>206.00000000000003</ele><time>2026-05-03T07:17:30.999Z</time></trkpt><trkpt lat="39.86213565759371" lon="8.828132607978535"><ele>206.0</ele><time>2026-05-03T07:17:31.999Z</time></trkpt><trkpt lat="39.86209505201713" lon="8.828212656938632"><ele>206.0</ele><time>2026-05-03T07:17:32.999Z</time></trkpt><trkpt lat="39.862037399356595" lon="8.828306673035021"><ele>206.0</ele><time>2026-05-03T07:17:33.999Z</time></trkpt><trkpt lat="39.861968455293706" lon="8.828408776394019"><ele>206.00000000000003</ele><time>2026-05-03T07:17:34.999Z</time></trkpt><trkpt lat="39.861925441204846" lon="8.828488131140382"><ele>206.0</ele><time>2026-05-03T07:17:35.999Z</time></trkpt><trkpt lat="39.86185834998616" lon="8.828495784374093"><ele>206.00000000000003</ele><time>2026-05-03T07:17:38.999Z</time></trkpt><trkpt lat="39.861813487311565" lon="8.828363033825783"><ele>206.0</ele><time>2026-05-03T07:17:40.999Z</time></trkpt><trkpt lat="39.86179550028441" lon="8.828279454770513"><ele>206.0</ele><time>2026-05-03T07:17:41.999Z</time></trkpt><trkpt lat="39.86176771817711" lon="8.828204481147232"><ele>206.0</ele><time>2026-05-03T07:17:42.999Z</time></trkpt><trkpt lat="39.86173399170523" lon="8.828125191437676"><ele>206.00000000000003</ele><time>2026-05-03T07:17:43.999Z</time></trkpt><trkpt lat="39.861685854028295" lon="8.82805625189576"><ele>206.0</ele><time>2026-05-03T07:17:45.999Z</time></trkpt><trkpt lat="39.86165538072422" lon="8.82815668988515"><ele>207.33333333333334</ele><time>2026-05-03T07:17:55.999Z</time></trkpt><trkpt lat="39.86167987229346" lon="8.828279166430272"><ele>208.66666666666669</ele><time>2026-05-03T07:17:57.999Z</time></trkpt><trkpt lat="39.86167869918608" lon="8.828192227443308"><ele>210.0</ele><time>2026-05-03T07:18:07.999Z</time></trkpt><trkpt lat="39.86166733631182" lon="8.828103730917922"><ele>211.33333333333331</ele><time>2026-05-03T07:18:08.999Z</time></trkpt><trkpt lat="39.86157909163741" lon="8.828024023291832"><ele>212.66666666666666</ele><time>2026-05-03T07:18:11.999Z</time></trkpt><trkpt lat="39.86149822078512" lon="8.828037702989356"><ele>214.0</ele><time>2026-05-03T07:18:12.999Z</time></trkpt><trkpt lat="39.86141035115673" lon="8.828054674222985"><ele>214.0</ele><time>2026-05-03T07:18:13.999Z</time></trkpt><trkpt lat="39.86133159846596" lon="8.82807782654258"><ele>213.99999999999997</ele><time>2026-05-03T07:18:14.999Z</time></trkpt><trkpt lat="39.861244223526" lon="8.828131190374854"><ele>213.99999999999997</ele><time>2026-05-03T07:18:15.999Z</time></trkpt><trkpt lat="39.8611591754056" lon="8.828209740022924"><ele>214.0</ele><time>2026-05-03T07:18:16.999Z</time></trkpt><trkpt lat="39.86108774735756" lon="8.828307894214428"><ele>214.0</ele><time>2026-05-03T07:18:17.999Z</time></trkpt><trkpt lat="39.86102091366745" lon="8.828413009654328"><ele>213.2</ele><time>2026-05-03T07:18:18.999Z</time></trkpt><trkpt lat="39.86096482935048" lon="8.828499167867774"><ele>212.39999999999998</ele><time>2026-05-03T07:18:19.999Z</time></trkpt><trkpt lat="39.86090125926634" lon="8.828549363540242"><ele>211.6</ele><time>2026-05-03T07:18:20.999Z</time></trkpt><trkpt lat="39.86081816609838" lon="8.828592634230557"><ele>210.8</ele><time>2026-05-03T07:18:21.999Z</time></trkpt><trkpt lat="39.86073864808598" lon="8.828655861676765"><ele>210.0</ele><time>2026-05-03T07:18:22.999Z</time></trkpt><trkpt lat="39.860649364437016" lon="8.828734949893455"><ele>212.0</ele><time>2026-05-03T07:18:23.999Z</time></trkpt><trkpt lat="39.86057444742941" lon="8.828843673982819"><ele>214.0</ele><time>2026-05-03T07:18:24.999Z</time></trkpt><trkpt lat="39.860509834596" lon="8.828966590331898"><ele>216.0</ele><time>2026-05-03T07:18:25.999Z</time></trkpt><trkpt lat="39.86047660572483" lon="8.82907219386673"><ele>218.0</ele><time>2026-05-03T07:18:26.999Z</time></trkpt><trkpt lat="39.86047522256745" lon="8.829174730967845"><ele>220.0</ele><time>2026-05-03T07:18:27.999Z</time></trkpt><trkpt lat="39.86049107009343" lon="8.829278721343988"><ele>220.0</ele><time>2026-05-03T07:18:28.999Z</time></trkpt><trkpt lat="39.86053392559097" lon="8.829383200924031"><ele>220.0</ele><time>2026-05-03T07:18:29.999Z</time></trkpt><trkpt lat="39.86059885232291" lon="8.82951189939849"><ele>220.0</ele><time>2026-05-03T07:18:30.998Z</time></trkpt><trkpt lat="39.860664783127746" lon="8.829659368095257"><ele>220.0</ele><time>2026-05-03T07:18:31.998Z</time></trkpt><trkpt lat="39.86073900509739" lon="8.829815405497605"><ele>220.0</ele><time>2026-05-03T07:18:32.998Z</time></trkpt><trkpt lat="39.860806300110596" lon="8.829955072963312"><ele>220.0</ele><time>2026-05-03T07:18:33.998Z</time></trkpt><trkpt lat="39.860868535416444" lon="8.830059280119524"><ele>220.0</ele><time>2026-05-03T07:18:34.998Z</time></trkpt><trkpt lat="39.86091541899388" lon="8.830147888233089"><ele>220.0</ele><time>2026-05-03T07:18:35.998Z</time></trkpt><trkpt lat="39.86095024315203" lon="8.830247308463537"><ele>220.0</ele><time>2026-05-03T07:18:36.998Z</time></trkpt><trkpt lat="39.861017000073815" lon="8.830354118929877"><ele>219.2</ele><time>2026-05-03T07:18:37.998Z</time></trkpt><trkpt lat="39.861110686879144" lon="8.83043540395168"><ele>218.4</ele><time>2026-05-03T07:18:38.998Z</time></trkpt><trkpt lat="39.86122215987742" lon="8.830495453307673"><ele>217.60000000000002</ele><time>2026-05-03T07:18:39.998Z</time></trkpt><trkpt lat="39.8613235963447" lon="8.830540989629199"><ele>216.8</ele><time>2026-05-03T07:18:40.998Z</time></trkpt><trkpt lat="39.86140579655505" lon="8.83060199740601"><ele>216.0</ele><time>2026-05-03T07:18:41.998Z</time></trkpt><trkpt lat="39.8614795976311" lon="8.830674079284105"><ele>216.0</ele><time>2026-05-03T07:18:42.998Z</time></trkpt><trkpt lat="39.861551021478924" lon="8.830731962340806"><ele>216.00000000000003</ele><time>2026-05-03T07:18:43.998Z</time></trkpt><trkpt lat="39.86162766240813" lon="8.830810178437602"><ele>216.00000000000003</ele><time>2026-05-03T07:18:44.998Z</time></trkpt><trkpt lat="39.86169220044379" lon="8.830899843680951"><ele>216.0</ele><time>2026-05-03T07:18:46Z</time></trkpt><trkpt lat="39.861769702009646" lon="8.830990752638625"><ele>216.0</ele><time>2026-05-03T07:18:47Z</time></trkpt><trkpt lat="39.861875950164624" lon="8.831089823409547"><ele>214.5</ele><time>2026-05-03T07:18:48Z</time></trkpt><trkpt lat="39.861982566488535" lon="8.831201478499786"><ele>213.0</ele><time>2026-05-03T07:18:49Z</time></trkpt><trkpt lat="39.86207324397951" lon="8.831307420295275"><ele>211.5</ele><time>2026-05-03T07:18:50Z</time></trkpt><trkpt lat="39.86215575069318" lon="8.831412359476312"><ele>210.0</ele><time>2026-05-03T07:18:51Z</time></trkpt><trkpt lat="39.86224599116503" lon="8.831495009221856"><ele>210.0</ele><time>2026-05-03T07:18:52Z</time></trkpt><trkpt lat="39.862325079293846" lon="8.831584480523619"><ele>210.0</ele><time>2026-05-03T07:18:53Z</time></trkpt><trkpt lat="39.86238760591213" lon="8.831663068890824"><ele>210.0</ele><time>2026-05-03T07:18:54Z</time></trkpt><trkpt lat="39.862453079216195" lon="8.831752742679331"><ele>210.0</ele><time>2026-05-03T07:18:55Z</time></trkpt><trkpt lat="39.86250601039629" lon="8.831863144255585"><ele>210.0</ele><time>2026-05-03T07:18:56Z</time></trkpt><trkpt lat="39.86254258359842" lon="8.831959050607383"><ele>210.5</ele><time>2026-05-03T07:18:57Z</time></trkpt><trkpt lat="39.86255241047912" lon="8.832055526827551"><ele>211.0</ele><time>2026-05-03T07:18:58Z</time></trkpt><trkpt lat="39.862538997752026" lon="8.832143830789613"><ele>211.5</ele><time>2026-05-03T07:18:59Z</time></trkpt><trkpt lat="39.862490464144685" lon="8.832239164417071"><ele>212.0</ele><time>2026-05-03T07:19:00Z</time></trkpt><trkpt lat="39.86241972266947" lon="8.832340468523732"><ele>212.5</ele><time>2026-05-03T07:19:01Z</time></trkpt><trkpt lat="39.862349364989285" lon="8.832419334277093"><ele>213.0</ele><time>2026-05-03T07:19:02Z</time></trkpt><trkpt lat="39.862292429201894" lon="8.832478807947124"><ele>213.0</ele><time>2026-05-03T07:19:03Z</time></trkpt><trkpt lat="39.86224086787871" lon="8.83255302597153"><ele>213.0</ele><time>2026-05-03T07:19:04Z</time></trkpt><trkpt lat="39.862192755413496" lon="8.83261502351597"><ele>213.0</ele><time>2026-05-03T07:19:05Z</time></trkpt><trkpt lat="39.86209977723013" lon="8.832648583061783"><ele>213.0</ele><time>2026-05-03T07:19:07Z</time></trkpt><trkpt lat="39.8620077188578" lon="8.832735683995994"><ele>213.0</ele><time>2026-05-03T07:19:09Z</time></trkpt><trkpt lat="39.861968580313864" lon="8.832807562495992"><ele>213.0</ele><time>2026-05-03T07:19:10Z</time></trkpt><trkpt lat="39.86184613947394" lon="8.832911165594858"><ele>216.16666666666666</ele><time>2026-05-03T07:19:12Z</time></trkpt><trkpt lat="39.861771820098866" lon="8.832999451872324"><ele>219.33333333333331</ele><time>2026-05-03T07:19:13Z</time></trkpt><trkpt lat="39.86172301564458" lon="8.833075035922088"><ele>222.5</ele><time>2026-05-03T07:19:14Z</time></trkpt><trkpt lat="39.861667772997535" lon="8.83314181553101"><ele>225.66666666666666</ele><time>2026-05-03T07:19:15Z</time></trkpt><trkpt lat="39.86160878071074" lon="8.83319242215559"><ele>228.83333333333331</ele><time>2026-05-03T07:19:16Z</time></trkpt><trkpt lat="39.861553094233564" lon="8.833289360607099"><ele>232.0</ele><time>2026-05-03T07:19:18Z</time></trkpt><trkpt lat="39.86161456414921" lon="8.833360036463375"><ele>231.99999999999997</ele><time>2026-05-03T07:19:20Z</time></trkpt><trkpt lat="39.86167528228365" lon="8.83342867081317"><ele>232.0</ele><time>2026-05-03T07:19:21Z</time></trkpt><trkpt lat="39.86174494673498" lon="8.833533971070754"><ele>232.0</ele><time>2026-05-03T07:19:22Z</time></trkpt><trkpt lat="39.86178496389534" lon="8.833621029763506"><ele>232.0</ele><time>2026-05-03T07:19:23Z</time></trkpt><trkpt lat="39.861798369137816" lon="8.833705581690754"><ele>231.99999999999997</ele><time>2026-05-03T07:19:24Z</time></trkpt><trkpt lat="39.86175923674055" lon="8.833805369725143"><ele>232.0</ele><time>2026-05-03T07:19:26Z</time></trkpt><trkpt lat="39.861692448467515" lon="8.834077229372074"><ele>233.83333333333331</ele><time>2026-05-03T07:19:30Z</time></trkpt><trkpt lat="39.86167794371735" lon="8.834178604080517"><ele>235.66666666666666</ele><time>2026-05-03T07:19:31Z</time></trkpt><trkpt lat="39.8616869613033" lon="8.83429431833976"><ele>237.5</ele><time>2026-05-03T07:19:32Z</time></trkpt><trkpt lat="39.86168566611725" lon="8.834405658869544"><ele>239.33333333333331</ele><time>2026-05-03T07:19:33Z</time></trkpt><trkpt lat="39.86167839075867" lon="8.834508628091298"><ele>241.16666666666666</ele><time>2026-05-03T07:19:34Z</time></trkpt><trkpt lat="39.86166927130657" lon="8.834602292527947"><ele>243.0</ele><time>2026-05-03T07:19:35Z</time></trkpt><trkpt lat="39.86166824084054" lon="8.834700654603306"><ele>242.83333333333334</ele><time>2026-05-03T07:19:35.999Z</time></trkpt><trkpt lat="39.86166597279098" lon="8.834806389415688"><ele>242.66666666666669</ele><time>2026-05-03T07:19:36.999Z</time></trkpt><trkpt lat="39.861660612608055" lon="8.834913560657284"><ele>242.5</ele><time>2026-05-03T07:19:37.999Z</time></trkpt><trkpt lat="39.86164716150398" lon="8.834997377560878"><ele>242.33333333333334</ele><time>2026-05-03T07:19:38.999Z</time></trkpt><trkpt lat="39.86163529512992" lon="8.835084100651825"><ele>242.16666666666669</ele><time>2026-05-03T07:19:39.999Z</time></trkpt><trkpt lat="39.86157346319746" lon="8.835144571666364"><ele>242.0</ele><time>2026-05-03T07:19:41.999Z</time></trkpt><trkpt lat="39.86149910788653" lon="8.835165226887185"><ele>243.39999999999998</ele><time>2026-05-03T07:19:43.999Z</time></trkpt><trkpt lat="39.8614044150211" lon="8.835118878837772"><ele>244.79999999999998</ele><time>2026-05-03T07:19:45.999Z</time></trkpt><trkpt lat="39.86128920132135" lon="8.835080906693165"><ele>246.2</ele><time>2026-05-03T07:19:47.999Z</time></trkpt><trkpt lat="39.861218779025165" lon="8.83508319013884"><ele>247.6</ele><time>2026-05-03T07:19:48.999Z</time></trkpt><trkpt lat="39.86112617437496" lon="8.835045267047844"><ele>249.0</ele><time>2026-05-03T07:19:50.999Z</time></trkpt><trkpt lat="39.86105705273625" lon="8.83499724859755"><ele>249.0</ele><time>2026-05-03T07:19:51.999Z</time></trkpt><trkpt lat="39.8609848950927" lon="8.834956651404273"><ele>249.0</ele><time>2026-05-03T07:19:52.999Z</time></trkpt><trkpt lat="39.860919338708705" lon="8.834926322057086"><ele>249.0</ele><time>2026-05-03T07:19:53.999Z</time></trkpt><trkpt lat="39.86080059209064" lon="8.834899558324654"><ele>249.0</ele><time>2026-05-03T07:19:55.999Z</time></trkpt><trkpt lat="39.86072213246707" lon="8.834894386947699"><ele>249.0</ele><time>2026-05-03T07:19:56.999Z</time></trkpt><trkpt lat="39.86063341520749" lon="8.834871963262765"><ele>249.0</ele><time>2026-05-03T07:19:57.999Z</time></trkpt><trkpt lat="39.860548546448115" lon="8.834852502188353"><ele>254.39999999999998</ele><time>2026-05-03T07:19:58.999Z</time></trkpt><trkpt lat="39.86045885910659" lon="8.834829301959221"><ele>259.79999999999995</ele><time>2026-05-03T07:19:59.999Z</time></trkpt><trkpt lat="39.86037351224121" lon="8.834795142451211"><ele>265.20000000000005</ele><time>2026-05-03T07:20:00.999Z</time></trkpt><trkpt lat="39.8602821206999" lon="8.834760966414084"><ele>270.6</ele><time>2026-05-03T07:20:01.999Z</time></trkpt><trkpt lat="39.86019256327531" lon="8.83473420686969"><ele>276.0</ele><time>2026-05-03T07:20:02.999Z</time></trkpt><trkpt lat="39.86011009815299" lon="8.834712375180215"><ele>278.0</ele><time>2026-05-03T07:20:03.999Z</time></trkpt><trkpt lat="39.860021035193284" lon="8.834683152099739"><ele>280.0</ele><time>2026-05-03T07:20:04.999Z</time></trkpt><trkpt lat="39.859954788442046" lon="8.834653878652487"><ele>282.0</ele><time>2026-05-03T07:20:05.999Z</time></trkpt><trkpt lat="39.859842349646236" lon="8.83459930613002"><ele>284.0</ele><time>2026-05-03T07:20:07.999Z</time></trkpt><trkpt lat="39.85976040155951" lon="8.834565786913556"><ele>286.0</ele><time>2026-05-03T07:20:08.999Z</time></trkpt><trkpt lat="39.8596744642755" lon="8.83453307665029"><ele>286.0</ele><time>2026-05-03T07:20:09.999Z</time></trkpt><trkpt lat="39.85958985151333" lon="8.834494764666598"><ele>286.0</ele><time>2026-05-03T07:20:10.999Z</time></trkpt><trkpt lat="39.859507883001896" lon="8.834462090421699"><ele>286.0</ele><time>2026-05-03T07:20:11.999Z</time></trkpt><trkpt lat="39.85942164015164" lon="8.834430769252291"><ele>286.0</ele><time>2026-05-03T07:20:12.999Z</time></trkpt><trkpt lat="39.85934757150859" lon="8.834401606415387"><ele>286.0</ele><time>2026-05-03T07:20:13.999Z</time></trkpt><trkpt lat="39.859279081001205" lon="8.834378861326616"><ele>286.0</ele><time>2026-05-03T07:20:14.999Z</time></trkpt><trkpt lat="39.85922139416642" lon="8.834344659893794"><ele>288.66666666666663</ele><time>2026-05-03T07:20:15.999Z</time></trkpt><trkpt lat="39.85911421266304" lon="8.834304295795919"><ele>291.3333333333333</ele><time>2026-05-03T07:20:17.999Z</time></trkpt><trkpt lat="39.859051853176176" lon="8.834283972672731"><ele>294.0</ele><time>2026-05-03T07:20:18.999Z</time></trkpt><trkpt lat="39.858981500485115" lon="8.83426135887774"><ele>296.6666666666667</ele><time>2026-05-03T07:20:19.999Z</time></trkpt><trkpt lat="39.85890454803516" lon="8.834225475555835"><ele>299.33333333333337</ele><time>2026-05-03T07:20:20.999Z</time></trkpt><trkpt lat="39.858827325253124" lon="8.834171157535549"><ele>302.0</ele><time>2026-05-03T07:20:22.999Z</time></trkpt><trkpt lat="39.85876662162519" lon="8.834096659881665"><ele>302.0</ele><time>2026-05-03T07:20:24.999Z</time></trkpt><trkpt lat="39.858694817260535" lon="8.83399989622684"><ele>302.0</ele><time>2026-05-03T07:20:26.999Z</time></trkpt><trkpt lat="39.858657437730784" lon="8.83384449836039"><ele>302.0</ele><time>2026-05-03T07:20:28.999Z</time></trkpt><trkpt lat="39.85862883873184" lon="8.833698056105858"><ele>302.0</ele><time>2026-05-03T07:20:30.999Z</time></trkpt><trkpt lat="39.85860595085197" lon="8.833573005168182"><ele>302.0</ele><time>2026-05-03T07:20:32.999Z</time></trkpt><trkpt lat="39.85856546696636" lon="8.833400112288077"><ele>301.6</ele><time>2026-05-03T07:20:34.999Z</time></trkpt><trkpt lat="39.85853166280135" lon="8.833282389859566"><ele>301.2</ele><time>2026-05-03T07:20:35.998Z</time></trkpt><trkpt lat="39.858505277404326" lon="8.833178933165712"><ele>300.8</ele><time>2026-05-03T07:20:36.998Z</time></trkpt><trkpt lat="39.858486815432464" lon="8.833086117187351"><ele>300.4</ele><time>2026-05-03T07:20:37.998Z</time></trkpt><trkpt lat="39.85847280363509" lon="8.833001063546297"><ele>300.0</ele><time>2026-05-03T07:20:38.998Z</time></trkpt><trkpt lat="39.85843167794412" lon="8.83283988202502"><ele>300.71428571428567</ele><time>2026-05-03T07:20:40.998Z</time></trkpt><trkpt lat="39.858407188641586" lon="8.83274059248034"><ele>301.42857142857144</ele><time>2026-05-03T07:20:41.998Z</time></trkpt><trkpt lat="39.85838428120462" lon="8.832639950114578"><ele>302.1428571428571</ele><time>2026-05-03T07:20:42.998Z</time></trkpt><trkpt lat="39.858365618010396" lon="8.83255105488741"><ele>302.85714285714283</ele><time>2026-05-03T07:20:43.998Z</time></trkpt><trkpt lat="39.85834828666882" lon="8.832471728062519"><ele>303.57142857142856</ele><time>2026-05-03T07:20:44.998Z</time></trkpt><trkpt lat="39.85832944409748" lon="8.832391565191164"><ele>304.2857142857143</ele><time>2026-05-03T07:20:45.998Z</time></trkpt><trkpt lat="39.858312343510924" lon="8.832309010238763"><ele>305.0</ele><time>2026-05-03T07:20:46.998Z</time></trkpt><trkpt lat="39.85828498394538" lon="8.832196388012651"><ele>305.0</ele><time>2026-05-03T07:20:47.998Z</time></trkpt><trkpt lat="39.858252289406394" lon="8.832070465034144"><ele>305.0</ele><time>2026-05-03T07:20:48.998Z</time></trkpt><trkpt lat="39.85822568985922" lon="8.831954053178562"><ele>305.0</ele><time>2026-05-03T07:20:49.998Z</time></trkpt><trkpt lat="39.8582054860832" lon="8.831845867330488"><ele>305.0</ele><time>2026-05-03T07:20:50.998Z</time></trkpt><trkpt lat="39.858185993043655" lon="8.831732092041868"><ele>305.0</ele><time>2026-05-03T07:20:52Z</time></trkpt><trkpt lat="39.858161118743524" lon="8.831601945073146"><ele>304.0</ele><time>2026-05-03T07:20:53Z</time></trkpt><trkpt lat="39.858137635969406" lon="8.831470354166708"><ele>303.0</ele><time>2026-05-03T07:20:54Z</time></trkpt><trkpt lat="39.85810437890937" lon="8.831330997140727"><ele>302.0</ele><time>2026-05-03T07:20:55Z</time></trkpt><trkpt lat="39.85806893988114" lon="8.831180683946684"><ele>301.0</ele><time>2026-05-03T07:20:56Z</time></trkpt><trkpt lat="39.858030673103855" lon="8.831020567674171"><ele>299.5</ele><time>2026-05-03T07:20:57Z</time></trkpt><trkpt lat="39.85799230933202" lon="8.830863038219938"><ele>298.0</ele><time>2026-05-03T07:20:58Z</time></trkpt><trkpt lat="39.857957451966804" lon="8.83070995688668"><ele>296.5</ele><time>2026-05-03T07:20:59Z</time></trkpt><trkpt lat="39.8579193520148" lon="8.830555250733992"><ele>295.0</ele><time>2026-05-03T07:21:00Z</time></trkpt><trkpt lat="39.85787998593677" lon="8.830388711016344"><ele>295.0</ele><time>2026-05-03T07:21:01Z</time></trkpt><trkpt lat="39.85784147649347" lon="8.83022148895042"><ele>295.0</ele><time>2026-05-03T07:21:02Z</time></trkpt><trkpt lat="39.8578071490454" lon="8.830062221941738"><ele>295.0</ele><time>2026-05-03T07:21:03Z</time></trkpt><trkpt lat="39.857772108549526" lon="8.829909442307049"><ele>295.0</ele><time>2026-05-03T07:21:04Z</time></trkpt><trkpt lat="39.85773869371565" lon="8.829750067712489"><ele>294.5</ele><time>2026-05-03T07:21:05Z</time></trkpt><trkpt lat="39.857701977858646" lon="8.829590963174224"><ele>294.0</ele><time>2026-05-03T07:21:06Z</time></trkpt><trkpt lat="39.857662460090175" lon="8.829432666490778"><ele>293.5</ele><time>2026-05-03T07:21:07Z</time></trkpt><trkpt lat="39.857622341366614" lon="8.829271359243025"><ele>293.0</ele><time>2026-05-03T07:21:08Z</time></trkpt><trkpt lat="39.85758859567785" lon="8.829121130576903"><ele>293.0</ele><time>2026-05-03T07:21:09Z</time></trkpt><trkpt lat="39.85756339769757" lon="8.828972310891833"><ele>293.0</ele><time>2026-05-03T07:21:10Z</time></trkpt><trkpt lat="39.8575402351619" lon="8.828818490838882"><ele>293.0</ele><time>2026-05-03T07:21:11Z</time></trkpt><trkpt lat="39.85751096991596" lon="8.82865908171504"><ele>293.0</ele><time>2026-05-03T07:21:12Z</time></trkpt><trkpt lat="39.857476994517846" lon="8.828496726238505"><ele>292.5</ele><time>2026-05-03T07:21:13Z</time></trkpt><trkpt lat="39.85743632971871" lon="8.828342449156617"><ele>292.0</ele><time>2026-05-03T07:21:14Z</time></trkpt><trkpt lat="39.85739567200472" lon="8.828201582346558"><ele>291.5</ele><time>2026-05-03T07:21:15Z</time></trkpt><trkpt lat="39.857351432728464" lon="8.828055985548916"><ele>291.0</ele><time>2026-05-03T07:21:16Z</time></trkpt><trkpt lat="39.857296408261135" lon="8.827890614095562"><ele>291.0</ele><time>2026-05-03T07:21:17Z</time></trkpt><trkpt lat="39.857247375864496" lon="8.827713811880937"><ele>291.0</ele><time>2026-05-03T07:21:18Z</time></trkpt><trkpt lat="39.857225389222975" lon="8.82755964155046"><ele>291.0</ele><time>2026-05-03T07:21:19Z</time></trkpt><trkpt lat="39.85718983187326" lon="8.827425407920275"><ele>291.0</ele><time>2026-05-03T07:21:20Z</time></trkpt><trkpt lat="39.85716149537267" lon="8.827289966531136"><ele>289.75</ele><time>2026-05-03T07:21:21Z</time></trkpt><trkpt lat="39.85713686858132" lon="8.827148374848086"><ele>288.5</ele><time>2026-05-03T07:21:22Z</time></trkpt><trkpt lat="39.85709828846014" lon="8.826972302943284"><ele>287.25</ele><time>2026-05-03T07:21:23Z</time></trkpt><trkpt lat="39.857056468658094" lon="8.82679184806339"><ele>286.0</ele><time>2026-05-03T07:21:24Z</time></trkpt><trkpt lat="39.85701116508362" lon="8.826602931083817"><ele>284.66666666666663</ele><time>2026-05-03T07:21:25Z</time></trkpt><trkpt lat="39.85696661767395" lon="8.826404472084059"><ele>283.3333333333333</ele><time>2026-05-03T07:21:26Z</time></trkpt><trkpt lat="39.85692072646764" lon="8.82621341563426"><ele>282.0</ele><time>2026-05-03T07:21:27Z</time></trkpt><trkpt lat="39.8568800692068" lon="8.82602970561681"><ele>282.25</ele><time>2026-05-03T07:21:28Z</time></trkpt><trkpt lat="39.85684500337886" lon="8.825859904933438"><ele>282.5</ele><time>2026-05-03T07:21:29Z</time></trkpt><trkpt lat="39.85681375133275" lon="8.825701845571103"><ele>282.75</ele><time>2026-05-03T07:21:30Z</time></trkpt><trkpt lat="39.85677830464076" lon="8.825552836438478"><ele>283.0</ele><time>2026-05-03T07:21:31Z</time></trkpt><trkpt lat="39.856738907977906" lon="8.825405621575902"><ele>283.0</ele><time>2026-05-03T07:21:32Z</time></trkpt><trkpt lat="39.85668770689418" lon="8.82525070232258"><ele>283.0</ele><time>2026-05-03T07:21:33Z</time></trkpt><trkpt lat="39.856641677737144" lon="8.82508114083595"><ele>283.0</ele><time>2026-05-03T07:21:34Z</time></trkpt><trkpt lat="39.85659856657553" lon="8.824906182448599"><ele>283.0</ele><time>2026-05-03T07:21:35Z</time></trkpt><trkpt lat="39.856554514427664" lon="8.824720012154716"><ele>282.0</ele><time>2026-05-03T07:21:36Z</time></trkpt><trkpt lat="39.856510656631905" lon="8.82454206117978"><ele>281.0</ele><time>2026-05-03T07:21:37Z</time></trkpt><trkpt lat="39.856470585951904" lon="8.824392806957277"><ele>280.0</ele><time>2026-05-03T07:21:38Z</time></trkpt><trkpt lat="39.856441668998706" lon="8.824271111334317"><ele>279.0</ele><time>2026-05-03T07:21:38.999Z</time></trkpt><trkpt lat="39.85641658205303" lon="8.824145781638382"><ele>277.59999999999997</ele><time>2026-05-03T07:21:39.999Z</time></trkpt><trkpt lat="39.85638857857415" lon="8.824021188739689"><ele>276.2</ele><time>2026-05-03T07:21:40.999Z</time></trkpt><trkpt lat="39.85635863581142" lon="8.823893579743658"><ele>274.79999999999995</ele><time>2026-05-03T07:21:41.999Z</time></trkpt><trkpt lat="39.85632614217044" lon="8.823760901681002"><ele>273.4</ele><time>2026-05-03T07:21:42.999Z</time></trkpt><trkpt lat="39.856293783822025" lon="8.823638778306993"><ele>272.0</ele><time>2026-05-03T07:21:43.999Z</time></trkpt><trkpt lat="39.85626358440347" lon="8.823517023655661"><ele>269.6</ele><time>2026-05-03T07:21:44.999Z</time></trkpt><trkpt lat="39.856237093508554" lon="8.82339036083595"><ele>267.2</ele><time>2026-05-03T07:21:45.999Z</time></trkpt><trkpt lat="39.85620503907156" lon="8.823257752147354"><ele>264.8</ele><time>2026-05-03T07:21:46.999Z</time></trkpt><trkpt lat="39.85616806617949" lon="8.823118366746344"><ele>262.4</ele><time>2026-05-03T07:21:47.999Z</time></trkpt><trkpt lat="39.85613548429127" lon="8.82297053789762"><ele>260.0</ele><time>2026-05-03T07:21:48.999Z</time></trkpt><trkpt lat="39.85611126736797" lon="8.822830677990435"><ele>260.0</ele><time>2026-05-03T07:21:49.999Z</time></trkpt><trkpt lat="39.85608928055576" lon="8.822708500913675"><ele>260.0</ele><time>2026-05-03T07:21:50.999Z</time></trkpt><trkpt lat="39.85606818729321" lon="8.82260130254533"><ele>260.0</ele><time>2026-05-03T07:21:51.999Z</time></trkpt><trkpt lat="39.85603362360475" lon="8.822501010060732"><ele>260.0</ele><time>2026-05-03T07:21:52.999Z</time></trkpt><trkpt lat="39.856005701480555" lon="8.82239868535855"><ele>260.0</ele><time>2026-05-03T07:21:53.999Z</time></trkpt><trkpt lat="39.855986822014444" lon="8.822286065454476"><ele>260.0</ele><time>2026-05-03T07:21:54.999Z</time></trkpt><trkpt lat="39.855976398822406" lon="8.822178425124774"><ele>258.8</ele><time>2026-05-03T07:21:55.999Z</time></trkpt><trkpt lat="39.85595718061063" lon="8.822061286990426"><ele>257.6</ele><time>2026-05-03T07:21:56.999Z</time></trkpt><trkpt lat="39.855927478785205" lon="8.821929776939685"><ele>256.4</ele><time>2026-05-03T07:21:57.999Z</time></trkpt><trkpt lat="39.855890772324734" lon="8.821784181308505"><ele>255.2</ele><time>2026-05-03T07:21:58.999Z</time></trkpt><trkpt lat="39.85585601729658" lon="8.82162048068419"><ele>254.0</ele><time>2026-05-03T07:21:59.999Z</time></trkpt><trkpt lat="39.85581979193344" lon="8.821465570103433"><ele>258.0</ele><time>2026-05-03T07:22:00.999Z</time></trkpt><trkpt lat="39.855784864418574" lon="8.821331449932194"><ele>262.0</ele><time>2026-05-03T07:22:01.999Z</time></trkpt><trkpt lat="39.85575175387915" lon="8.82119124379315"><ele>266.0</ele><time>2026-05-03T07:22:02.999Z</time></trkpt><trkpt lat="39.85572275989059" lon="8.821071805923607"><ele>270.0</ele><time>2026-05-03T07:22:03.999Z</time></trkpt><trkpt lat="39.85569096515971" lon="8.820960302440419"><ele>274.0</ele><time>2026-05-03T07:22:04.999Z</time></trkpt><trkpt lat="39.85565491636624" lon="8.820853052214483"><ele>274.0</ele><time>2026-05-03T07:22:05.999Z</time></trkpt><trkpt lat="39.85562294531815" lon="8.820738062894291"><ele>274.0</ele><time>2026-05-03T07:22:06.999Z</time></trkpt><trkpt lat="39.85559571586963" lon="8.820622344974298"><ele>274.0</ele><time>2026-05-03T07:22:07.999Z</time></trkpt><trkpt lat="39.855568277010825" lon="8.82049602312628"><ele>274.0</ele><time>2026-05-03T07:22:08.999Z</time></trkpt><trkpt lat="39.855536521745556" lon="8.820369927825539"><ele>274.0</ele><time>2026-05-03T07:22:09.999Z</time></trkpt><trkpt lat="39.85549729228039" lon="8.82022707257349"><ele>270.0</ele><time>2026-05-03T07:22:10.999Z</time></trkpt><trkpt lat="39.85545619036157" lon="8.820077334033153"><ele>266.0</ele><time>2026-05-03T07:22:11.999Z</time></trkpt><trkpt lat="39.855421350034334" lon="8.819930755603714"><ele>262.0</ele><time>2026-05-03T07:22:12.999Z</time></trkpt><trkpt lat="39.85539339381891" lon="8.81979251872071"><ele>258.0</ele><time>2026-05-03T07:22:13.999Z</time></trkpt><trkpt lat="39.85537140747692" lon="8.81964992862769"><ele>258.0</ele><time>2026-05-03T07:22:14.999Z</time></trkpt><trkpt lat="39.85535498371224" lon="8.819511546324582"><ele>258.0</ele><time>2026-05-03T07:22:15.999Z</time></trkpt><trkpt lat="39.8553348259089" lon="8.819409614054488"><ele>258.0</ele><time>2026-05-03T07:22:16.999Z</time></trkpt><trkpt lat="39.85530993240303" lon="8.819328992197564"><ele>258.0</ele><time>2026-05-03T07:22:18.999Z</time></trkpt><trkpt lat="39.855263419199765" lon="8.819212584336878"><ele>258.0</ele><time>2026-05-03T07:22:20.999Z</time></trkpt><trkpt lat="39.85526217186269" lon="8.819125488854922"><ele>258.0</ele><time>2026-05-03T07:22:23.999Z</time></trkpt><trkpt lat="39.85533010838358" lon="8.819070133686997"><ele>256.5</ele><time>2026-05-03T07:22:26.999Z</time></trkpt><trkpt lat="39.85536151681341" lon="8.818996610046943"><ele>255.0</ele><time>2026-05-03T07:22:30.999Z</time></trkpt><trkpt lat="39.85533191259266" lon="8.81891512972391"><ele>253.5</ele><time>2026-05-03T07:22:32.999Z</time></trkpt><trkpt lat="39.85528596407715" lon="8.818839595823546"><ele>252.0</ele><time>2026-05-03T07:22:34.999Z</time></trkpt><trkpt lat="39.85518868962096" lon="8.818707254595886"><ele>250.5</ele><time>2026-05-03T07:22:37.999Z</time></trkpt><trkpt lat="39.855137661783104" lon="8.818632703557812"><ele>249.0</ele><time>2026-05-03T07:22:38.999Z</time></trkpt><trkpt lat="39.85508685687844" lon="8.818515857201888"><ele>246.16666666666666</ele><time>2026-05-03T07:22:40.998Z</time></trkpt><trkpt lat="39.8550569984652" lon="8.818438221848984"><ele>243.33333333333331</ele><time>2026-05-03T07:22:41.998Z</time></trkpt><trkpt lat="39.855028974054164" lon="8.818360168201522"><ele>240.5</ele><time>2026-05-03T07:22:42.998Z</time></trkpt><trkpt lat="39.85500330565938" lon="8.81826957770916"><ele>237.66666666666666</ele><time>2026-05-03T07:22:43.998Z</time></trkpt><trkpt lat="39.85497337201648" lon="8.81816741042956"><ele>234.83333333333331</ele><time>2026-05-03T07:22:44.998Z</time></trkpt><trkpt lat="39.85494095878547" lon="8.818066522092725"><ele>232.0</ele><time>2026-05-03T07:22:45.998Z</time></trkpt><trkpt lat="39.854911332327916" lon="8.817971712967609"><ele>232.0</ele><time>2026-05-03T07:22:46.998Z</time></trkpt><trkpt lat="39.854892685148734" lon="8.817828536271538"><ele>232.0</ele><time>2026-05-03T07:22:48.998Z</time></trkpt><trkpt lat="39.85492310426359" lon="8.817697633902428"><ele>232.0</ele><time>2026-05-03T07:22:50.998Z</time></trkpt><trkpt lat="39.85497164506226" lon="8.817565145587793"><ele>232.0</ele><time>2026-05-03T07:22:52.998Z</time></trkpt><trkpt lat="39.855071455022994" lon="8.817461364878964"><ele>228.83333333333331</ele><time>2026-05-03T07:22:54.998Z</time></trkpt><trkpt lat="39.85518153326089" lon="8.817431079663018"><ele>225.66666666666666</ele><time>2026-05-03T07:22:56.998Z</time></trkpt><trkpt lat="39.855307529657026" lon="8.81744111259885"><ele>222.5</ele><time>2026-05-03T07:22:59Z</time></trkpt><trkpt lat="39.85537278068089" lon="8.817452777434616"><ele>219.33333333333331</ele><time>2026-05-03T07:23:00Z</time></trkpt><trkpt lat="39.85543992797944" lon="8.817465882688397"><ele>216.16666666666666</ele><time>2026-05-03T07:23:01Z</time></trkpt><trkpt lat="39.85550569930903" lon="8.817475668841595"><ele>213.0</ele><time>2026-05-03T07:23:02Z</time></trkpt><trkpt lat="39.855573045289" lon="8.817441015804606"><ele>213.0</ele><time>2026-05-03T07:23:04Z</time></trkpt><trkpt lat="39.85552443935478" lon="8.81734699546148"><ele>213.0</ele><time>2026-05-03T07:23:07Z</time></trkpt><trkpt lat="39.85539990183077" lon="8.817310017489062"><ele>213.0</ele><time>2026-05-03T07:23:09Z</time></trkpt><trkpt lat="39.85534248488133" lon="8.81726140103856"><ele>213.0</ele><time>2026-05-03T07:23:10Z</time></trkpt><trkpt lat="39.85528192381308" lon="8.817199118867135"><ele>213.0</ele><time>2026-05-03T07:23:11Z</time></trkpt><trkpt lat="39.85522458642163" lon="8.817136570130609"><ele>213.0</ele><time>2026-05-03T07:23:12Z</time></trkpt><trkpt lat="39.855176435635016" lon="8.817077414103364"><ele>213.0</ele><time>2026-05-03T07:23:13Z</time></trkpt><trkpt lat="39.85512568372725" lon="8.817027465096825"><ele>213.0</ele><time>2026-05-03T07:23:14Z</time></trkpt><trkpt lat="39.85504455166742" lon="8.816953704142266"><ele>213.0</ele><time>2026-05-03T07:23:16Z</time></trkpt><trkpt lat="39.85501146124543" lon="8.816870808458866"><ele>213.0</ele><time>2026-05-03T07:23:18Z</time></trkpt><trkpt lat="39.85505488261859" lon="8.816806649682205"><ele>213.0</ele><time>2026-05-03T07:23:19Z</time></trkpt><trkpt lat="39.8551252036419" lon="8.816794369879089"><ele>213.0</ele><time>2026-05-03T07:23:20Z</time></trkpt><trkpt lat="39.85524554079294" lon="8.8168265335273"><ele>213.0</ele><time>2026-05-03T07:23:22Z</time></trkpt><trkpt lat="39.85536961356667" lon="8.81687611797616"><ele>213.0</ele><time>2026-05-03T07:23:24Z</time></trkpt><trkpt lat="39.85544495582113" lon="8.816910424038204"><ele>213.0</ele><time>2026-05-03T07:23:25Z</time></trkpt><trkpt lat="39.85552269481055" lon="8.816940873028612"><ele>213.0</ele><time>2026-05-03T07:23:26Z</time></trkpt><trkpt lat="39.85560350966958" lon="8.816973033451024"><ele>213.0</ele><time>2026-05-03T07:23:27Z</time></trkpt><trkpt lat="39.855669830261185" lon="8.817000966798108"><ele>213.0</ele><time>2026-05-03T07:23:28Z</time></trkpt><trkpt lat="39.85574758675126" lon="8.817022700843456"><ele>213.0</ele><time>2026-05-03T07:23:29Z</time></trkpt><trkpt lat="39.855827431361256" lon="8.817052999943801"><ele>213.0</ele><time>2026-05-03T07:23:30Z</time></trkpt><trkpt lat="39.85590207892385" lon="8.817079375026193"><ele>213.0</ele><time>2026-05-03T07:23:31Z</time></trkpt><trkpt lat="39.855970180730445" lon="8.817104616835115"><ele>213.0</ele><time>2026-05-03T07:23:32Z</time></trkpt><trkpt lat="39.8560510070897" lon="8.81714085331455"><ele>213.0</ele><time>2026-05-03T07:23:33Z</time></trkpt><trkpt lat="39.85613124608941" lon="8.817170713345892"><ele>213.0</ele><time>2026-05-03T07:23:34Z</time></trkpt><trkpt lat="39.85621692396363" lon="8.817207854220545"><ele>209.2</ele><time>2026-05-03T07:23:35Z</time></trkpt><trkpt lat="39.85629409797313" lon="8.817269564050203"><ele>205.4</ele><time>2026-05-03T07:23:36Z</time></trkpt><trkpt lat="39.85635175669803" lon="8.817350827529292"><ele>201.6</ele><time>2026-05-03T07:23:37Z</time></trkpt><trkpt lat="39.85640905121529" lon="8.817445715818867"><ele>197.79999999999998</ele><time>2026-05-03T07:23:38Z</time></trkpt><trkpt lat="39.856480766742635" lon="8.817519226733696"><ele>194.0</ele><time>2026-05-03T07:23:39Z</time></trkpt><trkpt lat="39.85655525612233" lon="8.817588981400165"><ele>192.6</ele><time>2026-05-03T07:23:40Z</time></trkpt><trkpt lat="39.856619936272814" lon="8.817655817429914"><ele>191.2</ele><time>2026-05-03T07:23:41Z</time></trkpt><trkpt lat="39.85669946186846" lon="8.817728352100023"><ele>189.79999999999998</ele><time>2026-05-03T07:23:42Z</time></trkpt><trkpt lat="39.856780742211896" lon="8.81779112946112"><ele>188.39999999999998</ele><time>2026-05-03T07:23:43Z</time></trkpt><trkpt lat="39.85686005741667" lon="8.817832975252946"><ele>187.0</ele><time>2026-05-03T07:23:43.999Z</time></trkpt><trkpt lat="39.856953696565164" lon="8.817823942128985"><ele>187.0</ele><time>2026-05-03T07:23:45.999Z</time></trkpt><trkpt lat="39.857042797153774" lon="8.817754939314085"><ele>187.0</ele><time>2026-05-03T07:23:47.999Z</time></trkpt><trkpt lat="39.85707405390376" lon="8.817630940260553"><ele>187.0</ele><time>2026-05-03T07:23:49.999Z</time></trkpt><trkpt lat="39.857031234630014" lon="8.817560079615046"><ele>187.0</ele><time>2026-05-03T07:23:50.999Z</time></trkpt><trkpt lat="39.856952897601694" lon="8.817493654950976"><ele>187.0</ele><time>2026-05-03T07:23:51.999Z</time></trkpt><trkpt lat="39.85687867980591" lon="8.817421998984106"><ele>185.83333333333334</ele><time>2026-05-03T07:23:52.999Z</time></trkpt><trkpt lat="39.856828433269676" lon="8.817343981797121"><ele>184.66666666666669</ele><time>2026-05-03T07:23:53.999Z</time></trkpt><trkpt lat="39.85681077604182" lon="8.81724910341444"><ele>183.5</ele><time>2026-05-03T07:23:54.999Z</time></trkpt><trkpt lat="39.85686340458204" lon="8.817142387869245"><ele>182.33333333333334</ele><time>2026-05-03T07:23:56.999Z</time></trkpt><trkpt lat="39.85692168986383" lon="8.817097121564602"><ele>181.16666666666666</ele><time>2026-05-03T07:23:58.999Z</time></trkpt><trkpt lat="39.856950052321174" lon="8.817018323501573"><ele>180.0</ele><time>2026-05-03T07:23:59.999Z</time></trkpt><trkpt lat="39.85702290134055" lon="8.816898322298387"><ele>178.66666666666666</ele><time>2026-05-03T07:24:00.999Z</time></trkpt><trkpt lat="39.857082360485634" lon="8.81676992903644"><ele>177.33333333333334</ele><time>2026-05-03T07:24:01.999Z</time></trkpt><trkpt lat="39.857129965139805" lon="8.816689980559799"><ele>176.0</ele><time>2026-05-03T07:24:02.999Z</time></trkpt><trkpt lat="39.85717310984161" lon="8.816606081842277"><ele>174.66666666666669</ele><time>2026-05-03T07:24:03.999Z</time></trkpt><trkpt lat="39.8572115394193" lon="8.816525112498818"><ele>173.33333333333334</ele><time>2026-05-03T07:24:04.999Z</time></trkpt><trkpt lat="39.85725477297942" lon="8.816441161576055"><ele>172.0</ele><time>2026-05-03T07:24:05.999Z</time></trkpt><trkpt lat="39.857308716555" lon="8.81636695796934"><ele>172.0</ele><time>2026-05-03T07:24:06.999Z</time></trkpt><trkpt lat="39.85735688869853" lon="8.816289931570676"><ele>172.0</ele><time>2026-05-03T07:24:07.999Z</time></trkpt><trkpt lat="39.85743172697294" lon="8.816163605846496"><ele>172.0</ele><time>2026-05-03T07:24:09.999Z</time></trkpt><trkpt lat="39.85747276997237" lon="8.816024476889595"><ele>172.0</ele><time>2026-05-03T07:24:11.999Z</time></trkpt><trkpt lat="39.85743177805667" lon="8.81595749575987"><ele>172.0</ele><time>2026-05-03T07:24:12.999Z</time></trkpt><trkpt lat="39.857378677953506" lon="8.815856931374187"><ele>170.8</ele><time>2026-05-03T07:24:13.999Z</time></trkpt><trkpt lat="39.857363619411586" lon="8.815761945534312"><ele>169.6</ele><time>2026-05-03T07:24:14.999Z</time></trkpt><trkpt lat="39.85735544470361" lon="8.815675372166455"><ele>168.4</ele><time>2026-05-03T07:24:15.999Z</time></trkpt><trkpt lat="39.857225515220904" lon="8.815641704744772"><ele>167.20000000000002</ele><time>2026-05-03T07:24:18.999Z</time></trkpt><trkpt lat="39.85711418892975" lon="8.815583332597809"><ele>166.0</ele><time>2026-05-03T07:24:19.999Z</time></trkpt><trkpt lat="39.85700890140701" lon="8.815546681578477"><ele>166.0</ele><time>2026-05-03T07:24:20.999Z</time></trkpt><trkpt lat="39.85691053385633" lon="8.815460596875138"><ele>166.0</ele><time>2026-05-03T07:24:21.999Z</time></trkpt><trkpt lat="39.85680337524757" lon="8.815381292889024"><ele>166.0</ele><time>2026-05-03T07:24:22.999Z</time></trkpt><trkpt lat="39.8566873240947" lon="8.815324188956465"><ele>166.0</ele><time>2026-05-03T07:24:23.999Z</time></trkpt><trkpt lat="39.85657170402007" lon="8.815282514210905"><ele>165.8</ele><time>2026-05-03T07:24:24.999Z</time></trkpt><trkpt lat="39.856492961967625" lon="8.81520706609275"><ele>165.60000000000002</ele><time>2026-05-03T07:24:25.999Z</time></trkpt><trkpt lat="39.85644037071711" lon="8.815152869471417"><ele>165.4</ele><time>2026-05-03T07:24:26.999Z</time></trkpt><trkpt lat="39.85641208604193" lon="8.814963081591074"><ele>165.2</ele><time>2026-05-03T07:24:28.999Z</time></trkpt><trkpt lat="39.85638194413291" lon="8.814791896073382"><ele>165.0</ele><time>2026-05-03T07:24:29.999Z</time></trkpt><trkpt lat="39.85636540068232" lon="8.81462759969066"><ele>162.8</ele><time>2026-05-03T07:24:30.999Z</time></trkpt><trkpt lat="39.85636266150415" lon="8.814448284877285"><ele>160.6</ele><time>2026-05-03T07:24:31.999Z</time></trkpt><trkpt lat="39.85636428558198" lon="8.814293780962307"><ele>158.4</ele><time>2026-05-03T07:24:32.999Z</time></trkpt><trkpt lat="39.85636678143286" lon="8.814170679425985"><ele>156.2</ele><time>2026-05-03T07:24:33.999Z</time></trkpt><trkpt lat="39.85636922704781" lon="8.814050055680479"><ele>154.0</ele><time>2026-05-03T07:24:35.999Z</time></trkpt><trkpt lat="39.85646506342432" lon="8.813946837443494"><ele>150.66666666666669</ele><time>2026-05-03T07:24:37.999Z</time></trkpt><trkpt lat="39.85652651921769" lon="8.813982294283022"><ele>147.33333333333334</ele><time>2026-05-03T07:24:38.999Z</time></trkpt><trkpt lat="39.85629005097514" lon="8.813876154416231"><ele>144.0</ele><time>2026-05-03T07:24:42.999Z</time></trkpt><trkpt lat="39.856150753181964" lon="8.813973727772959"><ele>144.0</ele><time>2026-05-03T07:24:43.999Z</time></trkpt><trkpt lat="39.8560375360932" lon="8.814010558056793"><ele>144.0</ele><time>2026-05-03T07:24:44.998Z</time></trkpt><trkpt lat="39.85584161773237" lon="8.814138552976877"><ele>144.0</ele><time>2026-05-03T07:24:45.998Z</time></trkpt><trkpt lat="39.85586295457391" lon="8.814801740207542"><ele>146.5</ele><time>2026-05-03T07:24:46.998Z</time></trkpt><trkpt lat="39.85570683703957" lon="8.81500428561778"><ele>149.0</ele><time>2026-05-03T07:24:47.998Z</time></trkpt><trkpt lat="39.85548926428309" lon="8.815129095495287"><ele>147.5</ele><time>2026-05-03T07:24:48.998Z</time></trkpt><trkpt lat="39.85524185515889" lon="8.815188302674661"><ele>146.0</ele><time>2026-05-03T07:24:49.998Z</time></trkpt><trkpt lat="39.85500979179257" lon="8.81513982759619"><ele>154.0</ele><time>2026-05-03T07:24:50.998Z</time></trkpt><trkpt lat="39.85481574893442" lon="8.815183058099372"><ele>162.0</ele><time>2026-05-03T07:24:51.998Z</time></trkpt><trkpt lat="39.85465477525918" lon="8.815251736592442"><ele>170.0</ele><time>2026-05-03T07:24:52.998Z</time></trkpt><trkpt lat="39.85451925426734" lon="8.81540520073151"><ele>170.0</ele><time>2026-05-03T07:24:53.998Z</time></trkpt><trkpt lat="39.85440009855758" lon="8.81561242370362"><ele>170.0</ele><time>2026-05-03T07:24:54.998Z</time></trkpt><trkpt lat="39.85427728239629" lon="8.815832257715979"><ele>170.0</ele><time>2026-05-03T07:24:55.998Z</time></trkpt><trkpt lat="39.85414616374676" lon="8.816053109453676"><ele>170.66666666666666</ele><time>2026-05-03T07:24:56.998Z</time></trkpt><trkpt lat="39.85399915770593" lon="8.816269004669502"><ele>171.33333333333334</ele><time>2026-05-03T07:24:57.998Z</time></trkpt><trkpt lat="39.85382192765019" lon="8.816453345556214"><ele>172.0</ele><time>2026-05-03T07:24:58.998Z</time></trkpt><trkpt lat="39.85369644550978" lon="8.816653578019103"><ele>177.33333333333334</ele><time>2026-05-03T07:24:59.998Z</time></trkpt><trkpt lat="39.853614932146726" lon="8.816873805181983"><ele>182.66666666666666</ele><time>2026-05-03T07:25:00.998Z</time></trkpt><trkpt lat="39.853591439621184" lon="8.817148725129629"><ele>188.0</ele><time>2026-05-03T07:25:01.998Z</time></trkpt><trkpt lat="39.85360245927796" lon="8.817448049348132"><ele>191.33333333333331</ele><time>2026-05-03T07:25:02.998Z</time></trkpt><trkpt lat="39.85354851747882" lon="8.817727534708968"><ele>194.66666666666666</ele><time>2026-05-03T07:25:04Z</time></trkpt><trkpt lat="39.85345495866252" lon="8.817962004533873"><ele>198.0</ele><time>2026-05-03T07:25:05Z</time></trkpt><trkpt lat="39.85330950828536" lon="8.818118975054821"><ele>195.5</ele><time>2026-05-03T07:25:06Z</time></trkpt><trkpt lat="39.8531377226709" lon="8.818296216798297"><ele>193.0</ele><time>2026-05-03T07:25:07Z</time></trkpt><trkpt lat="39.852965845128075" lon="8.818503398779997"><ele>193.0</ele><time>2026-05-03T07:25:08Z</time></trkpt><trkpt lat="39.85279872977739" lon="8.818725218745431"><ele>193.0</ele><time>2026-05-03T07:25:09Z</time></trkpt><trkpt lat="39.85267806010135" lon="8.819010048074686"><ele>186.0</ele><time>2026-05-03T07:25:10Z</time></trkpt><trkpt lat="39.85258640963996" lon="8.819331476573648"><ele>179.0</ele><time>2026-05-03T07:25:11Z</time></trkpt><trkpt lat="39.85246420560952" lon="8.819620453876482"><ele>179.0</ele><time>2026-05-03T07:25:12Z</time></trkpt><trkpt lat="39.85234981250028" lon="8.819916643874189"><ele>179.0</ele><time>2026-05-03T07:25:13Z</time></trkpt><trkpt lat="39.85224818536295" lon="8.820216985195549"><ele>185.0</ele><time>2026-05-03T07:25:14Z</time></trkpt><trkpt lat="39.852137761495776" lon="8.820510518344665"><ele>191.0</ele><time>2026-05-03T07:25:15Z</time></trkpt><trkpt lat="39.85202258295919" lon="8.820800809039293"><ele>186.0</ele><time>2026-05-03T07:25:16Z</time></trkpt><trkpt lat="39.85190284877609" lon="8.821092026736105"><ele>181.0</ele><time>2026-05-03T07:25:17Z</time></trkpt><trkpt lat="39.851745025451144" lon="8.821340869537222"><ele>181.0</ele><time>2026-05-03T07:25:18Z</time></trkpt><trkpt lat="39.85159461321746" lon="8.821554327187755"><ele>181.0</ele><time>2026-05-03T07:25:19Z</time></trkpt><trkpt lat="39.85149776387801" lon="8.821753402152009"><ele>181.0</ele><time>2026-05-03T07:25:20Z</time></trkpt><trkpt lat="39.85143059706539" lon="8.821956376796669"><ele>182.33333333333334</ele><time>2026-05-03T07:25:21Z</time></trkpt><trkpt lat="39.85141722815215" lon="8.822211926651374"><ele>183.66666666666666</ele><time>2026-05-03T07:25:22Z</time></trkpt><trkpt lat="39.85146636743212" lon="8.822478136275265"><ele>185.0</ele><time>2026-05-03T07:25:23Z</time></trkpt><trkpt lat="39.85156305049545" lon="8.822746198492565"><ele>185.0</ele><time>2026-05-03T07:25:24Z</time></trkpt><trkpt lat="39.85162082584525" lon="8.823041748817422"><ele>185.0</ele><time>2026-05-03T07:25:25Z</time></trkpt><trkpt lat="39.851611178949625" lon="8.823342906332408"><ele>182.66666666666666</ele><time>2026-05-03T07:25:26Z</time></trkpt><trkpt lat="39.851634062793956" lon="8.823596119071285"><ele>180.33333333333334</ele><time>2026-05-03T07:25:27Z</time></trkpt><trkpt lat="39.851695262780446" lon="8.82380712263058"><ele>178.0</ele><time>2026-05-03T07:25:28Z</time></trkpt><trkpt lat="39.851803182529096" lon="8.823984716770523"><ele>179.0</ele><time>2026-05-03T07:25:29Z</time></trkpt><trkpt lat="39.851954283124975" lon="8.824120207343874"><ele>180.0</ele><time>2026-05-03T07:25:30Z</time></trkpt><trkpt lat="39.85214455295624" lon="8.824218897733225"><ele>181.0</ele><time>2026-05-03T07:25:31Z</time></trkpt><trkpt lat="39.85233014970523" lon="8.824343168405202"><ele>181.0</ele><time>2026-05-03T07:25:32Z</time></trkpt><trkpt lat="39.85250242483503" lon="8.824484979507353"><ele>181.0</ele><time>2026-05-03T07:25:33Z</time></trkpt><trkpt lat="39.85265045997868" lon="8.824642986551728"><ele>181.0</ele><time>2026-05-03T07:25:34Z</time></trkpt><trkpt lat="39.852781215594554" lon="8.824823380166727"><ele>181.66666666666669</ele><time>2026-05-03T07:25:35Z</time></trkpt><trkpt lat="39.85289680442244" lon="8.825010304921006"><ele>182.33333333333334</ele><time>2026-05-03T07:25:36Z</time></trkpt><trkpt lat="39.85300218824165" lon="8.825188734310478"><ele>183.0</ele><time>2026-05-03T07:25:37Z</time></trkpt><trkpt lat="39.85311326900979" lon="8.825337194541536"><ele>183.0</ele><time>2026-05-03T07:25:38Z</time></trkpt><trkpt lat="39.85322840015567" lon="8.82548904546487"><ele>183.0</ele><time>2026-05-03T07:25:39Z</time></trkpt><trkpt lat="39.85338339224461" lon="8.825596548521013"><ele>183.0</ele><time>2026-05-03T07:25:40Z</time></trkpt><trkpt lat="39.85357033579242" lon="8.825635980213827"><ele>187.33333333333331</ele><time>2026-05-03T07:25:41Z</time></trkpt><trkpt lat="39.853773021014135" lon="8.825691167589468"><ele>191.66666666666666</ele><time>2026-05-03T07:25:42Z</time></trkpt><trkpt lat="39.853977986952856" lon="8.82575960271614"><ele>196.0</ele><time>2026-05-03T07:25:43Z</time></trkpt><trkpt lat="39.854154172218905" lon="8.825831000916452"><ele>199.66666666666666</ele><time>2026-05-03T07:25:44Z</time></trkpt><trkpt lat="39.85429223584678" lon="8.825932942160222"><ele>203.33333333333331</ele><time>2026-05-03T07:25:45Z</time></trkpt><trkpt lat="39.85439560219184" lon="8.8260608338583"><ele>207.0</ele><time>2026-05-03T07:25:45.999Z</time></trkpt><trkpt lat="39.854490035333114" lon="8.826217460949573"><ele>207.0</ele><time>2026-05-03T07:25:46.999Z</time></trkpt><trkpt lat="39.85457728195091" lon="8.826408213343823"><ele>207.0</ele><time>2026-05-03T07:25:47.999Z</time></trkpt><trkpt lat="39.85467761565442" lon="8.826636632600893"><ele>207.0</ele><time>2026-05-03T07:25:48.999Z</time></trkpt><trkpt lat="39.85477909053296" lon="8.826877240115598"><ele>206.25</ele><time>2026-05-03T07:25:49.999Z</time></trkpt><trkpt lat="39.85481014021963" lon="8.827076956792846"><ele>205.5</ele><time>2026-05-03T07:25:50.999Z</time></trkpt><trkpt lat="39.85478810655895" lon="8.827253580111188"><ele>204.75</ele><time>2026-05-03T07:25:51.999Z</time></trkpt><trkpt lat="39.854723839703986" lon="8.82742882456777"><ele>204.0</ele><time>2026-05-03T07:25:52.999Z</time></trkpt><trkpt lat="39.85463610952685" lon="8.827577963195557"><ele>207.25</ele><time>2026-05-03T07:25:53.999Z</time></trkpt><trkpt lat="39.854567636720724" lon="8.827707977823588"><ele>210.5</ele><time>2026-05-03T07:25:54.999Z</time></trkpt><trkpt lat="39.854490244776514" lon="8.827818816389986"><ele>213.75</ele><time>2026-05-03T07:25:55.999Z</time></trkpt><trkpt lat="39.854426680246576" lon="8.827963184144023"><ele>217.0</ele><time>2026-05-03T07:25:56.999Z</time></trkpt><trkpt lat="39.85437966639733" lon="8.828100195301145"><ele>217.0</ele><time>2026-05-03T07:25:57.999Z</time></trkpt><trkpt lat="39.85435612506216" lon="8.828231908409037"><ele>217.0</ele><time>2026-05-03T07:25:58.999Z</time></trkpt><trkpt lat="39.85436645302107" lon="8.828335501936978"><ele>217.0</ele><time>2026-05-03T07:25:59.999Z</time></trkpt><trkpt lat="39.85438328081799" lon="8.828482620210767"><ele>217.0</ele><time>2026-05-03T07:26:01.999Z</time></trkpt><trkpt lat="39.85438647843194" lon="8.828345647756112"><ele>217.0</ele><time>2026-05-03T07:26:09.999Z</time></trkpt><trkpt lat="39.85442409823429" lon="8.828168248917153"><ele>217.0</ele><time>2026-05-03T07:26:10.999Z</time></trkpt><trkpt lat="39.85444793537833" lon="8.827984621485466"><ele>217.0</ele><time>2026-05-03T07:26:11.999Z</time></trkpt><trkpt lat="39.85453571339169" lon="8.827800613639264"><ele>217.0</ele><time>2026-05-03T07:26:12.999Z</time></trkpt><trkpt lat="39.85467136599601" lon="8.827621985355314"><ele>212.66666666666666</ele><time>2026-05-03T07:26:13.999Z</time></trkpt><trkpt lat="39.85479007450794" lon="8.827432318937877"><ele>208.33333333333331</ele><time>2026-05-03T07:26:14.999Z</time></trkpt><trkpt lat="39.85485991577555" lon="8.827248195253164"><ele>204.0</ele><time>2026-05-03T07:26:15.999Z</time></trkpt><trkpt lat="39.854880013899866" lon="8.827039716255687"><ele>204.0</ele><time>2026-05-03T07:26:16.999Z</time></trkpt><trkpt lat="39.85484304493969" lon="8.826815753489381"><ele>204.0</ele><time>2026-05-03T07:26:17.999Z</time></trkpt><trkpt lat="39.85475465210785" lon="8.826618228616194"><ele>204.0</ele><time>2026-05-03T07:26:18.999Z</time></trkpt><trkpt lat="39.854657185444346" lon="8.826459891232659"><ele>204.75</ele><time>2026-05-03T07:26:19.999Z</time></trkpt><trkpt lat="39.85457320909038" lon="8.826316633399879"><ele>205.5</ele><time>2026-05-03T07:26:20.999Z</time></trkpt><trkpt lat="39.85450395524515" lon="8.826167961427029"><ele>206.25</ele><time>2026-05-03T07:26:21.999Z</time></trkpt><trkpt lat="39.85444390342694" lon="8.826040282961008"><ele>207.0</ele><time>2026-05-03T07:26:22.999Z</time></trkpt><trkpt lat="39.854385165715655" lon="8.825956464393888"><ele>207.0</ele><time>2026-05-03T07:26:23.999Z</time></trkpt><trkpt lat="39.85433658225185" lon="8.825901618874536"><ele>207.0</ele><time>2026-05-03T07:26:24.999Z</time></trkpt><trkpt lat="39.85426814027926" lon="8.825886266770535"><ele>207.0</ele><time>2026-05-03T07:26:26.999Z</time></trkpt><trkpt lat="39.85426904317737" lon="8.826053780968234"><ele>207.0</ele><time>2026-05-03T07:26:28.999Z</time></trkpt><trkpt lat="39.854307969188945" lon="8.826162703853745"><ele>207.0</ele><time>2026-05-03T07:26:29.999Z</time></trkpt><trkpt lat="39.85436687361992" lon="8.826302445309317"><ele>207.0</ele><time>2026-05-03T07:26:30.999Z</time></trkpt><trkpt lat="39.854425154269734" lon="8.826475759003063"><ele>207.0</ele><time>2026-05-03T07:26:31.999Z</time></trkpt><trkpt lat="39.85445507185041" lon="8.826651433259894"><ele>207.0</ele><time>2026-05-03T07:26:32.999Z</time></trkpt><trkpt lat="39.85446976666511" lon="8.826793912815805"><ele>207.0</ele><time>2026-05-03T07:26:33.999Z</time></trkpt><trkpt lat="39.85444403857904" lon="8.826897093673157"><ele>206.39999999999998</ele><time>2026-05-03T07:26:34.999Z</time></trkpt><trkpt lat="39.85438917772866" lon="8.827022557219845"><ele>205.79999999999998</ele><time>2026-05-03T07:26:36.999Z</time></trkpt><trkpt lat="39.85431670968459" lon="8.827070061052778"><ele>205.2</ele><time>2026-05-03T07:26:37.999Z</time></trkpt><trkpt lat="39.85423696808498" lon="8.82715644565389"><ele>204.6</ele><time>2026-05-03T07:26:38.999Z</time></trkpt><trkpt lat="39.85417846351627" lon="8.827262437075703"><ele>204.0</ele><time>2026-05-03T07:26:39.999Z</time></trkpt><trkpt lat="39.85414720656429" lon="8.827383749345358"><ele>200.39999999999998</ele><time>2026-05-03T07:26:40.999Z</time></trkpt><trkpt lat="39.85411111658657" lon="8.827486037956358"><ele>196.8</ele><time>2026-05-03T07:26:41.999Z</time></trkpt><trkpt lat="39.85405011459656" lon="8.827562494741546"><ele>193.2</ele><time>2026-05-03T07:26:43.999Z</time></trkpt><trkpt lat="39.853979806527846" lon="8.827462601172131"><ele>189.60000000000002</ele><time>2026-05-03T07:26:45.999Z</time></trkpt><trkpt lat="39.85398656603912" lon="8.827354887257012"><ele>186.0</ele><time>2026-05-03T07:26:46.998Z</time></trkpt><trkpt lat="39.854025597678316" lon="8.827239903569003"><ele>186.0</ele><time>2026-05-03T07:26:47.998Z</time></trkpt><trkpt lat="39.854076688895844" lon="8.82711058513059"><ele>186.0</ele><time>2026-05-03T07:26:48.998Z</time></trkpt><trkpt lat="39.85409445873444" lon="8.826974214146643"><ele>186.0</ele><time>2026-05-03T07:26:49.998Z</time></trkpt><trkpt lat="39.854085578003776" lon="8.826843791507219"><ele>186.0</ele><time>2026-05-03T07:26:50.998Z</time></trkpt><trkpt lat="39.854048963539874" lon="8.82670239922078"><ele>186.0</ele><time>2026-05-03T07:26:51.998Z</time></trkpt><trkpt lat="39.85398953292558" lon="8.826549446571677"><ele>185.5</ele><time>2026-05-03T07:26:52.998Z</time></trkpt><trkpt lat="39.85391050895002" lon="8.826397067127322"><ele>185.0</ele><time>2026-05-03T07:26:53.998Z</time></trkpt><trkpt lat="39.853812067601396" lon="8.826255238938751"><ele>184.5</ele><time>2026-05-03T07:26:54.998Z</time></trkpt><trkpt lat="39.853695102146176" lon="8.82613819036691"><ele>184.0</ele><time>2026-05-03T07:26:55.998Z</time></trkpt><trkpt lat="39.85356611213001" lon="8.826040214494997"><ele>183.75</ele><time>2026-05-03T07:26:56.998Z</time></trkpt><trkpt lat="39.85344009366363" lon="8.825961971579842"><ele>183.5</ele><time>2026-05-03T07:26:57.998Z</time></trkpt><trkpt lat="39.8533259771109" lon="8.825889726449775"><ele>183.25</ele><time>2026-05-03T07:26:58.998Z</time></trkpt><trkpt lat="39.85319548624628" lon="8.825893242521591"><ele>183.0</ele><time>2026-05-03T07:26:59.998Z</time></trkpt><trkpt lat="39.85306187730562" lon="8.825858568929965"><ele>183.0</ele><time>2026-05-03T07:27:00.998Z</time></trkpt><trkpt lat="39.85292873470427" lon="8.825826197943579"><ele>183.0</ele><time>2026-05-03T07:27:01.998Z</time></trkpt><trkpt lat="39.852814841803934" lon="8.825774676507372"><ele>183.0</ele><time>2026-05-03T07:27:02.998Z</time></trkpt><trkpt lat="39.85271450353031" lon="8.825718020061963"><ele>183.0</ele><time>2026-05-03T07:27:03.998Z</time></trkpt><trkpt lat="39.852643396158165" lon="8.825621829358413"><ele>183.25</ele><time>2026-05-03T07:27:04.998Z</time></trkpt><trkpt lat="39.8525963255582" lon="8.825498024417167"><ele>183.5</ele><time>2026-05-03T07:27:05.998Z</time></trkpt><trkpt lat="39.85256129840044" lon="8.825335549604775"><ele>183.75</ele><time>2026-05-03T07:27:06.998Z</time></trkpt><trkpt lat="39.85253541936498" lon="8.825163540730644"><ele>184.0</ele><time>2026-05-03T07:27:07.998Z</time></trkpt><trkpt lat="39.852516472613544" lon="8.825010619709165"><ele>183.39999999999998</ele><time>2026-05-03T07:27:08.998Z</time></trkpt><trkpt lat="39.85248037970321" lon="8.824878185448439"><ele>182.8</ele><time>2026-05-03T07:27:10Z</time></trkpt><trkpt lat="39.85241852569948" lon="8.824768277576412"><ele>182.2</ele><time>2026-05-03T07:27:11Z</time></trkpt><trkpt lat="39.852328121296985" lon="8.824684794144723"><ele>181.60000000000002</ele><time>2026-05-03T07:27:12Z</time></trkpt><trkpt lat="39.85221436112139" lon="8.82462026925064"><ele>181.0</ele><time>2026-05-03T07:27:13Z</time></trkpt><trkpt lat="39.85208085723346" lon="8.824569968324024"><ele>181.0</ele><time>2026-05-03T07:27:14Z</time></trkpt><trkpt lat="39.851943781947746" lon="8.824528672486464"><ele>181.0</ele><time>2026-05-03T07:27:15Z</time></trkpt><trkpt lat="39.851811716364494" lon="8.824515994254003"><ele>181.0</ele><time>2026-05-03T07:27:16Z</time></trkpt><trkpt lat="39.85169947071762" lon="8.824487030149802"><ele>181.0</ele><time>2026-05-03T07:27:17Z</time></trkpt><trkpt lat="39.85160453477378" lon="8.824453719112382"><ele>180.25</ele><time>2026-05-03T07:27:18Z</time></trkpt><trkpt lat="39.851524213968766" lon="8.824389837560906"><ele>179.5</ele><time>2026-05-03T07:27:19Z</time></trkpt><trkpt lat="39.851457874415736" lon="8.824278849494865"><ele>178.75</ele><time>2026-05-03T07:27:20Z</time></trkpt><trkpt lat="39.85138416116527" lon="8.824130920896394"><ele>178.0</ele><time>2026-05-03T07:27:21Z</time></trkpt><trkpt lat="39.851311207084606" lon="8.823950338668634"><ele>178.0</ele><time>2026-05-03T07:27:22Z</time></trkpt><trkpt lat="39.851258294809874" lon="8.82376078761016"><ele>178.0</ele><time>2026-05-03T07:27:23Z</time></trkpt><trkpt lat="39.85123967677896" lon="8.823590265716122"><ele>178.0</ele><time>2026-05-03T07:27:24Z</time></trkpt><trkpt lat="39.851243049906806" lon="8.823429190079862"><ele>178.0</ele><time>2026-05-03T07:27:25Z</time></trkpt><trkpt lat="39.85125063550557" lon="8.823252872770096"><ele>179.4</ele><time>2026-05-03T07:27:26Z</time></trkpt><trkpt lat="39.851282384177004" lon="8.82308312255526"><ele>180.8</ele><time>2026-05-03T07:27:27Z</time></trkpt><trkpt lat="39.8512809507291" lon="8.822941963782975"><ele>182.2</ele><time>2026-05-03T07:27:28Z</time></trkpt><trkpt lat="39.85125135896288" lon="8.822815829147297"><ele>183.6</ele><time>2026-05-03T07:27:29Z</time></trkpt><trkpt lat="39.85119839619395" lon="8.822718113198254"><ele>185.0</ele><time>2026-05-03T07:27:30Z</time></trkpt><trkpt lat="39.85115714400734" lon="8.822601873698195"><ele>185.75</ele><time>2026-05-03T07:27:31Z</time></trkpt><trkpt lat="39.85108000082128" lon="8.822472807387136"><ele>186.5</ele><time>2026-05-03T07:27:32Z</time></trkpt><trkpt lat="39.851008380084" lon="8.82235049703473"><ele>187.25</ele><time>2026-05-03T07:27:33Z</time></trkpt><trkpt lat="39.850945790701694" lon="8.822218854637287"><ele>188.0</ele><time>2026-05-03T07:27:34Z</time></trkpt><trkpt lat="39.8509249517782" lon="8.822060691082648"><ele>184.66666666666666</ele><time>2026-05-03T07:27:35Z</time></trkpt><trkpt lat="39.85092099753548" lon="8.821903396159493"><ele>181.33333333333331</ele><time>2026-05-03T07:27:36Z</time></trkpt><trkpt lat="39.85092895141495" lon="8.821772980761073"><ele>178.0</ele><time>2026-05-03T07:27:37Z</time></trkpt><trkpt lat="39.85093092094043" lon="8.821674077202502"><ele>174.66666666666666</ele><time>2026-05-03T07:27:38Z</time></trkpt><trkpt lat="39.850917059919034" lon="8.821592581408849"><ele>171.33333333333334</ele><time>2026-05-03T07:27:39Z</time></trkpt><trkpt lat="39.85088195494123" lon="8.821519779835135"><ele>168.0</ele><time>2026-05-03T07:27:40Z</time></trkpt><trkpt lat="39.85082865079714" lon="8.821458515376825"><ele>167.2</ele><time>2026-05-03T07:27:41Z</time></trkpt><trkpt lat="39.85075627792961" lon="8.82140193856066"><ele>166.4</ele><time>2026-05-03T07:27:42Z</time></trkpt><trkpt lat="39.8506638205712" lon="8.821353408248056"><ele>165.6</ele><time>2026-05-03T07:27:43Z</time></trkpt><trkpt lat="39.8505848194161" lon="8.821301266044673"><ele>164.79999999999998</ele><time>2026-05-03T07:27:45Z</time></trkpt><trkpt lat="39.85058518708116" lon="8.82139941683688"><ele>164.0</ele><time>2026-05-03T07:27:47Z</time></trkpt><trkpt lat="39.85067314677308" lon="8.821507136123062"><ele>164.0</ele><time>2026-05-03T07:27:48.999Z</time></trkpt><trkpt lat="39.85064748836919" lon="8.821616007047961"><ele>164.0</ele><time>2026-05-03T07:27:50.999Z</time></trkpt><trkpt lat="39.850587498337354" lon="8.821705902849063"><ele>164.0</ele><time>2026-05-03T07:27:51.999Z</time></trkpt><trkpt lat="39.85053995687771" lon="8.821816347131218"><ele>164.0</ele><time>2026-05-03T07:27:52.999Z</time></trkpt><trkpt lat="39.85052319502635" lon="8.821927883298315"><ele>164.0</ele><time>2026-05-03T07:27:53.999Z</time></trkpt><trkpt lat="39.85051786248485" lon="8.822025948241759"><ele>164.0</ele><time>2026-05-03T07:27:54.999Z</time></trkpt><trkpt lat="39.85050100975954" lon="8.822135200059847"><ele>164.66666666666666</ele><time>2026-05-03T07:27:55.999Z</time></trkpt><trkpt lat="39.85048917381157" lon="8.822260365915474"><ele>165.33333333333331</ele><time>2026-05-03T07:27:56.999Z</time></trkpt><trkpt lat="39.85050001809711" lon="8.822365232474422"><ele>166.0</ele><time>2026-05-03T07:27:57.999Z</time></trkpt><trkpt lat="39.8505199634875" lon="8.822463060692463"><ele>166.66666666666666</ele><time>2026-05-03T07:27:58.999Z</time></trkpt><trkpt lat="39.85052866786728" lon="8.822561994530503"><ele>167.33333333333334</ele><time>2026-05-03T07:27:59.999Z</time></trkpt><trkpt lat="39.85051676364838" lon="8.822659271735684"><ele>168.0</ele><time>2026-05-03T07:28:00.999Z</time></trkpt><trkpt lat="39.850502582296336" lon="8.822771239104675"><ele>168.83333333333334</ele><time>2026-05-03T07:28:01.999Z</time></trkpt><trkpt lat="39.850479511208924" lon="8.822857196255514"><ele>169.66666666666666</ele><time>2026-05-03T07:28:02.999Z</time></trkpt><trkpt lat="39.85039610343903" lon="8.822978719442418"><ele>170.5</ele><time>2026-05-03T07:28:04.999Z</time></trkpt><trkpt lat="39.850344210544364" lon="8.823050126305489"><ele>171.33333333333331</ele><time>2026-05-03T07:28:05.999Z</time></trkpt><trkpt lat="39.850289196890955" lon="8.82313492130784"><ele>172.16666666666666</ele><time>2026-05-03T07:28:06.999Z</time></trkpt><trkpt lat="39.8502295450782" lon="8.823226409484281"><ele>173.0</ele><time>2026-05-03T07:28:07.999Z</time></trkpt><trkpt lat="39.85016718006296" lon="8.82331038064481"><ele>176.4</ele><time>2026-05-03T07:28:08.999Z</time></trkpt><trkpt lat="39.85011012170501" lon="8.823393729402072"><ele>179.8</ele><time>2026-05-03T07:28:09.999Z</time></trkpt><trkpt lat="39.85006019371695" lon="8.82348285231417"><ele>183.2</ele><time>2026-05-03T07:28:10.999Z</time></trkpt><trkpt lat="39.85001443286932" lon="8.823591769960041"><ele>186.6</ele><time>2026-05-03T07:28:11.999Z</time></trkpt><trkpt lat="39.84996904394968" lon="8.82370586248352"><ele>190.0</ele><time>2026-05-03T07:28:12.999Z</time></trkpt><trkpt lat="39.849912759485996" lon="8.823816408718198"><ele>192.5</ele><time>2026-05-03T07:28:13.999Z</time></trkpt><trkpt lat="39.8498522993549" lon="8.823921243962113"><ele>195.0</ele><time>2026-05-03T07:28:14.999Z</time></trkpt><trkpt lat="39.84980211498758" lon="8.824022642633075"><ele>197.5</ele><time>2026-05-03T07:28:15.999Z</time></trkpt><trkpt lat="39.84976700635731" lon="8.824120800988291"><ele>200.0</ele><time>2026-05-03T07:28:16.999Z</time></trkpt><trkpt lat="39.849746167789085" lon="8.824224401329612"><ele>202.49999999999997</ele><time>2026-05-03T07:28:17.999Z</time></trkpt><trkpt lat="39.84974943512483" lon="8.824317501830182"><ele>205.0</ele><time>2026-05-03T07:28:18.999Z</time></trkpt><trkpt lat="39.849763614990515" lon="8.824472410614257"><ele>206.66666666666666</ele><time>2026-05-03T07:28:20.999Z</time></trkpt><trkpt lat="39.849771653246286" lon="8.82457067811801"><ele>208.33333333333331</ele><time>2026-05-03T07:28:21.999Z</time></trkpt><trkpt lat="39.849793322229274" lon="8.824660841072982"><ele>210.0</ele><time>2026-05-03T07:28:22.999Z</time></trkpt><trkpt lat="39.849824410888516" lon="8.824752209424332"><ele>211.66666666666669</ele><time>2026-05-03T07:28:23.999Z</time></trkpt><trkpt lat="39.84984368176054" lon="8.824842582241816"><ele>213.33333333333334</ele><time>2026-05-03T07:28:24.999Z</time></trkpt><trkpt lat="39.84985297701965" lon="8.824942505168098"><ele>215.0</ele><time>2026-05-03T07:28:25.999Z</time></trkpt><trkpt lat="39.84986347482064" lon="8.825063038049617"><ele>218.5</ele><time>2026-05-03T07:28:26.999Z</time></trkpt><trkpt lat="39.84988282397499" lon="8.825203983693635"><ele>222.0</ele><time>2026-05-03T07:28:27.999Z</time></trkpt><trkpt lat="39.849900332661896" lon="8.825340606895999"><ele>225.5</ele><time>2026-05-03T07:28:28.999Z</time></trkpt><trkpt lat="39.849919105803295" lon="8.825492082270369"><ele>229.0</ele><time>2026-05-03T07:28:29.999Z</time></trkpt><trkpt lat="39.84994940076177" lon="8.82564662918181"><ele>229.0</ele><time>2026-05-03T07:28:30.999Z</time></trkpt><trkpt lat="39.84998270362076" lon="8.825802558728336"><ele>228.99999999999997</ele><time>2026-05-03T07:28:31.999Z</time></trkpt><trkpt lat="39.85002131261364" lon="8.825945947104875"><ele>228.99999999999997</ele><time>2026-05-03T07:28:32.999Z</time></trkpt><trkpt lat="39.850058402610486" lon="8.82608011462129"><ele>229.0</ele><time>2026-05-03T07:28:33.999Z</time></trkpt><trkpt lat="39.850089883558084" lon="8.826173304614638"><ele>229.0</ele><time>2026-05-03T07:28:34.999Z</time></trkpt><trkpt lat="39.850128970196174" lon="8.826264972073954"><ele>232.0</ele><time>2026-05-03T07:28:35.999Z</time></trkpt><trkpt lat="39.85017557526281" lon="8.826355319316338"><ele>235.0</ele><time>2026-05-03T07:28:36.999Z</time></trkpt><trkpt lat="39.85021319245184" lon="8.826442972470714"><ele>238.0</ele><time>2026-05-03T07:28:37.999Z</time></trkpt><trkpt lat="39.850243561087474" lon="8.826520162866885"><ele>241.0</ele><time>2026-05-03T07:28:38.999Z</time></trkpt><trkpt lat="39.850279984985306" lon="8.826600492252652"><ele>244.0</ele><time>2026-05-03T07:28:39.999Z</time></trkpt><trkpt lat="39.85032230894977" lon="8.826663929467278"><ele>247.0</ele><time>2026-05-03T07:28:40.999Z</time></trkpt><trkpt lat="39.850372040310134" lon="8.826729641586885"><ele>250.0</ele><time>2026-05-03T07:28:41.999Z</time></trkpt><trkpt lat="39.85041602352255" lon="8.826788474204186"><ele>254.2</ele><time>2026-05-03T07:28:42.999Z</time></trkpt><trkpt lat="39.85051884334103" lon="8.826901116374923"><ele>258.4</ele><time>2026-05-03T07:28:44.999Z</time></trkpt><trkpt lat="39.85057621722912" lon="8.826948778580753"><ele>262.6</ele><time>2026-05-03T07:28:45.999Z</time></trkpt><trkpt lat="39.85063814509995" lon="8.826994367002653"><ele>266.8</ele><time>2026-05-03T07:28:46.999Z</time></trkpt><trkpt lat="39.85069605503217" lon="8.827048470875456"><ele>271.0</ele><time>2026-05-03T07:28:47.998Z</time></trkpt><trkpt lat="39.850778736883356" lon="8.827191168683575"><ele>271.0</ele><time>2026-05-03T07:28:49.998Z</time></trkpt><trkpt lat="39.85082809231203" lon="8.827293157759781"><ele>271.0</ele><time>2026-05-03T07:28:50.998Z</time></trkpt><trkpt lat="39.850872589549624" lon="8.827412371141872"><ele>271.0</ele><time>2026-05-03T07:28:51.998Z</time></trkpt><trkpt lat="39.85093588851536" lon="8.82753257472481"><ele>271.0</ele><time>2026-05-03T07:28:52.998Z</time></trkpt><trkpt lat="39.85100908465753" lon="8.82767085509054"><ele>271.0</ele><time>2026-05-03T07:28:53.998Z</time></trkpt><trkpt lat="39.85108301068803" lon="8.827810574776713"><ele>272.2</ele><time>2026-05-03T07:28:54.998Z</time></trkpt><trkpt lat="39.85113132601939" lon="8.827906993919234"><ele>273.40000000000003</ele><time>2026-05-03T07:28:55.998Z</time></trkpt><trkpt lat="39.85117522885954" lon="8.827995740464356"><ele>274.6</ele><time>2026-05-03T07:28:56.998Z</time></trkpt><trkpt lat="39.85123751256431" lon="8.828108506872896"><ele>275.8</ele><time>2026-05-03T07:28:57.998Z</time></trkpt><trkpt lat="39.85129135670598" lon="8.828210616397728"><ele>277.0</ele><time>2026-05-03T07:28:58.998Z</time></trkpt><trkpt lat="39.851334758605816" lon="8.828311215146025"><ele>277.0</ele><time>2026-05-03T07:28:59.998Z</time></trkpt><trkpt lat="39.851374515137756" lon="8.828399434751363"><ele>277.0</ele><time>2026-05-03T07:29:00.998Z</time></trkpt><trkpt lat="39.851394117950846" lon="8.828556644213188"><ele>277.0</ele><time>2026-05-03T07:29:02.998Z</time></trkpt><trkpt lat="39.85138223951537" lon="8.828645097801175"><ele>277.0</ele><time>2026-05-03T07:29:03.998Z</time></trkpt><trkpt lat="39.851347593454655" lon="8.828763777598333"><ele>277.0</ele><time>2026-05-03T07:29:04.998Z</time></trkpt><trkpt lat="39.85130319860038" lon="8.828900549152635"><ele>277.0</ele><time>2026-05-03T07:29:05.998Z</time></trkpt><trkpt lat="39.85125725808699" lon="8.829040004503337"><ele>277.0</ele><time>2026-05-03T07:29:06.998Z</time></trkpt><trkpt lat="39.851227632845536" lon="8.829202424090077"><ele>277.0</ele><time>2026-05-03T07:29:07.998Z</time></trkpt><trkpt lat="39.85119811853038" lon="8.829382619515835"><ele>277.0</ele><time>2026-05-03T07:29:08.998Z</time></trkpt><trkpt lat="39.85116852005212" lon="8.829559233773065"><ele>278.0</ele><time>2026-05-03T07:29:09.998Z</time></trkpt><trkpt lat="39.85117006095704" lon="8.829730703280994"><ele>279.0</ele><time>2026-05-03T07:29:10.998Z</time></trkpt><trkpt lat="39.85120163312655" lon="8.829914571973323"><ele>280.0</ele><time>2026-05-03T07:29:11.998Z</time></trkpt><trkpt lat="39.85123707711858" lon="8.830092738395544"><ele>281.0</ele><time>2026-05-03T07:29:12.998Z</time></trkpt><trkpt lat="39.85126514935842" lon="8.830251123526116"><ele>285.0</ele><time>2026-05-03T07:29:13.998Z</time></trkpt><trkpt lat="39.85130214756969" lon="8.830401766045476"><ele>289.0</ele><time>2026-05-03T07:29:15Z</time></trkpt><trkpt lat="39.85134852655271" lon="8.830565659919996"><ele>293.0</ele><time>2026-05-03T07:29:16Z</time></trkpt><trkpt lat="39.851386880756316" lon="8.83073489556638"><ele>297.0</ele><time>2026-05-03T07:29:17Z</time></trkpt><trkpt lat="39.85141970831902" lon="8.830893580287754"><ele>298.25</ele><time>2026-05-03T07:29:18Z</time></trkpt><trkpt lat="39.85146915790886" lon="8.831066732322267"><ele>299.5</ele><time>2026-05-03T07:29:19Z</time></trkpt><trkpt lat="39.85151436508061" lon="8.83123904339842"><ele>300.75</ele><time>2026-05-03T07:29:20Z</time></trkpt><trkpt lat="39.85156652528402" lon="8.831374980224258"><ele>302.0</ele><time>2026-05-03T07:29:21Z</time></trkpt><trkpt lat="39.85163480184551" lon="8.831475800427267"><ele>302.0</ele><time>2026-05-03T07:29:22Z</time></trkpt><trkpt lat="39.85169099024894" lon="8.831571951746323"><ele>302.0</ele><time>2026-05-03T07:29:23Z</time></trkpt><trkpt lat="39.851737070193174" lon="8.831658876112781"><ele>302.0</ele><time>2026-05-03T07:29:24Z</time></trkpt><trkpt lat="39.85177607805464" lon="8.83173805427692"><ele>302.0</ele><time>2026-05-03T07:29:25Z</time></trkpt><trkpt lat="39.85178963897166" lon="8.831859594925804"><ele>302.0</ele><time>2026-05-03T07:29:27Z</time></trkpt><trkpt lat="39.85173465647461" lon="8.831949267752067"><ele>302.0</ele><time>2026-05-03T07:29:29Z</time></trkpt><trkpt lat="39.85163521114677" lon="8.831933797128405"><ele>302.0</ele><time>2026-05-03T07:29:31Z</time></trkpt><trkpt lat="39.851566830787306" lon="8.831854973267154"><ele>302.0</ele><time>2026-05-03T07:29:32Z</time></trkpt><trkpt lat="39.851475541974715" lon="8.831771414912588"><ele>302.0</ele><time>2026-05-03T07:29:33Z</time></trkpt><trkpt lat="39.851372825654124" lon="8.831709672012048"><ele>302.0</ele><time>2026-05-03T07:29:34Z</time></trkpt><trkpt lat="39.851254190681736" lon="8.831653178557605"><ele>302.0</ele><time>2026-05-03T07:29:35Z</time></trkpt><trkpt lat="39.85113149026885" lon="8.831600703619754"><ele>302.0</ele><time>2026-05-03T07:29:36Z</time></trkpt><trkpt lat="39.85101061097482" lon="8.831549914902084"><ele>302.0</ele><time>2026-05-03T07:29:37Z</time></trkpt><trkpt lat="39.85090080819445" lon="8.831491397062807"><ele>302.0</ele><time>2026-05-03T07:29:38Z</time></trkpt><trkpt lat="39.85080221036047" lon="8.831435280233945"><ele>302.0</ele><time>2026-05-03T07:29:39Z</time></trkpt><trkpt lat="39.8507037581388" lon="8.831400083204148"><ele>300.75</ele><time>2026-05-03T07:29:40Z</time></trkpt><trkpt lat="39.85059888500369" lon="8.831378248869271"><ele>299.5</ele><time>2026-05-03T07:29:41Z</time></trkpt><trkpt lat="39.85048556676738" lon="8.831341336698685"><ele>298.25</ele><time>2026-05-03T07:29:42Z</time></trkpt><trkpt lat="39.85037193239178" lon="8.831293155765668"><ele>297.0</ele><time>2026-05-03T07:29:43Z</time></trkpt><trkpt lat="39.85025231661629" lon="8.831236725897273"><ele>297.0</ele><time>2026-05-03T07:29:44Z</time></trkpt><trkpt lat="39.85014619374257" lon="8.831181259013658"><ele>297.0</ele><time>2026-05-03T07:29:45Z</time></trkpt><trkpt lat="39.85004982212203" lon="8.83112243938134"><ele>297.0</ele><time>2026-05-03T07:29:46Z</time></trkpt><trkpt lat="39.84996009052727" lon="8.831068682071626"><ele>297.0</ele><time>2026-05-03T07:29:47Z</time></trkpt><trkpt lat="39.849867429989445" lon="8.831001721182155"><ele>297.0</ele><time>2026-05-03T07:29:48Z</time></trkpt><trkpt lat="39.84978779429384" lon="8.830930207193827"><ele>296.8</ele><time>2026-05-03T07:29:49Z</time></trkpt><trkpt lat="39.84972347040761" lon="8.8308508559952"><ele>296.6</ele><time>2026-05-03T07:29:50Z</time></trkpt><trkpt lat="39.84967754202724" lon="8.83076387584292"><ele>296.40000000000003</ele><time>2026-05-03T07:29:50.999Z</time></trkpt><trkpt lat="39.84963088898175" lon="8.830670782080334"><ele>296.2</ele><time>2026-05-03T07:29:51.999Z</time></trkpt><trkpt lat="39.84958135344728" lon="8.830545410593619"><ele>296.0</ele><time>2026-05-03T07:29:52.999Z</time></trkpt><trkpt lat="39.84951827904677" lon="8.830411434579053"><ele>296.0</ele><time>2026-05-03T07:29:53.999Z</time></trkpt><trkpt lat="39.8494471139191" lon="8.830308847149206"><ele>296.0</ele><time>2026-05-03T07:29:54.999Z</time></trkpt><trkpt lat="39.84936824401704" lon="8.83024330351352"><ele>296.0</ele><time>2026-05-03T07:29:55.999Z</time></trkpt><trkpt lat="39.84929720669995" lon="8.830218770511692"><ele>296.0</ele><time>2026-05-03T07:29:56.999Z</time></trkpt><trkpt lat="39.84923617222942" lon="8.830239215706289"><ele>296.0</ele><time>2026-05-03T07:29:57.999Z</time></trkpt><trkpt lat="39.84916291362479" lon="8.83030071958596"><ele>296.0</ele><time>2026-05-03T07:29:58.999Z</time></trkpt><trkpt lat="39.84909273964144" lon="8.830389198026756"><ele>294.5</ele><time>2026-05-03T07:29:59.999Z</time></trkpt><trkpt lat="39.84904065128959" lon="8.830477013919047"><ele>293.0</ele><time>2026-05-03T07:30:00.999Z</time></trkpt><trkpt lat="39.84900642628298" lon="8.830570772619929"><ele>291.5</ele><time>2026-05-03T07:30:01.999Z</time></trkpt><trkpt lat="39.848984674938094" lon="8.830676865349655"><ele>290.0</ele><time>2026-05-03T07:30:02.999Z</time></trkpt><trkpt lat="39.8489453595233" lon="8.830769811206952"><ele>288.5</ele><time>2026-05-03T07:30:03.999Z</time></trkpt><trkpt lat="39.84888808797342" lon="8.830874287433872"><ele>287.0</ele><time>2026-05-03T07:30:04.999Z</time></trkpt><trkpt lat="39.84884240364588" lon="8.83100012562691"><ele>285.8</ele><time>2026-05-03T07:30:05.999Z</time></trkpt><trkpt lat="39.84880676454455" lon="8.83112772768969"><ele>284.6</ele><time>2026-05-03T07:30:06.999Z</time></trkpt><trkpt lat="39.84876433968897" lon="8.831245399073754"><ele>283.40000000000003</ele><time>2026-05-03T07:30:07.999Z</time></trkpt><trkpt lat="39.848726596584434" lon="8.831364909612276"><ele>282.2</ele><time>2026-05-03T07:30:08.999Z</time></trkpt><trkpt lat="39.84869219106896" lon="8.831487521239579"><ele>281.0</ele><time>2026-05-03T07:30:09.999Z</time></trkpt><trkpt lat="39.848643081485534" lon="8.831614884657041"><ele>281.0</ele><time>2026-05-03T07:30:10.999Z</time></trkpt><trkpt lat="39.84857375170529" lon="8.831751815624699"><ele>281.0</ele><time>2026-05-03T07:30:11.999Z</time></trkpt><trkpt lat="39.84850009558014" lon="8.831874414670196"><ele>281.0</ele><time>2026-05-03T07:30:12.999Z</time></trkpt><trkpt lat="39.84843573757819" lon="8.831979347565243"><ele>281.0</ele><time>2026-05-03T07:30:13.999Z</time></trkpt><trkpt lat="39.84836773629071" lon="8.832061534019509"><ele>281.0</ele><time>2026-05-03T07:30:14.999Z</time></trkpt><trkpt lat="39.84826490164076" lon="8.832125349450031"><ele>276.75</ele><time>2026-05-03T07:30:15.999Z</time></trkpt><trkpt lat="39.84815153487438" lon="8.832178494257853"><ele>272.5</ele><time>2026-05-03T07:30:16.999Z</time></trkpt><trkpt lat="39.848018820157435" lon="8.832211907889821"><ele>268.25</ele><time>2026-05-03T07:30:17.999Z</time></trkpt><trkpt lat="39.84787840901816" lon="8.832225047694168"><ele>264.0</ele><time>2026-05-03T07:30:18.999Z</time></trkpt><trkpt lat="39.84774547903241" lon="8.832241047990504"><ele>265.5</ele><time>2026-05-03T07:30:19.999Z</time></trkpt><trkpt lat="39.847625585562454" lon="8.832300522324397"><ele>267.0</ele><time>2026-05-03T07:30:20.999Z</time></trkpt><trkpt lat="39.84751775219635" lon="8.832396191428655"><ele>268.5</ele><time>2026-05-03T07:30:21.999Z</time></trkpt><trkpt lat="39.84741002972474" lon="8.832480717149576"><ele>270.0</ele><time>2026-05-03T07:30:22.999Z</time></trkpt><trkpt lat="39.84730174076046" lon="8.832533888048747"><ele>270.0</ele><time>2026-05-03T07:30:23.999Z</time></trkpt><trkpt lat="39.8471953314863" lon="8.832574564625636"><ele>270.0</ele><time>2026-05-03T07:30:24.999Z</time></trkpt><trkpt lat="39.84711065083124" lon="8.832643075421927"><ele>270.0</ele><time>2026-05-03T07:30:25.999Z</time></trkpt><trkpt lat="39.847041096254436" lon="8.832763080276374"><ele>270.0</ele><time>2026-05-03T07:30:26.999Z</time></trkpt><trkpt lat="39.84696920093963" lon="8.832908588207463"><ele>269.0</ele><time>2026-05-03T07:30:27.999Z</time></trkpt><trkpt lat="39.846915023760545" lon="8.833060000984961"><ele>268.0</ele><time>2026-05-03T07:30:28.999Z</time></trkpt><trkpt lat="39.846861290997644" lon="8.833159453469564"><ele>267.0</ele><time>2026-05-03T07:30:29.999Z</time></trkpt><trkpt lat="39.84679528163482" lon="8.833243372609168"><ele>266.0</ele><time>2026-05-03T07:30:30.999Z</time></trkpt><trkpt lat="39.84670162013337" lon="8.833311275667798"><ele>265.0</ele><time>2026-05-03T07:30:31.999Z</time></trkpt><trkpt lat="39.84660822419613" lon="8.833375596659687"><ele>265.0</ele><time>2026-05-03T07:30:32.999Z</time></trkpt><trkpt lat="39.84652345007824" lon="8.833421376548444"><ele>265.0</ele><time>2026-05-03T07:30:33.999Z</time></trkpt><trkpt lat="39.84642308392265" lon="8.833433116950099"><ele>265.0</ele><time>2026-05-03T07:30:34.999Z</time></trkpt><trkpt lat="39.846301990100166" lon="8.833421270500953"><ele>265.0</ele><time>2026-05-03T07:30:35.999Z</time></trkpt><trkpt lat="39.84618262572378" lon="8.833394121650892"><ele>265.0</ele><time>2026-05-03T07:30:36.999Z</time></trkpt><trkpt lat="39.846088330924275" lon="8.833365348285446"><ele>265.0</ele><time>2026-05-03T07:30:37.999Z</time></trkpt><trkpt lat="39.84602032825671" lon="8.833342974064585"><ele>265.0</ele><time>2026-05-03T07:30:38.999Z</time></trkpt><trkpt lat="39.845905730834424" lon="8.833310149416292"><ele>265.0</ele><time>2026-05-03T07:30:40.999Z</time></trkpt><trkpt lat="39.8458205900573" lon="8.833270442883757"><ele>265.0</ele><time>2026-05-03T07:30:42.999Z</time></trkpt><trkpt lat="39.8457392248876" lon="8.833233921786404"><ele>265.0</ele><time>2026-05-03T07:30:44.999Z</time></trkpt><trkpt lat="39.84566590392464" lon="8.833185344678393"><ele>265.0</ele><time>2026-05-03T07:30:46.999Z</time></trkpt><trkpt lat="39.84559302579163" lon="8.833152529039424"><ele>265.0</ele><time>2026-05-03T07:30:48.999Z</time></trkpt><trkpt lat="39.845531795775436" lon="8.833102395947238"><ele>265.0</ele><time>2026-05-03T07:30:50.998Z</time></trkpt><trkpt lat="39.845480167744846" lon="8.833032282577891"><ele>265.0</ele><time>2026-05-03T07:30:52.998Z</time></trkpt><trkpt lat="39.84537265696807" lon="8.832933373893415"><ele>265.0</ele><time>2026-05-03T07:30:54.998Z</time></trkpt><trkpt lat="39.84530071516683" lon="8.832902225164489"><ele>265.0</ele><time>2026-05-03T07:30:55.998Z</time></trkpt><trkpt lat="39.84522213300471" lon="8.832889706018692"><ele>265.0</ele><time>2026-05-03T07:30:56.998Z</time></trkpt><trkpt lat="39.84513086579355" lon="8.832880100690442"><ele>264.8333333333333</ele><time>2026-05-03T07:30:57.998Z</time></trkpt><trkpt lat="39.84503979873724" lon="8.832866780851985"><ele>264.66666666666663</ele><time>2026-05-03T07:30:58.998Z</time></trkpt><trkpt lat="39.84495959970998" lon="8.832851143953407"><ele>264.5</ele><time>2026-05-03T07:30:59.998Z</time></trkpt><trkpt lat="39.84488909022276" lon="8.832829265163758"><ele>264.3333333333333</ele><time>2026-05-03T07:31:00.998Z</time></trkpt><trkpt lat="39.84483074021228" lon="8.832784447975504"><ele>264.1666666666667</ele><time>2026-05-03T07:31:01.998Z</time></trkpt><trkpt lat="39.84477944379033" lon="8.83267185821216"><ele>264.0</ele><time>2026-05-03T07:31:03.998Z</time></trkpt><trkpt lat="39.84482914099257" lon="8.832563929865294"><ele>264.0</ele><time>2026-05-03T07:31:05.998Z</time></trkpt><trkpt lat="39.84496006681352" lon="8.832501326344538"><ele>264.0</ele><time>2026-05-03T07:31:07.998Z</time></trkpt><trkpt lat="39.84503808092715" lon="8.832477687292302"><ele>264.0</ele><time>2026-05-03T07:31:08.998Z</time></trkpt><trkpt lat="39.845094549044404" lon="8.83242619249918"><ele>264.0</ele><time>2026-05-03T07:31:09.998Z</time></trkpt><trkpt lat="39.84513242287592" lon="8.832359191219945"><ele>264.0</ele><time>2026-05-03T07:31:10.998Z</time></trkpt><trkpt lat="39.8451533259272" lon="8.832264524548739"><ele>264.0</ele><time>2026-05-03T07:31:11.998Z</time></trkpt><trkpt lat="39.84515611511445" lon="8.832123148450856"><ele>260.75</ele><time>2026-05-03T07:31:12.998Z</time></trkpt><trkpt lat="39.845168651211665" lon="8.831958725765945"><ele>257.5</ele><time>2026-05-03T07:31:13.998Z</time></trkpt><trkpt lat="39.845201873096116" lon="8.831774308146098"><ele>254.25</ele><time>2026-05-03T07:31:14.998Z</time></trkpt><trkpt lat="39.84522480202418" lon="8.831572684642259"><ele>251.0</ele><time>2026-05-03T07:31:15.998Z</time></trkpt><trkpt lat="39.84523636564211" lon="8.831382362385165"><ele>250.5</ele><time>2026-05-03T07:31:16.998Z</time></trkpt><trkpt lat="39.84523545019363" lon="8.831236013367072"><ele>250.0</ele><time>2026-05-03T07:31:17.998Z</time></trkpt><trkpt lat="39.845200399157534" lon="8.83108789523448"><ele>249.5</ele><time>2026-05-03T07:31:18.998Z</time></trkpt><trkpt lat="39.845153656918846" lon="8.830926090513785"><ele>249.0</ele><time>2026-05-03T07:31:19.998Z</time></trkpt><trkpt lat="39.84509203972655" lon="8.830737227113534"><ele>252.75</ele><time>2026-05-03T07:31:21Z</time></trkpt><trkpt lat="39.845015390635034" lon="8.830549470862216"><ele>256.5</ele><time>2026-05-03T07:31:22Z</time></trkpt><trkpt lat="39.84495449345342" lon="8.830392774800899"><ele>260.25</ele><time>2026-05-03T07:31:23Z</time></trkpt><trkpt lat="39.84490501906911" lon="8.830289192868289"><ele>264.0</ele><time>2026-05-03T07:31:24Z</time></trkpt><trkpt lat="39.84484829521685" lon="8.830222642397457"><ele>264.0</ele><time>2026-05-03T07:31:25Z</time></trkpt><trkpt lat="39.84477605444682" lon="8.830189324536793"><ele>264.0</ele><time>2026-05-03T07:31:26Z</time></trkpt><trkpt lat="39.84467617228034" lon="8.830173244542154"><ele>264.0</ele><time>2026-05-03T07:31:27Z</time></trkpt><trkpt lat="39.84458278345928" lon="8.83015533916444"><ele>264.0</ele><time>2026-05-03T07:31:28Z</time></trkpt><trkpt lat="39.84450790503602" lon="8.830008211630393"><ele>264.0</ele><time>2026-05-03T07:31:30Z</time></trkpt><trkpt lat="39.84448552760976" lon="8.829903792604327"><ele>264.0</ele><time>2026-05-03T07:31:31Z</time></trkpt><trkpt lat="39.84442206658621" lon="8.829839932170486"><ele>264.0</ele><time>2026-05-03T07:31:32Z</time></trkpt><trkpt lat="39.844317431709754" lon="8.829788453344227"><ele>264.0</ele><time>2026-05-03T07:31:33Z</time></trkpt><trkpt lat="39.844204922015955" lon="8.829748300245344"><ele>264.0</ele><time>2026-05-03T07:31:34Z</time></trkpt><trkpt lat="39.844106802327616" lon="8.82969579501621"><ele>264.0</ele><time>2026-05-03T07:31:35Z</time></trkpt><trkpt lat="39.844034267936614" lon="8.829625514895747"><ele>264.0</ele><time>2026-05-03T07:31:36Z</time></trkpt><trkpt lat="39.843969925612384" lon="8.82957370761496"><ele>264.0</ele><time>2026-05-03T07:31:37Z</time></trkpt><trkpt lat="39.843897041429805" lon="8.829550155018095"><ele>264.0</ele><time>2026-05-03T07:31:38Z</time></trkpt><trkpt lat="39.84381654004297" lon="8.829546515022813"><ele>264.0</ele><time>2026-05-03T07:31:39Z</time></trkpt><trkpt lat="39.84372286723871" lon="8.829551410437267"><ele>264.0</ele><time>2026-05-03T07:31:40Z</time></trkpt><trkpt lat="39.843623958120475" lon="8.829547474076296"><ele>264.0</ele><time>2026-05-03T07:31:41Z</time></trkpt><trkpt lat="39.843527768757404" lon="8.829523369153963"><ele>263.1666666666667</ele><time>2026-05-03T07:31:42Z</time></trkpt><trkpt lat="39.84345127207662" lon="8.829484856386244"><ele>262.3333333333333</ele><time>2026-05-03T07:31:43Z</time></trkpt><trkpt lat="39.84338520967783" lon="8.829443180406942"><ele>261.5</ele><time>2026-05-03T07:31:44Z</time></trkpt><trkpt lat="39.843318559591104" lon="8.829386235777042"><ele>260.66666666666663</ele><time>2026-05-03T07:31:45Z</time></trkpt><trkpt lat="39.843254160037" lon="8.829247744976492"><ele>259.8333333333333</ele><time>2026-05-03T07:31:47Z</time></trkpt><trkpt lat="39.84324768038339" lon="8.82915200151377"><ele>259.0</ele><time>2026-05-03T07:31:48Z</time></trkpt><trkpt lat="39.84327866295155" lon="8.829062060179309"><ele>259.0</ele><time>2026-05-03T07:31:49Z</time></trkpt><trkpt lat="39.84332956522136" lon="8.829008455471604"><ele>259.0</ele><time>2026-05-03T07:31:50Z</time></trkpt><trkpt lat="39.843341236186745" lon="8.8288616151939"><ele>259.0</ele><time>2026-05-03T07:31:52Z</time></trkpt><trkpt lat="39.843295318780015" lon="8.828792061883751"><ele>259.0</ele><time>2026-05-03T07:31:53Z</time></trkpt><trkpt lat="39.84323580334091" lon="8.828728292251085"><ele>259.0</ele><time>2026-05-03T07:31:54Z</time></trkpt><trkpt lat="39.843161977514676" lon="8.828654326567587"><ele>259.0</ele><time>2026-05-03T07:31:54.999Z</time></trkpt><trkpt lat="39.8430847111561" lon="8.828591535008863"><ele>259.0</ele><time>2026-05-03T07:31:55.999Z</time></trkpt><trkpt lat="39.84298863902006" lon="8.828539400305562"><ele>259.0</ele><time>2026-05-03T07:31:56.999Z</time></trkpt><trkpt lat="39.84290194287355" lon="8.828495853389985"><ele>259.0</ele><time>2026-05-03T07:31:57.999Z</time></trkpt><trkpt lat="39.84285294988389" lon="8.828440680285611"><ele>259.0</ele><time>2026-05-03T07:31:58.999Z</time></trkpt><trkpt lat="39.84283719599144" lon="8.828360918402213"><ele>259.0</ele><time>2026-05-03T07:31:59.999Z</time></trkpt><trkpt lat="39.84284551853356" lon="8.828266869719704"><ele>259.0</ele><time>2026-05-03T07:32:00.999Z</time></trkpt><trkpt lat="39.842866595513996" lon="8.828150714456752"><ele>257.4</ele><time>2026-05-03T07:32:01.999Z</time></trkpt><trkpt lat="39.84291181610191" lon="8.828027752310746"><ele>255.79999999999998</ele><time>2026-05-03T07:32:02.999Z</time></trkpt><trkpt lat="39.84298132553327" lon="8.827918878307209"><ele>254.20000000000002</ele><time>2026-05-03T07:32:03.999Z</time></trkpt><trkpt lat="39.84307299274137" lon="8.827837083412962"><ele>252.60000000000002</ele><time>2026-05-03T07:32:04.999Z</time></trkpt><trkpt lat="39.84318278684238" lon="8.827789191805483"><ele>251.0</ele><time>2026-05-03T07:32:05.999Z</time></trkpt><trkpt lat="39.84329891589246" lon="8.82777730763744"><ele>251.0</ele><time>2026-05-03T07:32:06.999Z</time></trkpt><trkpt lat="39.843408802156745" lon="8.827818048591372"><ele>251.00000000000003</ele><time>2026-05-03T07:32:07.999Z</time></trkpt><trkpt lat="39.843503281076714" lon="8.827879037514386"><ele>251.00000000000003</ele><time>2026-05-03T07:32:08.999Z</time></trkpt><trkpt lat="39.843577037403065" lon="8.827921293985725"><ele>251.0</ele><time>2026-05-03T07:32:09.999Z</time></trkpt><trkpt lat="39.84364653815991" lon="8.827918640807269"><ele>251.0</ele><time>2026-05-03T07:32:10.999Z</time></trkpt><trkpt lat="39.84371868788428" lon="8.827867997884605"><ele>249.20000000000002</ele><time>2026-05-03T07:32:11.999Z</time></trkpt><trkpt lat="39.84380523970492" lon="8.827759241840608"><ele>247.40000000000003</ele><time>2026-05-03T07:32:12.999Z</time></trkpt><trkpt lat="39.843896222206105" lon="8.827642938921421"><ele>245.6</ele><time>2026-05-03T07:32:13.999Z</time></trkpt><trkpt lat="39.84398911014227" lon="8.8276046165733"><ele>243.8</ele><time>2026-05-03T07:32:14.999Z</time></trkpt><trkpt lat="39.84408738514949" lon="8.827629668012442"><ele>242.0</ele><time>2026-05-03T07:32:15.999Z</time></trkpt><trkpt lat="39.844206052867605" lon="8.827695150693108"><ele>240.75</ele><time>2026-05-03T07:32:16.999Z</time></trkpt><trkpt lat="39.84431633074518" lon="8.827730317159471"><ele>239.5</ele><time>2026-05-03T07:32:17.999Z</time></trkpt><trkpt lat="39.844443834218964" lon="8.82770032480831"><ele>238.25</ele><time>2026-05-03T07:32:18.999Z</time></trkpt><trkpt lat="39.844589333827166" lon="8.827649907453024"><ele>237.0</ele><time>2026-05-03T07:32:19.999Z</time></trkpt><trkpt lat="39.84471668408202" lon="8.82758974364805"><ele>241.0</ele><time>2026-05-03T07:32:20.999Z</time></trkpt><trkpt lat="39.84482822401188" lon="8.82752735437245"><ele>245.0</ele><time>2026-05-03T07:32:21.999Z</time></trkpt><trkpt lat="39.844960126773145" lon="8.827505914215077"><ele>249.0</ele><time>2026-05-03T07:32:22.999Z</time></trkpt><trkpt lat="39.84510054291506" lon="8.827542492573084"><ele>253.0</ele><time>2026-05-03T07:32:23.999Z</time></trkpt><trkpt lat="39.84526464483881" lon="8.82761678797876"><ele>247.33333333333331</ele><time>2026-05-03T07:32:24.999Z</time></trkpt><trkpt lat="39.84544564531479" lon="8.827682545635332"><ele>241.66666666666669</ele><time>2026-05-03T07:32:25.999Z</time></trkpt><trkpt lat="39.84562206863098" lon="8.827715857871762"><ele>236.0</ele><time>2026-05-03T07:32:26.999Z</time></trkpt><trkpt lat="39.84574443568156" lon="8.827750665551838"><ele>236.0</ele><time>2026-05-03T07:32:27.999Z</time></trkpt><trkpt lat="39.84582776498902" lon="8.827759201838685"><ele>236.00000000000003</ele><time>2026-05-03T07:32:28.999Z</time></trkpt><trkpt lat="39.84590014727397" lon="8.827709561295762"><ele>236.00000000000003</ele><time>2026-05-03T07:32:29.999Z</time></trkpt><trkpt lat="39.84595890170292" lon="8.827602137916115"><ele>236.0</ele><time>2026-05-03T07:32:30.999Z</time></trkpt><trkpt lat="39.84598466308438" lon="8.827478266297964"><ele>236.0</ele><time>2026-05-03T07:32:31.999Z</time></trkpt><trkpt lat="39.845974117986586" lon="8.827358451546873"><ele>240.25</ele><time>2026-05-03T07:32:32.999Z</time></trkpt><trkpt lat="39.84593353633119" lon="8.827259868588724"><ele>244.5</ele><time>2026-05-03T07:32:33.999Z</time></trkpt><trkpt lat="39.84586028599194" lon="8.827165309062428"><ele>248.75</ele><time>2026-05-03T07:32:34.999Z</time></trkpt><trkpt lat="39.84576037521006" lon="8.82704922918288"><ele>253.0</ele><time>2026-05-03T07:32:35.999Z</time></trkpt><trkpt lat="39.84567479631318" lon="8.826924066191019"><ele>253.0</ele><time>2026-05-03T07:32:36.999Z</time></trkpt><trkpt lat="39.845632731498625" lon="8.826815505285865"><ele>253.0</ele><time>2026-05-03T07:32:37.999Z</time></trkpt><trkpt lat="39.845623479963955" lon="8.826690951982696"><ele>253.0</ele><time>2026-05-03T07:32:38.999Z</time></trkpt><trkpt lat="39.84564391460855" lon="8.826524150564675"><ele>253.0</ele><time>2026-05-03T07:32:39.999Z</time></trkpt><trkpt lat="39.84568274825028" lon="8.826339268662682"><ele>253.5</ele><time>2026-05-03T07:32:40.999Z</time></trkpt><trkpt lat="39.84573496693463" lon="8.826171316220345"><ele>254.0</ele><time>2026-05-03T07:32:41.999Z</time></trkpt><trkpt lat="39.84581652596808" lon="8.826029636338921"><ele>254.5</ele><time>2026-05-03T07:32:42.999Z</time></trkpt><trkpt lat="39.84590371861184" lon="8.825939448334411"><ele>255.0</ele><time>2026-05-03T07:32:43.999Z</time></trkpt><trkpt lat="39.846009182635974" lon="8.82589967983546"><ele>252.0</ele><time>2026-05-03T07:32:44.999Z</time></trkpt><trkpt lat="39.846140459551975" lon="8.82585434639524"><ele>249.0</ele><time>2026-05-03T07:32:45.999Z</time></trkpt><trkpt lat="39.84623996304282" lon="8.825791457256294"><ele>246.0</ele><time>2026-05-03T07:32:46.999Z</time></trkpt><trkpt lat="39.846291933318945" lon="8.825717266303666"><ele>243.0</ele><time>2026-05-03T07:32:47.999Z</time></trkpt><trkpt lat="39.84630562089411" lon="8.825625224973061"><ele>240.0</ele><time>2026-05-03T07:32:48.999Z</time></trkpt><trkpt lat="39.84628649471329" lon="8.825518484507535"><ele>240.0</ele><time>2026-05-03T07:32:49.999Z</time></trkpt><trkpt lat="39.84623407449899" lon="8.825427830030225"><ele>240.0</ele><time>2026-05-03T07:32:50.999Z</time></trkpt><trkpt lat="39.84613848820953" lon="8.825329604770698"><ele>240.0</ele><time>2026-05-03T07:32:51.999Z</time></trkpt><trkpt lat="39.84603573307204" lon="8.825208663259819"><ele>240.0</ele><time>2026-05-03T07:32:52.999Z</time></trkpt><trkpt lat="39.845945031755555" lon="8.825083370206446"><ele>244.0</ele><time>2026-05-03T07:32:53.999Z</time></trkpt><trkpt lat="39.84585450184305" lon="8.825010179661103"><ele>248.0</ele><time>2026-05-03T07:32:54.999Z</time></trkpt><trkpt lat="39.84575180394234" lon="8.82498097241379"><ele>252.0</ele><time>2026-05-03T07:32:55.998Z</time></trkpt><trkpt lat="39.84563047191676" lon="8.824971200689415"><ele>256.0</ele><time>2026-05-03T07:32:56.998Z</time></trkpt><trkpt lat="39.84549668963577" lon="8.824979245950217"><ele>256.0</ele><time>2026-05-03T07:32:57.998Z</time></trkpt><trkpt lat="39.84533584789809" lon="8.824986271967015"><ele>256.0</ele><time>2026-05-03T07:32:58.998Z</time></trkpt><trkpt lat="39.8451473165041" lon="8.824989743295781"><ele>256.0</ele><time>2026-05-03T07:32:59.998Z</time></trkpt><trkpt lat="39.84496753534113" lon="8.824995336867028"><ele>258.75</ele><time>2026-05-03T07:33:00.998Z</time></trkpt><trkpt lat="39.84482774453495" lon="8.82499578777636"><ele>261.5</ele><time>2026-05-03T07:33:01.998Z</time></trkpt><trkpt lat="39.84470891581441" lon="8.824987755759402"><ele>264.25</ele><time>2026-05-03T07:33:02.998Z</time></trkpt><trkpt lat="39.84457647326513" lon="8.824976100818871"><ele>267.0</ele><time>2026-05-03T07:33:03.998Z</time></trkpt><trkpt lat="39.84443141473623" lon="8.824946124318645"><ele>268.75</ele><time>2026-05-03T07:33:04.998Z</time></trkpt><trkpt lat="39.8442747274814" lon="8.824903661311781"><ele>270.5</ele><time>2026-05-03T07:33:05.998Z</time></trkpt><trkpt lat="39.844119042403165" lon="8.82487292008664"><ele>272.25</ele><time>2026-05-03T07:33:06.998Z</time></trkpt><trkpt lat="39.844003959226114" lon="8.824848977932799"><ele>274.0</ele><time>2026-05-03T07:33:07.998Z</time></trkpt><trkpt lat="39.84391729125289" lon="8.82482294984363"><ele>274.0</ele><time>2026-05-03T07:33:08.998Z</time></trkpt><trkpt lat="39.84385584166763" lon="8.824768399727681"><ele>274.0</ele><time>2026-05-03T07:33:09.998Z</time></trkpt><trkpt lat="39.84382216292302" lon="8.82468989642923"><ele>274.0</ele><time>2026-05-03T07:33:10.998Z</time></trkpt><trkpt lat="39.84382751352917" lon="8.824601308028031"><ele>274.0</ele><time>2026-05-03T07:33:11.998Z</time></trkpt><trkpt lat="39.843870320896905" lon="8.824495459318406"><ele>274.0</ele><time>2026-05-03T07:33:12.998Z</time></trkpt><trkpt lat="39.843942505229656" lon="8.824395937828804"><ele>274.0</ele><time>2026-05-03T07:33:13.998Z</time></trkpt><trkpt lat="39.84404017858421" lon="8.824292134412612"><ele>273.2</ele><time>2026-05-03T07:33:14.998Z</time></trkpt><trkpt lat="39.84413493391191" lon="8.824180356178262"><ele>272.4</ele><time>2026-05-03T07:33:15.998Z</time></trkpt><trkpt lat="39.84418560932779" lon="8.824056751106456"><ele>271.6</ele><time>2026-05-03T07:33:16.998Z</time></trkpt><trkpt lat="39.844192387754234" lon="8.823930076928537"><ele>270.8</ele><time>2026-05-03T07:33:17.998Z</time></trkpt><trkpt lat="39.844167431381734" lon="8.823785904820257"><ele>270.0</ele><time>2026-05-03T07:33:18.998Z</time></trkpt><trkpt lat="39.84413137635397" lon="8.823590719069438"><ele>270.5</ele><time>2026-05-03T07:33:19.998Z</time></trkpt><trkpt lat="39.844110457503376" lon="8.823374717370704"><ele>271.0</ele><time>2026-05-03T07:33:20.998Z</time></trkpt><trkpt lat="39.84409704264161" lon="8.823193590292487"><ele>271.5</ele><time>2026-05-03T07:33:21.998Z</time></trkpt><trkpt lat="39.84407382358857" lon="8.823032281802952"><ele>272.0</ele><time>2026-05-03T07:33:22.998Z</time></trkpt><trkpt lat="39.84403587951486" lon="8.822892010138231"><ele>272.0</ele><time>2026-05-03T07:33:23.998Z</time></trkpt><trkpt lat="39.84401815932826" lon="8.822736204548132"><ele>272.0</ele><time>2026-05-03T07:33:24.998Z</time></trkpt><trkpt lat="39.844038874631785" lon="8.822562656122733"><ele>272.0</ele><time>2026-05-03T07:33:26Z</time></trkpt><trkpt lat="39.84406450932222" lon="8.822403462382283"><ele>272.0</ele><time>2026-05-03T07:33:27Z</time></trkpt><trkpt lat="39.84405969832291" lon="8.822271958161105"><ele>271.0</ele><time>2026-05-03T07:33:28Z</time></trkpt><trkpt lat="39.84401592512271" lon="8.822161049944587"><ele>270.0</ele><time>2026-05-03T07:33:29Z</time></trkpt><trkpt lat="39.84394397802373" lon="8.822062466888378"><ele>269.0</ele><time>2026-05-03T07:33:30Z</time></trkpt><trkpt lat="39.84387485282433" lon="8.821971539583624"><ele>268.0</ele><time>2026-05-03T07:33:31Z</time></trkpt><trkpt lat="39.84385070690189" lon="8.82188164976887"><ele>267.0</ele><time>2026-05-03T07:33:32Z</time></trkpt><trkpt lat="39.843878561560466" lon="8.821771431310532"><ele>266.0</ele><time>2026-05-03T07:33:33Z</time></trkpt><trkpt lat="39.84392858685683" lon="8.821628636202306"><ele>265.0</ele><time>2026-05-03T07:33:34Z</time></trkpt><trkpt lat="39.84397446173981" lon="8.821476217297501"><ele>264.0</ele><time>2026-05-03T07:33:35Z</time></trkpt><trkpt lat="39.844001687629294" lon="8.821349803788639"><ele>263.0</ele><time>2026-05-03T07:33:36Z</time></trkpt><trkpt lat="39.84403785738231" lon="8.821263595776824"><ele>262.0</ele><time>2026-05-03T07:33:37Z</time></trkpt><trkpt lat="39.84411288593447" lon="8.821191091698935"><ele>262.0</ele><time>2026-05-03T07:33:38Z</time></trkpt><trkpt lat="39.844236779347504" lon="8.821120902325877"><ele>262.0</ele><time>2026-05-03T07:33:39Z</time></trkpt><trkpt lat="39.84436921094529" lon="8.821056497938047"><ele>262.0</ele><time>2026-05-03T07:33:40Z</time></trkpt><trkpt lat="39.844504151541386" lon="8.8209946176706"><ele>262.0</ele><time>2026-05-03T07:33:41Z</time></trkpt><trkpt lat="39.84462983985626" lon="8.820902744828643"><ele>259.8333333333333</ele><time>2026-05-03T07:33:42Z</time></trkpt><trkpt lat="39.84472388757039" lon="8.820817983046037"><ele>257.66666666666663</ele><time>2026-05-03T07:33:43Z</time></trkpt><trkpt lat="39.84477634064482" lon="8.820756539162407"><ele>255.5</ele><time>2026-05-03T07:33:44Z</time></trkpt><trkpt lat="39.84478098424599" lon="8.820654818532411"><ele>253.33333333333331</ele><time>2026-05-03T07:33:47Z</time></trkpt><trkpt lat="39.844687740414805" lon="8.820611948428704"><ele>251.16666666666666</ele><time>2026-05-03T07:33:49Z</time></trkpt><trkpt lat="39.84461663683478" lon="8.820580165763152"><ele>249.0</ele><time>2026-05-03T07:33:50Z</time></trkpt><trkpt lat="39.844534519545604" lon="8.820515451872662"><ele>249.0</ele><time>2026-05-03T07:33:51Z</time></trkpt><trkpt lat="39.84443530776649" lon="8.820473675317666"><ele>249.0</ele><time>2026-05-03T07:33:52Z</time></trkpt><trkpt lat="39.84432064019328" lon="8.820458110191737"><ele>249.0</ele><time>2026-05-03T07:33:53Z</time></trkpt><trkpt lat="39.84420192875578" lon="8.820468630118054"><ele>249.0</ele><time>2026-05-03T07:33:54Z</time></trkpt><trkpt lat="39.844075299381224" lon="8.82050115364662"><ele>252.75</ele><time>2026-05-03T07:33:55Z</time></trkpt><trkpt lat="39.84394343465093" lon="8.820549996857148"><ele>256.5</ele><time>2026-05-03T07:33:56Z</time></trkpt><trkpt lat="39.84381970175184" lon="8.820619568451697"><ele>260.25</ele><time>2026-05-03T07:33:56.999Z</time></trkpt><trkpt lat="39.84371415555624" lon="8.820716743365066"><ele>264.0</ele><time>2026-05-03T07:33:57.999Z</time></trkpt><trkpt lat="39.84364236120343" lon="8.820832212770023"><ele>264.0</ele><time>2026-05-03T07:33:58.999Z</time></trkpt><trkpt lat="39.84360080529353" lon="8.82096656478691"><ele>264.0</ele><time>2026-05-03T07:33:59.999Z</time></trkpt><trkpt lat="39.843579575806956" lon="8.821128872077946"><ele>264.0</ele><time>2026-05-03T07:34:00.999Z</time></trkpt><trkpt lat="39.8435587234061" lon="8.821304309281691"><ele>264.0</ele><time>2026-05-03T07:34:01.999Z</time></trkpt><trkpt lat="39.84350334700879" lon="8.821440131804495"><ele>265.0</ele><time>2026-05-03T07:34:02.999Z</time></trkpt><trkpt lat="39.84341480237218" lon="8.821563357061486"><ele>266.0</ele><time>2026-05-03T07:34:03.999Z</time></trkpt><trkpt lat="39.843311885967374" lon="8.821687035575515"><ele>267.0</ele><time>2026-05-03T07:34:04.999Z</time></trkpt><trkpt lat="39.84319255099281" lon="8.821834805100629"><ele>268.0</ele><time>2026-05-03T07:34:05.999Z</time></trkpt><trkpt lat="39.84306927207524" lon="8.822006648447577"><ele>272.3333333333333</ele><time>2026-05-03T07:34:06.999Z</time></trkpt><trkpt lat="39.842947790639144" lon="8.822186412816523"><ele>276.6666666666667</ele><time>2026-05-03T07:34:07.999Z</time></trkpt><trkpt lat="39.84281477413889" lon="8.822360438012337"><ele>281.0</ele><time>2026-05-03T07:34:08.999Z</time></trkpt><trkpt lat="39.842675465860346" lon="8.822531778841487"><ele>283.33333333333337</ele><time>2026-05-03T07:34:09.999Z</time></trkpt><trkpt lat="39.8425513689724" lon="8.822691043937258"><ele>285.6666666666667</ele><time>2026-05-03T07:34:10.999Z</time></trkpt><trkpt lat="39.842437551843446" lon="8.822835451806776"><ele>288.0</ele><time>2026-05-03T07:34:11.999Z</time></trkpt><trkpt lat="39.842335898425816" lon="8.822964466690845"><ele>288.0</ele><time>2026-05-03T07:34:12.999Z</time></trkpt><trkpt lat="39.84224200923134" lon="8.823088585354755"><ele>288.0</ele><time>2026-05-03T07:34:13.999Z</time></trkpt><trkpt lat="39.84215089715327" lon="8.823206895159084"><ele>288.0</ele><time>2026-05-03T07:34:14.999Z</time></trkpt><trkpt lat="39.842060332652416" lon="8.823296455524444"><ele>288.0</ele><time>2026-05-03T07:34:15.999Z</time></trkpt><trkpt lat="39.84196799013149" lon="8.823346255342168"><ele>288.0</ele><time>2026-05-03T07:34:16.999Z</time></trkpt><trkpt lat="39.84187274608908" lon="8.823355948115044"><ele>288.0</ele><time>2026-05-03T07:34:17.999Z</time></trkpt><trkpt lat="39.84178360582045" lon="8.823323616294012"><ele>288.0</ele><time>2026-05-03T07:34:18.999Z</time></trkpt><trkpt lat="39.84169533163428" lon="8.823255109935795"><ele>288.0</ele><time>2026-05-03T07:34:19.999Z</time></trkpt><trkpt lat="39.84162192574089" lon="8.823152194904043"><ele>288.0</ele><time>2026-05-03T07:34:20.999Z</time></trkpt><trkpt lat="39.841577028462844" lon="8.823031914878447"><ele>286.75</ele><time>2026-05-03T07:34:21.999Z</time></trkpt><trkpt lat="39.84156818234752" lon="8.822901658067321"><ele>285.5</ele><time>2026-05-03T07:34:22.999Z</time></trkpt><trkpt lat="39.84158495093116" lon="8.822748238084047"><ele>284.25</ele><time>2026-05-03T07:34:23.999Z</time></trkpt><trkpt lat="39.84159895143634" lon="8.822585078407057"><ele>283.0</ele><time>2026-05-03T07:34:24.999Z</time></trkpt><trkpt lat="39.84157372635843" lon="8.822451147806401"><ele>281.25</ele><time>2026-05-03T07:34:25.999Z</time></trkpt><trkpt lat="39.841507005240864" lon="8.822323663021454"><ele>279.5</ele><time>2026-05-03T07:34:26.999Z</time></trkpt><trkpt lat="39.84141273748234" lon="8.822183401391394"><ele>277.75</ele><time>2026-05-03T07:34:27.999Z</time></trkpt><trkpt lat="39.8413432114488" lon="8.822045372838435"><ele>276.0</ele><time>2026-05-03T07:34:28.999Z</time></trkpt><trkpt lat="39.841309055950994" lon="8.821900623004147"><ele>275.40000000000003</ele><time>2026-05-03T07:34:29.999Z</time></trkpt><trkpt lat="39.84131816973191" lon="8.821760253039097"><ele>274.8</ele><time>2026-05-03T07:34:30.999Z</time></trkpt><trkpt lat="39.841359802828414" lon="8.821631707718213"><ele>274.20000000000005</ele><time>2026-05-03T07:34:31.999Z</time></trkpt><trkpt lat="39.841380308993244" lon="8.821512730765287"><ele>273.6</ele><time>2026-05-03T07:34:32.999Z</time></trkpt><trkpt lat="39.84135163555957" lon="8.821399387732223"><ele>273.0</ele><time>2026-05-03T07:34:33.999Z</time></trkpt><trkpt lat="39.84129030068468" lon="8.82127643734924"><ele>273.0</ele><time>2026-05-03T07:34:34.999Z</time></trkpt><trkpt lat="39.84120777924242" lon="8.821147030442795"><ele>273.0</ele><time>2026-05-03T07:34:35.999Z</time></trkpt><trkpt lat="39.841117038356515" lon="8.821014997717114"><ele>273.0</ele><time>2026-05-03T07:34:36.999Z</time></trkpt><trkpt lat="39.841014636409575" lon="8.820886085992258"><ele>273.0</ele><time>2026-05-03T07:34:37.999Z</time></trkpt><trkpt lat="39.84089015097162" lon="8.820771065976766"><ele>277.6666666666667</ele><time>2026-05-03T07:34:38.999Z</time></trkpt><trkpt lat="39.840754067533624" lon="8.820666968617601"><ele>282.33333333333337</ele><time>2026-05-03T07:34:39.999Z</time></trkpt><trkpt lat="39.84061061674656" lon="8.820580882477081"><ele>287.0</ele><time>2026-05-03T07:34:40.999Z</time></trkpt><trkpt lat="39.840468762187506" lon="8.820525236083576"><ele>287.0</ele><time>2026-05-03T07:34:41.999Z</time></trkpt><trkpt lat="39.84033294550325" lon="8.820488896203731"><ele>287.0</ele><time>2026-05-03T07:34:42.999Z</time></trkpt><trkpt lat="39.840200897092075" lon="8.82046352787691"><ele>287.0</ele><time>2026-05-03T07:34:43.999Z</time></trkpt><trkpt lat="39.84007869487534" lon="8.820443659895757"><ele>287.0</ele><time>2026-05-03T07:34:44.999Z</time></trkpt><trkpt lat="39.83996620581006" lon="8.820437949869941"><ele>287.4</ele><time>2026-05-03T07:34:45.999Z</time></trkpt><trkpt lat="39.839886529896354" lon="8.820431618229236"><ele>287.79999999999995</ele><time>2026-05-03T07:34:46.999Z</time></trkpt><trkpt lat="39.839836504109144" lon="8.8203010536024"><ele>288.2</ele><time>2026-05-03T07:34:48.999Z</time></trkpt><trkpt lat="39.83984594360382" lon="8.820173542874487"><ele>288.59999999999997</ele><time>2026-05-03T07:34:49.999Z</time></trkpt><trkpt lat="39.83988318839337" lon="8.820017875418094"><ele>289.0</ele><time>2026-05-03T07:34:50.999Z</time></trkpt><trkpt lat="39.839929468529654" lon="8.819836449336348"><ele>289.0</ele><time>2026-05-03T07:34:51.999Z</time></trkpt><trkpt lat="39.83996409711093" lon="8.819614042671628"><ele>289.0</ele><time>2026-05-03T07:34:52.999Z</time></trkpt><trkpt lat="39.840009367540034" lon="8.819374868387118"><ele>289.0</ele><time>2026-05-03T07:34:53.999Z</time></trkpt><trkpt lat="39.840059711434996" lon="8.819182331408909"><ele>290.0</ele><time>2026-05-03T07:34:54.999Z</time></trkpt><trkpt lat="39.84011164265992" lon="8.819026744152046"><ele>291.0</ele><time>2026-05-03T07:34:55.999Z</time></trkpt><trkpt lat="39.84014187390691" lon="8.818890208650858"><ele>292.0</ele><time>2026-05-03T07:34:56.998Z</time></trkpt><trkpt lat="39.84013754523868" lon="8.818738183130606"><ele>293.0</ele><time>2026-05-03T07:34:57.998Z</time></trkpt><trkpt lat="39.84011432963781" lon="8.818560391866354"><ele>293.0</ele><time>2026-05-03T07:34:58.998Z</time></trkpt><trkpt lat="39.840076191609995" lon="8.818365557475852"><ele>293.0</ele><time>2026-05-03T07:34:59.998Z</time></trkpt><trkpt lat="39.84000719957518" lon="8.818142809371846"><ele>293.0</ele><time>2026-05-03T07:35:00.998Z</time></trkpt><trkpt lat="39.839931415195565" lon="8.81792477619394"><ele>293.0</ele><time>2026-05-03T07:35:01.998Z</time></trkpt><trkpt lat="39.83987280287157" lon="8.817704258644929"><ele>293.0</ele><time>2026-05-03T07:35:02.998Z</time></trkpt><trkpt lat="39.83984633573117" lon="8.817526452480786"><ele>293.0</ele><time>2026-05-03T07:35:03.998Z</time></trkpt><trkpt lat="39.83983881511248" lon="8.817375658304707"><ele>293.0</ele><time>2026-05-03T07:35:04.998Z</time></trkpt><trkpt lat="39.83984750270142" lon="8.817259893193706"><ele>292.6</ele><time>2026-05-03T07:35:05.998Z</time></trkpt><trkpt lat="39.839882089708176" lon="8.817163305743234"><ele>292.20000000000005</ele><time>2026-05-03T07:35:06.998Z</time></trkpt><trkpt lat="39.839926892389094" lon="8.817089875657611"><ele>291.8</ele><time>2026-05-03T07:35:07.998Z</time></trkpt><trkpt lat="39.83993658100015" lon="8.816959739213063"><ele>291.40000000000003</ele><time>2026-05-03T07:35:09.998Z</time></trkpt><trkpt lat="39.839847841840694" lon="8.816866942410297"><ele>291.0</ele><time>2026-05-03T07:35:11.998Z</time></trkpt><trkpt lat="39.8397646275901" lon="8.816838082117826"><ele>291.25</ele><time>2026-05-03T07:35:12.998Z</time></trkpt><trkpt lat="39.83965646963993" lon="8.816813398279155"><ele>291.5</ele><time>2026-05-03T07:35:13.998Z</time></trkpt><trkpt lat="39.839532491777575" lon="8.816800380703283"><ele>291.75</ele><time>2026-05-03T07:35:14.998Z</time></trkpt><trkpt lat="39.839390532296306" lon="8.81680375529954"><ele>292.0</ele><time>2026-05-03T07:35:15.998Z</time></trkpt><trkpt lat="39.83923175070062" lon="8.816812516953638"><ele>292.0</ele><time>2026-05-03T07:35:16.998Z</time></trkpt><trkpt lat="39.83905813073712" lon="8.816821326523186"><ele>292.0</ele><time>2026-05-03T07:35:17.998Z</time></trkpt><trkpt lat="39.83891161945945" lon="8.816834468717802"><ele>292.0</ele><time>2026-05-03T07:35:18.998Z</time></trkpt><trkpt lat="39.838830534329944" lon="8.816833114996752"><ele>292.0</ele><time>2026-05-03T07:35:19.998Z</time></trkpt><trkpt lat="39.83876578318575" lon="8.816791772765011"><ele>292.0</ele><time>2026-05-03T07:35:20.998Z</time></trkpt><trkpt lat="39.8386939916866" lon="8.816698090902975"><ele>292.0</ele><time>2026-05-03T07:35:21.998Z</time></trkpt><trkpt lat="39.8385797784873" lon="8.816576130598442"><ele>292.0</ele><time>2026-05-03T07:35:22.998Z</time></trkpt><trkpt lat="39.83843805618586" lon="8.816448218231637"><ele>292.0</ele><time>2026-05-03T07:35:23.998Z</time></trkpt><trkpt lat="39.838296871388756" lon="8.816303666338719"><ele>293.5</ele><time>2026-05-03T07:35:24.998Z</time></trkpt><trkpt lat="39.83816214761653" lon="8.816167637126373"><ele>295.0</ele><time>2026-05-03T07:35:25.998Z</time></trkpt><trkpt lat="39.83805130487762" lon="8.816073970991312"><ele>296.5</ele><time>2026-05-03T07:35:26.998Z</time></trkpt><trkpt lat="39.837946299815776" lon="8.815993494675624"><ele>298.0</ele><time>2026-05-03T07:35:27.998Z</time></trkpt><trkpt lat="39.837831992294944" lon="8.815892808914999"><ele>298.0</ele><time>2026-05-03T07:35:28.998Z</time></trkpt><trkpt lat="39.83770569184149" lon="8.815763400750035"><ele>298.0</ele><time>2026-05-03T07:35:29.998Z</time></trkpt><trkpt lat="39.837579632701626" lon="8.815654545550325"><ele>298.0</ele><time>2026-05-03T07:35:31Z</time></trkpt><trkpt lat="39.83747728564624" lon="8.815590025723296"><ele>298.0</ele><time>2026-05-03T07:35:32Z</time></trkpt><trkpt lat="39.83741925580664" lon="8.815554595886928"><ele>300.8333333333333</ele><time>2026-05-03T07:35:33Z</time></trkpt><trkpt lat="39.837362677849974" lon="8.815495216619707"><ele>303.66666666666663</ele><time>2026-05-03T07:35:35Z</time></trkpt><trkpt lat="39.837257847455646" lon="8.815499910838444"><ele>306.5</ele><time>2026-05-03T07:35:37Z</time></trkpt><trkpt lat="39.837185837401755" lon="8.815509868910954"><ele>309.3333333333333</ele><time>2026-05-03T07:35:38Z</time></trkpt><trkpt lat="39.83711170495551" lon="8.815510211800325"><ele>312.1666666666667</ele><time>2026-05-03T07:35:39Z</time></trkpt><trkpt lat="39.83702507010836" lon="8.815489631131632"><ele>315.0</ele><time>2026-05-03T07:35:40Z</time></trkpt><trkpt lat="39.83696173957776" lon="8.815476925206704"><ele>315.0</ele><time>2026-05-03T07:35:41Z</time></trkpt><trkpt lat="39.83691685765184" lon="8.815594231208525"><ele>315.0</ele><time>2026-05-03T07:35:44Z</time></trkpt><trkpt lat="39.83694942443349" lon="8.815699662696767"><ele>315.0</ele><time>2026-05-03T07:35:45Z</time></trkpt><trkpt lat="39.83700358398892" lon="8.815797163741003"><ele>315.0</ele><time>2026-05-03T07:35:46Z</time></trkpt><trkpt lat="39.837076921458994" lon="8.815877849311532"><ele>315.0</ele><time>2026-05-03T07:35:47Z</time></trkpt><trkpt lat="39.837172080859986" lon="8.815960210712005"><ele>318.4</ele><time>2026-05-03T07:35:48Z</time></trkpt><trkpt lat="39.83724901595945" lon="8.816054754836015"><ele>321.8</ele><time>2026-05-03T07:35:49Z</time></trkpt><trkpt lat="39.837312925791686" lon="8.816151566845784"><ele>325.20000000000005</ele><time>2026-05-03T07:35:50Z</time></trkpt><trkpt lat="39.83734615676483" lon="8.816238180914679"><ele>328.6</ele><time>2026-05-03T07:35:51Z</time></trkpt><trkpt lat="39.837352232316675" lon="8.816396326923398"><ele>332.0</ele><time>2026-05-03T07:35:53Z</time></trkpt><trkpt lat="39.83734659510195" lon="8.8164828091331"><ele>332.0</ele><time>2026-05-03T07:35:55Z</time></trkpt><trkpt lat="39.83739686725038" lon="8.81641202888385"><ele>332.0</ele><time>2026-05-03T07:35:58Z</time></trkpt><trkpt lat="39.8373266016802" lon="8.816341376373515"><ele>332.0</ele><time>2026-05-03T07:35:59.999Z</time></trkpt><trkpt lat="39.83723317214212" lon="8.816386211327588"><ele>332.0</ele><time>2026-05-03T07:36:01.999Z</time></trkpt><trkpt lat="39.83718055964883" lon="8.816447086432824"><ele>332.0</ele><time>2026-05-03T07:36:02.999Z</time></trkpt><trkpt lat="39.837102941113606" lon="8.816549601029216"><ele>332.0</ele><time>2026-05-03T07:36:04.999Z</time></trkpt><trkpt lat="39.837022878785795" lon="8.81666969011768"><ele>332.0</ele><time>2026-05-03T07:36:06.999Z</time></trkpt><trkpt lat="39.83698105862068" lon="8.816736955874498"><ele>332.0</ele><time>2026-05-03T07:36:07.999Z</time></trkpt><trkpt lat="39.83691375981216" lon="8.816798774096743"><ele>332.0</ele><time>2026-05-03T07:36:09.999Z</time></trkpt><trkpt lat="39.83684868853905" lon="8.816803664539544"><ele>332.0</ele><time>2026-05-03T07:36:10.999Z</time></trkpt><trkpt lat="39.83674038017054" lon="8.8167526121987"><ele>332.0</ele><time>2026-05-03T07:36:12.999Z</time></trkpt><trkpt lat="39.83668028868528" lon="8.81668662923345"><ele>332.0</ele><time>2026-05-03T07:36:14.999Z</time></trkpt><trkpt lat="39.836577396510506" lon="8.816654421475645"><ele>334.5</ele><time>2026-05-03T07:36:16.999Z</time></trkpt><trkpt lat="39.836458192925825" lon="8.81663978079909"><ele>337.0</ele><time>2026-05-03T07:36:18.999Z</time></trkpt><trkpt lat="39.83639233461767" lon="8.816632139698655"><ele>339.5</ele><time>2026-05-03T07:36:19.999Z</time></trkpt><trkpt lat="39.836322013170644" lon="8.816624486095694"><ele>342.0</ele><time>2026-05-03T07:36:20.999Z</time></trkpt><trkpt lat="39.83625536224419" lon="8.816588443349616"><ele>344.5</ele><time>2026-05-03T07:36:21.999Z</time></trkpt><trkpt lat="39.83621419340276" lon="8.816523342221444"><ele>347.0</ele><time>2026-05-03T07:36:22.999Z</time></trkpt><trkpt lat="39.83618249223702" lon="8.816441040465609"><ele>347.0</ele><time>2026-05-03T07:36:23.999Z</time></trkpt><trkpt lat="39.836175836727854" lon="8.816355191877776"><ele>347.0</ele><time>2026-05-03T07:36:24.999Z</time></trkpt><trkpt lat="39.836188074448444" lon="8.816273864572175"><ele>347.0</ele><time>2026-05-03T07:36:25.999Z</time></trkpt><trkpt lat="39.83619947665685" lon="8.816187238349833"><ele>347.0</ele><time>2026-05-03T07:36:26.999Z</time></trkpt><trkpt lat="39.83616718051068" lon="8.816065341089635"><ele>347.0</ele><time>2026-05-03T07:36:28.999Z</time></trkpt><trkpt lat="39.836126578777396" lon="8.81595741083871"><ele>347.0</ele><time>2026-05-03T07:36:30.999Z</time></trkpt><trkpt lat="39.836106124195354" lon="8.815865408202896"><ele>345.1666666666667</ele><time>2026-05-03T07:36:31.999Z</time></trkpt><trkpt lat="39.83608856165422" lon="8.815758302786808"><ele>343.33333333333337</ele><time>2026-05-03T07:36:32.999Z</time></trkpt><trkpt lat="39.836066557182406" lon="8.815663223051672"><ele>341.5</ele><time>2026-05-03T07:36:33.999Z</time></trkpt><trkpt lat="39.836050222851085" lon="8.815524212387217"><ele>339.6666666666667</ele><time>2026-05-03T07:36:35.999Z</time></trkpt><trkpt lat="39.836082548791765" lon="8.815437284824354"><ele>337.8333333333333</ele><time>2026-05-03T07:36:36.999Z</time></trkpt><trkpt lat="39.83610990492328" lon="8.815360083964359"><ele>336.0</ele><time>2026-05-03T07:36:37.999Z</time></trkpt><trkpt lat="39.836142547502256" lon="8.815257969755496"><ele>336.8333333333333</ele><time>2026-05-03T07:36:38.999Z</time></trkpt><trkpt lat="39.83618180095478" lon="8.815149442099338"><ele>337.6666666666667</ele><time>2026-05-03T07:36:39.999Z</time></trkpt><trkpt lat="39.8362259366185" lon="8.81505203283903"><ele>338.5</ele><time>2026-05-03T07:36:40.999Z</time></trkpt><trkpt lat="39.83625898658763" lon="8.814976007002763"><ele>339.33333333333337</ele><time>2026-05-03T07:36:41.999Z</time></trkpt><trkpt lat="39.83633251006371" lon="8.814907954339015"><ele>340.1666666666667</ele><time>2026-05-03T07:36:42.999Z</time></trkpt><trkpt lat="39.836409434215334" lon="8.814835728079354"><ele>341.0</ele><time>2026-05-03T07:36:43.999Z</time></trkpt><trkpt lat="39.83648438882012" lon="8.814790124081739"><ele>341.0</ele><time>2026-05-03T07:36:44.999Z</time></trkpt><trkpt lat="39.8365635006595" lon="8.814762498600217"><ele>341.0</ele><time>2026-05-03T07:36:45.999Z</time></trkpt><trkpt lat="39.83666663125297" lon="8.814738417653798"><ele>341.0</ele><time>2026-05-03T07:36:46.999Z</time></trkpt><trkpt lat="39.83677191179984" lon="8.81468429879944"><ele>341.0</ele><time>2026-05-03T07:36:47.999Z</time></trkpt><trkpt lat="39.836850588582195" lon="8.814622793118083"><ele>341.0</ele><time>2026-05-03T07:36:48.999Z</time></trkpt><trkpt lat="39.83686192759145" lon="8.814518288050921"><ele>339.0</ele><time>2026-05-03T07:36:51.999Z</time></trkpt><trkpt lat="39.836863466767625" lon="8.814386430735318"><ele>337.0</ele><time>2026-05-03T07:36:53.999Z</time></trkpt><trkpt lat="39.83687490427434" lon="8.814267168927499"><ele>335.0</ele><time>2026-05-03T07:36:56.999Z</time></trkpt><trkpt lat="39.83686787974537" lon="8.81415278956132"><ele>333.0</ele><time>2026-05-03T07:36:58.999Z</time></trkpt><trkpt lat="39.836852119241975" lon="8.814024425534605"><ele>331.0</ele><time>2026-05-03T07:36:59.998Z</time></trkpt><trkpt lat="39.83681024531274" lon="8.813893533829553"><ele>338.0</ele><time>2026-05-03T07:37:00.998Z</time></trkpt><trkpt lat="39.83674964822936" lon="8.813778620246016"><ele>345.0</ele><time>2026-05-03T07:37:01.998Z</time></trkpt><trkpt lat="39.836698279642334" lon="8.813631643600502"><ele>352.0</ele><time>2026-05-03T07:37:02.998Z</time></trkpt><trkpt lat="39.83665958751881" lon="8.813503358730552"><ele>359.0</ele><time>2026-05-03T07:37:03.998Z</time></trkpt><trkpt lat="39.83659530773778" lon="8.813372719326543"><ele>359.25</ele><time>2026-05-03T07:37:04.998Z</time></trkpt><trkpt lat="39.83652339881713" lon="8.813229475911742"><ele>359.5</ele><time>2026-05-03T07:37:05.998Z</time></trkpt><trkpt lat="39.836473269028915" lon="8.813082851706543"><ele>359.75</ele><time>2026-05-03T07:37:06.998Z</time></trkpt><trkpt lat="39.83641866749016" lon="8.812968338159601"><ele>360.0</ele><time>2026-05-03T07:37:07.998Z</time></trkpt><trkpt lat="39.83635043023097" lon="8.812869732993246"><ele>360.0</ele><time>2026-05-03T07:37:08.998Z</time></trkpt><trkpt lat="39.83627637299593" lon="8.812786828517375"><ele>360.0</ele><time>2026-05-03T07:37:09.998Z</time></trkpt><trkpt lat="39.83619200743035" lon="8.812714220456485"><ele>360.0</ele><time>2026-05-03T07:37:10.998Z</time></trkpt><trkpt lat="39.83610788138882" lon="8.812672411042323"><ele>360.0</ele><time>2026-05-03T07:37:11.998Z</time></trkpt><trkpt lat="39.836020268976284" lon="8.81260738605108"><ele>360.0</ele><time>2026-05-03T07:37:12.998Z</time></trkpt><trkpt lat="39.83590550180212" lon="8.812536346185244"><ele>362.3333333333333</ele><time>2026-05-03T07:37:13.998Z</time></trkpt><trkpt lat="39.83574702967561" lon="8.81242105046689"><ele>364.66666666666663</ele><time>2026-05-03T07:37:14.998Z</time></trkpt><trkpt lat="39.83559799439327" lon="8.812314141737692"><ele>367.0</ele><time>2026-05-03T07:37:15.998Z</time></trkpt><trkpt lat="39.835479526425274" lon="8.812242981204225"><ele>367.0</ele><time>2026-05-03T07:37:16.998Z</time></trkpt><trkpt lat="39.83536326970226" lon="8.812185998244972"><ele>367.0</ele><time>2026-05-03T07:37:17.998Z</time></trkpt><trkpt lat="39.83524610593939" lon="8.812159329967779"><ele>367.0</ele><time>2026-05-03T07:37:18.998Z</time></trkpt><trkpt lat="39.83513957264689" lon="8.812133082665905"><ele>367.0</ele><time>2026-05-03T07:37:19.998Z</time></trkpt><trkpt lat="39.83502041230665" lon="8.812070052477297"><ele>366.0</ele><time>2026-05-03T07:37:20.998Z</time></trkpt><trkpt lat="39.83489089102997" lon="8.811986818852859"><ele>365.0</ele><time>2026-05-03T07:37:21.998Z</time></trkpt><trkpt lat="39.83477096048457" lon="8.811905449071403"><ele>364.0</ele><time>2026-05-03T07:37:22.998Z</time></trkpt><trkpt lat="39.8346701667713" lon="8.811841582934207"><ele>363.0</ele><time>2026-05-03T07:37:23.998Z</time></trkpt><trkpt lat="39.834562534260066" lon="8.811794438718742"><ele>363.0</ele><time>2026-05-03T07:37:24.998Z</time></trkpt><trkpt lat="39.834470151172354" lon="8.81176578090098"><ele>363.0</ele><time>2026-05-03T07:37:25.998Z</time></trkpt><trkpt lat="39.83438709610667" lon="8.811746395910427"><ele>363.0</ele><time>2026-05-03T07:37:26.998Z</time></trkpt><trkpt lat="39.83431139632148" lon="8.811718438727528"><ele>363.0</ele><time>2026-05-03T07:37:27.998Z</time></trkpt><trkpt lat="39.83420061309383" lon="8.811677173048913"><ele>363.0</ele><time>2026-05-03T07:37:29.998Z</time></trkpt><trkpt lat="39.834099500008904" lon="8.811651045756419"><ele>366.5</ele><time>2026-05-03T07:37:31.998Z</time></trkpt><trkpt lat="39.83400633467748" lon="8.811612353575763"><ele>370.0</ele><time>2026-05-03T07:37:32.998Z</time></trkpt><trkpt lat="39.83391089339973" lon="8.811586954838459"><ele>373.5</ele><time>2026-05-03T07:37:33.998Z</time></trkpt><trkpt lat="39.83384085214845" lon="8.811576323634213"><ele>377.0</ele><time>2026-05-03T07:37:34.998Z</time></trkpt><trkpt lat="39.8337593777446" lon="8.81150609822928"><ele>380.5</ele><time>2026-05-03T07:37:37Z</time></trkpt><trkpt lat="39.833723359803386" lon="8.811434764074704"><ele>384.0</ele><time>2026-05-03T07:37:39Z</time></trkpt><trkpt lat="39.83367813309139" lon="8.81129433132062"><ele>384.0</ele><time>2026-05-03T07:37:41Z</time></trkpt><trkpt lat="39.83362966856949" lon="8.811158268722746"><ele>384.0</ele><time>2026-05-03T07:37:42Z</time></trkpt><trkpt lat="39.833570896529096" lon="8.81106866661348"><ele>384.0</ele><time>2026-05-03T07:37:43Z</time></trkpt><trkpt lat="39.833523428903995" lon="8.810995034606885"><ele>384.0</ele><time>2026-05-03T07:37:44Z</time></trkpt><trkpt lat="39.833481209992804" lon="8.810933435045017"><ele>384.0</ele><time>2026-05-03T07:37:45Z</time></trkpt><trkpt lat="39.833438311331896" lon="8.810869967596899"><ele>384.0</ele><time>2026-05-03T07:37:46Z</time></trkpt><trkpt lat="39.83337575544143" lon="8.810797382534608"><ele>385.79999999999995</ele><time>2026-05-03T07:37:47Z</time></trkpt><trkpt lat="39.83327081782298" lon="8.81071194545779"><ele>387.59999999999997</ele><time>2026-05-03T07:37:48Z</time></trkpt><trkpt lat="39.83319307726432" lon="8.810606849495567"><ele>389.4</ele><time>2026-05-03T07:37:49Z</time></trkpt><trkpt lat="39.83313456754248" lon="8.810540991635543"><ele>391.2</ele><time>2026-05-03T07:37:50Z</time></trkpt><trkpt lat="39.83307617720691" lon="8.81050067630563"><ele>393.0</ele><time>2026-05-03T07:37:51Z</time></trkpt><trkpt lat="39.833004490356984" lon="8.81048687981559"><ele>393.0</ele><time>2026-05-03T07:37:52Z</time></trkpt><trkpt lat="39.83294798886045" lon="8.810443211652194"><ele>393.0</ele><time>2026-05-03T07:37:53Z</time></trkpt><trkpt lat="39.832887463574124" lon="8.810346475195324"><ele>393.0</ele><time>2026-05-03T07:37:55Z</time></trkpt><trkpt lat="39.83280752064581" lon="8.810275159926219"><ele>393.0</ele><time>2026-05-03T07:37:58Z</time></trkpt><trkpt lat="39.832714655567905" lon="8.810202846742973"><ele>393.0</ele><time>2026-05-03T07:38:00Z</time></trkpt><trkpt lat="39.832634283437784" lon="8.810179546306358"><ele>393.0</ele><time>2026-05-03T07:38:01.999Z</time></trkpt><trkpt lat="39.83258721084031" lon="8.810276673858677"><ele>397.79999999999995</ele><time>2026-05-03T07:38:04.999Z</time></trkpt><trkpt lat="39.83251060981725" lon="8.810349210336057"><ele>402.6</ele><time>2026-05-03T07:38:06.999Z</time></trkpt><trkpt lat="39.8325169949275" lon="8.810466172373625"><ele>407.4</ele><time>2026-05-03T07:38:07.999Z</time></trkpt><trkpt lat="39.83254317477027" lon="8.810581033443805"><ele>412.20000000000005</ele><time>2026-05-03T07:38:08.999Z</time></trkpt><trkpt lat="39.832574941747254" lon="8.810708380750443"><ele>417.0</ele><time>2026-05-03T07:38:09.999Z</time></trkpt><trkpt lat="39.83260230102787" lon="8.810828135388196"><ele>417.0</ele><time>2026-05-03T07:38:10.999Z</time></trkpt><trkpt lat="39.83261439413867" lon="8.810916422073342"><ele>417.0</ele><time>2026-05-03T07:38:11.999Z</time></trkpt><trkpt lat="39.832634167573346" lon="8.811028852238522"><ele>417.0</ele><time>2026-05-03T07:38:12.999Z</time></trkpt><trkpt lat="39.8326996972323" lon="8.81117348966041"><ele>417.0</ele><time>2026-05-03T07:38:13.999Z</time></trkpt><trkpt lat="39.83277059995069" lon="8.811332062443677"><ele>417.0</ele><time>2026-05-03T07:38:14.999Z</time></trkpt><trkpt lat="39.832863271265914" lon="8.811484356963282"><ele>418.0</ele><time>2026-05-03T07:38:15.999Z</time></trkpt><trkpt lat="39.83294722840373" lon="8.811622739731465"><ele>419.0</ele><time>2026-05-03T07:38:16.999Z</time></trkpt><trkpt lat="39.83303103414654" lon="8.811736241035245"><ele>420.0</ele><time>2026-05-03T07:38:17.999Z</time></trkpt><trkpt lat="39.8331378905345" lon="8.811890329062965"><ele>421.0</ele><time>2026-05-03T07:38:18.999Z</time></trkpt><trkpt lat="39.83320964431724" lon="8.812035500809062"><ele>421.0</ele><time>2026-05-03T07:38:19.999Z</time></trkpt><trkpt lat="39.833301255780604" lon="8.812149326820316"><ele>421.0</ele><time>2026-05-03T07:38:20.999Z</time></trkpt><trkpt lat="39.83338473629573" lon="8.812257289462705"><ele>421.0</ele><time>2026-05-03T07:38:21.999Z</time></trkpt><trkpt lat="39.83343312742685" lon="8.812326207468017"><ele>421.0</ele><time>2026-05-03T07:38:22.999Z</time></trkpt><trkpt lat="39.83348130444237" lon="8.812382422611144"><ele>421.0</ele><time>2026-05-03T07:38:23.999Z</time></trkpt><trkpt lat="39.833494959631174" lon="8.812488903425578"><ele>421.0</ele><time>2026-05-03T07:38:25.999Z</time></trkpt><trkpt lat="39.83338514301101" lon="8.81250471243344"><ele>421.0</ele><time>2026-05-03T07:38:28.999Z</time></trkpt><trkpt lat="39.83327553776457" lon="8.812506242922325"><ele>421.0</ele><time>2026-05-03T07:38:30.999Z</time></trkpt><trkpt lat="39.833162579309445" lon="8.81256111111204"><ele>421.0</ele><time>2026-05-03T07:38:33.999Z</time></trkpt><trkpt lat="39.8330890963382" lon="8.812558703620589"><ele>421.0</ele><time>2026-05-03T07:38:34.999Z</time></trkpt><trkpt lat="39.83299000738255" lon="8.812565503803471"><ele>421.0</ele><time>2026-05-03T07:38:37.999Z</time></trkpt><trkpt lat="39.83291432335503" lon="8.812609549282605"><ele>421.0</ele><time>2026-05-03T07:38:38.999Z</time></trkpt><trkpt lat="39.83281624454088" lon="8.812698954428845"><ele>421.0</ele><time>2026-05-03T07:38:39.999Z</time></trkpt><trkpt lat="39.83270159959559" lon="8.81278717769197"><ele>421.0</ele><time>2026-05-03T07:38:40.999Z</time></trkpt><trkpt lat="39.83257125392564" lon="8.812899120565724"><ele>423.0</ele><time>2026-05-03T07:38:41.999Z</time></trkpt><trkpt lat="39.83242911200444" lon="8.8130223301216"><ele>425.0</ele><time>2026-05-03T07:38:42.999Z</time></trkpt><trkpt lat="39.83227076523845" lon="8.813159598566086"><ele>427.0</ele><time>2026-05-03T07:38:43.999Z</time></trkpt><trkpt lat="39.832099508265806" lon="8.81330672977396"><ele>427.0</ele><time>2026-05-03T07:38:44.999Z</time></trkpt><trkpt lat="39.8319210056931" lon="8.813459708250079"><ele>427.0</ele><time>2026-05-03T07:38:45.999Z</time></trkpt><trkpt lat="39.831728068164146" lon="8.813622232205422"><ele>427.0</ele><time>2026-05-03T07:38:46.999Z</time></trkpt><trkpt lat="39.831537388263584" lon="8.813782714074014"><ele>428.0</ele><time>2026-05-03T07:38:47.999Z</time></trkpt><trkpt lat="39.83133681250981" lon="8.813951524587944"><ele>429.0</ele><time>2026-05-03T07:38:48.999Z</time></trkpt><trkpt lat="39.83113157234668" lon="8.81412579593805"><ele>430.5</ele><time>2026-05-03T07:38:49.999Z</time></trkpt><trkpt lat="39.83092505996903" lon="8.814301451157219"><ele>432.0</ele><time>2026-05-03T07:38:50.999Z</time></trkpt><trkpt lat="39.83071687950492" lon="8.814478525214287"><ele>432.0</ele><time>2026-05-03T07:38:51.999Z</time></trkpt><trkpt lat="39.83050775580138" lon="8.81465640157468"><ele>432.0</ele><time>2026-05-03T07:38:52.999Z</time></trkpt><trkpt lat="39.83029809875179" lon="8.814834731586627"><ele>432.0</ele><time>2026-05-03T07:38:53.999Z</time></trkpt><trkpt lat="39.83008928127592" lon="8.815012347461282"><ele>432.0</ele><time>2026-05-03T07:38:54.999Z</time></trkpt><trkpt lat="39.82989000422134" lon="8.815181385650387"><ele>431.5</ele><time>2026-05-03T07:38:55.999Z</time></trkpt><trkpt lat="39.82969444499082" lon="8.815347347017031"><ele>431.0</ele><time>2026-05-03T07:38:56.999Z</time></trkpt><trkpt lat="39.82949364777735" lon="8.815517753598494"><ele>431.5</ele><time>2026-05-03T07:38:57.999Z</time></trkpt><trkpt lat="39.829288713267594" lon="8.815692967325711"><ele>432.0</ele><time>2026-05-03T07:38:58.999Z</time></trkpt><trkpt lat="39.829080706458214" lon="8.815871994964954"><ele>431.5</ele><time>2026-05-03T07:38:59.999Z</time></trkpt><trkpt lat="39.82887078385504" lon="8.816052671492796"><ele>431.0</ele><time>2026-05-03T07:39:00.999Z</time></trkpt><trkpt lat="39.82867624642499" lon="8.816219725575168"><ele>431.0</ele><time>2026-05-03T07:39:01.999Z</time></trkpt><trkpt lat="39.82849744333071" lon="8.816370972192784"><ele>431.0</ele><time>2026-05-03T07:39:02.998Z</time></trkpt><trkpt lat="39.82831601677925" lon="8.816522369142758"><ele>431.0</ele><time>2026-05-03T07:39:03.998Z</time></trkpt><trkpt lat="39.828134822869345" lon="8.816676400527447"><ele>431.3333333333333</ele><time>2026-05-03T07:39:04.998Z</time></trkpt><trkpt lat="39.82797145563952" lon="8.816815277603567"><ele>431.66666666666663</ele><time>2026-05-03T07:39:05.998Z</time></trkpt><trkpt lat="39.827807281764095" lon="8.816954780988974"><ele>432.0</ele><time>2026-05-03T07:39:06.998Z</time></trkpt><trkpt lat="39.82765355962991" lon="8.81708500396565"><ele>430.66666666666663</ele><time>2026-05-03T07:39:07.998Z</time></trkpt><trkpt lat="39.82750949459615" lon="8.817207046135202"><ele>429.3333333333333</ele><time>2026-05-03T07:39:08.998Z</time></trkpt><trkpt lat="39.82737521116997" lon="8.81732070716879"><ele>428.0</ele><time>2026-05-03T07:39:09.998Z</time></trkpt><trkpt lat="39.82724419362097" lon="8.817431195861705"><ele>428.0</ele><time>2026-05-03T07:39:10.998Z</time></trkpt><trkpt lat="39.827143234153894" lon="8.817540320971693"><ele>428.0</ele><time>2026-05-03T07:39:11.998Z</time></trkpt><trkpt lat="39.827078516912685" lon="8.817673677355955"><ele>428.0</ele><time>2026-05-03T07:39:12.998Z</time></trkpt><trkpt lat="39.82703628255366" lon="8.817806662133552"><ele>428.0</ele><time>2026-05-03T07:39:13.998Z</time></trkpt><trkpt lat="39.827045097029654" lon="8.81793084771138"><ele>427.8333333333333</ele><time>2026-05-03T07:39:14.998Z</time></trkpt><trkpt lat="39.827059705229" lon="8.818018065533826"><ele>427.66666666666663</ele><time>2026-05-03T07:39:15.998Z</time></trkpt><trkpt lat="39.82696826934536" lon="8.818027287393472"><ele>427.5</ele><time>2026-05-03T07:39:21.998Z</time></trkpt><trkpt lat="39.82688548275839" lon="8.818105081948492"><ele>427.33333333333337</ele><time>2026-05-03T07:39:24.998Z</time></trkpt><trkpt lat="39.82683026896117" lon="8.818216955703862"><ele>427.1666666666667</ele><time>2026-05-03T07:39:25.998Z</time></trkpt><trkpt lat="39.826768153204284" lon="8.818274791506328"><ele>427.0</ele><time>2026-05-03T07:39:26.998Z</time></trkpt><trkpt lat="39.8266872574003" lon="8.818334158970478"><ele>427.0</ele><time>2026-05-03T07:39:27.998Z</time></trkpt><trkpt lat="39.826631969060124" lon="8.818392820357692"><ele>427.00000000000006</ele><time>2026-05-03T07:39:28.998Z</time></trkpt><trkpt lat="39.82661536814077" lon="8.818563183861913"><ele>427.00000000000006</ele><time>2026-05-03T07:39:30.998Z</time></trkpt><trkpt lat="39.82669253211039" lon="8.818634657564543"><ele>427.0</ele><time>2026-05-03T07:39:31.998Z</time></trkpt><trkpt lat="39.82676785031059" lon="8.81873921635003"><ele>427.0</ele><time>2026-05-03T07:39:32.998Z</time></trkpt><trkpt lat="39.82685427309995" lon="8.818871923214873"><ele>425.0</ele><time>2026-05-03T07:39:33.998Z</time></trkpt><trkpt lat="39.8269436004887" lon="8.819018057063719"><ele>423.0</ele><time>2026-05-03T07:39:34.998Z</time></trkpt><trkpt lat="39.82702106518121" lon="8.819176508153944"><ele>421.0</ele><time>2026-05-03T07:39:35.998Z</time></trkpt><trkpt lat="39.827092402848386" lon="8.819297722649125"><ele>419.0</ele><time>2026-05-03T07:39:36.998Z</time></trkpt><trkpt lat="39.82713493062485" lon="8.819399822357182"><ele>420.4</ele><time>2026-05-03T07:39:37.998Z</time></trkpt><trkpt lat="39.827123839159945" lon="8.819517858586602"><ele>421.79999999999995</ele><time>2026-05-03T07:39:39.998Z</time></trkpt><trkpt lat="39.82702257527848" lon="8.819560906661009"><ele>423.20000000000005</ele><time>2026-05-03T07:39:42Z</time></trkpt><trkpt lat="39.826945664822006" lon="8.819634114636466"><ele>424.6</ele><time>2026-05-03T07:39:43Z</time></trkpt><trkpt lat="39.82685075657485" lon="8.819730002695756"><ele>426.0</ele><time>2026-05-03T07:39:44Z</time></trkpt><trkpt lat="39.82674733373976" lon="8.81983647531593"><ele>426.0</ele><time>2026-05-03T07:39:45Z</time></trkpt><trkpt lat="39.826635268384564" lon="8.819960703142975"><ele>426.0</ele><time>2026-05-03T07:39:46Z</time></trkpt><trkpt lat="39.82653282353214" lon="8.82008320438397"><ele>426.0</ele><time>2026-05-03T07:39:47Z</time></trkpt><trkpt lat="39.82642742000532" lon="8.820209925586331"><ele>426.0</ele><time>2026-05-03T07:39:48Z</time></trkpt><trkpt lat="39.82632359856449" lon="8.820335623888477"><ele>422.66666666666663</ele><time>2026-05-03T07:39:49Z</time></trkpt><trkpt lat="39.826213540769324" lon="8.820468872440557"><ele>419.3333333333333</ele><time>2026-05-03T07:39:50Z</time></trkpt><trkpt lat="39.8261009204098" lon="8.820601436434764"><ele>416.0</ele><time>2026-05-03T07:39:51Z</time></trkpt><trkpt lat="39.82599169007789" lon="8.820744820397973"><ele>418.0</ele><time>2026-05-03T07:39:52Z</time></trkpt><trkpt lat="39.825912286756136" lon="8.820888151489234"><ele>420.0</ele><time>2026-05-03T07:39:53Z</time></trkpt><trkpt lat="39.8258825718247" lon="8.821054716485419"><ele>422.0</ele><time>2026-05-03T07:39:54Z</time></trkpt><trkpt lat="39.82581238892798" lon="8.8212062830421"><ele>424.0</ele><time>2026-05-03T07:39:55Z</time></trkpt><trkpt lat="39.82575301664384" lon="8.82135434507022"><ele>424.0</ele><time>2026-05-03T07:39:56Z</time></trkpt><trkpt lat="39.82569705965707" lon="8.82145469631108"><ele>424.0</ele><time>2026-05-03T07:39:57Z</time></trkpt><trkpt lat="39.825638709094804" lon="8.821535721247324"><ele>424.0</ele><time>2026-05-03T07:39:58Z</time></trkpt><trkpt lat="39.82556719183303" lon="8.821627829198528"><ele>424.0</ele><time>2026-05-03T07:39:59Z</time></trkpt><trkpt lat="39.82548252497687" lon="8.821735593103622"><ele>424.0</ele><time>2026-05-03T07:40:00Z</time></trkpt><trkpt lat="39.8253938738138" lon="8.821840296025064"><ele>423.00000000000006</ele><time>2026-05-03T07:40:01Z</time></trkpt><trkpt lat="39.82531181448163" lon="8.82193067868588"><ele>422.0</ele><time>2026-05-03T07:40:02Z</time></trkpt><trkpt lat="39.82524176846121" lon="8.821988047661035"><ele>421.0</ele><time>2026-05-03T07:40:03Z</time></trkpt><trkpt lat="39.82517376176966" lon="8.822019933428452"><ele>420.0</ele><time>2026-05-03T07:40:04Z</time></trkpt><trkpt lat="39.82510852607369" lon="8.822011393220846"><ele>419.00000000000006</ele><time>2026-05-03T07:40:04.999Z</time></trkpt><trkpt lat="39.825010632433255" lon="8.822018578714419"><ele>418.0</ele><time>2026-05-03T07:40:05.999Z</time></trkpt><trkpt lat="39.824903938575446" lon="8.821998979115444"><ele>418.0</ele><time>2026-05-03T07:40:06.999Z</time></trkpt><trkpt lat="39.824806794877055" lon="8.82196671970402"><ele>418.0</ele><time>2026-05-03T07:40:07.999Z</time></trkpt><trkpt lat="39.824727672347336" lon="8.821914517692887"><ele>418.0</ele><time>2026-05-03T07:40:08.999Z</time></trkpt><trkpt lat="39.824642534066165" lon="8.82184924466881"><ele>418.0</ele><time>2026-05-03T07:40:09.999Z</time></trkpt><trkpt lat="39.82454839217016" lon="8.821766003517986"><ele>418.0</ele><time>2026-05-03T07:40:10.999Z</time></trkpt><trkpt lat="39.824449274104005" lon="8.821679129731567"><ele>421.0</ele><time>2026-05-03T07:40:11.999Z</time></trkpt><trkpt lat="39.82433112714211" lon="8.821611179402005"><ele>424.0</ele><time>2026-05-03T07:40:12.999Z</time></trkpt><trkpt lat="39.824195095880974" lon="8.821563318514636"><ele>427.0</ele><time>2026-05-03T07:40:13.999Z</time></trkpt><trkpt lat="39.82405584829257" lon="8.82151660444487"><ele>430.0</ele><time>2026-05-03T07:40:14.999Z</time></trkpt><trkpt lat="39.823915342015354" lon="8.821471974123408"><ele>430.0</ele><time>2026-05-03T07:40:15.999Z</time></trkpt><trkpt lat="39.82378793495196" lon="8.82145055375894"><ele>430.0</ele><time>2026-05-03T07:40:16.999Z</time></trkpt><trkpt lat="39.823670406863954" lon="8.821464287894603"><ele>430.0</ele><time>2026-05-03T07:40:17.999Z</time></trkpt><trkpt lat="39.82355698873604" lon="8.821497729155064"><ele>430.0</ele><time>2026-05-03T07:40:18.999Z</time></trkpt><trkpt lat="39.823438571361024" lon="8.821559086935086"><ele>430.2</ele><time>2026-05-03T07:40:19.999Z</time></trkpt><trkpt lat="39.82331475963121" lon="8.821624943030526"><ele>430.4</ele><time>2026-05-03T07:40:20.999Z</time></trkpt><trkpt lat="39.82320021390584" lon="8.821679570852174"><ele>430.6</ele><time>2026-05-03T07:40:21.999Z</time></trkpt><trkpt lat="39.82310820718361" lon="8.821703465158581"><ele>430.8</ele><time>2026-05-03T07:40:22.999Z</time></trkpt><trkpt lat="39.82302639172447" lon="8.8216964687225"><ele>431.0</ele><time>2026-05-03T07:40:23.999Z</time></trkpt><trkpt lat="39.82291494807445" lon="8.821687345335786"><ele>431.0</ele><time>2026-05-03T07:40:24.999Z</time></trkpt><trkpt lat="39.82278663707706" lon="8.821676088942223"><ele>431.0</ele><time>2026-05-03T07:40:25.999Z</time></trkpt><trkpt lat="39.82267687301881" lon="8.821662252479674"><ele>431.0</ele><time>2026-05-03T07:40:26.999Z</time></trkpt><trkpt lat="39.82257575413572" lon="8.821629321465746"><ele>431.0</ele><time>2026-05-03T07:40:27.999Z</time></trkpt><trkpt lat="39.82246500345208" lon="8.821565779363882"><ele>430.75</ele><time>2026-05-03T07:40:28.999Z</time></trkpt><trkpt lat="39.8223285949943" lon="8.821518000166844"><ele>430.5</ele><time>2026-05-03T07:40:29.999Z</time></trkpt><trkpt lat="39.82220082464957" lon="8.821516992876335"><ele>430.25</ele><time>2026-05-03T07:40:30.999Z</time></trkpt><trkpt lat="39.822072212747386" lon="8.821546481868129"><ele>430.0</ele><time>2026-05-03T07:40:31.999Z</time></trkpt><trkpt lat="39.821938150036694" lon="8.821587737257873"><ele>430.75</ele><time>2026-05-03T07:40:32.999Z</time></trkpt><trkpt lat="39.821797877465414" lon="8.821623076870017"><ele>431.5</ele><time>2026-05-03T07:40:33.999Z</time></trkpt><trkpt lat="39.82167155984593" lon="8.82169598750862"><ele>432.25</ele><time>2026-05-03T07:40:34.999Z</time></trkpt><trkpt lat="39.82153802419765" lon="8.821778812630088"><ele>433.0</ele><time>2026-05-03T07:40:35.999Z</time></trkpt><trkpt lat="39.82139725482895" lon="8.821872402059102"><ele>432.0</ele><time>2026-05-03T07:40:36.999Z</time></trkpt><trkpt lat="39.821269024481474" lon="8.821969698268196"><ele>431.0</ele><time>2026-05-03T07:40:37.999Z</time></trkpt><trkpt lat="39.82115414886161" lon="8.822033087611368"><ele>430.0</ele><time>2026-05-03T07:40:38.999Z</time></trkpt><trkpt lat="39.821030830554115" lon="8.822091550004611"><ele>429.0</ele><time>2026-05-03T07:40:39.999Z</time></trkpt><trkpt lat="39.82088932904937" lon="8.822139035161866"><ele>429.0</ele><time>2026-05-03T07:40:40.999Z</time></trkpt><trkpt lat="39.82074632341177" lon="8.822185768022601"><ele>429.0</ele><time>2026-05-03T07:40:41.999Z</time></trkpt><trkpt lat="39.820626730255704" lon="8.822220307005063"><ele>429.0</ele><time>2026-05-03T07:40:42.999Z</time></trkpt><trkpt lat="39.82051302488754" lon="8.822272883939727"><ele>429.0</ele><time>2026-05-03T07:40:43.999Z</time></trkpt><trkpt lat="39.82040692360877" lon="8.822382235865911"><ele>429.0</ele><time>2026-05-03T07:40:44.999Z</time></trkpt><trkpt lat="39.8203118548517" lon="8.822514939316184"><ele>429.0</ele><time>2026-05-03T07:40:45.999Z</time></trkpt><trkpt lat="39.82022958573716" lon="8.822668606019585"><ele>429.0</ele><time>2026-05-03T07:40:46.999Z</time></trkpt><trkpt lat="39.82015517422446" lon="8.822837882406649"><ele>429.0</ele><time>2026-05-03T07:40:47.999Z</time></trkpt><trkpt lat="39.82007729981852" lon="8.823009655364821"><ele>429.2</ele><time>2026-05-03T07:40:48.999Z</time></trkpt><trkpt lat="39.82000654139615" lon="8.823135974449452"><ele>429.4</ele><time>2026-05-03T07:40:49.999Z</time></trkpt><trkpt lat="39.81993690436785" lon="8.823199352816513"><ele>429.6</ele><time>2026-05-03T07:40:50.999Z</time></trkpt><trkpt lat="39.8198646101963" lon="8.823241717741292"><ele>429.8</ele><time>2026-05-03T07:40:51.999Z</time></trkpt><trkpt lat="39.819783479304256" lon="8.823277798976681"><ele>430.0</ele><time>2026-05-03T07:40:52.999Z</time></trkpt><trkpt lat="39.81969409053725" lon="8.823292056590745"><ele>430.0</ele><time>2026-05-03T07:40:53.999Z</time></trkpt><trkpt lat="39.81958739515715" lon="8.823306833122933"><ele>430.0</ele><time>2026-05-03T07:40:54.999Z</time></trkpt><trkpt lat="39.81947437803071" lon="8.823306820071295"><ele>430.0</ele><time>2026-05-03T07:40:55.999Z</time></trkpt><trkpt lat="39.81937680260412" lon="8.823271364444784"><ele>430.0</ele><time>2026-05-03T07:40:56.999Z</time></trkpt><trkpt lat="39.81930354338867" lon="8.823263667865175"><ele>430.0</ele><time>2026-05-03T07:40:57.999Z</time></trkpt><trkpt lat="39.81926275983465" lon="8.823330727565809"><ele>430.1666666666667</ele><time>2026-05-03T07:40:58.999Z</time></trkpt><trkpt lat="39.81919444848999" lon="8.823340357497447"><ele>430.33333333333337</ele><time>2026-05-03T07:41:00.999Z</time></trkpt><trkpt lat="39.81911685210444" lon="8.823312692942823"><ele>430.5</ele><time>2026-05-03T07:41:02.999Z</time></trkpt><trkpt lat="39.81905260701636" lon="8.823282768327307"><ele>430.66666666666663</ele><time>2026-05-03T07:41:03.999Z</time></trkpt><trkpt lat="39.81897005192874" lon="8.823296785755781"><ele>430.8333333333333</ele><time>2026-05-03T07:41:04.999Z</time></trkpt><trkpt lat="39.81887378941114" lon="8.823296785750493"><ele>431.0</ele><time>2026-05-03T07:41:05.998Z</time></trkpt><trkpt lat="39.81887579234914" lon="8.823439016920611"><ele>429.0</ele><time>2026-05-03T07:41:06.998Z</time></trkpt><trkpt lat="39.81875644345018" lon="8.823482264153535"><ele>427.0</ele><time>2026-05-03T07:41:07.998Z</time></trkpt><trkpt lat="39.81846899994039" lon="8.822997253667289"><ele>427.0</ele><time>2026-05-03T07:41:08.998Z</time></trkpt><trkpt lat="39.81834604028422" lon="8.822935086897992"><ele>427.0</ele><time>2026-05-03T07:41:09.998Z</time></trkpt><trkpt lat="39.81823243182778" lon="8.822878193411688"><ele>427.0</ele><time>2026-05-03T07:41:10.998Z</time></trkpt><trkpt lat="39.81811894523713" lon="8.822812909292622"><ele>427.0</ele><time>2026-05-03T07:41:11.998Z</time></trkpt><trkpt lat="39.8180031665845" lon="8.822745325952935"><ele>427.0</ele><time>2026-05-03T07:41:12.998Z</time></trkpt><trkpt lat="39.81790778258239" lon="8.822676005819627"><ele>427.00000000000006</ele><time>2026-05-03T07:41:13.998Z</time></trkpt><trkpt lat="39.81782623554235" lon="8.822601570169047"><ele>427.00000000000006</ele><time>2026-05-03T07:41:14.998Z</time></trkpt><trkpt lat="39.81776347137719" lon="8.822514143555395"><ele>427.0</ele><time>2026-05-03T07:41:15.998Z</time></trkpt><trkpt lat="39.81769484143347" lon="8.82241469391302"><ele>427.0</ele><time>2026-05-03T07:41:16.998Z</time></trkpt><trkpt lat="39.81760238447901" lon="8.82233096640173"><ele>427.25</ele><time>2026-05-03T07:41:17.998Z</time></trkpt><trkpt lat="39.8174942808588" lon="8.822219859176174"><ele>427.5</ele><time>2026-05-03T07:41:18.998Z</time></trkpt><trkpt lat="39.81740641617165" lon="8.822077092611277"><ele>427.75</ele><time>2026-05-03T07:41:19.998Z</time></trkpt><trkpt lat="39.817336584260495" lon="8.821924831299617"><ele>428.0</ele><time>2026-05-03T07:41:20.998Z</time></trkpt><trkpt lat="39.81727911319389" lon="8.82172593841996"><ele>429.66666666666663</ele><time>2026-05-03T07:41:21.998Z</time></trkpt><trkpt lat="39.81722803977797" lon="8.821491871311512"><ele>431.33333333333337</ele><time>2026-05-03T07:41:22.998Z</time></trkpt><trkpt lat="39.81718646259953" lon="8.821271747849341"><ele>433.0</ele><time>2026-05-03T07:41:23.998Z</time></trkpt><trkpt lat="39.8171544770344" lon="8.821093188838182"><ele>433.0</ele><time>2026-05-03T07:41:24.998Z</time></trkpt><trkpt lat="39.817112769243096" lon="8.820923842653055"><ele>433.0</ele><time>2026-05-03T07:41:25.998Z</time></trkpt><trkpt lat="39.8170601777209" lon="8.820731691008747"><ele>433.0</ele><time>2026-05-03T07:41:26.998Z</time></trkpt><trkpt lat="39.81702438335253" lon="8.820574426337084"><ele>433.0</ele><time>2026-05-03T07:41:27.998Z</time></trkpt><trkpt lat="39.81699032909186" lon="8.820436282889641"><ele>433.0</ele><time>2026-05-03T07:41:28.998Z</time></trkpt><trkpt lat="39.816964727600556" lon="8.820296603045236"><ele>433.0</ele><time>2026-05-03T07:41:29.998Z</time></trkpt><trkpt lat="39.816924446123735" lon="8.820158812001342"><ele>433.0</ele><time>2026-05-03T07:41:30.998Z</time></trkpt><trkpt lat="39.81688609235662" lon="8.820010012874373"><ele>433.0</ele><time>2026-05-03T07:41:31.998Z</time></trkpt><trkpt lat="39.81685631753125" lon="8.819853837352703"><ele>432.5</ele><time>2026-05-03T07:41:32.998Z</time></trkpt><trkpt lat="39.81681259602883" lon="8.819703499089089"><ele>432.0</ele><time>2026-05-03T07:41:33.998Z</time></trkpt><trkpt lat="39.81676356891429" lon="8.819529219186515"><ele>431.5</ele><time>2026-05-03T07:41:34.998Z</time></trkpt><trkpt lat="39.81672757147528" lon="8.819356815356834"><ele>431.0</ele><time>2026-05-03T07:41:35.998Z</time></trkpt><trkpt lat="39.816699925611196" lon="8.819182777751973"><ele>430.6</ele><time>2026-05-03T07:41:36.998Z</time></trkpt><trkpt lat="39.81668065577971" lon="8.819020419321694"><ele>430.20000000000005</ele><time>2026-05-03T07:41:37.998Z</time></trkpt><trkpt lat="39.81666099357735" lon="8.818889304454832"><ele>429.79999999999995</ele><time>2026-05-03T07:41:38.998Z</time></trkpt><trkpt lat="39.81664643635258" lon="8.818772555835759"><ele>429.4</ele><time>2026-05-03T07:41:39.998Z</time></trkpt><trkpt lat="39.816647936235356" lon="8.818670287946233"><ele>429.0</ele><time>2026-05-03T07:41:40.998Z</time></trkpt><trkpt lat="39.81666450877681" lon="8.818569479558045"><ele>428.2</ele><time>2026-05-03T07:41:41.998Z</time></trkpt><trkpt lat="39.81669958346575" lon="8.818474865787651"><ele>427.4</ele><time>2026-05-03T07:41:42.998Z</time></trkpt><trkpt lat="39.81677278238556" lon="8.818368731989496"><ele>426.6</ele><time>2026-05-03T07:41:43.998Z</time></trkpt><trkpt lat="39.816858094975984" lon="8.818255891042345"><ele>425.8</ele><time>2026-05-03T07:41:44.998Z</time></trkpt><trkpt lat="39.81691298912333" lon="8.81814553340547"><ele>425.0</ele><time>2026-05-03T07:41:45.998Z</time></trkpt><trkpt lat="39.81692135699892" lon="8.818013422341703"><ele>427.0</ele><time>2026-05-03T07:41:46.998Z</time></trkpt><trkpt lat="39.81693324346823" lon="8.817845696647364"><ele>429.0</ele><time>2026-05-03T07:41:48Z</time></trkpt><trkpt lat="39.81696342335596" lon="8.817696145444982"><ele>431.0</ele><time>2026-05-03T07:41:49Z</time></trkpt><trkpt lat="39.816984611441825" lon="8.817575524713057"><ele>433.0</ele><time>2026-05-03T07:41:50Z</time></trkpt><trkpt lat="39.81697935752986" lon="8.817419238373498"><ele>433.0</ele><time>2026-05-03T07:41:51Z</time></trkpt><trkpt lat="39.81697716264647" lon="8.817259471280359"><ele>433.0</ele><time>2026-05-03T07:41:52Z</time></trkpt><trkpt lat="39.81700273095559" lon="8.817121785032551"><ele>433.0</ele><time>2026-05-03T07:41:53Z</time></trkpt><trkpt lat="39.81703721019567" lon="8.816977035702246"><ele>433.0</ele><time>2026-05-03T07:41:54Z</time></trkpt><trkpt lat="39.81707526624072" lon="8.816825500477536"><ele>432.59999999999997</ele><time>2026-05-03T07:41:55Z</time></trkpt><trkpt lat="39.8170953847639" lon="8.816680745735399"><ele>432.19999999999993</ele><time>2026-05-03T07:41:56Z</time></trkpt><trkpt lat="39.81710250714214" lon="8.816545206135329"><ele>431.8</ele><time>2026-05-03T07:41:57Z</time></trkpt><trkpt lat="39.81710921560084" lon="8.81640006244868"><ele>431.4</ele><time>2026-05-03T07:41:58Z</time></trkpt><trkpt lat="39.81712316583397" lon="8.81626085630172"><ele>431.0</ele><time>2026-05-03T07:41:59Z</time></trkpt><trkpt lat="39.817137911349505" lon="8.816124990446552"><ele>431.0</ele><time>2026-05-03T07:42:00Z</time></trkpt><trkpt lat="39.817148169342076" lon="8.815989314875065"><ele>431.0</ele><time>2026-05-03T07:42:01Z</time></trkpt><trkpt lat="39.817148858868016" lon="8.81583806689882"><ele>431.0</ele><time>2026-05-03T07:42:02Z</time></trkpt><trkpt lat="39.817130969153034" lon="8.815690504160845"><ele>431.0</ele><time>2026-05-03T07:42:03Z</time></trkpt><trkpt lat="39.817115465490836" lon="8.815538033485113"><ele>431.25</ele><time>2026-05-03T07:42:04Z</time></trkpt><trkpt lat="39.817109693230044" lon="8.815388241249149"><ele>431.5</ele><time>2026-05-03T07:42:05Z</time></trkpt><trkpt lat="39.81711361637437" lon="8.81523027836261"><ele>431.75</ele><time>2026-05-03T07:42:06Z</time></trkpt><trkpt lat="39.81712612554295" lon="8.815069743657737"><ele>432.0</ele><time>2026-05-03T07:42:07Z</time></trkpt><trkpt lat="39.817133163855445" lon="8.814909980617266"><ele>432.0</ele><time>2026-05-03T07:42:08Z</time></trkpt><trkpt lat="39.81714767714609" lon="8.814732548453055"><ele>432.0</ele><time>2026-05-03T07:42:08.999Z</time></trkpt><trkpt lat="39.817165451041774" lon="8.814555135184014"><ele>432.0</ele><time>2026-05-03T07:42:09.999Z</time></trkpt><trkpt lat="39.817179644549725" lon="8.814350543030049"><ele>432.0</ele><time>2026-05-03T07:42:10.999Z</time></trkpt><trkpt lat="39.81719055903721" lon="8.814138096400836"><ele>431.5</ele><time>2026-05-03T07:42:11.999Z</time></trkpt><trkpt lat="39.8172037067413" lon="8.81392504623141"><ele>431.0</ele><time>2026-05-03T07:42:12.999Z</time></trkpt><trkpt lat="39.817218234991195" lon="8.813731030334994"><ele>430.5</ele><time>2026-05-03T07:42:13.999Z</time></trkpt><trkpt lat="39.817222245981164" lon="8.813561176477569"><ele>430.0</ele><time>2026-05-03T07:42:14.999Z</time></trkpt><trkpt lat="39.81722829827619" lon="8.813387755977313"><ele>430.0</ele><time>2026-05-03T07:42:15.999Z</time></trkpt><trkpt lat="39.817239665852455" lon="8.813189735136332"><ele>430.0</ele><time>2026-05-03T07:42:16.999Z</time></trkpt><trkpt lat="39.81724693104208" lon="8.813003608760464"><ele>430.0</ele><time>2026-05-03T07:42:17.999Z</time></trkpt><trkpt lat="39.817249596142254" lon="8.812809862519366"><ele>430.0</ele><time>2026-05-03T07:42:18.999Z</time></trkpt><trkpt lat="39.81724948814436" lon="8.812614699285463"><ele>430.33333333333337</ele><time>2026-05-03T07:42:19.999Z</time></trkpt><trkpt lat="39.81724608537799" lon="8.812405795308191"><ele>430.66666666666663</ele><time>2026-05-03T07:42:20.999Z</time></trkpt><trkpt lat="39.81724248593657" lon="8.812170976759656"><ele>431.0</ele><time>2026-05-03T07:42:21.999Z</time></trkpt><trkpt lat="39.81724324078609" lon="8.81195641367554"><ele>430.75</ele><time>2026-05-03T07:42:22.999Z</time></trkpt><trkpt lat="39.817251045464666" lon="8.811781648371781"><ele>430.5</ele><time>2026-05-03T07:42:23.999Z</time></trkpt><trkpt lat="39.81726355735657" lon="8.811608386315456"><ele>430.25</ele><time>2026-05-03T07:42:24.999Z</time></trkpt><trkpt lat="39.817276089670735" lon="8.811424287282293"><ele>430.0</ele><time>2026-05-03T07:42:25.999Z</time></trkpt><trkpt lat="39.817288826879654" lon="8.811220811888054"><ele>430.0</ele><time>2026-05-03T07:42:26.999Z</time></trkpt><trkpt lat="39.81730743362449" lon="8.810997457003484"><ele>430.0</ele><time>2026-05-03T07:42:27.999Z</time></trkpt><trkpt lat="39.81732679620307" lon="8.81080422597259"><ele>430.0</ele><time>2026-05-03T07:42:28.999Z</time></trkpt><trkpt lat="39.81733601341804" lon="8.810626589842286"><ele>430.5</ele><time>2026-05-03T07:42:29.999Z</time></trkpt><trkpt lat="39.817360527797035" lon="8.81044530063777"><ele>431.0</ele><time>2026-05-03T07:42:30.999Z</time></trkpt><trkpt lat="39.817400211276606" lon="8.810287753626117"><ele>431.5</ele><time>2026-05-03T07:42:31.999Z</time></trkpt><trkpt lat="39.81745460880723" lon="8.810131723810159"><ele>432.0</ele><time>2026-05-03T07:42:32.999Z</time></trkpt><trkpt lat="39.81748974359165" lon="8.809983858985184"><ele>432.1666666666667</ele><time>2026-05-03T07:42:33.999Z</time></trkpt><trkpt lat="39.817512215341516" lon="8.809842317899744"><ele>432.33333333333337</ele><time>2026-05-03T07:42:34.999Z</time></trkpt><trkpt lat="39.817537271271775" lon="8.80971571946241"><ele>432.5</ele><time>2026-05-03T07:42:35.999Z</time></trkpt><trkpt lat="39.817561955405566" lon="8.809612571258166"><ele>432.6666666666667</ele><time>2026-05-03T07:42:36.999Z</time></trkpt><trkpt lat="39.817543950778834" lon="8.80952100067348"><ele>432.83333333333337</ele><time>2026-05-03T07:42:37.999Z</time></trkpt><trkpt lat="39.81750103258988" lon="8.809442195984028"><ele>433.0</ele><time>2026-05-03T07:42:38.999Z</time></trkpt><trkpt lat="39.81744512237935" lon="8.809379493257"><ele>432.85714285714283</ele><time>2026-05-03T07:42:39.999Z</time></trkpt><trkpt lat="39.8173723937486" lon="8.809324334604094"><ele>432.7142857142857</ele><time>2026-05-03T07:42:40.999Z</time></trkpt><trkpt lat="39.81731212657548" lon="8.809254681728786"><ele>432.57142857142856</ele><time>2026-05-03T07:42:41.999Z</time></trkpt><trkpt lat="39.81726702288106" lon="8.809191712262642"><ele>432.42857142857144</ele><time>2026-05-03T07:42:42.999Z</time></trkpt><trkpt lat="39.81723790585767" lon="8.809110773884575"><ele>432.2857142857143</ele><time>2026-05-03T07:42:43.999Z</time></trkpt><trkpt lat="39.81721502706715" lon="8.8090182902747"><ele>432.1428571428571</ele><time>2026-05-03T07:42:44.999Z</time></trkpt><trkpt lat="39.817200861834564" lon="8.808925883127596"><ele>432.0</ele><time>2026-05-03T07:42:45.999Z</time></trkpt><trkpt lat="39.81719739165104" lon="8.80883386809658"><ele>432.0</ele><time>2026-05-03T07:42:46.999Z</time></trkpt><trkpt lat="39.817198459316764" lon="8.80873859609706"><ele>432.0</ele><time>2026-05-03T07:42:47.999Z</time></trkpt><trkpt lat="39.81720834797869" lon="8.808633752672472"><ele>432.0</ele><time>2026-05-03T07:42:48.999Z</time></trkpt><trkpt lat="39.8172181062738" lon="8.80852524344878"><ele>432.0</ele><time>2026-05-03T07:42:49.999Z</time></trkpt><trkpt lat="39.817227533982205" lon="8.808413530883989"><ele>432.0</ele><time>2026-05-03T07:42:50.999Z</time></trkpt><trkpt lat="39.81723728040805" lon="8.808297567337151"><ele>432.0</ele><time>2026-05-03T07:42:51.999Z</time></trkpt><trkpt lat="39.817246028549384" lon="8.808185080689812"><ele>432.1428571428571</ele><time>2026-05-03T07:42:52.999Z</time></trkpt><trkpt lat="39.817252218080114" lon="8.808094764807219"><ele>432.2857142857143</ele><time>2026-05-03T07:42:53.999Z</time></trkpt><trkpt lat="39.81725810176558" lon="8.808008972584362"><ele>432.42857142857144</ele><time>2026-05-03T07:42:54.999Z</time></trkpt><trkpt lat="39.81726825118703" lon="8.807914347069278"><ele>432.57142857142856</ele><time>2026-05-03T07:42:55.999Z</time></trkpt><trkpt lat="39.817280585538434" lon="8.807816966465797"><ele>432.7142857142857</ele><time>2026-05-03T07:42:56.999Z</time></trkpt><trkpt lat="39.81728858832738" lon="8.807715171771022"><ele>432.85714285714283</ele><time>2026-05-03T07:42:57.999Z</time></trkpt><trkpt lat="39.81729917764572" lon="8.807612920145063"><ele>433.0</ele><time>2026-05-03T07:42:58.999Z</time></trkpt><trkpt lat="39.817310468025134" lon="8.807507443204601"><ele>433.59999999999997</ele><time>2026-05-03T07:42:59.999Z</time></trkpt><trkpt lat="39.81732110962815" lon="8.807395008859913"><ele>434.19999999999993</ele><time>2026-05-03T07:43:00.999Z</time></trkpt><trkpt lat="39.81733143875391" lon="8.80727696860776"><ele>434.8</ele><time>2026-05-03T07:43:01.999Z</time></trkpt><trkpt lat="39.81733841402881" lon="8.807154686766358"><ele>435.4</ele><time>2026-05-03T07:43:02.999Z</time></trkpt><trkpt lat="39.81734157115339" lon="8.807029633701038"><ele>436.0</ele><time>2026-05-03T07:43:03.999Z</time></trkpt><trkpt lat="39.8173448582452" lon="8.806898275721613"><ele>437.6</ele><time>2026-05-03T07:43:04.999Z</time></trkpt><trkpt lat="39.81734368674581" lon="8.806749415166534"><ele>439.20000000000005</ele><time>2026-05-03T07:43:05.999Z</time></trkpt><trkpt lat="39.8173301711064" lon="8.806604395738503"><ele>440.79999999999995</ele><time>2026-05-03T07:43:06.999Z</time></trkpt><trkpt lat="39.81730088750409" lon="8.806464351630106"><ele>442.4</ele><time>2026-05-03T07:43:07.999Z</time></trkpt><trkpt lat="39.81726612504189" lon="8.8063318212802"><ele>444.0</ele><time>2026-05-03T07:43:08.998Z</time></trkpt><trkpt lat="39.817237406803464" lon="8.806209432988604"><ele>444.0</ele><time>2026-05-03T07:43:09.998Z</time></trkpt><trkpt lat="39.817205116755595" lon="8.806085220676916"><ele>444.0</ele><time>2026-05-03T07:43:10.998Z</time></trkpt><trkpt lat="39.81717048414408" lon="8.805951635282582"><ele>444.0</ele><time>2026-05-03T07:43:11.998Z</time></trkpt><trkpt lat="39.81715366937711" lon="8.805807493676378"><ele>444.0</ele><time>2026-05-03T07:43:12.998Z</time></trkpt><trkpt lat="39.81714772288053" lon="8.805643263205726"><ele>444.0</ele><time>2026-05-03T07:43:13.998Z</time></trkpt><trkpt lat="39.817151246038776" lon="8.805459107342381"><ele>445.79999999999995</ele><time>2026-05-03T07:43:14.998Z</time></trkpt><trkpt lat="39.81715203942536" lon="8.805297266525457"><ele>447.59999999999997</ele><time>2026-05-03T07:43:15.998Z</time></trkpt><trkpt lat="39.81715683633283" lon="8.805153693663753"><ele>449.4</ele><time>2026-05-03T07:43:16.998Z</time></trkpt><trkpt lat="39.81715813468845" lon="8.805025964840617"><ele>451.2</ele><time>2026-05-03T07:43:17.998Z</time></trkpt><trkpt lat="39.81716997082331" lon="8.80490184165872"><ele>453.0</ele><time>2026-05-03T07:43:18.998Z</time></trkpt><trkpt lat="39.81719678091926" lon="8.804768429946172"><ele>454.25</ele><time>2026-05-03T07:43:19.998Z</time></trkpt><trkpt lat="39.817231534782614" lon="8.804625400210638"><ele>455.5</ele><time>2026-05-03T07:43:20.998Z</time></trkpt><trkpt lat="39.8172656411699" lon="8.804458691735203"><ele>456.75</ele><time>2026-05-03T07:43:21.998Z</time></trkpt><trkpt lat="39.81729789397025" lon="8.804306483551512"><ele>458.0</ele><time>2026-05-03T07:43:22.998Z</time></trkpt><trkpt lat="39.81733504809359" lon="8.804150450806288"><ele>458.5</ele><time>2026-05-03T07:43:23.998Z</time></trkpt><trkpt lat="39.81738148660222" lon="8.803981510248489"><ele>459.0</ele><time>2026-05-03T07:43:24.998Z</time></trkpt><trkpt lat="39.81742200021236" lon="8.803799001940058"><ele>459.5</ele><time>2026-05-03T07:43:25.998Z</time></trkpt><trkpt lat="39.817463649296826" lon="8.80362327370144"><ele>460.0</ele><time>2026-05-03T07:43:26.998Z</time></trkpt><trkpt lat="39.81751259740544" lon="8.803455428192768"><ele>460.5</ele><time>2026-05-03T07:43:27.998Z</time></trkpt><trkpt lat="39.817572741818445" lon="8.80327838035827"><ele>461.0</ele><time>2026-05-03T07:43:28.998Z</time></trkpt><trkpt lat="39.817618373467596" lon="8.803124994200347"><ele>461.5</ele><time>2026-05-03T07:43:29.998Z</time></trkpt><trkpt lat="39.81763171516489" lon="8.803004351164448"><ele>462.0</ele><time>2026-05-03T07:43:30.998Z</time></trkpt><trkpt lat="39.81762788343962" lon="8.802890010960569"><ele>462.0</ele><time>2026-05-03T07:43:31.998Z</time></trkpt><trkpt lat="39.81760340658064" lon="8.80273832244279"><ele>462.0</ele><time>2026-05-03T07:43:32.998Z</time></trkpt><trkpt lat="39.81759001277952" lon="8.8025635289574"><ele>462.0</ele><time>2026-05-03T07:43:33.998Z</time></trkpt><trkpt lat="39.817614713857026" lon="8.802392043464332"><ele>462.0</ele><time>2026-05-03T07:43:34.998Z</time></trkpt><trkpt lat="39.81764666536172" lon="8.802224160745224"><ele>462.75</ele><time>2026-05-03T07:43:35.998Z</time></trkpt><trkpt lat="39.81767410814956" lon="8.802084374912868"><ele>463.5</ele><time>2026-05-03T07:43:36.998Z</time></trkpt><trkpt lat="39.817713072488154" lon="8.801917357101518"><ele>464.25</ele><time>2026-05-03T07:43:37.998Z</time></trkpt><trkpt lat="39.817742194138" lon="8.801731586817203"><ele>465.0</ele><time>2026-05-03T07:43:38.998Z</time></trkpt><trkpt lat="39.817744831421685" lon="8.801556526109552"><ele>466.0</ele><time>2026-05-03T07:43:39.998Z</time></trkpt><trkpt lat="39.81774627008983" lon="8.801385256569406"><ele>467.0</ele><time>2026-05-03T07:43:40.998Z</time></trkpt><trkpt lat="39.81775434493045" lon="8.801221101712821"><ele>468.0</ele><time>2026-05-03T07:43:41.998Z</time></trkpt><trkpt lat="39.81776457059751" lon="8.80106397283574"><ele>469.0</ele><time>2026-05-03T07:43:42.998Z</time></trkpt><trkpt lat="39.817766421475056" lon="8.80091982055005"><ele>469.2</ele><time>2026-05-03T07:43:43.998Z</time></trkpt><trkpt lat="39.81774835427628" lon="8.800786609878308"><ele>469.4</ele><time>2026-05-03T07:43:44.998Z</time></trkpt><trkpt lat="39.817706743520766" lon="8.800661863782741"><ele>469.6</ele><time>2026-05-03T07:43:45.998Z</time></trkpt><trkpt lat="39.81767386940595" lon="8.800539313007379"><ele>469.8</ele><time>2026-05-03T07:43:46.998Z</time></trkpt><trkpt lat="39.81765865705157" lon="8.800395070159391"><ele>470.0</ele><time>2026-05-03T07:43:47.998Z</time></trkpt><trkpt lat="39.81764647678638" lon="8.800233857581189"><ele>471.0</ele><time>2026-05-03T07:43:48.998Z</time></trkpt><trkpt lat="39.8176531905024" lon="8.800054844524661"><ele>472.0</ele><time>2026-05-03T07:43:49.998Z</time></trkpt><trkpt lat="39.817669998571894" lon="8.799854794274825"><ele>473.0</ele><time>2026-05-03T07:43:50.998Z</time></trkpt><trkpt lat="39.81768006687731" lon="8.79961981336966"><ele>473.0</ele><time>2026-05-03T07:43:51.998Z</time></trkpt><trkpt lat="39.817671415177855" lon="8.799358621753278"><ele>473.0</ele><time>2026-05-03T07:43:52.998Z</time></trkpt><trkpt lat="39.817655893636925" lon="8.799096253298659"><ele>473.0</ele><time>2026-05-03T07:43:54Z</time></trkpt><trkpt lat="39.81763774130305" lon="8.79888350117885"><ele>472.5</ele><time>2026-05-03T07:43:55Z</time></trkpt><trkpt lat="39.81760262662577" lon="8.79871232136274"><ele>472.0</ele><time>2026-05-03T07:43:56Z</time></trkpt><trkpt lat="39.81754824256105" lon="8.79859646146575"><ele>471.5</ele><time>2026-05-03T07:43:57Z</time></trkpt><trkpt lat="39.81747759933575" lon="8.7984605387977"><ele>471.0</ele><time>2026-05-03T07:43:58Z</time></trkpt><trkpt lat="39.81740910792118" lon="8.798286353011227"><ele>471.0</ele><time>2026-05-03T07:43:59Z</time></trkpt><trkpt lat="39.81734059700754" lon="8.79811829290898"><ele>471.0</ele><time>2026-05-03T07:44:00Z</time></trkpt><trkpt lat="39.817264968637566" lon="8.797949737993873"><ele>471.0</ele><time>2026-05-03T07:44:01Z</time></trkpt><trkpt lat="39.81719263614772" lon="8.797796552811839"><ele>471.0</ele><time>2026-05-03T07:44:02Z</time></trkpt><trkpt lat="39.81713385972796" lon="8.79764622520745"><ele>472.5</ele><time>2026-05-03T07:44:03Z</time></trkpt><trkpt lat="39.81709282440394" lon="8.797480565191533"><ele>474.0</ele><time>2026-05-03T07:44:04Z</time></trkpt><trkpt lat="39.817069291464925" lon="8.79730619832392"><ele>475.5</ele><time>2026-05-03T07:44:05Z</time></trkpt><trkpt lat="39.81705665828985" lon="8.79713356508017"><ele>477.0</ele><time>2026-05-03T07:44:06Z</time></trkpt><trkpt lat="39.81702743336316" lon="8.796951162069439"><ele>477.75</ele><time>2026-05-03T07:44:07Z</time></trkpt><trkpt lat="39.81699813522819" lon="8.796781856991737"><ele>478.5</ele><time>2026-05-03T07:44:08Z</time></trkpt><trkpt lat="39.81698664740846" lon="8.796621154612701"><ele>479.25</ele><time>2026-05-03T07:44:09Z</time></trkpt><trkpt lat="39.81699055990028" lon="8.796437041171059"><ele>480.0</ele><time>2026-05-03T07:44:10Z</time></trkpt><trkpt lat="39.816992800903975" lon="8.796236460541014"><ele>480.0</ele><time>2026-05-03T07:44:11Z</time></trkpt><trkpt lat="39.81699301719348" lon="8.796039802358164"><ele>480.0</ele><time>2026-05-03T07:44:11.999Z</time></trkpt><trkpt lat="39.8169794356604" lon="8.795881582956232"><ele>480.0</ele><time>2026-05-03T07:44:12.999Z</time></trkpt><trkpt lat="39.81694377129683" lon="8.795755541565656"><ele>480.0</ele><time>2026-05-03T07:44:13.999Z</time></trkpt><trkpt lat="39.81687703680471" lon="8.795639964154882"><ele>477.25</ele><time>2026-05-03T07:44:14.999Z</time></trkpt><trkpt lat="39.816778685978186" lon="8.79551577645802"><ele>474.5</ele><time>2026-05-03T07:44:15.999Z</time></trkpt><trkpt lat="39.81668607219347" lon="8.795431287693999"><ele>471.75</ele><time>2026-05-03T07:44:16.999Z</time></trkpt><trkpt lat="39.816583694102874" lon="8.795358266131979"><ele>469.0</ele><time>2026-05-03T07:44:17.999Z</time></trkpt><trkpt lat="39.81645277017238" lon="8.795272957958446"><ele>471.25</ele><time>2026-05-03T07:44:18.999Z</time></trkpt><trkpt lat="39.816334767077514" lon="8.795136660927726"><ele>473.5</ele><time>2026-05-03T07:44:19.999Z</time></trkpt><trkpt lat="39.81623499696447" lon="8.795026293779875"><ele>475.75</ele><time>2026-05-03T07:44:20.999Z</time></trkpt><trkpt lat="39.81616642230976" lon="8.794927329204643"><ele>478.0</ele><time>2026-05-03T07:44:21.999Z</time></trkpt><trkpt lat="39.81611319713659" lon="8.794817504217376"><ele>478.0</ele><time>2026-05-03T07:44:22.999Z</time></trkpt><trkpt lat="39.816068671469296" lon="8.794698593021021"><ele>478.0</ele><time>2026-05-03T07:44:23.999Z</time></trkpt><trkpt lat="39.816030705997306" lon="8.794572689672176"><ele>478.0</ele><time>2026-05-03T07:44:24.999Z</time></trkpt><trkpt lat="39.81598852247229" lon="8.794435261000006"><ele>478.0</ele><time>2026-05-03T07:44:25.999Z</time></trkpt><trkpt lat="39.81592666816992" lon="8.79426879078029"><ele>474.79999999999995</ele><time>2026-05-03T07:44:26.999Z</time></trkpt><trkpt lat="39.81586373091515" lon="8.794120860629056"><ele>471.59999999999997</ele><time>2026-05-03T07:44:27.999Z</time></trkpt><trkpt lat="39.81581671471889" lon="8.793991878305476"><ele>468.40000000000003</ele><time>2026-05-03T07:44:28.999Z</time></trkpt><trkpt lat="39.81578111038943" lon="8.793888618545214"><ele>465.20000000000005</ele><time>2026-05-03T07:44:29.999Z</time></trkpt><trkpt lat="39.81575585573906" lon="8.793767345709256"><ele>462.0</ele><time>2026-05-03T07:44:30.999Z</time></trkpt><trkpt lat="39.815730589815544" lon="8.793624265314326"><ele>463.0</ele><time>2026-05-03T07:44:31.999Z</time></trkpt><trkpt lat="39.81572138395472" lon="8.793495064059307"><ele>464.0</ele><time>2026-05-03T07:44:32.999Z</time></trkpt><trkpt lat="39.815721851636226" lon="8.79340910707941"><ele>465.0</ele><time>2026-05-03T07:44:33.999Z</time></trkpt><trkpt lat="39.815779521774026" lon="8.793303965373408"><ele>466.0</ele><time>2026-05-03T07:44:35.999Z</time></trkpt><trkpt lat="39.815838599394446" lon="8.79326218380039"><ele>467.0</ele><time>2026-05-03T07:44:36.999Z</time></trkpt><trkpt lat="39.81590068331033" lon="8.793226606971295"><ele>468.0</ele><time>2026-05-03T07:44:37.999Z</time></trkpt><trkpt lat="39.81597027463371" lon="8.793211226671756"><ele>468.0</ele><time>2026-05-03T07:44:39.999Z</time></trkpt><trkpt lat="39.81587596825618" lon="8.793254534799853"><ele>468.0</ele><time>2026-05-03T07:44:44.999Z</time></trkpt><trkpt lat="39.815775520746364" lon="8.793335084332659"><ele>468.0</ele><time>2026-05-03T07:44:46.999Z</time></trkpt><trkpt lat="39.81571577240449" lon="8.79345162341688"><ele>468.0</ele><time>2026-05-03T07:44:48.999Z</time></trkpt><trkpt lat="39.815742843557786" lon="8.79362994295062"><ele>467.0</ele><time>2026-05-03T07:44:50.999Z</time></trkpt><trkpt lat="39.81576158801758" lon="8.793734432153336"><ele>466.0</ele><time>2026-05-03T07:44:51.999Z</time></trkpt><trkpt lat="39.81578574813857" lon="8.793849431047049"><ele>465.0</ele><time>2026-05-03T07:44:52.999Z</time></trkpt><trkpt lat="39.815817370748704" lon="8.793963102732867"><ele>464.0</ele><time>2026-05-03T07:44:53.999Z</time></trkpt><trkpt lat="39.81585482890097" lon="8.79405950500971"><ele>463.0</ele><time>2026-05-03T07:44:54.999Z</time></trkpt><trkpt lat="39.81589323136697" lon="8.794152362479885"><ele>462.0</ele><time>2026-05-03T07:44:55.999Z</time></trkpt><trkpt lat="39.815934604044635" lon="8.794262281714015"><ele>459.3333333333333</ele><time>2026-05-03T07:44:56.999Z</time></trkpt><trkpt lat="39.81597829792523" lon="8.79438610228559"><ele>456.66666666666663</ele><time>2026-05-03T07:44:57.999Z</time></trkpt><trkpt lat="39.81601703433069" lon="8.79448461652449"><ele>454.0</ele><time>2026-05-03T07:44:58.999Z</time></trkpt><trkpt lat="39.81605109822929" lon="8.794578861789812"><ele>451.3333333333333</ele><time>2026-05-03T07:44:59.999Z</time></trkpt><trkpt lat="39.81607542445816" lon="8.794677350751241"><ele>448.66666666666663</ele><time>2026-05-03T07:45:00.999Z</time></trkpt><trkpt lat="39.81610424859787" lon="8.794777597688821"><ele>446.0</ele><time>2026-05-03T07:45:01.999Z</time></trkpt><trkpt lat="39.81614094022739" lon="8.794873972046402"><ele>450.6</ele><time>2026-05-03T07:45:02.999Z</time></trkpt><trkpt lat="39.816184333632144" lon="8.794966018246004"><ele>455.20000000000005</ele><time>2026-05-03T07:45:03.999Z</time></trkpt><trkpt lat="39.8162349929712" lon="8.795060909553102"><ele>459.79999999999995</ele><time>2026-05-03T07:45:04.999Z</time></trkpt><trkpt lat="39.81630237476241" lon="8.795139902773196"><ele>464.4</ele><time>2026-05-03T07:45:05.999Z</time></trkpt><trkpt lat="39.816386001294475" lon="8.795203237384046"><ele>469.0</ele><time>2026-05-03T07:45:06.999Z</time></trkpt><trkpt lat="39.816465949165575" lon="8.795273016192427"><ele>469.00000000000006</ele><time>2026-05-03T07:45:07.999Z</time></trkpt><trkpt lat="39.81654060629892" lon="8.795327962711543"><ele>469.0</ele><time>2026-05-03T07:45:08.999Z</time></trkpt><trkpt lat="39.81661506248378" lon="8.795366260133438"><ele>469.0</ele><time>2026-05-03T07:45:09.999Z</time></trkpt><trkpt lat="39.81667506260476" lon="8.795407575491765"><ele>469.0</ele><time>2026-05-03T07:45:10.999Z</time></trkpt><trkpt lat="39.81676049020244" lon="8.795495775260973"><ele>469.00000000000006</ele><time>2026-05-03T07:45:12.998Z</time></trkpt><trkpt lat="39.81685116647704" lon="8.795507843057496"><ele>469.0</ele><time>2026-05-03T07:45:14.998Z</time></trkpt><trkpt lat="39.81697290051509" lon="8.795454759822963"><ele>471.79999999999995</ele><time>2026-05-03T07:45:16.998Z</time></trkpt><trkpt lat="39.817063117567464" lon="8.7954439351104"><ele>474.59999999999997</ele><time>2026-05-03T07:45:17.998Z</time></trkpt><trkpt lat="39.817179456235515" lon="8.795431795933048"><ele>477.4</ele><time>2026-05-03T07:45:18.998Z</time></trkpt><trkpt lat="39.81728874950224" lon="8.795420109314954"><ele>480.2</ele><time>2026-05-03T07:45:19.998Z</time></trkpt><trkpt lat="39.81741118871645" lon="8.79539891498785"><ele>483.0</ele><time>2026-05-03T07:45:20.998Z</time></trkpt><trkpt lat="39.81752037407754" lon="8.795382092878128"><ele>483.0</ele><time>2026-05-03T07:45:21.998Z</time></trkpt><trkpt lat="39.81763237124592" lon="8.79536244673379"><ele>482.99999999999994</ele><time>2026-05-03T07:45:22.998Z</time></trkpt><trkpt lat="39.817744706647375" lon="8.795340620681882"><ele>482.99999999999994</ele><time>2026-05-03T07:45:23.998Z</time></trkpt><trkpt lat="39.81784601560401" lon="8.795328178905015"><ele>483.0</ele><time>2026-05-03T07:45:24.998Z</time></trkpt><trkpt lat="39.81795436458541" lon="8.795312194695551"><ele>483.0</ele><time>2026-05-03T07:45:25.998Z</time></trkpt><trkpt lat="39.81806565526518" lon="8.795296517787058"><ele>483.79999999999995</ele><time>2026-05-03T07:45:26.998Z</time></trkpt><trkpt lat="39.81816145443419" lon="8.79528797278992"><ele>484.59999999999997</ele><time>2026-05-03T07:45:27.998Z</time></trkpt><trkpt lat="39.81825747516145" lon="8.795279333704297"><ele>485.40000000000003</ele><time>2026-05-03T07:45:28.998Z</time></trkpt><trkpt lat="39.81836181242442" lon="8.795257641153729"><ele>486.20000000000005</ele><time>2026-05-03T07:45:29.998Z</time></trkpt><trkpt lat="39.818451293231924" lon="8.795243427449837"><ele>487.0</ele><time>2026-05-03T07:45:30.998Z</time></trkpt><trkpt lat="39.81853126587859" lon="8.79523194964939"><ele>487.8</ele><time>2026-05-03T07:45:31.998Z</time></trkpt><trkpt lat="39.81863610602991" lon="8.795215294642354"><ele>488.6</ele><time>2026-05-03T07:45:32.998Z</time></trkpt><trkpt lat="39.81874554061236" lon="8.795193778728322"><ele>489.40000000000003</ele><time>2026-05-03T07:45:33.998Z</time></trkpt><trkpt lat="39.81886497041556" lon="8.795168032738511"><ele>490.20000000000005</ele><time>2026-05-03T07:45:34.998Z</time></trkpt><trkpt lat="39.818974229028925" lon="8.795151535945417"><ele>491.0</ele><time>2026-05-03T07:45:35.998Z</time></trkpt><trkpt lat="39.81908368302208" lon="8.795140989347406"><ele>491.20000000000005</ele><time>2026-05-03T07:45:36.998Z</time></trkpt><trkpt lat="39.81918203340056" lon="8.795127799246094"><ele>491.40000000000003</ele><time>2026-05-03T07:45:37.998Z</time></trkpt><trkpt lat="39.819266371334116" lon="8.795119063259582"><ele>491.6</ele><time>2026-05-03T07:45:38.998Z</time></trkpt><trkpt lat="39.819362520342814" lon="8.795101573215362"><ele>491.8</ele><time>2026-05-03T07:45:39.998Z</time></trkpt><trkpt lat="39.819467193434534" lon="8.795082668683287"><ele>492.0</ele><time>2026-05-03T07:45:40.998Z</time></trkpt><trkpt lat="39.81958726617465" lon="8.795063876749442"><ele>492.5</ele><time>2026-05-03T07:45:41.998Z</time></trkpt><trkpt lat="39.81971275820003" lon="8.795043738871145"><ele>493.0</ele><time>2026-05-03T07:45:42.998Z</time></trkpt><trkpt lat="39.819842984654066" lon="8.795024720503614"><ele>493.5</ele><time>2026-05-03T07:45:43.998Z</time></trkpt><trkpt lat="39.819969058339915" lon="8.79500628445396"><ele>494.0</ele><time>2026-05-03T07:45:44.998Z</time></trkpt><trkpt lat="39.82008342982768" lon="8.7949942929907"><ele>493.75</ele><time>2026-05-03T07:45:45.998Z</time></trkpt><trkpt lat="39.82019874845935" lon="8.794977773061676"><ele>493.5</ele><time>2026-05-03T07:45:46.998Z</time></trkpt><trkpt lat="39.8203132588647" lon="8.794965589353724"><ele>493.25</ele><time>2026-05-03T07:45:47.998Z</time></trkpt><trkpt lat="39.820431942384005" lon="8.794942540778989"><ele>493.0</ele><time>2026-05-03T07:45:48.998Z</time></trkpt><trkpt lat="39.82054991220717" lon="8.79492268669218"><ele>493.0</ele><time>2026-05-03T07:45:49.998Z</time></trkpt><trkpt lat="39.82066327013079" lon="8.79489813916762"><ele>492.99999999999994</ele><time>2026-05-03T07:45:50.998Z</time></trkpt><trkpt lat="39.82076404937406" lon="8.794888499073751"><ele>492.99999999999994</ele><time>2026-05-03T07:45:51.998Z</time></trkpt><trkpt lat="39.82085725068608" lon="8.794881706867438"><ele>493.0</ele><time>2026-05-03T07:45:52.998Z</time></trkpt><trkpt lat="39.82094587621145" lon="8.794877927793529"><ele>493.0</ele><time>2026-05-03T07:45:53.998Z</time></trkpt><trkpt lat="39.821045191221636" lon="8.794870829765918"><ele>492.0</ele><time>2026-05-03T07:45:54.998Z</time></trkpt><trkpt lat="39.82114346094601" lon="8.794862154850154"><ele>490.99999999999994</ele><time>2026-05-03T07:45:55.998Z</time></trkpt><trkpt lat="39.8212294386716" lon="8.794857620135538"><ele>489.99999999999994</ele><time>2026-05-03T07:45:56.998Z</time></trkpt><trkpt lat="39.82131410165998" lon="8.794851429577239"><ele>489.0</ele><time>2026-05-03T07:45:57.998Z</time></trkpt><trkpt lat="39.82141286260463" lon="8.794840038466612"><ele>488.0</ele><time>2026-05-03T07:45:58.998Z</time></trkpt><trkpt lat="39.82152259212334" lon="8.794830748144689"><ele>487.99999999999994</ele><time>2026-05-03T07:46:00Z</time></trkpt><trkpt lat="39.821618840085314" lon="8.794820506962894"><ele>488.0</ele><time>2026-05-03T07:46:01Z</time></trkpt><trkpt lat="39.82170528911245" lon="8.794808191342863"><ele>488.0</ele><time>2026-05-03T07:46:02Z</time></trkpt><trkpt lat="39.82179067680258" lon="8.794797925530348"><ele>488.0</ele><time>2026-05-03T07:46:03Z</time></trkpt><trkpt lat="39.8218720845093" lon="8.794799773994644"><ele>487.99999999999994</ele><time>2026-05-03T07:46:04Z</time></trkpt><trkpt lat="39.82195272746775" lon="8.794799615632046"><ele>488.0</ele><time>2026-05-03T07:46:05Z</time></trkpt><trkpt lat="39.82203320904683" lon="8.79479322759012"><ele>486.99999999999994</ele><time>2026-05-03T07:46:06Z</time></trkpt><trkpt lat="39.82211592814566" lon="8.79478675179644"><ele>486.0</ele><time>2026-05-03T07:46:07Z</time></trkpt><trkpt lat="39.82219811266372" lon="8.794782182028774"><ele>485.0</ele><time>2026-05-03T07:46:08Z</time></trkpt><trkpt lat="39.822286410279375" lon="8.79477836021427"><ele>484.0</ele><time>2026-05-03T07:46:09Z</time></trkpt><trkpt lat="39.822372841601876" lon="8.79477179189554"><ele>482.99999999999994</ele><time>2026-05-03T07:46:10Z</time></trkpt><trkpt lat="39.82245794057482" lon="8.79476318581256"><ele>482.0</ele><time>2026-05-03T07:46:11Z</time></trkpt><trkpt lat="39.82255467092856" lon="8.794756092769463"><ele>480.5</ele><time>2026-05-03T07:46:12Z</time></trkpt><trkpt lat="39.822656864497205" lon="8.794739322137552"><ele>479.0</ele><time>2026-05-03T07:46:13Z</time></trkpt><trkpt lat="39.82276475601543" lon="8.794724475360066"><ele>477.5</ele><time>2026-05-03T07:46:14Z</time></trkpt><trkpt lat="39.8228778045731" lon="8.794708589104722"><ele>476.0</ele><time>2026-05-03T07:46:14.999Z</time></trkpt><trkpt lat="39.82300328572911" lon="8.794688997224933"><ele>476.0</ele><time>2026-05-03T07:46:15.999Z</time></trkpt><trkpt lat="39.82313550560455" lon="8.794664608699069"><ele>476.0</ele><time>2026-05-03T07:46:16.999Z</time></trkpt><trkpt lat="39.823282194932" lon="8.794639661538685"><ele>476.0</ele><time>2026-05-03T07:46:17.999Z</time></trkpt><trkpt lat="39.823408686456816" lon="8.794628603424368"><ele>476.0</ele><time>2026-05-03T07:46:18.999Z</time></trkpt><trkpt lat="39.823526280956095" lon="8.794613458166431"><ele>474.6</ele><time>2026-05-03T07:46:19.999Z</time></trkpt><trkpt lat="39.82363685336833" lon="8.79458682567488"><ele>473.20000000000005</ele><time>2026-05-03T07:46:20.999Z</time></trkpt><trkpt lat="39.823747293614936" lon="8.794566215164703"><ele>471.79999999999995</ele><time>2026-05-03T07:46:21.999Z</time></trkpt><trkpt lat="39.82384620360383" lon="8.794551496039425"><ele>470.4</ele><time>2026-05-03T07:46:22.999Z</time></trkpt><trkpt lat="39.82394629902237" lon="8.79454150211852"><ele>469.0</ele><time>2026-05-03T07:46:23.999Z</time></trkpt><trkpt lat="39.82404946300107" lon="8.794528948319265"><ele>469.0</ele><time>2026-05-03T07:46:24.999Z</time></trkpt><trkpt lat="39.82415167284618" lon="8.794519256778592"><ele>469.0</ele><time>2026-05-03T07:46:25.999Z</time></trkpt><trkpt lat="39.82426224192369" lon="8.794508393549894"><ele>469.0</ele><time>2026-05-03T07:46:26.999Z</time></trkpt><trkpt lat="39.82437194075573" lon="8.794487860182741"><ele>469.0</ele><time>2026-05-03T07:46:27.999Z</time></trkpt><trkpt lat="39.82448133867553" lon="8.794479786954215"><ele>469.0</ele><time>2026-05-03T07:46:28.999Z</time></trkpt><trkpt lat="39.82458700927943" lon="8.794467302256612"><ele>467.79999999999995</ele><time>2026-05-03T07:46:29.999Z</time></trkpt><trkpt lat="39.82469868020532" lon="8.794450135634898"><ele>466.59999999999997</ele><time>2026-05-03T07:46:30.999Z</time></trkpt><trkpt lat="39.82480919356308" lon="8.794434181722549"><ele>465.4</ele><time>2026-05-03T07:46:31.999Z</time></trkpt><trkpt lat="39.824923225512315" lon="8.794418724093749"><ele>464.2</ele><time>2026-05-03T07:46:32.999Z</time></trkpt><trkpt lat="39.82502956515556" lon="8.79439687857843"><ele>463.0</ele><time>2026-05-03T07:46:33.999Z</time></trkpt><trkpt lat="39.825121152082595" lon="8.794381439675437"><ele>462.79999999999995</ele><time>2026-05-03T07:46:34.999Z</time></trkpt><trkpt lat="39.8252095219831" lon="8.79437006316273"><ele>462.59999999999997</ele><time>2026-05-03T07:46:35.999Z</time></trkpt><trkpt lat="39.825319070816484" lon="8.79432219941035"><ele>462.40000000000003</ele><time>2026-05-03T07:46:37.999Z</time></trkpt><trkpt lat="39.82535605940937" lon="8.79420217771917"><ele>462.20000000000005</ele><time>2026-05-03T07:46:39.999Z</time></trkpt><trkpt lat="39.82529930540266" lon="8.794048464377655"><ele>462.0</ele><time>2026-05-03T07:46:41.999Z</time></trkpt><trkpt lat="39.82526225393313" lon="8.793945794406671"><ele>462.0</ele><time>2026-05-03T07:46:42.999Z</time></trkpt><trkpt lat="39.82523240091508" lon="8.793817992010279"><ele>462.00000000000006</ele><time>2026-05-03T07:46:43.999Z</time></trkpt><trkpt lat="39.82520591216257" lon="8.793696546076772"><ele>462.00000000000006</ele><time>2026-05-03T07:46:44.999Z</time></trkpt><trkpt lat="39.82517356904177" lon="8.793570351808278"><ele>462.0</ele><time>2026-05-03T07:46:45.999Z</time></trkpt><trkpt lat="39.825139557329805" lon="8.79345305496254"><ele>462.0</ele><time>2026-05-03T07:46:46.999Z</time></trkpt><trkpt lat="39.82509551068569" lon="8.793333661890175"><ele>463.0</ele><time>2026-05-03T07:46:47.999Z</time></trkpt><trkpt lat="39.825061119628515" lon="8.793219719168349"><ele>464.00000000000006</ele><time>2026-05-03T07:46:48.999Z</time></trkpt><trkpt lat="39.82502738567177" lon="8.793092575950597"><ele>465.00000000000006</ele><time>2026-05-03T07:46:49.999Z</time></trkpt><trkpt lat="39.824988923298854" lon="8.792955015176146"><ele>466.0</ele><time>2026-05-03T07:46:50.999Z</time></trkpt><trkpt lat="39.824947524692845" lon="8.792830362038831"><ele>467.0</ele><time>2026-05-03T07:46:51.999Z</time></trkpt><trkpt lat="39.82490938890466" lon="8.792694790931028"><ele>467.20000000000005</ele><time>2026-05-03T07:46:52.999Z</time></trkpt><trkpt lat="39.824875229875296" lon="8.792562816009752"><ele>467.40000000000003</ele><time>2026-05-03T07:46:53.999Z</time></trkpt><trkpt lat="39.82483815824831" lon="8.79244107456831"><ele>467.59999999999997</ele><time>2026-05-03T07:46:54.999Z</time></trkpt><trkpt lat="39.824801678749324" lon="8.792313881960274"><ele>467.79999999999995</ele><time>2026-05-03T07:46:55.999Z</time></trkpt><trkpt lat="39.82475761497871" lon="8.792178932120997"><ele>468.0</ele><time>2026-05-03T07:46:56.999Z</time></trkpt><trkpt lat="39.824717682236475" lon="8.792063506183817"><ele>468.0</ele><time>2026-05-03T07:46:57.999Z</time></trkpt><trkpt lat="39.82467943677215" lon="8.791944557624134"><ele>467.99999999999994</ele><time>2026-05-03T07:46:58.999Z</time></trkpt><trkpt lat="39.82465065378812" lon="8.791830887256733"><ele>467.99999999999994</ele><time>2026-05-03T07:46:59.999Z</time></trkpt><trkpt lat="39.82461803864197" lon="8.791709149596542"><ele>468.0</ele><time>2026-05-03T07:47:00.999Z</time></trkpt><trkpt lat="39.82457933553461" lon="8.791598869196957"><ele>468.0</ele><time>2026-05-03T07:47:01.999Z</time></trkpt><trkpt lat="39.824547831556984" lon="8.791484111426943"><ele>468.3333333333333</ele><time>2026-05-03T07:47:02.999Z</time></trkpt><trkpt lat="39.82452177591695" lon="8.791370062169069"><ele>468.66666666666663</ele><time>2026-05-03T07:47:03.999Z</time></trkpt><trkpt lat="39.82449220406185" lon="8.791255197680671"><ele>469.0</ele><time>2026-05-03T07:47:04.999Z</time></trkpt><trkpt lat="39.824458817261025" lon="8.791154900753906"><ele>469.3333333333333</ele><time>2026-05-03T07:47:05.999Z</time></trkpt><trkpt lat="39.824426234961656" lon="8.791056886707386"><ele>469.66666666666663</ele><time>2026-05-03T07:47:06.999Z</time></trkpt><trkpt lat="39.82439321922488" lon="8.790964526958689"><ele>470.0</ele><time>2026-05-03T07:47:07.999Z</time></trkpt><trkpt lat="39.82435433409109" lon="8.790870710889205"><ele>470.3333333333333</ele><time>2026-05-03T07:47:08.999Z</time></trkpt><trkpt lat="39.82432563604747" lon="8.790762392494353"><ele>470.66666666666663</ele><time>2026-05-03T07:47:09.999Z</time></trkpt><trkpt lat="39.824301190477705" lon="8.790651520537427"><ele>471.0</ele><time>2026-05-03T07:47:10.999Z</time></trkpt><trkpt lat="39.82426757564049" lon="8.790547958034686"><ele>471.33333333333337</ele><time>2026-05-03T07:47:11.999Z</time></trkpt><trkpt lat="39.82423780284788" lon="8.790454936468317"><ele>471.6666666666667</ele><time>2026-05-03T07:47:12.999Z</time></trkpt><trkpt lat="39.824207808798" lon="8.79035356875791"><ele>472.0</ele><time>2026-05-03T07:47:13.999Z</time></trkpt><trkpt lat="39.82417996900899" lon="8.790242293988397"><ele>472.8</ele><time>2026-05-03T07:47:14.999Z</time></trkpt><trkpt lat="39.82415107266979" lon="8.790127732580773"><ele>473.6</ele><time>2026-05-03T07:47:15.998Z</time></trkpt><trkpt lat="39.82413350539715" lon="8.79001584962192"><ele>474.40000000000003</ele><time>2026-05-03T07:47:16.998Z</time></trkpt><trkpt lat="39.82412775816788" lon="8.789896447157915"><ele>475.20000000000005</ele><time>2026-05-03T07:47:17.998Z</time></trkpt><trkpt lat="39.824137304144415" lon="8.789781597301525"><ele>476.0</ele><time>2026-05-03T07:47:18.998Z</time></trkpt><trkpt lat="39.82414602306559" lon="8.789666361099078"><ele>476.0</ele><time>2026-05-03T07:47:19.998Z</time></trkpt><trkpt lat="39.82414636400731" lon="8.789550327888449"><ele>476.0</ele><time>2026-05-03T07:47:20.998Z</time></trkpt><trkpt lat="39.82415141596308" lon="8.789426255804544"><ele>476.0</ele><time>2026-05-03T07:47:21.998Z</time></trkpt><trkpt lat="39.82416148238824" lon="8.78929502458416"><ele>476.0</ele><time>2026-05-03T07:47:22.998Z</time></trkpt><trkpt lat="39.82416323355137" lon="8.789165356316254"><ele>476.0</ele><time>2026-05-03T07:47:23.998Z</time></trkpt><trkpt lat="39.824158065032435" lon="8.789029577379226"><ele>476.20000000000005</ele><time>2026-05-03T07:47:24.998Z</time></trkpt><trkpt lat="39.82415548893614" lon="8.78889480505762"><ele>476.40000000000003</ele><time>2026-05-03T07:47:25.998Z</time></trkpt><trkpt lat="39.824159074462166" lon="8.788753138751796"><ele>476.6</ele><time>2026-05-03T07:47:26.998Z</time></trkpt><trkpt lat="39.824162227344935" lon="8.788611121823639"><ele>476.8</ele><time>2026-05-03T07:47:27.998Z</time></trkpt><trkpt lat="39.82416303513279" lon="8.788467508290926"><ele>477.0</ele><time>2026-05-03T07:47:28.998Z</time></trkpt><trkpt lat="39.82416865934474" lon="8.788311977662158"><ele>477.20000000000005</ele><time>2026-05-03T07:47:29.998Z</time></trkpt><trkpt lat="39.82417017137585" lon="8.788171135902243"><ele>477.40000000000003</ele><time>2026-05-03T07:47:30.998Z</time></trkpt><trkpt lat="39.82417295536427" lon="8.788038961586244"><ele>477.59999999999997</ele><time>2026-05-03T07:47:31.998Z</time></trkpt><trkpt lat="39.82417226640403" lon="8.787928196843438"><ele>477.79999999999995</ele><time>2026-05-03T07:47:32.998Z</time></trkpt><trkpt lat="39.824170344445925" lon="8.787835147574382"><ele>478.0</ele><time>2026-05-03T07:47:33.998Z</time></trkpt><trkpt lat="39.824182781263005" lon="8.787657681173542"><ele>478.0</ele><time>2026-05-03T07:47:35.998Z</time></trkpt><trkpt lat="39.82417996151638" lon="8.787543464008206"><ele>477.99999999999994</ele><time>2026-05-03T07:47:36.998Z</time></trkpt><trkpt lat="39.8241758637744" lon="8.787412157115071"><ele>477.99999999999994</ele><time>2026-05-03T07:47:37.998Z</time></trkpt><trkpt lat="39.824163371758836" lon="8.787282915122214"><ele>478.0</ele><time>2026-05-03T07:47:38.998Z</time></trkpt><trkpt lat="39.824153434476614" lon="8.787149076198576"><ele>478.0</ele><time>2026-05-03T07:47:39.998Z</time></trkpt><trkpt lat="39.82414402132425" lon="8.78701511047088"><ele>478.0</ele><time>2026-05-03T07:47:40.998Z</time></trkpt><trkpt lat="39.82413370983596" lon="8.786888783586225"><ele>477.99999999999994</ele><time>2026-05-03T07:47:41.998Z</time></trkpt><trkpt lat="39.824133578662526" lon="8.786770168777874"><ele>477.99999999999994</ele><time>2026-05-03T07:47:42.998Z</time></trkpt><trkpt lat="39.824131549912494" lon="8.786639972078305"><ele>478.0</ele><time>2026-05-03T07:47:43.998Z</time></trkpt><trkpt lat="39.82410889028708" lon="8.786504506308692"><ele>478.0</ele><time>2026-05-03T07:47:44.998Z</time></trkpt><trkpt lat="39.824102206494054" lon="8.78638016102936"><ele>477.50000000000006</ele><time>2026-05-03T07:47:45.998Z</time></trkpt><trkpt lat="39.82409837694089" lon="8.786267840498324"><ele>477.0</ele><time>2026-05-03T07:47:46.998Z</time></trkpt><trkpt lat="39.8241034658394" lon="8.786165941191065"><ele>476.5</ele><time>2026-05-03T07:47:47.998Z</time></trkpt><trkpt lat="39.82409651792253" lon="8.786083394639885"><ele>476.0</ele><time>2026-05-03T07:47:48.998Z</time></trkpt><trkpt lat="39.82406617137344" lon="8.785933039740057"><ele>475.50000000000006</ele><time>2026-05-03T07:47:50.998Z</time></trkpt><trkpt lat="39.824083504091064" lon="8.78583295575922"><ele>475.0</ele><time>2026-05-03T07:47:51.998Z</time></trkpt><trkpt lat="39.82408302754517" lon="8.78570366451179"><ele>475.0</ele><time>2026-05-03T07:47:52.998Z</time></trkpt><trkpt lat="39.82406138782011" lon="8.785558939589558"><ele>475.0</ele><time>2026-05-03T07:47:53.998Z</time></trkpt><trkpt lat="39.824052733978995" lon="8.785417868351276"><ele>475.0</ele><time>2026-05-03T07:47:54.998Z</time></trkpt><trkpt lat="39.82404811716968" lon="8.785288161374243"><ele>475.0</ele><time>2026-05-03T07:47:55.998Z</time></trkpt><trkpt lat="39.82404035646608" lon="8.785159212445521"><ele>475.0</ele><time>2026-05-03T07:47:56.998Z</time></trkpt><trkpt lat="39.82402929164981" lon="8.785020736881046"><ele>475.2</ele><time>2026-05-03T07:47:57.998Z</time></trkpt><trkpt lat="39.82402440928618" lon="8.784882290398542"><ele>475.4</ele><time>2026-05-03T07:47:58.998Z</time></trkpt><trkpt lat="39.82402560155598" lon="8.784739056634045"><ele>475.6</ele><time>2026-05-03T07:47:59.998Z</time></trkpt><trkpt lat="39.82402412969388" lon="8.784588971188207"><ele>475.8</ele><time>2026-05-03T07:48:00.998Z</time></trkpt><trkpt lat="39.824009823255466" lon="8.784453640427168"><ele>476.0</ele><time>2026-05-03T07:48:01.998Z</time></trkpt><trkpt lat="39.82399744062131" lon="8.784316796533675"><ele>476.20000000000005</ele><time>2026-05-03T07:48:02.998Z</time></trkpt><trkpt lat="39.82398911449653" lon="8.784175433800481"><ele>476.40000000000003</ele><time>2026-05-03T07:48:03.998Z</time></trkpt><trkpt lat="39.82397634336433" lon="8.784041289083948"><ele>476.6</ele><time>2026-05-03T07:48:04.998Z</time></trkpt><trkpt lat="39.82397305848005" lon="8.783910441678847"><ele>476.8</ele><time>2026-05-03T07:48:05.999Z</time></trkpt><trkpt lat="39.82397523792049" lon="8.783809998365829"><ele>477.0</ele><time>2026-05-03T07:48:07Z</time></trkpt><trkpt lat="39.823967296566906" lon="8.783723055067533"><ele>477.0</ele><time>2026-05-03T07:48:08Z</time></trkpt><trkpt lat="39.82394331945674" lon="8.783638536496971"><ele>477.0</ele><time>2026-05-03T07:48:09Z</time></trkpt><trkpt lat="39.823889307316634" lon="8.783556953778216"><ele>477.0</ele><time>2026-05-03T07:48:10Z</time></trkpt><trkpt lat="39.823835185853824" lon="8.783457939902808"><ele>477.0</ele><time>2026-05-03T07:48:11Z</time></trkpt><trkpt lat="39.82378175669373" lon="8.78335044919054"><ele>477.0</ele><time>2026-05-03T07:48:12Z</time></trkpt><trkpt lat="39.82373318001278" lon="8.783229362335515"><ele>477.0</ele><time>2026-05-03T07:48:13Z</time></trkpt><trkpt lat="39.82364992185896" lon="8.783130076367037"><ele>477.75</ele><time>2026-05-03T07:48:14Z</time></trkpt><trkpt lat="39.823539729525976" lon="8.783032437447316"><ele>478.5</ele><time>2026-05-03T07:48:15Z</time></trkpt><trkpt lat="39.82343234765211" lon="8.7829416466041"><ele>479.25</ele><time>2026-05-03T07:48:16Z</time></trkpt><trkpt lat="39.82331498868715" lon="8.782867462492595"><ele>480.0</ele><time>2026-05-03T07:48:17Z</time></trkpt><trkpt lat="39.823197445626064" lon="8.782807723837925"><ele>480.25</ele><time>2026-05-03T07:48:18Z</time></trkpt><trkpt lat="39.82306943075333" lon="8.7827820218841"><ele>480.5</ele><time>2026-05-03T07:48:19Z</time></trkpt><trkpt lat="39.82292538309122" lon="8.782770806905331"><ele>480.75</ele><time>2026-05-03T07:48:20Z</time></trkpt><trkpt lat="39.82279569960031" lon="8.782749871304473"><ele>481.0</ele><time>2026-05-03T07:48:21Z</time></trkpt><trkpt lat="39.82269188336311" lon="8.782735866380127"><ele>481.50000000000006</ele><time>2026-05-03T07:48:22Z</time></trkpt><trkpt lat="39.822599435981935" lon="8.782711299797926"><ele>482.0</ele><time>2026-05-03T07:48:23Z</time></trkpt><trkpt lat="39.822515998720064" lon="8.78267043901524"><ele>482.5</ele><time>2026-05-03T07:48:24Z</time></trkpt><trkpt lat="39.82245800804682" lon="8.782626524475269"><ele>483.0</ele><time>2026-05-03T07:48:25Z</time></trkpt><trkpt lat="39.822374513721314" lon="8.782623776449059"><ele>483.50000000000006</ele><time>2026-05-03T07:48:27Z</time></trkpt><trkpt lat="39.822322283525516" lon="8.78267576112443"><ele>484.0</ele><time>2026-05-03T07:48:28Z</time></trkpt><trkpt lat="39.82223732095602" lon="8.782735739247826"><ele>484.0</ele><time>2026-05-03T07:48:29Z</time></trkpt><trkpt lat="39.822153959961284" lon="8.782849774822054"><ele>484.0</ele><time>2026-05-03T07:48:30Z</time></trkpt><trkpt lat="39.822054843508816" lon="8.782978802583754"><ele>484.0</ele><time>2026-05-03T07:48:31Z</time></trkpt><trkpt lat="39.821947693454895" lon="8.7831197042689"><ele>484.0</ele><time>2026-05-03T07:48:32Z</time></trkpt><trkpt lat="39.821842131395435" lon="8.783280983167307"><ele>485.33333333333337</ele><time>2026-05-03T07:48:33Z</time></trkpt><trkpt lat="39.82175107203624" lon="8.783456717430157"><ele>486.66666666666663</ele><time>2026-05-03T07:48:34Z</time></trkpt><trkpt lat="39.82164706558367" lon="8.783630139549894"><ele>488.0</ele><time>2026-05-03T07:48:35Z</time></trkpt><trkpt lat="39.82155911664493" lon="8.783806448925796"><ele>488.0</ele><time>2026-05-03T07:48:36Z</time></trkpt><trkpt lat="39.82145697114769" lon="8.783972743290791"><ele>488.0</ele><time>2026-05-03T07:48:37Z</time></trkpt><trkpt lat="39.821343376660046" lon="8.784140606488757"><ele>488.0</ele><time>2026-05-03T07:48:38Z</time></trkpt><trkpt lat="39.82122314682209" lon="8.784318109344133"><ele>487.3333333333333</ele><time>2026-05-03T07:48:39Z</time></trkpt><trkpt lat="39.821112207372714" lon="8.784477040084491"><ele>486.66666666666663</ele><time>2026-05-03T07:48:40Z</time></trkpt><trkpt lat="39.82100824892271" lon="8.784622873324123"><ele>486.0</ele><time>2026-05-03T07:48:41Z</time></trkpt><trkpt lat="39.82089801430696" lon="8.784777510777458"><ele>487.0</ele><time>2026-05-03T07:48:42Z</time></trkpt><trkpt lat="39.82078116292215" lon="8.784941001856184"><ele>488.0</ele><time>2026-05-03T07:48:43Z</time></trkpt><trkpt lat="39.8206639199669" lon="8.78510112565321"><ele>489.0</ele><time>2026-05-03T07:48:44Z</time></trkpt><trkpt lat="39.82055157366454" lon="8.785250193848423"><ele>489.0</ele><time>2026-05-03T07:48:45Z</time></trkpt><trkpt lat="39.820467473384845" lon="8.785361782713602"><ele>489.0</ele><time>2026-05-03T07:48:46Z</time></trkpt><trkpt lat="39.820421395139036" lon="8.78542079678565"><ele>489.0</ele><time>2026-05-03T07:48:47Z</time></trkpt><trkpt lat="39.820520190435836" lon="8.78537303613884"><ele>489.0</ele><time>2026-05-03T07:48:55Z</time></trkpt><trkpt lat="39.820450394170145" lon="8.785352750262886"><ele>489.0</ele><time>2026-05-03T07:48:56Z</time></trkpt><trkpt lat="39.82046728634669" lon="8.785229423302397"><ele>489.2</ele><time>2026-05-03T07:48:58Z</time></trkpt><trkpt lat="39.82042454104057" lon="8.785152456894993"><ele>489.4</ele><time>2026-05-03T07:48:59Z</time></trkpt><trkpt lat="39.82040340317282" lon="8.78504975573635"><ele>489.6</ele><time>2026-05-03T07:49:00Z</time></trkpt><trkpt lat="39.82041095021864" lon="8.784933168125942"><ele>489.8</ele><time>2026-05-03T07:49:01Z</time></trkpt><trkpt lat="39.82043462754915" lon="8.784795362945284"><ele>490.0</ele><time>2026-05-03T07:49:02Z</time></trkpt><trkpt lat="39.820440107022506" lon="8.784656860474437"><ele>490.0</ele><time>2026-05-03T07:49:03Z</time></trkpt><trkpt lat="39.82045789012193" lon="8.784511718915702"><ele>490.0</ele><time>2026-05-03T07:49:04Z</time></trkpt><trkpt lat="39.8204859892727" lon="8.784360390644094"><ele>490.0</ele><time>2026-05-03T07:49:05Z</time></trkpt><trkpt lat="39.820498300272156" lon="8.784181549274484"><ele>490.0</ele><time>2026-05-03T07:49:06Z</time></trkpt><trkpt lat="39.82049743518028" lon="8.78395999827869"><ele>490.25</ele><time>2026-05-03T07:49:07Z</time></trkpt><trkpt lat="39.82048518939457" lon="8.783773522161825"><ele>490.5</ele><time>2026-05-03T07:49:08Z</time></trkpt><trkpt lat="39.82046658066739" lon="8.783626484659132"><ele>490.75</ele><time>2026-05-03T07:49:09Z</time></trkpt><trkpt lat="39.82044969950335" lon="8.783494457292166"><ele>491.0</ele><time>2026-05-03T07:49:10Z</time></trkpt><trkpt lat="39.82042483334792" lon="8.783375681955492"><ele>491.20000000000005</ele><time>2026-05-03T07:49:11Z</time></trkpt><trkpt lat="39.82038402735862" lon="8.783253229677493"><ele>491.40000000000003</ele><time>2026-05-03T07:49:12Z</time></trkpt><trkpt lat="39.82033766250947" lon="8.7831327145676"><ele>491.6</ele><time>2026-05-03T07:49:13Z</time></trkpt><trkpt lat="39.82028364451664" lon="8.783033144092842"><ele>491.8</ele><time>2026-05-03T07:49:14Z</time></trkpt><trkpt lat="39.82022684634484" lon="8.782942488786462"><ele>492.0</ele><time>2026-05-03T07:49:15Z</time></trkpt><trkpt lat="39.820166054936834" lon="8.78286534341074"><ele>493.0</ele><time>2026-05-03T07:49:16Z</time></trkpt><trkpt lat="39.82011511529897" lon="8.782789850275542"><ele>494.00000000000006</ele><time>2026-05-03T07:49:17Z</time></trkpt><trkpt lat="39.82004797215895" lon="8.782741955395121"><ele>495.00000000000006</ele><time>2026-05-03T07:49:18Z</time></trkpt><trkpt lat="39.81998511402487" lon="8.782693370069701"><ele>496.0</ele><time>2026-05-03T07:49:18.999Z</time></trkpt><trkpt lat="39.81989533818039" lon="8.782529630023083"><ele>497.0</ele><time>2026-05-03T07:49:20.999Z</time></trkpt><trkpt lat="39.81980936270566" lon="8.782406133293577"><ele>497.5</ele><time>2026-05-03T07:49:21.999Z</time></trkpt><trkpt lat="39.81971732291668" lon="8.782273924727129"><ele>498.0</ele><time>2026-05-03T07:49:22.999Z</time></trkpt><trkpt lat="39.81962542532366" lon="8.782152864633575"><ele>498.5</ele><time>2026-05-03T07:49:23.999Z</time></trkpt><trkpt lat="39.81953991768347" lon="8.78204971557629"><ele>499.0</ele><time>2026-05-03T07:49:24.999Z</time></trkpt><trkpt lat="39.81945249078337" lon="8.78195107136342"><ele>499.79999999999995</ele><time>2026-05-03T07:49:25.999Z</time></trkpt><trkpt lat="39.81935602025547" lon="8.78184597290268"><ele>500.59999999999997</ele><time>2026-05-03T07:49:26.999Z</time></trkpt><trkpt lat="39.81926871284939" lon="8.781755719046867"><ele>501.4</ele><time>2026-05-03T07:49:27.999Z</time></trkpt><trkpt lat="39.81920212450783" lon="8.781686883247286"><ele>502.2</ele><time>2026-05-03T07:49:28.999Z</time></trkpt><trkpt lat="39.81913374189779" lon="8.781615458476663"><ele>503.0</ele><time>2026-05-03T07:49:29.999Z</time></trkpt><trkpt lat="39.81906943134666" lon="8.781539169043125"><ele>504.2</ele><time>2026-05-03T07:49:30.999Z</time></trkpt><trkpt lat="39.8190090086821" lon="8.781466432341967"><ele>505.4</ele><time>2026-05-03T07:49:31.999Z</time></trkpt><trkpt lat="39.818925874355266" lon="8.781402098701166"><ele>506.59999999999997</ele><time>2026-05-03T07:49:32.999Z</time></trkpt><trkpt lat="39.81881333039944" lon="8.781358374183148"><ele>507.79999999999995</ele><time>2026-05-03T07:49:33.999Z</time></trkpt><trkpt lat="39.818710712140394" lon="8.781330901317457"><ele>509.0</ele><time>2026-05-03T07:49:34.999Z</time></trkpt><trkpt lat="39.81862753726581" lon="8.781303240744563"><ele>509.0</ele><time>2026-05-03T07:49:35.999Z</time></trkpt><trkpt lat="39.81852863069192" lon="8.781175039278189"><ele>509.0</ele><time>2026-05-03T07:49:37.999Z</time></trkpt><trkpt lat="39.818465786232736" lon="8.781078420247944"><ele>509.0</ele><time>2026-05-03T07:49:38.999Z</time></trkpt><trkpt lat="39.81839778315539" lon="8.780973870242946"><ele>509.0</ele><time>2026-05-03T07:49:39.999Z</time></trkpt><trkpt lat="39.81832406810977" lon="8.780860538445241"><ele>513.5</ele><time>2026-05-03T07:49:40.999Z</time></trkpt><trkpt lat="39.81802725548701" lon="8.78097301201104"><ele>518.0</ele><time>2026-05-03T07:49:41.999Z</time></trkpt><trkpt lat="39.81789036062855" lon="8.78091743986101"><ele>518.0</ele><time>2026-05-03T07:49:42.999Z</time></trkpt><trkpt lat="39.8177454504488" lon="8.780895418652692"><ele>518.0</ele><time>2026-05-03T07:49:43.999Z</time></trkpt><trkpt lat="39.817607684658626" lon="8.780889733932028"><ele>518.0</ele><time>2026-05-03T07:49:44.999Z</time></trkpt><trkpt lat="39.817466153647565" lon="8.780887072612336"><ele>518.0</ele><time>2026-05-03T07:49:45.999Z</time></trkpt><trkpt lat="39.81732568182875" lon="8.78086134342392"><ele>518.75</ele><time>2026-05-03T07:49:46.999Z</time></trkpt><trkpt lat="39.81718586310311" lon="8.780817811212161"><ele>519.5</ele><time>2026-05-03T07:49:47.999Z</time></trkpt><trkpt lat="39.81705627778541" lon="8.780772528183313"><ele>520.25</ele><time>2026-05-03T07:49:48.999Z</time></trkpt><trkpt lat="39.816947442770605" lon="8.78072347825872"><ele>521.0</ele><time>2026-05-03T07:49:49.999Z</time></trkpt><trkpt lat="39.81683758968108" lon="8.780666734414183"><ele>521.4</ele><time>2026-05-03T07:49:50.999Z</time></trkpt><trkpt lat="39.81674240135588" lon="8.7806160121382"><ele>521.8</ele><time>2026-05-03T07:49:51.999Z</time></trkpt><trkpt lat="39.81665742009162" lon="8.780549539675176"><ele>522.1999999999999</ele><time>2026-05-03T07:49:52.999Z</time></trkpt><trkpt lat="39.81658293488742" lon="8.780467198163315"><ele>522.6</ele><time>2026-05-03T07:49:53.999Z</time></trkpt><trkpt lat="39.81651754333017" lon="8.780372491233663"><ele>523.0</ele><time>2026-05-03T07:49:54.999Z</time></trkpt><trkpt lat="39.816452766428654" lon="8.780269204086114"><ele>524.25</ele><time>2026-05-03T07:49:55.999Z</time></trkpt><trkpt lat="39.816408540131675" lon="8.78015082644951"><ele>525.5</ele><time>2026-05-03T07:49:56.999Z</time></trkpt><trkpt lat="39.8163776925247" lon="8.780012993650903"><ele>526.75</ele><time>2026-05-03T07:49:57.999Z</time></trkpt><trkpt lat="39.816358334131856" lon="8.779853992300577"><ele>528.0</ele><time>2026-05-03T07:49:58.999Z</time></trkpt><trkpt lat="39.81634218221768" lon="8.77966769243357"><ele>528.0</ele><time>2026-05-03T07:49:59.999Z</time></trkpt><trkpt lat="39.81632410470585" lon="8.779485673395923"><ele>528.0</ele><time>2026-05-03T07:50:00.999Z</time></trkpt><trkpt lat="39.816295954921166" lon="8.779295995755314"><ele>528.0</ele><time>2026-05-03T07:50:01.999Z</time></trkpt><trkpt lat="39.8162510162452" lon="8.779090390371906"><ele>529.75</ele><time>2026-05-03T07:50:02.999Z</time></trkpt><trkpt lat="39.81621673404529" lon="8.77890723932892"><ele>531.5</ele><time>2026-05-03T07:50:03.999Z</time></trkpt><trkpt lat="39.816189136373445" lon="8.778713540830816"><ele>533.25</ele><time>2026-05-03T07:50:04.999Z</time></trkpt><trkpt lat="39.8161582896909" lon="8.778520736067398"><ele>535.0</ele><time>2026-05-03T07:50:05.999Z</time></trkpt><trkpt lat="39.81613061298644" lon="8.778343028493643"><ele>537.0</ele><time>2026-05-03T07:50:06.999Z</time></trkpt><trkpt lat="39.81611767294739" lon="8.778130562213201"><ele>539.0</ele><time>2026-05-03T07:50:07.999Z</time></trkpt><trkpt lat="39.81610708212649" lon="8.777908270597814"><ele>541.0</ele><time>2026-05-03T07:50:08.999Z</time></trkpt><trkpt lat="39.816089706187704" lon="8.77770582408714"><ele>542.5</ele><time>2026-05-03T07:50:09.999Z</time></trkpt><trkpt lat="39.816073962674984" lon="8.777552596925126"><ele>544.0</ele><time>2026-05-03T07:50:10.999Z</time></trkpt><trkpt lat="39.81606019721978" lon="8.777412846833704"><ele>545.5</ele><time>2026-05-03T07:50:12Z</time></trkpt><trkpt lat="39.816039823639514" lon="8.777262585924104"><ele>547.0</ele><time>2026-05-03T07:50:13Z</time></trkpt><trkpt lat="39.8160142717732" lon="8.777072431454906"><ele>550.0</ele><time>2026-05-03T07:50:14Z</time></trkpt><trkpt lat="39.816016774828284" lon="8.776848356826855"><ele>553.0</ele><time>2026-05-03T07:50:15Z</time></trkpt><trkpt lat="39.816036346672085" lon="8.776607493787077"><ele>556.0</ele><time>2026-05-03T07:50:16Z</time></trkpt><trkpt lat="39.81605209096743" lon="8.776350560682223"><ele>556.0</ele><time>2026-05-03T07:50:17Z</time></trkpt><trkpt lat="39.816041725428086" lon="8.77606728991437"><ele>556.0</ele><time>2026-05-03T07:50:18Z</time></trkpt><trkpt lat="39.81603476939465" lon="8.775785561716537"><ele>556.0</ele><time>2026-05-03T07:50:19Z</time></trkpt><trkpt lat="39.81603601738182" lon="8.775493942294203"><ele>558.6666666666667</ele><time>2026-05-03T07:50:20Z</time></trkpt><trkpt lat="39.81604390805505" lon="8.775207505033414"><ele>561.3333333333334</ele><time>2026-05-03T07:50:21Z</time></trkpt><trkpt lat="39.81604977171341" lon="8.774963686433498"><ele>564.0</ele><time>2026-05-03T07:50:22Z</time></trkpt><trkpt lat="39.81605950965783" lon="8.77472958885035"><ele>566.0</ele><time>2026-05-03T07:50:23Z</time></trkpt><trkpt lat="39.816053568890204" lon="8.774462209482158"><ele>568.0</ele><time>2026-05-03T07:50:24Z</time></trkpt><trkpt lat="39.81605370223943" lon="8.774191119004522"><ele>570.0</ele><time>2026-05-03T07:50:25Z</time></trkpt><trkpt lat="39.81605312826129" lon="8.773948183796037"><ele>572.0</ele><time>2026-05-03T07:50:26Z</time></trkpt><trkpt lat="39.81605224351104" lon="8.77373759296154"><ele>574.0</ele><time>2026-05-03T07:50:27Z</time></trkpt><trkpt lat="39.816050553580105" lon="8.773539140971822"><ele>576.0</ele><time>2026-05-03T07:50:28Z</time></trkpt><trkpt lat="39.81605557699282" lon="8.773354525891484"><ele>577.3333333333334</ele><time>2026-05-03T07:50:29Z</time></trkpt><trkpt lat="39.81605581386465" lon="8.773174337142153"><ele>578.6666666666667</ele><time>2026-05-03T07:50:30Z</time></trkpt><trkpt lat="39.816052049088974" lon="8.772973023405257"><ele>580.0</ele><time>2026-05-03T07:50:31Z</time></trkpt><trkpt lat="39.81606317314327" lon="8.772764384338652"><ele>581.6666666666667</ele><time>2026-05-03T07:50:32Z</time></trkpt><trkpt lat="39.81607131420077" lon="8.772551927051946"><ele>583.3333333333334</ele><time>2026-05-03T07:50:33Z</time></trkpt><trkpt lat="39.81607964280642" lon="8.772315931892816"><ele>585.0</ele><time>2026-05-03T07:50:34Z</time></trkpt><trkpt lat="39.816085042712615" lon="8.772067743937207"><ele>587.0</ele><time>2026-05-03T07:50:35Z</time></trkpt><trkpt lat="39.8160854248217" lon="8.771809441678455"><ele>589.0</ele><time>2026-05-03T07:50:36Z</time></trkpt><trkpt lat="39.81608170535049" lon="8.771545866951207"><ele>591.0</ele><time>2026-05-03T07:50:37Z</time></trkpt><trkpt lat="39.816084239248966" lon="8.77126408452833"><ele>592.6666666666666</ele><time>2026-05-03T07:50:38Z</time></trkpt><trkpt lat="39.81608841265738" lon="8.770992415325807"><ele>594.3333333333333</ele><time>2026-05-03T07:50:39Z</time></trkpt><trkpt lat="39.816097441608285" lon="8.770753789307399"><ele>596.0</ele><time>2026-05-03T07:50:40Z</time></trkpt><trkpt lat="39.81610471748108" lon="8.770555241624049"><ele>596.0</ele><time>2026-05-03T07:50:41Z</time></trkpt><trkpt lat="39.81610399080717" lon="8.770374731047545"><ele>596.0</ele><time>2026-05-03T07:50:42Z</time></trkpt><trkpt lat="39.81610490366735" lon="8.770215868640443"><ele>596.0</ele><time>2026-05-03T07:50:43Z</time></trkpt><trkpt lat="39.81611122600753" lon="8.770073980840644"><ele>596.0</ele><time>2026-05-03T07:50:44Z</time></trkpt><trkpt lat="39.816115828458805" lon="8.769950214373104"><ele>597.0</ele><time>2026-05-03T07:50:45Z</time></trkpt><trkpt lat="39.816118552563815" lon="8.769844528489918"><ele>598.0</ele><time>2026-05-03T07:50:46Z</time></trkpt><trkpt lat="39.81612424179817" lon="8.76976006168942"><ele>599.0</ele><time>2026-05-03T07:50:47Z</time></trkpt><trkpt lat="39.81613111493703" lon="8.769610039730148"><ele>600.0</ele><time>2026-05-03T07:50:49Z</time></trkpt><trkpt lat="39.8161237000892" lon="8.769463569192977"><ele>601.0</ele><time>2026-05-03T07:50:51Z</time></trkpt><trkpt lat="39.816128267483585" lon="8.769299365152623"><ele>601.5714285714286</ele><time>2026-05-03T07:50:53Z</time></trkpt><trkpt lat="39.81613512030958" lon="8.769213527818106"><ele>602.1428571428572</ele><time>2026-05-03T07:50:54Z</time></trkpt><trkpt lat="39.81614058579858" lon="8.769127093179566"><ele>602.7142857142858</ele><time>2026-05-03T07:50:55Z</time></trkpt><trkpt lat="39.816142436139764" lon="8.769041998482836"><ele>603.2857142857142</ele><time>2026-05-03T07:50:56Z</time></trkpt><trkpt lat="39.81614147487792" lon="8.768951151372892"><ele>603.8571428571429</ele><time>2026-05-03T07:50:57Z</time></trkpt><trkpt lat="39.81614146641087" lon="8.768850698040119"><ele>604.4285714285714</ele><time>2026-05-03T07:50:58Z</time></trkpt><trkpt lat="39.816143135193094" lon="8.768740377988067"><ele>605.0</ele><time>2026-05-03T07:50:59Z</time></trkpt><trkpt lat="39.81614722566486" lon="8.768614671254388"><ele>605.6</ele><time>2026-05-03T07:51:00Z</time></trkpt><trkpt lat="39.816143912263485" lon="8.76849415204953"><ele>606.2</ele><time>2026-05-03T07:51:01Z</time></trkpt><trkpt lat="39.81612594632465" lon="8.768375534947538"><ele>606.8</ele><time>2026-05-03T07:51:02Z</time></trkpt><trkpt lat="39.81609909612962" lon="8.768256874360997"><ele>607.4</ele><time>2026-05-03T07:51:03Z</time></trkpt><trkpt lat="39.816050020980505" lon="8.76812745544003"><ele>608.0</ele><time>2026-05-03T07:51:04Z</time></trkpt><trkpt lat="39.81598016741463" lon="8.767969947664119"><ele>610.0</ele><time>2026-05-03T07:51:05Z</time></trkpt><trkpt lat="39.815912895764754" lon="8.767796549760128"><ele>612.0</ele><time>2026-05-03T07:51:06Z</time></trkpt><trkpt lat="39.81585434580251" lon="8.767609492777343"><ele>614.0</ele><time>2026-05-03T07:51:07Z</time></trkpt><trkpt lat="39.81580028213236" lon="8.76745813739249"><ele>616.0</ele><time>2026-05-03T07:51:08Z</time></trkpt><trkpt lat="39.815744137397104" lon="8.767278483117472"><ele>617.6666666666667</ele><time>2026-05-03T07:51:09Z</time></trkpt><trkpt lat="39.81569236925885" lon="8.767049644236426"><ele>619.3333333333334</ele><time>2026-05-03T07:51:10Z</time></trkpt><trkpt lat="39.8156409981046" lon="8.766836787893423"><ele>621.0</ele><time>2026-05-03T07:51:11Z</time></trkpt><trkpt lat="39.815583312484414" lon="8.766674238104976"><ele>621.4</ele><time>2026-05-03T07:51:12Z</time></trkpt><trkpt lat="39.81553314125718" lon="8.766534633499885"><ele>621.8</ele><time>2026-05-03T07:51:13Z</time></trkpt><trkpt lat="39.81548298364094" lon="8.766438813333567"><ele>622.1999999999999</ele><time>2026-05-03T07:51:14Z</time></trkpt><trkpt lat="39.8154214279015" lon="8.766389467699655"><ele>622.6</ele><time>2026-05-03T07:51:15Z</time></trkpt><trkpt lat="39.81534241371985" lon="8.766372354508249"><ele>623.0</ele><time>2026-05-03T07:51:16Z</time></trkpt><trkpt lat="39.815228854009035" lon="8.766377253186612"><ele>622.3333333333333</ele><time>2026-05-03T07:51:17Z</time></trkpt><trkpt lat="39.81506757092995" lon="8.766410029872228"><ele>621.6666666666666</ele><time>2026-05-03T07:51:18Z</time></trkpt><trkpt lat="39.81489114421336" lon="8.766433482127129"><ele>621.0</ele><time>2026-05-03T07:51:19Z</time></trkpt><trkpt lat="39.81475026206521" lon="8.766448065271854"><ele>621.0</ele><time>2026-05-03T07:51:20Z</time></trkpt><trkpt lat="39.8146042617364" lon="8.766502466000786"><ele>621.0</ele><time>2026-05-03T07:51:21Z</time></trkpt><trkpt lat="39.814483363205646" lon="8.766585133561202"><ele>621.0</ele><time>2026-05-03T07:51:22Z</time></trkpt><trkpt lat="39.81438701118371" lon="8.766630684879754"><ele>621.0</ele><time>2026-05-03T07:51:23Z</time></trkpt><trkpt lat="39.81430659288364" lon="8.766633573742164"><ele>620.8</ele><time>2026-05-03T07:51:23.999Z</time></trkpt><trkpt lat="39.8142371023947" lon="8.766624789144421"><ele>620.6</ele><time>2026-05-03T07:51:24.999Z</time></trkpt><trkpt lat="39.81414025798737" lon="8.766501057923353"><ele>620.4</ele><time>2026-05-03T07:51:26.999Z</time></trkpt><trkpt lat="39.8140193286442" lon="8.766498333359717"><ele>620.2</ele><time>2026-05-03T07:51:28.999Z</time></trkpt><trkpt lat="39.81391907773482" lon="8.766493614200387"><ele>620.0</ele><time>2026-05-03T07:51:29.999Z</time></trkpt><trkpt lat="39.813799534403536" lon="8.766477632611817"><ele>620.0</ele><time>2026-05-03T07:51:30.999Z</time></trkpt><trkpt lat="39.81366901934037" lon="8.766484647920032"><ele>620.0</ele><time>2026-05-03T07:51:31.999Z</time></trkpt><trkpt lat="39.81354023022003" lon="8.766464891806464"><ele>620.0</ele><time>2026-05-03T07:51:32.999Z</time></trkpt><trkpt lat="39.813432846447114" lon="8.766422332324735"><ele>620.0</ele><time>2026-05-03T07:51:33.999Z</time></trkpt><trkpt lat="39.81335591337883" lon="8.76638088535539"><ele>620.25</ele><time>2026-05-03T07:51:34.999Z</time></trkpt><trkpt lat="39.81331366580172" lon="8.766298885132638"><ele>620.5</ele><time>2026-05-03T07:51:35.999Z</time></trkpt><trkpt lat="39.81326984585975" lon="8.76616008375569"><ele>620.75</ele><time>2026-05-03T07:51:36.999Z</time></trkpt><trkpt lat="39.81318871825613" lon="8.766031343429663"><ele>621.0</ele><time>2026-05-03T07:51:37.999Z</time></trkpt><trkpt lat="39.81306461075836" lon="8.765964812074177"><ele>621.0</ele><time>2026-05-03T07:51:38.999Z</time></trkpt><trkpt lat="39.812959633541716" lon="8.765885533525898"><ele>621.0</ele><time>2026-05-03T07:51:39.999Z</time></trkpt><trkpt lat="39.81285670845226" lon="8.765835758025363"><ele>621.0</ele><time>2026-05-03T07:51:40.999Z</time></trkpt><trkpt lat="39.81275452682907" lon="8.765806274884135"><ele>621.0</ele><time>2026-05-03T07:51:41.999Z</time></trkpt><trkpt lat="39.8126656093618" lon="8.76580194989858"><ele>621.0</ele><time>2026-05-03T07:51:42.999Z</time></trkpt><trkpt lat="39.812595607457965" lon="8.765834464730663"><ele>619.8</ele><time>2026-05-03T07:51:43.999Z</time></trkpt><trkpt lat="39.812546848359894" lon="8.765916654804046"><ele>618.6</ele><time>2026-05-03T07:51:44.999Z</time></trkpt><trkpt lat="39.81257744823084" lon="8.766063798078548"><ele>617.4</ele><time>2026-05-03T07:51:45.999Z</time></trkpt><trkpt lat="39.81262591408609" lon="8.766203102916881"><ele>616.2</ele><time>2026-05-03T07:51:46.999Z</time></trkpt><trkpt lat="39.812661399019454" lon="8.766318981348771"><ele>615.0</ele><time>2026-05-03T07:51:47.999Z</time></trkpt><trkpt lat="39.812717745194156" lon="8.7664850789866"><ele>614.75</ele><time>2026-05-03T07:51:49.999Z</time></trkpt><trkpt lat="39.81278994301152" lon="8.766603015711096"><ele>614.5</ele><time>2026-05-03T07:51:50.999Z</time></trkpt><trkpt lat="39.81289239585576" lon="8.766702683463077"><ele>614.25</ele><time>2026-05-03T07:51:51.999Z</time></trkpt><trkpt lat="39.812981850856914" lon="8.766803781002434"><ele>614.0</ele><time>2026-05-03T07:51:52.999Z</time></trkpt><trkpt lat="39.81304321724887" lon="8.766907026699897"><ele>612.25</ele><time>2026-05-03T07:51:53.999Z</time></trkpt><trkpt lat="39.81307317291382" lon="8.767007257497273"><ele>610.5</ele><time>2026-05-03T07:51:54.999Z</time></trkpt><trkpt lat="39.8129941779835" lon="8.767148305512897"><ele>608.75</ele><time>2026-05-03T07:51:55.999Z</time></trkpt><trkpt lat="39.81292311593212" lon="8.767277895355027"><ele>607.0</ele><time>2026-05-03T07:51:56.999Z</time></trkpt><trkpt lat="39.81285285583219" lon="8.767411094061274"><ele>607.0</ele><time>2026-05-03T07:51:57.999Z</time></trkpt><trkpt lat="39.8127869386433" lon="8.76753546480096"><ele>607.0</ele><time>2026-05-03T07:51:58.999Z</time></trkpt><trkpt lat="39.812712254323806" lon="8.76763154080336"><ele>607.0</ele><time>2026-05-03T07:51:59.999Z</time></trkpt><trkpt lat="39.812591334285784" lon="8.76762266777498"><ele>607.0</ele><time>2026-05-03T07:52:00.999Z</time></trkpt><trkpt lat="39.812466665108495" lon="8.767628466285109"><ele>603.75</ele><time>2026-05-03T07:52:01.999Z</time></trkpt><trkpt lat="39.81233030115739" lon="8.76764197676474"><ele>600.5</ele><time>2026-05-03T07:52:02.999Z</time></trkpt><trkpt lat="39.812187488385185" lon="8.76766689235607"><ele>597.25</ele><time>2026-05-03T07:52:03.999Z</time></trkpt><trkpt lat="39.81205156068481" lon="8.767701302765307"><ele>594.0</ele><time>2026-05-03T07:52:04.999Z</time></trkpt><trkpt lat="39.81191731029811" lon="8.76778290067215"><ele>590.3333333333334</ele><time>2026-05-03T07:52:05.999Z</time></trkpt><trkpt lat="39.811769219358084" lon="8.767846903525262"><ele>586.6666666666667</ele><time>2026-05-03T07:52:06.999Z</time></trkpt><trkpt lat="39.81163221764873" lon="8.767926510602157"><ele>583.0</ele><time>2026-05-03T07:52:07.999Z</time></trkpt><trkpt lat="39.81149262402479" lon="8.76800762376285"><ele>583.0</ele><time>2026-05-03T07:52:08.999Z</time></trkpt><trkpt lat="39.81135474413094" lon="8.768087741029184"><ele>583.0</ele><time>2026-05-03T07:52:09.999Z</time></trkpt><trkpt lat="39.81122089641752" lon="8.768165888280883"><ele>583.0</ele><time>2026-05-03T07:52:10.999Z</time></trkpt><trkpt lat="39.81111763149485" lon="8.768226360573978"><ele>583.0</ele><time>2026-05-03T07:52:11.999Z</time></trkpt><trkpt lat="39.811059204924774" lon="8.768260575385893"><ele>583.0</ele><time>2026-05-03T07:52:13.999Z</time></trkpt><trkpt lat="39.81114508646631" lon="8.768290947516588"><ele>583.0</ele><time>2026-05-03T07:52:19Z</time></trkpt><trkpt lat="39.81120193007418" lon="8.768178433631052"><ele>583.0</ele><time>2026-05-03T07:52:20Z</time></trkpt><trkpt lat="39.81129440140986" lon="8.768167384564483"><ele>583.0</ele><time>2026-05-03T07:52:21Z</time></trkpt><trkpt lat="39.81135349309153" lon="8.76807679395864"><ele>583.0</ele><time>2026-05-03T07:52:23Z</time></trkpt><trkpt lat="39.81130289374856" lon="8.767945359361011"><ele>583.0</ele><time>2026-05-03T07:52:25Z</time></trkpt><trkpt lat="39.81124649518029" lon="8.76787675275281"><ele>583.0</ele><time>2026-05-03T07:52:26Z</time></trkpt><trkpt lat="39.811167423711886" lon="8.767820039349106"><ele>583.0</ele><time>2026-05-03T07:52:27Z</time></trkpt><trkpt lat="39.811076572430714" lon="8.767788862083972"><ele>583.0</ele><time>2026-05-03T07:52:28Z</time></trkpt><trkpt lat="39.81098383036176" lon="8.767782917125205"><ele>583.0</ele><time>2026-05-03T07:52:29Z</time></trkpt><trkpt lat="39.81089513979293" lon="8.767737491451895"><ele>583.3333333333334</ele><time>2026-05-03T07:52:30Z</time></trkpt><trkpt lat="39.81080923136466" lon="8.767725215242393"><ele>583.6666666666667</ele><time>2026-05-03T07:52:31Z</time></trkpt><trkpt lat="39.81074115262208" lon="8.767709373030483"><ele>584.0</ele><time>2026-05-03T07:52:32Z</time></trkpt><trkpt lat="39.810674060819295" lon="8.767684085138857"><ele>584.3333333333334</ele><time>2026-05-03T07:52:33Z</time></trkpt><trkpt lat="39.810608640213935" lon="8.767642252385555"><ele>584.6666666666666</ele><time>2026-05-03T07:52:34Z</time></trkpt><trkpt lat="39.810521606851545" lon="8.767591693822746"><ele>585.0</ele><time>2026-05-03T07:52:35Z</time></trkpt><trkpt lat="39.810441693948384" lon="8.767511377703526"><ele>586.2</ele><time>2026-05-03T07:52:36Z</time></trkpt><trkpt lat="39.810381764796176" lon="8.76742131274126"><ele>587.4</ele><time>2026-05-03T07:52:37Z</time></trkpt><trkpt lat="39.81032991956922" lon="8.767306462255622"><ele>588.6</ele><time>2026-05-03T07:52:38Z</time></trkpt><trkpt lat="39.81026824754859" lon="8.767178727994379"><ele>589.8</ele><time>2026-05-03T07:52:39Z</time></trkpt><trkpt lat="39.81022890000819" lon="8.767028971954803"><ele>591.0</ele><time>2026-05-03T07:52:40Z</time></trkpt><trkpt lat="39.81018541714804" lon="8.766889552404283"><ele>592.25</ele><time>2026-05-03T07:52:41Z</time></trkpt><trkpt lat="39.81013574386732" lon="8.766758912854934"><ele>593.5</ele><time>2026-05-03T07:52:42Z</time></trkpt><trkpt lat="39.8101061831927" lon="8.766618597340326"><ele>594.75</ele><time>2026-05-03T07:52:43Z</time></trkpt><trkpt lat="39.81006970515325" lon="8.766477844621745"><ele>596.0</ele><time>2026-05-03T07:52:44Z</time></trkpt><trkpt lat="39.81003459801779" lon="8.766334518344541"><ele>596.0</ele><time>2026-05-03T07:52:45Z</time></trkpt><trkpt lat="39.81001427906974" lon="8.766188292486191"><ele>596.0</ele><time>2026-05-03T07:52:46Z</time></trkpt><trkpt lat="39.810008901726" lon="8.76605468787472"><ele>596.0</ele><time>2026-05-03T07:52:47Z</time></trkpt><trkpt lat="39.81003735824913" lon="8.765942430527616"><ele>596.0</ele><time>2026-05-03T07:52:48Z</time></trkpt><trkpt lat="39.81005149042189" lon="8.765833252967818"><ele>596.0</ele><time>2026-05-03T07:52:49Z</time></trkpt><trkpt lat="39.810058287631456" lon="8.765730616139319"><ele>597.4</ele><time>2026-05-03T07:52:50Z</time></trkpt><trkpt lat="39.8100367665217" lon="8.765608552171"><ele>598.8</ele><time>2026-05-03T07:52:51Z</time></trkpt><trkpt lat="39.8099823406211" lon="8.765480033867457"><ele>600.1999999999999</ele><time>2026-05-03T07:52:52Z</time></trkpt><trkpt lat="39.80998120054374" lon="8.7653377756106"><ele>601.6</ele><time>2026-05-03T07:52:53Z</time></trkpt><trkpt lat="39.809977561532335" lon="8.765187582226101"><ele>603.0</ele><time>2026-05-03T07:52:54Z</time></trkpt><trkpt lat="39.809976619239315" lon="8.765033156150286"><ele>604.8</ele><time>2026-05-03T07:52:55Z</time></trkpt><trkpt lat="39.80999157614309" lon="8.764888287982807"><ele>606.5999999999999</ele><time>2026-05-03T07:52:56Z</time></trkpt><trkpt lat="39.80997940989619" lon="8.76477950765855"><ele>608.4000000000001</ele><time>2026-05-03T07:52:57Z</time></trkpt><trkpt lat="39.80994784851101" lon="8.76465628495406"><ele>610.2</ele><time>2026-05-03T07:52:58Z</time></trkpt><trkpt lat="39.80987369585156" lon="8.764543014300527"><ele>612.0</ele><time>2026-05-03T07:52:59Z</time></trkpt><trkpt lat="39.80977842922587" lon="8.764433783379909"><ele>615.25</ele><time>2026-05-03T07:53:00Z</time></trkpt><trkpt lat="39.80970620963596" lon="8.764300999234855"><ele>618.5</ele><time>2026-05-03T07:53:01Z</time></trkpt><trkpt lat="39.809653418079776" lon="8.764145954814172"><ele>621.75</ele><time>2026-05-03T07:53:02Z</time></trkpt><trkpt lat="39.80962995135226" lon="8.763952768525124"><ele>625.0</ele><time>2026-05-03T07:53:03Z</time></trkpt><trkpt lat="39.8095953496286" lon="8.763774231228968"><ele>625.0</ele><time>2026-05-03T07:53:04Z</time></trkpt><trkpt lat="39.80955286325995" lon="8.763648212919827"><ele>625.0</ele><time>2026-05-03T07:53:05Z</time></trkpt><trkpt lat="39.809499443173785" lon="8.763561393145409"><ele>625.0</ele><time>2026-05-03T07:53:06Z</time></trkpt><trkpt lat="39.809428290204075" lon="8.763487041296138"><ele>625.0</ele><time>2026-05-03T07:53:07Z</time></trkpt><trkpt lat="39.80932078556853" lon="8.763415450580004"><ele>625.0</ele><time>2026-05-03T07:53:08Z</time></trkpt><trkpt lat="39.80924231811507" lon="8.763298906738473"><ele>624.5</ele><time>2026-05-03T07:53:09Z</time></trkpt><trkpt lat="39.80918339379141" lon="8.763183239934015"><ele>624.0</ele><time>2026-05-03T07:53:10Z</time></trkpt><trkpt lat="39.8091120128581" lon="8.763054033781817"><ele>623.5</ele><time>2026-05-03T07:53:11Z</time></trkpt><trkpt lat="39.80902618341174" lon="8.76292804118545"><ele>623.0</ele><time>2026-05-03T07:53:12Z</time></trkpt><trkpt lat="39.808959415257945" lon="8.762783633291459"><ele>628.0</ele><time>2026-05-03T07:53:13Z</time></trkpt><trkpt lat="39.80891218673362" lon="8.76262993213455"><ele>633.0</ele><time>2026-05-03T07:53:14Z</time></trkpt><trkpt lat="39.80890000831181" lon="8.762425066354703"><ele>638.0</ele><time>2026-05-03T07:53:15Z</time></trkpt><trkpt lat="39.80887798657146" lon="8.762231301699178"><ele>643.0</ele><time>2026-05-03T07:53:16Z</time></trkpt><trkpt lat="39.80883372446383" lon="8.76206061631621"><ele>643.0</ele><time>2026-05-03T07:53:17Z</time></trkpt><trkpt lat="39.808760372799355" lon="8.761878484134593"><ele>643.0</ele><time>2026-05-03T07:53:18Z</time></trkpt><trkpt lat="39.80865151441432" lon="8.761721392297094"><ele>643.0</ele><time>2026-05-03T07:53:19Z</time></trkpt><trkpt lat="39.80857640949368" lon="8.761562037919074"><ele>641.25</ele><time>2026-05-03T07:53:20Z</time></trkpt><trkpt lat="39.808492661672105" lon="8.761442259344763"><ele>639.5</ele><time>2026-05-03T07:53:21Z</time></trkpt><trkpt lat="39.80841766569565" lon="8.761353615038676"><ele>637.75</ele><time>2026-05-03T07:53:22Z</time></trkpt><trkpt lat="39.80833520058953" lon="8.761264611056813"><ele>636.0</ele><time>2026-05-03T07:53:23Z</time></trkpt><trkpt lat="39.80827745743854" lon="8.761118574322781"><ele>640.25</ele><time>2026-05-03T07:53:24Z</time></trkpt><trkpt lat="39.808227062783295" lon="8.760958216845061"><ele>644.5</ele><time>2026-05-03T07:53:25Z</time></trkpt><trkpt lat="39.80816520028208" lon="8.760807974479345"><ele>648.75</ele><time>2026-05-03T07:53:26Z</time></trkpt><trkpt lat="39.80808427610797" lon="8.76069390426338"><ele>653.0</ele><time>2026-05-03T07:53:26.999Z</time></trkpt><trkpt lat="39.80799265540396" lon="8.76059002786856"><ele>653.0</ele><time>2026-05-03T07:53:27.999Z</time></trkpt><trkpt lat="39.807910054510984" lon="8.760494897293405"><ele>653.0</ele><time>2026-05-03T07:53:28.999Z</time></trkpt><trkpt lat="39.80785440061856" lon="8.760386973576235"><ele>653.0</ele><time>2026-05-03T07:53:29.999Z</time></trkpt><trkpt lat="39.80782081288377" lon="8.760247980082536"><ele>653.0</ele><time>2026-05-03T07:53:30.999Z</time></trkpt><trkpt lat="39.80778939585621" lon="8.760086431416273"><ele>652.25</ele><time>2026-05-03T07:53:31.999Z</time></trkpt><trkpt lat="39.80775418169225" lon="8.759925772722534"><ele>651.5</ele><time>2026-05-03T07:53:32.999Z</time></trkpt><trkpt lat="39.807718704947305" lon="8.759763022706029"><ele>650.75</ele><time>2026-05-03T07:53:33.999Z</time></trkpt><trkpt lat="39.80767126788242" lon="8.759615679802563"><ele>650.0</ele><time>2026-05-03T07:53:34.999Z</time></trkpt><trkpt lat="39.80761643944487" lon="8.759468579351617"><ele>652.0</ele><time>2026-05-03T07:53:35.999Z</time></trkpt><trkpt lat="39.80757024046971" lon="8.75930936712037"><ele>654.0</ele><time>2026-05-03T07:53:36.999Z</time></trkpt><trkpt lat="39.80754190526743" lon="8.759132599726303"><ele>656.0</ele><time>2026-05-03T07:53:37.999Z</time></trkpt><trkpt lat="39.807509297696285" lon="8.758951272502241"><ele>658.0</ele><time>2026-05-03T07:53:38.999Z</time></trkpt><trkpt lat="39.807457381688295" lon="8.758753705827647"><ele>658.0</ele><time>2026-05-03T07:53:39.999Z</time></trkpt><trkpt lat="39.80739855168071" lon="8.758534779139833"><ele>658.0</ele><time>2026-05-03T07:53:40.999Z</time></trkpt><trkpt lat="39.807340002646214" lon="8.7583136059226"><ele>658.0</ele><time>2026-05-03T07:53:41.999Z</time></trkpt><trkpt lat="39.80728156300618" lon="8.758085557644897"><ele>660.6666666666667</ele><time>2026-05-03T07:53:42.999Z</time></trkpt><trkpt lat="39.807213790347156" lon="8.757850682613002"><ele>663.3333333333334</ele><time>2026-05-03T07:53:43.999Z</time></trkpt><trkpt lat="39.80714416074003" lon="8.757602121053086"><ele>666.0</ele><time>2026-05-03T07:53:44.999Z</time></trkpt><trkpt lat="39.80707871950145" lon="8.757335743657048"><ele>669.6666666666666</ele><time>2026-05-03T07:53:45.999Z</time></trkpt><trkpt lat="39.807013330365045" lon="8.757065967305573"><ele>673.3333333333333</ele><time>2026-05-03T07:53:46.999Z</time></trkpt><trkpt lat="39.806945038506896" lon="8.756802373885163"><ele>677.0</ele><time>2026-05-03T07:53:47.999Z</time></trkpt><trkpt lat="39.806875591200196" lon="8.756524051500001"><ele>679.3333333333333</ele><time>2026-05-03T07:53:48.999Z</time></trkpt><trkpt lat="39.80682344140064" lon="8.756277864406648"><ele>681.6666666666666</ele><time>2026-05-03T07:53:49.999Z</time></trkpt><trkpt lat="39.806769089745465" lon="8.756062701338088"><ele>684.0</ele><time>2026-05-03T07:53:50.999Z</time></trkpt><trkpt lat="39.80669510236144" lon="8.75585635716483"><ele>686.0</ele><time>2026-05-03T07:53:51.999Z</time></trkpt><trkpt lat="39.806609223386104" lon="8.755648319836517"><ele>688.0</ele><time>2026-05-03T07:53:52.999Z</time></trkpt><trkpt lat="39.80651614675339" lon="8.755427845454197"><ele>690.0</ele><time>2026-05-03T07:53:53.999Z</time></trkpt><trkpt lat="39.806433739369844" lon="8.755181819345928"><ele>692.6666666666666</ele><time>2026-05-03T07:53:54.999Z</time></trkpt><trkpt lat="39.806353961095354" lon="8.754942127309755"><ele>695.3333333333333</ele><time>2026-05-03T07:53:55.999Z</time></trkpt><trkpt lat="39.806276419394194" lon="8.754702592604174"><ele>698.0</ele><time>2026-05-03T07:53:56.999Z</time></trkpt><trkpt lat="39.806201188092366" lon="8.75448080413474"><ele>698.3333333333333</ele><time>2026-05-03T07:53:57.999Z</time></trkpt><trkpt lat="39.806125920596415" lon="8.75427303391511"><ele>698.6666666666666</ele><time>2026-05-03T07:53:58.999Z</time></trkpt><trkpt lat="39.806048982100705" lon="8.754061310089778"><ele>699.0</ele><time>2026-05-03T07:53:59.999Z</time></trkpt><trkpt lat="39.805971250602646" lon="8.753838498325951"><ele>699.0</ele><time>2026-05-03T07:54:00.999Z</time></trkpt><trkpt lat="39.80588695001642" lon="8.753606050761917"><ele>699.0</ele><time>2026-05-03T07:54:01.999Z</time></trkpt><trkpt lat="39.80580289176579" lon="8.753373843794863"><ele>699.0</ele><time>2026-05-03T07:54:02.999Z</time></trkpt><trkpt lat="39.805711099217575" lon="8.753137264548526"><ele>700.0</ele><time>2026-05-03T07:54:03.999Z</time></trkpt><trkpt lat="39.80561960383487" lon="8.75290194476567"><ele>701.0</ele><time>2026-05-03T07:54:04.999Z</time></trkpt><trkpt lat="39.80552905270672" lon="8.75266104403039"><ele>702.0</ele><time>2026-05-03T07:54:05.999Z</time></trkpt><trkpt lat="39.80543758664187" lon="8.75241579402617"><ele>702.6666666666666</ele><time>2026-05-03T07:54:06.999Z</time></trkpt><trkpt lat="39.805347965474496" lon="8.752171104499089"><ele>703.3333333333333</ele><time>2026-05-03T07:54:07.999Z</time></trkpt><trkpt lat="39.80526078180708" lon="8.75194245878949"><ele>704.0</ele><time>2026-05-03T07:54:08.999Z</time></trkpt><trkpt lat="39.80519283436987" lon="8.751752893444605"><ele>707.0</ele><time>2026-05-03T07:54:09.999Z</time></trkpt><trkpt lat="39.80513611591705" lon="8.751588129196758"><ele>710.0</ele><time>2026-05-03T07:54:10.999Z</time></trkpt><trkpt lat="39.80507044196398" lon="8.751444052583407"><ele>713.0</ele><time>2026-05-03T07:54:11.999Z</time></trkpt><trkpt lat="39.804971567089126" lon="8.751289495454142"><ele>716.0</ele><time>2026-05-03T07:54:12.999Z</time></trkpt><trkpt lat="39.80484154165893" lon="8.751149043050578"><ele>718.0</ele><time>2026-05-03T07:54:13.999Z</time></trkpt><trkpt lat="39.80470542422529" lon="8.751000119284882"><ele>720.0</ele><time>2026-05-03T07:54:14.999Z</time></trkpt><trkpt lat="39.804584930546355" lon="8.750833538064304"><ele>722.0</ele><time>2026-05-03T07:54:15.999Z</time></trkpt><trkpt lat="39.804494490573965" lon="8.750675374677229"><ele>722.0</ele><time>2026-05-03T07:54:16.999Z</time></trkpt><trkpt lat="39.804429080028854" lon="8.750503389473435"><ele>722.0</ele><time>2026-05-03T07:54:17.999Z</time></trkpt><trkpt lat="39.8043723217784" lon="8.750299216856181"><ele>722.0</ele><time>2026-05-03T07:54:18.999Z</time></trkpt><trkpt lat="39.80432403081782" lon="8.750084878252457"><ele>724.3333333333333</ele><time>2026-05-03T07:54:19.999Z</time></trkpt><trkpt lat="39.80428762605405" lon="8.749866609101367"><ele>726.6666666666666</ele><time>2026-05-03T07:54:20.999Z</time></trkpt><trkpt lat="39.80426910004447" lon="8.749667054190134"><ele>729.0</ele><time>2026-05-03T07:54:21.999Z</time></trkpt><trkpt lat="39.80426936179087" lon="8.749493635275138"><ele>729.25</ele><time>2026-05-03T07:54:22.999Z</time></trkpt><trkpt lat="39.80425222279661" lon="8.749332752582795"><ele>729.5</ele><time>2026-05-03T07:54:24Z</time></trkpt><trkpt lat="39.80424135879487" lon="8.749173875968799"><ele>729.75</ele><time>2026-05-03T07:54:25Z</time></trkpt><trkpt lat="39.80424135467793" lon="8.749029496761578"><ele>730.0</ele><time>2026-05-03T07:54:26Z</time></trkpt><trkpt lat="39.80422194478564" lon="8.748912346591833"><ele>730.0</ele><time>2026-05-03T07:54:27Z</time></trkpt><trkpt lat="39.80420003343931" lon="8.748815209665617"><ele>730.0</ele><time>2026-05-03T07:54:28Z</time></trkpt><trkpt lat="39.80417732531807" lon="8.74873322237679"><ele>730.0</ele><time>2026-05-03T07:54:29Z</time></trkpt><trkpt lat="39.804124929248005" lon="8.748630585567376"><ele>730.0</ele><time>2026-05-03T07:54:31Z</time></trkpt><trkpt lat="39.804062937467016" lon="8.748571419237383"><ele>730.0</ele><time>2026-05-03T07:54:34Z</time></trkpt><trkpt lat="39.80396690289572" lon="8.748550054280194"><ele>730.0</ele><time>2026-05-03T07:54:37Z</time></trkpt><trkpt lat="39.80387305204851" lon="8.748583068715872"><ele>730.0</ele><time>2026-05-03T07:54:39Z</time></trkpt><trkpt lat="39.80379413494525" lon="8.74864481862458"><ele>730.0</ele><time>2026-05-03T07:54:41Z</time></trkpt><trkpt lat="39.803709791364376" lon="8.74871951889113"><ele>730.0</ele><time>2026-05-03T07:54:43Z</time></trkpt><trkpt lat="39.80362024630638" lon="8.748804694610884"><ele>730.0</ele><time>2026-05-03T07:54:45Z</time></trkpt><trkpt lat="39.803525942015156" lon="8.748903546966895"><ele>730.0</ele><time>2026-05-03T07:54:47Z</time></trkpt><trkpt lat="39.803431826299956" lon="8.749025110784885"><ele>731.3333333333334</ele><time>2026-05-03T07:54:49Z</time></trkpt><trkpt lat="39.8033820380375" lon="8.7491086513849"><ele>732.6666666666667</ele><time>2026-05-03T07:54:50Z</time></trkpt><trkpt lat="39.80334086134777" lon="8.749207474632357"><ele>734.0</ele><time>2026-05-03T07:54:51Z</time></trkpt><trkpt lat="39.803308461154046" lon="8.749292967640619"><ele>735.3333333333334</ele><time>2026-05-03T07:54:52Z</time></trkpt><trkpt lat="39.803276159141404" lon="8.74937208417669"><ele>736.6666666666666</ele><time>2026-05-03T07:54:53Z</time></trkpt><trkpt lat="39.8032436688107" lon="8.749451661933927"><ele>738.0</ele><time>2026-05-03T07:54:54Z</time></trkpt><trkpt lat="39.803158624613495" lon="8.74954406570598"><ele>738.5</ele><time>2026-05-03T07:54:56Z</time></trkpt><trkpt lat="39.80304841687994" lon="8.749532265148293"><ele>739.0</ele><time>2026-05-03T07:54:57Z</time></trkpt><trkpt lat="39.802925690104985" lon="8.749526343068"><ele>739.5</ele><time>2026-05-03T07:54:58Z</time></trkpt><trkpt lat="39.8027920189311" lon="8.749542582908177"><ele>740.0</ele><time>2026-05-03T07:54:59Z</time></trkpt><trkpt lat="39.802655851922275" lon="8.749554293336795"><ele>740.25</ele><time>2026-05-03T07:55:00Z</time></trkpt><trkpt lat="39.8025254249343" lon="8.749634681317254"><ele>740.5</ele><time>2026-05-03T07:55:01Z</time></trkpt><trkpt lat="39.80241317620839" lon="8.74972567432027"><ele>740.75</ele><time>2026-05-03T07:55:02Z</time></trkpt><trkpt lat="39.80231556347197" lon="8.7498096013812"><ele>741.0</ele><time>2026-05-03T07:55:03Z</time></trkpt><trkpt lat="39.80222681057424" lon="8.749882429500405"><ele>741.0</ele><time>2026-05-03T07:55:04Z</time></trkpt><trkpt lat="39.80215183777836" lon="8.749932061876958"><ele>741.0</ele><time>2026-05-03T07:55:05Z</time></trkpt><trkpt lat="39.8020178203165" lon="8.749939737805741"><ele>741.0</ele><time>2026-05-03T07:55:06Z</time></trkpt><trkpt lat="39.801949622289634" lon="8.750033032056317"><ele>741.0</ele><time>2026-05-03T07:55:07Z</time></trkpt><trkpt lat="39.80191019495863" lon="8.750136937094245"><ele>741.0</ele><time>2026-05-03T07:55:08Z</time></trkpt><trkpt lat="39.80186802549275" lon="8.750253580703774"><ele>741.5</ele><time>2026-05-03T07:55:10Z</time></trkpt><trkpt lat="39.80181035161249" lon="8.750405477906883"><ele>742.0</ele><time>2026-05-03T07:55:12Z</time></trkpt><trkpt lat="39.801765262486235" lon="8.75051922058597"><ele>742.5</ele><time>2026-05-03T07:55:13Z</time></trkpt><trkpt lat="39.801712905864726" lon="8.750651296414917"><ele>743.0</ele><time>2026-05-03T07:55:14Z</time></trkpt><trkpt lat="39.80165923163718" lon="8.75078863353732"><ele>743.0</ele><time>2026-05-03T07:55:15Z</time></trkpt><trkpt lat="39.80160348788565" lon="8.750934777270206"><ele>743.0</ele><time>2026-05-03T07:55:16Z</time></trkpt><trkpt lat="39.801533701291284" lon="8.751080998036102"><ele>743.0</ele><time>2026-05-03T07:55:17Z</time></trkpt><trkpt lat="39.80144387927488" lon="8.751217879094689"><ele>743.0</ele><time>2026-05-03T07:55:18Z</time></trkpt><trkpt lat="39.801344732637695" lon="8.751347778085629"><ele>743.0</ele><time>2026-05-03T07:55:19Z</time></trkpt><trkpt lat="39.801229792879916" lon="8.751479809852714"><ele>743.0</ele><time>2026-05-03T07:55:20Z</time></trkpt><trkpt lat="39.80111234324995" lon="8.751606315257632"><ele>743.0</ele><time>2026-05-03T07:55:21Z</time></trkpt><trkpt lat="39.80098393514661" lon="8.751716091899953"><ele>743.0</ele><time>2026-05-03T07:55:22Z</time></trkpt><trkpt lat="39.800849847584416" lon="8.751800639204454"><ele>743.0</ele><time>2026-05-03T07:55:23Z</time></trkpt><trkpt lat="39.800702535405534" lon="8.751876961967916"><ele>743.0</ele><time>2026-05-03T07:55:24Z</time></trkpt><trkpt lat="39.800542974302076" lon="8.751957729493874"><ele>743.0</ele><time>2026-05-03T07:55:25Z</time></trkpt><trkpt lat="39.80037335056912" lon="8.752043077795097"><ele>743.0</ele><time>2026-05-03T07:55:26Z</time></trkpt><trkpt lat="39.80019994673172" lon="8.752130328102417"><ele>743.0</ele><time>2026-05-03T07:55:27Z</time></trkpt><trkpt lat="39.80002806594155" lon="8.752217009773691"><ele>743.0</ele><time>2026-05-03T07:55:28Z</time></trkpt><trkpt lat="39.7998546869778" lon="8.75230480143474"><ele>743.0</ele><time>2026-05-03T07:55:29Z</time></trkpt><trkpt lat="39.79967996578826" lon="8.752393272737164"><ele>743.0</ele><time>2026-05-03T07:55:29.999Z</time></trkpt><trkpt lat="39.79950892106044" lon="8.752479883844018"><ele>743.0</ele><time>2026-05-03T07:55:30.999Z</time></trkpt><trkpt lat="39.79934095959625" lon="8.752564932341798"><ele>743.0</ele><time>2026-05-03T07:55:31.999Z</time></trkpt><trkpt lat="39.79917861729692" lon="8.75264434030046"><ele>743.0</ele><time>2026-05-03T07:55:32.999Z</time></trkpt><trkpt lat="39.799012595087596" lon="8.752705379946702"><ele>744.3333333333333</ele><time>2026-05-03T07:55:33.999Z</time></trkpt><trkpt lat="39.79884026265513" lon="8.752759894128001"><ele>745.6666666666666</ele><time>2026-05-03T07:55:34.999Z</time></trkpt><trkpt lat="39.79866621159454" lon="8.752813575069105"><ele>747.0</ele><time>2026-05-03T07:55:35.999Z</time></trkpt><trkpt lat="39.798491515674186" lon="8.752865817981023"><ele>747.3333333333334</ele><time>2026-05-03T07:55:36.999Z</time></trkpt><trkpt lat="39.798312661239336" lon="8.75291894156171"><ele>747.6666666666667</ele><time>2026-05-03T07:55:37.999Z</time></trkpt><trkpt lat="39.79814224385296" lon="8.752973361465815"><ele>748.0</ele><time>2026-05-03T07:55:38.999Z</time></trkpt><trkpt lat="39.79797520836651" lon="8.753027502234868"><ele>748.0</ele><time>2026-05-03T07:55:39.999Z</time></trkpt><trkpt lat="39.797811856917605" lon="8.753080448901446"><ele>748.0</ele><time>2026-05-03T07:55:40.999Z</time></trkpt><trkpt lat="39.79766670827066" lon="8.753124980467838"><ele>748.0</ele><time>2026-05-03T07:55:41.999Z</time></trkpt><trkpt lat="39.7975325808885" lon="8.753166115926307"><ele>747.6666666666667</ele><time>2026-05-03T07:55:42.999Z</time></trkpt><trkpt lat="39.79739069241517" lon="8.753278395313622"><ele>747.3333333333334</ele><time>2026-05-03T07:55:43.999Z</time></trkpt><trkpt lat="39.797276480710714" lon="8.753398344944927"><ele>747.0</ele><time>2026-05-03T07:55:44.999Z</time></trkpt><trkpt lat="39.7971571284286" lon="8.753486878621379"><ele>747.0</ele><time>2026-05-03T07:55:45.999Z</time></trkpt><trkpt lat="39.79702337304725" lon="8.753531163491703"><ele>747.0</ele><time>2026-05-03T07:55:46.999Z</time></trkpt><trkpt lat="39.796884957193065" lon="8.753565333646247"><ele>747.0</ele><time>2026-05-03T07:55:47.999Z</time></trkpt><trkpt lat="39.79675353540242" lon="8.75359747229"><ele>747.0</ele><time>2026-05-03T07:55:48.999Z</time></trkpt><trkpt lat="39.796627300996605" lon="8.753627592184715"><ele>746.2</ele><time>2026-05-03T07:55:49.999Z</time></trkpt><trkpt lat="39.79652203426128" lon="8.753657520053286"><ele>745.4000000000001</ele><time>2026-05-03T07:55:50.999Z</time></trkpt><trkpt lat="39.796451488493396" lon="8.753687448941225"><ele>744.5999999999999</ele><time>2026-05-03T07:55:51.999Z</time></trkpt><trkpt lat="39.79638865325101" lon="8.753608279831587"><ele>743.8</ele><time>2026-05-03T07:55:55.999Z</time></trkpt><trkpt lat="39.79638748053052" lon="8.75350726610819"><ele>743.0</ele><time>2026-05-03T07:55:56.999Z</time></trkpt><trkpt lat="39.79636450118479" lon="8.753372139523211"><ele>742.8</ele><time>2026-05-03T07:55:57.999Z</time></trkpt><trkpt lat="39.7963614613359" lon="8.753239399507729"><ele>742.5999999999999</ele><time>2026-05-03T07:55:58.999Z</time></trkpt><trkpt lat="39.79636455748682" lon="8.753100313260198"><ele>742.4000000000001</ele><time>2026-05-03T07:55:59.999Z</time></trkpt><trkpt lat="39.79635250196783" lon="8.752953145055402"><ele>742.2</ele><time>2026-05-03T07:56:00.999Z</time></trkpt><trkpt lat="39.79634374412284" lon="8.752794964176122"><ele>742.0</ele><time>2026-05-03T07:56:01.999Z</time></trkpt><trkpt lat="39.79632808222239" lon="8.752627246534447"><ele>742.6666666666667</ele><time>2026-05-03T07:56:02.999Z</time></trkpt><trkpt lat="39.79631058206901" lon="8.752440658966764"><ele>743.3333333333334</ele><time>2026-05-03T07:56:03.999Z</time></trkpt><trkpt lat="39.79629174402751" lon="8.752235290241929"><ele>744.0</ele><time>2026-05-03T07:56:04.999Z</time></trkpt><trkpt lat="39.79627301930585" lon="8.752026256886678"><ele>744.5</ele><time>2026-05-03T07:56:05.999Z</time></trkpt><trkpt lat="39.79625400994665" lon="8.751821694477501"><ele>745.0</ele><time>2026-05-03T07:56:06.999Z</time></trkpt><trkpt lat="39.796237302239284" lon="8.751625105347193"><ele>745.5</ele><time>2026-05-03T07:56:07.999Z</time></trkpt><trkpt lat="39.79622119181099" lon="8.751445838365164"><ele>746.0</ele><time>2026-05-03T07:56:08.999Z</time></trkpt><trkpt lat="39.7962093574419" lon="8.751258582159567"><ele>746.0</ele><time>2026-05-03T07:56:09.999Z</time></trkpt><trkpt lat="39.79619458409417" lon="8.751053728935899"><ele>746.0</ele><time>2026-05-03T07:56:10.999Z</time></trkpt><trkpt lat="39.79617733330434" lon="8.7508422072603"><ele>746.0</ele><time>2026-05-03T07:56:11.999Z</time></trkpt><trkpt lat="39.79616032818011" lon="8.750632609795458"><ele>746.25</ele><time>2026-05-03T07:56:12.999Z</time></trkpt><trkpt lat="39.796144845973046" lon="8.750436045999274"><ele>746.5</ele><time>2026-05-03T07:56:13.999Z</time></trkpt><trkpt lat="39.79613121511735" lon="8.750249765822861"><ele>746.75</ele><time>2026-05-03T07:56:14.999Z</time></trkpt><trkpt lat="39.79611535815719" lon="8.750081161661043"><ele>747.0</ele><time>2026-05-03T07:56:15.999Z</time></trkpt><trkpt lat="39.796101069378764" lon="8.749934047865256"><ele>747.25</ele><time>2026-05-03T07:56:16.999Z</time></trkpt><trkpt lat="39.796088514491665" lon="8.74981392958086"><ele>747.5</ele><time>2026-05-03T07:56:17.999Z</time></trkpt><trkpt lat="39.796097258308755" lon="8.749672328708867"><ele>747.75</ele><time>2026-05-03T07:56:18.999Z</time></trkpt><trkpt lat="39.79609070342128" lon="8.749503562404517"><ele>748.0</ele><time>2026-05-03T07:56:19.999Z</time></trkpt><trkpt lat="39.79606261199482" lon="8.749323537825001"><ele>749.0</ele><time>2026-05-03T07:56:20.999Z</time></trkpt><trkpt lat="39.79605162333742" lon="8.749131516856448"><ele>750.0</ele><time>2026-05-03T07:56:21.999Z</time></trkpt><trkpt lat="39.7960365969121" lon="8.748935793176045"><ele>751.0</ele><time>2026-05-03T07:56:22.999Z</time></trkpt><trkpt lat="39.796018750743386" lon="8.748737166591017"><ele>750.75</ele><time>2026-05-03T07:56:23.999Z</time></trkpt><trkpt lat="39.79599961726139" lon="8.74855456367866"><ele>750.5</ele><time>2026-05-03T07:56:24.999Z</time></trkpt><trkpt lat="39.79597414167158" lon="8.748388000931639"><ele>750.25</ele><time>2026-05-03T07:56:25.999Z</time></trkpt><trkpt lat="39.795949174687415" lon="8.74823412824554"><ele>750.0</ele><time>2026-05-03T07:56:26.999Z</time></trkpt><trkpt lat="39.7958922781547" lon="8.748111095370932"><ele>751.0</ele><time>2026-05-03T07:56:27.999Z</time></trkpt><trkpt lat="39.79581495285938" lon="8.74799677952882"><ele>752.0</ele><time>2026-05-03T07:56:28.999Z</time></trkpt><trkpt lat="39.79572958920305" lon="8.747893635097807"><ele>753.0</ele><time>2026-05-03T07:56:30Z</time></trkpt><trkpt lat="39.795648763446465" lon="8.747810975768829"><ele>754.0</ele><time>2026-05-03T07:56:31Z</time></trkpt><trkpt lat="39.795550065507534" lon="8.74773913724336"><ele>755.0</ele><time>2026-05-03T07:56:32Z</time></trkpt><trkpt lat="39.79543624545685" lon="8.747678737494113"><ele>756.25</ele><time>2026-05-03T07:56:33Z</time></trkpt><trkpt lat="39.79530926487637" lon="8.747619934353967"><ele>757.5</ele><time>2026-05-03T07:56:34Z</time></trkpt><trkpt lat="39.795168729242405" lon="8.747549060879402"><ele>758.75</ele><time>2026-05-03T07:56:35Z</time></trkpt><trkpt lat="39.79502270730286" lon="8.747471240884545"><ele>760.0</ele><time>2026-05-03T07:56:36Z</time></trkpt><trkpt lat="39.79487815837594" lon="8.747392584610399"><ele>760.0</ele><time>2026-05-03T07:56:37Z</time></trkpt><trkpt lat="39.79473504820541" lon="8.747314711240648"><ele>760.0</ele><time>2026-05-03T07:56:38Z</time></trkpt><trkpt lat="39.79458756250971" lon="8.747237338253642"><ele>760.0</ele><time>2026-05-03T07:56:39Z</time></trkpt><trkpt lat="39.79443479552155" lon="8.747159085830257"><ele>758.6666666666667</ele><time>2026-05-03T07:56:40Z</time></trkpt><trkpt lat="39.794281764164346" lon="8.747088163826257"><ele>757.3333333333334</ele><time>2026-05-03T07:56:41Z</time></trkpt><trkpt lat="39.79413197578048" lon="8.747020536764426"><ele>756.0</ele><time>2026-05-03T07:56:42Z</time></trkpt><trkpt lat="39.79397786587294" lon="8.746945706353308"><ele>756.6666666666666</ele><time>2026-05-03T07:56:43Z</time></trkpt><trkpt lat="39.79381254301528" lon="8.746856603234498"><ele>757.3333333333333</ele><time>2026-05-03T07:56:44Z</time></trkpt><trkpt lat="39.79363943207778" lon="8.746757874777742"><ele>758.0</ele><time>2026-05-03T07:56:45Z</time></trkpt><trkpt lat="39.7934675988011" lon="8.74665960920481"><ele>758.0</ele><time>2026-05-03T07:56:46Z</time></trkpt><trkpt lat="39.79328415926754" lon="8.746561382122708"><ele>758.0</ele><time>2026-05-03T07:56:47Z</time></trkpt><trkpt lat="39.793102421301036" lon="8.746472674480318"><ele>758.0</ele><time>2026-05-03T07:56:48Z</time></trkpt><trkpt lat="39.79291784278672" lon="8.746383460904159"><ele>758.0</ele><time>2026-05-03T07:56:49Z</time></trkpt><trkpt lat="39.792737548084496" lon="8.746294987626825"><ele>758.0</ele><time>2026-05-03T07:56:50Z</time></trkpt><trkpt lat="39.79256277883987" lon="8.746209690445328"><ele>758.0</ele><time>2026-05-03T07:56:51Z</time></trkpt><trkpt lat="39.79238201496375" lon="8.746125838540502"><ele>757.6666666666666</ele><time>2026-05-03T07:56:52Z</time></trkpt><trkpt lat="39.79219603668781" lon="8.746041525753434"><ele>757.3333333333334</ele><time>2026-05-03T07:56:53Z</time></trkpt><trkpt lat="39.79200612427067" lon="8.745960329750325"><ele>757.0</ele><time>2026-05-03T07:56:54Z</time></trkpt><trkpt lat="39.791820572904655" lon="8.745888675654312"><ele>757.0</ele><time>2026-05-03T07:56:55Z</time></trkpt><trkpt lat="39.79163598735741" lon="8.745824752188224"><ele>757.0</ele><time>2026-05-03T07:56:56Z</time></trkpt><trkpt lat="39.791455286396356" lon="8.74576312643763"><ele>757.0</ele><time>2026-05-03T07:56:57Z</time></trkpt><trkpt lat="39.79127446756288" lon="8.745701460488009"><ele>757.0</ele><time>2026-05-03T07:56:58Z</time></trkpt><trkpt lat="39.79106935058051" lon="8.745703912970573"><ele>757.0</ele><time>2026-05-03T07:56:59Z</time></trkpt><trkpt lat="39.790858358772574" lon="8.745660295661077"><ele>757.0</ele><time>2026-05-03T07:57:00Z</time></trkpt><trkpt lat="39.79063229747142" lon="8.745613132603081"><ele>757.6666666666667</ele><time>2026-05-03T07:57:01Z</time></trkpt><trkpt lat="39.79040907148093" lon="8.745565585629556"><ele>758.3333333333334</ele><time>2026-05-03T07:57:02Z</time></trkpt><trkpt lat="39.790212018455136" lon="8.745525557030485"><ele>759.0</ele><time>2026-05-03T07:57:03Z</time></trkpt><trkpt lat="39.790024348041825" lon="8.745484168548982"><ele>759.0</ele><time>2026-05-03T07:57:04Z</time></trkpt><trkpt lat="39.789839074362746" lon="8.745410065876802"><ele>759.0</ele><time>2026-05-03T07:57:05Z</time></trkpt><trkpt lat="39.78966809509046" lon="8.745377233409956"><ele>759.0</ele><time>2026-05-03T07:57:06Z</time></trkpt><trkpt lat="39.789499599805985" lon="8.745343680758861"><ele>759.0</ele><time>2026-05-03T07:57:07Z</time></trkpt><trkpt lat="39.789310891696495" lon="8.745306778134939"><ele>759.0</ele><time>2026-05-03T07:57:08Z</time></trkpt><trkpt lat="39.7891309170114" lon="8.745275039435725"><ele>759.0</ele><time>2026-05-03T07:57:09Z</time></trkpt><trkpt lat="39.78897556123737" lon="8.745251050607179"><ele>759.0</ele><time>2026-05-03T07:57:10Z</time></trkpt><trkpt lat="39.788843034613606" lon="8.745221681666228"><ele>759.0</ele><time>2026-05-03T07:57:11Z</time></trkpt><trkpt lat="39.78871576071736" lon="8.745174949682458"><ele>759.0</ele><time>2026-05-03T07:57:12Z</time></trkpt><trkpt lat="39.78859271149026" lon="8.74510667492677"><ele>759.0</ele><time>2026-05-03T07:57:13Z</time></trkpt><trkpt lat="39.78846197826138" lon="8.745030302542403"><ele>761.0</ele><time>2026-05-03T07:57:14Z</time></trkpt><trkpt lat="39.78833725164803" lon="8.744942723064142"><ele>763.0</ele><time>2026-05-03T07:57:15Z</time></trkpt><trkpt lat="39.78820053112936" lon="8.744834484881348"><ele>765.0</ele><time>2026-05-03T07:57:16Z</time></trkpt><trkpt lat="39.788064602221496" lon="8.744716446244086"><ele>765.0</ele><time>2026-05-03T07:57:17Z</time></trkpt><trkpt lat="39.787941921971125" lon="8.744607015096163"><ele>765.0</ele><time>2026-05-03T07:57:18Z</time></trkpt><trkpt lat="39.787836481269316" lon="8.744512961680435"><ele>765.0</ele><time>2026-05-03T07:57:19Z</time></trkpt><trkpt lat="39.78773291786786" lon="8.744420478842036"><ele>765.0</ele><time>2026-05-03T07:57:20Z</time></trkpt><trkpt lat="39.78762875729158" lon="8.744325268469794"><ele>766.6666666666667</ele><time>2026-05-03T07:57:21Z</time></trkpt><trkpt lat="39.78751044954542" lon="8.744215448369957"><ele>768.3333333333334</ele><time>2026-05-03T07:57:22Z</time></trkpt><trkpt lat="39.78737995209434" lon="8.744093791951347"><ele>770.0</ele><time>2026-05-03T07:57:23Z</time></trkpt><trkpt lat="39.787243107547056" lon="8.743967495487986"><ele>770.0</ele><time>2026-05-03T07:57:24Z</time></trkpt><trkpt lat="39.78711183787013" lon="8.743847317226356"><ele>770.0</ele><time>2026-05-03T07:57:25Z</time></trkpt><trkpt lat="39.78697759312109" lon="8.74371852247752"><ele>770.0</ele><time>2026-05-03T07:57:26Z</time></trkpt><trkpt lat="39.786849422615184" lon="8.743585636798203"><ele>771.25</ele><time>2026-05-03T07:57:27Z</time></trkpt><trkpt lat="39.78674396923958" lon="8.743462737885217"><ele>772.5</ele><time>2026-05-03T07:57:28Z</time></trkpt><trkpt lat="39.78665669358922" lon="8.743350512427673"><ele>773.75</ele><time>2026-05-03T07:57:29Z</time></trkpt><trkpt lat="39.7865761035608" lon="8.743244120157252"><ele>775.0</ele><time>2026-05-03T07:57:30Z</time></trkpt><trkpt lat="39.78649652096877" lon="8.743142433335077"><ele>775.0</ele><time>2026-05-03T07:57:31Z</time></trkpt><trkpt lat="39.786417787647" lon="8.74305791246341"><ele>775.0</ele><time>2026-05-03T07:57:31.999Z</time></trkpt><trkpt lat="39.78632941227407" lon="8.742985647237276"><ele>775.0</ele><time>2026-05-03T07:57:32.999Z</time></trkpt><trkpt lat="39.78620865160804" lon="8.74294459853042"><ele>775.0</ele><time>2026-05-03T07:57:33.999Z</time></trkpt><trkpt lat="39.78608019001334" lon="8.742894211442628"><ele>775.25</ele><time>2026-05-03T07:57:34.999Z</time></trkpt><trkpt lat="39.78594510811096" lon="8.74282541966042"><ele>775.5</ele><time>2026-05-03T07:57:35.999Z</time></trkpt><trkpt lat="39.785823029229164" lon="8.742781119749097"><ele>775.75</ele><time>2026-05-03T07:57:36.999Z</time></trkpt><trkpt lat="39.78571813676077" lon="8.742712104196501"><ele>776.0</ele><time>2026-05-03T07:57:37.999Z</time></trkpt><trkpt lat="39.785592374002555" lon="8.742623422628364"><ele>778.0</ele><time>2026-05-03T07:57:38.999Z</time></trkpt><trkpt lat="39.78544767985057" lon="8.742528339951848"><ele>780.0</ele><time>2026-05-03T07:57:39.999Z</time></trkpt><trkpt lat="39.785291881472745" lon="8.742461998881577"><ele>782.0</ele><time>2026-05-03T07:57:40.999Z</time></trkpt><trkpt lat="39.785139137791525" lon="8.742392158312375"><ele>782.0</ele><time>2026-05-03T07:57:41.999Z</time></trkpt><trkpt lat="39.78496892640086" lon="8.742340142845658"><ele>782.0</ele><time>2026-05-03T07:57:42.999Z</time></trkpt><trkpt lat="39.78478911336938" lon="8.74226554856309"><ele>782.0</ele><time>2026-05-03T07:57:43.999Z</time></trkpt><trkpt lat="39.784596545427654" lon="8.742212845140958"><ele>782.0</ele><time>2026-05-03T07:57:44.999Z</time></trkpt><trkpt lat="39.78440913435249" lon="8.742175438183521"><ele>782.0</ele><time>2026-05-03T07:57:45.999Z</time></trkpt><trkpt lat="39.784240051108114" lon="8.742166315848081"><ele>782.0</ele><time>2026-05-03T07:57:46.999Z</time></trkpt><trkpt lat="39.78407734217462" lon="8.742187251099887"><ele>781.6666666666667</ele><time>2026-05-03T07:57:47.999Z</time></trkpt><trkpt lat="39.78390406471084" lon="8.742205119483486"><ele>781.3333333333333</ele><time>2026-05-03T07:57:48.999Z</time></trkpt><trkpt lat="39.78372719078962" lon="8.742198733522331"><ele>781.0</ele><time>2026-05-03T07:57:49.999Z</time></trkpt><trkpt lat="39.78355895031021" lon="8.742187351126201"><ele>780.3333333333333</ele><time>2026-05-03T07:57:50.999Z</time></trkpt><trkpt lat="39.78340774738171" lon="8.742188020746783"><ele>779.6666666666667</ele><time>2026-05-03T07:57:51.999Z</time></trkpt><trkpt lat="39.78325950396629" lon="8.742203044993635"><ele>779.0</ele><time>2026-05-03T07:57:52.999Z</time></trkpt><trkpt lat="39.78310227796002" lon="8.742221246951301"><ele>779.0</ele><time>2026-05-03T07:57:53.999Z</time></trkpt><trkpt lat="39.782931192827526" lon="8.742242505543775"><ele>779.0</ele><time>2026-05-03T07:57:54.999Z</time></trkpt><trkpt lat="39.7827747995631" lon="8.742266114860103"><ele>779.0</ele><time>2026-05-03T07:57:55.999Z</time></trkpt><trkpt lat="39.782638416544515" lon="8.742292335716483"><ele>779.2</ele><time>2026-05-03T07:57:56.999Z</time></trkpt><trkpt lat="39.78252346103313" lon="8.742327736679034"><ele>779.4000000000001</ele><time>2026-05-03T07:57:57.999Z</time></trkpt><trkpt lat="39.78243588194548" lon="8.742388347702967"><ele>779.6</ele><time>2026-05-03T07:57:58.999Z</time></trkpt><trkpt lat="39.78234391452237" lon="8.74242186623283"><ele>779.8</ele><time>2026-05-03T07:57:59.999Z</time></trkpt><trkpt lat="39.78225591532626" lon="8.742499157898159"><ele>780.0</ele><time>2026-05-03T07:58:00.999Z</time></trkpt><trkpt lat="39.78216554985682" lon="8.742600687226847"><ele>779.3333333333333</ele><time>2026-05-03T07:58:01.999Z</time></trkpt><trkpt lat="39.782070859216226" lon="8.74272734707848"><ele>778.6666666666666</ele><time>2026-05-03T07:58:02.999Z</time></trkpt><trkpt lat="39.781964942445235" lon="8.742877639303112"><ele>778.0</ele><time>2026-05-03T07:58:03.999Z</time></trkpt><trkpt lat="39.78185326902786" lon="8.74304333577477"><ele>779.3333333333333</ele><time>2026-05-03T07:58:04.999Z</time></trkpt><trkpt lat="39.78173824415432" lon="8.743215583545759"><ele>780.6666666666667</ele><time>2026-05-03T07:58:05.999Z</time></trkpt><trkpt lat="39.78163284106123" lon="8.743398007640943"><ele>782.0</ele><time>2026-05-03T07:58:06.999Z</time></trkpt><trkpt lat="39.78150810998445" lon="8.743568876004945"><ele>782.0</ele><time>2026-05-03T07:58:07.999Z</time></trkpt><trkpt lat="39.78138748066778" lon="8.743743524623088"><ele>782.0</ele><time>2026-05-03T07:58:08.999Z</time></trkpt><trkpt lat="39.781254291293855" lon="8.743902193808776"><ele>782.0</ele><time>2026-05-03T07:58:09.999Z</time></trkpt><trkpt lat="39.78113308976678" lon="8.744072936574913"><ele>784.3333333333334</ele><time>2026-05-03T07:58:10.999Z</time></trkpt><trkpt lat="39.781011546003846" lon="8.74424562854045"><ele>786.6666666666667</ele><time>2026-05-03T07:58:11.999Z</time></trkpt><trkpt lat="39.78090349223646" lon="8.74443194511184"><ele>789.0</ele><time>2026-05-03T07:58:12.999Z</time></trkpt><trkpt lat="39.78078498393801" lon="8.74456900752586"><ele>790.0</ele><time>2026-05-03T07:58:13.999Z</time></trkpt><trkpt lat="39.780696620258446" lon="8.744695131769392"><ele>791.0</ele><time>2026-05-03T07:58:14.999Z</time></trkpt><trkpt lat="39.78061699260242" lon="8.74480878658137"><ele>792.0</ele><time>2026-05-03T07:58:15.999Z</time></trkpt><trkpt lat="39.780545466517026" lon="8.744910878006557"><ele>793.0</ele><time>2026-05-03T07:58:16.999Z</time></trkpt><trkpt lat="39.78045656569373" lon="8.74503876617102"><ele>793.0</ele><time>2026-05-03T07:58:17.999Z</time></trkpt><trkpt lat="39.780352535885996" lon="8.745189476445066"><ele>793.0</ele><time>2026-05-03T07:58:18.999Z</time></trkpt><trkpt lat="39.7802652546148" lon="8.745347886925988"><ele>793.0</ele><time>2026-05-03T07:58:19.999Z</time></trkpt><trkpt lat="39.78017093836091" lon="8.745478847244788"><ele>793.0</ele><time>2026-05-03T07:58:20.999Z</time></trkpt><trkpt lat="39.780056035711844" lon="8.745602862809408"><ele>794.5</ele><time>2026-05-03T07:58:21.999Z</time></trkpt><trkpt lat="39.779950031450156" lon="8.745734382756538"><ele>796.0</ele><time>2026-05-03T07:58:22.999Z</time></trkpt><trkpt lat="39.77983706815823" lon="8.745870402583122"><ele>797.5</ele><time>2026-05-03T07:58:23.999Z</time></trkpt><trkpt lat="39.779741070295806" lon="8.745990971784096"><ele>799.0</ele><time>2026-05-03T07:58:24.999Z</time></trkpt><trkpt lat="39.779697801329824" lon="8.746107908790687"><ele>799.2</ele><time>2026-05-03T07:58:25.999Z</time></trkpt><trkpt lat="39.77963536716958" lon="8.746157523660742"><ele>799.4000000000001</ele><time>2026-05-03T07:58:26.999Z</time></trkpt><trkpt lat="39.77956350331682" lon="8.74613973609764"><ele>799.6</ele><time>2026-05-03T07:58:27.999Z</time></trkpt><trkpt lat="39.77948067602953" lon="8.746172907960489"><ele>799.8</ele><time>2026-05-03T07:58:28.999Z</time></trkpt><trkpt lat="39.779368616025195" lon="8.74618272223977"><ele>800.0</ele><time>2026-05-03T07:58:29.999Z</time></trkpt><trkpt lat="39.779260368230034" lon="8.74615553527525"><ele>800.0</ele><time>2026-05-03T07:58:30.999Z</time></trkpt><trkpt lat="39.77914609289481" lon="8.746116363499626"><ele>800.0</ele><time>2026-05-03T07:58:31.999Z</time></trkpt><trkpt lat="39.779042282601985" lon="8.746056844079568"><ele>800.0</ele><time>2026-05-03T07:58:32.998Z</time></trkpt><trkpt lat="39.77897448539809" lon="8.745985084356446"><ele>800.0</ele><time>2026-05-03T07:58:33.998Z</time></trkpt><trkpt lat="39.778897666333975" lon="8.74591096211272"><ele>800.0</ele><time>2026-05-03T07:58:34.998Z</time></trkpt><trkpt lat="39.77882360818837" lon="8.74585068065527"><ele>798.6666666666667</ele><time>2026-05-03T07:58:36Z</time></trkpt><trkpt lat="39.77875634052346" lon="8.74581269503238"><ele>797.3333333333333</ele><time>2026-05-03T07:58:37Z</time></trkpt><trkpt lat="39.778545254553" lon="8.745598852186033"><ele>796.0</ele><time>2026-05-03T07:58:44Z</time></trkpt><trkpt lat="39.77889264077574" lon="8.745921531582606"><ele>795.9999999999999</ele><time>2026-05-03T07:58:46Z</time></trkpt><trkpt lat="39.77894620602327" lon="8.745982022665109"><ele>796.0</ele><time>2026-05-03T07:58:47Z</time></trkpt><trkpt lat="39.7790048885031" lon="8.746093325379126"><ele>796.0</ele><time>2026-05-03T07:58:49Z</time></trkpt><trkpt lat="39.778960507092506" lon="8.74598403601598"><ele>796.0</ele><time>2026-05-03T07:58:56Z</time></trkpt><trkpt lat="39.77890313103464" lon="8.74590755510675"><ele>795.9999999999999</ele><time>2026-05-03T07:58:58Z</time></trkpt><trkpt lat="39.7788375752393" lon="8.745897834622333"><ele>796.0</ele><time>2026-05-03T07:59:26Z</time></trkpt><trkpt lat="39.77877619627755" lon="8.745860564151068"><ele>795.9999999999999</ele><time>2026-05-03T07:59:30Z</time></trkpt><trkpt lat="39.77870217147826" lon="8.745842425259607"><ele>796.0</ele><time>2026-05-03T07:59:36Z</time></trkpt><trkpt lat="39.77864709751357" lon="8.745884774792556"><ele>796.0</ele><time>2026-05-03T07:59:42.999Z</time></trkpt><trkpt lat="39.77873238313237" lon="8.745856369983787"><ele>796.0</ele><time>2026-05-03T08:01:55.999Z</time></trkpt><trkpt lat="39.778794523176394" lon="8.745878967496568"><ele>795.9999999999999</ele><time>2026-05-03T08:02:04.999Z</time></trkpt><trkpt lat="39.77886367709621" lon="8.745896283123168"><ele>796.0</ele><time>2026-05-03T08:02:14.999Z</time></trkpt><trkpt lat="39.77874756476199" lon="8.745869132766769"><ele>795.9999999999999</ele><time>2026-05-03T08:04:57.999Z</time></trkpt><trkpt lat="39.77868089255118" lon="8.745852578752846"><ele>796.0</ele><time>2026-05-03T08:04:58.999Z</time></trkpt><trkpt lat="39.77860992427332" lon="8.745830206056157"><ele>796.0</ele><time>2026-05-03T08:04:59.999Z</time></trkpt><trkpt lat="39.778550804360435" lon="8.74580065939375"><ele>796.0</ele><time>2026-05-03T08:05:00.999Z</time></trkpt><trkpt lat="39.77850897482531" lon="8.74570701656132"><ele>795.9999999999999</ele><time>2026-05-03T08:05:01.999Z</time></trkpt><trkpt lat="39.778408582556786" lon="8.745727939391"><ele>796.0</ele><time>2026-05-03T08:05:03.999Z</time></trkpt><trkpt lat="39.77836301558657" lon="8.745794072068199"><ele>794.8333333333333</ele><time>2026-05-03T08:05:04.999Z</time></trkpt><trkpt lat="39.77831401268694" lon="8.745864565978591"><ele>793.6666666666666</ele><time>2026-05-03T08:05:05.999Z</time></trkpt><trkpt lat="39.7782669425675" lon="8.745945975595099"><ele>792.5</ele><time>2026-05-03T08:05:06.999Z</time></trkpt><trkpt lat="39.778212953257" lon="8.746028496022245"><ele>791.3333333333333</ele><time>2026-05-03T08:05:07.999Z</time></trkpt><trkpt lat="39.77815555396724" lon="8.746110639856369"><ele>790.1666666666666</ele><time>2026-05-03T08:05:08.999Z</time></trkpt><trkpt lat="39.778089820362595" lon="8.746187001931613"><ele>789.0</ele><time>2026-05-03T08:05:09.999Z</time></trkpt><trkpt lat="39.77801991940841" lon="8.746240788516653"><ele>789.0</ele><time>2026-05-03T08:05:10.999Z</time></trkpt><trkpt lat="39.77795061760558" lon="8.74629716517697"><ele>789.0</ele><time>2026-05-03T08:05:11.999Z</time></trkpt><trkpt lat="39.77789293260696" lon="8.746371767400142"><ele>789.0</ele><time>2026-05-03T08:05:12.999Z</time></trkpt><trkpt lat="39.77782555214926" lon="8.746436108575596"><ele>789.0</ele><time>2026-05-03T08:05:13.999Z</time></trkpt><trkpt lat="39.777755895316595" lon="8.746470534575623"><ele>789.0</ele><time>2026-05-03T08:05:14.999Z</time></trkpt><trkpt lat="39.777682268942854" lon="8.746490023022247"><ele>789.0</ele><time>2026-05-03T08:05:15.999Z</time></trkpt><trkpt lat="39.7776008963693" lon="8.746495069509388"><ele>787.4000000000001</ele><time>2026-05-03T08:05:16.999Z</time></trkpt><trkpt lat="39.7775159817769" lon="8.746532526668462"><ele>785.8</ele><time>2026-05-03T08:05:17.999Z</time></trkpt><trkpt lat="39.777430717303545" lon="8.746580677478674"><ele>784.2</ele><time>2026-05-03T08:05:18.999Z</time></trkpt><trkpt lat="39.77732904036122" lon="8.746649595437152"><ele>782.5999999999999</ele><time>2026-05-03T08:05:19.999Z</time></trkpt><trkpt lat="39.777236622352895" lon="8.74671569109823"><ele>781.0</ele><time>2026-05-03T08:05:20.999Z</time></trkpt><trkpt lat="39.77714632486547" lon="8.746803346041414"><ele>779.5999999999999</ele><time>2026-05-03T08:05:21.999Z</time></trkpt><trkpt lat="39.77706827296583" lon="8.746924890479816"><ele>778.2</ele><time>2026-05-03T08:05:22.999Z</time></trkpt><trkpt lat="39.77699243927845" lon="8.747033176391573"><ele>776.8</ele><time>2026-05-03T08:05:23.999Z</time></trkpt><trkpt lat="39.77692713805113" lon="8.747135342718702"><ele>775.4000000000001</ele><time>2026-05-03T08:05:24.999Z</time></trkpt><trkpt lat="39.776865367209574" lon="8.747232941754065"><ele>774.0</ele><time>2026-05-03T08:05:25.999Z</time></trkpt><trkpt lat="39.77678694618459" lon="8.74730254201094"><ele>774.0</ele><time>2026-05-03T08:05:26.999Z</time></trkpt><trkpt lat="39.77671643917802" lon="8.747367163667386"><ele>774.0</ele><time>2026-05-03T08:05:27.999Z</time></trkpt><trkpt lat="39.776626358333374" lon="8.747423182869088"><ele>774.0</ele><time>2026-05-03T08:05:28.999Z</time></trkpt><trkpt lat="39.776527901882226" lon="8.747491405024899"><ele>774.0</ele><time>2026-05-03T08:05:29.999Z</time></trkpt><trkpt lat="39.77641549975505" lon="8.74752441275196"><ele>774.0</ele><time>2026-05-03T08:05:30.999Z</time></trkpt><trkpt lat="39.77631177439698" lon="8.747513154640908"><ele>774.0</ele><time>2026-05-03T08:05:31.999Z</time></trkpt><trkpt lat="39.776213311516365" lon="8.74752442127287"><ele>774.0</ele><time>2026-05-03T08:05:32.999Z</time></trkpt><trkpt lat="39.77612543582916" lon="8.747573296794975"><ele>774.0</ele><time>2026-05-03T08:05:33.999Z</time></trkpt><trkpt lat="39.77603793436467" lon="8.747615048545514"><ele>774.0</ele><time>2026-05-03T08:05:34.999Z</time></trkpt><trkpt lat="39.775955810882195" lon="8.747655702747718"><ele>774.0</ele><time>2026-05-03T08:05:35.999Z</time></trkpt><trkpt lat="39.77588479312981" lon="8.747669995246303"><ele>774.0</ele><time>2026-05-03T08:05:36.999Z</time></trkpt><trkpt lat="39.775815700475675" lon="8.747609306470736"><ele>772.6</ele><time>2026-05-03T08:05:37.999Z</time></trkpt><trkpt lat="39.77572810920056" lon="8.747554383621795"><ele>771.2</ele><time>2026-05-03T08:05:38.999Z</time></trkpt><trkpt lat="39.775627568283866" lon="8.747499085873004"><ele>769.8000000000001</ele><time>2026-05-03T08:05:39.999Z</time></trkpt><trkpt lat="39.775536309358486" lon="8.747438708551615"><ele>768.4000000000001</ele><time>2026-05-03T08:05:40.999Z</time></trkpt><trkpt lat="39.775446407925706" lon="8.747392254276194"><ele>767.0</ele><time>2026-05-03T08:05:41.999Z</time></trkpt><trkpt lat="39.77536046831555" lon="8.74737153576634"><ele>767.0</ele><time>2026-05-03T08:05:42.999Z</time></trkpt><trkpt lat="39.775283554364606" lon="8.747379808889919"><ele>767.0</ele><time>2026-05-03T08:05:43.999Z</time></trkpt><trkpt lat="39.7752260561941" lon="8.747454256245264"><ele>767.0</ele><time>2026-05-03T08:05:44.999Z</time></trkpt><trkpt lat="39.77515828911558" lon="8.747509902877422"><ele>767.0</ele><time>2026-05-03T08:05:45.999Z</time></trkpt><trkpt lat="39.77507206608531" lon="8.74752628249411"><ele>767.0</ele><time>2026-05-03T08:05:46.999Z</time></trkpt><trkpt lat="39.77497751075731" lon="8.747566336936957"><ele>767.0</ele><time>2026-05-03T08:05:47.999Z</time></trkpt><trkpt lat="39.77489039685658" lon="8.747629397962623"><ele>765.2</ele><time>2026-05-03T08:05:48.999Z</time></trkpt><trkpt lat="39.77479769736756" lon="8.747666820693627"><ele>763.4000000000001</ele><time>2026-05-03T08:05:49.999Z</time></trkpt><trkpt lat="39.774704691085745" lon="8.747731563429092"><ele>761.5999999999999</ele><time>2026-05-03T08:05:50.999Z</time></trkpt><trkpt lat="39.7745935794549" lon="8.747803202258861"><ele>759.8</ele><time>2026-05-03T08:05:51.999Z</time></trkpt><trkpt lat="39.77450187052945" lon="8.747898446537643"><ele>758.0</ele><time>2026-05-03T08:05:52.999Z</time></trkpt><trkpt lat="39.77441625991284" lon="8.747967854008895"><ele>755.0</ele><time>2026-05-03T08:05:53.999Z</time></trkpt><trkpt lat="39.774328949783296" lon="8.748005405415475"><ele>752.0</ele><time>2026-05-03T08:05:54.999Z</time></trkpt><trkpt lat="39.774240955808025" lon="8.748017718434726"><ele>749.0</ele><time>2026-05-03T08:05:55.999Z</time></trkpt><trkpt lat="39.77413340736717" lon="8.748029052030347"><ele>746.0</ele><time>2026-05-03T08:05:56.999Z</time></trkpt><trkpt lat="39.77401460405611" lon="8.748047799089834"><ele>743.0</ele><time>2026-05-03T08:05:57.999Z</time></trkpt><trkpt lat="39.773889794814835" lon="8.748068367787585"><ele>743.0</ele><time>2026-05-03T08:05:58.999Z</time></trkpt><trkpt lat="39.77376146802511" lon="8.748096380826137"><ele>743.0</ele><time>2026-05-03T08:05:59.999Z</time></trkpt><trkpt lat="39.773623678254786" lon="8.748107960054949"><ele>743.0</ele><time>2026-05-03T08:06:00.999Z</time></trkpt><trkpt lat="39.77348301140561" lon="8.748141069741413"><ele>743.0</ele><time>2026-05-03T08:06:01.999Z</time></trkpt><trkpt lat="39.77333750830993" lon="8.748174717693878"><ele>744.0</ele><time>2026-05-03T08:06:02.999Z</time></trkpt><trkpt lat="39.77320332755053" lon="8.74820067557975"><ele>745.0</ele><time>2026-05-03T08:06:03.999Z</time></trkpt><trkpt lat="39.77307274811018" lon="8.748209124808344"><ele>746.0</ele><time>2026-05-03T08:06:04.999Z</time></trkpt><trkpt lat="39.772930689206454" lon="8.748215890230496"><ele>747.0</ele><time>2026-05-03T08:06:05.999Z</time></trkpt><trkpt lat="39.77278675801447" lon="8.748232752123108"><ele>747.5</ele><time>2026-05-03T08:06:06.999Z</time></trkpt><trkpt lat="39.77264536527538" lon="8.748261650202092"><ele>748.0</ele><time>2026-05-03T08:06:07.999Z</time></trkpt><trkpt lat="39.77251331465411" lon="8.748273879007753"><ele>748.5</ele><time>2026-05-03T08:06:08.999Z</time></trkpt><trkpt lat="39.77238924994484" lon="8.748313299193377"><ele>749.0</ele><time>2026-05-03T08:06:09.999Z</time></trkpt><trkpt lat="39.77228405699908" lon="8.748396687554944"><ele>749.0</ele><time>2026-05-03T08:06:10.999Z</time></trkpt><trkpt lat="39.77215666334078" lon="8.748449157515276"><ele>749.0</ele><time>2026-05-03T08:06:11.999Z</time></trkpt><trkpt lat="39.772015168882696" lon="8.748482027088016"><ele>749.0</ele><time>2026-05-03T08:06:12.999Z</time></trkpt><trkpt lat="39.771856372653694" lon="8.748503055822383"><ele>749.0</ele><time>2026-05-03T08:06:13.999Z</time></trkpt><trkpt lat="39.771692846262646" lon="8.748540263913762"><ele>744.6666666666666</ele><time>2026-05-03T08:06:14.999Z</time></trkpt><trkpt lat="39.77153558007537" lon="8.748602168928212"><ele>740.3333333333334</ele><time>2026-05-03T08:06:15.999Z</time></trkpt><trkpt lat="39.771386245277746" lon="8.748689199833379"><ele>736.0</ele><time>2026-05-03T08:06:16.999Z</time></trkpt><trkpt lat="39.77124560475182" lon="8.748785569328641"><ele>736.0</ele><time>2026-05-03T08:06:17.999Z</time></trkpt><trkpt lat="39.77109811836232" lon="8.748887650590296"><ele>736.0</ele><time>2026-05-03T08:06:18.999Z</time></trkpt><trkpt lat="39.770970380933605" lon="8.74898278563832"><ele>736.0</ele><time>2026-05-03T08:06:19.999Z</time></trkpt><trkpt lat="39.77084045407978" lon="8.749081446889402"><ele>736.75</ele><time>2026-05-03T08:06:20.999Z</time></trkpt><trkpt lat="39.77072235064605" lon="8.749169134851362"><ele>737.5</ele><time>2026-05-03T08:06:21.999Z</time></trkpt><trkpt lat="39.77060181040443" lon="8.749250290155054"><ele>738.25</ele><time>2026-05-03T08:06:22.999Z</time></trkpt><trkpt lat="39.77048551172908" lon="8.749321793062194"><ele>739.0</ele><time>2026-05-03T08:06:23.999Z</time></trkpt><trkpt lat="39.770376864155445" lon="8.74938490075892"><ele>737.4000000000001</ele><time>2026-05-03T08:06:24.999Z</time></trkpt><trkpt lat="39.770282100490185" lon="8.74943656747123"><ele>735.8</ele><time>2026-05-03T08:06:25.999Z</time></trkpt><trkpt lat="39.77019513478894" lon="8.749513208879478"><ele>734.2</ele><time>2026-05-03T08:06:26.999Z</time></trkpt><trkpt lat="39.7701043474186" lon="8.74959558296941"><ele>732.5999999999999</ele><time>2026-05-03T08:06:27.999Z</time></trkpt><trkpt lat="39.770037680334056" lon="8.749728247004386"><ele>731.0</ele><time>2026-05-03T08:06:28.999Z</time></trkpt><trkpt lat="39.769987530056746" lon="8.749902880567348"><ele>731.0</ele><time>2026-05-03T08:06:29.999Z</time></trkpt><trkpt lat="39.76993180479082" lon="8.750090507918278"><ele>731.0</ele><time>2026-05-03T08:06:30.999Z</time></trkpt><trkpt lat="39.76987397833044" lon="8.750289456201589"><ele>731.0</ele><time>2026-05-03T08:06:31.999Z</time></trkpt><trkpt lat="39.76979820873354" lon="8.750488303210219"><ele>727.6666666666666</ele><time>2026-05-03T08:06:32.999Z</time></trkpt><trkpt lat="39.76973459607625" lon="8.750700617187173"><ele>724.3333333333334</ele><time>2026-05-03T08:06:33.999Z</time></trkpt><trkpt lat="39.76967493017904" lon="8.750904056231635"><ele>721.0</ele><time>2026-05-03T08:06:34.999Z</time></trkpt><trkpt lat="39.76963032799373" lon="8.751085750887844"><ele>719.5</ele><time>2026-05-03T08:06:35.999Z</time></trkpt><trkpt lat="39.76961224838425" lon="8.751258501308802"><ele>718.0</ele><time>2026-05-03T08:06:36.999Z</time></trkpt><trkpt lat="39.76955367298322" lon="8.751405424361248"><ele>716.5</ele><time>2026-05-03T08:06:37.999Z</time></trkpt><trkpt lat="39.76947628611978" lon="8.75155103327117"><ele>715.0</ele><time>2026-05-03T08:06:38.999Z</time></trkpt><trkpt lat="39.76937156519313" lon="8.751702860016994"><ele>715.0</ele><time>2026-05-03T08:06:39.999Z</time></trkpt><trkpt lat="39.76925917115746" lon="8.75186318012911"><ele>715.0</ele><time>2026-05-03T08:06:40.998Z</time></trkpt><trkpt lat="39.769159348583834" lon="8.75201690995137"><ele>715.0</ele><time>2026-05-03T08:06:41.998Z</time></trkpt><trkpt lat="39.769071855709825" lon="8.752175916136547"><ele>715.0</ele><time>2026-05-03T08:06:42.998Z</time></trkpt><trkpt lat="39.76901540563514" lon="8.752376530069723"><ele>715.0</ele><time>2026-05-03T08:06:43.998Z</time></trkpt><trkpt lat="39.76896612920793" lon="8.752588785419226"><ele>715.0</ele><time>2026-05-03T08:06:44.998Z</time></trkpt><trkpt lat="39.76891807824037" lon="8.752788634140769"><ele>713.25</ele><time>2026-05-03T08:06:45.998Z</time></trkpt><trkpt lat="39.768892040845934" lon="8.752981784780578"><ele>711.5</ele><time>2026-05-03T08:06:46.998Z</time></trkpt><trkpt lat="39.76884391897492" lon="8.75315461109081"><ele>709.75</ele><time>2026-05-03T08:06:47.998Z</time></trkpt><trkpt lat="39.76878345405787" lon="8.753331432636342"><ele>708.0</ele><time>2026-05-03T08:06:48.998Z</time></trkpt><trkpt lat="39.7687419375265" lon="8.753499978364417"><ele>706.25</ele><time>2026-05-03T08:06:49.998Z</time></trkpt><trkpt lat="39.76872644081008" lon="8.753654369905865"><ele>704.5</ele><time>2026-05-03T08:06:50.998Z</time></trkpt><trkpt lat="39.7687649295617" lon="8.7538244095176"><ele>702.75</ele><time>2026-05-03T08:06:51.998Z</time></trkpt><trkpt lat="39.768830027006736" lon="8.754011215795936"><ele>701.0</ele><time>2026-05-03T08:06:52.998Z</time></trkpt><trkpt lat="39.768874317228395" lon="8.754199693528264"><ele>699.25</ele><time>2026-05-03T08:06:53.998Z</time></trkpt><trkpt lat="39.76890151393818" lon="8.754375378740937"><ele>697.5</ele><time>2026-05-03T08:06:54.998Z</time></trkpt><trkpt lat="39.76895660896989" lon="8.754537056918114"><ele>695.75</ele><time>2026-05-03T08:06:55.998Z</time></trkpt><trkpt lat="39.76908548846074" lon="8.75466504632646"><ele>694.0</ele><time>2026-05-03T08:06:56.998Z</time></trkpt><trkpt lat="39.769184671882165" lon="8.754806276849097"><ele>694.0</ele><time>2026-05-03T08:06:57.998Z</time></trkpt><trkpt lat="39.76922649989942" lon="8.754962037318796"><ele>694.0</ele><time>2026-05-03T08:06:58.998Z</time></trkpt><trkpt lat="39.769288650238025" lon="8.755146118577695"><ele>694.0</ele><time>2026-05-03T08:07:00Z</time></trkpt><trkpt lat="39.76934150264946" lon="8.755348838747961"><ele>694.0</ele><time>2026-05-03T08:07:01Z</time></trkpt><trkpt lat="39.76940573788956" lon="8.75551091196139"><ele>691.25</ele><time>2026-05-03T08:07:02Z</time></trkpt><trkpt lat="39.76947418022532" lon="8.75563034892727"><ele>688.5</ele><time>2026-05-03T08:07:03Z</time></trkpt><trkpt lat="39.76958178910456" lon="8.755688546197467"><ele>685.75</ele><time>2026-05-03T08:07:04Z</time></trkpt><trkpt lat="39.769704030893465" lon="8.755777734428621"><ele>683.0</ele><time>2026-05-03T08:07:05Z</time></trkpt><trkpt lat="39.769842844261724" lon="8.755832057180207"><ele>683.0</ele><time>2026-05-03T08:07:06Z</time></trkpt><trkpt lat="39.769897339483116" lon="8.755942338964834"><ele>683.0</ele><time>2026-05-03T08:07:07Z</time></trkpt><trkpt lat="39.76995453078456" lon="8.756045153331144"><ele>683.0</ele><time>2026-05-03T08:07:08Z</time></trkpt><trkpt lat="39.76993133963292" lon="8.756202659491267"><ele>683.0</ele><time>2026-05-03T08:07:09Z</time></trkpt><trkpt lat="39.769905184668076" lon="8.756340486942554"><ele>683.0</ele><time>2026-05-03T08:07:10Z</time></trkpt><trkpt lat="39.769841077659386" lon="8.75642854568379"><ele>680.75</ele><time>2026-05-03T08:07:11Z</time></trkpt><trkpt lat="39.76976312684255" lon="8.756525335144254"><ele>678.5</ele><time>2026-05-03T08:07:12Z</time></trkpt><trkpt lat="39.76966721424445" lon="8.756653016685075"><ele>676.25</ele><time>2026-05-03T08:07:13Z</time></trkpt><trkpt lat="39.769567271342076" lon="8.756768986824213"><ele>674.0</ele><time>2026-05-03T08:07:14Z</time></trkpt><trkpt lat="39.76948712681498" lon="8.756925739834324"><ele>672.3333333333333</ele><time>2026-05-03T08:07:15Z</time></trkpt><trkpt lat="39.769420717055844" lon="8.757117992499024"><ele>670.6666666666666</ele><time>2026-05-03T08:07:16Z</time></trkpt><trkpt lat="39.76935631790894" lon="8.757335862999248"><ele>669.0</ele><time>2026-05-03T08:07:17Z</time></trkpt><trkpt lat="39.769289303403774" lon="8.757555572773796"><ele>664.6666666666666</ele><time>2026-05-03T08:07:18Z</time></trkpt><trkpt lat="39.7692176625655" lon="8.75778258093959"><ele>660.3333333333333</ele><time>2026-05-03T08:07:19Z</time></trkpt><trkpt lat="39.76914319423543" lon="8.758020699008704"><ele>656.0</ele><time>2026-05-03T08:07:20Z</time></trkpt><trkpt lat="39.7690486057675" lon="8.758237459454358"><ele>656.0</ele><time>2026-05-03T08:07:21Z</time></trkpt><trkpt lat="39.76894490282092" lon="8.758441932064216"><ele>656.0</ele><time>2026-05-03T08:07:22Z</time></trkpt><trkpt lat="39.76882577883588" lon="8.75864744632824"><ele>656.0</ele><time>2026-05-03T08:07:23Z</time></trkpt><trkpt lat="39.768695645798594" lon="8.758854606271068"><ele>655.6666666666666</ele><time>2026-05-03T08:07:24Z</time></trkpt><trkpt lat="39.76855139676846" lon="8.759051816645945"><ele>655.3333333333334</ele><time>2026-05-03T08:07:25Z</time></trkpt><trkpt lat="39.76839717562769" lon="8.759248132213447"><ele>655.0</ele><time>2026-05-03T08:07:26Z</time></trkpt><trkpt lat="39.76825124642876" lon="8.759443238007039"><ele>652.3333333333334</ele><time>2026-05-03T08:07:27Z</time></trkpt><trkpt lat="39.7681303977024" lon="8.75963416931026"><ele>649.6666666666666</ele><time>2026-05-03T08:07:28Z</time></trkpt><trkpt lat="39.76800030978641" lon="8.759792215577324"><ele>647.0</ele><time>2026-05-03T08:07:29Z</time></trkpt><trkpt lat="39.76789911745982" lon="8.75997009868765"><ele>647.0</ele><time>2026-05-03T08:07:30Z</time></trkpt><trkpt lat="39.7678153018399" lon="8.760191206189267"><ele>647.0</ele><time>2026-05-03T08:07:31Z</time></trkpt><trkpt lat="39.76774353260846" lon="8.760422357901291"><ele>647.0</ele><time>2026-05-03T08:07:32Z</time></trkpt><trkpt lat="39.76765758479227" lon="8.76065813067566"><ele>644.0</ele><time>2026-05-03T08:07:33Z</time></trkpt><trkpt lat="39.76757237709249" lon="8.760885232186316"><ele>641.0</ele><time>2026-05-03T08:07:34Z</time></trkpt><trkpt lat="39.76749620122201" lon="8.761097785015943"><ele>638.0</ele><time>2026-05-03T08:07:35Z</time></trkpt><trkpt lat="39.767424613024474" lon="8.761290020827134"><ele>637.75</ele><time>2026-05-03T08:07:36Z</time></trkpt><trkpt lat="39.76736379373107" lon="8.761458839287657"><ele>637.5</ele><time>2026-05-03T08:07:37Z</time></trkpt><trkpt lat="39.767324839105434" lon="8.761626598525208"><ele>637.25</ele><time>2026-05-03T08:07:38Z</time></trkpt><trkpt lat="39.767322581800656" lon="8.761791222312894"><ele>637.0</ele><time>2026-05-03T08:07:39Z</time></trkpt><trkpt lat="39.76735312435165" lon="8.761952848846098"><ele>637.0</ele><time>2026-05-03T08:07:40Z</time></trkpt><trkpt lat="39.767407100749296" lon="8.762102640766479"><ele>637.0</ele><time>2026-05-03T08:07:41Z</time></trkpt><trkpt lat="39.767441337690705" lon="8.762237635130829"><ele>637.0</ele><time>2026-05-03T08:07:42Z</time></trkpt><trkpt lat="39.76744375855579" lon="8.76236232767351"><ele>637.0</ele><time>2026-05-03T08:07:43Z</time></trkpt><trkpt lat="39.76740693550729" lon="8.762459892482763"><ele>637.0</ele><time>2026-05-03T08:07:44Z</time></trkpt><trkpt lat="39.76731891491652" lon="8.762493426002614"><ele>637.0</ele><time>2026-05-03T08:07:45Z</time></trkpt><trkpt lat="39.767211143539036" lon="8.762549790428459"><ele>637.0</ele><time>2026-05-03T08:07:46Z</time></trkpt><trkpt lat="39.7670716069269" lon="8.762619536768351"><ele>637.0</ele><time>2026-05-03T08:07:47Z</time></trkpt><trkpt lat="39.76692328601371" lon="8.762683191832194"><ele>637.0</ele><time>2026-05-03T08:07:48Z</time></trkpt><trkpt lat="39.76675830069974" lon="8.76275964152867"><ele>634.3333333333334</ele><time>2026-05-03T08:07:49Z</time></trkpt><trkpt lat="39.76657944053052" lon="8.76284168151546"><ele>631.6666666666666</ele><time>2026-05-03T08:07:50Z</time></trkpt><trkpt lat="39.76640431755707" lon="8.762921465159208"><ele>629.0</ele><time>2026-05-03T08:07:51Z</time></trkpt><trkpt lat="39.76623398750367" lon="8.762966990305483"><ele>629.0</ele><time>2026-05-03T08:07:52Z</time></trkpt><trkpt lat="39.766096112211955" lon="8.763000831966261"><ele>629.0</ele><time>2026-05-03T08:07:53Z</time></trkpt><trkpt lat="39.76598014881114" lon="8.762997431866053"><ele>629.0</ele><time>2026-05-03T08:07:54Z</time></trkpt><trkpt lat="39.76588846554602" lon="8.762924964120982"><ele>629.0</ele><time>2026-05-03T08:07:55Z</time></trkpt><trkpt lat="39.76575206977882" lon="8.762847556476977"><ele>627.6666666666666</ele><time>2026-05-03T08:07:56Z</time></trkpt><trkpt lat="39.765606074506564" lon="8.762767491987763"><ele>626.3333333333334</ele><time>2026-05-03T08:07:57Z</time></trkpt><trkpt lat="39.765450473491896" lon="8.762707617815321"><ele>625.0</ele><time>2026-05-03T08:07:58Z</time></trkpt><trkpt lat="39.76526839180416" lon="8.762674120908128"><ele>622.3333333333334</ele><time>2026-05-03T08:07:59Z</time></trkpt><trkpt lat="39.765087104230915" lon="8.762607848245489"><ele>619.6666666666666</ele><time>2026-05-03T08:07:59.999Z</time></trkpt><trkpt lat="39.764910451554094" lon="8.762545815293588"><ele>617.0</ele><time>2026-05-03T08:08:00.999Z</time></trkpt><trkpt lat="39.76474349702482" lon="8.762516394144741"><ele>617.0</ele><time>2026-05-03T08:08:01.999Z</time></trkpt><trkpt lat="39.764591561576765" lon="8.762495181757377"><ele>617.0</ele><time>2026-05-03T08:08:02.999Z</time></trkpt><trkpt lat="39.764424833674745" lon="8.7625319393259"><ele>617.0</ele><time>2026-05-03T08:08:03.999Z</time></trkpt><trkpt lat="39.76425593604609" lon="8.762584649186024"><ele>615.75</ele><time>2026-05-03T08:08:04.999Z</time></trkpt><trkpt lat="39.76411327156032" lon="8.762578040725012"><ele>614.5</ele><time>2026-05-03T08:08:05.999Z</time></trkpt><trkpt lat="39.76398860360247" lon="8.762549324553984"><ele>613.25</ele><time>2026-05-03T08:08:06.999Z</time></trkpt><trkpt lat="39.76385925602375" lon="8.762471968506334"><ele>612.0</ele><time>2026-05-03T08:08:07.999Z</time></trkpt><trkpt lat="39.76371111006851" lon="8.762362517351445"><ele>612.0</ele><time>2026-05-03T08:08:08.999Z</time></trkpt><trkpt lat="39.76355771835234" lon="8.762244996241257"><ele>612.0</ele><time>2026-05-03T08:08:09.999Z</time></trkpt><trkpt lat="39.76339928653775" lon="8.762166756358312"><ele>612.0</ele><time>2026-05-03T08:08:10.999Z</time></trkpt><trkpt lat="39.76322561468075" lon="8.762094732043158"><ele>609.3333333333334</ele><time>2026-05-03T08:08:11.999Z</time></trkpt><trkpt lat="39.76303563161507" lon="8.762039122058301"><ele>606.6666666666667</ele><time>2026-05-03T08:08:12.999Z</time></trkpt><trkpt lat="39.76284097748795" lon="8.761982390500915"><ele>604.0</ele><time>2026-05-03T08:08:13.999Z</time></trkpt><trkpt lat="39.76264915245079" lon="8.761920903979435"><ele>601.3333333333334</ele><time>2026-05-03T08:08:14.999Z</time></trkpt><trkpt lat="39.76244983876619" lon="8.761845538055475"><ele>598.6666666666666</ele><time>2026-05-03T08:08:15.999Z</time></trkpt><trkpt lat="39.76224525457641" lon="8.761769051418984"><ele>596.0</ele><time>2026-05-03T08:08:16.999Z</time></trkpt><trkpt lat="39.76203338670959" lon="8.761692320522645"><ele>594.6666666666666</ele><time>2026-05-03T08:08:17.999Z</time></trkpt><trkpt lat="39.76182458591806" lon="8.761619522517057"><ele>593.3333333333334</ele><time>2026-05-03T08:08:18.999Z</time></trkpt><trkpt lat="39.76163016181112" lon="8.761555954003734"><ele>592.0</ele><time>2026-05-03T08:08:19.999Z</time></trkpt><trkpt lat="39.761454674881584" lon="8.76149392164112"><ele>592.0</ele><time>2026-05-03T08:08:20.999Z</time></trkpt><trkpt lat="39.761300976280616" lon="8.761432490015453"><ele>592.0</ele><time>2026-05-03T08:08:21.999Z</time></trkpt><trkpt lat="39.76116463336764" lon="8.761341279440302"><ele>592.0</ele><time>2026-05-03T08:08:22.999Z</time></trkpt><trkpt lat="39.76103803138348" lon="8.761244598444117"><ele>592.0</ele><time>2026-05-03T08:08:23.999Z</time></trkpt><trkpt lat="39.76091898714844" lon="8.761113295391333"><ele>592.0</ele><time>2026-05-03T08:08:24.999Z</time></trkpt><trkpt lat="39.76080774011795" lon="8.760960972689286"><ele>592.0</ele><time>2026-05-03T08:08:25.999Z</time></trkpt><trkpt lat="39.76070307626153" lon="8.760806500236882"><ele>590.25</ele><time>2026-05-03T08:08:26.999Z</time></trkpt><trkpt lat="39.760604979835776" lon="8.760668058828584"><ele>588.5</ele><time>2026-05-03T08:08:27.999Z</time></trkpt><trkpt lat="39.760509049798266" lon="8.760536811286498"><ele>586.75</ele><time>2026-05-03T08:08:28.999Z</time></trkpt><trkpt lat="39.760416831993616" lon="8.760437886244773"><ele>585.0</ele><time>2026-05-03T08:08:29.999Z</time></trkpt><trkpt lat="39.76054498850461" lon="8.76053702244744"><ele>585.0</ele><time>2026-05-03T08:08:35.999Z</time></trkpt><trkpt lat="39.76064077272022" lon="8.760502458251949"><ele>585.0</ele><time>2026-05-03T08:08:36.999Z</time></trkpt><trkpt lat="39.76076343916348" lon="8.76046736991372"><ele>585.0</ele><time>2026-05-03T08:08:37.999Z</time></trkpt><trkpt lat="39.760911655237116" lon="8.760384712353261"><ele>585.0</ele><time>2026-05-03T08:08:38.999Z</time></trkpt><trkpt lat="39.76108221735245" lon="8.760304486686898"><ele>584.0</ele><time>2026-05-03T08:08:39.999Z</time></trkpt><trkpt lat="39.76127252916796" lon="8.760252546224073"><ele>583.0</ele><time>2026-05-03T08:08:40.999Z</time></trkpt><trkpt lat="39.761483122137506" lon="8.760175365154275"><ele>582.0</ele><time>2026-05-03T08:08:41.999Z</time></trkpt><trkpt lat="39.76170057556738" lon="8.760095583571168"><ele>581.0</ele><time>2026-05-03T08:08:42.999Z</time></trkpt><trkpt lat="39.761878393359865" lon="8.760002271003643"><ele>580.0</ele><time>2026-05-03T08:08:43.999Z</time></trkpt><trkpt lat="39.76198061473968" lon="8.759941187480845"><ele>579.0</ele><time>2026-05-03T08:08:44.999Z</time></trkpt><trkpt lat="39.76193817377267" lon="8.759771569927633"><ele>578.0</ele><time>2026-05-03T08:08:48.999Z</time></trkpt><trkpt lat="39.76191241682724" lon="8.759627847358484"><ele>578.0</ele><time>2026-05-03T08:08:50.999Z</time></trkpt><trkpt lat="39.761882248666176" lon="8.759434202823018"><ele>578.0</ele><time>2026-05-03T08:08:52.999Z</time></trkpt><trkpt lat="39.76185628605429" lon="8.759293922459204"><ele>578.0</ele><time>2026-05-03T08:08:53.999Z</time></trkpt><trkpt lat="39.76181926654056" lon="8.759112005836196"><ele>578.0</ele><time>2026-05-03T08:08:54.999Z</time></trkpt><trkpt lat="39.761771121037505" lon="8.758892708173088"><ele>576.3333333333333</ele><time>2026-05-03T08:08:55.999Z</time></trkpt><trkpt lat="39.76171213031438" lon="8.758642144137983"><ele>574.6666666666666</ele><time>2026-05-03T08:08:56.999Z</time></trkpt><trkpt lat="39.76165908736102" lon="8.758402230622218"><ele>573.0</ele><time>2026-05-03T08:08:57.999Z</time></trkpt><trkpt lat="39.76161422066927" lon="8.758227294621447"><ele>573.0</ele><time>2026-05-03T08:08:58.999Z</time></trkpt><trkpt lat="39.76156261380442" lon="8.758103581023487"><ele>573.0</ele><time>2026-05-03T08:08:59.999Z</time></trkpt><trkpt lat="39.76150953714732" lon="8.758016734735884"><ele>573.0</ele><time>2026-05-03T08:09:00.999Z</time></trkpt><trkpt lat="39.76143348411153" lon="8.757948298188381"><ele>573.0</ele><time>2026-05-03T08:09:01.999Z</time></trkpt><trkpt lat="39.76132575587025" lon="8.757870299163272"><ele>573.0</ele><time>2026-05-03T08:09:02.999Z</time></trkpt><trkpt lat="39.761195384912575" lon="8.75779039106806"><ele>573.0</ele><time>2026-05-03T08:09:03.999Z</time></trkpt><trkpt lat="39.761071452521136" lon="8.757743062198733"><ele>573.0</ele><time>2026-05-03T08:09:04.999Z</time></trkpt><trkpt lat="39.76096293522222" lon="8.757710796857204"><ele>573.0</ele><time>2026-05-03T08:09:06Z</time></trkpt><trkpt lat="39.76087306201081" lon="8.75767796993567"><ele>573.0</ele><time>2026-05-03T08:09:07Z</time></trkpt><trkpt lat="39.7608033538938" lon="8.757616945053572"><ele>573.0</ele><time>2026-05-03T08:09:08Z</time></trkpt><trkpt lat="39.76072093806779" lon="8.757518330351582"><ele>573.0</ele><time>2026-05-03T08:09:09Z</time></trkpt><trkpt lat="39.76060302898161" lon="8.757378510345692"><ele>573.0</ele><time>2026-05-03T08:09:10Z</time></trkpt><trkpt lat="39.76045279458931" lon="8.757231803982018"><ele>573.0</ele><time>2026-05-03T08:09:11Z</time></trkpt><trkpt lat="39.760317573691445" lon="8.757099923243233"><ele>573.0</ele><time>2026-05-03T08:09:12Z</time></trkpt><trkpt lat="39.76022920503879" lon="8.756998281929812"><ele>573.0</ele><time>2026-05-03T08:09:13Z</time></trkpt><trkpt lat="39.760161299298574" lon="8.756906225327384"><ele>573.0</ele><time>2026-05-03T08:09:14Z</time></trkpt><trkpt lat="39.76008688990004" lon="8.756791924446334"><ele>573.0</ele><time>2026-05-03T08:09:15Z</time></trkpt><trkpt lat="39.759997382408166" lon="8.756644245554137"><ele>572.3333333333334</ele><time>2026-05-03T08:09:16Z</time></trkpt><trkpt lat="39.759891472886366" lon="8.756455851642704"><ele>571.6666666666667</ele><time>2026-05-03T08:09:17Z</time></trkpt><trkpt lat="39.75976959399043" lon="8.756274399046221"><ele>571.0</ele><time>2026-05-03T08:09:18Z</time></trkpt><trkpt lat="39.759686511683036" lon="8.75612726873034"><ele>571.2</ele><time>2026-05-03T08:09:19Z</time></trkpt><trkpt lat="39.75962544750071" lon="8.756023461130313"><ele>571.4000000000001</ele><time>2026-05-03T08:09:20Z</time></trkpt><trkpt lat="39.75956806003567" lon="8.755961682180475"><ele>571.6</ele><time>2026-05-03T08:09:21Z</time></trkpt><trkpt lat="39.75948730794768" lon="8.755926756993263"><ele>571.8000000000001</ele><time>2026-05-03T08:09:22Z</time></trkpt><trkpt lat="39.75937807553646" lon="8.755906512097493"><ele>572.0</ele><time>2026-05-03T08:09:23Z</time></trkpt><trkpt lat="39.75928254866669" lon="8.755883679874684"><ele>571.2</ele><time>2026-05-03T08:09:24Z</time></trkpt><trkpt lat="39.75920598212165" lon="8.755868064455578"><ele>570.4000000000001</ele><time>2026-05-03T08:09:25Z</time></trkpt><trkpt lat="39.75914056506073" lon="8.755953392458212"><ele>569.5999999999999</ele><time>2026-05-03T08:09:26Z</time></trkpt><trkpt lat="39.759062972984985" lon="8.756044270055863"><ele>568.8</ele><time>2026-05-03T08:09:27Z</time></trkpt><trkpt lat="39.758987783259364" lon="8.756144812457656"><ele>568.0</ele><time>2026-05-03T08:09:28Z</time></trkpt><trkpt lat="39.75892328959816" lon="8.756237527722089"><ele>567.5</ele><time>2026-05-03T08:09:29Z</time></trkpt><trkpt lat="39.75882216560415" lon="8.756226908911254"><ele>567.0</ele><time>2026-05-03T08:09:30Z</time></trkpt><trkpt lat="39.75870514598193" lon="8.756257900028267"><ele>566.5</ele><time>2026-05-03T08:09:31Z</time></trkpt><trkpt lat="39.758545428385716" lon="8.75631857979415"><ele>566.0</ele><time>2026-05-03T08:09:32Z</time></trkpt><trkpt lat="39.75836134283549" lon="8.7563634129842"><ele>566.0</ele><time>2026-05-03T08:09:33Z</time></trkpt><trkpt lat="39.75816441133401" lon="8.756394669785049"><ele>566.0</ele><time>2026-05-03T08:09:34Z</time></trkpt><trkpt lat="39.75799985716558" lon="8.756452426087689"><ele>566.0</ele><time>2026-05-03T08:09:35Z</time></trkpt><trkpt lat="39.75786895806032" lon="8.756456630563191"><ele>566.0</ele><time>2026-05-03T08:09:36Z</time></trkpt><trkpt lat="39.757767762401485" lon="8.756458322651836"><ele>566.0</ele><time>2026-05-03T08:09:37Z</time></trkpt><trkpt lat="39.75764103897195" lon="8.756407806856654"><ele>566.0</ele><time>2026-05-03T08:09:39Z</time></trkpt><trkpt lat="39.757565901005805" lon="8.75633077811344"><ele>566.0</ele><time>2026-05-03T08:09:40Z</time></trkpt><trkpt lat="39.75744484329938" lon="8.756223029668897"><ele>566.6666666666666</ele><time>2026-05-03T08:09:41Z</time></trkpt><trkpt lat="39.75731155411037" lon="8.756191488493537"><ele>567.3333333333334</ele><time>2026-05-03T08:09:42Z</time></trkpt><trkpt lat="39.75715123164164" lon="8.756189074831523"><ele>568.0</ele><time>2026-05-03T08:09:43Z</time></trkpt><trkpt lat="39.75695871027277" lon="8.75619435140436"><ele>567.75</ele><time>2026-05-03T08:09:44Z</time></trkpt><trkpt lat="39.75678852585076" lon="8.756206622202333"><ele>567.5</ele><time>2026-05-03T08:09:45Z</time></trkpt><trkpt lat="39.75665855400485" lon="8.75618674820529"><ele>567.25</ele><time>2026-05-03T08:09:46Z</time></trkpt><trkpt lat="39.75658695199073" lon="8.756149182288647"><ele>567.0</ele><time>2026-05-03T08:09:47Z</time></trkpt><trkpt lat="39.75653021225587" lon="8.755983797073757"><ele>567.0</ele><time>2026-05-03T08:09:49Z</time></trkpt><trkpt lat="39.756568170034924" lon="8.755831332234488"><ele>567.0</ele><time>2026-05-03T08:09:50Z</time></trkpt><trkpt lat="39.756627270392165" lon="8.75569283835643"><ele>567.0</ele><time>2026-05-03T08:09:51Z</time></trkpt><trkpt lat="39.75667447956741" lon="8.755561623883102"><ele>567.0</ele><time>2026-05-03T08:09:52Z</time></trkpt><trkpt lat="39.7567022768526" lon="8.755409881380672"><ele>567.0</ele><time>2026-05-03T08:09:53Z</time></trkpt><trkpt lat="39.75669741886227" lon="8.755246902507066"><ele>567.0</ele><time>2026-05-03T08:09:54Z</time></trkpt><trkpt lat="39.7566595328255" lon="8.755101429995161"><ele>567.0</ele><time>2026-05-03T08:09:55Z</time></trkpt><trkpt lat="39.756593144282974" lon="8.754977726478378"><ele>567.0</ele><time>2026-05-03T08:09:56Z</time></trkpt><trkpt lat="39.756498134857026" lon="8.754873921065666"><ele>566.0</ele><time>2026-05-03T08:09:57Z</time></trkpt><trkpt lat="39.75639169061368" lon="8.754780025890836"><ele>565.0</ele><time>2026-05-03T08:09:58Z</time></trkpt><trkpt lat="39.75627976516199" lon="8.754684366861968"><ele>564.0</ele><time>2026-05-03T08:09:59Z</time></trkpt><trkpt lat="39.75615886161956" lon="8.75457756661102"><ele>563.0</ele><time>2026-05-03T08:10:00Z</time></trkpt><trkpt lat="39.75603998277403" lon="8.754462287470375"><ele>564.0</ele><time>2026-05-03T08:10:01Z</time></trkpt><trkpt lat="39.75591928935247" lon="8.754355952126364"><ele>565.0</ele><time>2026-05-03T08:10:02Z</time></trkpt><trkpt lat="39.75578657394388" lon="8.754308276734404"><ele>566.0</ele><time>2026-05-03T08:10:03Z</time></trkpt><trkpt lat="39.75564034486516" lon="8.754303552155255"><ele>567.0</ele><time>2026-05-03T08:10:04Z</time></trkpt><trkpt lat="39.755485241007406" lon="8.754330239311246"><ele>567.0</ele><time>2026-05-03T08:10:05Z</time></trkpt><trkpt lat="39.755337815889874" lon="8.754350941503748"><ele>567.0</ele><time>2026-05-03T08:10:06Z</time></trkpt><trkpt lat="39.755224434558045" lon="8.754338509577234"><ele>567.0</ele><time>2026-05-03T08:10:07Z</time></trkpt><trkpt lat="39.755126573043896" lon="8.754273922874976"><ele>567.0</ele><time>2026-05-03T08:10:08Z</time></trkpt><trkpt lat="39.755051734585024" lon="8.754147534123062"><ele>568.3333333333334</ele><time>2026-05-03T08:10:09Z</time></trkpt><trkpt lat="39.75495423218619" lon="8.75400164323262"><ele>569.6666666666667</ele><time>2026-05-03T08:10:10Z</time></trkpt><trkpt lat="39.75483503009174" lon="8.753860344199317"><ele>571.0</ele><time>2026-05-03T08:10:11Z</time></trkpt><trkpt lat="39.754725989211245" lon="8.753727516166691"><ele>571.0</ele><time>2026-05-03T08:10:12Z</time></trkpt><trkpt lat="39.75459176911597" lon="8.753644901319653"><ele>571.0</ele><time>2026-05-03T08:10:13Z</time></trkpt><trkpt lat="39.75443951797015" lon="8.753613982934533"><ele>571.0</ele><time>2026-05-03T08:10:14Z</time></trkpt><trkpt lat="39.75429437171971" lon="8.75360053251825"><ele>571.0</ele><time>2026-05-03T08:10:15Z</time></trkpt><trkpt lat="39.7541379777754" lon="8.753635138718433"><ele>573.75</ele><time>2026-05-03T08:10:16Z</time></trkpt><trkpt lat="39.75397730578508" lon="8.75367975012563"><ele>576.5</ele><time>2026-05-03T08:10:17Z</time></trkpt><trkpt lat="39.75382914855298" lon="8.753705241723058"><ele>579.25</ele><time>2026-05-03T08:10:18Z</time></trkpt><trkpt lat="39.75370742876179" lon="8.753685425690772"><ele>582.0</ele><time>2026-05-03T08:10:19Z</time></trkpt><trkpt lat="39.753635616276696" lon="8.75364824097559"><ele>582.0</ele><time>2026-05-03T08:10:20Z</time></trkpt><trkpt lat="39.753588984232" lon="8.753551261306818"><ele>582.0</ele><time>2026-05-03T08:10:21.999Z</time></trkpt><trkpt lat="39.753582396490735" lon="8.753436659139918"><ele>582.0</ele><time>2026-05-03T08:10:22.999Z</time></trkpt><trkpt lat="39.75359431967932" lon="8.753280967638707"><ele>582.0</ele><time>2026-05-03T08:10:23.999Z</time></trkpt><trkpt lat="39.753638993426506" lon="8.753120075998968"><ele>582.0</ele><time>2026-05-03T08:10:24.999Z</time></trkpt><trkpt lat="39.753700441415084" lon="8.752953557891413"><ele>584.6666666666666</ele><time>2026-05-03T08:10:25.999Z</time></trkpt><trkpt lat="39.75376376056046" lon="8.752774339341613"><ele>587.3333333333333</ele><time>2026-05-03T08:10:26.999Z</time></trkpt><trkpt lat="39.75382556001348" lon="8.752580310997853"><ele>590.0</ele><time>2026-05-03T08:10:27.999Z</time></trkpt><trkpt lat="39.75387884754262" lon="8.752382283507359"><ele>591.0</ele><time>2026-05-03T08:10:28.999Z</time></trkpt><trkpt lat="39.753903308691456" lon="8.752187471695061"><ele>592.0</ele><time>2026-05-03T08:10:29.999Z</time></trkpt><trkpt lat="39.753906138652965" lon="8.752006670293188"><ele>593.0</ele><time>2026-05-03T08:10:30.999Z</time></trkpt><trkpt lat="39.753941064002774" lon="8.751846828788914"><ele>594.0</ele><time>2026-05-03T08:10:31.999Z</time></trkpt><trkpt lat="39.754032284872046" lon="8.751712789791796"><ele>594.6666666666666</ele><time>2026-05-03T08:10:32.999Z</time></trkpt><trkpt lat="39.75414193116591" lon="8.751564115808861"><ele>595.3333333333333</ele><time>2026-05-03T08:10:33.999Z</time></trkpt><trkpt lat="39.75427621378822" lon="8.751425253316864"><ele>596.0</ele><time>2026-05-03T08:10:34.999Z</time></trkpt><trkpt lat="39.75441314879096" lon="8.751274388396581"><ele>598.0</ele><time>2026-05-03T08:10:35.999Z</time></trkpt><trkpt lat="39.75455155676518" lon="8.751109097669426"><ele>600.0</ele><time>2026-05-03T08:10:36.999Z</time></trkpt><trkpt lat="39.75469072263971" lon="8.750936738527727"><ele>602.0</ele><time>2026-05-03T08:10:37.999Z</time></trkpt><trkpt lat="39.75482698552012" lon="8.750763738913191"><ele>602.3333333333333</ele><time>2026-05-03T08:10:38.999Z</time></trkpt><trkpt lat="39.75496586474331" lon="8.750580773957623"><ele>602.6666666666666</ele><time>2026-05-03T08:10:39.999Z</time></trkpt><trkpt lat="39.755098103399376" lon="8.750397205567728"><ele>603.0</ele><time>2026-05-03T08:10:40.999Z</time></trkpt><trkpt lat="39.755211687086685" lon="8.75023303213738"><ele>604.1999999999999</ele><time>2026-05-03T08:10:41.999Z</time></trkpt><trkpt lat="39.75530118058427" lon="8.750105428042033"><ele>605.4</ele><time>2026-05-03T08:10:42.999Z</time></trkpt><trkpt lat="39.75535121574107" lon="8.749985210047551"><ele>606.5999999999999</ele><time>2026-05-03T08:10:43.999Z</time></trkpt><trkpt lat="39.75535948334658" lon="8.749871481337832"><ele>607.8</ele><time>2026-05-03T08:10:44.999Z</time></trkpt><trkpt lat="39.75534508155439" lon="8.749766581417141"><ele>609.0</ele><time>2026-05-03T08:10:45.999Z</time></trkpt><trkpt lat="39.75530961579886" lon="8.749647208493963"><ele>609.0</ele><time>2026-05-03T08:10:46.999Z</time></trkpt><trkpt lat="39.755270154341126" lon="8.749502363179895"><ele>609.0</ele><time>2026-05-03T08:10:47.999Z</time></trkpt><trkpt lat="39.75525048364122" lon="8.749342125456584"><ele>609.0</ele><time>2026-05-03T08:10:48.999Z</time></trkpt><trkpt lat="39.7552556167972" lon="8.749188220055085"><ele>609.0</ele><time>2026-05-03T08:10:49.999Z</time></trkpt><trkpt lat="39.755282803885905" lon="8.74904443735992"><ele>608.5</ele><time>2026-05-03T08:10:50.999Z</time></trkpt><trkpt lat="39.755323730841624" lon="8.748936847473999"><ele>608.0</ele><time>2026-05-03T08:10:51.999Z</time></trkpt><trkpt lat="39.75535242452614" lon="8.748859136396108"><ele>607.5</ele><time>2026-05-03T08:10:52.999Z</time></trkpt><trkpt lat="39.75533987040404" lon="8.7487637592855"><ele>607.0</ele><time>2026-05-03T08:10:54.999Z</time></trkpt><trkpt lat="39.75523036183328" lon="8.74868494990704"><ele>606.5</ele><time>2026-05-03T08:10:56.999Z</time></trkpt><trkpt lat="39.75515129208025" lon="8.748733454015099"><ele>606.0</ele><time>2026-05-03T08:10:57.999Z</time></trkpt><trkpt lat="39.75503767864649" lon="8.748773685248775"><ele>604.5</ele><time>2026-05-03T08:10:58.999Z</time></trkpt><trkpt lat="39.75491960267797" lon="8.748813014406498"><ele>603.0</ele><time>2026-05-03T08:10:59.999Z</time></trkpt><trkpt lat="39.754801742252496" lon="8.748841619541817"><ele>601.5</ele><time>2026-05-03T08:11:00.999Z</time></trkpt><trkpt lat="39.754695162357336" lon="8.748869096634243"><ele>600.0</ele><time>2026-05-03T08:11:01.999Z</time></trkpt><trkpt lat="39.754593535949994" lon="8.748909186369835"><ele>600.0</ele><time>2026-05-03T08:11:02.999Z</time></trkpt><trkpt lat="39.75450084856562" lon="8.748965875149267"><ele>600.0</ele><time>2026-05-03T08:11:03.999Z</time></trkpt><trkpt lat="39.754416801059065" lon="8.749004599424007"><ele>600.0</ele><time>2026-05-03T08:11:04.999Z</time></trkpt><trkpt lat="39.75432478684541" lon="8.749020411891284"><ele>600.0</ele><time>2026-05-03T08:11:05.999Z</time></trkpt><trkpt lat="39.75421282898544" lon="8.749027568786302"><ele>600.0</ele><time>2026-05-03T08:11:06.999Z</time></trkpt><trkpt lat="39.75409530769279" lon="8.749047879331693"><ele>598.5</ele><time>2026-05-03T08:11:07.999Z</time></trkpt><trkpt lat="39.75397088425649" lon="8.749069382734653"><ele>597.0</ele><time>2026-05-03T08:11:08.999Z</time></trkpt><trkpt lat="39.75384750438298" lon="8.74909070579296"><ele>595.5</ele><time>2026-05-03T08:11:09.999Z</time></trkpt><trkpt lat="39.75372658303111" lon="8.749108572734112"><ele>594.0</ele><time>2026-05-03T08:11:10.999Z</time></trkpt><trkpt lat="39.75361153654055" lon="8.749121656057362"><ele>591.25</ele><time>2026-05-03T08:11:12.001Z</time></trkpt><trkpt lat="39.75350446919979" lon="8.749133635935548"><ele>588.5</ele><time>2026-05-03T08:11:13.001Z</time></trkpt><trkpt lat="39.75339530816588" lon="8.74914958139387"><ele>585.75</ele><time>2026-05-03T08:11:14.001Z</time></trkpt><trkpt lat="39.75328281321066" lon="8.749172723331382"><ele>583.0</ele><time>2026-05-03T08:11:15.001Z</time></trkpt><trkpt lat="39.75316087249" lon="8.749206937676588"><ele>583.0</ele><time>2026-05-03T08:11:16.001Z</time></trkpt><trkpt lat="39.753038223522395" lon="8.749249459984672"><ele>583.0</ele><time>2026-05-03T08:11:17.001Z</time></trkpt><trkpt lat="39.752919623832774" lon="8.749299016259318"><ele>583.0</ele><time>2026-05-03T08:11:18.001Z</time></trkpt><trkpt lat="39.75279451887367" lon="8.749356645571602"><ele>583.0</ele><time>2026-05-03T08:11:19.001Z</time></trkpt><trkpt lat="39.75265033769605" lon="8.749424304804421"><ele>580.0</ele><time>2026-05-03T08:11:20.001Z</time></trkpt><trkpt lat="39.75249707102908" lon="8.749500292797803"><ele>577.0</ele><time>2026-05-03T08:11:21.001Z</time></trkpt><trkpt lat="39.752340667840905" lon="8.749578232350315"><ele>574.0</ele><time>2026-05-03T08:11:22.001Z</time></trkpt><trkpt lat="39.75215949879128" lon="8.749670323792648"><ele>574.0</ele><time>2026-05-03T08:11:23Z</time></trkpt><trkpt lat="39.75196587274965" lon="8.74977072918708"><ele>574.0</ele><time>2026-05-03T08:11:24Z</time></trkpt><trkpt lat="39.751775780750314" lon="8.7498652416375"><ele>574.0</ele><time>2026-05-03T08:11:25Z</time></trkpt><trkpt lat="39.75160248552587" lon="8.749943917366979"><ele>571.3333333333334</ele><time>2026-05-03T08:11:26Z</time></trkpt><trkpt lat="39.75143833175425" lon="8.750015094153698"><ele>568.6666666666666</ele><time>2026-05-03T08:11:27Z</time></trkpt><trkpt lat="39.751279800625696" lon="8.750086429919822"><ele>566.0</ele><time>2026-05-03T08:11:28Z</time></trkpt><trkpt lat="39.75111509854126" lon="8.75016561123975"><ele>565.0</ele><time>2026-05-03T08:11:29Z</time></trkpt><trkpt lat="39.75092593557721" lon="8.750262088698415"><ele>564.0</ele><time>2026-05-03T08:11:30Z</time></trkpt><trkpt lat="39.75070831638488" lon="8.750376122828552"><ele>563.0</ele><time>2026-05-03T08:11:31Z</time></trkpt><trkpt lat="39.75050762672031" lon="8.750484838777746"><ele>563.0</ele><time>2026-05-03T08:11:32Z</time></trkpt><trkpt lat="39.75029531658566" lon="8.750610961519687"><ele>563.0</ele><time>2026-05-03T08:11:33Z</time></trkpt><trkpt lat="39.75009525602392" lon="8.750755665662787"><ele>562.0</ele><time>2026-05-03T08:11:34Z</time></trkpt><trkpt lat="39.749923048355875" lon="8.750875782775159"><ele>561.0</ele><time>2026-05-03T08:11:35Z</time></trkpt><trkpt lat="39.749764368698074" lon="8.750975815758066"><ele>560.0</ele><time>2026-05-03T08:11:36Z</time></trkpt><trkpt lat="39.74960540680055" lon="8.751065655249738"><ele>560.0</ele><time>2026-05-03T08:11:37Z</time></trkpt><trkpt lat="39.74944192533667" lon="8.75115699849316"><ele>560.0</ele><time>2026-05-03T08:11:38Z</time></trkpt><trkpt lat="39.74929518477929" lon="8.751236056945798"><ele>560.0</ele><time>2026-05-03T08:11:39Z</time></trkpt><trkpt lat="39.749171703061236" lon="8.751297326835365"><ele>558.25</ele><time>2026-05-03T08:11:40Z</time></trkpt><trkpt lat="39.74905027811222" lon="8.75135837510027"><ele>556.5</ele><time>2026-05-03T08:11:41Z</time></trkpt><trkpt lat="39.74892479879415" lon="8.751438131606847"><ele>554.75</ele><time>2026-05-03T08:11:42Z</time></trkpt><trkpt lat="39.74879457910704" lon="8.751540972992647"><ele>553.0</ele><time>2026-05-03T08:11:43Z</time></trkpt><trkpt lat="39.74865333134676" lon="8.751663295812566"><ele>551.5</ele><time>2026-05-03T08:11:44Z</time></trkpt><trkpt lat="39.74852729632512" lon="8.751772788190248"><ele>550.0</ele><time>2026-05-03T08:11:45Z</time></trkpt><trkpt lat="39.74840935107388" lon="8.751877793957787"><ele>548.5</ele><time>2026-05-03T08:11:46Z</time></trkpt><trkpt lat="39.74831194033229" lon="8.751973040925302"><ele>547.0</ele><time>2026-05-03T08:11:47Z</time></trkpt><trkpt lat="39.74823822421336" lon="8.752066607004997"><ele>546.8000000000001</ele><time>2026-05-03T08:11:48Z</time></trkpt><trkpt lat="39.74817647233751" lon="8.752148967737776"><ele>546.6</ele><time>2026-05-03T08:11:49Z</time></trkpt><trkpt lat="39.74807870900069" lon="8.75223273718181"><ele>546.4000000000001</ele><time>2026-05-03T08:11:51Z</time></trkpt><trkpt lat="39.747984793141434" lon="8.752219897601215"><ele>546.2</ele><time>2026-05-03T08:11:53Z</time></trkpt><trkpt lat="39.74791687496876" lon="8.752170291801907"><ele>546.0</ele><time>2026-05-03T08:11:54Z</time></trkpt><trkpt lat="39.74786007828086" lon="8.75205342234061"><ele>546.0</ele><time>2026-05-03T08:11:55Z</time></trkpt><trkpt lat="39.747769615995544" lon="8.751928866066708"><ele>546.0</ele><time>2026-05-03T08:11:56Z</time></trkpt><trkpt lat="39.74768842656217" lon="8.751769529397817"><ele>546.0</ele><time>2026-05-03T08:11:57Z</time></trkpt><trkpt lat="39.74761082896862" lon="8.751649205053498"><ele>546.0</ele><time>2026-05-03T08:11:58Z</time></trkpt><trkpt lat="39.74753416546607" lon="8.751559377037156"><ele>544.25</ele><time>2026-05-03T08:11:59Z</time></trkpt><trkpt lat="39.747434124959284" lon="8.751492192181146"><ele>542.5</ele><time>2026-05-03T08:12:00Z</time></trkpt><trkpt lat="39.74731065272739" lon="8.751426377079241"><ele>540.75</ele><time>2026-05-03T08:12:01Z</time></trkpt><trkpt lat="39.74717467975113" lon="8.751369201443774"><ele>539.0</ele><time>2026-05-03T08:12:02Z</time></trkpt><trkpt lat="39.747065443305694" lon="8.751283201129201"><ele>539.0</ele><time>2026-05-03T08:12:03Z</time></trkpt><trkpt lat="39.74695804244185" lon="8.75121326924655"><ele>539.0</ele><time>2026-05-03T08:12:04Z</time></trkpt><trkpt lat="39.746863681999535" lon="8.751136497118477"><ele>539.0</ele><time>2026-05-03T08:12:05Z</time></trkpt><trkpt lat="39.74677323841593" lon="8.751062842803213"><ele>539.0</ele><time>2026-05-03T08:12:06Z</time></trkpt><trkpt lat="39.74668347033934" lon="8.750995274903662"><ele>539.0</ele><time>2026-05-03T08:12:07Z</time></trkpt><trkpt lat="39.74658520125493" lon="8.750961910405847"><ele>537.0</ele><time>2026-05-03T08:12:08Z</time></trkpt><trkpt lat="39.74648289029798" lon="8.750923364779121"><ele>535.0</ele><time>2026-05-03T08:12:09Z</time></trkpt><trkpt lat="39.746361497925655" lon="8.75090284432335"><ele>533.0</ele><time>2026-05-03T08:12:10Z</time></trkpt><trkpt lat="39.74622124517008" lon="8.750846737396248"><ele>531.0</ele><time>2026-05-03T08:12:11Z</time></trkpt><trkpt lat="39.7460665850113" lon="8.750817414974268"><ele>529.6</ele><time>2026-05-03T08:12:12Z</time></trkpt><trkpt lat="39.74593180285321" lon="8.750805241954156"><ele>528.2</ele><time>2026-05-03T08:12:13Z</time></trkpt><trkpt lat="39.74582602773441" lon="8.750844978435623"><ele>526.8</ele><time>2026-05-03T08:12:14Z</time></trkpt><trkpt lat="39.74573057020612" lon="8.750871735096684"><ele>525.4</ele><time>2026-05-03T08:12:15Z</time></trkpt><trkpt lat="39.74563797462792" lon="8.750923126156529"><ele>524.0</ele><time>2026-05-03T08:12:16Z</time></trkpt><trkpt lat="39.745528055893395" lon="8.751001687966516"><ele>523.0</ele><time>2026-05-03T08:12:17Z</time></trkpt><trkpt lat="39.7454011969733" lon="8.751100981649385"><ele>522.0</ele><time>2026-05-03T08:12:18Z</time></trkpt><trkpt lat="39.74525330287589" lon="8.751180230677162"><ele>521.0</ele><time>2026-05-03T08:12:19Z</time></trkpt><trkpt lat="39.74510523567137" lon="8.751273034998063"><ele>520.0</ele><time>2026-05-03T08:12:20Z</time></trkpt><trkpt lat="39.74498073401145" lon="8.751366784473621"><ele>519.0</ele><time>2026-05-03T08:12:21Z</time></trkpt><trkpt lat="39.74486760367867" lon="8.75143148795697"><ele>518.0</ele><time>2026-05-03T08:12:22Z</time></trkpt><trkpt lat="39.74475886111978" lon="8.75145262005374"><ele>517.0</ele><time>2026-05-03T08:12:23Z</time></trkpt><trkpt lat="39.744659311232496" lon="8.751476902905083"><ele>517.0</ele><time>2026-05-03T08:12:24Z</time></trkpt><trkpt lat="39.744549036968614" lon="8.751511591440554"><ele>517.0</ele><time>2026-05-03T08:12:25Z</time></trkpt><trkpt lat="39.74444472665902" lon="8.75156727759582"><ele>517.0</ele><time>2026-05-03T08:12:25.999Z</time></trkpt><trkpt lat="39.74433666466658" lon="8.751598960307462"><ele>517.0</ele><time>2026-05-03T08:12:26.999Z</time></trkpt><trkpt lat="39.744240664367226" lon="8.751657953128634"><ele>517.0</ele><time>2026-05-03T08:12:27.999Z</time></trkpt><trkpt lat="39.74415365424641" lon="8.751724857699854"><ele>516.5</ele><time>2026-05-03T08:12:28.999Z</time></trkpt><trkpt lat="39.74406471182979" lon="8.751799718617628"><ele>516.0</ele><time>2026-05-03T08:12:29.999Z</time></trkpt><trkpt lat="39.74397011147278" lon="8.751880665024308"><ele>515.5</ele><time>2026-05-03T08:12:30.999Z</time></trkpt><trkpt lat="39.74385786280574" lon="8.751976712397543"><ele>515.0</ele><time>2026-05-03T08:12:31.999Z</time></trkpt><trkpt lat="39.7437425136355" lon="8.752072996365982"><ele>514.2</ele><time>2026-05-03T08:12:32.999Z</time></trkpt><trkpt lat="39.74363957051135" lon="8.752176123320334"><ele>513.4</ele><time>2026-05-03T08:12:33.999Z</time></trkpt><trkpt lat="39.74353689743116" lon="8.752250801710721"><ele>512.6</ele><time>2026-05-03T08:12:34.999Z</time></trkpt><trkpt lat="39.7434434633485" lon="8.752308965973992"><ele>511.8</ele><time>2026-05-03T08:12:35.999Z</time></trkpt><trkpt lat="39.7433619291912" lon="8.752380455679813"><ele>511.0</ele><time>2026-05-03T08:12:36.999Z</time></trkpt><trkpt lat="39.743304276663025" lon="8.752433913936544"><ele>510.33333333333337</ele><time>2026-05-03T08:12:37.999Z</time></trkpt><trkpt lat="39.743253555020935" lon="8.752483869887618"><ele>509.6666666666667</ele><time>2026-05-03T08:12:39.999Z</time></trkpt><trkpt lat="39.7432669532581" lon="8.752357175401901"><ele>509.0</ele><time>2026-05-03T08:12:42.999Z</time></trkpt><trkpt lat="39.743282743455524" lon="8.752270620753345"><ele>508.33333333333337</ele><time>2026-05-03T08:12:43.999Z</time></trkpt><trkpt lat="39.74329558938574" lon="8.752180282212485"><ele>507.6666666666667</ele><time>2026-05-03T08:12:44.999Z</time></trkpt><trkpt lat="39.743322481661444" lon="8.75204851497226"><ele>507.0</ele><time>2026-05-03T08:12:45.999Z</time></trkpt><trkpt lat="39.74336583411646" lon="8.751877593020142"><ele>507.8333333333333</ele><time>2026-05-03T08:12:46.999Z</time></trkpt><trkpt lat="39.74339752445833" lon="8.751760592614492"><ele>508.66666666666663</ele><time>2026-05-03T08:12:47.999Z</time></trkpt><trkpt lat="39.74340926343621" lon="8.751672866993124"><ele>509.5</ele><time>2026-05-03T08:12:48.999Z</time></trkpt><trkpt lat="39.74333634667789" lon="8.751577232649495"><ele>510.3333333333333</ele><time>2026-05-03T08:12:50.999Z</time></trkpt><trkpt lat="39.743252545825506" lon="8.751540117953441"><ele>511.16666666666663</ele><time>2026-05-03T08:12:51.999Z</time></trkpt><trkpt lat="39.74318081894301" lon="8.751491931426802"><ele>512.0</ele><time>2026-05-03T08:12:52.999Z</time></trkpt><trkpt lat="39.74311420891407" lon="8.751336478576663"><ele>512.0</ele><time>2026-05-03T08:12:54.999Z</time></trkpt><trkpt lat="39.743093582480505" lon="8.751252656272161"><ele>512.0</ele><time>2026-05-03T08:12:55.999Z</time></trkpt><trkpt lat="39.743101039065344" lon="8.751153598787369"><ele>512.0</ele><time>2026-05-03T08:12:56.999Z</time></trkpt><trkpt lat="39.74311208637249" lon="8.751005535940033"><ele>512.0</ele><time>2026-05-03T08:12:57.999Z</time></trkpt><trkpt lat="39.74309044033825" lon="8.750833938556111"><ele>512.0</ele><time>2026-05-03T08:12:58.999Z</time></trkpt><trkpt lat="39.74305211343852" lon="8.750643195591943"><ele>512.25</ele><time>2026-05-03T08:12:59.999Z</time></trkpt><trkpt lat="39.74301505129802" lon="8.750435478726306"><ele>512.5</ele><time>2026-05-03T08:13:00.999Z</time></trkpt><trkpt lat="39.74299192141232" lon="8.750265969886126"><ele>512.75</ele><time>2026-05-03T08:13:01.999Z</time></trkpt><trkpt lat="39.74295360941344" lon="8.750126354883514"><ele>513.0</ele><time>2026-05-03T08:13:02.999Z</time></trkpt><trkpt lat="39.742901738771955" lon="8.75002027306301"><ele>513.0</ele><time>2026-05-03T08:13:03.999Z</time></trkpt><trkpt lat="39.742866804633465" lon="8.749934738040004"><ele>513.0</ele><time>2026-05-03T08:13:04.999Z</time></trkpt><trkpt lat="39.742858821915874" lon="8.749843755431632"><ele>513.0</ele><time>2026-05-03T08:13:06.999Z</time></trkpt><trkpt lat="39.74290653355519" lon="8.749687765612952"><ele>513.0</ele><time>2026-05-03T08:13:08.999Z</time></trkpt><trkpt lat="39.74289894352839" lon="8.749601165663213"><ele>513.0</ele><time>2026-05-03T08:13:09.999Z</time></trkpt><trkpt lat="39.74286607973942" lon="8.749513320552488"><ele>513.0</ele><time>2026-05-03T08:13:10.999Z</time></trkpt><trkpt lat="39.742815041833325" lon="8.749444308589531"><ele>513.0</ele><time>2026-05-03T08:13:11.999Z</time></trkpt><trkpt lat="39.742755289777676" lon="8.749406647880024"><ele>513.0</ele><time>2026-05-03T08:13:12.999Z</time></trkpt><trkpt lat="39.74268159680799" lon="8.74940264276665"><ele>513.0</ele><time>2026-05-03T08:13:13.999Z</time></trkpt><trkpt lat="39.7425946744726" lon="8.74940515333266"><ele>513.0</ele><time>2026-05-03T08:13:14.999Z</time></trkpt><trkpt lat="39.742483300551754" lon="8.749449805698"><ele>513.0</ele><time>2026-05-03T08:13:15.999Z</time></trkpt><trkpt lat="39.742396208886156" lon="8.749453786485208"><ele>513.0</ele><time>2026-05-03T08:13:16.999Z</time></trkpt><trkpt lat="39.74233309772467" lon="8.74935631962151"><ele>511.8333333333333</ele><time>2026-05-03T08:13:19.001Z</time></trkpt><trkpt lat="39.74232107107149" lon="8.749269390299597"><ele>510.66666666666663</ele><time>2026-05-03T08:13:20.001Z</time></trkpt><trkpt lat="39.742291868181184" lon="8.749190406248117"><ele>509.5</ele><time>2026-05-03T08:13:21.001Z</time></trkpt><trkpt lat="39.74222029146401" lon="8.749142233335558"><ele>508.3333333333333</ele><time>2026-05-03T08:13:22.001Z</time></trkpt><trkpt lat="39.74215493975093" lon="8.749088409107772"><ele>507.16666666666663</ele><time>2026-05-03T08:13:23.001Z</time></trkpt><trkpt lat="39.742109191115944" lon="8.748908370785811"><ele>506.0</ele><time>2026-05-03T08:13:25.001Z</time></trkpt><trkpt lat="39.74208184314385" lon="8.748759825052305"><ele>505.99999999999994</ele><time>2026-05-03T08:13:26.001Z</time></trkpt><trkpt lat="39.742064940046404" lon="8.748660164249417"><ele>506.0</ele><time>2026-05-03T08:13:27.001Z</time></trkpt><trkpt lat="39.74208930861323" lon="8.74857422378105"><ele>506.0</ele><time>2026-05-03T08:13:28.001Z</time></trkpt><trkpt lat="39.74212591317664" lon="8.748461490608022"><ele>506.0</ele><time>2026-05-03T08:13:29Z</time></trkpt><trkpt lat="39.7421317420059" lon="8.748349293110177"><ele>505.99999999999994</ele><time>2026-05-03T08:13:30Z</time></trkpt><trkpt lat="39.74214316387841" lon="8.74823549356596"><ele>506.0</ele><time>2026-05-03T08:13:31Z</time></trkpt><trkpt lat="39.74218458441769" lon="8.74814009433862"><ele>504.66666666666663</ele><time>2026-05-03T08:13:32Z</time></trkpt><trkpt lat="39.74221193375016" lon="8.748065657501625"><ele>503.3333333333333</ele><time>2026-05-03T08:13:33Z</time></trkpt><trkpt lat="39.742180179526336" lon="8.747957285589091"><ele>502.0</ele><time>2026-05-03T08:13:35Z</time></trkpt><trkpt lat="39.742114947395756" lon="8.747892845446845"><ele>500.66666666666663</ele><time>2026-05-03T08:13:36Z</time></trkpt><trkpt lat="39.742027464643144" lon="8.747860461120714"><ele>499.3333333333333</ele><time>2026-05-03T08:13:37Z</time></trkpt><trkpt lat="39.74193272212787" lon="8.747855092846416"><ele>498.0</ele><time>2026-05-03T08:13:38Z</time></trkpt><trkpt lat="39.74182303595732" lon="8.747857690473129"><ele>498.0</ele><time>2026-05-03T08:13:39Z</time></trkpt><trkpt lat="39.74172846506087" lon="8.747840033106147"><ele>497.99999999999994</ele><time>2026-05-03T08:13:40Z</time></trkpt><trkpt lat="39.741656243839024" lon="8.747796132498086"><ele>497.99999999999994</ele><time>2026-05-03T08:13:41Z</time></trkpt><trkpt lat="39.74158307972841" lon="8.747716956452578"><ele>498.0</ele><time>2026-05-03T08:13:42Z</time></trkpt><trkpt lat="39.741500030309396" lon="8.7476360447786"><ele>498.0</ele><time>2026-05-03T08:13:43Z</time></trkpt><trkpt lat="39.74141072675338" lon="8.747537630531976"><ele>496.25</ele><time>2026-05-03T08:13:44Z</time></trkpt><trkpt lat="39.741322112370696" lon="8.747423012088472"><ele>494.5</ele><time>2026-05-03T08:13:45Z</time></trkpt><trkpt lat="39.741242520284715" lon="8.747327423266874"><ele>492.75</ele><time>2026-05-03T08:13:46Z</time></trkpt><trkpt lat="39.74115888181031" lon="8.747231603059452"><ele>491.0</ele><time>2026-05-03T08:13:47Z</time></trkpt><trkpt lat="39.74106098161315" lon="8.747131577011995"><ele>491.0</ele><time>2026-05-03T08:13:48Z</time></trkpt><trkpt lat="39.74098215834798" lon="8.747011364632256"><ele>491.0</ele><time>2026-05-03T08:13:49Z</time></trkpt><trkpt lat="39.7409176490404" lon="8.746920184476037"><ele>491.0</ele><time>2026-05-03T08:13:50Z</time></trkpt><trkpt lat="39.74083726779255" lon="8.7468301211994"><ele>491.0</ele><time>2026-05-03T08:13:51Z</time></trkpt><trkpt lat="39.74074165192234" lon="8.74675951457664"><ele>491.0</ele><time>2026-05-03T08:13:52Z</time></trkpt><trkpt lat="39.74062352964154" lon="8.746687569971163"><ele>489.25</ele><time>2026-05-03T08:13:53Z</time></trkpt><trkpt lat="39.740511759006814" lon="8.746620850753892"><ele>487.5</ele><time>2026-05-03T08:13:54Z</time></trkpt><trkpt lat="39.74038647423743" lon="8.74655222731134"><ele>485.75</ele><time>2026-05-03T08:13:55Z</time></trkpt><trkpt lat="39.740260465940366" lon="8.746501997993319"><ele>484.0</ele><time>2026-05-03T08:13:56Z</time></trkpt><trkpt lat="39.74015059640289" lon="8.746441010695383"><ele>483.0</ele><time>2026-05-03T08:13:57Z</time></trkpt><trkpt lat="39.7400430169238" lon="8.746382399405082"><ele>482.0</ele><time>2026-05-03T08:13:58Z</time></trkpt><trkpt lat="39.739930422923486" lon="8.74632896443537"><ele>481.0</ele><time>2026-05-03T08:13:59Z</time></trkpt><trkpt lat="39.7398070386477" lon="8.746276512044373"><ele>480.0</ele><time>2026-05-03T08:14:00Z</time></trkpt><trkpt lat="39.7396899905167" lon="8.746215663253686"><ele>480.0</ele><time>2026-05-03T08:14:01Z</time></trkpt><trkpt lat="39.73958171971986" lon="8.746139398941072"><ele>480.0</ele><time>2026-05-03T08:14:02Z</time></trkpt><trkpt lat="39.73948091383702" lon="8.746070216351464"><ele>480.0</ele><time>2026-05-03T08:14:03Z</time></trkpt><trkpt lat="39.739384671392976" lon="8.746015438746854"><ele>480.0</ele><time>2026-05-03T08:14:04Z</time></trkpt><trkpt lat="39.739289729775265" lon="8.745975882271214"><ele>480.0</ele><time>2026-05-03T08:14:05Z</time></trkpt><trkpt lat="39.73919275086918" lon="8.745945649926107"><ele>478.6</ele><time>2026-05-03T08:14:06Z</time></trkpt><trkpt lat="39.73908767951615" lon="8.745945548054358"><ele>477.2</ele><time>2026-05-03T08:14:07Z</time></trkpt><trkpt lat="39.73899016525701" lon="8.745980060140102"><ele>475.79999999999995</ele><time>2026-05-03T08:14:08Z</time></trkpt><trkpt lat="39.738883783155686" lon="8.746007480453871"><ele>474.4</ele><time>2026-05-03T08:14:09Z</time></trkpt><trkpt lat="39.73877398835367" lon="8.746053874609995"><ele>473.0</ele><time>2026-05-03T08:14:10Z</time></trkpt><trkpt lat="39.7386574642873" lon="8.746109405279398"><ele>472.99999999999994</ele><time>2026-05-03T08:14:11Z</time></trkpt><trkpt lat="39.73857020996261" lon="8.746131690463153"><ele>473.0</ele><time>2026-05-03T08:14:12Z</time></trkpt><trkpt lat="39.73848901576003" lon="8.746121819880326"><ele>473.0</ele><time>2026-05-03T08:14:13Z</time></trkpt><trkpt lat="39.73842889327041" lon="8.74605597400721"><ele>473.0</ele><time>2026-05-03T08:14:14Z</time></trkpt><trkpt lat="39.73836500468509" lon="8.745982576370023"><ele>472.99999999999994</ele><time>2026-05-03T08:14:15Z</time></trkpt><trkpt lat="39.738284721837076" lon="8.745913969468173"><ele>473.0</ele><time>2026-05-03T08:14:16Z</time></trkpt><trkpt lat="39.738197535904625" lon="8.745858080087721"><ele>473.2</ele><time>2026-05-03T08:14:17Z</time></trkpt><trkpt lat="39.73811301044438" lon="8.745829017088845"><ele>473.4</ele><time>2026-05-03T08:14:18Z</time></trkpt><trkpt lat="39.73801183143909" lon="8.745827690219507"><ele>473.59999999999997</ele><time>2026-05-03T08:14:19Z</time></trkpt><trkpt lat="39.73792127658661" lon="8.745816677454348"><ele>473.79999999999995</ele><time>2026-05-03T08:14:20Z</time></trkpt><trkpt lat="39.737831550885105" lon="8.74578307540327"><ele>474.0</ele><time>2026-05-03T08:14:21Z</time></trkpt><trkpt lat="39.737754263788396" lon="8.745722146736965"><ele>473.4</ele><time>2026-05-03T08:14:22Z</time></trkpt><trkpt lat="39.73764410060114" lon="8.745632371683438"><ele>472.79999999999995</ele><time>2026-05-03T08:14:23Z</time></trkpt><trkpt lat="39.737545052878325" lon="8.745546562770235"><ele>472.20000000000005</ele><time>2026-05-03T08:14:24Z</time></trkpt><trkpt lat="39.73746272845495" lon="8.745482865846574"><ele>471.6</ele><time>2026-05-03T08:14:25Z</time></trkpt><trkpt lat="39.737409616220766" lon="8.745435256881066"><ele>471.0</ele><time>2026-05-03T08:14:26Z</time></trkpt><trkpt lat="39.737383708155264" lon="8.745345855407326"><ele>471.0</ele><time>2026-05-03T08:14:27.999Z</time></trkpt><trkpt lat="39.73739576473763" lon="8.745248350643513"><ele>471.0</ele><time>2026-05-03T08:14:28.999Z</time></trkpt><trkpt lat="39.73739100218838" lon="8.745130631525305"><ele>471.0</ele><time>2026-05-03T08:14:29.999Z</time></trkpt><trkpt lat="39.73736552060113" lon="8.744989672562241"><ele>471.0</ele><time>2026-05-03T08:14:30.999Z</time></trkpt><trkpt lat="39.73735052785148" lon="8.74486769162908"><ele>471.0</ele><time>2026-05-03T08:14:31.999Z</time></trkpt><trkpt lat="39.737347251349874" lon="8.744775360784615"><ele>471.0</ele><time>2026-05-03T08:14:32.999Z</time></trkpt><trkpt lat="39.737307821092585" lon="8.744685543942206"><ele>473.20000000000005</ele><time>2026-05-03T08:14:33.999Z</time></trkpt><trkpt lat="39.73723715405629" lon="8.744569601216535"><ele>475.40000000000003</ele><time>2026-05-03T08:14:34.999Z</time></trkpt><trkpt lat="39.73719863286005" lon="8.744444902583469"><ele>477.6</ele><time>2026-05-03T08:14:35.999Z</time></trkpt><trkpt lat="39.73718949673398" lon="8.744316861009366"><ele>479.8</ele><time>2026-05-03T08:14:36.999Z</time></trkpt><trkpt lat="39.737202091990824" lon="8.744164270422296"><ele>482.0</ele><time>2026-05-03T08:14:37.999Z</time></trkpt><trkpt lat="39.737212461843825" lon="8.744050186603195"><ele>482.16666666666663</ele><time>2026-05-03T08:14:38.999Z</time></trkpt><trkpt lat="39.737201419370436" lon="8.743947908657965"><ele>482.3333333333333</ele><time>2026-05-03T08:14:39.999Z</time></trkpt><trkpt lat="39.737158046621076" lon="8.74386676457271"><ele>482.5</ele><time>2026-05-03T08:14:40.999Z</time></trkpt><trkpt lat="39.7370954828626" lon="8.743807051442527"><ele>482.66666666666663</ele><time>2026-05-03T08:14:41.999Z</time></trkpt><trkpt lat="39.737024331396725" lon="8.743766840713851"><ele>482.8333333333333</ele><time>2026-05-03T08:14:42.999Z</time></trkpt><trkpt lat="39.73693458451584" lon="8.743760489788878"><ele>483.0</ele><time>2026-05-03T08:14:43.999Z</time></trkpt><trkpt lat="39.73683911101902" lon="8.74379516669862"><ele>482.0</ele><time>2026-05-03T08:14:44.999Z</time></trkpt><trkpt lat="39.73673873309731" lon="8.743776156087693"><ele>480.99999999999994</ele><time>2026-05-03T08:14:46.999Z</time></trkpt><trkpt lat="39.73672230236655" lon="8.743615612071396"><ele>479.99999999999994</ele><time>2026-05-03T08:14:48.999Z</time></trkpt><trkpt lat="39.736724097062556" lon="8.743521941247536"><ele>479.0</ele><time>2026-05-03T08:14:49.999Z</time></trkpt><trkpt lat="39.73663693652486" lon="8.743440376507452"><ele>478.0</ele><time>2026-05-03T08:14:51.999Z</time></trkpt><trkpt lat="39.736545649976314" lon="8.743393570949001"><ele>477.4</ele><time>2026-05-03T08:14:52.999Z</time></trkpt><trkpt lat="39.73644500777012" lon="8.743403268875664"><ele>476.79999999999995</ele><time>2026-05-03T08:14:53.999Z</time></trkpt><trkpt lat="39.7363037399439" lon="8.743406640240432"><ele>476.2</ele><time>2026-05-03T08:14:54.999Z</time></trkpt><trkpt lat="39.73619894814947" lon="8.74342195975887"><ele>475.6</ele><time>2026-05-03T08:14:55.999Z</time></trkpt><trkpt lat="39.73610235955012" lon="8.743426808027364"><ele>475.0</ele><time>2026-05-03T08:14:56.999Z</time></trkpt><trkpt lat="39.73603735423604" lon="8.743393004996431"><ele>474.00000000000006</ele><time>2026-05-03T08:14:57.999Z</time></trkpt><trkpt lat="39.73597312023194" lon="8.743322846601044"><ele>473.0</ele><time>2026-05-03T08:14:58.999Z</time></trkpt><trkpt lat="39.73589165774267" lon="8.743234190725602"><ele>472.0</ele><time>2026-05-03T08:14:59.999Z</time></trkpt><trkpt lat="39.735799230281934" lon="8.743157880333447"><ele>471.0</ele><time>2026-05-03T08:15:00.999Z</time></trkpt><trkpt lat="39.73572869775683" lon="8.743145150601048"><ele>470.00000000000006</ele><time>2026-05-03T08:15:01.999Z</time></trkpt><trkpt lat="39.735660198074726" lon="8.743178081410619"><ele>469.0</ele><time>2026-05-03T08:15:02.999Z</time></trkpt><trkpt lat="39.73558617855709" lon="8.74317871781372"><ele>469.00000000000006</ele><time>2026-05-03T08:15:03.999Z</time></trkpt><trkpt lat="39.735522018755056" lon="8.743143604916472"><ele>469.0</ele><time>2026-05-03T08:15:04.999Z</time></trkpt><trkpt lat="39.73544301975047" lon="8.743088633946913"><ele>469.0</ele><time>2026-05-03T08:15:05.999Z</time></trkpt><trkpt lat="39.73535776188184" lon="8.743071058860956"><ele>469.0</ele><time>2026-05-03T08:15:06.999Z</time></trkpt><trkpt lat="39.735259635320546" lon="8.743154321902948"><ele>469.00000000000006</ele><time>2026-05-03T08:15:08.999Z</time></trkpt><trkpt lat="39.735195497842845" lon="8.743183144079223"><ele>469.0</ele><time>2026-05-03T08:15:09.999Z</time></trkpt><trkpt lat="39.73512274187118" lon="8.743185121261716"><ele>468.50000000000006</ele><time>2026-05-03T08:15:10.999Z</time></trkpt><trkpt lat="39.73506313961205" lon="8.743150422393596"><ele>468.0</ele><time>2026-05-03T08:15:11.999Z</time></trkpt><trkpt lat="39.73500008839252" lon="8.743051850121962"><ele>467.5</ele><time>2026-05-03T08:15:12.999Z</time></trkpt><trkpt lat="39.73492438203766" lon="8.742962064597474"><ele>467.0</ele><time>2026-05-03T08:15:13.999Z</time></trkpt><trkpt lat="39.73487235662507" lon="8.742874553793445"><ele>466.50000000000006</ele><time>2026-05-03T08:15:14.999Z</time></trkpt><trkpt lat="39.73479397579349" lon="8.742829088711874"><ele>466.0</ele><time>2026-05-03T08:15:15.999Z</time></trkpt><trkpt lat="39.734694569710875" lon="8.742791512183386"><ele>466.0</ele><time>2026-05-03T08:15:16.999Z</time></trkpt><trkpt lat="39.734564414778625" lon="8.742763559026686"><ele>466.0</ele><time>2026-05-03T08:15:17.999Z</time></trkpt><trkpt lat="39.73447120611056" lon="8.742732895601367"><ele>466.0</ele><time>2026-05-03T08:15:18.999Z</time></trkpt><trkpt lat="39.73441120676749" lon="8.742701063401727"><ele>466.0</ele><time>2026-05-03T08:15:19.999Z</time></trkpt><trkpt lat="39.73434818910336" lon="8.742532890782824"><ele>466.0</ele><time>2026-05-03T08:15:21.999Z</time></trkpt><trkpt lat="39.73433039185722" lon="8.742375184322434"><ele>463.4</ele><time>2026-05-03T08:15:22.999Z</time></trkpt><trkpt lat="39.734307407040404" lon="8.742221257995487"><ele>460.8</ele><time>2026-05-03T08:15:24Z</time></trkpt><trkpt lat="39.734276637108714" lon="8.74208821434082"><ele>458.19999999999993</ele><time>2026-05-03T08:15:25Z</time></trkpt><trkpt lat="39.73424512635771" lon="8.74195787514981"><ele>455.59999999999997</ele><time>2026-05-03T08:15:26Z</time></trkpt><trkpt lat="39.73419862243365" lon="8.74184382331602"><ele>453.0</ele><time>2026-05-03T08:15:27Z</time></trkpt><trkpt lat="39.734129863426865" lon="8.741757322266329"><ele>451.4</ele><time>2026-05-03T08:15:28Z</time></trkpt><trkpt lat="39.73404979554304" lon="8.741683577549804"><ele>449.79999999999995</ele><time>2026-05-03T08:15:29Z</time></trkpt><trkpt lat="39.73395480233615" lon="8.741605901339398"><ele>448.2</ele><time>2026-05-03T08:15:30Z</time></trkpt><trkpt lat="39.73387159099857" lon="8.741530476911672"><ele>446.6</ele><time>2026-05-03T08:15:31Z</time></trkpt><trkpt lat="39.73380101162398" lon="8.741480886751997"><ele>445.0</ele><time>2026-05-03T08:15:32Z</time></trkpt><trkpt lat="39.73367964452755" lon="8.741471775847819"><ele>445.0</ele><time>2026-05-03T08:15:34Z</time></trkpt><trkpt lat="39.73360236791924" lon="8.74149244803688"><ele>445.0</ele><time>2026-05-03T08:15:35Z</time></trkpt><trkpt lat="39.733520257586555" lon="8.741498729863846"><ele>445.0</ele><time>2026-05-03T08:15:36Z</time></trkpt><trkpt lat="39.7334209524979" lon="8.741481358549887"><ele>445.0</ele><time>2026-05-03T08:15:37Z</time></trkpt><trkpt lat="39.733338380205" lon="8.741430489497885"><ele>445.0</ele><time>2026-05-03T08:15:38Z</time></trkpt><trkpt lat="39.733260619782016" lon="8.741350773685054"><ele>443.4</ele><time>2026-05-03T08:15:39Z</time></trkpt><trkpt lat="39.73318814939005" lon="8.74127429028126"><ele>441.8</ele><time>2026-05-03T08:15:40Z</time></trkpt><trkpt lat="39.733090183400016" lon="8.74123392711541"><ele>440.20000000000005</ele><time>2026-05-03T08:15:41Z</time></trkpt><trkpt lat="39.73298178756242" lon="8.741190819839195"><ele>438.6</ele><time>2026-05-03T08:15:42Z</time></trkpt><trkpt lat="39.73288016817054" lon="8.74113726905112"><ele>437.0</ele><time>2026-05-03T08:15:43Z</time></trkpt><trkpt lat="39.73278420339731" lon="8.741092483983769"><ele>433.8</ele><time>2026-05-03T08:15:44Z</time></trkpt><trkpt lat="39.73268551176659" lon="8.741021784257983"><ele>430.6</ele><time>2026-05-03T08:15:45Z</time></trkpt><trkpt lat="39.73259126037486" lon="8.740953287605082"><ele>427.40000000000003</ele><time>2026-05-03T08:15:46Z</time></trkpt><trkpt lat="39.73248639633153" lon="8.740895366667432"><ele>424.20000000000005</ele><time>2026-05-03T08:15:47Z</time></trkpt><trkpt lat="39.73237453341653" lon="8.740864573618392"><ele>421.0</ele><time>2026-05-03T08:15:48Z</time></trkpt><trkpt lat="39.732259228811536" lon="8.740846537573308"><ele>421.0</ele><time>2026-05-03T08:15:49Z</time></trkpt><trkpt lat="39.73214159813564" lon="8.740809286816424"><ele>421.0</ele><time>2026-05-03T08:15:50Z</time></trkpt><trkpt lat="39.73203074095199" lon="8.740765628832834"><ele>421.0</ele><time>2026-05-03T08:15:51Z</time></trkpt><trkpt lat="39.731926312187575" lon="8.740729804781092"><ele>421.0</ele><time>2026-05-03T08:15:52Z</time></trkpt><trkpt lat="39.73182551591038" lon="8.740698798702695"><ele>421.0</ele><time>2026-05-03T08:15:53Z</time></trkpt><trkpt lat="39.73172892172835" lon="8.740665505294716"><ele>419.6</ele><time>2026-05-03T08:15:54Z</time></trkpt><trkpt lat="39.731632751168476" lon="8.74062796063147"><ele>418.20000000000005</ele><time>2026-05-03T08:15:55Z</time></trkpt><trkpt lat="39.731532942975235" lon="8.740597202356659"><ele>416.79999999999995</ele><time>2026-05-03T08:15:56Z</time></trkpt><trkpt lat="39.73143457895905" lon="8.740559358543264"><ele>415.4</ele><time>2026-05-03T08:15:57Z</time></trkpt><trkpt lat="39.731332538459434" lon="8.74052740259646"><ele>414.0</ele><time>2026-05-03T08:15:58Z</time></trkpt><trkpt lat="39.7312325542709" lon="8.740497967180962"><ele>414.0</ele><time>2026-05-03T08:15:59Z</time></trkpt><trkpt lat="39.73113770929133" lon="8.74045987409395"><ele>414.0</ele><time>2026-05-03T08:16:00Z</time></trkpt><trkpt lat="39.73104933607936" lon="8.740410641266788"><ele>414.0</ele><time>2026-05-03T08:16:01Z</time></trkpt><trkpt lat="39.73095251506254" lon="8.740377453888787"><ele>414.0</ele><time>2026-05-03T08:16:02Z</time></trkpt><trkpt lat="39.7308302332114" lon="8.740359710954598"><ele>414.0</ele><time>2026-05-03T08:16:03Z</time></trkpt><trkpt lat="39.730675974300176" lon="8.740352123628629"><ele>413.75</ele><time>2026-05-03T08:16:04Z</time></trkpt><trkpt lat="39.73051861661245" lon="8.74033199955817"><ele>413.5</ele><time>2026-05-03T08:16:05Z</time></trkpt><trkpt lat="39.73036548263404" lon="8.740325445297591"><ele>413.25</ele><time>2026-05-03T08:16:06Z</time></trkpt><trkpt lat="39.73023154415477" lon="8.740328203589835"><ele>413.0</ele><time>2026-05-03T08:16:07Z</time></trkpt><trkpt lat="39.73014556039016" lon="8.74033863434248"><ele>411.79999999999995</ele><time>2026-05-03T08:16:08Z</time></trkpt><trkpt lat="39.730064682215996" lon="8.740318600866646"><ele>410.6</ele><time>2026-05-03T08:16:09Z</time></trkpt><trkpt lat="39.72999084916023" lon="8.740255906208146"><ele>409.4</ele><time>2026-05-03T08:16:10Z</time></trkpt><trkpt lat="39.729907134580884" lon="8.74016176578825"><ele>408.20000000000005</ele><time>2026-05-03T08:16:11Z</time></trkpt><trkpt lat="39.72981473979848" lon="8.740095852418929"><ele>407.0</ele><time>2026-05-03T08:16:12Z</time></trkpt><trkpt lat="39.72972944608575" lon="8.740081611723665"><ele>407.0</ele><time>2026-05-03T08:16:13Z</time></trkpt><trkpt lat="39.7296560318398" lon="8.740097952371556"><ele>407.0</ele><time>2026-05-03T08:16:14Z</time></trkpt><trkpt lat="39.72956953196621" lon="8.740153514194104"><ele>407.0</ele><time>2026-05-03T08:16:15Z</time></trkpt><trkpt lat="39.72944842459749" lon="8.740234655112017"><ele>407.0</ele><time>2026-05-03T08:16:16Z</time></trkpt><trkpt lat="39.729297018278466" lon="8.740318079772198"><ele>406.0</ele><time>2026-05-03T08:16:17Z</time></trkpt><trkpt lat="39.72915176064698" lon="8.740380363459687"><ele>405.0</ele><time>2026-05-03T08:16:18Z</time></trkpt><trkpt lat="39.72902409612318" lon="8.740441838663132"><ele>404.0</ele><time>2026-05-03T08:16:19Z</time></trkpt><trkpt lat="39.728908851687144" lon="8.74049407694477"><ele>403.0</ele><time>2026-05-03T08:16:20Z</time></trkpt><trkpt lat="39.72881421079345" lon="8.740541957536369"><ele>403.00000000000006</ele><time>2026-05-03T08:16:21Z</time></trkpt><trkpt lat="39.72873237520994" lon="8.740572157889591"><ele>403.0</ele><time>2026-05-03T08:16:21.999Z</time></trkpt><trkpt lat="39.728644834777526" lon="8.740568631918531"><ele>403.0</ele><time>2026-05-03T08:16:22.999Z</time></trkpt><trkpt lat="39.72854476918884" lon="8.740548366115979"><ele>403.0</ele><time>2026-05-03T08:16:23.999Z</time></trkpt><trkpt lat="39.72844912747018" lon="8.740515348891655"><ele>403.00000000000006</ele><time>2026-05-03T08:16:24.999Z</time></trkpt><trkpt lat="39.7283734175485" lon="8.740523206187898"><ele>403.0</ele><time>2026-05-03T08:16:25.999Z</time></trkpt><trkpt lat="39.72827747727317" lon="8.740582450148548"><ele>402.0</ele><time>2026-05-03T08:16:26.999Z</time></trkpt><trkpt lat="39.728143099356124" lon="8.740697466696425"><ele>401.0</ele><time>2026-05-03T08:16:27.999Z</time></trkpt><trkpt lat="39.72800567863197" lon="8.740796595033737"><ele>400.0</ele><time>2026-05-03T08:16:28.999Z</time></trkpt><trkpt lat="39.727871354212915" lon="8.74087865196473"><ele>400.0</ele><time>2026-05-03T08:16:29.999Z</time></trkpt><trkpt lat="39.72774007549289" lon="8.74093969696679"><ele>400.0</ele><time>2026-05-03T08:16:30.999Z</time></trkpt><trkpt lat="39.72762515679258" lon="8.740997228550286"><ele>400.0</ele><time>2026-05-03T08:16:31.999Z</time></trkpt><trkpt lat="39.72751378588723" lon="8.741068782233368"><ele>400.0</ele><time>2026-05-03T08:16:32.999Z</time></trkpt><trkpt lat="39.727408035344745" lon="8.74114709223755"><ele>400.5</ele><time>2026-05-03T08:16:33.999Z</time></trkpt><trkpt lat="39.72728919254414" lon="8.7412230559695"><ele>401.0</ele><time>2026-05-03T08:16:34.999Z</time></trkpt><trkpt lat="39.727188657848814" lon="8.741309058797164"><ele>401.5</ele><time>2026-05-03T08:16:35.999Z</time></trkpt><trkpt lat="39.72708792013668" lon="8.741411728013354"><ele>402.0</ele><time>2026-05-03T08:16:36.999Z</time></trkpt><trkpt lat="39.72697045420503" lon="8.741517672860704"><ele>401.66666666666663</ele><time>2026-05-03T08:16:37.999Z</time></trkpt><trkpt lat="39.72684672122366" lon="8.741615638964955"><ele>401.3333333333333</ele><time>2026-05-03T08:16:38.999Z</time></trkpt><trkpt lat="39.72670395690582" lon="8.741706288099659"><ele>401.0</ele><time>2026-05-03T08:16:39.999Z</time></trkpt><trkpt lat="39.726539375968386" lon="8.74179516749073"><ele>401.0</ele><time>2026-05-03T08:16:40.999Z</time></trkpt><trkpt lat="39.726395393994764" lon="8.741862070625103"><ele>401.0</ele><time>2026-05-03T08:16:41.999Z</time></trkpt><trkpt lat="39.72625535626661" lon="8.741933520223952"><ele>401.0</ele><time>2026-05-03T08:16:42.999Z</time></trkpt><trkpt lat="39.726117970673855" lon="8.742005604198239"><ele>400.0</ele><time>2026-05-03T08:16:43.999Z</time></trkpt><trkpt lat="39.7259943156459" lon="8.742076138271656"><ele>399.0</ele><time>2026-05-03T08:16:44.999Z</time></trkpt><trkpt lat="39.72587160254147" lon="8.742150257328595"><ele>398.0</ele><time>2026-05-03T08:16:45.999Z</time></trkpt><trkpt lat="39.72573962946577" lon="8.742228219009434"><ele>397.0</ele><time>2026-05-03T08:16:46.999Z</time></trkpt><trkpt lat="39.72561103577598" lon="8.742289617891297"><ele>397.0</ele><time>2026-05-03T08:16:47.999Z</time></trkpt><trkpt lat="39.725475558201" lon="8.742361567708308"><ele>397.0</ele><time>2026-05-03T08:16:48.999Z</time></trkpt><trkpt lat="39.72532714726076" lon="8.742436704311823"><ele>397.0</ele><time>2026-05-03T08:16:49.999Z</time></trkpt><trkpt lat="39.72516708534675" lon="8.74252268579912"><ele>396.0</ele><time>2026-05-03T08:16:50.999Z</time></trkpt><trkpt lat="39.725000915840106" lon="8.742611422443797"><ele>395.0</ele><time>2026-05-03T08:16:51.999Z</time></trkpt><trkpt lat="39.72484698818653" lon="8.742696030678223"><ele>394.0</ele><time>2026-05-03T08:16:52.999Z</time></trkpt><trkpt lat="39.724706440803786" lon="8.742770155908923"><ele>394.0</ele><time>2026-05-03T08:16:53.999Z</time></trkpt><trkpt lat="39.72456479738677" lon="8.742852360662162"><ele>394.0</ele><time>2026-05-03T08:16:54.999Z</time></trkpt><trkpt lat="39.72442078078094" lon="8.742940128400724"><ele>394.0</ele><time>2026-05-03T08:16:55.999Z</time></trkpt><trkpt lat="39.72430119243716" lon="8.743014772376291"><ele>394.0</ele><time>2026-05-03T08:16:56.999Z</time></trkpt><trkpt lat="39.72421073836259" lon="8.743085207379064"><ele>393.0</ele><time>2026-05-03T08:16:57.999Z</time></trkpt><trkpt lat="39.72413414702268" lon="8.743147286658202"><ele>392.0</ele><time>2026-05-03T08:16:58.999Z</time></trkpt><trkpt lat="39.72406731552617" lon="8.743217303803865"><ele>391.0</ele><time>2026-05-03T08:16:59.999Z</time></trkpt><trkpt lat="39.72401017844624" lon="8.74330812319997"><ele>390.0</ele><time>2026-05-03T08:17:00.999Z</time></trkpt><trkpt lat="39.72395182107112" lon="8.743431499151008"><ele>389.0</ele><time>2026-05-03T08:17:01.999Z</time></trkpt><trkpt lat="39.72391022487046" lon="8.743599304578378"><ele>388.79999999999995</ele><time>2026-05-03T08:17:02.999Z</time></trkpt><trkpt lat="39.723895008367265" lon="8.743767571128194"><ele>388.59999999999997</ele><time>2026-05-03T08:17:03.999Z</time></trkpt><trkpt lat="39.72387985987351" lon="8.743913193302118"><ele>388.4</ele><time>2026-05-03T08:17:04.999Z</time></trkpt><trkpt lat="39.723836135213396" lon="8.744017232389071"><ele>388.2</ele><time>2026-05-03T08:17:05.999Z</time></trkpt><trkpt lat="39.723767198695704" lon="8.744079866567917"><ele>388.0</ele><time>2026-05-03T08:17:06.999Z</time></trkpt><trkpt lat="39.72366925547446" lon="8.74410971464684"><ele>386.0</ele><time>2026-05-03T08:17:07.999Z</time></trkpt><trkpt lat="39.7235503058021" lon="8.744119183533"><ele>384.0</ele><time>2026-05-03T08:17:08.999Z</time></trkpt><trkpt lat="39.723450853420644" lon="8.744144732316492"><ele>382.0</ele><time>2026-05-03T08:17:09.999Z</time></trkpt><trkpt lat="39.72337841312697" lon="8.744214525750884"><ele>380.0</ele><time>2026-05-03T08:17:10.999Z</time></trkpt><trkpt lat="39.72332582259391" lon="8.744337917862348"><ele>378.0</ele><time>2026-05-03T08:17:11.999Z</time></trkpt><trkpt lat="39.723287562064534" lon="8.744498082682792"><ele>377.0</ele><time>2026-05-03T08:17:12.999Z</time></trkpt><trkpt lat="39.72324716563214" lon="8.744671561600416"><ele>376.0</ele><time>2026-05-03T08:17:13.999Z</time></trkpt><trkpt lat="39.72318749139772" lon="8.74483063946846"><ele>375.0</ele><time>2026-05-03T08:17:14.999Z</time></trkpt><trkpt lat="39.72311906750699" lon="8.744978743695608"><ele>374.0</ele><time>2026-05-03T08:17:15.999Z</time></trkpt><trkpt lat="39.7230439209343" lon="8.745116100933187"><ele>374.75</ele><time>2026-05-03T08:17:16.999Z</time></trkpt><trkpt lat="39.72296686456238" lon="8.745250402451306"><ele>375.5</ele><time>2026-05-03T08:17:17.999Z</time></trkpt><trkpt lat="39.72289700923878" lon="8.745388303679483"><ele>376.25</ele><time>2026-05-03T08:17:18.999Z</time></trkpt><trkpt lat="39.722837333573025" lon="8.745533253997642"><ele>377.0</ele><time>2026-05-03T08:17:19.999Z</time></trkpt><trkpt lat="39.72279259848718" lon="8.74567918777827"><ele>377.0</ele><time>2026-05-03T08:17:20.999Z</time></trkpt><trkpt lat="39.722765179758035" lon="8.745795607606196"><ele>377.0</ele><time>2026-05-03T08:17:21.999Z</time></trkpt><trkpt lat="39.72271565793423" lon="8.745893497041164"><ele>377.0</ele><time>2026-05-03T08:17:23.999Z</time></trkpt><trkpt lat="39.72266801280834" lon="8.74578224724184"><ele>377.0</ele><time>2026-05-03T08:17:25.999Z</time></trkpt><trkpt lat="39.7226825960621" lon="8.745677423690701"><ele>377.0</ele><time>2026-05-03T08:17:26.999Z</time></trkpt><trkpt lat="39.722682429355174" lon="8.745545310490213"><ele>371.0</ele><time>2026-05-03T08:17:27.999Z</time></trkpt><trkpt lat="39.722675727960755" lon="8.745391139470382"><ele>365.0</ele><time>2026-05-03T08:17:28.998Z</time></trkpt><trkpt lat="39.72265590591253" lon="8.745221685867298"><ele>359.0</ele><time>2026-05-03T08:17:30Z</time></trkpt><trkpt lat="39.72263431461313" lon="8.745066530286715"><ele>353.0</ele><time>2026-05-03T08:17:31Z</time></trkpt><trkpt lat="39.72262598458945" lon="8.744949913772214"><ele>353.0</ele><time>2026-05-03T08:17:32Z</time></trkpt><trkpt lat="39.722550551393276" lon="8.74483685810687"><ele>353.0</ele><time>2026-05-03T08:17:34Z</time></trkpt><trkpt lat="39.722475733833214" lon="8.744864677929584"><ele>353.0</ele><time>2026-05-03T08:17:35Z</time></trkpt><trkpt lat="39.72241135254614" lon="8.744954104575362"><ele>353.0</ele><time>2026-05-03T08:17:36Z</time></trkpt><trkpt lat="39.722374336833425" lon="8.745082512470603"><ele>353.0</ele><time>2026-05-03T08:17:37Z</time></trkpt><trkpt lat="39.72236152452776" lon="8.745249934982478"><ele>351.25</ele><time>2026-05-03T08:17:38Z</time></trkpt><trkpt lat="39.722364722453406" lon="8.745442856814215"><ele>349.5</ele><time>2026-05-03T08:17:39Z</time></trkpt><trkpt lat="39.72236014502903" lon="8.745638586228802"><ele>347.75</ele><time>2026-05-03T08:17:40Z</time></trkpt><trkpt lat="39.72234436237168" lon="8.745820596679879"><ele>346.0</ele><time>2026-05-03T08:17:41Z</time></trkpt><trkpt lat="39.722333258735546" lon="8.74597843345055"><ele>346.0</ele><time>2026-05-03T08:17:42Z</time></trkpt><trkpt lat="39.72233334997461" lon="8.746102118650947"><ele>346.0</ele><time>2026-05-03T08:17:43Z</time></trkpt><trkpt lat="39.7223210148018" lon="8.746191586846217"><ele>346.0</ele><time>2026-05-03T08:17:44Z</time></trkpt><trkpt lat="39.72223398170948" lon="8.746226228219243"><ele>346.0</ele><time>2026-05-03T08:17:46Z</time></trkpt><trkpt lat="39.72220021471288" lon="8.746035860996004"><ele>346.0</ele><time>2026-05-03T08:17:48Z</time></trkpt><trkpt lat="39.72220606466032" lon="8.74587910562749"><ele>346.0</ele><time>2026-05-03T08:17:49Z</time></trkpt><trkpt lat="39.72222047914097" lon="8.745715121890257"><ele>346.0</ele><time>2026-05-03T08:17:50Z</time></trkpt><trkpt lat="39.72222251204239" lon="8.745590675974306"><ele>346.0</ele><time>2026-05-03T08:17:51Z</time></trkpt><trkpt lat="39.72219335284494" lon="8.745509838550973"><ele>346.0</ele><time>2026-05-03T08:17:52Z</time></trkpt><trkpt lat="39.7220726268217" lon="8.745539392069155"><ele>346.0</ele><time>2026-05-03T08:17:54Z</time></trkpt><trkpt lat="39.72205021637934" lon="8.7456322577401"><ele>346.0</ele><time>2026-05-03T08:17:55Z</time></trkpt><trkpt lat="39.72207638963526" lon="8.745761148095127"><ele>346.0</ele><time>2026-05-03T08:17:56Z</time></trkpt><trkpt lat="39.722112489935405" lon="8.745911584758023"><ele>346.0</ele><time>2026-05-03T08:17:57Z</time></trkpt><trkpt lat="39.72210497893781" lon="8.746065019099452"><ele>346.0</ele><time>2026-05-03T08:17:58Z</time></trkpt><trkpt lat="39.72208120524568" lon="8.7461745088925"><ele>346.0</ele><time>2026-05-03T08:17:59Z</time></trkpt><trkpt lat="39.72199112436665" lon="8.74621682719874"><ele>346.0</ele><time>2026-05-03T08:18:01Z</time></trkpt><trkpt lat="39.72194737728717" lon="8.74603008465742"><ele>346.0</ele><time>2026-05-03T08:18:03Z</time></trkpt><trkpt lat="39.72195978422394" lon="8.745902500209501"><ele>346.0</ele><time>2026-05-03T08:18:04Z</time></trkpt><trkpt lat="39.72195207361593" lon="8.745795933784263"><ele>346.0</ele><time>2026-05-03T08:18:05Z</time></trkpt><trkpt lat="39.721902681681236" lon="8.745732183627696"><ele>346.0</ele><time>2026-05-03T08:18:06Z</time></trkpt><trkpt lat="39.72183401658798" lon="8.745737131408559"><ele>340.5</ele><time>2026-05-03T08:18:07Z</time></trkpt><trkpt lat="39.72178592988554" lon="8.745806575594706"><ele>335.0</ele><time>2026-05-03T08:18:08Z</time></trkpt><trkpt lat="39.721789015320084" lon="8.745921059104973"><ele>329.5</ele><time>2026-05-03T08:18:09Z</time></trkpt><trkpt lat="39.72181880315396" lon="8.746051957598477"><ele>324.0</ele><time>2026-05-03T08:18:10Z</time></trkpt><trkpt lat="39.72180483848661" lon="8.746142117453344"><ele>318.5</ele><time>2026-05-03T08:18:11Z</time></trkpt><trkpt lat="39.72171163741085" lon="8.746139343911636"><ele>313.0</ele><time>2026-05-03T08:18:13Z</time></trkpt><trkpt lat="39.72168507402903" lon="8.746054565685368"><ele>313.0</ele><time>2026-05-03T08:18:14Z</time></trkpt><trkpt lat="39.72167353857873" lon="8.74595187456334"><ele>313.0</ele><time>2026-05-03T08:18:15Z</time></trkpt><trkpt lat="39.721628915094925" lon="8.74588564028702"><ele>313.0</ele><time>2026-05-03T08:18:16Z</time></trkpt><trkpt lat="39.72154054881879" lon="8.745894913336153"><ele>313.0</ele><time>2026-05-03T08:18:17Z</time></trkpt><trkpt lat="39.72147534700593" lon="8.745958489983222"><ele>313.0</ele><time>2026-05-03T08:18:18Z</time></trkpt><trkpt lat="39.72144577452629" lon="8.746057439296264"><ele>313.0</ele><time>2026-05-03T08:18:19Z</time></trkpt><trkpt lat="39.72144057330705" lon="8.74617598047811"><ele>313.0</ele><time>2026-05-03T08:18:20Z</time></trkpt><trkpt lat="39.721412267711635" lon="8.74625236048059"><ele>313.0</ele><time>2026-05-03T08:18:21Z</time></trkpt><trkpt lat="39.72126275329228" lon="8.746216987754853"><ele>313.0</ele><time>2026-05-03T08:18:22.999Z</time></trkpt><trkpt lat="39.72115686174128" lon="8.746170054624145"><ele>313.0</ele><time>2026-05-03T08:18:23.999Z</time></trkpt><trkpt lat="39.72103798531793" lon="8.746158597693412"><ele>313.0</ele><time>2026-05-03T08:18:24.999Z</time></trkpt><trkpt lat="39.720917677192" lon="8.74616295086598"><ele>307.25</ele><time>2026-05-03T08:18:25.999Z</time></trkpt><trkpt lat="39.7207977920032" lon="8.746165781244564"><ele>301.5</ele><time>2026-05-03T08:18:26.999Z</time></trkpt><trkpt lat="39.72068439557108" lon="8.746194127804038"><ele>295.75</ele><time>2026-05-03T08:18:27.999Z</time></trkpt><trkpt lat="39.720578532753656" lon="8.746267685173438"><ele>290.0</ele><time>2026-05-03T08:18:28.999Z</time></trkpt><trkpt lat="39.720483370182805" lon="8.746372951746059"><ele>290.0</ele><time>2026-05-03T08:18:29.999Z</time></trkpt><trkpt lat="39.72038945211682" lon="8.746483225729401"><ele>290.0</ele><time>2026-05-03T08:18:30.999Z</time></trkpt><trkpt lat="39.72029936095113" lon="8.74660240479058"><ele>290.0</ele><time>2026-05-03T08:18:31.999Z</time></trkpt><trkpt lat="39.720235284817925" lon="8.746731463459607"><ele>290.0</ele><time>2026-05-03T08:18:32.999Z</time></trkpt><trkpt lat="39.720186276716234" lon="8.746884472953587"><ele>285.75</ele><time>2026-05-03T08:18:33.999Z</time></trkpt><trkpt lat="39.720137397270186" lon="8.747055820011449"><ele>281.5</ele><time>2026-05-03T08:18:34.999Z</time></trkpt><trkpt lat="39.72008193541804" lon="8.747228277713557"><ele>277.25</ele><time>2026-05-03T08:18:35.999Z</time></trkpt><trkpt lat="39.720018967330695" lon="8.74740014384667"><ele>273.0</ele><time>2026-05-03T08:18:36.999Z</time></trkpt><trkpt lat="39.71996350564764" lon="8.747550314210569"><ele>273.0</ele><time>2026-05-03T08:18:37.999Z</time></trkpt><trkpt lat="39.71993325459329" lon="8.74766189866832"><ele>273.0</ele><time>2026-05-03T08:18:38.999Z</time></trkpt><trkpt lat="39.71992591887976" lon="8.747763518307085"><ele>273.0</ele><time>2026-05-03T08:18:39.999Z</time></trkpt><trkpt lat="39.71993491684909" lon="8.747862339728893"><ele>273.0</ele><time>2026-05-03T08:18:40.999Z</time></trkpt><trkpt lat="39.71992646390668" lon="8.747973629486202"><ele>273.0</ele><time>2026-05-03T08:18:42.999Z</time></trkpt><trkpt lat="39.71987496167432" lon="8.747823042532824"><ele>273.0</ele><time>2026-05-03T08:18:48.999Z</time></trkpt><trkpt lat="39.71981965197401" lon="8.747741589542613"><ele>273.0</ele><time>2026-05-03T08:18:49.999Z</time></trkpt><trkpt lat="39.71972504634759" lon="8.74767395675636"><ele>273.0</ele><time>2026-05-03T08:18:50.999Z</time></trkpt><trkpt lat="39.71960546966559" lon="8.747622154781205"><ele>273.0</ele><time>2026-05-03T08:18:51.999Z</time></trkpt><trkpt lat="39.71944866438743" lon="8.747544398663702"><ele>272.25</ele><time>2026-05-03T08:18:52.999Z</time></trkpt><trkpt lat="39.719295213349326" lon="8.747456380630148"><ele>271.5</ele><time>2026-05-03T08:18:53.999Z</time></trkpt><trkpt lat="39.719163766908224" lon="8.74737444445456"><ele>270.75</ele><time>2026-05-03T08:18:54.999Z</time></trkpt><trkpt lat="39.71905358358473" lon="8.747281124716892"><ele>270.0</ele><time>2026-05-03T08:18:55.999Z</time></trkpt><trkpt lat="39.718938253854226" lon="8.747209601772688"><ele>270.0</ele><time>2026-05-03T08:18:56.999Z</time></trkpt><trkpt lat="39.71882933589434" lon="8.747140036006469"><ele>270.0</ele><time>2026-05-03T08:18:57.999Z</time></trkpt><trkpt lat="39.718723856045294" lon="8.74707266616997"><ele>270.0</ele><time>2026-05-03T08:18:58.999Z</time></trkpt><trkpt lat="39.718621750713965" lon="8.747006096517426"><ele>270.0</ele><time>2026-05-03T08:18:59.999Z</time></trkpt><trkpt lat="39.718521660878864" lon="8.746939138860903"><ele>267.25</ele><time>2026-05-03T08:19:00.999Z</time></trkpt><trkpt lat="39.71842332017059" lon="8.74686494919405"><ele>264.5</ele><time>2026-05-03T08:19:01.999Z</time></trkpt><trkpt lat="39.718324030417214" lon="8.746794427912224"><ele>261.75</ele><time>2026-05-03T08:19:02.999Z</time></trkpt><trkpt lat="39.71823475650277" lon="8.746701642657113"><ele>259.0</ele><time>2026-05-03T08:19:03.999Z</time></trkpt><trkpt lat="39.718144206024185" lon="8.746600437651207"><ele>259.0</ele><time>2026-05-03T08:19:04.999Z</time></trkpt><trkpt lat="39.7180538252276" lon="8.746515373954772"><ele>259.0</ele><time>2026-05-03T08:19:05.999Z</time></trkpt><trkpt lat="39.71795730290293" lon="8.746464941227687"><ele>259.0</ele><time>2026-05-03T08:19:06.999Z</time></trkpt><trkpt lat="39.71786158212827" lon="8.746442656162118"><ele>259.0</ele><time>2026-05-03T08:19:07.999Z</time></trkpt><trkpt lat="39.717759766275265" lon="8.746449524929977"><ele>259.0</ele><time>2026-05-03T08:19:08.999Z</time></trkpt><trkpt lat="39.717655265351" lon="8.746468348327502"><ele>260.2</ele><time>2026-05-03T08:19:09.999Z</time></trkpt><trkpt lat="39.71755933176235" lon="8.746490046041865"><ele>261.4</ele><time>2026-05-03T08:19:10.999Z</time></trkpt><trkpt lat="39.71746742189211" lon="8.74649743585773"><ele>262.6</ele><time>2026-05-03T08:19:11.999Z</time></trkpt><trkpt lat="39.71736385324788" lon="8.746501687997815"><ele>263.8</ele><time>2026-05-03T08:19:12.999Z</time></trkpt><trkpt lat="39.71730043898965" lon="8.746349578487356"><ele>265.0</ele><time>2026-05-03T08:19:13.999Z</time></trkpt><trkpt lat="39.71715951295999" lon="8.746317441462999"><ele>265.0</ele><time>2026-05-03T08:19:14.999Z</time></trkpt><trkpt lat="39.71704550008634" lon="8.746301261737456"><ele>265.0</ele><time>2026-05-03T08:19:15.999Z</time></trkpt><trkpt lat="39.71693799412143" lon="8.746286005316094"><ele>265.0</ele><time>2026-05-03T08:19:16.999Z</time></trkpt><trkpt lat="39.71683415434669" lon="8.746271269170528"><ele>265.0</ele><time>2026-05-03T08:19:17.999Z</time></trkpt><trkpt lat="39.716735069582796" lon="8.746257207819816"><ele>265.0</ele><time>2026-05-03T08:19:18.999Z</time></trkpt><trkpt lat="39.716610881340486" lon="8.746442928523162"><ele>264.4</ele><time>2026-05-03T08:19:19.999Z</time></trkpt><trkpt lat="39.71650583831107" lon="8.746459139985383"><ele>263.8</ele><time>2026-05-03T08:19:20.999Z</time></trkpt><trkpt lat="39.716407080825114" lon="8.746463154129632"><ele>263.2</ele><time>2026-05-03T08:19:21.999Z</time></trkpt><trkpt lat="39.716310869705474" lon="8.746468043294144"><ele>262.6</ele><time>2026-05-03T08:19:22.999Z</time></trkpt><trkpt lat="39.71621661845391" lon="8.746485811286016"><ele>262.0</ele><time>2026-05-03T08:19:23.999Z</time></trkpt><trkpt lat="39.71612605565077" lon="8.746508280836416"><ele>261.0</ele><time>2026-05-03T08:19:24.999Z</time></trkpt><trkpt lat="39.71603666208595" lon="8.746528269794737"><ele>260.0</ele><time>2026-05-03T08:19:25.999Z</time></trkpt><trkpt lat="39.715951907938056" lon="8.746538292625095"><ele>259.0</ele><time>2026-05-03T08:19:26.998Z</time></trkpt><trkpt lat="39.71587778256611" lon="8.746523101038898"><ele>258.0</ele><time>2026-05-03T08:19:27.998Z</time></trkpt><trkpt lat="39.715810755677936" lon="8.746496857981573"><ele>257.0</ele><time>2026-05-03T08:19:28.998Z</time></trkpt><trkpt lat="39.71572980433607" lon="8.746443461353797"><ele>256.0</ele><time>2026-05-03T08:19:29.998Z</time></trkpt><trkpt lat="39.71561528875015" lon="8.74636492086896"><ele>256.0</ele><time>2026-05-03T08:19:30.998Z</time></trkpt><trkpt lat="39.71548754317809" lon="8.746308612998897"><ele>256.0</ele><time>2026-05-03T08:19:31.998Z</time></trkpt><trkpt lat="39.715359879948615" lon="8.74625777135644"><ele>256.0</ele><time>2026-05-03T08:19:32.998Z</time></trkpt><trkpt lat="39.71524478157177" lon="8.746192559446973"><ele>256.0</ele><time>2026-05-03T08:19:33.998Z</time></trkpt><trkpt lat="39.715129229690454" lon="8.746137965947847"><ele>255.20000000000002</ele><time>2026-05-03T08:19:34.998Z</time></trkpt><trkpt lat="39.715007426299266" lon="8.746089584884562"><ele>254.40000000000003</ele><time>2026-05-03T08:19:36Z</time></trkpt><trkpt lat="39.71490957750346" lon="8.746037104462983"><ele>253.6</ele><time>2026-05-03T08:19:37Z</time></trkpt><trkpt lat="39.7148309015953" lon="8.74597450822813"><ele>252.8</ele><time>2026-05-03T08:19:38Z</time></trkpt><trkpt lat="39.714760805514956" lon="8.745889785770938"><ele>252.0</ele><time>2026-05-03T08:19:39Z</time></trkpt><trkpt lat="39.714680239425434" lon="8.745763003759459"><ele>252.0</ele><time>2026-05-03T08:19:40Z</time></trkpt><trkpt lat="39.71458180156691" lon="8.745656586803277"><ele>252.0</ele><time>2026-05-03T08:19:41Z</time></trkpt><trkpt lat="39.71448700697427" lon="8.745579273944479"><ele>252.0</ele><time>2026-05-03T08:19:42Z</time></trkpt><trkpt lat="39.71439588021195" lon="8.745519749840778"><ele>252.0</ele><time>2026-05-03T08:19:43Z</time></trkpt><trkpt lat="39.71431263345707" lon="8.745465442905672"><ele>252.0</ele><time>2026-05-03T08:19:44Z</time></trkpt><trkpt lat="39.71424492708745" lon="8.74540630901401"><ele>252.0</ele><time>2026-05-03T08:19:45Z</time></trkpt><trkpt lat="39.71420453141225" lon="8.745341660553027"><ele>252.0</ele><time>2026-05-03T08:19:46Z</time></trkpt><trkpt lat="39.714151366990286" lon="8.745181356200295"><ele>252.0</ele><time>2026-05-03T08:19:48Z</time></trkpt><trkpt lat="39.71410726912237" lon="8.745063658539607"><ele>252.0</ele><time>2026-05-03T08:19:49Z</time></trkpt><trkpt lat="39.71403371449286" lon="8.744944060060526"><ele>252.0</ele><time>2026-05-03T08:19:50Z</time></trkpt><trkpt lat="39.71393757088559" lon="8.744806915552997"><ele>252.0</ele><time>2026-05-03T08:19:51Z</time></trkpt><trkpt lat="39.71383259153329" lon="8.74465834601032"><ele>252.0</ele><time>2026-05-03T08:19:52Z</time></trkpt><trkpt lat="39.713736756364675" lon="8.744528658582645"><ele>252.0</ele><time>2026-05-03T08:19:53Z</time></trkpt><trkpt lat="39.71363301747218" lon="8.74441442369582"><ele>252.0</ele><time>2026-05-03T08:19:54Z</time></trkpt><trkpt lat="39.713507080498275" lon="8.744276888350317"><ele>250.5</ele><time>2026-05-03T08:19:55Z</time></trkpt><trkpt lat="39.713407931960326" lon="8.74414992197007"><ele>249.0</ele><time>2026-05-03T08:19:56Z</time></trkpt><trkpt lat="39.713330964548916" lon="8.744062509066183"><ele>247.5</ele><time>2026-05-03T08:19:57Z</time></trkpt><trkpt lat="39.71324398457646" lon="8.744008619025417"><ele>246.0</ele><time>2026-05-03T08:19:58Z</time></trkpt><trkpt lat="39.713125808688616" lon="8.74395802547812"><ele>246.0</ele><time>2026-05-03T08:19:59Z</time></trkpt><trkpt lat="39.712985151992" lon="8.74388207609148"><ele>246.0</ele><time>2026-05-03T08:20:00Z</time></trkpt><trkpt lat="39.71288043297405" lon="8.74379604466376"><ele>246.0</ele><time>2026-05-03T08:20:01Z</time></trkpt><trkpt lat="39.71279441085145" lon="8.743721102182972"><ele>246.0</ele><time>2026-05-03T08:20:02Z</time></trkpt><trkpt lat="39.712697036583165" lon="8.743655137106153"><ele>246.0</ele><time>2026-05-03T08:20:03Z</time></trkpt><trkpt lat="39.71259890930587" lon="8.743618875582492"><ele>246.00000000000003</ele><time>2026-05-03T08:20:04Z</time></trkpt><trkpt lat="39.71252556266549" lon="8.743602051888903"><ele>246.00000000000003</ele><time>2026-05-03T08:20:05Z</time></trkpt><trkpt lat="39.712432228090975" lon="8.743517032981211"><ele>246.0</ele><time>2026-05-03T08:20:07Z</time></trkpt><trkpt lat="39.71238096006002" lon="8.743363531966335"><ele>246.0</ele><time>2026-05-03T08:20:09Z</time></trkpt><trkpt lat="39.71235425644773" lon="8.74328434915241"><ele>246.0</ele><time>2026-05-03T08:20:10Z</time></trkpt><trkpt lat="39.71227788635896" lon="8.743141441865385"><ele>246.0</ele><time>2026-05-03T08:20:12Z</time></trkpt><trkpt lat="39.712229625548524" lon="8.743069714486326"><ele>246.0</ele><time>2026-05-03T08:20:13Z</time></trkpt><trkpt lat="39.71217641390994" lon="8.7430036114941"><ele>246.0</ele><time>2026-05-03T08:20:14Z</time></trkpt><trkpt lat="39.71211951698698" lon="8.742934934192073"><ele>246.0</ele><time>2026-05-03T08:20:15Z</time></trkpt><trkpt lat="39.71206123733178" lon="8.742868692982839"><ele>246.0</ele><time>2026-05-03T08:20:16Z</time></trkpt><trkpt lat="39.71200905995188" lon="8.742800997781023"><ele>246.0</ele><time>2026-05-03T08:20:17Z</time></trkpt><trkpt lat="39.71197296331981" lon="8.742728771589897"><ele>246.0</ele><time>2026-05-03T08:20:18Z</time></trkpt><trkpt lat="39.711939702735556" lon="8.742644394299006"><ele>246.0</ele><time>2026-05-03T08:20:19Z</time></trkpt><trkpt lat="39.7119040613913" lon="8.742560496690588"><ele>246.0</ele><time>2026-05-03T08:20:20Z</time></trkpt><trkpt lat="39.711847697931894" lon="8.74246064966963"><ele>246.0</ele><time>2026-05-03T08:20:22Z</time></trkpt><trkpt lat="39.711838264565564" lon="8.742349532896808"><ele>246.0</ele><time>2026-05-03T08:20:23.999Z</time></trkpt><trkpt lat="39.71184528627799" lon="8.74226563759995"><ele>243.5</ele><time>2026-05-03T08:20:24.999Z</time></trkpt><trkpt lat="39.711842117710205" lon="8.742172709936053"><ele>241.0</ele><time>2026-05-03T08:20:25.999Z</time></trkpt><trkpt lat="39.711826600601896" lon="8.74207249477846"><ele>238.5</ele><time>2026-05-03T08:20:26.999Z</time></trkpt><trkpt lat="39.711803873476995" lon="8.741971936658233"><ele>236.0</ele><time>2026-05-03T08:20:27.999Z</time></trkpt><trkpt lat="39.71178397507868" lon="8.741880899247855"><ele>233.5</ele><time>2026-05-03T08:20:28.999Z</time></trkpt><trkpt lat="39.71175467547472" lon="8.741731576307457"><ele>231.0</ele><time>2026-05-03T08:20:30.999Z</time></trkpt><trkpt lat="39.71174917021713" lon="8.741636300500332"><ele>228.4</ele><time>2026-05-03T08:20:31.999Z</time></trkpt><trkpt lat="39.71174920991831" lon="8.741525337484768"><ele>225.8</ele><time>2026-05-03T08:20:32.999Z</time></trkpt><trkpt lat="39.71174844975276" lon="8.74141373146277"><ele>223.20000000000002</ele><time>2026-05-03T08:20:33.999Z</time></trkpt><trkpt lat="39.71174689900905" lon="8.74130708823874"><ele>220.60000000000002</ele><time>2026-05-03T08:20:34.999Z</time></trkpt><trkpt lat="39.7117424359821" lon="8.741214404556386"><ele>218.0</ele><time>2026-05-03T08:20:35.999Z</time></trkpt><trkpt lat="39.7116856914152" lon="8.741068672233935"><ele>216.33333333333334</ele><time>2026-05-03T08:20:37.999Z</time></trkpt><trkpt lat="39.711624981716945" lon="8.741010009225446"><ele>214.66666666666669</ele><time>2026-05-03T08:20:38.999Z</time></trkpt><trkpt lat="39.711551695316736" lon="8.740951384643116"><ele>213.0</ele><time>2026-05-03T08:20:39.999Z</time></trkpt><trkpt lat="39.711477540783605" lon="8.740903996725194"><ele>211.33333333333331</ele><time>2026-05-03T08:20:40.999Z</time></trkpt><trkpt lat="39.71141195220995" lon="8.740849681412662"><ele>209.66666666666666</ele><time>2026-05-03T08:20:41.999Z</time></trkpt><trkpt lat="39.711350726799" lon="8.74077519917697"><ele>208.0</ele><time>2026-05-03T08:20:42.999Z</time></trkpt><trkpt lat="39.71128850000441" lon="8.740680803084262"><ele>208.0</ele><time>2026-05-03T08:20:43.999Z</time></trkpt><trkpt lat="39.71120934335609" lon="8.740568406332153"><ele>208.0</ele><time>2026-05-03T08:20:44.999Z</time></trkpt><trkpt lat="39.711138890705264" lon="8.74047331306679"><ele>208.0</ele><time>2026-05-03T08:20:45.999Z</time></trkpt><trkpt lat="39.71108190577743" lon="8.740402247991193"><ele>208.0</ele><time>2026-05-03T08:20:46.999Z</time></trkpt><trkpt lat="39.71102437497314" lon="8.740342111947363"><ele>208.0</ele><time>2026-05-03T08:20:47.999Z</time></trkpt><trkpt lat="39.71096481787654" lon="8.740275344449158"><ele>206.49999999999997</ele><time>2026-05-03T08:20:48.999Z</time></trkpt><trkpt lat="39.71091005869872" lon="8.740198499871855"><ele>205.0</ele><time>2026-05-03T08:20:49.999Z</time></trkpt><trkpt lat="39.71086381550897" lon="8.740115343589666"><ele>203.5</ele><time>2026-05-03T08:20:50.999Z</time></trkpt><trkpt lat="39.71082356571384" lon="8.740032580093839"><ele>202.0</ele><time>2026-05-03T08:20:51.999Z</time></trkpt><trkpt lat="39.710781460616325" lon="8.739940099516039"><ele>200.49999999999997</ele><time>2026-05-03T08:20:52.999Z</time></trkpt><trkpt lat="39.71073298705554" lon="8.739868200816321"><ele>199.0</ele><time>2026-05-03T08:20:53.999Z</time></trkpt><trkpt lat="39.71067963939158" lon="8.739820240407933"><ele>198.99999999999997</ele><time>2026-05-03T08:20:54.999Z</time></trkpt><trkpt lat="39.71061897702553" lon="8.739786748464633"><ele>199.0</ele><time>2026-05-03T08:20:55.999Z</time></trkpt><trkpt lat="39.71055742764365" lon="8.739749226395901"><ele>199.0</ele><time>2026-05-03T08:20:56.999Z</time></trkpt><trkpt lat="39.71049885632621" lon="8.739701774834838"><ele>199.0</ele><time>2026-05-03T08:20:57.999Z</time></trkpt><trkpt lat="39.71044465984946" lon="8.739647656104536"><ele>198.99999999999997</ele><time>2026-05-03T08:20:58.999Z</time></trkpt><trkpt lat="39.710402248184515" lon="8.739506602195716"><ele>199.0</ele><time>2026-05-03T08:21:00.999Z</time></trkpt><trkpt lat="39.71039270655434" lon="8.739419764877097"><ele>197.83333333333331</ele><time>2026-05-03T08:21:01.999Z</time></trkpt><trkpt lat="39.71034527724513" lon="8.739308836714438"><ele>196.66666666666666</ele><time>2026-05-03T08:21:03.999Z</time></trkpt><trkpt lat="39.710261269567894" lon="8.739309590860758"><ele>195.5</ele><time>2026-05-03T08:21:05.999Z</time></trkpt><trkpt lat="39.71019050327254" lon="8.739326478686973"><ele>194.33333333333331</ele><time>2026-05-03T08:21:06.999Z</time></trkpt><trkpt lat="39.71010447768949" lon="8.739361987113554"><ele>193.16666666666666</ele><time>2026-05-03T08:21:07.999Z</time></trkpt><trkpt lat="39.71001512928365" lon="8.739389032074342"><ele>192.0</ele><time>2026-05-03T08:21:08.999Z</time></trkpt><trkpt lat="39.709927808432234" lon="8.739403422813618"><ele>191.16666666666666</ele><time>2026-05-03T08:21:09.999Z</time></trkpt><trkpt lat="39.70985219502857" lon="8.739427730891654"><ele>190.33333333333334</ele><time>2026-05-03T08:21:10.999Z</time></trkpt><trkpt lat="39.709782973724636" lon="8.73947601561639"><ele>189.5</ele><time>2026-05-03T08:21:11.999Z</time></trkpt><trkpt lat="39.70971850422845" lon="8.73955176146988"><ele>188.66666666666669</ele><time>2026-05-03T08:21:12.999Z</time></trkpt><trkpt lat="39.70965282941228" lon="8.739628599258928"><ele>187.83333333333334</ele><time>2026-05-03T08:21:13.999Z</time></trkpt><trkpt lat="39.709600060156525" lon="8.739699444991215"><ele>187.0</ele><time>2026-05-03T08:21:14.999Z</time></trkpt><trkpt lat="39.709555771396325" lon="8.73977280592454"><ele>187.0</ele><time>2026-05-03T08:21:15.999Z</time></trkpt><trkpt lat="39.70952607025489" lon="8.739849412708347"><ele>187.0</ele><time>2026-05-03T08:21:16.999Z</time></trkpt><trkpt lat="39.709518814884255" lon="8.739939169076662"><ele>187.0</ele><time>2026-05-03T08:21:17.999Z</time></trkpt><trkpt lat="39.70951238263644" lon="8.740021246676614"><ele>187.0</ele><time>2026-05-03T08:21:18.999Z</time></trkpt><trkpt lat="39.7094456230462" lon="8.74013767241283"><ele>187.0</ele><time>2026-05-03T08:21:20.999Z</time></trkpt><trkpt lat="39.7093647632777" lon="8.740261563900733"><ele>187.0</ele><time>2026-05-03T08:21:22.999Z</time></trkpt><trkpt lat="39.709310379269354" lon="8.740335951143283"><ele>183.83333333333334</ele><time>2026-05-03T08:21:23.999Z</time></trkpt><trkpt lat="39.70924373192024" lon="8.74039840992206"><ele>180.66666666666669</ele><time>2026-05-03T08:21:24.999Z</time></trkpt><trkpt lat="39.70917604609757" lon="8.740460743134475"><ele>177.5</ele><time>2026-05-03T08:21:25.999Z</time></trkpt><trkpt lat="39.7091152971924" lon="8.740518029910033"><ele>174.33333333333334</ele><time>2026-05-03T08:21:26.998Z</time></trkpt><trkpt lat="39.70906145314743" lon="8.740575772980987"><ele>171.16666666666666</ele><time>2026-05-03T08:21:27.998Z</time></trkpt><trkpt lat="39.70901220568594" lon="8.74063552033639"><ele>168.0</ele><time>2026-05-03T08:21:28.998Z</time></trkpt><trkpt lat="39.70893752451385" lon="8.740776231151077"><ele>168.0</ele><time>2026-05-03T08:21:30.998Z</time></trkpt><trkpt lat="39.70888672104334" lon="8.740915526562643"><ele>168.0</ele><time>2026-05-03T08:21:32.998Z</time></trkpt><trkpt lat="39.7088776912054" lon="8.740999405147187"><ele>168.0</ele><time>2026-05-03T08:21:33.998Z</time></trkpt><trkpt lat="39.708859300017" lon="8.741094779735516"><ele>168.0</ele><time>2026-05-03T08:21:34.998Z</time></trkpt><trkpt lat="39.70882932212839" lon="8.741213316288267"><ele>168.0</ele><time>2026-05-03T08:21:35.998Z</time></trkpt><trkpt lat="39.70880285772676" lon="8.741339760382894"><ele>167.2</ele><time>2026-05-03T08:21:36.998Z</time></trkpt><trkpt lat="39.70875448578373" lon="8.741476119299351"><ele>166.4</ele><time>2026-05-03T08:21:38.998Z</time></trkpt><trkpt lat="39.70866001412779" lon="8.741522699347344"><ele>165.6</ele><time>2026-05-03T08:21:40.998Z</time></trkpt><trkpt lat="39.70857916667324" lon="8.741454913667038"><ele>164.79999999999998</ele><time>2026-05-03T08:21:43Z</time></trkpt><trkpt lat="39.708535942493626" lon="8.741379833226242"><ele>164.0</ele><time>2026-05-03T08:21:44Z</time></trkpt><trkpt lat="39.70847611672425" lon="8.741284519980102"><ele>164.0</ele><time>2026-05-03T08:21:45Z</time></trkpt><trkpt lat="39.70841510680113" lon="8.741189991091005"><ele>164.0</ele><time>2026-05-03T08:21:46Z</time></trkpt><trkpt lat="39.708370589992235" lon="8.741118945387173"><ele>164.0</ele><time>2026-05-03T08:21:47Z</time></trkpt><trkpt lat="39.708319018746764" lon="8.741036207962399"><ele>164.0</ele><time>2026-05-03T08:21:49Z</time></trkpt><trkpt lat="39.708267903444515" lon="8.740939355258945"><ele>164.0</ele><time>2026-05-03T08:21:51Z</time></trkpt><trkpt lat="39.70817868730251" lon="8.74080722139941"><ele>161.16666666666666</ele><time>2026-05-03T08:21:53Z</time></trkpt><trkpt lat="39.70813009995209" lon="8.740725509383406"><ele>158.33333333333331</ele><time>2026-05-03T08:21:54Z</time></trkpt><trkpt lat="39.708081692760985" lon="8.740644322328883"><ele>155.5</ele><time>2026-05-03T08:21:55Z</time></trkpt><trkpt lat="39.708036600033374" lon="8.740563418001358"><ele>152.66666666666666</ele><time>2026-05-03T08:21:56Z</time></trkpt><trkpt lat="39.70799032761737" lon="8.740484101584766"><ele>149.83333333333334</ele><time>2026-05-03T08:21:57Z</time></trkpt><trkpt lat="39.70794219879087" lon="8.740397307595408"><ele>147.0</ele><time>2026-05-03T08:21:58Z</time></trkpt><trkpt lat="39.70788376016832" lon="8.740320518143406"><ele>147.0</ele><time>2026-05-03T08:21:59Z</time></trkpt><trkpt lat="39.707834508383314" lon="8.740252008873513"><ele>147.0</ele><time>2026-05-03T08:22:00Z</time></trkpt><trkpt lat="39.70779580364298" lon="8.740182772584852"><ele>147.0</ele><time>2026-05-03T08:22:01Z</time></trkpt><trkpt lat="39.70776056879356" lon="8.740100498954112"><ele>147.0</ele><time>2026-05-03T08:22:02Z</time></trkpt><trkpt lat="39.7077213149849" lon="8.740025159555149"><ele>147.0</ele><time>2026-05-03T08:22:03Z</time></trkpt><trkpt lat="39.70768215749705" lon="8.739948080670016"><ele>147.0</ele><time>2026-05-03T08:22:04Z</time></trkpt><trkpt lat="39.7076456556176" lon="8.73987650587606"><ele>147.0</ele><time>2026-05-03T08:22:05Z</time></trkpt><trkpt lat="39.70760905318231" lon="8.73980518500981"><ele>143.33333333333334</ele><time>2026-05-03T08:22:06Z</time></trkpt><trkpt lat="39.707564889634135" lon="8.739731800564346"><ele>139.66666666666666</ele><time>2026-05-03T08:22:07Z</time></trkpt><trkpt lat="39.707509529325705" lon="8.739658100039012"><ele>136.0</ele><time>2026-05-03T08:22:08Z</time></trkpt><trkpt lat="39.707442859957155" lon="8.73959921228514"><ele>132.33333333333331</ele><time>2026-05-03T08:22:09Z</time></trkpt><trkpt lat="39.70736750038822" lon="8.739556447899043"><ele>128.66666666666666</ele><time>2026-05-03T08:22:10Z</time></trkpt><trkpt lat="39.707285111952324" lon="8.739529050197271"><ele>125.0</ele><time>2026-05-03T08:22:11Z</time></trkpt><trkpt lat="39.70720540697357" lon="8.739503659812"><ele>125.0</ele><time>2026-05-03T08:22:12Z</time></trkpt><trkpt lat="39.707124081132335" lon="8.739466114822289"><ele>125.0</ele><time>2026-05-03T08:22:13Z</time></trkpt><trkpt lat="39.70704847265073" lon="8.739417706410743"><ele>125.0</ele><time>2026-05-03T08:22:14Z</time></trkpt><trkpt lat="39.70696852259526" lon="8.739345086127155"><ele>125.0</ele><time>2026-05-03T08:22:15Z</time></trkpt><trkpt lat="39.70688457929634" lon="8.739267920180234"><ele>125.0</ele><time>2026-05-03T08:22:16Z</time></trkpt><trkpt lat="39.706790102293176" lon="8.739207126371406"><ele>121.4</ele><time>2026-05-03T08:22:17Z</time></trkpt><trkpt lat="39.70669931634942" lon="8.739155034821383"><ele>117.8</ele><time>2026-05-03T08:22:18Z</time></trkpt><trkpt lat="39.706618120235795" lon="8.739105564760994"><ele>114.19999999999999</ele><time>2026-05-03T08:22:19Z</time></trkpt><trkpt lat="39.706541901723135" lon="8.739053679891871"><ele>110.6</ele><time>2026-05-03T08:22:20Z</time></trkpt><trkpt lat="39.70646739578482" lon="8.73899439700616"><ele>107.0</ele><time>2026-05-03T08:22:21Z</time></trkpt><trkpt lat="39.70639217197956" lon="8.738929735828467"><ele>107.0</ele><time>2026-05-03T08:22:22Z</time></trkpt><trkpt lat="39.70630494478365" lon="8.738852209402847"><ele>106.99999999999999</ele><time>2026-05-03T08:22:23Z</time></trkpt><trkpt lat="39.70621960103167" lon="8.738765988839623"><ele>106.99999999999999</ele><time>2026-05-03T08:22:23.999Z</time></trkpt><trkpt lat="39.70613470803819" lon="8.73866778499469"><ele>107.0</ele><time>2026-05-03T08:22:24.999Z</time></trkpt><trkpt lat="39.70605062135074" lon="8.738575470796924"><ele>107.0</ele><time>2026-05-03T08:22:25.999Z</time></trkpt><trkpt lat="39.70596687117207" lon="8.738494685517505"><ele>104.6</ele><time>2026-05-03T08:22:26.999Z</time></trkpt><trkpt lat="39.70588662347376" lon="8.738430360766325"><ele>102.19999999999999</ele><time>2026-05-03T08:22:27.999Z</time></trkpt><trkpt lat="39.705793880616255" lon="8.738373278202504"><ele>99.8</ele><time>2026-05-03T08:22:28.999Z</time></trkpt><trkpt lat="39.705717940848416" lon="8.73831426214656"><ele>97.4</ele><time>2026-05-03T08:22:29.999Z</time></trkpt><trkpt lat="39.7056544563955" lon="8.738267575408619"><ele>95.0</ele><time>2026-05-03T08:22:30.999Z</time></trkpt><trkpt lat="39.705647724359565" lon="8.738052212517998"><ele>95.0</ele><time>2026-05-03T08:22:31.999Z</time></trkpt><trkpt lat="39.70558656213172" lon="8.738023902762478"><ele>95.0</ele><time>2026-05-03T08:22:32.999Z</time></trkpt><trkpt lat="39.70551671148561" lon="8.737994836124752"><ele>95.0</ele><time>2026-05-03T08:22:33.999Z</time></trkpt><trkpt lat="39.70545557373936" lon="8.737970299175975"><ele>95.0</ele><time>2026-05-03T08:22:34.999Z</time></trkpt><trkpt lat="39.705380163939054" lon="8.7379705273299"><ele>95.0</ele><time>2026-05-03T08:22:35.999Z</time></trkpt><trkpt lat="39.70529289845755" lon="8.737985490031578"><ele>95.0</ele><time>2026-05-03T08:22:36.999Z</time></trkpt><trkpt lat="39.70518274188865" lon="8.737962644483824"><ele>94.25</ele><time>2026-05-03T08:22:37.999Z</time></trkpt><trkpt lat="39.70505468118609" lon="8.737944027533182"><ele>93.5</ele><time>2026-05-03T08:22:38.999Z</time></trkpt><trkpt lat="39.704921171889154" lon="8.737892360116895"><ele>92.75</ele><time>2026-05-03T08:22:39.999Z</time></trkpt><trkpt lat="39.70477184984108" lon="8.73786756990585"><ele>92.0</ele><time>2026-05-03T08:22:40.999Z</time></trkpt><trkpt lat="39.70462720710369" lon="8.737865929100103"><ele>92.0</ele><time>2026-05-03T08:22:41.999Z</time></trkpt><trkpt lat="39.704493817983526" lon="8.73786508206294"><ele>92.0</ele><time>2026-05-03T08:22:42.999Z</time></trkpt><trkpt lat="39.70436408814254" lon="8.737881764276413"><ele>92.0</ele><time>2026-05-03T08:22:43.999Z</time></trkpt><trkpt lat="39.70424159501983" lon="8.737890687720341"><ele>92.0</ele><time>2026-05-03T08:22:44.999Z</time></trkpt><trkpt lat="39.704136204377946" lon="8.737892188433717"><ele>90.8</ele><time>2026-05-03T08:22:45.999Z</time></trkpt><trkpt lat="39.70406338938997" lon="8.737885787417166"><ele>89.6</ele><time>2026-05-03T08:22:46.999Z</time></trkpt><trkpt lat="39.70396206603469" lon="8.73787158258602"><ele>88.39999999999999</ele><time>2026-05-03T08:22:48.999Z</time></trkpt><trkpt lat="39.703872542609886" lon="8.737921791287636"><ele>87.19999999999999</ele><time>2026-05-03T08:22:49.999Z</time></trkpt><trkpt lat="39.70377035994724" lon="8.73800235606742"><ele>86.0</ele><time>2026-05-03T08:22:50.999Z</time></trkpt><trkpt lat="39.70364717950255" lon="8.738094778463122"><ele>83.66666666666667</ele><time>2026-05-03T08:22:51.999Z</time></trkpt><trkpt lat="39.70350700627881" lon="8.738205032435204"><ele>81.33333333333333</ele><time>2026-05-03T08:22:52.999Z</time></trkpt><trkpt lat="39.703354736848766" lon="8.738331493993512"><ele>79.0</ele><time>2026-05-03T08:22:53.999Z</time></trkpt><trkpt lat="39.70319457676143" lon="8.738468750096851"><ele>82.0</ele><time>2026-05-03T08:22:54.999Z</time></trkpt><trkpt lat="39.70302959811503" lon="8.738610135673401"><ele>85.0</ele><time>2026-05-03T08:22:55.999Z</time></trkpt><trkpt lat="39.70286825958835" lon="8.738748522497241"><ele>88.0</ele><time>2026-05-03T08:22:56.999Z</time></trkpt><trkpt lat="39.70269966435243" lon="8.738893167915538"><ele>88.0</ele><time>2026-05-03T08:22:57.999Z</time></trkpt><trkpt lat="39.70253537533711" lon="8.739035887910946"><ele>88.0</ele><time>2026-05-03T08:22:58.999Z</time></trkpt><trkpt lat="39.702391351991196" lon="8.739168169002618"><ele>88.0</ele><time>2026-05-03T08:22:59.999Z</time></trkpt><trkpt lat="39.70226620153457" lon="8.73929192587164"><ele>89.66666666666666</ele><time>2026-05-03T08:23:00.999Z</time></trkpt><trkpt lat="39.70214114070699" lon="8.739413756920511"><ele>91.33333333333333</ele><time>2026-05-03T08:23:01.999Z</time></trkpt><trkpt lat="39.702012867184635" lon="8.73952973797391"><ele>93.0</ele><time>2026-05-03T08:23:02.999Z</time></trkpt><trkpt lat="39.701880025867766" lon="8.739644491595143"><ele>93.0</ele><time>2026-05-03T08:23:03.999Z</time></trkpt><trkpt lat="39.70175013380161" lon="8.739752317939212"><ele>93.0</ele><time>2026-05-03T08:23:04.999Z</time></trkpt><trkpt lat="39.70161706943425" lon="8.73986033803793"><ele>93.0</ele><time>2026-05-03T08:23:05.999Z</time></trkpt><trkpt lat="39.70147655602846" lon="8.739969939229887"><ele>93.0</ele><time>2026-05-03T08:23:06.999Z</time></trkpt><trkpt lat="39.70133023266587" lon="8.740065965232187"><ele>93.0</ele><time>2026-05-03T08:23:07.999Z</time></trkpt><trkpt lat="39.70118265137976" lon="8.740151963636803"><ele>93.0</ele><time>2026-05-03T08:23:08.999Z</time></trkpt><trkpt lat="39.70104330085858" lon="8.740230430956009"><ele>92.80000000000001</ele><time>2026-05-03T08:23:09.999Z</time></trkpt><trkpt lat="39.70091639476502" lon="8.740298014357405"><ele>92.6</ele><time>2026-05-03T08:23:10.999Z</time></trkpt><trkpt lat="39.70080029338129" lon="8.740351431923264"><ele>92.4</ele><time>2026-05-03T08:23:11.999Z</time></trkpt><trkpt lat="39.7007052267747" lon="8.740387698236663"><ele>92.19999999999999</ele><time>2026-05-03T08:23:12.999Z</time></trkpt><trkpt lat="39.70063710005074" lon="8.74040638746877"><ele>92.0</ele><time>2026-05-03T08:23:13.999Z</time></trkpt><trkpt lat="39.70059148506321" lon="8.740298596836928"><ele>91.25</ele><time>2026-05-03T08:23:16.999Z</time></trkpt><trkpt lat="39.70056818818059" lon="8.740167665799227"><ele>90.5</ele><time>2026-05-03T08:23:17.999Z</time></trkpt><trkpt lat="39.70052504248434" lon="8.739990706118604"><ele>89.75</ele><time>2026-05-03T08:23:18.999Z</time></trkpt><trkpt lat="39.70049207835612" lon="8.739785183776469"><ele>89.0</ele><time>2026-05-03T08:23:19.999Z</time></trkpt><trkpt lat="39.700449481784354" lon="8.739559151825045"><ele>87.66666666666667</ele><time>2026-05-03T08:23:20.999Z</time></trkpt><trkpt lat="39.700404203262764" lon="8.73930351805863"><ele>86.33333333333333</ele><time>2026-05-03T08:23:21.999Z</time></trkpt><trkpt lat="39.70036083883773" lon="8.739032594278129"><ele>85.0</ele><time>2026-05-03T08:23:22.999Z</time></trkpt><trkpt lat="39.70031468582058" lon="8.73875308346991"><ele>83.5</ele><time>2026-05-03T08:23:23.999Z</time></trkpt><trkpt lat="39.70025821948041" lon="8.738455289449567"><ele>82.0</ele><time>2026-05-03T08:23:24.999Z</time></trkpt><trkpt lat="39.70019770796101" lon="8.738147772772875"><ele>81.5</ele><time>2026-05-03T08:23:25.999Z</time></trkpt><trkpt lat="39.70014050780932" lon="8.737839063617038"><ele>81.0</ele><time>2026-05-03T08:23:26.999Z</time></trkpt><trkpt lat="39.70008507396046" lon="8.737526746947431"><ele>79.0</ele><time>2026-05-03T08:23:27.998Z</time></trkpt><trkpt lat="39.7000300946744" lon="8.737212532539598"><ele>77.0</ele><time>2026-05-03T08:23:28.998Z</time></trkpt><trkpt lat="39.699975679442026" lon="8.736904177524666"><ele>75.5</ele><time>2026-05-03T08:23:29.998Z</time></trkpt><trkpt lat="39.69992138294518" lon="8.736590385503842"><ele>74.0</ele><time>2026-05-03T08:23:30.998Z</time></trkpt><trkpt lat="39.699865186328886" lon="8.736275168992366"><ele>72.5</ele><time>2026-05-03T08:23:31.998Z</time></trkpt><trkpt lat="39.69980755449536" lon="8.735959423707659"><ele>71.0</ele><time>2026-05-03T08:23:32.998Z</time></trkpt><trkpt lat="39.699750357067906" lon="8.735644494350979"><ele>71.0</ele><time>2026-05-03T08:23:33.998Z</time></trkpt><trkpt lat="39.69969385507853" lon="8.735330307599924"><ele>71.0</ele><time>2026-05-03T08:23:34.998Z</time></trkpt><trkpt lat="39.69963887780001" lon="8.735012584073429"><ele>70.0</ele><time>2026-05-03T08:23:35.998Z</time></trkpt><trkpt lat="39.69958327158504" lon="8.734699277069678"><ele>69.0</ele><time>2026-05-03T08:23:36.998Z</time></trkpt><trkpt lat="39.6995293680972" lon="8.734383448858777"><ele>67.0</ele><time>2026-05-03T08:23:37.998Z</time></trkpt><trkpt lat="39.69946947286682" lon="8.734070463323501"><ele>65.0</ele><time>2026-05-03T08:23:38.998Z</time></trkpt><trkpt lat="39.69940855687471" lon="8.733740306620652"><ele>64.0</ele><time>2026-05-03T08:23:39.998Z</time></trkpt><trkpt lat="39.6993413571818" lon="8.73337499793514"><ele>63.0</ele><time>2026-05-03T08:23:40.998Z</time></trkpt><trkpt lat="39.69926916984443" lon="8.73298856140286"><ele>61.0</ele><time>2026-05-03T08:23:41.998Z</time></trkpt><trkpt lat="39.699194962514014" lon="8.732583303438275"><ele>59.0</ele><time>2026-05-03T08:23:42.998Z</time></trkpt><trkpt lat="39.69911744941315" lon="8.732170664918742"><ele>58.0</ele><time>2026-05-03T08:23:43.998Z</time></trkpt><trkpt lat="39.69904142318516" lon="8.731748987607089"><ele>57.0</ele><time>2026-05-03T08:23:44.998Z</time></trkpt><trkpt lat="39.69896461209135" lon="8.731331853233579"><ele>56.5</ele><time>2026-05-03T08:23:45.998Z</time></trkpt><trkpt lat="39.69888966645999" lon="8.730915240670186"><ele>56.0</ele><time>2026-05-03T08:23:46.998Z</time></trkpt><trkpt lat="39.69881382945903" lon="8.730504402764828"><ele>54.0</ele><time>2026-05-03T08:23:48Z</time></trkpt><trkpt lat="39.69873905220847" lon="8.73009354904712"><ele>52.0</ele><time>2026-05-03T08:23:49Z</time></trkpt><trkpt lat="39.6986657817299" lon="8.72969462731461"><ele>52.0</ele><time>2026-05-03T08:23:50Z</time></trkpt><trkpt lat="39.69859497695181" lon="8.729299502487654"><ele>52.0</ele><time>2026-05-03T08:23:51Z</time></trkpt><trkpt lat="39.6985232011699" lon="8.728898692579754"><ele>50.5</ele><time>2026-05-03T08:23:52Z</time></trkpt><trkpt lat="39.69844552750132" lon="8.728489564189081"><ele>49.0</ele><time>2026-05-03T08:23:53Z</time></trkpt><trkpt lat="39.69836710674328" lon="8.728062003978547"><ele>48.5</ele><time>2026-05-03T08:23:54Z</time></trkpt><trkpt lat="39.698289698633445" lon="8.727622032802197"><ele>48.0</ele><time>2026-05-03T08:23:55Z</time></trkpt><trkpt lat="39.69820946049644" lon="8.727181738091987"><ele>47.5</ele><time>2026-05-03T08:23:56Z</time></trkpt><trkpt lat="39.69812627204372" lon="8.726738292854773"><ele>47.0</ele><time>2026-05-03T08:23:57Z</time></trkpt><trkpt lat="39.6980467465078" lon="8.726297226666611"><ele>46.5</ele><time>2026-05-03T08:23:58Z</time></trkpt><trkpt lat="39.69796874662095" lon="8.725878374590328"><ele>46.0</ele><time>2026-05-03T08:23:59Z</time></trkpt><trkpt lat="39.6978951007037" lon="8.7254780616682"><ele>45.0</ele><time>2026-05-03T08:24:00Z</time></trkpt><trkpt lat="39.69782366158016" lon="8.72509157929855"><ele>44.0</ele><time>2026-05-03T08:24:01Z</time></trkpt><trkpt lat="39.69775753242525" lon="8.724728806910008"><ele>44.0</ele><time>2026-05-03T08:24:02Z</time></trkpt><trkpt lat="39.69769608564195" lon="8.724386357246418"><ele>44.0</ele><time>2026-05-03T08:24:03Z</time></trkpt><trkpt lat="39.69763474849866" lon="8.72405873237586"><ele>44.0</ele><time>2026-05-03T08:24:04Z</time></trkpt><trkpt lat="39.69757801566629" lon="8.72374378024302"><ele>44.0</ele><time>2026-05-03T08:24:05Z</time></trkpt><trkpt lat="39.69752358066313" lon="8.723437941636568"><ele>43.0</ele><time>2026-05-03T08:24:06Z</time></trkpt><trkpt lat="39.69746855912296" lon="8.72314728913131"><ele>42.0</ele><time>2026-05-03T08:24:07Z</time></trkpt><trkpt lat="39.69741389880777" lon="8.722864859134676"><ele>42.333333333333336</ele><time>2026-05-03T08:24:08Z</time></trkpt><trkpt lat="39.69736327366439" lon="8.72258596173669"><ele>42.66666666666667</ele><time>2026-05-03T08:24:09Z</time></trkpt><trkpt lat="39.69732108747875" lon="8.72233506980366"><ele>43.0</ele><time>2026-05-03T08:24:10Z</time></trkpt><trkpt lat="39.69729119916512" lon="8.722150340312176"><ele>43.0</ele><time>2026-05-03T08:24:11Z</time></trkpt><trkpt lat="39.697268971120295" lon="8.722020951061717"><ele>43.0</ele><time>2026-05-03T08:24:12Z</time></trkpt><trkpt lat="39.697254176145165" lon="8.721916920514476"><ele>43.0</ele><time>2026-05-03T08:24:13Z</time></trkpt><trkpt lat="39.69723216229091" lon="8.721805162458368"><ele>43.0</ele><time>2026-05-03T08:24:15Z</time></trkpt><trkpt lat="39.69721914564969" lon="8.721723898533646"><ele>43.0</ele><time>2026-05-03T08:24:18Z</time></trkpt><trkpt lat="39.69716719273687" lon="8.72181792783856"><ele>43.0</ele><time>2026-05-03T08:24:22Z</time></trkpt><trkpt lat="39.69721480387259" lon="8.721941286534665"><ele>43.0</ele><time>2026-05-03T08:24:23Z</time></trkpt><trkpt lat="39.697244815838275" lon="8.722074719165114"><ele>43.0</ele><time>2026-05-03T08:24:24Z</time></trkpt><trkpt lat="39.69727843828634" lon="8.722242861354173"><ele>43.0</ele><time>2026-05-03T08:24:24.999Z</time></trkpt><trkpt lat="39.697311270100734" lon="8.722434372294602"><ele>43.0</ele><time>2026-05-03T08:24:25.999Z</time></trkpt><trkpt lat="39.69734545487882" lon="8.72264028411213"><ele>43.0</ele><time>2026-05-03T08:24:26.999Z</time></trkpt><trkpt lat="39.69737442825694" lon="8.722800299732677"><ele>43.0</ele><time>2026-05-03T08:24:27.999Z</time></trkpt><trkpt lat="39.69739864402721" lon="8.722902095572035"><ele>43.0</ele><time>2026-05-03T08:24:28.999Z</time></trkpt><trkpt lat="39.69747169452599" lon="8.722943200837408"><ele>43.0</ele><time>2026-05-03T08:24:30.999Z</time></trkpt><trkpt lat="39.69758858567053" lon="8.722820520012876"><ele>43.0</ele><time>2026-05-03T08:24:32.999Z</time></trkpt><trkpt lat="39.6976563009952" lon="8.722685670703477"><ele>43.0</ele><time>2026-05-03T08:24:33.999Z</time></trkpt><trkpt lat="39.697748934262165" lon="8.722543682072779"><ele>43.0</ele><time>2026-05-03T08:24:34.999Z</time></trkpt><trkpt lat="39.697857795414144" lon="8.72238560002208"><ele>43.0</ele><time>2026-05-03T08:24:35.999Z</time></trkpt><trkpt lat="39.69796865557584" lon="8.722247267418263"><ele>42.75</ele><time>2026-05-03T08:24:36.999Z</time></trkpt><trkpt lat="39.69807936501984" lon="8.722144052169218"><ele>42.5</ele><time>2026-05-03T08:24:37.999Z</time></trkpt><trkpt lat="39.69820030755933" lon="8.722066630782486"><ele>42.25</ele><time>2026-05-03T08:24:38.999Z</time></trkpt><trkpt lat="39.69831805326973" lon="8.722030216382404"><ele>42.0</ele><time>2026-05-03T08:24:39.999Z</time></trkpt><trkpt lat="39.698432537393806" lon="8.722036114263531"><ele>42.0</ele><time>2026-05-03T08:24:40.999Z</time></trkpt><trkpt lat="39.69854708047149" lon="8.722073800271751"><ele>42.0</ele><time>2026-05-03T08:24:41.999Z</time></trkpt><trkpt lat="39.69865796956786" lon="8.722137889471345"><ele>42.0</ele><time>2026-05-03T08:24:42.999Z</time></trkpt><trkpt lat="39.69876351561845" lon="8.722233029328894"><ele>42.0</ele><time>2026-05-03T08:24:43.999Z</time></trkpt><trkpt lat="39.69886997425846" lon="8.72235706331592"><ele>42.0</ele><time>2026-05-03T08:24:44.999Z</time></trkpt><trkpt lat="39.69898685937139" lon="8.722499830613865"><ele>42.0</ele><time>2026-05-03T08:24:45.999Z</time></trkpt><trkpt lat="39.69910987784748" lon="8.72264498182272"><ele>42.0</ele><time>2026-05-03T08:24:46.999Z</time></trkpt><trkpt lat="39.699233893223116" lon="8.722792810031518"><ele>42.666666666666664</ele><time>2026-05-03T08:24:47.999Z</time></trkpt><trkpt lat="39.69936697774972" lon="8.722950477104016"><ele>43.33333333333333</ele><time>2026-05-03T08:24:48.999Z</time></trkpt><trkpt lat="39.69950583750959" lon="8.723113030646575"><ele>44.0</ele><time>2026-05-03T08:24:49.999Z</time></trkpt><trkpt lat="39.69965281709837" lon="8.723284665497182"><ele>44.33333333333333</ele><time>2026-05-03T08:24:50.999Z</time></trkpt><trkpt lat="39.6998073351254" lon="8.723467248135394"><ele>44.666666666666664</ele><time>2026-05-03T08:24:51.999Z</time></trkpt><trkpt lat="39.699980750756744" lon="8.72366676991627"><ele>45.0</ele><time>2026-05-03T08:24:52.999Z</time></trkpt><trkpt lat="39.70016598937879" lon="8.72388219267633"><ele>47.0</ele><time>2026-05-03T08:24:53.999Z</time></trkpt><trkpt lat="39.700349610976794" lon="8.724100299851354"><ele>49.0</ele><time>2026-05-03T08:24:54.999Z</time></trkpt><trkpt lat="39.70054906783964" lon="8.724334857935578"><ele>49.0</ele><time>2026-05-03T08:24:55.999Z</time></trkpt><trkpt lat="39.70074478066234" lon="8.724559839627327"><ele>49.0</ele><time>2026-05-03T08:24:56.999Z</time></trkpt><trkpt lat="39.70091111535678" lon="8.724761425656482"><ele>49.0</ele><time>2026-05-03T08:24:57.999Z</time></trkpt><trkpt lat="39.70108076082882" lon="8.724965399186667"><ele>49.0</ele><time>2026-05-03T08:24:58.999Z</time></trkpt><trkpt lat="39.701261843389254" lon="8.725177080293953"><ele>51.0</ele><time>2026-05-03T08:24:59.999Z</time></trkpt><trkpt lat="39.701457205163685" lon="8.725400474568271"><ele>53.0</ele><time>2026-05-03T08:25:00.999Z</time></trkpt><trkpt lat="39.70165838426753" lon="8.72563578236488"><ele>53.0</ele><time>2026-05-03T08:25:01.999Z</time></trkpt><trkpt lat="39.70185997437969" lon="8.725873270833008"><ele>53.0</ele><time>2026-05-03T08:25:02.999Z</time></trkpt><trkpt lat="39.70206321057151" lon="8.726112340652474"><ele>54.0</ele><time>2026-05-03T08:25:03.999Z</time></trkpt><trkpt lat="39.70226910330506" lon="8.726358242837643"><ele>55.0</ele><time>2026-05-03T08:25:04.999Z</time></trkpt><trkpt lat="39.70248987732102" lon="8.726615253821757"><ele>55.0</ele><time>2026-05-03T08:25:05.999Z</time></trkpt><trkpt lat="39.70270480754615" lon="8.726862207463963"><ele>55.0</ele><time>2026-05-03T08:25:06.999Z</time></trkpt><trkpt lat="39.70289847402376" lon="8.727087007477044"><ele>56.0</ele><time>2026-05-03T08:25:07.999Z</time></trkpt><trkpt lat="39.70307192337765" lon="8.727294764538106"><ele>57.0</ele><time>2026-05-03T08:25:08.999Z</time></trkpt><trkpt lat="39.70324214114959" lon="8.727494933803014"><ele>57.0</ele><time>2026-05-03T08:25:09.999Z</time></trkpt><trkpt lat="39.70339641594957" lon="8.727673941039793"><ele>57.0</ele><time>2026-05-03T08:25:10.999Z</time></trkpt><trkpt lat="39.70351682314534" lon="8.727817917533805"><ele>57.0</ele><time>2026-05-03T08:25:11.999Z</time></trkpt><trkpt lat="39.703611486424215" lon="8.727935546725691"><ele>57.666666666666664</ele><time>2026-05-03T08:25:12.999Z</time></trkpt><trkpt lat="39.70368185974366" lon="8.728027443054923"><ele>58.33333333333333</ele><time>2026-05-03T08:25:13.999Z</time></trkpt><trkpt lat="39.703736860361474" lon="8.728093165222187"><ele>59.0</ele><time>2026-05-03T08:25:14.999Z</time></trkpt><trkpt lat="39.70379815364661" lon="8.728134601785191"><ele>59.666666666666664</ele><time>2026-05-03T08:25:15.999Z</time></trkpt><trkpt lat="39.70390472081263" lon="8.728085815969411"><ele>60.33333333333333</ele><time>2026-05-03T08:25:17.999Z</time></trkpt><trkpt lat="39.703936867940165" lon="8.728014267749101"><ele>61.0</ele><time>2026-05-03T08:25:18.999Z</time></trkpt><trkpt lat="39.703947122001395" lon="8.727915505835913"><ele>61.0</ele><time>2026-05-03T08:25:19.999Z</time></trkpt><trkpt lat="39.70395932449878" lon="8.727791978884648"><ele>61.0</ele><time>2026-05-03T08:25:20.999Z</time></trkpt><trkpt lat="39.70398720467833" lon="8.727652833481354"><ele>61.0</ele><time>2026-05-03T08:25:21.999Z</time></trkpt><trkpt lat="39.70402098902555" lon="8.727497613260233"><ele>61.0</ele><time>2026-05-03T08:25:22.999Z</time></trkpt><trkpt lat="39.70404143855165" lon="8.727318657219097"><ele>60.666666666666664</ele><time>2026-05-03T08:25:23.999Z</time></trkpt><trkpt lat="39.70404297447452" lon="8.727127142943434"><ele>60.33333333333333</ele><time>2026-05-03T08:25:24.999Z</time></trkpt><trkpt lat="39.704047268649525" lon="8.726921629874735"><ele>60.0</ele><time>2026-05-03T08:25:25.999Z</time></trkpt><trkpt lat="39.704079010161955" lon="8.726715469111374"><ele>60.0</ele><time>2026-05-03T08:25:26.999Z</time></trkpt><trkpt lat="39.70413049218763" lon="8.726534736147366"><ele>60.0</ele><time>2026-05-03T08:25:27.999Z</time></trkpt><trkpt lat="39.70420299682816" lon="8.72637235759204"><ele>60.0</ele><time>2026-05-03T08:25:28.998Z</time></trkpt><trkpt lat="39.704297584034286" lon="8.72622301968242"><ele>60.0</ele><time>2026-05-03T08:25:29.998Z</time></trkpt><trkpt lat="39.70440374955118" lon="8.72607287306659"><ele>59.8</ele><time>2026-05-03T08:25:30.998Z</time></trkpt><trkpt lat="39.70449323188772" lon="8.725935569714753"><ele>59.6</ele><time>2026-05-03T08:25:31.998Z</time></trkpt><trkpt lat="39.704568162944064" lon="8.725816275571791"><ele>59.400000000000006</ele><time>2026-05-03T08:25:32.998Z</time></trkpt><trkpt lat="39.70461678921794" lon="8.725717418339556"><ele>59.2</ele><time>2026-05-03T08:25:33.998Z</time></trkpt><trkpt lat="39.704639889730466" lon="8.725607159775906"><ele>59.0</ele><time>2026-05-03T08:25:34.998Z</time></trkpt><trkpt lat="39.70464399491687" lon="8.725469320140586"><ele>59.0</ele><time>2026-05-03T08:25:35.998Z</time></trkpt><trkpt lat="39.70463051906415" lon="8.725287660810203"><ele>59.0</ele><time>2026-05-03T08:25:36.998Z</time></trkpt><trkpt lat="39.704625342220645" lon="8.725083074420311"><ele>59.0</ele><time>2026-05-03T08:25:37.998Z</time></trkpt><trkpt lat="39.70462847468945" lon="8.724862931828008"><ele>59.0</ele><time>2026-05-03T08:25:38.998Z</time></trkpt><trkpt lat="39.70463911732537" lon="8.724656787413684"><ele>59.0</ele><time>2026-05-03T08:25:39.998Z</time></trkpt><trkpt lat="39.70466342332475" lon="8.724470144391178"><ele>59.0</ele><time>2026-05-03T08:25:40.998Z</time></trkpt><trkpt lat="39.70470276796006" lon="8.724282883552092"><ele>58.5</ele><time>2026-05-03T08:25:41.998Z</time></trkpt><trkpt lat="39.704757193730686" lon="8.724109743331896"><ele>58.0</ele><time>2026-05-03T08:25:42.998Z</time></trkpt><trkpt lat="39.70482484747295" lon="8.723952852680824"><ele>57.5</ele><time>2026-05-03T08:25:43.998Z</time></trkpt><trkpt lat="39.70490841595399" lon="8.723802049899634"><ele>57.0</ele><time>2026-05-03T08:25:44.998Z</time></trkpt><trkpt lat="39.70501226500137" lon="8.723646164639513"><ele>57.0</ele><time>2026-05-03T08:25:45.998Z</time></trkpt><trkpt lat="39.70512509413204" lon="8.723500282363291"><ele>57.0</ele><time>2026-05-03T08:25:46.998Z</time></trkpt><trkpt lat="39.70521450842613" lon="8.723371517736428"><ele>57.0</ele><time>2026-05-03T08:25:47.998Z</time></trkpt><trkpt lat="39.70527550988694" lon="8.723244578820903"><ele>57.0</ele><time>2026-05-03T08:25:48.998Z</time></trkpt><trkpt lat="39.70528559494965" lon="8.723089179914549"><ele>57.0</ele><time>2026-05-03T08:25:49.998Z</time></trkpt><trkpt lat="39.70530725761613" lon="8.722895202466688"><ele>57.0</ele><time>2026-05-03T08:25:50.998Z</time></trkpt><trkpt lat="39.70534408837648" lon="8.722659951577283"><ele>57.0</ele><time>2026-05-03T08:25:51.998Z</time></trkpt><trkpt lat="39.70537415591254" lon="8.722413322832862"><ele>56.33333333333333</ele><time>2026-05-03T08:25:53Z</time></trkpt><trkpt lat="39.70540571978812" lon="8.722201531691855"><ele>55.666666666666664</ele><time>2026-05-03T08:25:54Z</time></trkpt><trkpt lat="39.70543695392462" lon="8.722004812654077"><ele>55.0</ele><time>2026-05-03T08:25:55Z</time></trkpt><trkpt lat="39.70548367413848" lon="8.721805555897992"><ele>54.666666666666664</ele><time>2026-05-03T08:25:56Z</time></trkpt><trkpt lat="39.70553866814244" lon="8.721606249150698"><ele>54.33333333333333</ele><time>2026-05-03T08:25:57Z</time></trkpt><trkpt lat="39.70560175915534" lon="8.721424746973204"><ele>54.0</ele><time>2026-05-03T08:25:58Z</time></trkpt><trkpt lat="39.70566272332353" lon="8.721258685505406"><ele>54.0</ele><time>2026-05-03T08:25:59Z</time></trkpt><trkpt lat="39.705741363585496" lon="8.721126421863257"><ele>54.0</ele><time>2026-05-03T08:26:00Z</time></trkpt><trkpt lat="39.70583158418827" lon="8.721026621582762"><ele>54.0</ele><time>2026-05-03T08:26:01Z</time></trkpt><trkpt lat="39.70594455734349" lon="8.720944860861845"><ele>54.0</ele><time>2026-05-03T08:26:02Z</time></trkpt><trkpt lat="39.706092031467215" lon="8.720866514902815"><ele>53.33333333333333</ele><time>2026-05-03T08:26:03Z</time></trkpt><trkpt lat="39.70626256337617" lon="8.720778813447325"><ele>52.666666666666664</ele><time>2026-05-03T08:26:04Z</time></trkpt><trkpt lat="39.70642287885692" lon="8.720688383480322"><ele>52.0</ele><time>2026-05-03T08:26:05Z</time></trkpt><trkpt lat="39.706567053777526" lon="8.720593608056566"><ele>52.0</ele><time>2026-05-03T08:26:06Z</time></trkpt><trkpt lat="39.70669872857976" lon="8.720464183333526"><ele>52.0</ele><time>2026-05-03T08:26:07Z</time></trkpt><trkpt lat="39.70682581557225" lon="8.72028707970255"><ele>52.0</ele><time>2026-05-03T08:26:08Z</time></trkpt><trkpt lat="39.706955800903984" lon="8.720062774770579"><ele>50.5</ele><time>2026-05-03T08:26:09Z</time></trkpt><trkpt lat="39.70709987864513" lon="8.71980714277389"><ele>49.0</ele><time>2026-05-03T08:26:10Z</time></trkpt><trkpt lat="39.70725890118698" lon="8.719542659204258"><ele>48.0</ele><time>2026-05-03T08:26:11Z</time></trkpt><trkpt lat="39.70743250779484" lon="8.71926041328998"><ele>47.0</ele><time>2026-05-03T08:26:12Z</time></trkpt><trkpt lat="39.707600278339086" lon="8.71899273584084"><ele>47.5</ele><time>2026-05-03T08:26:13Z</time></trkpt><trkpt lat="39.70775056736349" lon="8.718748893778931"><ele>48.0</ele><time>2026-05-03T08:26:14Z</time></trkpt><trkpt lat="39.707890685444546" lon="8.718516914130843"><ele>48.0</ele><time>2026-05-03T08:26:15Z</time></trkpt><trkpt lat="39.70802457260185" lon="8.71828100026952"><ele>48.0</ele><time>2026-05-03T08:26:16Z</time></trkpt><trkpt lat="39.70813253761344" lon="8.718015540720012"><ele>48.0</ele><time>2026-05-03T08:26:17Z</time></trkpt><trkpt lat="39.70824188316193" lon="8.71775425729557"><ele>48.0</ele><time>2026-05-03T08:26:18Z</time></trkpt><trkpt lat="39.708349888118505" lon="8.717528111053067"><ele>48.0</ele><time>2026-05-03T08:26:19Z</time></trkpt><trkpt lat="39.708429589117586" lon="8.717316451091296"><ele>48.66666666666667</ele><time>2026-05-03T08:26:20Z</time></trkpt><trkpt lat="39.7085019983075" lon="8.717132703514414"><ele>49.333333333333336</ele><time>2026-05-03T08:26:21Z</time></trkpt><trkpt lat="39.708585661343754" lon="8.716967030698928"><ele>50.0</ele><time>2026-05-03T08:26:22Z</time></trkpt><trkpt lat="39.70869593634965" lon="8.71679628053766"><ele>50.66666666666667</ele><time>2026-05-03T08:26:23Z</time></trkpt><trkpt lat="39.7088276598374" lon="8.716607228757884"><ele>51.33333333333333</ele><time>2026-05-03T08:26:24Z</time></trkpt><trkpt lat="39.70896195243851" lon="8.716408739226974"><ele>52.0</ele><time>2026-05-03T08:26:25Z</time></trkpt><trkpt lat="39.70911199686749" lon="8.716197404606318"><ele>52.666666666666664</ele><time>2026-05-03T08:26:25.999Z</time></trkpt><trkpt lat="39.7092568367115" lon="8.715993320656999"><ele>53.33333333333333</ele><time>2026-05-03T08:26:26.999Z</time></trkpt><trkpt lat="39.709415158038645" lon="8.71578450208559"><ele>54.0</ele><time>2026-05-03T08:26:27.999Z</time></trkpt><trkpt lat="39.709593731478286" lon="8.715565028720114"><ele>55.0</ele><time>2026-05-03T08:26:28.999Z</time></trkpt><trkpt lat="39.70978884102344" lon="8.715327165739604"><ele>56.0</ele><time>2026-05-03T08:26:29.999Z</time></trkpt><trkpt lat="39.70999362819972" lon="8.715072855453021"><ele>56.5</ele><time>2026-05-03T08:26:30.999Z</time></trkpt><trkpt lat="39.71019955166551" lon="8.714818726830389"><ele>57.0</ele><time>2026-05-03T08:26:31.999Z</time></trkpt><trkpt lat="39.71041253098538" lon="8.714551510204732"><ele>57.5</ele><time>2026-05-03T08:26:32.999Z</time></trkpt><trkpt lat="39.71061392669161" lon="8.714303723134634"><ele>58.0</ele><time>2026-05-03T08:26:33.999Z</time></trkpt><trkpt lat="39.71077736422793" lon="8.714103287856291"><ele>58.0</ele><time>2026-05-03T08:26:34.999Z</time></trkpt><trkpt lat="39.71090825467988" lon="8.713934807207176"><ele>58.0</ele><time>2026-05-03T08:26:35.999Z</time></trkpt><trkpt lat="39.71102640777737" lon="8.713779159785457"><ele>58.0</ele><time>2026-05-03T08:26:36.999Z</time></trkpt><trkpt lat="39.71114395408283" lon="8.713622853301622"><ele>58.666666666666664</ele><time>2026-05-03T08:26:37.999Z</time></trkpt><trkpt lat="39.71126929093698" lon="8.713455303865567"><ele>59.33333333333333</ele><time>2026-05-03T08:26:38.999Z</time></trkpt><trkpt lat="39.71140627565333" lon="8.713277684105563"><ele>60.0</ele><time>2026-05-03T08:26:39.999Z</time></trkpt><trkpt lat="39.71154529697874" lon="8.713094307950154"><ele>60.0</ele><time>2026-05-03T08:26:40.999Z</time></trkpt><trkpt lat="39.711670342566535" lon="8.712927934864677"><ele>60.0</ele><time>2026-05-03T08:26:41.999Z</time></trkpt><trkpt lat="39.7117876639546" lon="8.71277113863142"><ele>60.0</ele><time>2026-05-03T08:26:42.999Z</time></trkpt><trkpt lat="39.71191429412219" lon="8.712599504703942"><ele>59.66666666666667</ele><time>2026-05-03T08:26:43.999Z</time></trkpt><trkpt lat="39.71204907075117" lon="8.712422020984437"><ele>59.333333333333336</ele><time>2026-05-03T08:26:44.999Z</time></trkpt><trkpt lat="39.712179994267316" lon="8.71224397279701"><ele>59.0</ele><time>2026-05-03T08:26:45.999Z</time></trkpt><trkpt lat="39.71230020565879" lon="8.712080931112895"><ele>59.0</ele><time>2026-05-03T08:26:46.999Z</time></trkpt><trkpt lat="39.71241572664782" lon="8.711928575235033"><ele>59.0</ele><time>2026-05-03T08:26:47.999Z</time></trkpt><trkpt lat="39.71252761013548" lon="8.71178412491145"><ele>59.0</ele><time>2026-05-03T08:26:48.999Z</time></trkpt><trkpt lat="39.71264481618252" lon="8.711648069494142"><ele>57.333333333333336</ele><time>2026-05-03T08:26:49.999Z</time></trkpt><trkpt lat="39.71276608119236" lon="8.711523983202882"><ele>55.66666666666667</ele><time>2026-05-03T08:26:50.999Z</time></trkpt><trkpt lat="39.71289529451122" lon="8.711401224046913"><ele>54.0</ele><time>2026-05-03T08:26:51.999Z</time></trkpt><trkpt lat="39.71303295045233" lon="8.711271073817365"><ele>54.0</ele><time>2026-05-03T08:26:52.999Z</time></trkpt><trkpt lat="39.71317800306874" lon="8.711135146675266"><ele>54.0</ele><time>2026-05-03T08:26:53.999Z</time></trkpt><trkpt lat="39.71332490766038" lon="8.71099103318132"><ele>54.0</ele><time>2026-05-03T08:26:54.999Z</time></trkpt><trkpt lat="39.713484846325485" lon="8.71083155600953"><ele>52.33333333333333</ele><time>2026-05-03T08:26:55.999Z</time></trkpt><trkpt lat="39.713656988861274" lon="8.710659137102681"><ele>50.666666666666664</ele><time>2026-05-03T08:26:56.999Z</time></trkpt><trkpt lat="39.713831967253" lon="8.710486456615392"><ele>49.0</ele><time>2026-05-03T08:26:57.999Z</time></trkpt><trkpt lat="39.71400724860394" lon="8.710317442218255"><ele>48.0</ele><time>2026-05-03T08:26:58.999Z</time></trkpt><trkpt lat="39.71418294141856" lon="8.710151741630206"><ele>47.0</ele><time>2026-05-03T08:26:59.999Z</time></trkpt><trkpt lat="39.71436204644984" lon="8.7099908870108"><ele>46.0</ele><time>2026-05-03T08:27:00.999Z</time></trkpt><trkpt lat="39.71454432129923" lon="8.709834347714835"><ele>45.66666666666667</ele><time>2026-05-03T08:27:01.999Z</time></trkpt><trkpt lat="39.71473180420908" lon="8.709673412641184"><ele>45.333333333333336</ele><time>2026-05-03T08:27:02.999Z</time></trkpt><trkpt lat="39.71491711987409" lon="8.709508530393034"><ele>45.0</ele><time>2026-05-03T08:27:03.999Z</time></trkpt><trkpt lat="39.715099306704886" lon="8.70934988862281"><ele>44.666666666666664</ele><time>2026-05-03T08:27:04.999Z</time></trkpt><trkpt lat="39.71528808913791" lon="8.709219133407451"><ele>44.33333333333333</ele><time>2026-05-03T08:27:05.999Z</time></trkpt><trkpt lat="39.71546674857573" lon="8.709080667103715"><ele>44.0</ele><time>2026-05-03T08:27:06.999Z</time></trkpt><trkpt lat="39.71562575839476" lon="8.708896416510491"><ele>44.0</ele><time>2026-05-03T08:27:07.999Z</time></trkpt><trkpt lat="39.71579180422283" lon="8.708752278662166"><ele>44.0</ele><time>2026-05-03T08:27:08.999Z</time></trkpt><trkpt lat="39.71595664641953" lon="8.708610901343409"><ele>44.0</ele><time>2026-05-03T08:27:09.999Z</time></trkpt><trkpt lat="39.716120677998994" lon="8.708462863564533"><ele>42.0</ele><time>2026-05-03T08:27:10.999Z</time></trkpt><trkpt lat="39.71627892305601" lon="8.708317921050956"><ele>40.0</ele><time>2026-05-03T08:27:11.999Z</time></trkpt><trkpt lat="39.71644207895753" lon="8.708171327903626"><ele>38.0</ele><time>2026-05-03T08:27:12.999Z</time></trkpt><trkpt lat="39.71660824591703" lon="8.70801953087266"><ele>38.0</ele><time>2026-05-03T08:27:13.999Z</time></trkpt><trkpt lat="39.71678047696864" lon="8.707861923604112"><ele>38.0</ele><time>2026-05-03T08:27:14.999Z</time></trkpt><trkpt lat="39.7169579746873" lon="8.707696315605876"><ele>38.0</ele><time>2026-05-03T08:27:15.999Z</time></trkpt><trkpt lat="39.71714103537367" lon="8.707525890073576"><ele>38.0</ele><time>2026-05-03T08:27:16.999Z</time></trkpt><trkpt lat="39.71732160647445" lon="8.707348766627472"><ele>38.0</ele><time>2026-05-03T08:27:17.999Z</time></trkpt><trkpt lat="39.71750153589134" lon="8.707165665750804"><ele>38.0</ele><time>2026-05-03T08:27:18.999Z</time></trkpt><trkpt lat="39.7176919378415" lon="8.706967797358963"><ele>38.0</ele><time>2026-05-03T08:27:19.999Z</time></trkpt><trkpt lat="39.71788717762097" lon="8.706772170296734"><ele>38.666666666666664</ele><time>2026-05-03T08:27:20.999Z</time></trkpt><trkpt lat="39.71805724175181" lon="8.706605096590605"><ele>39.333333333333336</ele><time>2026-05-03T08:27:21.999Z</time></trkpt><trkpt lat="39.7182087318082" lon="8.706452548233207"><ele>40.0</ele><time>2026-05-03T08:27:22.999Z</time></trkpt><trkpt lat="39.718341398779344" lon="8.706314444699355"><ele>40.0</ele><time>2026-05-03T08:27:23.999Z</time></trkpt><trkpt lat="39.7184459462636" lon="8.706204273870513"><ele>40.0</ele><time>2026-05-03T08:27:24.999Z</time></trkpt><trkpt lat="39.71852167179258" lon="8.706122924091616"><ele>40.0</ele><time>2026-05-03T08:27:25.999Z</time></trkpt><trkpt lat="39.718571618675035" lon="8.706064372744349"><ele>40.0</ele><time>2026-05-03T08:27:26.999Z</time></trkpt><trkpt lat="39.718592777560495" lon="8.705958777352164"><ele>40.0</ele><time>2026-05-03T08:27:28.999Z</time></trkpt><trkpt lat="39.71851494783385" lon="8.705841319702065"><ele>40.0</ele><time>2026-05-03T08:27:30.998Z</time></trkpt><trkpt lat="39.71844570175606" lon="8.705762304434964"><ele>40.0</ele><time>2026-05-03T08:27:32.998Z</time></trkpt><trkpt lat="39.718425578423755" lon="8.705672821483489"><ele>40.0</ele><time>2026-05-03T08:27:34.998Z</time></trkpt><trkpt lat="39.71849483120125" lon="8.705614148787966"><ele>40.0</ele><time>2026-05-03T08:27:36.998Z</time></trkpt><trkpt lat="39.718572637151546" lon="8.705623635573334"><ele>40.0</ele><time>2026-05-03T08:27:37.998Z</time></trkpt><trkpt lat="39.71867219109171" lon="8.70562605511263"><ele>40.0</ele><time>2026-05-03T08:27:38.998Z</time></trkpt><trkpt lat="39.71879155348256" lon="8.705592796303149"><ele>40.0</ele><time>2026-05-03T08:27:39.998Z</time></trkpt><trkpt lat="39.71890185354304" lon="8.705519269133882"><ele>40.0</ele><time>2026-05-03T08:27:40.998Z</time></trkpt><trkpt lat="39.71900299592749" lon="8.705407613697647"><ele>40.0</ele><time>2026-05-03T08:27:41.998Z</time></trkpt><trkpt lat="39.71909059462145" lon="8.705259250849213"><ele>40.0</ele><time>2026-05-03T08:27:42.998Z</time></trkpt><trkpt lat="39.71917061926258" lon="8.705071615339762"><ele>40.0</ele><time>2026-05-03T08:27:43.998Z</time></trkpt><trkpt lat="39.719254339443346" lon="8.704835728767845"><ele>40.0</ele><time>2026-05-03T08:27:44.998Z</time></trkpt><trkpt lat="39.71934943138041" lon="8.704580614614125"><ele>40.0</ele><time>2026-05-03T08:27:45.998Z</time></trkpt><trkpt lat="39.719470870074495" lon="8.704308097262246"><ele>41.0</ele><time>2026-05-03T08:27:46.998Z</time></trkpt><trkpt lat="39.7195857994622" lon="8.704050691689568"><ele>42.0</ele><time>2026-05-03T08:27:47.998Z</time></trkpt><trkpt lat="39.719686799713834" lon="8.703824328084382"><ele>43.0</ele><time>2026-05-03T08:27:48.998Z</time></trkpt><trkpt lat="39.71978632068427" lon="8.703625236619917"><ele>42.66666666666667</ele><time>2026-05-03T08:27:49.998Z</time></trkpt><trkpt lat="39.71988439166427" lon="8.703440644357425"><ele>42.333333333333336</ele><time>2026-05-03T08:27:50.998Z</time></trkpt><trkpt lat="39.719968833515715" lon="8.703260515339668"><ele>42.0</ele><time>2026-05-03T08:27:51.998Z</time></trkpt><trkpt lat="39.720048574770324" lon="8.703081026652747"><ele>42.0</ele><time>2026-05-03T08:27:52.998Z</time></trkpt><trkpt lat="39.72012141646253" lon="8.7029200478222"><ele>42.0</ele><time>2026-05-03T08:27:53.998Z</time></trkpt><trkpt lat="39.72018352330515" lon="8.70276437196245"><ele>42.0</ele><time>2026-05-03T08:27:54.998Z</time></trkpt><trkpt lat="39.720240992260244" lon="8.702600849565505"><ele>42.0</ele><time>2026-05-03T08:27:55.998Z</time></trkpt><trkpt lat="39.72029195055048" lon="8.70241534398695"><ele>42.0</ele><time>2026-05-03T08:27:56.998Z</time></trkpt><trkpt lat="39.72034118025" lon="8.702235258145095"><ele>42.0</ele><time>2026-05-03T08:27:58Z</time></trkpt><trkpt lat="39.720393040523895" lon="8.702042880706468"><ele>42.0</ele><time>2026-05-03T08:27:59Z</time></trkpt><trkpt lat="39.72044138756683" lon="8.701855547759282"><ele>42.0</ele><time>2026-05-03T08:28:00Z</time></trkpt><trkpt lat="39.720480546484666" lon="8.701680833160356"><ele>42.0</ele><time>2026-05-03T08:28:01Z</time></trkpt><trkpt lat="39.720522993771944" lon="8.701511274171722"><ele>42.0</ele><time>2026-05-03T08:28:02Z</time></trkpt><trkpt lat="39.72058223642222" lon="8.701336081743133"><ele>42.0</ele><time>2026-05-03T08:28:03Z</time></trkpt><trkpt lat="39.7206444611969" lon="8.701153738368541"><ele>41.333333333333336</ele><time>2026-05-03T08:28:04Z</time></trkpt><trkpt lat="39.720700787011864" lon="8.700940966400333"><ele>40.66666666666667</ele><time>2026-05-03T08:28:05Z</time></trkpt><trkpt lat="39.72074867470481" lon="8.700702610657618"><ele>40.0</ele><time>2026-05-03T08:28:06Z</time></trkpt><trkpt lat="39.72080600858304" lon="8.700459038009024"><ele>40.0</ele><time>2026-05-03T08:28:07Z</time></trkpt><trkpt lat="39.72087018245759" lon="8.700221605493445"><ele>40.0</ele><time>2026-05-03T08:28:08Z</time></trkpt><trkpt lat="39.720932774619904" lon="8.699996570483735"><ele>40.0</ele><time>2026-05-03T08:28:09Z</time></trkpt><trkpt lat="39.720989065981726" lon="8.699788318149583"><ele>40.0</ele><time>2026-05-03T08:28:10Z</time></trkpt><trkpt lat="39.72104727528968" lon="8.699569899048"><ele>40.0</ele><time>2026-05-03T08:28:11Z</time></trkpt><trkpt lat="39.721101096452045" lon="8.699340435131033"><ele>40.0</ele><time>2026-05-03T08:28:12Z</time></trkpt><trkpt lat="39.72115497912962" lon="8.69910645937202"><ele>40.66666666666667</ele><time>2026-05-03T08:28:13Z</time></trkpt><trkpt lat="39.721209344164" lon="8.69889046113513"><ele>41.333333333333336</ele><time>2026-05-03T08:28:14Z</time></trkpt><trkpt lat="39.72126081363391" lon="8.69869466166289"><ele>42.0</ele><time>2026-05-03T08:28:15Z</time></trkpt><trkpt lat="39.721316404840564" lon="8.698480296809079"><ele>42.0</ele><time>2026-05-03T08:28:16Z</time></trkpt><trkpt lat="39.72135620631623" lon="8.698287121355245"><ele>42.0</ele><time>2026-05-03T08:28:17Z</time></trkpt><trkpt lat="39.721398784856135" lon="8.698104559725703"><ele>42.0</ele><time>2026-05-03T08:28:18Z</time></trkpt><trkpt lat="39.72144445266131" lon="8.697919777411537"><ele>42.0</ele><time>2026-05-03T08:28:19Z</time></trkpt><trkpt lat="39.72149573274095" lon="8.697732494641828"><ele>42.0</ele><time>2026-05-03T08:28:20Z</time></trkpt><trkpt lat="39.72155182801678" lon="8.697533470729319"><ele>42.0</ele><time>2026-05-03T08:28:21Z</time></trkpt><trkpt lat="39.72160324536832" lon="8.697336407383187"><ele>42.0</ele><time>2026-05-03T08:28:22Z</time></trkpt><trkpt lat="39.72166160693703" lon="8.69712990447046"><ele>42.0</ele><time>2026-05-03T08:28:23Z</time></trkpt><trkpt lat="39.72171915625746" lon="8.696902019790151"><ele>42.0</ele><time>2026-05-03T08:28:24Z</time></trkpt><trkpt lat="39.72177390452114" lon="8.696661324840571"><ele>42.0</ele><time>2026-05-03T08:28:25Z</time></trkpt><trkpt lat="39.72183748827747" lon="8.69642487055516"><ele>42.0</ele><time>2026-05-03T08:28:26Z</time></trkpt><trkpt lat="39.72191041109659" lon="8.696180490726647"><ele>42.0</ele><time>2026-05-03T08:28:27Z</time></trkpt><trkpt lat="39.72197829061019" lon="8.69593848250927"><ele>42.333333333333336</ele><time>2026-05-03T08:28:27.999Z</time></trkpt><trkpt lat="39.72205031986454" lon="8.6956868139291"><ele>42.66666666666667</ele><time>2026-05-03T08:28:28.999Z</time></trkpt><trkpt lat="39.72211375710566" lon="8.6954188182723"><ele>43.0</ele><time>2026-05-03T08:28:29.999Z</time></trkpt><trkpt lat="39.72217725712791" lon="8.69515080316539"><ele>42.333333333333336</ele><time>2026-05-03T08:28:30.999Z</time></trkpt><trkpt lat="39.72224983069419" lon="8.694886242457478"><ele>41.666666666666664</ele><time>2026-05-03T08:28:31.999Z</time></trkpt><trkpt lat="39.722328779743385" lon="8.694619106124323"><ele>41.0</ele><time>2026-05-03T08:28:32.999Z</time></trkpt><trkpt lat="39.722405448221025" lon="8.694349127522598"><ele>40.666666666666664</ele><time>2026-05-03T08:28:33.999Z</time></trkpt><trkpt lat="39.722473103569506" lon="8.694069224656793"><ele>40.333333333333336</ele><time>2026-05-03T08:28:34.999Z</time></trkpt><trkpt lat="39.72253502682379" lon="8.693814610197586"><ele>40.0</ele><time>2026-05-03T08:28:35.999Z</time></trkpt><trkpt lat="39.72259628848925" lon="8.693577830856881"><ele>40.0</ele><time>2026-05-03T08:28:36.999Z</time></trkpt><trkpt lat="39.722655334898235" lon="8.693358818718961"><ele>40.0</ele><time>2026-05-03T08:28:37.999Z</time></trkpt><trkpt lat="39.722709967528985" lon="8.693154513395921"><ele>40.0</ele><time>2026-05-03T08:28:38.999Z</time></trkpt><trkpt lat="39.72275816431683" lon="8.692981998164665"><ele>40.6</ele><time>2026-05-03T08:28:39.999Z</time></trkpt><trkpt lat="39.72279885163014" lon="8.692838894756447"><ele>41.2</ele><time>2026-05-03T08:28:40.999Z</time></trkpt><trkpt lat="39.722830578135024" lon="8.692715386826078"><ele>41.8</ele><time>2026-05-03T08:28:41.999Z</time></trkpt><trkpt lat="39.72286501170012" lon="8.692604379726241"><ele>42.4</ele><time>2026-05-03T08:28:42.999Z</time></trkpt><trkpt lat="39.72291612064453" lon="8.692500042387158"><ele>43.0</ele><time>2026-05-03T08:28:43.999Z</time></trkpt><trkpt lat="39.7229773045568" lon="8.692401203436457"><ele>43.0</ele><time>2026-05-03T08:28:44.999Z</time></trkpt><trkpt lat="39.72304532538298" lon="8.692304017383492"><ele>43.0</ele><time>2026-05-03T08:28:45.999Z</time></trkpt><trkpt lat="39.72311748270524" lon="8.692211117277276"><ele>43.0</ele><time>2026-05-03T08:28:46.999Z</time></trkpt><trkpt lat="39.723185762430155" lon="8.692132853730294"><ele>43.0</ele><time>2026-05-03T08:28:47.999Z</time></trkpt><trkpt lat="39.72326521745678" lon="8.692063996210502"><ele>43.0</ele><time>2026-05-03T08:28:48.999Z</time></trkpt><trkpt lat="39.72335029746929" lon="8.692002804800833"><ele>43.0</ele><time>2026-05-03T08:28:49.999Z</time></trkpt><trkpt lat="39.72343958511238" lon="8.691950243079066"><ele>43.0</ele><time>2026-05-03T08:28:50.999Z</time></trkpt><trkpt lat="39.72352262576259" lon="8.69190953236991"><ele>43.0</ele><time>2026-05-03T08:28:51.999Z</time></trkpt><trkpt lat="39.72359919222903" lon="8.691872820183285"><ele>43.0</ele><time>2026-05-03T08:28:52.999Z</time></trkpt><trkpt lat="39.72368158884995" lon="8.691824014647667"><ele>43.0</ele><time>2026-05-03T08:28:53.999Z</time></trkpt><trkpt lat="39.72377102854761" lon="8.691769807011388"><ele>43.0</ele><time>2026-05-03T08:28:54.999Z</time></trkpt><trkpt lat="39.72386012347354" lon="8.69171707722994"><ele>43.0</ele><time>2026-05-03T08:28:55.999Z</time></trkpt><trkpt lat="39.72393539208263" lon="8.691673826213696"><ele>43.0</ele><time>2026-05-03T08:28:56.999Z</time></trkpt><trkpt lat="39.7239956833053" lon="8.691636502946494"><ele>43.0</ele><time>2026-05-03T08:28:57.999Z</time></trkpt><trkpt lat="39.72411463698358" lon="8.691564184351675"><ele>43.0</ele><time>2026-05-03T08:28:59.999Z</time></trkpt><trkpt lat="39.7242048325224" lon="8.691512002191597"><ele>43.0</ele><time>2026-05-03T08:29:00.999Z</time></trkpt><trkpt lat="39.72432097954945" lon="8.691449616633614"><ele>43.0</ele><time>2026-05-03T08:29:01.999Z</time></trkpt><trkpt lat="39.724455966966715" lon="8.69138074683003"><ele>43.0</ele><time>2026-05-03T08:29:02.999Z</time></trkpt><trkpt lat="39.72460666214016" lon="8.691298360695306"><ele>43.0</ele><time>2026-05-03T08:29:03.999Z</time></trkpt><trkpt lat="39.72476611698615" lon="8.69120492192736"><ele>43.0</ele><time>2026-05-03T08:29:04.999Z</time></trkpt><trkpt lat="39.72493640942495" lon="8.691104376681446"><ele>43.0</ele><time>2026-05-03T08:29:05.999Z</time></trkpt><trkpt lat="39.72511837180524" lon="8.690997130630848"><ele>43.0</ele><time>2026-05-03T08:29:06.999Z</time></trkpt><trkpt lat="39.7253116677656" lon="8.690888406142353"><ele>44.5</ele><time>2026-05-03T08:29:07.999Z</time></trkpt><trkpt lat="39.72551464754794" lon="8.690774109276655"><ele>46.0</ele><time>2026-05-03T08:29:08.999Z</time></trkpt><trkpt lat="39.7257390530876" lon="8.690647572978943"><ele>46.0</ele><time>2026-05-03T08:29:09.999Z</time></trkpt><trkpt lat="39.725976308392134" lon="8.69050617607205"><ele>46.0</ele><time>2026-05-03T08:29:10.999Z</time></trkpt><trkpt lat="39.72618912156179" lon="8.690382374614424"><ele>46.333333333333336</ele><time>2026-05-03T08:29:11.999Z</time></trkpt><trkpt lat="39.72638290651058" lon="8.690273194479479"><ele>46.666666666666664</ele><time>2026-05-03T08:29:12.999Z</time></trkpt><trkpt lat="39.72655724730038" lon="8.690171964157663"><ele>47.0</ele><time>2026-05-03T08:29:13.999Z</time></trkpt><trkpt lat="39.7267370678433" lon="8.690058088601406"><ele>47.666666666666664</ele><time>2026-05-03T08:29:14.999Z</time></trkpt><trkpt lat="39.72692589995928" lon="8.689942103383231"><ele>48.33333333333333</ele><time>2026-05-03T08:29:15.999Z</time></trkpt><trkpt lat="39.727117412454355" lon="8.689828737041248"><ele>49.0</ele><time>2026-05-03T08:29:16.999Z</time></trkpt><trkpt lat="39.72730652661923" lon="8.689710547729922"><ele>49.0</ele><time>2026-05-03T08:29:17.999Z</time></trkpt><trkpt lat="39.72749174421526" lon="8.68959498591833"><ele>49.0</ele><time>2026-05-03T08:29:18.999Z</time></trkpt><trkpt lat="39.72768066098276" lon="8.689485766811556"><ele>49.0</ele><time>2026-05-03T08:29:19.999Z</time></trkpt><trkpt lat="39.72787060118758" lon="8.689387178561603"><ele>49.33333333333333</ele><time>2026-05-03T08:29:20.999Z</time></trkpt><trkpt lat="39.728064141900454" lon="8.689284175710743"><ele>49.66666666666667</ele><time>2026-05-03T08:29:21.999Z</time></trkpt><trkpt lat="39.728262393565515" lon="8.68917095031075"><ele>50.0</ele><time>2026-05-03T08:29:22.999Z</time></trkpt><trkpt lat="39.72846463649408" lon="8.689051495374093"><ele>51.0</ele><time>2026-05-03T08:29:23.999Z</time></trkpt><trkpt lat="39.728672222722366" lon="8.688930375146912"><ele>52.0</ele><time>2026-05-03T08:29:24.999Z</time></trkpt><trkpt lat="39.72887717916867" lon="8.688812122488843"><ele>52.0</ele><time>2026-05-03T08:29:25.999Z</time></trkpt><trkpt lat="39.729086479821646" lon="8.68868785614045"><ele>52.0</ele><time>2026-05-03T08:29:26.999Z</time></trkpt><trkpt lat="39.72930022156931" lon="8.688559107267421"><ele>52.5</ele><time>2026-05-03T08:29:27.999Z</time></trkpt><trkpt lat="39.72951778952865" lon="8.688433379619989"><ele>53.0</ele><time>2026-05-03T08:29:28.999Z</time></trkpt><trkpt lat="39.72973765006086" lon="8.688303965959594"><ele>53.0</ele><time>2026-05-03T08:29:29.999Z</time></trkpt><trkpt lat="39.72993388967294" lon="8.688191512057038"><ele>53.0</ele><time>2026-05-03T08:29:30.999Z</time></trkpt><trkpt lat="39.73011795079863" lon="8.688082102076676"><ele>53.0</ele><time>2026-05-03T08:29:31.999Z</time></trkpt><trkpt lat="39.73029079319542" lon="8.687978856649469"><ele>53.333333333333336</ele><time>2026-05-03T08:29:32.998Z</time></trkpt><trkpt lat="39.73046750195497" lon="8.687879226609681"><ele>53.66666666666667</ele><time>2026-05-03T08:29:33.998Z</time></trkpt><trkpt lat="39.730648762168485" lon="8.687781886085284"><ele>54.0</ele><time>2026-05-03T08:29:34.998Z</time></trkpt><trkpt lat="39.730839486961095" lon="8.68768164663352"><ele>54.0</ele><time>2026-05-03T08:29:35.998Z</time></trkpt><trkpt lat="39.731033204610185" lon="8.687581755462034"><ele>54.0</ele><time>2026-05-03T08:29:36.998Z</time></trkpt><trkpt lat="39.73122630086735" lon="8.687469380323291"><ele>54.0</ele><time>2026-05-03T08:29:37.998Z</time></trkpt><trkpt lat="39.731420099212215" lon="8.687352547408578"><ele>54.33333333333333</ele><time>2026-05-03T08:29:38.998Z</time></trkpt><trkpt lat="39.731619612471256" lon="8.687237123053704"><ele>54.666666666666664</ele><time>2026-05-03T08:29:39.998Z</time></trkpt><trkpt lat="39.731820274085344" lon="8.687148049974136"><ele>55.0</ele><time>2026-05-03T08:29:40.998Z</time></trkpt><trkpt lat="39.73198938976047" lon="8.687033874837475"><ele>55.0</ele><time>2026-05-03T08:29:41.998Z</time></trkpt><trkpt lat="39.732155874044956" lon="8.686948612646193"><ele>55.0</ele><time>2026-05-03T08:29:42.998Z</time></trkpt><trkpt lat="39.732336738275386" lon="8.68685559059312"><ele>55.0</ele><time>2026-05-03T08:29:43.998Z</time></trkpt><trkpt lat="39.732525400814865" lon="8.686761834508259"><ele>55.0</ele><time>2026-05-03T08:29:44.998Z</time></trkpt><trkpt lat="39.732720889296026" lon="8.686663760124222"><ele>55.0</ele><time>2026-05-03T08:29:45.998Z</time></trkpt><trkpt lat="39.73289724865693" lon="8.686566845338596"><ele>55.0</ele><time>2026-05-03T08:29:46.998Z</time></trkpt><trkpt lat="39.73305944668004" lon="8.68647483260158"><ele>55.666666666666664</ele><time>2026-05-03T08:29:47.998Z</time></trkpt><trkpt lat="39.73321199154021" lon="8.686391796270446"><ele>56.33333333333333</ele><time>2026-05-03T08:29:48.998Z</time></trkpt><trkpt lat="39.73336782477963" lon="8.686309999984822"><ele>57.0</ele><time>2026-05-03T08:29:49.998Z</time></trkpt><trkpt lat="39.73352062837315" lon="8.68621943124402"><ele>57.0</ele><time>2026-05-03T08:29:50.998Z</time></trkpt><trkpt lat="39.73366593405806" lon="8.686135824373507"><ele>57.0</ele><time>2026-05-03T08:29:51.998Z</time></trkpt><trkpt lat="39.73380260131139" lon="8.686065712594463"><ele>57.0</ele><time>2026-05-03T08:29:52.998Z</time></trkpt><trkpt lat="39.73396042687941" lon="8.685993595282548"><ele>57.0</ele><time>2026-05-03T08:29:53.998Z</time></trkpt><trkpt lat="39.734135955982985" lon="8.685905017615413"><ele>57.0</ele><time>2026-05-03T08:29:54.998Z</time></trkpt><trkpt lat="39.734320234996325" lon="8.68580422812017"><ele>57.0</ele><time>2026-05-03T08:29:55.998Z</time></trkpt><trkpt lat="39.734516466132625" lon="8.685700293482935"><ele>56.5</ele><time>2026-05-03T08:29:56.998Z</time></trkpt><trkpt lat="39.73472750506571" lon="8.68558870062591"><ele>56.0</ele><time>2026-05-03T08:29:57.998Z</time></trkpt><trkpt lat="39.73495344647717" lon="8.68546221924873"><ele>56.0</ele><time>2026-05-03T08:29:58.998Z</time></trkpt><trkpt lat="39.735186328792764" lon="8.685332318319709"><ele>56.0</ele><time>2026-05-03T08:29:59.998Z</time></trkpt><trkpt lat="39.73540960722116" lon="8.685205247492958"><ele>55.5</ele><time>2026-05-03T08:30:00.998Z</time></trkpt><trkpt lat="39.73562376274778" lon="8.685089622272324"><ele>55.0</ele><time>2026-05-03T08:30:01.998Z</time></trkpt><trkpt lat="39.735829887754136" lon="8.68498332026778"><ele>55.0</ele><time>2026-05-03T08:30:02.998Z</time></trkpt><trkpt lat="39.736034123919666" lon="8.68486939664114"><ele>55.0</ele><time>2026-05-03T08:30:04Z</time></trkpt><trkpt lat="39.73623875875182" lon="8.684753986195561"><ele>55.0</ele><time>2026-05-03T08:30:05Z</time></trkpt><trkpt lat="39.73645508440611" lon="8.684638867584825"><ele>54.5</ele><time>2026-05-03T08:30:06Z</time></trkpt><trkpt lat="39.73669024655271" lon="8.68451760563412"><ele>54.0</ele><time>2026-05-03T08:30:07Z</time></trkpt><trkpt lat="39.73691164123958" lon="8.684395786597172"><ele>53.5</ele><time>2026-05-03T08:30:08Z</time></trkpt><trkpt lat="39.73713219871612" lon="8.6842665707615"><ele>53.0</ele><time>2026-05-03T08:30:09Z</time></trkpt><trkpt lat="39.73735885940784" lon="8.68414410816085"><ele>53.0</ele><time>2026-05-03T08:30:10Z</time></trkpt><trkpt lat="39.73759037891134" lon="8.684023950526935"><ele>53.0</ele><time>2026-05-03T08:30:11Z</time></trkpt><trkpt lat="39.73782902626433" lon="8.683900776565817"><ele>54.0</ele><time>2026-05-03T08:30:12Z</time></trkpt><trkpt lat="39.73808089184007" lon="8.683779442948753"><ele>55.0</ele><time>2026-05-03T08:30:13Z</time></trkpt><trkpt lat="39.73833831599556" lon="8.683644771752942"><ele>53.5</ele><time>2026-05-03T08:30:14Z</time></trkpt><trkpt lat="39.73859727870151" lon="8.683504840172327"><ele>52.0</ele><time>2026-05-03T08:30:15Z</time></trkpt><trkpt lat="39.73885128960164" lon="8.683380456225498"><ele>52.0</ele><time>2026-05-03T08:30:16Z</time></trkpt><trkpt lat="39.73907872676673" lon="8.683274913157847"><ele>52.0</ele><time>2026-05-03T08:30:17Z</time></trkpt><trkpt lat="39.739301025961815" lon="8.683149335461463"><ele>52.0</ele><time>2026-05-03T08:30:18Z</time></trkpt><trkpt lat="39.73949867120816" lon="8.683041256924874"><ele>52.0</ele><time>2026-05-03T08:30:19Z</time></trkpt><trkpt lat="39.73968581137808" lon="8.682941620048947"><ele>52.0</ele><time>2026-05-03T08:30:20Z</time></trkpt><trkpt lat="39.73987269646367" lon="8.682823786495707"><ele>51.0</ele><time>2026-05-03T08:30:21Z</time></trkpt><trkpt lat="39.740080871365926" lon="8.682693161231157"><ele>50.0</ele><time>2026-05-03T08:30:22Z</time></trkpt><trkpt lat="39.74031604265498" lon="8.682590369722437"><ele>50.0</ele><time>2026-05-03T08:30:23Z</time></trkpt><trkpt lat="39.74053375319952" lon="8.682448736003348"><ele>50.0</ele><time>2026-05-03T08:30:24Z</time></trkpt><trkpt lat="39.740759912351066" lon="8.682330333375162"><ele>50.0</ele><time>2026-05-03T08:30:25Z</time></trkpt><trkpt lat="39.74098574476303" lon="8.682214429874996"><ele>50.0</ele><time>2026-05-03T08:30:26Z</time></trkpt><trkpt lat="39.7411927454765" lon="8.682102674412041"><ele>50.0</ele><time>2026-05-03T08:30:27Z</time></trkpt><trkpt lat="39.741376997352845" lon="8.681999647817337"><ele>50.0</ele><time>2026-05-03T08:30:28Z</time></trkpt><trkpt lat="39.74154472532951" lon="8.681905799017512"><ele>50.0</ele><time>2026-05-03T08:30:29Z</time></trkpt><trkpt lat="39.74171241566554" lon="8.681811773496873"><ele>50.333333333333336</ele><time>2026-05-03T08:30:30Z</time></trkpt><trkpt lat="39.74190373359331" lon="8.68171154440118"><ele>50.66666666666667</ele><time>2026-05-03T08:30:31Z</time></trkpt><trkpt lat="39.7421136467998" lon="8.681602792878206"><ele>51.0</ele><time>2026-05-03T08:30:31.999Z</time></trkpt><trkpt lat="39.74233503922656" lon="8.6814768463183"><ele>51.0</ele><time>2026-05-03T08:30:32.999Z</time></trkpt><trkpt lat="39.74254160814068" lon="8.681358641640259"><ele>51.0</ele><time>2026-05-03T08:30:33.999Z</time></trkpt><trkpt lat="39.74274800085678" lon="8.68124859764779"><ele>51.0</ele><time>2026-05-03T08:30:34.999Z</time></trkpt><trkpt lat="39.74296818941677" lon="8.681137484638844"><ele>51.0</ele><time>2026-05-03T08:30:35.999Z</time></trkpt><trkpt lat="39.74318668140647" lon="8.681024122951316"><ele>51.0</ele><time>2026-05-03T08:30:36.999Z</time></trkpt><trkpt lat="39.743393352324766" lon="8.680912212891311"><ele>52.0</ele><time>2026-05-03T08:30:37.999Z</time></trkpt><trkpt lat="39.74361915348025" lon="8.68079583171973"><ele>53.0</ele><time>2026-05-03T08:30:38.999Z</time></trkpt><trkpt lat="39.74385572285358" lon="8.680678935302932"><ele>53.0</ele><time>2026-05-03T08:30:39.999Z</time></trkpt><trkpt lat="39.74410109223542" lon="8.680547486556577"><ele>53.0</ele><time>2026-05-03T08:30:40.999Z</time></trkpt><trkpt lat="39.74435581923208" lon="8.680411458519101"><ele>54.0</ele><time>2026-05-03T08:30:41.999Z</time></trkpt><trkpt lat="39.74461744341275" lon="8.680273462802683"><ele>55.0</ele><time>2026-05-03T08:30:42.999Z</time></trkpt><trkpt lat="39.74487700630054" lon="8.680134534171533"><ele>55.0</ele><time>2026-05-03T08:30:43.999Z</time></trkpt><trkpt lat="39.74511059403435" lon="8.680005502772145"><ele>55.0</ele><time>2026-05-03T08:30:44.999Z</time></trkpt><trkpt lat="39.745322647681114" lon="8.679887503530127"><ele>56.0</ele><time>2026-05-03T08:30:45.999Z</time></trkpt><trkpt lat="39.74553099833308" lon="8.679768286958403"><ele>57.0</ele><time>2026-05-03T08:30:46.999Z</time></trkpt><trkpt lat="39.745742111291335" lon="8.679646056497488"><ele>57.0</ele><time>2026-05-03T08:30:47.999Z</time></trkpt><trkpt lat="39.74595212182648" lon="8.67953161116063"><ele>57.0</ele><time>2026-05-03T08:30:48.999Z</time></trkpt><trkpt lat="39.746155848494936" lon="8.679424570634152"><ele>57.0</ele><time>2026-05-03T08:30:49.999Z</time></trkpt><trkpt lat="39.74635258191915" lon="8.679320480932661"><ele>56.66666666666667</ele><time>2026-05-03T08:30:50.999Z</time></trkpt><trkpt lat="39.74654876700225" lon="8.67921707030572"><ele>56.333333333333336</ele><time>2026-05-03T08:30:51.999Z</time></trkpt><trkpt lat="39.74674720936804" lon="8.679111611958838"><ele>56.0</ele><time>2026-05-03T08:30:52.999Z</time></trkpt><trkpt lat="39.74694984342709" lon="8.679006168349465"><ele>56.0</ele><time>2026-05-03T08:30:53.999Z</time></trkpt><trkpt lat="39.74714933125749" lon="8.678902332846814"><ele>56.0</ele><time>2026-05-03T08:30:54.999Z</time></trkpt><trkpt lat="39.747342078487385" lon="8.678795812794993"><ele>56.0</ele><time>2026-05-03T08:30:55.999Z</time></trkpt><trkpt lat="39.74752096428343" lon="8.67869567450934"><ele>56.0</ele><time>2026-05-03T08:30:56.999Z</time></trkpt><trkpt lat="39.7477064733997" lon="8.678597112872957"><ele>56.0</ele><time>2026-05-03T08:30:57.999Z</time></trkpt><trkpt lat="39.74788709962731" lon="8.678493381891201"><ele>56.0</ele><time>2026-05-03T08:30:58.999Z</time></trkpt><trkpt lat="39.748074279561486" lon="8.67838807462472"><ele>56.0</ele><time>2026-05-03T08:30:59.999Z</time></trkpt><trkpt lat="39.74824872729043" lon="8.67829206109785"><ele>56.0</ele><time>2026-05-03T08:31:00.999Z</time></trkpt><trkpt lat="39.748433829948404" lon="8.67819362119956"><ele>56.0</ele><time>2026-05-03T08:31:01.999Z</time></trkpt><trkpt lat="39.74857417555119" lon="8.678120860574749"><ele>56.199999999999996</ele><time>2026-05-03T08:31:02.999Z</time></trkpt><trkpt lat="39.74868061112977" lon="8.678067236845287"><ele>56.39999999999999</ele><time>2026-05-03T08:31:03.999Z</time></trkpt><trkpt lat="39.74876416920605" lon="8.678038556241376"><ele>56.6</ele><time>2026-05-03T08:31:04.999Z</time></trkpt><trkpt lat="39.74886435078024" lon="8.678015056135434"><ele>56.8</ele><time>2026-05-03T08:31:06.999Z</time></trkpt><trkpt lat="39.74885097500515" lon="8.677928693864443"><ele>57.0</ele><time>2026-05-03T08:31:09.999Z</time></trkpt><trkpt lat="39.748738244137634" lon="8.677990605708313"><ele>57.0</ele><time>2026-05-03T08:31:11.999Z</time></trkpt><trkpt lat="39.74865418667711" lon="8.678054941438756"><ele>57.0</ele><time>2026-05-03T08:31:12.999Z</time></trkpt><trkpt lat="39.74854400970705" lon="8.678114746086097"><ele>57.0</ele><time>2026-05-03T08:31:13.999Z</time></trkpt><trkpt lat="39.74842704863889" lon="8.678178896666918"><ele>57.0</ele><time>2026-05-03T08:31:14.999Z</time></trkpt><trkpt lat="39.74832825014956" lon="8.678239164857006"><ele>56.8</ele><time>2026-05-03T08:31:15.999Z</time></trkpt><trkpt lat="39.74826366720213" lon="8.678291395137457"><ele>56.6</ele><time>2026-05-03T08:31:16.999Z</time></trkpt><trkpt lat="39.74823243428265" lon="8.678410268354176"><ele>56.39999999999999</ele><time>2026-05-03T08:31:18.999Z</time></trkpt><trkpt lat="39.74825383224739" lon="8.678498834064296"><ele>56.199999999999996</ele><time>2026-05-03T08:31:19.999Z</time></trkpt><trkpt lat="39.748301109692676" lon="8.678620591055026"><ele>56.0</ele><time>2026-05-03T08:31:20.999Z</time></trkpt><trkpt lat="39.748360632759955" lon="8.678777690686223"><ele>56.66666666666667</ele><time>2026-05-03T08:31:21.999Z</time></trkpt><trkpt lat="39.74842275872011" lon="8.678967029296498"><ele>57.33333333333333</ele><time>2026-05-03T08:31:22.999Z</time></trkpt><trkpt lat="39.74848682273083" lon="8.67917270149361"><ele>58.0</ele><time>2026-05-03T08:31:23.999Z</time></trkpt><trkpt lat="39.74854924533367" lon="8.679376799172418"><ele>59.0</ele><time>2026-05-03T08:31:24.999Z</time></trkpt><trkpt lat="39.74861069904852" lon="8.679564646310592"><ele>60.0</ele><time>2026-05-03T08:31:25.999Z</time></trkpt><trkpt lat="39.74866451364826" lon="8.679731811925237"><ele>61.0</ele><time>2026-05-03T08:31:26.999Z</time></trkpt><trkpt lat="39.748712272323516" lon="8.679880120194372"><ele>62.0</ele><time>2026-05-03T08:31:27.999Z</time></trkpt><trkpt lat="39.748755969904416" lon="8.680012084841055"><ele>62.0</ele><time>2026-05-03T08:31:28.999Z</time></trkpt><trkpt lat="39.74879513888001" lon="8.68012828995302"><ele>62.0</ele><time>2026-05-03T08:31:29.999Z</time></trkpt><trkpt lat="39.748826068904904" lon="8.680221023826139"><ele>62.0</ele><time>2026-05-03T08:31:30.999Z</time></trkpt><trkpt lat="39.74884422758088" lon="8.680328542467608"><ele>62.0</ele><time>2026-05-03T08:31:32.999Z</time></trkpt><trkpt lat="39.749033003482964" lon="8.680232777302614"><ele>62.0</ele><time>2026-05-03T08:31:34.999Z</time></trkpt><trkpt lat="39.749144328671434" lon="8.680173825485792"><ele>62.0</ele><time>2026-05-03T08:31:35.998Z</time></trkpt><trkpt lat="39.74927311932357" lon="8.680108053864158"><ele>62.0</ele><time>2026-05-03T08:31:36.998Z</time></trkpt><trkpt lat="39.749403133060774" lon="8.680035422648695"><ele>62.0</ele><time>2026-05-03T08:31:37.998Z</time></trkpt><trkpt lat="39.74952646703925" lon="8.679960229001532"><ele>62.25</ele><time>2026-05-03T08:31:38.998Z</time></trkpt><trkpt lat="39.749651033496484" lon="8.679890846363412"><ele>62.5</ele><time>2026-05-03T08:31:39.998Z</time></trkpt><trkpt lat="39.74977071948588" lon="8.679830586714653"><ele>62.75</ele><time>2026-05-03T08:31:40.998Z</time></trkpt><trkpt lat="39.749896807207065" lon="8.679766357324523"><ele>63.0</ele><time>2026-05-03T08:31:41.998Z</time></trkpt><trkpt lat="39.75003189233234" lon="8.67969653593906"><ele>63.0</ele><time>2026-05-03T08:31:42.998Z</time></trkpt><trkpt lat="39.750159132533135" lon="8.679634110272888"><ele>63.0</ele><time>2026-05-03T08:31:43.998Z</time></trkpt><trkpt lat="39.7502717806183" lon="8.679573150959762"><ele>63.0</ele><time>2026-05-03T08:31:44.998Z</time></trkpt><trkpt lat="39.75038296423028" lon="8.679515166825956"><ele>63.0</ele><time>2026-05-03T08:31:45.998Z</time></trkpt><trkpt lat="39.750495384121656" lon="8.679453959032548"><ele>62.599999999999994</ele><time>2026-05-03T08:31:46.998Z</time></trkpt><trkpt lat="39.750604333575495" lon="8.679388450027304"><ele>62.199999999999996</ele><time>2026-05-03T08:31:47.998Z</time></trkpt><trkpt lat="39.750709517445884" lon="8.679332073872096"><ele>61.8</ele><time>2026-05-03T08:31:48.998Z</time></trkpt><trkpt lat="39.75080819273355" lon="8.679297236983803"><ele>61.4</ele><time>2026-05-03T08:31:49.998Z</time></trkpt><trkpt lat="39.75090382076801" lon="8.679250412853973"><ele>61.0</ele><time>2026-05-03T08:31:50.998Z</time></trkpt><trkpt lat="39.75100494746051" lon="8.679178169996687"><ele>61.5</ele><time>2026-05-03T08:31:51.998Z</time></trkpt><trkpt lat="39.751116873737864" lon="8.679119205002566"><ele>62.0</ele><time>2026-05-03T08:31:52.998Z</time></trkpt><trkpt lat="39.75123634551196" lon="8.679063978194415"><ele>62.5</ele><time>2026-05-03T08:31:53.998Z</time></trkpt><trkpt lat="39.751355501391544" lon="8.679004356221265"><ele>63.0</ele><time>2026-05-03T08:31:54.998Z</time></trkpt><trkpt lat="39.75147216464699" lon="8.67894454257275"><ele>63.0</ele><time>2026-05-03T08:31:55.998Z</time></trkpt><trkpt lat="39.75157623566793" lon="8.678890810064294"><ele>63.0</ele><time>2026-05-03T08:31:56.998Z</time></trkpt><trkpt lat="39.751673508219874" lon="8.678829944210856"><ele>63.0</ele><time>2026-05-03T08:31:57.998Z</time></trkpt><trkpt lat="39.75176843997388" lon="8.678761935739338"><ele>63.0</ele><time>2026-05-03T08:31:58.998Z</time></trkpt><trkpt lat="39.751857085404424" lon="8.678696623532954"><ele>63.0</ele><time>2026-05-03T08:31:59.998Z</time></trkpt><trkpt lat="39.751960106304345" lon="8.678648305423387"><ele>62.5</ele><time>2026-05-03T08:32:00.998Z</time></trkpt><trkpt lat="39.75208269509925" lon="8.678592134007147"><ele>62.0</ele><time>2026-05-03T08:32:01.998Z</time></trkpt><trkpt lat="39.75220662862235" lon="8.67853311212471"><ele>61.5</ele><time>2026-05-03T08:32:02.998Z</time></trkpt><trkpt lat="39.75232104611359" lon="8.678475006279532"><ele>61.0</ele><time>2026-05-03T08:32:03.998Z</time></trkpt><trkpt lat="39.75242418981554" lon="8.678416665864605"><ele>61.0</ele><time>2026-05-03T08:32:04.998Z</time></trkpt><trkpt lat="39.75253450705657" lon="8.67835877233514"><ele>61.0</ele><time>2026-05-03T08:32:05.998Z</time></trkpt><trkpt lat="39.75264861969947" lon="8.678297530337195"><ele>61.0</ele><time>2026-05-03T08:32:06.998Z</time></trkpt><trkpt lat="39.75275831369384" lon="8.678240887988746"><ele>61.0</ele><time>2026-05-03T08:32:07.998Z</time></trkpt><trkpt lat="39.75286603160938" lon="8.678183722930514"><ele>61.0</ele><time>2026-05-03T08:32:08.998Z</time></trkpt><trkpt lat="39.75296632404024" lon="8.678125383640513"><ele>60.99999999999999</ele><time>2026-05-03T08:32:10Z</time></trkpt><trkpt lat="39.753063188531705" lon="8.678073818478282"><ele>60.99999999999999</ele><time>2026-05-03T08:32:11Z</time></trkpt><trkpt lat="39.753153808325436" lon="8.678028628979085"><ele>61.0</ele><time>2026-05-03T08:32:12Z</time></trkpt><trkpt lat="39.753242073681584" lon="8.67798514348175"><ele>61.0</ele><time>2026-05-03T08:32:13Z</time></trkpt><trkpt lat="39.75334209237463" lon="8.677922171443589"><ele>61.0</ele><time>2026-05-03T08:32:14Z</time></trkpt><trkpt lat="39.75345480860826" lon="8.677845890153627"><ele>61.0</ele><time>2026-05-03T08:32:15Z</time></trkpt><trkpt lat="39.753576281607764" lon="8.67777521890293"><ele>61.0</ele><time>2026-05-03T08:32:16Z</time></trkpt><trkpt lat="39.753693495789726" lon="8.677716954947702"><ele>61.0</ele><time>2026-05-03T08:32:17Z</time></trkpt><trkpt lat="39.75380986001119" lon="8.677665845957145"><ele>61.0</ele><time>2026-05-03T08:32:18Z</time></trkpt><trkpt lat="39.75392484571004" lon="8.677613901314794"><ele>60.99999999999999</ele><time>2026-05-03T08:32:19Z</time></trkpt><trkpt lat="39.75403723174036" lon="8.677554205548013"><ele>60.99999999999999</ele><time>2026-05-03T08:32:20Z</time></trkpt><trkpt lat="39.75414300171052" lon="8.67748968764632"><ele>61.0</ele><time>2026-05-03T08:32:21Z</time></trkpt><trkpt lat="39.75422348456369" lon="8.677444517766604"><ele>61.0</ele><time>2026-05-03T08:32:22Z</time></trkpt><trkpt lat="39.75429876013911" lon="8.677407477961548"><ele>61.0</ele><time>2026-05-03T08:32:23Z</time></trkpt><trkpt lat="39.754396794347564" lon="8.67736729725476"><ele>60.99999999999999</ele><time>2026-05-03T08:32:25Z</time></trkpt><trkpt lat="39.75431238309995" lon="8.677362007858582"><ele>60.99999999999999</ele><time>2026-05-03T08:32:29Z</time></trkpt><trkpt lat="39.75424092720215" lon="8.677430900657805"><ele>61.0</ele><time>2026-05-03T08:32:30Z</time></trkpt><trkpt lat="39.75415888275036" lon="8.677485044064802"><ele>61.0</ele><time>2026-05-03T08:32:31Z</time></trkpt><trkpt lat="39.75407462047613" lon="8.677531742559973"><ele>61.0</ele><time>2026-05-03T08:32:32Z</time></trkpt><trkpt lat="39.75399738596124" lon="8.677575987980449"><ele>60.99999999999999</ele><time>2026-05-03T08:32:33Z</time></trkpt><trkpt lat="39.75392345131962" lon="8.677617429186009"><ele>60.99999999999999</ele><time>2026-05-03T08:32:34Z</time></trkpt><trkpt lat="39.75383278413524" lon="8.677670557139976"><ele>61.0</ele><time>2026-05-03T08:32:35Z</time></trkpt><trkpt lat="39.753733017430434" lon="8.677725719326602"><ele>61.0</ele><time>2026-05-03T08:32:35.999Z</time></trkpt><trkpt lat="39.75364173767617" lon="8.677761601041842"><ele>61.4</ele><time>2026-05-03T08:32:36.999Z</time></trkpt><trkpt lat="39.75359083775453" lon="8.677819694095412"><ele>61.8</ele><time>2026-05-03T08:32:39.999Z</time></trkpt><trkpt lat="39.753651084513386" lon="8.677947327108155"><ele>62.199999999999996</ele><time>2026-05-03T08:32:41.999Z</time></trkpt><trkpt lat="39.75370480841555" lon="8.67806583344429"><ele>62.599999999999994</ele><time>2026-05-03T08:32:42.999Z</time></trkpt><trkpt lat="39.75375943524631" lon="8.678226668821834"><ele>63.0</ele><time>2026-05-03T08:32:43.999Z</time></trkpt><trkpt lat="39.753795957938316" lon="8.678352598981622"><ele>63.0</ele><time>2026-05-03T08:32:44.999Z</time></trkpt><trkpt lat="39.753832761511646" lon="8.678437977815387"><ele>63.0</ele><time>2026-05-03T08:32:45.999Z</time></trkpt><trkpt lat="39.75388825855246" lon="8.678506552673047"><ele>63.0</ele><time>2026-05-03T08:32:46.999Z</time></trkpt><trkpt lat="39.75395399077989" lon="8.678560521530686"><ele>63.0</ele><time>2026-05-03T08:32:47.999Z</time></trkpt><trkpt lat="39.75403218835445" lon="8.678580608618349"><ele>63.0</ele><time>2026-05-03T08:32:48.999Z</time></trkpt><trkpt lat="39.75412308402301" lon="8.678573987162158"><ele>63.0</ele><time>2026-05-03T08:32:49.999Z</time></trkpt><trkpt lat="39.754205218921534" lon="8.678567390712635"><ele>63.0</ele><time>2026-05-03T08:32:50.999Z</time></trkpt><trkpt lat="39.754295481684686" lon="8.678586968223044"><ele>63.0</ele><time>2026-05-03T08:32:52.999Z</time></trkpt><trkpt lat="39.75438660982546" lon="8.67860223336388"><ele>63.0</ele><time>2026-05-03T08:32:54.999Z</time></trkpt><trkpt lat="39.7544693438593" lon="8.678590589896222"><ele>63.0</ele><time>2026-05-03T08:32:55.999Z</time></trkpt><trkpt lat="39.75457469501812" lon="8.678582110418958"><ele>63.0</ele><time>2026-05-03T08:32:56.999Z</time></trkpt><trkpt lat="39.75468265345559" lon="8.678576903091892"><ele>63.0</ele><time>2026-05-03T08:32:57.999Z</time></trkpt><trkpt lat="39.75478987751113" lon="8.678559814907548"><ele>63.0</ele><time>2026-05-03T08:32:58.999Z</time></trkpt><trkpt lat="39.754900192415036" lon="8.678535820311847"><ele>63.0</ele><time>2026-05-03T08:32:59.999Z</time></trkpt><trkpt lat="39.755015546451986" lon="8.678513719362149"><ele>63.0</ele><time>2026-05-03T08:33:00.999Z</time></trkpt><trkpt lat="39.755126034617206" lon="8.678494779280838"><ele>63.0</ele><time>2026-05-03T08:33:01.999Z</time></trkpt><trkpt lat="39.75524300892625" lon="8.678474815908983"><ele>63.2</ele><time>2026-05-03T08:33:02.999Z</time></trkpt><trkpt lat="39.755362590301814" lon="8.678452933377566"><ele>63.4</ele><time>2026-05-03T08:33:03.999Z</time></trkpt><trkpt lat="39.75546994039618" lon="8.678429663874862"><ele>63.60000000000001</ele><time>2026-05-03T08:33:04.999Z</time></trkpt><trkpt lat="39.755567766471366" lon="8.678402887602187"><ele>63.800000000000004</ele><time>2026-05-03T08:33:05.999Z</time></trkpt><trkpt lat="39.755657322713056" lon="8.678384643240356"><ele>64.0</ele><time>2026-05-03T08:33:06.999Z</time></trkpt><trkpt lat="39.755747377070165" lon="8.678377936478993"><ele>64.0</ele><time>2026-05-03T08:33:07.999Z</time></trkpt><trkpt lat="39.75583749739478" lon="8.678374708225775"><ele>64.0</ele><time>2026-05-03T08:33:08.999Z</time></trkpt><trkpt lat="39.75592970618394" lon="8.6783756821169"><ele>64.0</ele><time>2026-05-03T08:33:09.999Z</time></trkpt><trkpt lat="39.75602397155993" lon="8.678389022686606"><ele>64.0</ele><time>2026-05-03T08:33:10.999Z</time></trkpt><trkpt lat="39.75612815429729" lon="8.678416994085596"><ele>64.0</ele><time>2026-05-03T08:33:11.999Z</time></trkpt><trkpt lat="39.75623424618331" lon="8.678447255248134"><ele>63.800000000000004</ele><time>2026-05-03T08:33:12.999Z</time></trkpt><trkpt lat="39.75634208127035" lon="8.678482666413315"><ele>63.60000000000001</ele><time>2026-05-03T08:33:13.999Z</time></trkpt><trkpt lat="39.75644531120764" lon="8.678521866589671"><ele>63.4</ele><time>2026-05-03T08:33:14.999Z</time></trkpt><trkpt lat="39.756551164436026" lon="8.67856562570297"><ele>63.2</ele><time>2026-05-03T08:33:15.999Z</time></trkpt><trkpt lat="39.75666325704072" lon="8.678613014030436"><ele>63.0</ele><time>2026-05-03T08:33:16.999Z</time></trkpt><trkpt lat="39.75678323463698" lon="8.678655700892731"><ele>63.5</ele><time>2026-05-03T08:33:17.999Z</time></trkpt><trkpt lat="39.75690274699223" lon="8.678690915496064"><ele>64.0</ele><time>2026-05-03T08:33:18.999Z</time></trkpt><trkpt lat="39.75702278951564" lon="8.678731097967415"><ele>64.5</ele><time>2026-05-03T08:33:19.999Z</time></trkpt><trkpt lat="39.7571357013277" lon="8.67877538965978"><ele>65.0</ele><time>2026-05-03T08:33:20.999Z</time></trkpt><trkpt lat="39.757249931108674" lon="8.67881667543063"><ele>65.0</ele><time>2026-05-03T08:33:21.999Z</time></trkpt><trkpt lat="39.757368016914846" lon="8.678856388770075"><ele>65.0</ele><time>2026-05-03T08:33:22.999Z</time></trkpt><trkpt lat="39.757487735465425" lon="8.678891996654896"><ele>65.0</ele><time>2026-05-03T08:33:23.999Z</time></trkpt><trkpt lat="39.75761502882352" lon="8.678911032659775"><ele>65.0</ele><time>2026-05-03T08:33:24.999Z</time></trkpt><trkpt lat="39.75775159371735" lon="8.678923446821189"><ele>65.0</ele><time>2026-05-03T08:33:25.999Z</time></trkpt><trkpt lat="39.75789509819827" lon="8.678948287913851"><ele>65.0</ele><time>2026-05-03T08:33:26.999Z</time></trkpt><trkpt lat="39.758024920095075" lon="8.678969253225443"><ele>65.0</ele><time>2026-05-03T08:33:27.999Z</time></trkpt><trkpt lat="39.75814023135793" lon="8.678979201914245"><ele>65.0</ele><time>2026-05-03T08:33:28.999Z</time></trkpt><trkpt lat="39.758242164953344" lon="8.678983460863327"><ele>65.0</ele><time>2026-05-03T08:33:29.999Z</time></trkpt><trkpt lat="39.75833745233678" lon="8.678999276667575"><ele>65.0</ele><time>2026-05-03T08:33:30.999Z</time></trkpt><trkpt lat="39.75844205016731" lon="8.67903339169976"><ele>65.0</ele><time>2026-05-03T08:33:31.999Z</time></trkpt><trkpt lat="39.75854569055" lon="8.679073883732865"><ele>65.0</ele><time>2026-05-03T08:33:32.999Z</time></trkpt><trkpt lat="39.75863671588741" lon="8.679118107387199"><ele>65.0</ele><time>2026-05-03T08:33:33.999Z</time></trkpt><trkpt lat="39.758733172363954" lon="8.679191233734349"><ele>65.0</ele><time>2026-05-03T08:33:34.999Z</time></trkpt><trkpt lat="39.75883290551078" lon="8.679283920031816"><ele>65.0</ele><time>2026-05-03T08:33:35.999Z</time></trkpt><trkpt lat="39.75892206457043" lon="8.679390455473905"><ele>65.0</ele><time>2026-05-03T08:33:36.999Z</time></trkpt><trkpt lat="39.759025050284265" lon="8.679501589698214"><ele>65.0</ele><time>2026-05-03T08:33:37.999Z</time></trkpt><trkpt lat="39.759127504606774" lon="8.679592914292133"><ele>65.0</ele><time>2026-05-03T08:33:38.999Z</time></trkpt><trkpt lat="39.759225273584576" lon="8.679673340345003"><ele>65.0</ele><time>2026-05-03T08:33:39.999Z</time></trkpt><trkpt lat="39.759308109510705" lon="8.67976364715609"><ele>65.0</ele><time>2026-05-03T08:33:40.998Z</time></trkpt><trkpt lat="39.759395356111554" lon="8.679854393381186"><ele>65.0</ele><time>2026-05-03T08:33:41.998Z</time></trkpt><trkpt lat="39.75947930767679" lon="8.679925671857509"><ele>65.0</ele><time>2026-05-03T08:33:42.998Z</time></trkpt><trkpt lat="39.75955390091117" lon="8.679985406206809"><ele>64.5</ele><time>2026-05-03T08:33:43.998Z</time></trkpt><trkpt lat="39.75964999794875" lon="8.68005504939143"><ele>64.0</ele><time>2026-05-03T08:33:44.998Z</time></trkpt><trkpt lat="39.759767397984305" lon="8.680112095886606"><ele>63.5</ele><time>2026-05-03T08:33:45.998Z</time></trkpt><trkpt lat="39.75988604935299" lon="8.680156644691209"><ele>63.0</ele><time>2026-05-03T08:33:46.998Z</time></trkpt><trkpt lat="39.760002976064186" lon="8.680187006205584"><ele>63.0</ele><time>2026-05-03T08:33:47.998Z</time></trkpt><trkpt lat="39.760125350448014" lon="8.68022432871696"><ele>63.0</ele><time>2026-05-03T08:33:48.998Z</time></trkpt><trkpt lat="39.76023711898026" lon="8.680268495602377"><ele>63.0</ele><time>2026-05-03T08:33:49.998Z</time></trkpt><trkpt lat="39.76033803631023" lon="8.680285876221246"><ele>63.0</ele><time>2026-05-03T08:33:50.998Z</time></trkpt><trkpt lat="39.76043467438076" lon="8.680314789449014"><ele>63.0</ele><time>2026-05-03T08:33:51.998Z</time></trkpt><trkpt lat="39.76054257327337" lon="8.680353282191573"><ele>63.4</ele><time>2026-05-03T08:33:52.998Z</time></trkpt><trkpt lat="39.760652711441864" lon="8.680391991850955"><ele>63.8</ele><time>2026-05-03T08:33:53.998Z</time></trkpt><trkpt lat="39.76075085984533" lon="8.680424423883254"><ele>64.2</ele><time>2026-05-03T08:33:54.998Z</time></trkpt><trkpt lat="39.76083942891094" lon="8.680454612671433"><ele>64.6</ele><time>2026-05-03T08:33:55.998Z</time></trkpt><trkpt lat="39.76092096633702" lon="8.680482280211038"><ele>65.0</ele><time>2026-05-03T08:33:56.998Z</time></trkpt><trkpt lat="39.761007114667" lon="8.680514280711488"><ele>65.0</ele><time>2026-05-03T08:33:57.998Z</time></trkpt><trkpt lat="39.76110991701373" lon="8.680536015235583"><ele>65.0</ele><time>2026-05-03T08:33:58.998Z</time></trkpt><trkpt lat="39.76121798780246" lon="8.680545158166794"><ele>65.0</ele><time>2026-05-03T08:33:59.998Z</time></trkpt><trkpt lat="39.761328858147635" lon="8.68054878593411"><ele>65.0</ele><time>2026-05-03T08:34:00.998Z</time></trkpt><trkpt lat="39.76143945657266" lon="8.680537994012639"><ele>65.0</ele><time>2026-05-03T08:34:01.998Z</time></trkpt><trkpt lat="39.76155151465047" lon="8.68051050643489"><ele>65.0</ele><time>2026-05-03T08:34:02.998Z</time></trkpt><trkpt lat="39.76166744888409" lon="8.680475295575954"><ele>65.0</ele><time>2026-05-03T08:34:03.998Z</time></trkpt><trkpt lat="39.76178042616731" lon="8.680429186000547"><ele>65.0</ele><time>2026-05-03T08:34:04.998Z</time></trkpt><trkpt lat="39.76188277037822" lon="8.680376694568"><ele>65.0</ele><time>2026-05-03T08:34:05.998Z</time></trkpt><trkpt lat="39.761977676070956" lon="8.680337079855994"><ele>65.0</ele><time>2026-05-03T08:34:06.998Z</time></trkpt><trkpt lat="39.76208909723906" lon="8.68031345741996"><ele>65.33333333333334</ele><time>2026-05-03T08:34:07.998Z</time></trkpt><trkpt lat="39.76222257893532" lon="8.680299631687546"><ele>65.66666666666667</ele><time>2026-05-03T08:34:08.998Z</time></trkpt><trkpt lat="39.762376242464164" lon="8.680277271072844"><ele>66.0</ele><time>2026-05-03T08:34:09.998Z</time></trkpt><trkpt lat="39.76253736903573" lon="8.680244384926665"><ele>66.0</ele><time>2026-05-03T08:34:10.998Z</time></trkpt><trkpt lat="39.76269240499531" lon="8.68022462738769"><ele>66.0</ele><time>2026-05-03T08:34:11.998Z</time></trkpt><trkpt lat="39.762848477484454" lon="8.680243081062056"><ele>66.0</ele><time>2026-05-03T08:34:12.998Z</time></trkpt><trkpt lat="39.763021781812654" lon="8.680288389861468"><ele>66.0</ele><time>2026-05-03T08:34:13.998Z</time></trkpt><trkpt lat="39.763211839004555" lon="8.680344795133163"><ele>66.0</ele><time>2026-05-03T08:34:15Z</time></trkpt><trkpt lat="39.76340260921565" lon="8.680404180668555"><ele>66.0</ele><time>2026-05-03T08:34:16Z</time></trkpt><trkpt lat="39.7635874446276" lon="8.680466147090641"><ele>65.33333333333333</ele><time>2026-05-03T08:34:17Z</time></trkpt><trkpt lat="39.76375664249376" lon="8.680517771996453"><ele>64.66666666666666</ele><time>2026-05-03T08:34:18Z</time></trkpt><trkpt lat="39.763908249355275" lon="8.680574376614148"><ele>64.0</ele><time>2026-05-03T08:34:19Z</time></trkpt><trkpt lat="39.76406543266276" lon="8.680656260304785"><ele>64.0</ele><time>2026-05-03T08:34:20Z</time></trkpt><trkpt lat="39.7642312905225" lon="8.68075745307153"><ele>64.0</ele><time>2026-05-03T08:34:21Z</time></trkpt><trkpt lat="39.764391098797965" lon="8.680857552834409"><ele>64.0</ele><time>2026-05-03T08:34:22Z</time></trkpt><trkpt lat="39.76454830771108" lon="8.680944374300418"><ele>64.0</ele><time>2026-05-03T08:34:23Z</time></trkpt><trkpt lat="39.76470213506438" lon="8.681025678220465"><ele>64.0</ele><time>2026-05-03T08:34:24Z</time></trkpt><trkpt lat="39.7648403627538" lon="8.681110313515108"><ele>64.0</ele><time>2026-05-03T08:34:25Z</time></trkpt><trkpt lat="39.76496679240613" lon="8.681190954113852"><ele>64.4</ele><time>2026-05-03T08:34:26Z</time></trkpt><trkpt lat="39.76508991642799" lon="8.681248190003853"><ele>64.80000000000001</ele><time>2026-05-03T08:34:27Z</time></trkpt><trkpt lat="39.76520205282717" lon="8.681258474427512"><ele>65.19999999999999</ele><time>2026-05-03T08:34:28Z</time></trkpt><trkpt lat="39.765300133721205" lon="8.68123161961415"><ele>65.6</ele><time>2026-05-03T08:34:29Z</time></trkpt><trkpt lat="39.765389883647366" lon="8.681171015393947"><ele>66.0</ele><time>2026-05-03T08:34:30Z</time></trkpt><trkpt lat="39.765492391722404" lon="8.681081549410038"><ele>66.0</ele><time>2026-05-03T08:34:31Z</time></trkpt><trkpt lat="39.76561134813582" lon="8.68097260985749"><ele>66.0</ele><time>2026-05-03T08:34:32Z</time></trkpt><trkpt lat="39.76574288164197" lon="8.680851600406003"><ele>66.0</ele><time>2026-05-03T08:34:33Z</time></trkpt><trkpt lat="39.765881029540154" lon="8.680726675569858"><ele>66.0</ele><time>2026-05-03T08:34:34Z</time></trkpt><trkpt lat="39.76602391226445" lon="8.680599583822326"><ele>66.0</ele><time>2026-05-03T08:34:35Z</time></trkpt><trkpt lat="39.76616521534735" lon="8.680469508905539"><ele>66.0</ele><time>2026-05-03T08:34:36Z</time></trkpt><trkpt lat="39.76629547950826" lon="8.68035115468051"><ele>65.0</ele><time>2026-05-03T08:34:36.999Z</time></trkpt><trkpt lat="39.766413906494584" lon="8.68024377559902"><ele>64.0</ele><time>2026-05-03T08:34:37.999Z</time></trkpt><trkpt lat="39.766527157029635" lon="8.680148393002948"><ele>63.0</ele><time>2026-05-03T08:34:38.999Z</time></trkpt><trkpt lat="39.76664159041921" lon="8.680078000531909"><ele>62.0</ele><time>2026-05-03T08:34:39.999Z</time></trkpt><trkpt lat="39.76675804271664" lon="8.680032541813615"><ele>62.25</ele><time>2026-05-03T08:34:40.999Z</time></trkpt><trkpt lat="39.76688272422562" lon="8.67998321314947"><ele>62.5</ele><time>2026-05-03T08:34:41.999Z</time></trkpt><trkpt lat="39.76702089901195" lon="8.679926988670381"><ele>62.75</ele><time>2026-05-03T08:34:42.999Z</time></trkpt><trkpt lat="39.76716984076112" lon="8.679871683543208"><ele>63.0</ele><time>2026-05-03T08:34:43.999Z</time></trkpt><trkpt lat="39.76732053839978" lon="8.679813680587355"><ele>63.0</ele><time>2026-05-03T08:34:44.999Z</time></trkpt><trkpt lat="39.76746661789693" lon="8.679759884523168"><ele>63.0</ele><time>2026-05-03T08:34:45.999Z</time></trkpt><trkpt lat="39.76762195946783" lon="8.67970369826693"><ele>63.0</ele><time>2026-05-03T08:34:46.999Z</time></trkpt><trkpt lat="39.76778220449928" lon="8.679640129180108"><ele>63.66666666666667</ele><time>2026-05-03T08:34:47.999Z</time></trkpt><trkpt lat="39.767941695916846" lon="8.679584231112193"><ele>64.33333333333334</ele><time>2026-05-03T08:34:48.999Z</time></trkpt><trkpt lat="39.76810602933426" lon="8.679516956504983"><ele>65.0</ele><time>2026-05-03T08:34:49.999Z</time></trkpt><trkpt lat="39.768286554211286" lon="8.679433969044828"><ele>64.0</ele><time>2026-05-03T08:34:50.999Z</time></trkpt><trkpt lat="39.768467638477446" lon="8.679367893311547"><ele>63.0</ele><time>2026-05-03T08:34:51.999Z</time></trkpt><trkpt lat="39.76865376233015" lon="8.679314233368599"><ele>62.0</ele><time>2026-05-03T08:34:52.999Z</time></trkpt><trkpt lat="39.76882305645101" lon="8.679257168561112"><ele>62.0</ele><time>2026-05-03T08:34:53.999Z</time></trkpt><trkpt lat="39.76899993028994" lon="8.679193709272068"><ele>62.0</ele><time>2026-05-03T08:34:54.999Z</time></trkpt><trkpt lat="39.76918076949659" lon="8.67912920072185"><ele>62.0</ele><time>2026-05-03T08:34:55.999Z</time></trkpt><trkpt lat="39.76935623331804" lon="8.679064023093773"><ele>63.0</ele><time>2026-05-03T08:34:56.999Z</time></trkpt><trkpt lat="39.76953871759901" lon="8.67899057568723"><ele>64.0</ele><time>2026-05-03T08:34:57.999Z</time></trkpt><trkpt lat="39.76971744370182" lon="8.678924570515537"><ele>65.0</ele><time>2026-05-03T08:34:58.999Z</time></trkpt><trkpt lat="39.769897900652" lon="8.678857097045624"><ele>65.0</ele><time>2026-05-03T08:34:59.999Z</time></trkpt><trkpt lat="39.77008008344603" lon="8.678787621877381"><ele>65.0</ele><time>2026-05-03T08:35:00.999Z</time></trkpt><trkpt lat="39.770241336984306" lon="8.678721057328938"><ele>65.0</ele><time>2026-05-03T08:35:01.999Z</time></trkpt><trkpt lat="39.77040731031466" lon="8.678640916249428"><ele>65.0</ele><time>2026-05-03T08:35:02.999Z</time></trkpt><trkpt lat="39.77058148698376" lon="8.678552626012344"><ele>65.0</ele><time>2026-05-03T08:35:03.999Z</time></trkpt><trkpt lat="39.77076713146661" lon="8.678455563675332"><ele>65.0</ele><time>2026-05-03T08:35:04.999Z</time></trkpt><trkpt lat="39.770946093940715" lon="8.678356777672558"><ele>65.0</ele><time>2026-05-03T08:35:05.999Z</time></trkpt><trkpt lat="39.771091739966344" lon="8.678269698677273"><ele>65.0</ele><time>2026-05-03T08:35:06.999Z</time></trkpt><trkpt lat="39.77119588855094" lon="8.678198953738127"><ele>65.0</ele><time>2026-05-03T08:35:07.999Z</time></trkpt><trkpt lat="39.77126752232343" lon="8.678138482806647"><ele>65.0</ele><time>2026-05-03T08:35:08.999Z</time></trkpt><trkpt lat="39.77134646659893" lon="8.678087221661746"><ele>65.0</ele><time>2026-05-03T08:35:09.999Z</time></trkpt><trkpt lat="39.7714654161587" lon="8.678030918044017"><ele>65.0</ele><time>2026-05-03T08:35:10.999Z</time></trkpt><trkpt lat="39.7716238769246" lon="8.677967479641287"><ele>65.0</ele><time>2026-05-03T08:35:11.999Z</time></trkpt><trkpt lat="39.77178832403569" lon="8.677881229093172"><ele>65.0</ele><time>2026-05-03T08:35:12.999Z</time></trkpt><trkpt lat="39.77193967140738" lon="8.677795617331311"><ele>65.0</ele><time>2026-05-03T08:35:13.999Z</time></trkpt><trkpt lat="39.77208665898189" lon="8.67771533597129"><ele>65.0</ele><time>2026-05-03T08:35:14.999Z</time></trkpt><trkpt lat="39.77222383563389" lon="8.677635728290573"><ele>64.25</ele><time>2026-05-03T08:35:15.999Z</time></trkpt><trkpt lat="39.77234826126715" lon="8.6775845498013"><ele>63.5</ele><time>2026-05-03T08:35:16.999Z</time></trkpt><trkpt lat="39.77247207557433" lon="8.677573529708338"><ele>62.75</ele><time>2026-05-03T08:35:17.999Z</time></trkpt><trkpt lat="39.77258611396807" lon="8.67758297227987"><ele>62.0</ele><time>2026-05-03T08:35:18.999Z</time></trkpt><trkpt lat="39.77269026150132" lon="8.677594832675823"><ele>62.00000000000001</ele><time>2026-05-03T08:35:19.999Z</time></trkpt><trkpt lat="39.77277050680984" lon="8.677605139740532"><ele>62.0</ele><time>2026-05-03T08:35:20.999Z</time></trkpt><trkpt lat="39.77283253649929" lon="8.677624108017401"><ele>62.0</ele><time>2026-05-03T08:35:21.999Z</time></trkpt><trkpt lat="39.772901723214666" lon="8.6776481496285"><ele>62.0</ele><time>2026-05-03T08:35:22.999Z</time></trkpt><trkpt lat="39.772973569602854" lon="8.6776983333184"><ele>62.00000000000001</ele><time>2026-05-03T08:35:23.999Z</time></trkpt><trkpt lat="39.773042080860165" lon="8.67775577825973"><ele>62.0</ele><time>2026-05-03T08:35:24.999Z</time></trkpt><trkpt lat="39.773104773506184" lon="8.677801740502158"><ele>62.0</ele><time>2026-05-03T08:35:25.999Z</time></trkpt><trkpt lat="39.77317257437259" lon="8.677841855869373"><ele>62.0</ele><time>2026-05-03T08:35:26.999Z</time></trkpt><trkpt lat="39.77325133162637" lon="8.67791800781235"><ele>62.0</ele><time>2026-05-03T08:35:27.999Z</time></trkpt><trkpt lat="39.77333390340897" lon="8.678025917183085"><ele>62.0</ele><time>2026-05-03T08:35:28.999Z</time></trkpt><trkpt lat="39.77342525964057" lon="8.678154804849292"><ele>62.0</ele><time>2026-05-03T08:35:29.999Z</time></trkpt><trkpt lat="39.77352718302164" lon="8.678292955582487"><ele>61.75</ele><time>2026-05-03T08:35:30.999Z</time></trkpt><trkpt lat="39.77363439767284" lon="8.678435162300074"><ele>61.5</ele><time>2026-05-03T08:35:31.999Z</time></trkpt><trkpt lat="39.77373740256668" lon="8.678563598894723"><ele>61.25</ele><time>2026-05-03T08:35:32.999Z</time></trkpt><trkpt lat="39.773814728030274" lon="8.678650434893814"><ele>61.0</ele><time>2026-05-03T08:35:33.999Z</time></trkpt><trkpt lat="39.77388385322847" lon="8.678683475186517"><ele>61.0</ele><time>2026-05-03T08:35:34.999Z</time></trkpt><trkpt lat="39.77396243838383" lon="8.678672299590895"><ele>60.99999999999999</ele><time>2026-05-03T08:35:35.999Z</time></trkpt><trkpt lat="39.774051423422776" lon="8.67862903523388"><ele>60.99999999999999</ele><time>2026-05-03T08:35:36.999Z</time></trkpt><trkpt lat="39.77413513357061" lon="8.678553321794892"><ele>61.0</ele><time>2026-05-03T08:35:37.999Z</time></trkpt><trkpt lat="39.77421467792294" lon="8.678443750891308"><ele>61.0</ele><time>2026-05-03T08:35:38.999Z</time></trkpt><trkpt lat="39.77430575444874" lon="8.678320545117604"><ele>61.5</ele><time>2026-05-03T08:35:39.999Z</time></trkpt><trkpt lat="39.774413829174414" lon="8.678193850676651"><ele>62.0</ele><time>2026-05-03T08:35:40.999Z</time></trkpt><trkpt lat="39.774530100995776" lon="8.678075009416697"><ele>62.5</ele><time>2026-05-03T08:35:41.998Z</time></trkpt><trkpt lat="39.77464874652209" lon="8.67796093447021"><ele>63.0</ele><time>2026-05-03T08:35:42.998Z</time></trkpt><trkpt lat="39.77476960332883" lon="8.6778476605108"><ele>63.0</ele><time>2026-05-03T08:35:43.998Z</time></trkpt><trkpt lat="39.77489314904366" lon="8.677738130980172"><ele>63.0</ele><time>2026-05-03T08:35:44.998Z</time></trkpt><trkpt lat="39.77501798275573" lon="8.677623104924143"><ele>63.0</ele><time>2026-05-03T08:35:45.998Z</time></trkpt><trkpt lat="39.775129933539176" lon="8.677499235898066"><ele>63.0</ele><time>2026-05-03T08:35:46.998Z</time></trkpt><trkpt lat="39.77522134737004" lon="8.677360768226666"><ele>63.0</ele><time>2026-05-03T08:35:47.998Z</time></trkpt><trkpt lat="39.77530310600015" lon="8.677193558714922"><ele>63.0</ele><time>2026-05-03T08:35:48.998Z</time></trkpt><trkpt lat="39.7753896494881" lon="8.677016905649888"><ele>63.0</ele><time>2026-05-03T08:35:49.998Z</time></trkpt><trkpt lat="39.77547225490504" lon="8.676823632628746"><ele>63.0</ele><time>2026-05-03T08:35:50.998Z</time></trkpt><trkpt lat="39.77555718514104" lon="8.676626671387186"><ele>63.0</ele><time>2026-05-03T08:35:51.998Z</time></trkpt><trkpt lat="39.77564442268981" lon="8.676433186373824"><ele>63.0</ele><time>2026-05-03T08:35:52.998Z</time></trkpt><trkpt lat="39.775742806282146" lon="8.676251593680444"><ele>62.33333333333333</ele><time>2026-05-03T08:35:53.998Z</time></trkpt><trkpt lat="39.77583731532837" lon="8.676065936720681"><ele>61.666666666666664</ele><time>2026-05-03T08:35:54.998Z</time></trkpt><trkpt lat="39.77591770287273" lon="8.675897041116219"><ele>61.0</ele><time>2026-05-03T08:35:55.998Z</time></trkpt><trkpt lat="39.7759861755052" lon="8.675724489007074"><ele>61.33333333333333</ele><time>2026-05-03T08:35:56.998Z</time></trkpt><trkpt lat="39.77606013636457" lon="8.67556365617207"><ele>61.66666666666667</ele><time>2026-05-03T08:35:57.998Z</time></trkpt><trkpt lat="39.77614667308939" lon="8.675402558891822"><ele>62.0</ele><time>2026-05-03T08:35:58.998Z</time></trkpt><trkpt lat="39.77622734940004" lon="8.675231150537202"><ele>62.0</ele><time>2026-05-03T08:35:59.998Z</time></trkpt><trkpt lat="39.77631164360429" lon="8.675077029924052"><ele>62.0</ele><time>2026-05-03T08:36:00.998Z</time></trkpt><trkpt lat="39.776409275845985" lon="8.674954083171723"><ele>62.0</ele><time>2026-05-03T08:36:01.998Z</time></trkpt><trkpt lat="39.77651542117453" lon="8.674862492639564"><ele>62.0</ele><time>2026-05-03T08:36:02.998Z</time></trkpt><trkpt lat="39.77663409973877" lon="8.67478768020927"><ele>62.0</ele><time>2026-05-03T08:36:03.998Z</time></trkpt><trkpt lat="39.77676931679673" lon="8.674711395391169"><ele>62.0</ele><time>2026-05-03T08:36:04.998Z</time></trkpt><trkpt lat="39.77691201772272" lon="8.67462522889905"><ele>62.0</ele><time>2026-05-03T08:36:05.998Z</time></trkpt><trkpt lat="39.777046887908455" lon="8.674538728333069"><ele>62.2</ele><time>2026-05-03T08:36:06.998Z</time></trkpt><trkpt lat="39.77716685160628" lon="8.674469957642291"><ele>62.400000000000006</ele><time>2026-05-03T08:36:07.998Z</time></trkpt><trkpt lat="39.77728102135075" lon="8.674428072478827"><ele>62.599999999999994</ele><time>2026-05-03T08:36:08.998Z</time></trkpt><trkpt lat="39.777381163389016" lon="8.674408839904551"><ele>62.8</ele><time>2026-05-03T08:36:09.998Z</time></trkpt><trkpt lat="39.777461080430015" lon="8.674372545478027"><ele>63.0</ele><time>2026-05-03T08:36:11.998Z</time></trkpt><trkpt lat="39.77753224406013" lon="8.674423290327887"><ele>63.0</ele><time>2026-05-03T08:36:14.998Z</time></trkpt><trkpt lat="39.77759046078568" lon="8.674509982322657"><ele>63.0</ele><time>2026-05-03T08:36:15.998Z</time></trkpt><trkpt lat="39.77768097237004" lon="8.674621402925915"><ele>63.0</ele><time>2026-05-03T08:36:16.998Z</time></trkpt><trkpt lat="39.7777871776937" lon="8.674754923677433"><ele>63.0</ele><time>2026-05-03T08:36:17.998Z</time></trkpt><trkpt lat="39.77790303764993" lon="8.674896854977654"><ele>63.33333333333333</ele><time>2026-05-03T08:36:18.998Z</time></trkpt><trkpt lat="39.778029109060455" lon="8.67503765344456"><ele>63.666666666666664</ele><time>2026-05-03T08:36:19.998Z</time></trkpt><trkpt lat="39.77816944874397" lon="8.675200303201274"><ele>64.0</ele><time>2026-05-03T08:36:21Z</time></trkpt><trkpt lat="39.77831045236598" lon="8.675373823872237"><ele>65.33333333333333</ele><time>2026-05-03T08:36:22Z</time></trkpt><trkpt lat="39.77845706592345" lon="8.675560274892266"><ele>66.66666666666667</ele><time>2026-05-03T08:36:23Z</time></trkpt><trkpt lat="39.77861625621456" lon="8.675751995334219"><ele>68.0</ele><time>2026-05-03T08:36:24Z</time></trkpt><trkpt lat="39.7787743984023" lon="8.675938027344062"><ele>69.5</ele><time>2026-05-03T08:36:25Z</time></trkpt><trkpt lat="39.77894086129218" lon="8.676129761270436"><ele>71.0</ele><time>2026-05-03T08:36:26Z</time></trkpt><trkpt lat="39.77911089260966" lon="8.676330448916199"><ele>71.0</ele><time>2026-05-03T08:36:27Z</time></trkpt><trkpt lat="39.77928073980455" lon="8.67653738258021"><ele>71.0</ele><time>2026-05-03T08:36:28Z</time></trkpt><trkpt lat="39.779447252044186" lon="8.676742363825392"><ele>73.0</ele><time>2026-05-03T08:36:29Z</time></trkpt><trkpt lat="39.779612947579864" lon="8.67694657843545"><ele>75.0</ele><time>2026-05-03T08:36:30Z</time></trkpt><trkpt lat="39.779772348031734" lon="8.677141063786216"><ele>77.0</ele><time>2026-05-03T08:36:31Z</time></trkpt><trkpt lat="39.779927966953174" lon="8.677331470196737"><ele>77.0</ele><time>2026-05-03T08:36:32Z</time></trkpt><trkpt lat="39.78007829488426" lon="8.677512248092976"><ele>77.0</ele><time>2026-05-03T08:36:33Z</time></trkpt><trkpt lat="39.78022770556324" lon="8.677688699442575"><ele>77.0</ele><time>2026-05-03T08:36:34Z</time></trkpt><trkpt lat="39.78037409593261" lon="8.67786453445515"><ele>77.33333333333334</ele><time>2026-05-03T08:36:35Z</time></trkpt><trkpt lat="39.78051565536581" lon="8.678039739568138"><ele>77.66666666666667</ele><time>2026-05-03T08:36:36Z</time></trkpt><trkpt lat="39.78065676450862" lon="8.678212577714856"><ele>78.0</ele><time>2026-05-03T08:36:37Z</time></trkpt><trkpt lat="39.780799583882455" lon="8.678376059347153"><ele>78.0</ele><time>2026-05-03T08:36:38Z</time></trkpt><trkpt lat="39.78094781674527" lon="8.67852828909838"><ele>78.0</ele><time>2026-05-03T08:36:39Z</time></trkpt><trkpt lat="39.78110503150089" lon="8.678666097418242"><ele>78.0</ele><time>2026-05-03T08:36:40Z</time></trkpt><trkpt lat="39.781269620113385" lon="8.678799216399662"><ele>79.0</ele><time>2026-05-03T08:36:40.999Z</time></trkpt><trkpt lat="39.78144257572773" lon="8.678917773498823"><ele>80.0</ele><time>2026-05-03T08:36:41.999Z</time></trkpt><trkpt lat="39.78162755500261" lon="8.679012597240641"><ele>81.0</ele><time>2026-05-03T08:36:42.999Z</time></trkpt><trkpt lat="39.7818185518442" lon="8.679090621627356"><ele>81.33333333333333</ele><time>2026-05-03T08:36:43.999Z</time></trkpt><trkpt lat="39.78201231843347" lon="8.679158398216853"><ele>81.66666666666666</ele><time>2026-05-03T08:36:44.999Z</time></trkpt><trkpt lat="39.782210509946545" lon="8.679210271806921"><ele>82.0</ele><time>2026-05-03T08:36:45.999Z</time></trkpt><trkpt lat="39.78240935863036" lon="8.679245636092764"><ele>82.0</ele><time>2026-05-03T08:36:46.999Z</time></trkpt><trkpt lat="39.78260667570697" lon="8.679257973621588"><ele>82.0</ele><time>2026-05-03T08:36:47.999Z</time></trkpt><trkpt lat="39.782805057611334" lon="8.679245633012155"><ele>82.0</ele><time>2026-05-03T08:36:48.999Z</time></trkpt><trkpt lat="39.78297294328448" lon="8.679217028769676"><ele>82.39999999999999</ele><time>2026-05-03T08:36:49.999Z</time></trkpt><trkpt lat="39.78309034904928" lon="8.679197255337074"><ele>82.8</ele><time>2026-05-03T08:36:50.999Z</time></trkpt><trkpt lat="39.78319152027007" lon="8.679171679077532"><ele>83.2</ele><time>2026-05-03T08:36:51.999Z</time></trkpt><trkpt lat="39.78326914640453" lon="8.67917017457271"><ele>83.6</ele><time>2026-05-03T08:36:52.999Z</time></trkpt><trkpt lat="39.78332329021113" lon="8.679125382618949"><ele>84.0</ele><time>2026-05-03T08:36:55.999Z</time></trkpt><trkpt lat="39.78322266847236" lon="8.679154039792842"><ele>84.0</ele><time>2026-05-03T08:36:57.999Z</time></trkpt><trkpt lat="39.78312305754721" lon="8.679136330970723"><ele>84.0</ele><time>2026-05-03T08:36:58.999Z</time></trkpt><trkpt lat="39.78302409676168" lon="8.679151918706843"><ele>84.0</ele><time>2026-05-03T08:36:59.999Z</time></trkpt><trkpt lat="39.782953005493845" lon="8.679164410234531"><ele>84.0</ele><time>2026-05-03T08:37:00.999Z</time></trkpt><trkpt lat="39.78288927057047" lon="8.679216419005092"><ele>84.0</ele><time>2026-05-03T08:37:02.999Z</time></trkpt><trkpt lat="39.78291658502735" lon="8.679383461896789"><ele>84.6</ele><time>2026-05-03T08:37:04.999Z</time></trkpt><trkpt lat="39.78293918228353" lon="8.679506487467956"><ele>85.2</ele><time>2026-05-03T08:37:05.999Z</time></trkpt><trkpt lat="39.78295259974323" lon="8.679644491926247"><ele>85.8</ele><time>2026-05-03T08:37:06.999Z</time></trkpt><trkpt lat="39.78296987905351" lon="8.679801521484789"><ele>86.39999999999999</ele><time>2026-05-03T08:37:07.999Z</time></trkpt><trkpt lat="39.78299450099113" lon="8.679948904396651"><ele>87.0</ele><time>2026-05-03T08:37:08.999Z</time></trkpt><trkpt lat="39.783033157148196" lon="8.680088305949814"><ele>87.0</ele><time>2026-05-03T08:37:09.999Z</time></trkpt><trkpt lat="39.783086790300366" lon="8.68019917353841"><ele>87.0</ele><time>2026-05-03T08:37:10.999Z</time></trkpt><trkpt lat="39.783128011882" lon="8.68031118955329"><ele>87.0</ele><time>2026-05-03T08:37:11.999Z</time></trkpt><trkpt lat="39.78317137845522" lon="8.68043136012955"><ele>87.0</ele><time>2026-05-03T08:37:12.999Z</time></trkpt><trkpt lat="39.783212719776486" lon="8.680560333089511"><ele>87.0</ele><time>2026-05-03T08:37:13.999Z</time></trkpt><trkpt lat="39.78324215772266" lon="8.68070128985376"><ele>88.0</ele><time>2026-05-03T08:37:14.999Z</time></trkpt><trkpt lat="39.7832798569519" lon="8.680848290085176"><ele>89.0</ele><time>2026-05-03T08:37:15.999Z</time></trkpt><trkpt lat="39.7833279256696" lon="8.680994938649647"><ele>90.0</ele><time>2026-05-03T08:37:16.999Z</time></trkpt><trkpt lat="39.78334414728025" lon="8.6811600310156"><ele>91.0</ele><time>2026-05-03T08:37:17.999Z</time></trkpt><trkpt lat="39.78337816166501" lon="8.681329949234321"><ele>91.5</ele><time>2026-05-03T08:37:18.999Z</time></trkpt><trkpt lat="39.78342812296645" lon="8.681495282421862"><ele>92.0</ele><time>2026-05-03T08:37:19.999Z</time></trkpt><trkpt lat="39.78344686669447" lon="8.681676621492871"><ele>92.5</ele><time>2026-05-03T08:37:20.999Z</time></trkpt><trkpt lat="39.78348161369239" lon="8.681852536584397"><ele>93.0</ele><time>2026-05-03T08:37:21.999Z</time></trkpt><trkpt lat="39.783518094064064" lon="8.682030597131478"><ele>95.33333333333334</ele><time>2026-05-03T08:37:22.999Z</time></trkpt><trkpt lat="39.7835573426537" lon="8.682214349356267"><ele>97.66666666666667</ele><time>2026-05-03T08:37:23.999Z</time></trkpt><trkpt lat="39.78360625495071" lon="8.682403927056425"><ele>100.0</ele><time>2026-05-03T08:37:24.999Z</time></trkpt><trkpt lat="39.78367286499506" lon="8.682597236496955"><ele>100.66666666666667</ele><time>2026-05-03T08:37:25.999Z</time></trkpt><trkpt lat="39.78376883478085" lon="8.682772066706013"><ele>101.33333333333334</ele><time>2026-05-03T08:37:26.999Z</time></trkpt><trkpt lat="39.78382668921919" lon="8.6829591498839"><ele>102.0</ele><time>2026-05-03T08:37:27.999Z</time></trkpt><trkpt lat="39.78387499038654" lon="8.68314815677936"><ele>102.0</ele><time>2026-05-03T08:37:28.999Z</time></trkpt><trkpt lat="39.78391822181886" lon="8.683335279862106"><ele>102.0</ele><time>2026-05-03T08:37:29.999Z</time></trkpt><trkpt lat="39.783934517047506" lon="8.683540302754075"><ele>102.0</ele><time>2026-05-03T08:37:30.999Z</time></trkpt><trkpt lat="39.78398471718612" lon="8.683735755116432"><ele>103.33333333333334</ele><time>2026-05-03T08:37:31.999Z</time></trkpt><trkpt lat="39.784035396544155" lon="8.683933073490651"><ele>104.66666666666667</ele><time>2026-05-03T08:37:32.999Z</time></trkpt><trkpt lat="39.78410172720966" lon="8.684125640826055"><ele>106.0</ele><time>2026-05-03T08:37:33.999Z</time></trkpt><trkpt lat="39.78414728132037" lon="8.68431989590677"><ele>107.0</ele><time>2026-05-03T08:37:34.999Z</time></trkpt><trkpt lat="39.784191816201" lon="8.684510186856738"><ele>108.0</ele><time>2026-05-03T08:37:35.999Z</time></trkpt><trkpt lat="39.784237655290916" lon="8.6846917991758"><ele>109.0</ele><time>2026-05-03T08:37:36.999Z</time></trkpt><trkpt lat="39.78428493882837" lon="8.684873161179153"><ele>110.0</ele><time>2026-05-03T08:37:37.999Z</time></trkpt><trkpt lat="39.78433036332479" lon="8.68504559605115"><ele>111.25</ele><time>2026-05-03T08:37:38.999Z</time></trkpt><trkpt lat="39.784375894793556" lon="8.685217505982287"><ele>112.5</ele><time>2026-05-03T08:37:39.999Z</time></trkpt><trkpt lat="39.78442909115468" lon="8.68538667806284"><ele>113.75</ele><time>2026-05-03T08:37:40.999Z</time></trkpt><trkpt lat="39.78450232098339" lon="8.685546442015422"><ele>115.0</ele><time>2026-05-03T08:37:41.999Z</time></trkpt><trkpt lat="39.7845905767963" lon="8.685695518704332"><ele>115.75</ele><time>2026-05-03T08:37:42.999Z</time></trkpt><trkpt lat="39.78467891150351" lon="8.685845189770856"><ele>116.5</ele><time>2026-05-03T08:37:43.999Z</time></trkpt><trkpt lat="39.78475755421249" lon="8.685986078141738"><ele>117.25</ele><time>2026-05-03T08:37:44.999Z</time></trkpt><trkpt lat="39.7848280952897" lon="8.686114824165541"><ele>118.0</ele><time>2026-05-03T08:37:45.999Z</time></trkpt><trkpt lat="39.78489031410322" lon="8.686224124792595"><ele>118.16666666666667</ele><time>2026-05-03T08:37:46.998Z</time></trkpt><trkpt lat="39.78493331255199" lon="8.686340544654804"><ele>118.33333333333334</ele><time>2026-05-03T08:37:47.998Z</time></trkpt><trkpt lat="39.78498263801353" lon="8.686435342553404"><ele>118.5</ele><time>2026-05-03T08:37:48.998Z</time></trkpt><trkpt lat="39.78502638680335" lon="8.68652060376866"><ele>118.66666666666666</ele><time>2026-05-03T08:37:49.998Z</time></trkpt><trkpt lat="39.78506587248873" lon="8.686598987714717"><ele>118.83333333333333</ele><time>2026-05-03T08:37:50.998Z</time></trkpt><trkpt lat="39.78510245938156" lon="8.686671617483578"><ele>119.0</ele><time>2026-05-03T08:37:51.998Z</time></trkpt><trkpt lat="39.78516416306522" lon="8.686794954669429"><ele>119.83333333333333</ele><time>2026-05-03T08:37:53.998Z</time></trkpt><trkpt lat="39.785208611826846" lon="8.686885641258293"><ele>120.66666666666666</ele><time>2026-05-03T08:37:55.998Z</time></trkpt><trkpt lat="39.78524466014524" lon="8.68695918908798"><ele>121.5</ele><time>2026-05-03T08:37:58.998Z</time></trkpt><trkpt lat="39.785291629106844" lon="8.687020143255792"><ele>122.33333333333334</ele><time>2026-05-03T08:39:33.999Z</time></trkpt><trkpt lat="39.78533315593267" lon="8.687108789066164"><ele>123.16666666666667</ele><time>2026-05-03T08:39:35.999Z</time></trkpt><trkpt lat="39.78538808403952" lon="8.68721910618019"><ele>124.0</ele><time>2026-05-03T08:39:37.999Z</time></trkpt><trkpt lat="39.7854432860316" lon="8.687347144673781"><ele>124.6</ele><time>2026-05-03T08:39:39.999Z</time></trkpt><trkpt lat="39.78550336078939" lon="8.68746327638434"><ele>125.2</ele><time>2026-05-03T08:39:41.999Z</time></trkpt><trkpt lat="39.785552296811204" lon="8.687592256673774"><ele>125.79999999999998</ele><time>2026-05-03T08:39:43.999Z</time></trkpt><trkpt lat="39.785613408293024" lon="8.687719964424836"><ele>126.39999999999999</ele><time>2026-05-03T08:39:45.999Z</time></trkpt><trkpt lat="39.785655899010024" lon="8.68781382522738"><ele>127.0</ele><time>2026-05-03T08:39:47.999Z</time></trkpt><trkpt lat="39.78568909635407" lon="8.687891191551126"><ele>127.16666666666667</ele><time>2026-05-03T08:39:50.998Z</time></trkpt><trkpt lat="39.78572248312976" lon="8.68798016170952"><ele>127.33333333333334</ele><time>2026-05-03T08:39:53.998Z</time></trkpt><trkpt lat="39.78575140035734" lon="8.688054320037008"><ele>127.5</ele><time>2026-05-03T08:39:57.998Z</time></trkpt><trkpt lat="39.78568032822789" lon="8.68805998073682"><ele>127.66666666666666</ele><time>2026-05-03T08:40:06.998Z</time></trkpt><trkpt lat="39.78568248475868" lon="8.688151956594318"><ele>127.83333333333333</ele><time>2026-05-03T08:40:09.998Z</time></trkpt><trkpt lat="39.78567443259481" lon="8.688276215845406"><ele>128.0</ele><time>2026-05-03T08:40:16.998Z</time></trkpt><trkpt lat="39.78573273810471" lon="8.688352349490629"><ele>128.0</ele><time>2026-05-03T08:40:18.998Z</time></trkpt><trkpt lat="39.78579703340788" lon="8.68843333497272"><ele>128.0</ele><time>2026-05-03T08:40:20.998Z</time></trkpt><trkpt lat="39.78585411527502" lon="8.688535848166849"><ele>128.0</ele><time>2026-05-03T08:40:22.998Z</time></trkpt><trkpt lat="39.785919698386074" lon="8.68864204217433"><ele>128.0</ele><time>2026-05-03T08:40:24.998Z</time></trkpt><trkpt lat="39.786027088744476" lon="8.688596247759998"><ele>128.0</ele><time>2026-05-03T08:40:25.998Z</time></trkpt><trkpt lat="39.78613454434271" lon="8.688730850327675"><ele>127.83333333333333</ele><time>2026-05-03T08:40:30.998Z</time></trkpt><trkpt lat="39.786180196315804" lon="8.688807094748281"><ele>127.66666666666666</ele><time>2026-05-03T08:40:33Z</time></trkpt><trkpt lat="39.78628073925569" lon="8.68885839648659"><ele>127.5</ele><time>2026-05-03T08:40:35Z</time></trkpt><trkpt lat="39.78633922485311" lon="8.688913152172375"><ele>127.33333333333334</ele><time>2026-05-03T08:40:36Z</time></trkpt><trkpt lat="39.78640787283229" lon="8.68897280236166"><ele>127.16666666666667</ele><time>2026-05-03T08:40:37Z</time></trkpt><trkpt lat="39.78649121364642" lon="8.68900970201966"><ele>127.0</ele><time>2026-05-03T08:40:38Z</time></trkpt><trkpt lat="39.78657712084602" lon="8.68900695036485"><ele>127.0</ele><time>2026-05-03T08:40:39Z</time></trkpt><trkpt lat="39.7866624893262" lon="8.688973540259266"><ele>126.99999999999999</ele><time>2026-05-03T08:40:40Z</time></trkpt><trkpt lat="39.78674843006753" lon="8.688920115591952"><ele>126.99999999999999</ele><time>2026-05-03T08:40:41Z</time></trkpt><trkpt lat="39.78684402245883" lon="8.688862664872724"><ele>127.0</ele><time>2026-05-03T08:40:42Z</time></trkpt><trkpt lat="39.7869359890384" lon="8.68881348030169"><ele>127.0</ele><time>2026-05-03T08:40:43Z</time></trkpt><trkpt lat="39.787019057217975" lon="8.688762534366806"><ele>126.50000000000001</ele><time>2026-05-03T08:40:44Z</time></trkpt><trkpt lat="39.78708752559403" lon="8.688715481609515"><ele>126.0</ele><time>2026-05-03T08:40:45Z</time></trkpt><trkpt lat="39.787151393975215" lon="8.688674841375587"><ele>125.5</ele><time>2026-05-03T08:40:46Z</time></trkpt><trkpt lat="39.787224125955824" lon="8.688652335377606"><ele>125.0</ele><time>2026-05-03T08:40:47Z</time></trkpt><trkpt lat="39.78730442584038" lon="8.688643450713972"><ele>124.50000000000001</ele><time>2026-05-03T08:40:48Z</time></trkpt><trkpt lat="39.787395428516724" lon="8.688611156969525"><ele>124.0</ele><time>2026-05-03T08:40:49Z</time></trkpt><trkpt lat="39.787499066297485" lon="8.6885950068268"><ele>123.25</ele><time>2026-05-03T08:40:49.999Z</time></trkpt><trkpt lat="39.78761212975711" lon="8.68858291220995"><ele>122.5</ele><time>2026-05-03T08:40:50.999Z</time></trkpt><trkpt lat="39.78773323752969" lon="8.688572100926319"><ele>121.75</ele><time>2026-05-03T08:40:51.999Z</time></trkpt><trkpt lat="39.787859799639996" lon="8.688561271102728"><ele>121.0</ele><time>2026-05-03T08:40:52.999Z</time></trkpt><trkpt lat="39.787997091270036" lon="8.688549523173794"><ele>119.33333333333334</ele><time>2026-05-03T08:40:53.999Z</time></trkpt><trkpt lat="39.788137590062256" lon="8.688537500803562"><ele>117.66666666666666</ele><time>2026-05-03T08:40:54.999Z</time></trkpt><trkpt lat="39.78829365684316" lon="8.688524146293839"><ele>116.0</ele><time>2026-05-03T08:40:55.999Z</time></trkpt><trkpt lat="39.788463977665316" lon="8.688510775591203"><ele>114.0</ele><time>2026-05-03T08:40:56.999Z</time></trkpt><trkpt lat="39.788649860946734" lon="8.688498662861827"><ele>112.0</ele><time>2026-05-03T08:40:57.999Z</time></trkpt><trkpt lat="39.788846050272305" lon="8.688488025250594"><ele>110.0</ele><time>2026-05-03T08:40:58.999Z</time></trkpt><trkpt lat="39.7890352213529" lon="8.688477083943935"><ele>110.0</ele><time>2026-05-03T08:40:59.999Z</time></trkpt><trkpt lat="39.78920666669218" lon="8.688463813625013"><ele>110.0</ele><time>2026-05-03T08:41:00.999Z</time></trkpt><trkpt lat="39.78936931192773" lon="8.688446774968332"><ele>110.0</ele><time>2026-05-03T08:41:01.999Z</time></trkpt><trkpt lat="39.789523491851256" lon="8.688430197879011"><ele>109.0</ele><time>2026-05-03T08:41:02.999Z</time></trkpt><trkpt lat="39.78967021457665" lon="8.688414754934554"><ele>108.0</ele><time>2026-05-03T08:41:03.999Z</time></trkpt><trkpt lat="39.7898239952154" lon="8.688401794684038"><ele>107.0</ele><time>2026-05-03T08:41:04.999Z</time></trkpt><trkpt lat="39.78999311901139" lon="8.68839293043478"><ele>107.0</ele><time>2026-05-03T08:41:05.999Z</time></trkpt><trkpt lat="39.790149592429344" lon="8.688385387877917"><ele>107.0</ele><time>2026-05-03T08:41:06.999Z</time></trkpt><trkpt lat="39.79029375656317" lon="8.688373728964276"><ele>107.0</ele><time>2026-05-03T08:41:07.999Z</time></trkpt><trkpt lat="39.790420365713715" lon="8.688361296319359"><ele>107.0</ele><time>2026-05-03T08:41:08.999Z</time></trkpt><trkpt lat="39.790517384768066" lon="8.688348956004072"><ele>106.16666666666666</ele><time>2026-05-03T08:41:09.999Z</time></trkpt><trkpt lat="39.79058847844023" lon="8.688333849127174"><ele>105.33333333333333</ele><time>2026-05-03T08:41:10.999Z</time></trkpt><trkpt lat="39.79068146267032" lon="8.688272345469644"><ele>104.5</ele><time>2026-05-03T08:41:12.999Z</time></trkpt><trkpt lat="39.79071814737608" lon="8.688135597931163"><ele>103.66666666666666</ele><time>2026-05-03T08:41:14.999Z</time></trkpt><trkpt lat="39.79069691144992" lon="8.688034796053747"><ele>102.83333333333333</ele><time>2026-05-03T08:41:15.999Z</time></trkpt><trkpt lat="39.79067628166706" lon="8.687936569510843"><ele>102.0</ele><time>2026-05-03T08:41:16.999Z</time></trkpt><trkpt lat="39.79065519355153" lon="8.687851005386502"><ele>102.0</ele><time>2026-05-03T08:41:17.999Z</time></trkpt><trkpt lat="39.79061602882272" lon="8.687723920022814"><ele>102.0</ele><time>2026-05-03T08:41:19.999Z</time></trkpt><trkpt lat="39.79059623115231" lon="8.68761680239699"><ele>102.0</ele><time>2026-05-03T08:41:21.999Z</time></trkpt><trkpt lat="39.79057907615902" lon="8.687717723279897"><ele>102.0</ele><time>2026-05-03T08:41:31.999Z</time></trkpt><trkpt lat="39.79060822798514" lon="8.687828203771227"><ele>102.0</ele><time>2026-05-03T08:41:32.999Z</time></trkpt><trkpt lat="39.79064060930187" lon="8.687955545213606"><ele>102.0</ele><time>2026-05-03T08:41:33.999Z</time></trkpt><trkpt lat="39.790670918423785" lon="8.6880517408808"><ele>102.0</ele><time>2026-05-03T08:41:34.999Z</time></trkpt><trkpt lat="39.79068298395387" lon="8.688167652667316"><ele>102.0</ele><time>2026-05-03T08:41:36.999Z</time></trkpt><trkpt lat="39.79091403836" lon="8.688136768631237"><ele>102.0</ele><time>2026-05-03T08:41:38.999Z</time></trkpt><trkpt lat="39.79100324265135" lon="8.688105000504494"><ele>100.6</ele><time>2026-05-03T08:41:39.999Z</time></trkpt><trkpt lat="39.7911060311528" lon="8.688078388432986"><ele>99.19999999999999</ele><time>2026-05-03T08:41:40.999Z</time></trkpt><trkpt lat="39.791210636212604" lon="8.688072659467899"><ele>97.8</ele><time>2026-05-03T08:41:41.999Z</time></trkpt><trkpt lat="39.79130765125296" lon="8.688080342302557"><ele>96.4</ele><time>2026-05-03T08:41:42.999Z</time></trkpt><trkpt lat="39.79139607534968" lon="8.68807652285258"><ele>95.0</ele><time>2026-05-03T08:41:43.999Z</time></trkpt><trkpt lat="39.79147643245887" lon="8.688054297242818"><ele>95.0</ele><time>2026-05-03T08:41:44.999Z</time></trkpt><trkpt lat="39.791552965559866" lon="8.688031295858229"><ele>95.0</ele><time>2026-05-03T08:41:45.999Z</time></trkpt><trkpt lat="39.79163609519245" lon="8.68801842701022"><ele>95.0</ele><time>2026-05-03T08:41:46.999Z</time></trkpt><trkpt lat="39.79172393634668" lon="8.688031574227116"><ele>95.0</ele><time>2026-05-03T08:41:47.999Z</time></trkpt><trkpt lat="39.79181331630669" lon="8.6880433761378"><ele>95.0</ele><time>2026-05-03T08:41:48.999Z</time></trkpt><trkpt lat="39.79189337922269" lon="8.688049026203318"><ele>95.0</ele><time>2026-05-03T08:41:49.999Z</time></trkpt><trkpt lat="39.79195972660437" lon="8.688047640639041"><ele>94.0</ele><time>2026-05-03T08:41:50.999Z</time></trkpt><trkpt lat="39.79205771542296" lon="8.688091345891088"><ele>93.0</ele><time>2026-05-03T08:41:52.999Z</time></trkpt><trkpt lat="39.79210451441205" lon="8.688152060930056"><ele>92.0</ele><time>2026-05-03T08:41:53.999Z</time></trkpt><trkpt lat="39.79218550348678" lon="8.688254175712908"><ele>91.0</ele><time>2026-05-03T08:41:55.998Z</time></trkpt><trkpt lat="39.79230123483657" lon="8.68818228660128"><ele>90.0</ele><time>2026-05-03T08:41:57.998Z</time></trkpt><trkpt lat="39.79236359284994" lon="8.688141060775537"><ele>90.0</ele><time>2026-05-03T08:41:58.998Z</time></trkpt><trkpt lat="39.79249539070046" lon="8.688175011128452"><ele>90.0</ele><time>2026-05-03T08:42:00.998Z</time></trkpt><trkpt lat="39.79258105363836" lon="8.688213178935"><ele>90.0</ele><time>2026-05-03T08:42:01.998Z</time></trkpt><trkpt lat="39.792674418649725" lon="8.688251102156155"><ele>90.0</ele><time>2026-05-03T08:42:02.998Z</time></trkpt><trkpt lat="39.79277829464542" lon="8.68828673170205"><ele>90.0</ele><time>2026-05-03T08:42:03.998Z</time></trkpt><trkpt lat="39.792903635192374" lon="8.688324588449372"><ele>89.5</ele><time>2026-05-03T08:42:04.998Z</time></trkpt><trkpt lat="39.793015678938986" lon="8.6883622303506"><ele>89.0</ele><time>2026-05-03T08:42:05.998Z</time></trkpt><trkpt lat="39.79311899380343" lon="8.688386680097627"><ele>88.5</ele><time>2026-05-03T08:42:06.998Z</time></trkpt><trkpt lat="39.79322441150251" lon="8.688413616402899"><ele>88.0</ele><time>2026-05-03T08:42:07.998Z</time></trkpt><trkpt lat="39.79334515146114" lon="8.688443239778227"><ele>88.0</ele><time>2026-05-03T08:42:08.998Z</time></trkpt><trkpt lat="39.79346160680764" lon="8.688479001492995"><ele>88.0</ele><time>2026-05-03T08:42:09.998Z</time></trkpt><trkpt lat="39.793578423632056" lon="8.688507466129355"><ele>88.0</ele><time>2026-05-03T08:42:10.998Z</time></trkpt><trkpt lat="39.79367989791346" lon="8.688532881190046"><ele>88.0</ele><time>2026-05-03T08:42:11.998Z</time></trkpt><trkpt lat="39.793802124098946" lon="8.688529680004084"><ele>88.0</ele><time>2026-05-03T08:42:12.998Z</time></trkpt><trkpt lat="39.793917410166394" lon="8.688523343419142"><ele>88.0</ele><time>2026-05-03T08:42:13.998Z</time></trkpt><trkpt lat="39.794019853448184" lon="8.688524367254388"><ele>88.0</ele><time>2026-05-03T08:42:14.998Z</time></trkpt><trkpt lat="39.79409872809735" lon="8.688554921651495"><ele>88.0</ele><time>2026-05-03T08:42:15.998Z</time></trkpt><trkpt lat="39.794201380518466" lon="8.688599002956447"><ele>88.0</ele><time>2026-05-03T08:42:16.998Z</time></trkpt><trkpt lat="39.79432885642108" lon="8.688644577337135"><ele>88.5</ele><time>2026-05-03T08:42:17.998Z</time></trkpt><trkpt lat="39.79445485387752" lon="8.6886987022452"><ele>89.0</ele><time>2026-05-03T08:42:18.998Z</time></trkpt><trkpt lat="39.79458183269423" lon="8.688750906561364"><ele>89.5</ele><time>2026-05-03T08:42:19.998Z</time></trkpt><trkpt lat="39.79471650742571" lon="8.688806019026686"><ele>90.0</ele><time>2026-05-03T08:42:20.998Z</time></trkpt><trkpt lat="39.79486021107618" lon="8.688862972714317"><ele>90.0</ele><time>2026-05-03T08:42:21.998Z</time></trkpt><trkpt lat="39.795003298465275" lon="8.68891348049471"><ele>90.0</ele><time>2026-05-03T08:42:22.998Z</time></trkpt><trkpt lat="39.7951522996525" lon="8.688951121328325"><ele>90.0</ele><time>2026-05-03T08:42:23.998Z</time></trkpt><trkpt lat="39.795299131413636" lon="8.688978691341235"><ele>90.0</ele><time>2026-05-03T08:42:24.998Z</time></trkpt><trkpt lat="39.795460385276954" lon="8.689011051799215"><ele>90.66666666666667</ele><time>2026-05-03T08:42:25.998Z</time></trkpt><trkpt lat="39.795632359547355" lon="8.689048160107134"><ele>91.33333333333334</ele><time>2026-05-03T08:42:26.998Z</time></trkpt><trkpt lat="39.7957848930845" lon="8.68908675659177"><ele>92.0</ele><time>2026-05-03T08:42:27.998Z</time></trkpt><trkpt lat="39.79591002571191" lon="8.689134315620695"><ele>92.19999999999999</ele><time>2026-05-03T08:42:28.998Z</time></trkpt><trkpt lat="39.796005744432264" lon="8.689187612042852"><ele>92.4</ele><time>2026-05-03T08:42:29.998Z</time></trkpt><trkpt lat="39.79608796443716" lon="8.689241101054451"><ele>92.6</ele><time>2026-05-03T08:42:30.998Z</time></trkpt><trkpt lat="39.79614677251263" lon="8.689296896060753"><ele>92.80000000000001</ele><time>2026-05-03T08:42:31.998Z</time></trkpt><trkpt lat="39.79619789879933" lon="8.68934725490549"><ele>93.0</ele><time>2026-05-03T08:42:32.998Z</time></trkpt><trkpt lat="39.79631488999144" lon="8.689339676382035"><ele>93.0</ele><time>2026-05-03T08:42:34.998Z</time></trkpt><trkpt lat="39.79638187624558" lon="8.689309246421873"><ele>93.0</ele><time>2026-05-03T08:42:35.998Z</time></trkpt><trkpt lat="39.796454399326294" lon="8.689290029640238"><ele>93.0</ele><time>2026-05-03T08:42:36.998Z</time></trkpt><trkpt lat="39.79651749490456" lon="8.689306466352702"><ele>93.0</ele><time>2026-05-03T08:42:37.998Z</time></trkpt><trkpt lat="39.79659856347675" lon="8.689342100901476"><ele>93.0</ele><time>2026-05-03T08:42:38.999Z</time></trkpt><trkpt lat="39.796704775054586" lon="8.689381433334365"><ele>93.0</ele><time>2026-05-03T08:42:39.999Z</time></trkpt><trkpt lat="39.796836054560345" lon="8.689418552218186"><ele>93.80000000000001</ele><time>2026-05-03T08:42:40.999Z</time></trkpt><trkpt lat="39.79697082618044" lon="8.689461242956192"><ele>94.6</ele><time>2026-05-03T08:42:41.999Z</time></trkpt><trkpt lat="39.79710122090014" lon="8.689508277296472"><ele>95.4</ele><time>2026-05-03T08:42:42.999Z</time></trkpt><trkpt lat="39.79719924466876" lon="8.689542843432644"><ele>96.19999999999999</ele><time>2026-05-03T08:42:43.999Z</time></trkpt><trkpt lat="39.79726200814049" lon="8.689568694610317"><ele>97.0</ele><time>2026-05-03T08:42:44.999Z</time></trkpt><trkpt lat="39.79732505548396" lon="8.689671613937707"><ele>97.0</ele><time>2026-05-03T08:42:46.999Z</time></trkpt><trkpt lat="39.79736521966058" lon="8.689778454043232"><ele>97.0</ele><time>2026-05-03T08:42:47.999Z</time></trkpt><trkpt lat="39.79741305041075" lon="8.689919983113477"><ele>97.0</ele><time>2026-05-03T08:42:48.999Z</time></trkpt><trkpt lat="39.7974802045593" lon="8.690095336565246"><ele>97.0</ele><time>2026-05-03T08:42:49.999Z</time></trkpt><trkpt lat="39.79756949967363" lon="8.690292364269029"><ele>98.33333333333334</ele><time>2026-05-03T08:42:50.999Z</time></trkpt><trkpt lat="39.79767228752789" lon="8.690508134407182"><ele>99.66666666666666</ele><time>2026-05-03T08:42:51.999Z</time></trkpt><trkpt lat="39.7977746208311" lon="8.690724030341384"><ele>101.0</ele><time>2026-05-03T08:42:52.999Z</time></trkpt><trkpt lat="39.797863697610985" lon="8.690912248492609"><ele>101.0</ele><time>2026-05-03T08:42:53.999Z</time></trkpt><trkpt lat="39.7979545651704" lon="8.691083658541547"><ele>101.0</ele><time>2026-05-03T08:42:54.999Z</time></trkpt><trkpt lat="39.79802950715637" lon="8.691242244799662"><ele>101.0</ele><time>2026-05-03T08:42:55.999Z</time></trkpt><trkpt lat="39.79809143930912" lon="8.691386604102298"><ele>101.0</ele><time>2026-05-03T08:42:56.999Z</time></trkpt><trkpt lat="39.79815978522318" lon="8.691504583746463"><ele>101.5</ele><time>2026-05-03T08:42:57.999Z</time></trkpt><trkpt lat="39.798244661891665" lon="8.69159011015605"><ele>102.0</ele><time>2026-05-03T08:42:58.999Z</time></trkpt><trkpt lat="39.79835077085879" lon="8.691651273945824"><ele>102.5</ele><time>2026-05-03T08:42:59.999Z</time></trkpt><trkpt lat="39.79848558676578" lon="8.691699863746008"><ele>103.0</ele><time>2026-05-03T08:43:00.999Z</time></trkpt><trkpt lat="39.798628054436044" lon="8.691760090320587"><ele>103.60000000000001</ele><time>2026-05-03T08:43:01.999Z</time></trkpt><trkpt lat="39.79873494267581" lon="8.691822037127068"><ele>104.2</ele><time>2026-05-03T08:43:02.999Z</time></trkpt><trkpt lat="39.79881901666185" lon="8.6918962454506"><ele>104.8</ele><time>2026-05-03T08:43:03.999Z</time></trkpt><trkpt lat="39.79888364827532" lon="8.691984509579207"><ele>105.4</ele><time>2026-05-03T08:43:04.999Z</time></trkpt><trkpt lat="39.798937850817325" lon="8.692085209400597"><ele>106.0</ele><time>2026-05-03T08:43:05.999Z</time></trkpt><trkpt lat="39.79900889779863" lon="8.692203605428455"><ele>106.8</ele><time>2026-05-03T08:43:06.999Z</time></trkpt><trkpt lat="39.79909006365477" lon="8.692327270127285"><ele>107.6</ele><time>2026-05-03T08:43:07.999Z</time></trkpt><trkpt lat="39.799150883307625" lon="8.692444487721115"><ele>108.4</ele><time>2026-05-03T08:43:08.999Z</time></trkpt><trkpt lat="39.799212054168805" lon="8.692554896726016"><ele>109.2</ele><time>2026-05-03T08:43:09.999Z</time></trkpt><trkpt lat="39.79927983656583" lon="8.6926383581468"><ele>110.0</ele><time>2026-05-03T08:43:10.999Z</time></trkpt><trkpt lat="39.79935513742499" lon="8.692689863272445"><ele>110.75</ele><time>2026-05-03T08:43:11.999Z</time></trkpt><trkpt lat="39.79945737709548" lon="8.692714118962515"><ele>111.5</ele><time>2026-05-03T08:43:12.999Z</time></trkpt><trkpt lat="39.799594245248954" lon="8.692748529079022"><ele>112.25</ele><time>2026-05-03T08:43:13.999Z</time></trkpt><trkpt lat="39.799743416588385" lon="8.69281607592352"><ele>113.0</ele><time>2026-05-03T08:43:14.999Z</time></trkpt><trkpt lat="39.79989855791646" lon="8.692892989571588"><ele>115.0</ele><time>2026-05-03T08:43:15.999Z</time></trkpt><trkpt lat="39.80005258969106" lon="8.692973414021662"><ele>117.0</ele><time>2026-05-03T08:43:16.999Z</time></trkpt><trkpt lat="39.80022848753286" lon="8.693049140980053"><ele>119.0</ele><time>2026-05-03T08:43:17.999Z</time></trkpt><trkpt lat="39.80040863228062" lon="8.693120550433033"><ele>119.75</ele><time>2026-05-03T08:43:18.999Z</time></trkpt><trkpt lat="39.80057317915855" lon="8.69319406182676"><ele>120.5</ele><time>2026-05-03T08:43:19.999Z</time></trkpt><trkpt lat="39.8006874145173" lon="8.69326372477317"><ele>121.25</ele><time>2026-05-03T08:43:20.999Z</time></trkpt><trkpt lat="39.80079116371585" lon="8.693336502229707"><ele>122.0</ele><time>2026-05-03T08:43:21.999Z</time></trkpt><trkpt lat="39.80090361612723" lon="8.693427967881906"><ele>122.25</ele><time>2026-05-03T08:43:22.999Z</time></trkpt><trkpt lat="39.80101301565125" lon="8.693506962648893"><ele>122.5</ele><time>2026-05-03T08:43:23.999Z</time></trkpt><trkpt lat="39.80111516166996" lon="8.693587047688403"><ele>122.75</ele><time>2026-05-03T08:43:24.999Z</time></trkpt><trkpt lat="39.80121354167978" lon="8.693701949477065"><ele>123.0</ele><time>2026-05-03T08:43:25.999Z</time></trkpt><trkpt lat="39.80131360756115" lon="8.693839412132464"><ele>124.2</ele><time>2026-05-03T08:43:26.999Z</time></trkpt><trkpt lat="39.801384917619295" lon="8.693940845740654"><ele>125.4</ele><time>2026-05-03T08:43:27.999Z</time></trkpt><trkpt lat="39.80144406028999" lon="8.694013077005328"><ele>126.60000000000001</ele><time>2026-05-03T08:43:28.999Z</time></trkpt><trkpt lat="39.80152098181023" lon="8.694045780462508"><ele>127.80000000000001</ele><time>2026-05-03T08:43:29.999Z</time></trkpt><trkpt lat="39.80161739404153" lon="8.69404921771656"><ele>129.0</ele><time>2026-05-03T08:43:30.999Z</time></trkpt><trkpt lat="39.801731489511525" lon="8.694031068399202"><ele>129.0</ele><time>2026-05-03T08:43:31.999Z</time></trkpt><trkpt lat="39.80185686054997" lon="8.694023528824484"><ele>129.0</ele><time>2026-05-03T08:43:32.999Z</time></trkpt><trkpt lat="39.801991788204965" lon="8.694040120460837"><ele>129.0</ele><time>2026-05-03T08:43:33.999Z</time></trkpt><trkpt lat="39.80212827275344" lon="8.694064588029423"><ele>129.0</ele><time>2026-05-03T08:43:34.999Z</time></trkpt><trkpt lat="39.80225074930058" lon="8.694072369693872"><ele>129.0</ele><time>2026-05-03T08:43:35.999Z</time></trkpt><trkpt lat="39.80235569460789" lon="8.694093181082838"><ele>129.0</ele><time>2026-05-03T08:43:36.999Z</time></trkpt><trkpt lat="39.80245277979773" lon="8.694137771784831"><ele>129.0</ele><time>2026-05-03T08:43:37.999Z</time></trkpt><trkpt lat="39.802545731385614" lon="8.694187677992007"><ele>129.0</ele><time>2026-05-03T08:43:38.999Z</time></trkpt><trkpt lat="39.8026619563285" lon="8.694225369954571"><ele>129.0</ele><time>2026-05-03T08:43:39.999Z</time></trkpt><trkpt lat="39.80277102417494" lon="8.694242353777547"><ele>129.16666666666666</ele><time>2026-05-03T08:43:40.999Z</time></trkpt><trkpt lat="39.80286661320786" lon="8.694257659608592"><ele>129.33333333333334</ele><time>2026-05-03T08:43:41.999Z</time></trkpt><trkpt lat="39.80294544302773" lon="8.694274038266833"><ele>129.5</ele><time>2026-05-03T08:43:42.999Z</time></trkpt><trkpt lat="39.803022337153244" lon="8.69422016346556"><ele>129.66666666666669</ele><time>2026-05-03T08:43:45.999Z</time></trkpt><trkpt lat="39.80307521126061" lon="8.694127725397903"><ele>129.83333333333334</ele><time>2026-05-03T08:43:47.999Z</time></trkpt><trkpt lat="39.80315188562059" lon="8.694129875585267"><ele>130.0</ele><time>2026-05-03T08:43:49.999Z</time></trkpt><trkpt lat="39.803319325245155" lon="8.694108241320839"><ele>130.0</ele><time>2026-05-03T08:43:50.999Z</time></trkpt><trkpt lat="39.803476201626275" lon="8.69412543262624"><ele>130.0</ele><time>2026-05-03T08:43:51.999Z</time></trkpt><trkpt lat="39.80362066886061" lon="8.69414109054229"><ele>130.0</ele><time>2026-05-03T08:43:52.999Z</time></trkpt><trkpt lat="39.80375565078611" lon="8.694159832089312"><ele>130.0</ele><time>2026-05-03T08:43:53.999Z</time></trkpt><trkpt lat="39.80395343151333" lon="8.694183941017988"><ele>130.0</ele><time>2026-05-03T08:43:54.999Z</time></trkpt><trkpt lat="39.80415693300183" lon="8.694205613982389"><ele>130.0</ele><time>2026-05-03T08:43:55.999Z</time></trkpt><trkpt lat="39.80431566282733" lon="8.694222289253528"><ele>130.0</ele><time>2026-05-03T08:43:56.999Z</time></trkpt><trkpt lat="39.80446202700032" lon="8.694247595953573"><ele>130.0</ele><time>2026-05-03T08:43:57.999Z</time></trkpt><trkpt lat="39.80458017373676" lon="8.694277193627109"><ele>130.0</ele><time>2026-05-03T08:43:58.998Z</time></trkpt><trkpt lat="39.80468192362172" lon="8.694301726694526"><ele>130.0</ele><time>2026-05-03T08:43:59.998Z</time></trkpt><trkpt lat="39.80476139163568" lon="8.69419953060702"><ele>130.0</ele><time>2026-05-03T08:44:02.998Z</time></trkpt><trkpt lat="39.8047673083364" lon="8.694108123087478"><ele>130.0</ele><time>2026-05-03T08:44:03.998Z</time></trkpt><trkpt lat="39.80479756686371" lon="8.693988090637397"><ele>130.0</ele><time>2026-05-03T08:44:04.998Z</time></trkpt><trkpt lat="39.80485600154936" lon="8.693834015414788"><ele>130.0</ele><time>2026-05-03T08:44:05.998Z</time></trkpt><trkpt lat="39.80492411936996" lon="8.693661420496893"><ele>130.0</ele><time>2026-05-03T08:44:06.998Z</time></trkpt><trkpt lat="39.80498073741655" lon="8.693501306247384"><ele>130.0</ele><time>2026-05-03T08:44:07.998Z</time></trkpt><trkpt lat="39.8050345252848" lon="8.693347502374694"><ele>129.0</ele><time>2026-05-03T08:44:08.998Z</time></trkpt><trkpt lat="39.80506583190284" lon="8.693219410695168"><ele>128.0</ele><time>2026-05-03T08:44:09.998Z</time></trkpt><trkpt lat="39.8051210843558" lon="8.693057521169553"><ele>127.0</ele><time>2026-05-03T08:44:10.998Z</time></trkpt><trkpt lat="39.80516550629589" lon="8.692913079351296"><ele>126.0</ele><time>2026-05-03T08:44:11.998Z</time></trkpt><trkpt lat="39.805200221488434" lon="8.692749370329066"><ele>124.25</ele><time>2026-05-03T08:44:12.998Z</time></trkpt><trkpt lat="39.805232294924565" lon="8.692572077294972"><ele>122.5</ele><time>2026-05-03T08:44:13.998Z</time></trkpt><trkpt lat="39.805260578303916" lon="8.692380679415097"><ele>120.75</ele><time>2026-05-03T08:44:14.998Z</time></trkpt><trkpt lat="39.80528859749789" lon="8.692185215752172"><ele>119.0</ele><time>2026-05-03T08:44:15.998Z</time></trkpt><trkpt lat="39.80532735044228" lon="8.691988410449635"><ele>118.0</ele><time>2026-05-03T08:44:16.998Z</time></trkpt><trkpt lat="39.80537517592987" lon="8.691775042358078"><ele>117.0</ele><time>2026-05-03T08:44:17.998Z</time></trkpt><trkpt lat="39.80542967646771" lon="8.691572885214761"><ele>116.0</ele><time>2026-05-03T08:44:18.998Z</time></trkpt><trkpt lat="39.8054809537203" lon="8.69136360340678"><ele>116.0</ele><time>2026-05-03T08:44:19.998Z</time></trkpt><trkpt lat="39.80553257662302" lon="8.691140770140764"><ele>116.0</ele><time>2026-05-03T08:44:20.998Z</time></trkpt><trkpt lat="39.80558914408588" lon="8.690913059032026"><ele>116.0</ele><time>2026-05-03T08:44:21.998Z</time></trkpt><trkpt lat="39.80564409621729" lon="8.69067354760691"><ele>114.66666666666666</ele><time>2026-05-03T08:44:22.998Z</time></trkpt><trkpt lat="39.80570186766734" lon="8.690424402159413"><ele>113.33333333333334</ele><time>2026-05-03T08:44:23.998Z</time></trkpt><trkpt lat="39.805771786465556" lon="8.69015367884062"><ele>112.0</ele><time>2026-05-03T08:44:24.998Z</time></trkpt><trkpt lat="39.805839069105744" lon="8.689870288934065"><ele>110.0</ele><time>2026-05-03T08:44:25.998Z</time></trkpt><trkpt lat="39.80591623845065" lon="8.689556298776093"><ele>108.0</ele><time>2026-05-03T08:44:26.998Z</time></trkpt><trkpt lat="39.805995557929926" lon="8.689229330706844"><ele>105.0</ele><time>2026-05-03T08:44:27.998Z</time></trkpt><trkpt lat="39.80612911422866" lon="8.68889128943527"><ele>102.0</ele><time>2026-05-03T08:44:28.998Z</time></trkpt><trkpt lat="39.80621115919108" lon="8.688583108112764"><ele>100.0</ele><time>2026-05-03T08:44:29.998Z</time></trkpt><trkpt lat="39.806211020368764" lon="8.688415410287412"><ele>98.0</ele><time>2026-05-03T08:44:30.998Z</time></trkpt><trkpt lat="39.80623407290294" lon="8.68818444099346"><ele>96.0</ele><time>2026-05-03T08:44:31.998Z</time></trkpt><trkpt lat="39.80630092537736" lon="8.68792518296907"><ele>94.66666666666667</ele><time>2026-05-03T08:44:32.998Z</time></trkpt><trkpt lat="39.806363868836826" lon="8.687681523845859"><ele>93.33333333333334</ele><time>2026-05-03T08:44:33.998Z</time></trkpt><trkpt lat="39.806424215070386" lon="8.68743227235076"><ele>92.0</ele><time>2026-05-03T08:44:34.998Z</time></trkpt><trkpt lat="39.80648967275221" lon="8.687183311701146"><ele>92.0</ele><time>2026-05-03T08:44:35.999Z</time></trkpt><trkpt lat="39.80654627676388" lon="8.686934418558241"><ele>92.0</ele><time>2026-05-03T08:44:36.999Z</time></trkpt><trkpt lat="39.80660785547375" lon="8.686655887644214"><ele>92.0</ele><time>2026-05-03T08:44:37.999Z</time></trkpt><trkpt lat="39.80668884948829" lon="8.68635042841152"><ele>89.0</ele><time>2026-05-03T08:44:38.999Z</time></trkpt><trkpt lat="39.806771071322075" lon="8.686039053974177"><ele>86.0</ele><time>2026-05-03T08:44:39.999Z</time></trkpt><trkpt lat="39.806837497040426" lon="8.685755311466748"><ele>85.66666666666667</ele><time>2026-05-03T08:44:40.999Z</time></trkpt><trkpt lat="39.80690200990583" lon="8.685502118120798"><ele>85.33333333333333</ele><time>2026-05-03T08:44:41.999Z</time></trkpt><trkpt lat="39.80695899161114" lon="8.685260112147764"><ele>85.0</ele><time>2026-05-03T08:44:42.999Z</time></trkpt><trkpt lat="39.807012759313935" lon="8.685029768496676"><ele>84.0</ele><time>2026-05-03T08:44:43.999Z</time></trkpt><trkpt lat="39.807069171464875" lon="8.684795157211127"><ele>83.0</ele><time>2026-05-03T08:44:45Z</time></trkpt><trkpt lat="39.80712813860418" lon="8.684569246929382"><ele>82.0</ele><time>2026-05-03T08:44:46Z</time></trkpt><trkpt lat="39.807187291614206" lon="8.684343272213875"><ele>81.0</ele><time>2026-05-03T08:44:47Z</time></trkpt><trkpt lat="39.80727048291652" lon="8.684105284336516"><ele>80.0</ele><time>2026-05-03T08:44:48Z</time></trkpt><trkpt lat="39.80733186344269" lon="8.68383216668849"><ele>79.0</ele><time>2026-05-03T08:44:49Z</time></trkpt><trkpt lat="39.80742325445661" lon="8.683543565514631"><ele>77.0</ele><time>2026-05-03T08:44:50Z</time></trkpt><trkpt lat="39.80752101387143" lon="8.683234526030663"><ele>75.0</ele><time>2026-05-03T08:44:51Z</time></trkpt><trkpt lat="39.80761984173401" lon="8.682914280664367"><ele>72.5</ele><time>2026-05-03T08:44:52Z</time></trkpt><trkpt lat="39.8077139203758" lon="8.682604433491653"><ele>70.0</ele><time>2026-05-03T08:44:53Z</time></trkpt><trkpt lat="39.8078083551041" lon="8.682296091275868"><ele>70.0</ele><time>2026-05-03T08:44:54Z</time></trkpt><trkpt lat="39.80790381438839" lon="8.681989173080435"><ele>70.0</ele><time>2026-05-03T08:44:55Z</time></trkpt><trkpt lat="39.80798882728564" lon="8.681696857122736"><ele>69.66666666666666</ele><time>2026-05-03T08:44:56Z</time></trkpt><trkpt lat="39.80807234223902" lon="8.68142141907948"><ele>69.33333333333333</ele><time>2026-05-03T08:44:57Z</time></trkpt><trkpt lat="39.80815350900932" lon="8.681158555560549"><ele>69.0</ele><time>2026-05-03T08:44:58Z</time></trkpt><trkpt lat="39.80822620123384" lon="8.68091178428119"><ele>68.0</ele><time>2026-05-03T08:44:59Z</time></trkpt><trkpt lat="39.808300093457994" lon="8.680665460753948"><ele>67.0</ele><time>2026-05-03T08:45:00Z</time></trkpt><trkpt lat="39.80837704386822" lon="8.680407635403649"><ele>66.0</ele><time>2026-05-03T08:45:01Z</time></trkpt><trkpt lat="39.80845345370759" lon="8.680156831719852"><ele>65.0</ele><time>2026-05-03T08:45:02Z</time></trkpt><trkpt lat="39.80852346139046" lon="8.679925228156346"><ele>64.0</ele><time>2026-05-03T08:45:03Z</time></trkpt><trkpt lat="39.808582671693365" lon="8.679715754703317"><ele>63.0</ele><time>2026-05-03T08:45:04Z</time></trkpt><trkpt lat="39.808641833822946" lon="8.679516838695193"><ele>62.0</ele><time>2026-05-03T08:45:05Z</time></trkpt><trkpt lat="39.808707989738906" lon="8.679325749434977"><ele>61.0</ele><time>2026-05-03T08:45:06Z</time></trkpt><trkpt lat="39.80876327287205" lon="8.679142001913885"><ele>60.0</ele><time>2026-05-03T08:45:07Z</time></trkpt><trkpt lat="39.80881481859777" lon="8.678964173456746"><ele>60.0</ele><time>2026-05-03T08:45:08Z</time></trkpt><trkpt lat="39.80886602211863" lon="8.67879532296029"><ele>60.0</ele><time>2026-05-03T08:45:09Z</time></trkpt><trkpt lat="39.808909743284524" lon="8.678649228718514"><ele>60.0</ele><time>2026-05-03T08:45:10Z</time></trkpt><trkpt lat="39.808932783463" lon="8.678553935539888"><ele>60.0</ele><time>2026-05-03T08:45:11Z</time></trkpt><trkpt lat="39.808953630857886" lon="8.678472031932117"><ele>60.0</ele><time>2026-05-03T08:45:14Z</time></trkpt><trkpt lat="39.80900926897044" lon="8.678350293802994"><ele>59.0</ele><time>2026-05-03T08:45:17Z</time></trkpt><trkpt lat="39.80901881180931" lon="8.678242118132165"><ele>58.0</ele><time>2026-05-03T08:45:18Z</time></trkpt><trkpt lat="39.80900573444999" lon="8.678111534147181"><ele>57.0</ele><time>2026-05-03T08:45:19Z</time></trkpt><trkpt lat="39.808986084956906" lon="8.677946552999696"><ele>56.0</ele><time>2026-05-03T08:45:20Z</time></trkpt><trkpt lat="39.80898212885229" lon="8.677762503846806"><ele>55.66666666666667</ele><time>2026-05-03T08:45:21Z</time></trkpt><trkpt lat="39.80898443118069" lon="8.677553515720241"><ele>55.33333333333333</ele><time>2026-05-03T08:45:22Z</time></trkpt><trkpt lat="39.80898474502078" lon="8.677314308656022"><ele>55.0</ele><time>2026-05-03T08:45:23Z</time></trkpt><trkpt lat="39.80897982940043" lon="8.67706381210293"><ele>54.33333333333333</ele><time>2026-05-03T08:45:24Z</time></trkpt><trkpt lat="39.80897371161553" lon="8.676786963343131"><ele>53.66666666666667</ele><time>2026-05-03T08:45:25Z</time></trkpt><trkpt lat="39.80896692973937" lon="8.67650221592545"><ele>53.0</ele><time>2026-05-03T08:45:26Z</time></trkpt><trkpt lat="39.80896466136707" lon="8.676198984746975"><ele>52.0</ele><time>2026-05-03T08:45:27Z</time></trkpt><trkpt lat="39.808958083313186" lon="8.67588962096543"><ele>51.0</ele><time>2026-05-03T08:45:28Z</time></trkpt><trkpt lat="39.80895499679098" lon="8.675592890751853"><ele>51.0</ele><time>2026-05-03T08:45:29Z</time></trkpt><trkpt lat="39.80895215546322" lon="8.675294001880987"><ele>51.0</ele><time>2026-05-03T08:45:30Z</time></trkpt><trkpt lat="39.80895119654372" lon="8.674989310941791"><ele>51.0</ele><time>2026-05-03T08:45:31Z</time></trkpt><trkpt lat="39.80894778905618" lon="8.674681751727435"><ele>51.0</ele><time>2026-05-03T08:45:32Z</time></trkpt><trkpt lat="39.80894191061823" lon="8.674377677223033"><ele>50.0</ele><time>2026-05-03T08:45:33Z</time></trkpt><trkpt lat="39.808938864965796" lon="8.674072624849765"><ele>49.0</ele><time>2026-05-03T08:45:34Z</time></trkpt><trkpt lat="39.80894009737301" lon="8.673772535030277"><ele>48.0</ele><time>2026-05-03T08:45:35Z</time></trkpt><trkpt lat="39.808938726835976" lon="8.673478085133848"><ele>47.0</ele><time>2026-05-03T08:45:36Z</time></trkpt><trkpt lat="39.80893837043466" lon="8.67317925451884"><ele>47.0</ele><time>2026-05-03T08:45:37Z</time></trkpt><trkpt lat="39.80893584719567" lon="8.672889025402217"><ele>47.0</ele><time>2026-05-03T08:45:38Z</time></trkpt><trkpt lat="39.808930456095645" lon="8.672597296399786"><ele>47.0</ele><time>2026-05-03T08:45:39Z</time></trkpt><trkpt lat="39.808934433885426" lon="8.67231368809454"><ele>46.666666666666664</ele><time>2026-05-03T08:45:40Z</time></trkpt><trkpt lat="39.80893332437897" lon="8.672024389359525"><ele>46.333333333333336</ele><time>2026-05-03T08:45:41Z</time></trkpt><trkpt lat="39.80892473366737" lon="8.671739792499169"><ele>46.0</ele><time>2026-05-03T08:45:42Z</time></trkpt><trkpt lat="39.80891899723411" lon="8.671459247723462"><ele>46.0</ele><time>2026-05-03T08:45:43Z</time></trkpt><trkpt lat="39.808913344221516" lon="8.671175948720823"><ele>46.0</ele><time>2026-05-03T08:45:44Z</time></trkpt><trkpt lat="39.80890817357284" lon="8.670897127722435"><ele>46.0</ele><time>2026-05-03T08:45:45Z</time></trkpt><trkpt lat="39.8089065016455" lon="8.670615519777504"><ele>45.66666666666667</ele><time>2026-05-03T08:45:46Z</time></trkpt><trkpt lat="39.80890826529239" lon="8.670334342146266"><ele>45.333333333333336</ele><time>2026-05-03T08:45:47Z</time></trkpt><trkpt lat="39.8089071886462" lon="8.670057774689525"><ele>45.0</ele><time>2026-05-03T08:45:48Z</time></trkpt><trkpt lat="39.80890537161092" lon="8.669785790771504"><ele>44.333333333333336</ele><time>2026-05-03T08:45:49Z</time></trkpt><trkpt lat="39.80892538384518" lon="8.669535484832046"><ele>43.66666666666667</ele><time>2026-05-03T08:45:50Z</time></trkpt><trkpt lat="39.80898437691129" lon="8.669279000074512"><ele>43.0</ele><time>2026-05-03T08:45:51Z</time></trkpt><trkpt lat="39.80908107520886" lon="8.669031000182938"><ele>43.0</ele><time>2026-05-03T08:45:52Z</time></trkpt><trkpt lat="39.80919838297511" lon="8.668790188006154"><ele>43.0</ele><time>2026-05-03T08:45:53Z</time></trkpt><trkpt lat="39.80930963226176" lon="8.668538341188537"><ele>43.0</ele><time>2026-05-03T08:45:54Z</time></trkpt><trkpt lat="39.80940983698681" lon="8.66826994400036"><ele>42.0</ele><time>2026-05-03T08:45:55Z</time></trkpt><trkpt lat="39.80950123412828" lon="8.668014631791822"><ele>41.0</ele><time>2026-05-03T08:45:56Z</time></trkpt><trkpt lat="39.80962179779811" lon="8.667747400439698"><ele>41.0</ele><time>2026-05-03T08:45:57Z</time></trkpt><trkpt lat="39.809721109190335" lon="8.667512135828607"><ele>41.0</ele><time>2026-05-03T08:45:58Z</time></trkpt><trkpt lat="39.80980582041138" lon="8.66729330918465"><ele>41.0</ele><time>2026-05-03T08:45:59Z</time></trkpt><trkpt lat="39.80986861388871" lon="8.66707541438713"><ele>40.33333333333333</ele><time>2026-05-03T08:46:00Z</time></trkpt><trkpt lat="39.80990681422627" lon="8.666832771400507"><ele>39.666666666666664</ele><time>2026-05-03T08:46:01Z</time></trkpt><trkpt lat="39.809916132865716" lon="8.666567720913854"><ele>39.0</ele><time>2026-05-03T08:46:02Z</time></trkpt><trkpt lat="39.80991187449546" lon="8.66633489940303"><ele>39.0</ele><time>2026-05-03T08:46:02.999Z</time></trkpt><trkpt lat="39.80991825521482" lon="8.666189563846661"><ele>39.0</ele><time>2026-05-03T08:46:03.999Z</time></trkpt><trkpt lat="39.809919139132326" lon="8.666079996264445"><ele>39.0</ele><time>2026-05-03T08:46:05.999Z</time></trkpt><trkpt lat="39.809873767553064" lon="8.666144592034293"><ele>39.0</ele><time>2026-05-03T08:46:08.999Z</time></trkpt><trkpt lat="39.809865285709556" lon="8.666252054939921"><ele>39.0</ele><time>2026-05-03T08:46:11.999Z</time></trkpt><trkpt lat="39.80972923316351" lon="8.666263084023647"><ele>39.0</ele><time>2026-05-03T08:46:13.999Z</time></trkpt><trkpt lat="39.80962771923412" lon="8.666207239155693"><ele>39.0</ele><time>2026-05-03T08:46:14.999Z</time></trkpt><trkpt lat="39.809495088697915" lon="8.666199523308416"><ele>39.0</ele><time>2026-05-03T08:46:15.999Z</time></trkpt><trkpt lat="39.8093368993731" lon="8.666191549139791"><ele>39.0</ele><time>2026-05-03T08:46:16.999Z</time></trkpt><trkpt lat="39.809158952601415" lon="8.66618257901716"><ele>39.333333333333336</ele><time>2026-05-03T08:46:17.999Z</time></trkpt><trkpt lat="39.808988166971154" lon="8.666174240777512"><ele>39.66666666666667</ele><time>2026-05-03T08:46:18.999Z</time></trkpt><trkpt lat="39.80881162271868" lon="8.666165784322677"><ele>40.0</ele><time>2026-05-03T08:46:19.999Z</time></trkpt><trkpt lat="39.80863810289282" lon="8.666157472738066"><ele>39.75</ele><time>2026-05-03T08:46:20.999Z</time></trkpt><trkpt lat="39.808481953926524" lon="8.666150350120244"><ele>39.5</ele><time>2026-05-03T08:46:21.999Z</time></trkpt><trkpt lat="39.80834125289524" lon="8.666144529957489"><ele>39.25</ele><time>2026-05-03T08:46:22.999Z</time></trkpt><trkpt lat="39.808196911151285" lon="8.666138559195137"><ele>39.0</ele><time>2026-05-03T08:46:23.999Z</time></trkpt><trkpt lat="39.808043807895714" lon="8.666132226006749"><ele>39.0</ele><time>2026-05-03T08:46:24.999Z</time></trkpt><trkpt lat="39.80788028901364" lon="8.666125461973683"><ele>39.0</ele><time>2026-05-03T08:46:25.999Z</time></trkpt><trkpt lat="39.80771275081382" lon="8.666117696618107"><ele>39.0</ele><time>2026-05-03T08:46:26.999Z</time></trkpt><trkpt lat="39.807552241037286" lon="8.66610931294748"><ele>39.25</ele><time>2026-05-03T08:46:27.999Z</time></trkpt><trkpt lat="39.807401565039804" lon="8.666101442908227"><ele>39.5</ele><time>2026-05-03T08:46:28.999Z</time></trkpt><trkpt lat="39.807258444543855" lon="8.666114358645123"><ele>39.75</ele><time>2026-05-03T08:46:29.999Z</time></trkpt><trkpt lat="39.80711672112159" lon="8.666097838336007"><ele>40.0</ele><time>2026-05-03T08:46:30.999Z</time></trkpt><trkpt lat="39.80697567667605" lon="8.666036890508673"><ele>40.0</ele><time>2026-05-03T08:46:31.999Z</time></trkpt><trkpt lat="39.80682939529451" lon="8.665971512235926"><ele>40.0</ele><time>2026-05-03T08:46:32.999Z</time></trkpt><trkpt lat="39.80667715679866" lon="8.665894848306195"><ele>40.0</ele><time>2026-05-03T08:46:33.999Z</time></trkpt><trkpt lat="39.8065172826725" lon="8.665816408029153"><ele>40.0</ele><time>2026-05-03T08:46:34.999Z</time></trkpt><trkpt lat="39.8063517370934" lon="8.665736684277432"><ele>40.0</ele><time>2026-05-03T08:46:35.999Z</time></trkpt><trkpt lat="39.806188929832416" lon="8.665669101644406"><ele>40.0</ele><time>2026-05-03T08:46:36.999Z</time></trkpt><trkpt lat="39.80605394454887" lon="8.665597927287928"><ele>40.0</ele><time>2026-05-03T08:46:37.999Z</time></trkpt><trkpt lat="39.80593059059309" lon="8.665531483066518"><ele>40.0</ele><time>2026-05-03T08:46:38.999Z</time></trkpt><trkpt lat="39.80581373562461" lon="8.665472212768707"><ele>40.0</ele><time>2026-05-03T08:46:39.999Z</time></trkpt><trkpt lat="39.80570514361456" lon="8.665416880770733"><ele>40.0</ele><time>2026-05-03T08:46:40.999Z</time></trkpt><trkpt lat="39.80559902441327" lon="8.665360789588668"><ele>40.0</ele><time>2026-05-03T08:46:41.999Z</time></trkpt><trkpt lat="39.80547357526136" lon="8.665294481218151"><ele>40.0</ele><time>2026-05-03T08:46:42.999Z</time></trkpt><trkpt lat="39.805327850577264" lon="8.66524047339022"><ele>40.0</ele><time>2026-05-03T08:46:43.999Z</time></trkpt><trkpt lat="39.80517937153043" lon="8.665140823571084"><ele>39.66666666666667</ele><time>2026-05-03T08:46:44.999Z</time></trkpt><trkpt lat="39.80502019730651" lon="8.665058428581501"><ele>39.333333333333336</ele><time>2026-05-03T08:46:45.999Z</time></trkpt><trkpt lat="39.80486003128257" lon="8.664974881420893"><ele>39.0</ele><time>2026-05-03T08:46:46.999Z</time></trkpt><trkpt lat="39.804695857357316" lon="8.66489047624573"><ele>39.0</ele><time>2026-05-03T08:46:47.999Z</time></trkpt><trkpt lat="39.80453092369314" lon="8.664811271703417"><ele>39.0</ele><time>2026-05-03T08:46:48.999Z</time></trkpt><trkpt lat="39.8043586374183" lon="8.664751093384407"><ele>39.0</ele><time>2026-05-03T08:46:49.999Z</time></trkpt><trkpt lat="39.80418911366123" lon="8.664656711785215"><ele>39.0</ele><time>2026-05-03T08:46:51Z</time></trkpt><trkpt lat="39.80402702260354" lon="8.664543350040617"><ele>39.0</ele><time>2026-05-03T08:46:52Z</time></trkpt><trkpt lat="39.80386820671815" lon="8.664460754649248"><ele>39.0</ele><time>2026-05-03T08:46:53Z</time></trkpt><trkpt lat="39.80371356519343" lon="8.66439183248865"><ele>39.0</ele><time>2026-05-03T08:46:54Z</time></trkpt><trkpt lat="39.803543991778355" lon="8.664331218404454"><ele>39.0</ele><time>2026-05-03T08:46:55Z</time></trkpt><trkpt lat="39.80336335327513" lon="8.664298457881813"><ele>39.0</ele><time>2026-05-03T08:46:56Z</time></trkpt><trkpt lat="39.80319232006409" lon="8.664237289444806"><ele>39.0</ele><time>2026-05-03T08:46:57Z</time></trkpt><trkpt lat="39.80302621121193" lon="8.664198598979267"><ele>39.0</ele><time>2026-05-03T08:46:58Z</time></trkpt><trkpt lat="39.802865676202714" lon="8.664161694124308"><ele>39.0</ele><time>2026-05-03T08:46:59Z</time></trkpt><trkpt lat="39.80270820910883" lon="8.664125494543566"><ele>39.0</ele><time>2026-05-03T08:47:00Z</time></trkpt><trkpt lat="39.80256217505548" lon="8.664108204162504"><ele>39.0</ele><time>2026-05-03T08:47:01Z</time></trkpt><trkpt lat="39.80240160970691" lon="8.66405528534948"><ele>39.0</ele><time>2026-05-03T08:47:02Z</time></trkpt><trkpt lat="39.802227876382034" lon="8.66401733514651"><ele>39.0</ele><time>2026-05-03T08:47:03Z</time></trkpt><trkpt lat="39.80204357371286" lon="8.663977076177398"><ele>39.0</ele><time>2026-05-03T08:47:04Z</time></trkpt><trkpt lat="39.80184176000279" lon="8.663931540488312"><ele>39.0</ele><time>2026-05-03T08:47:05Z</time></trkpt><trkpt lat="39.80164341404381" lon="8.663885618872268"><ele>39.0</ele><time>2026-05-03T08:47:06Z</time></trkpt><trkpt lat="39.80143251099396" lon="8.663837209296402"><ele>39.0</ele><time>2026-05-03T08:47:07Z</time></trkpt><trkpt lat="39.80121190899594" lon="8.663788193505836"><ele>39.0</ele><time>2026-05-03T08:47:08Z</time></trkpt><trkpt lat="39.80097958017522" lon="8.663736572130654"><ele>39.0</ele><time>2026-05-03T08:47:09Z</time></trkpt><trkpt lat="39.80075312678124" lon="8.663686116745517"><ele>39.0</ele><time>2026-05-03T08:47:10Z</time></trkpt><trkpt lat="39.80052672305832" lon="8.663633276758693"><ele>38.666666666666664</ele><time>2026-05-03T08:47:11Z</time></trkpt><trkpt lat="39.80029477171936" lon="8.66357914202136"><ele>38.33333333333333</ele><time>2026-05-03T08:47:12Z</time></trkpt><trkpt lat="39.80008490460126" lon="8.663529714176912"><ele>38.0</ele><time>2026-05-03T08:47:13Z</time></trkpt><trkpt lat="39.7998781089139" lon="8.663476862186968"><ele>38.0</ele><time>2026-05-03T08:47:14Z</time></trkpt><trkpt lat="39.79966054751893" lon="8.66342680502707"><ele>38.0</ele><time>2026-05-03T08:47:15Z</time></trkpt><trkpt lat="39.799434560689335" lon="8.663375296889962"><ele>38.5</ele><time>2026-05-03T08:47:16Z</time></trkpt><trkpt lat="39.79920857413191" lon="8.663322663469485"><ele>39.0</ele><time>2026-05-03T08:47:17Z</time></trkpt><trkpt lat="39.798983285490145" lon="8.663264498492898"><ele>39.0</ele><time>2026-05-03T08:47:18Z</time></trkpt><trkpt lat="39.79875997869462" lon="8.663210136419782"><ele>39.0</ele><time>2026-05-03T08:47:19Z</time></trkpt><trkpt lat="39.798537071287974" lon="8.663163711696944"><ele>39.5</ele><time>2026-05-03T08:47:20Z</time></trkpt><trkpt lat="39.798306779270646" lon="8.663117248127802"><ele>40.0</ele><time>2026-05-03T08:47:21Z</time></trkpt><trkpt lat="39.79808468352856" lon="8.66306871955072"><ele>40.0</ele><time>2026-05-03T08:47:22Z</time></trkpt><trkpt lat="39.797885119311644" lon="8.663024348961088"><ele>40.0</ele><time>2026-05-03T08:47:23Z</time></trkpt><trkpt lat="39.79767386477238" lon="8.662977379178136"><ele>40.0</ele><time>2026-05-03T08:47:24Z</time></trkpt><trkpt lat="39.797461272003765" lon="8.662930111853662"><ele>39.75</ele><time>2026-05-03T08:47:25Z</time></trkpt><trkpt lat="39.79728685511713" lon="8.662890474034633"><ele>39.5</ele><time>2026-05-03T08:47:26Z</time></trkpt><trkpt lat="39.7971555147477" lon="8.662859530698553"><ele>39.25</ele><time>2026-05-03T08:47:27Z</time></trkpt><trkpt lat="39.79705027540157" lon="8.662834736671009"><ele>39.0</ele><time>2026-05-03T08:47:28Z</time></trkpt><trkpt lat="39.796950862171144" lon="8.662811315268822"><ele>39.0</ele><time>2026-05-03T08:47:29Z</time></trkpt><trkpt lat="39.79685970804995" lon="8.662789839647957"><ele>39.0</ele><time>2026-05-03T08:47:30Z</time></trkpt><trkpt lat="39.796773696586186" lon="8.662773521836234"><ele>39.0</ele><time>2026-05-03T08:47:31Z</time></trkpt><trkpt lat="39.79669217535581" lon="8.66276275635424"><ele>39.0</ele><time>2026-05-03T08:47:32Z</time></trkpt><trkpt lat="39.79660200073039" lon="8.662753090027286"><ele>39.0</ele><time>2026-05-03T08:47:33Z</time></trkpt><trkpt lat="39.7965082016674" lon="8.662756094678802"><ele>39.0</ele><time>2026-05-03T08:47:34Z</time></trkpt><trkpt lat="39.7964166833383" lon="8.662777412538167"><ele>39.0</ele><time>2026-05-03T08:47:35Z</time></trkpt><trkpt lat="39.79632890095157" lon="8.662817042977984"><ele>39.0</ele><time>2026-05-03T08:47:36Z</time></trkpt><trkpt lat="39.79623930973933" lon="8.662862840094565"><ele>39.0</ele><time>2026-05-03T08:47:37Z</time></trkpt><trkpt lat="39.79614255177419" lon="8.662919126473092"><ele>39.0</ele><time>2026-05-03T08:47:38Z</time></trkpt><trkpt lat="39.79604332685292" lon="8.662985690545947"><ele>39.0</ele><time>2026-05-03T08:47:39Z</time></trkpt><trkpt lat="39.79594054719213" lon="8.663045376802645"><ele>38.8</ele><time>2026-05-03T08:47:40Z</time></trkpt><trkpt lat="39.795835705070225" lon="8.66309774375528"><ele>38.599999999999994</ele><time>2026-05-03T08:47:41Z</time></trkpt><trkpt lat="39.795734445307076" lon="8.663123450689897"><ele>38.4</ele><time>2026-05-03T08:47:42Z</time></trkpt><trkpt lat="39.7956430502582" lon="8.663113907420366"><ele>38.199999999999996</ele><time>2026-05-03T08:47:43Z</time></trkpt><trkpt lat="39.79555409740733" lon="8.663075198367745"><ele>38.0</ele><time>2026-05-03T08:47:44Z</time></trkpt><trkpt lat="39.795459832578594" lon="8.663019461344712"><ele>38.0</ele><time>2026-05-03T08:47:45Z</time></trkpt><trkpt lat="39.795361171250136" lon="8.662933492740507"><ele>38.0</ele><time>2026-05-03T08:47:46Z</time></trkpt><trkpt lat="39.79525793255498" lon="8.66285184938036"><ele>38.0</ele><time>2026-05-03T08:47:47Z</time></trkpt><trkpt lat="39.79513674635159" lon="8.662777801797128"><ele>38.0</ele><time>2026-05-03T08:47:48Z</time></trkpt><trkpt lat="39.795014614026705" lon="8.662693596279302"><ele>37.666666666666664</ele><time>2026-05-03T08:47:49Z</time></trkpt><trkpt lat="39.79488355928742" lon="8.662609784513881"><ele>37.333333333333336</ele><time>2026-05-03T08:47:50Z</time></trkpt><trkpt lat="39.794749789793286" lon="8.662514053717743"><ele>37.0</ele><time>2026-05-03T08:47:51Z</time></trkpt><trkpt lat="39.794604166140914" lon="8.662416053242199"><ele>37.0</ele><time>2026-05-03T08:47:52Z</time></trkpt><trkpt lat="39.79444931785774" lon="8.662319952842452"><ele>37.0</ele><time>2026-05-03T08:47:53Z</time></trkpt><trkpt lat="39.79431230244982" lon="8.662241691106408"><ele>37.0</ele><time>2026-05-03T08:47:54Z</time></trkpt><trkpt lat="39.7941749512239" lon="8.662192475920687"><ele>37.25</ele><time>2026-05-03T08:47:55Z</time></trkpt><trkpt lat="39.79404155828207" lon="8.662186576199577"><ele>37.5</ele><time>2026-05-03T08:47:56Z</time></trkpt><trkpt lat="39.79390762190551" lon="8.66222497034858"><ele>37.75</ele><time>2026-05-03T08:47:57Z</time></trkpt><trkpt lat="39.793766524995455" lon="8.662267595615955"><ele>38.0</ele><time>2026-05-03T08:47:58Z</time></trkpt><trkpt lat="39.79360869327555" lon="8.662324244408042"><ele>37.75</ele><time>2026-05-03T08:47:59Z</time></trkpt><trkpt lat="39.79346457795262" lon="8.662390503544009"><ele>37.5</ele><time>2026-05-03T08:48:00Z</time></trkpt><trkpt lat="39.79334030435627" lon="8.662474611592021"><ele>37.25</ele><time>2026-05-03T08:48:01Z</time></trkpt><trkpt lat="39.79326514796442" lon="8.6626254254899"><ele>37.0</ele><time>2026-05-03T08:48:02Z</time></trkpt><trkpt lat="39.79320648704982" lon="8.662751470141233"><ele>36.75</ele><time>2026-05-03T08:48:03Z</time></trkpt><trkpt lat="39.793166269627875" lon="8.662905342435781"><ele>36.5</ele><time>2026-05-03T08:48:04Z</time></trkpt><trkpt lat="39.793124713323095" lon="8.663069134515288"><ele>36.25</ele><time>2026-05-03T08:48:04.999Z</time></trkpt><trkpt lat="39.793045659183214" lon="8.663176882758897"><ele>36.0</ele><time>2026-05-03T08:48:05.999Z</time></trkpt><trkpt lat="39.792965710084005" lon="8.663258382529767"><ele>36.0</ele><time>2026-05-03T08:48:06.999Z</time></trkpt><trkpt lat="39.79288334707122" lon="8.663308022102598"><ele>36.0</ele><time>2026-05-03T08:48:07.999Z</time></trkpt><trkpt lat="39.792796155698866" lon="8.663345078948478"><ele>36.0</ele><time>2026-05-03T08:48:08.999Z</time></trkpt><trkpt lat="39.79271317827928" lon="8.663314798014692"><ele>36.0</ele><time>2026-05-03T08:48:09.999Z</time></trkpt><trkpt lat="39.79262899815194" lon="8.663277174404824"><ele>36.0</ele><time>2026-05-03T08:48:10.999Z</time></trkpt><trkpt lat="39.79255862742636" lon="8.663218036424752"><ele>36.0</ele><time>2026-05-03T08:48:11.999Z</time></trkpt><trkpt lat="39.7924987725426" lon="8.663130374504696"><ele>36.25</ele><time>2026-05-03T08:48:12.999Z</time></trkpt><trkpt lat="39.79244465132794" lon="8.663003258070258"><ele>36.5</ele><time>2026-05-03T08:48:13.999Z</time></trkpt><trkpt lat="39.79237330799592" lon="8.662855134255214"><ele>36.75</ele><time>2026-05-03T08:48:14.999Z</time></trkpt><trkpt lat="39.792321441518915" lon="8.662666140968136"><ele>37.0</ele><time>2026-05-03T08:48:15.999Z</time></trkpt><trkpt lat="39.79224948257572" lon="8.662466651772016"><ele>36.333333333333336</ele><time>2026-05-03T08:48:16.999Z</time></trkpt><trkpt lat="39.792160028257015" lon="8.662258038788389"><ele>35.666666666666664</ele><time>2026-05-03T08:48:17.999Z</time></trkpt><trkpt lat="39.79206691971502" lon="8.662042438523272"><ele>35.0</ele><time>2026-05-03T08:48:18.999Z</time></trkpt><trkpt lat="39.791967856458804" lon="8.661850124942008"><ele>35.666666666666664</ele><time>2026-05-03T08:48:19.999Z</time></trkpt><trkpt lat="39.79183898989108" lon="8.661664170672243"><ele>36.333333333333336</ele><time>2026-05-03T08:48:20.999Z</time></trkpt><trkpt lat="39.7916923888985" lon="8.661477731483247"><ele>37.0</ele><time>2026-05-03T08:48:21.999Z</time></trkpt><trkpt lat="39.79154058038897" lon="8.661313075913625"><ele>37.0</ele><time>2026-05-03T08:48:22.999Z</time></trkpt><trkpt lat="39.791387909572826" lon="8.661173976512755"><ele>37.0</ele><time>2026-05-03T08:48:23.999Z</time></trkpt><trkpt lat="39.79122414161111" lon="8.661048527794383"><ele>37.0</ele><time>2026-05-03T08:48:24.999Z</time></trkpt><trkpt lat="39.79103567657759" lon="8.660923397073708"><ele>36.5</ele><time>2026-05-03T08:48:25.999Z</time></trkpt><trkpt lat="39.790828410124284" lon="8.660795498707412"><ele>36.0</ele><time>2026-05-03T08:48:26.999Z</time></trkpt><trkpt lat="39.790604013654665" lon="8.660659683865322"><ele>36.0</ele><time>2026-05-03T08:48:27.999Z</time></trkpt><trkpt lat="39.79041563742014" lon="8.660509512858368"><ele>36.0</ele><time>2026-05-03T08:48:28.999Z</time></trkpt><trkpt lat="39.79024530756019" lon="8.660418691072765"><ele>36.0</ele><time>2026-05-03T08:48:29.999Z</time></trkpt><trkpt lat="39.790065557869895" lon="8.66030391999141"><ele>35.5</ele><time>2026-05-03T08:48:30.999Z</time></trkpt><trkpt lat="39.78985467534316" lon="8.660193223217252"><ele>35.0</ele><time>2026-05-03T08:48:31.999Z</time></trkpt><trkpt lat="39.78962750405136" lon="8.660082704741646"><ele>35.0</ele><time>2026-05-03T08:48:32.999Z</time></trkpt><trkpt lat="39.78940228042446" lon="8.659973687867662"><ele>35.0</ele><time>2026-05-03T08:48:33.999Z</time></trkpt><trkpt lat="39.78918735054619" lon="8.659879160713523"><ele>35.33333333333333</ele><time>2026-05-03T08:48:34.999Z</time></trkpt><trkpt lat="39.7889955080526" lon="8.659760414949865"><ele>35.666666666666664</ele><time>2026-05-03T08:48:35.999Z</time></trkpt><trkpt lat="39.78881315844349" lon="8.659644689664969"><ele>36.0</ele><time>2026-05-03T08:48:36.999Z</time></trkpt><trkpt lat="39.78862223002508" lon="8.65956938549995"><ele>36.333333333333336</ele><time>2026-05-03T08:48:37.999Z</time></trkpt><trkpt lat="39.78842728437555" lon="8.659467413953683"><ele>36.66666666666667</ele><time>2026-05-03T08:48:38.999Z</time></trkpt><trkpt lat="39.788225467988354" lon="8.659370952696303"><ele>37.0</ele><time>2026-05-03T08:48:39.999Z</time></trkpt><trkpt lat="39.78805037684516" lon="8.659257741562914"><ele>37.0</ele><time>2026-05-03T08:48:40.999Z</time></trkpt><trkpt lat="39.78789022914806" lon="8.659168689395065"><ele>37.0</ele><time>2026-05-03T08:48:41.999Z</time></trkpt><trkpt lat="39.78773794927064" lon="8.659089358103992"><ele>37.0</ele><time>2026-05-03T08:48:42.999Z</time></trkpt><trkpt lat="39.78758270196707" lon="8.659056893659612"><ele>36.66666666666667</ele><time>2026-05-03T08:48:43.999Z</time></trkpt><trkpt lat="39.78740936676334" lon="8.65905060275596"><ele>36.333333333333336</ele><time>2026-05-03T08:48:44.999Z</time></trkpt><trkpt lat="39.78722280432586" lon="8.65901642683844"><ele>36.0</ele><time>2026-05-03T08:48:45.999Z</time></trkpt><trkpt lat="39.787028548930614" lon="8.658995433504451"><ele>36.0</ele><time>2026-05-03T08:48:46.999Z</time></trkpt><trkpt lat="39.78685942644505" lon="8.658976953828697"><ele>36.0</ele><time>2026-05-03T08:48:47.999Z</time></trkpt><trkpt lat="39.78672423865935" lon="8.658962091626181"><ele>36.0</ele><time>2026-05-03T08:48:48.999Z</time></trkpt><trkpt lat="39.78660307368184" lon="8.658946645863606"><ele>36.0</ele><time>2026-05-03T08:48:49.999Z</time></trkpt><trkpt lat="39.786500191223844" lon="8.658930840281432"><ele>35.8</ele><time>2026-05-03T08:48:50.999Z</time></trkpt><trkpt lat="39.786396694133565" lon="8.658909767732128"><ele>35.6</ele><time>2026-05-03T08:48:51.999Z</time></trkpt><trkpt lat="39.78629820906241" lon="8.658911735016835"><ele>35.4</ele><time>2026-05-03T08:48:52.999Z</time></trkpt><trkpt lat="39.78623198359798" lon="8.658894478411405"><ele>35.2</ele><time>2026-05-03T08:48:53.999Z</time></trkpt><trkpt lat="39.78619681484484" lon="8.65873153159859"><ele>35.0</ele><time>2026-05-03T08:48:58Z</time></trkpt><trkpt lat="39.78619690356361" lon="8.658601933580501"><ele>35.0</ele><time>2026-05-03T08:48:59Z</time></trkpt><trkpt lat="39.78620475086876" lon="8.658431115932487"><ele>35.0</ele><time>2026-05-03T08:49:00Z</time></trkpt><trkpt lat="39.786209107694546" lon="8.658231408309748"><ele>35.0</ele><time>2026-05-03T08:49:01Z</time></trkpt><trkpt lat="39.786210014219854" lon="8.658012136301714"><ele>34.33333333333333</ele><time>2026-05-03T08:49:02Z</time></trkpt><trkpt lat="39.78621309545749" lon="8.657782956738648"><ele>33.666666666666664</ele><time>2026-05-03T08:49:03Z</time></trkpt><trkpt lat="39.78621411914734" lon="8.657533022646776"><ele>33.0</ele><time>2026-05-03T08:49:04Z</time></trkpt><trkpt lat="39.786216542236154" lon="8.657265088917006"><ele>33.0</ele><time>2026-05-03T08:49:05Z</time></trkpt><trkpt lat="39.78622094600557" lon="8.65699171063364"><ele>33.0</ele><time>2026-05-03T08:49:06Z</time></trkpt><trkpt lat="39.786228506638416" lon="8.656699967605663"><ele>33.0</ele><time>2026-05-03T08:49:07Z</time></trkpt><trkpt lat="39.78623110718036" lon="8.65640991777025"><ele>32.5</ele><time>2026-05-03T08:49:08Z</time></trkpt><trkpt lat="39.78623229419497" lon="8.65611996894745"><ele>32.0</ele><time>2026-05-03T08:49:09Z</time></trkpt><trkpt lat="39.78623702938299" lon="8.655823751351152"><ele>32.0</ele><time>2026-05-03T08:49:10Z</time></trkpt><trkpt lat="39.78624286570539" lon="8.655527288322842"><ele>32.0</ele><time>2026-05-03T08:49:11Z</time></trkpt><trkpt lat="39.78624680714023" lon="8.655248196947499"><ele>32.0</ele><time>2026-05-03T08:49:12Z</time></trkpt><trkpt lat="39.78624966216584" lon="8.654993481654511"><ele>31.333333333333332</ele><time>2026-05-03T08:49:13Z</time></trkpt><trkpt lat="39.78625481245934" lon="8.654757016342423"><ele>30.666666666666664</ele><time>2026-05-03T08:49:14Z</time></trkpt><trkpt lat="39.786260922169916" lon="8.654534768789997"><ele>30.0</ele><time>2026-05-03T08:49:15Z</time></trkpt><trkpt lat="39.78626722622816" lon="8.654323452730697"><ele>29.5</ele><time>2026-05-03T08:49:16Z</time></trkpt><trkpt lat="39.78627084053492" lon="8.654120701974279"><ele>29.0</ele><time>2026-05-03T08:49:17Z</time></trkpt><trkpt lat="39.78627131561087" lon="8.653934055432254"><ele>28.5</ele><time>2026-05-03T08:49:18Z</time></trkpt><trkpt lat="39.78626661361256" lon="8.653787174157044"><ele>28.0</ele><time>2026-05-03T08:49:19Z</time></trkpt><trkpt lat="39.78627067252776" lon="8.653689459071977"><ele>28.25</ele><time>2026-05-03T08:49:20Z</time></trkpt><trkpt lat="39.7862716695931" lon="8.65359301581757"><ele>28.5</ele><time>2026-05-03T08:49:22Z</time></trkpt><trkpt lat="39.78640049858856" lon="8.653539826308876"><ele>28.75</ele><time>2026-05-03T08:49:23Z</time></trkpt><trkpt lat="39.78651407426783" lon="8.65347764966005"><ele>29.0</ele><time>2026-05-03T08:49:24Z</time></trkpt><trkpt lat="39.78666062003532" lon="8.653417579640722"><ele>29.0</ele><time>2026-05-03T08:49:25Z</time></trkpt><trkpt lat="39.786823974508735" lon="8.65333099837074"><ele>29.0</ele><time>2026-05-03T08:49:26Z</time></trkpt><trkpt lat="39.78700541013035" lon="8.653232178000204"><ele>29.0</ele><time>2026-05-03T08:49:27Z</time></trkpt><trkpt lat="39.78720323645573" lon="8.653134754401515"><ele>28.5</ele><time>2026-05-03T08:49:28Z</time></trkpt><trkpt lat="39.787421072800655" lon="8.653028797673551"><ele>28.0</ele><time>2026-05-03T08:49:29Z</time></trkpt><trkpt lat="39.78765963764969" lon="8.652899712959472"><ele>28.0</ele><time>2026-05-03T08:49:30Z</time></trkpt><trkpt lat="39.78790137204521" lon="8.65277052780293"><ele>28.0</ele><time>2026-05-03T08:49:31Z</time></trkpt><trkpt lat="39.78816293328783" lon="8.652638945705988"><ele>28.0</ele><time>2026-05-03T08:49:32Z</time></trkpt><trkpt lat="39.78842356036419" lon="8.652508116167601"><ele>28.0</ele><time>2026-05-03T08:49:33Z</time></trkpt><trkpt lat="39.78867650389166" lon="8.652375306615747"><ele>28.0</ele><time>2026-05-03T08:49:34Z</time></trkpt><trkpt lat="39.78892321543569" lon="8.652244152784283"><ele>28.0</ele><time>2026-05-03T08:49:35Z</time></trkpt><trkpt lat="39.7891655247177" lon="8.652120678430068"><ele>28.0</ele><time>2026-05-03T08:49:36Z</time></trkpt><trkpt lat="39.78939920915475" lon="8.652003594060965"><ele>28.0</ele><time>2026-05-03T08:49:37Z</time></trkpt><trkpt lat="39.789623655092335" lon="8.651890901644318"><ele>27.0</ele><time>2026-05-03T08:49:38Z</time></trkpt><trkpt lat="39.7898405583123" lon="8.65177636078596"><ele>26.0</ele><time>2026-05-03T08:49:39Z</time></trkpt><trkpt lat="39.79005219629154" lon="8.651658251196501"><ele>26.0</ele><time>2026-05-03T08:49:40Z</time></trkpt><trkpt lat="39.790258668833566" lon="8.651538155482712"><ele>26.0</ele><time>2026-05-03T08:49:41Z</time></trkpt><trkpt lat="39.7904634752026" lon="8.651413031483745"><ele>26.0</ele><time>2026-05-03T08:49:42Z</time></trkpt><trkpt lat="39.790667679140796" lon="8.651284177901314"><ele>26.0</ele><time>2026-05-03T08:49:43Z</time></trkpt><trkpt lat="39.79087167995487" lon="8.651163285149918"><ele>25.333333333333332</ele><time>2026-05-03T08:49:44Z</time></trkpt><trkpt lat="39.791058294864605" lon="8.651057339581598"><ele>24.666666666666664</ele><time>2026-05-03T08:49:45Z</time></trkpt><trkpt lat="39.79123401336073" lon="8.65096215488568"><ele>24.0</ele><time>2026-05-03T08:49:46Z</time></trkpt><trkpt lat="39.79139551936918" lon="8.650878496038693"><ele>24.0</ele><time>2026-05-03T08:49:47Z</time></trkpt><trkpt lat="39.791553793010735" lon="8.650802019151838"><ele>24.0</ele><time>2026-05-03T08:49:48Z</time></trkpt><trkpt lat="39.791699583755275" lon="8.650725995346816"><ele>24.0</ele><time>2026-05-03T08:49:49Z</time></trkpt><trkpt lat="39.7918395414965" lon="8.650644916079214"><ele>24.333333333333336</ele><time>2026-05-03T08:49:50Z</time></trkpt><trkpt lat="39.791982462124565" lon="8.650565425303991"><ele>24.666666666666668</ele><time>2026-05-03T08:49:51Z</time></trkpt><trkpt lat="39.79212475645415" lon="8.650492195551083"><ele>25.0</ele><time>2026-05-03T08:49:52Z</time></trkpt><trkpt lat="39.79226658363284" lon="8.650421484539402"><ele>25.0</ele><time>2026-05-03T08:49:53Z</time></trkpt><trkpt lat="39.792404091909766" lon="8.650354046217732"><ele>25.0</ele><time>2026-05-03T08:49:54Z</time></trkpt><trkpt lat="39.792532431794186" lon="8.650289439395376"><ele>25.0</ele><time>2026-05-03T08:49:55Z</time></trkpt><trkpt lat="39.79265608189132" lon="8.650241457692102"><ele>25.0</ele><time>2026-05-03T08:49:56Z</time></trkpt><trkpt lat="39.792777153762096" lon="8.65022876481174"><ele>24.5</ele><time>2026-05-03T08:49:57Z</time></trkpt><trkpt lat="39.792897074278606" lon="8.650224687469638"><ele>24.0</ele><time>2026-05-03T08:49:58Z</time></trkpt><trkpt lat="39.79300951191125" lon="8.650171814145192"><ele>23.5</ele><time>2026-05-03T08:49:59Z</time></trkpt><trkpt lat="39.7931021881523" lon="8.650092643123628"><ele>23.0</ele><time>2026-05-03T08:50:00Z</time></trkpt><trkpt lat="39.79318456402716" lon="8.650012477788446"><ele>23.0</ele><time>2026-05-03T08:50:01Z</time></trkpt><trkpt lat="39.79324990478608" lon="8.649955363553328"><ele>23.0</ele><time>2026-05-03T08:50:02Z</time></trkpt><trkpt lat="39.79329818099297" lon="8.649897557953054"><ele>23.0</ele><time>2026-05-03T08:50:04Z</time></trkpt><trkpt lat="39.793258800377544" lon="8.649786721551799"><ele>23.0</ele><time>2026-05-03T08:50:05Z</time></trkpt><trkpt lat="39.79322663680672" lon="8.649715568940135"><ele>23.0</ele><time>2026-05-03T08:50:06Z</time></trkpt><trkpt lat="39.793171476269514" lon="8.649576945509196"><ele>23.0</ele><time>2026-05-03T08:50:08Z</time></trkpt><trkpt lat="39.793125739552416" lon="8.649430190654439"><ele>22.599999999999998</ele><time>2026-05-03T08:50:09.999Z</time></trkpt><trkpt lat="39.79309555829585" lon="8.649341718315323"><ele>22.2</ele><time>2026-05-03T08:50:14.999Z</time></trkpt><trkpt lat="39.793054881227256" lon="8.649177658981282"><ele>21.8</ele><time>2026-05-03T08:50:16.999Z</time></trkpt><trkpt lat="39.792956227417946" lon="8.649091372318544"><ele>21.4</ele><time>2026-05-03T08:50:17.999Z</time></trkpt><trkpt lat="39.792949304559016" lon="8.648973001581796"><ele>21.0</ele><time>2026-05-03T08:50:18.999Z</time></trkpt><trkpt lat="39.792948776810206" lon="8.648877163415687"><ele>21.0</ele><time>2026-05-03T08:50:19.999Z</time></trkpt><trkpt lat="39.79294566867298" lon="8.64879451592047"><ele>21.0</ele><time>2026-05-03T08:50:20.999Z</time></trkpt><trkpt lat="39.79292544195246" lon="8.648702637846656"><ele>21.0</ele><time>2026-05-03T08:50:21.999Z</time></trkpt><trkpt lat="39.79290221804625" lon="8.64861177045931"><ele>21.0</ele><time>2026-05-03T08:50:22.999Z</time></trkpt><trkpt lat="39.792893834022024" lon="8.648506699211945"><ele>21.0</ele><time>2026-05-03T08:50:24.999Z</time></trkpt><trkpt lat="39.792956604864976" lon="8.648454290384178"><ele>21.0</ele><time>2026-05-03T08:50:36.999Z</time></trkpt><trkpt lat="39.79293261988249" lon="8.648341787759822"><ele>20.2</ele><time>2026-05-03T08:50:38.999Z</time></trkpt><trkpt lat="39.792869002185846" lon="8.648331445002604"><ele>19.400000000000002</ele><time>2026-05-03T08:50:40.999Z</time></trkpt><trkpt lat="39.7928122764185" lon="8.648244636421778"><ele>18.6</ele><time>2026-05-03T08:50:42.999Z</time></trkpt><trkpt lat="39.792772972293974" lon="8.648098294997226"><ele>17.8</ele><time>2026-05-03T08:50:43.999Z</time></trkpt><trkpt lat="39.792734230480214" lon="8.647894279916033"><ele>17.0</ele><time>2026-05-03T08:50:44.999Z</time></trkpt><trkpt lat="39.79269173235875" lon="8.647652155409537"><ele>17.333333333333336</ele><time>2026-05-03T08:50:45.999Z</time></trkpt><trkpt lat="39.79264309079987" lon="8.647376286941002"><ele>17.666666666666668</ele><time>2026-05-03T08:50:46.999Z</time></trkpt><trkpt lat="39.792597308956516" lon="8.647136734458423"><ele>18.0</ele><time>2026-05-03T08:50:47.999Z</time></trkpt><trkpt lat="39.792558814221124" lon="8.646941869706376"><ele>17.0</ele><time>2026-05-03T08:50:48.999Z</time></trkpt><trkpt lat="39.792530067092684" lon="8.64676762392438"><ele>16.0</ele><time>2026-05-03T08:50:49.999Z</time></trkpt><trkpt lat="39.79250040492941" lon="8.646602997454895"><ele>15.0</ele><time>2026-05-03T08:50:50.999Z</time></trkpt><trkpt lat="39.79247403558061" lon="8.646462783923132"><ele>14.0</ele><time>2026-05-03T08:50:51.999Z</time></trkpt><trkpt lat="39.79245413846319" lon="8.646354715283568"><ele>14.0</ele><time>2026-05-03T08:50:52.999Z</time></trkpt><trkpt lat="39.79240276101221" lon="8.646252807882133"><ele>13.999999999999998</ele><time>2026-05-03T08:50:54.999Z</time></trkpt><trkpt lat="39.792332868507025" lon="8.646220778598533"><ele>13.999999999999998</ele><time>2026-05-03T08:50:55.999Z</time></trkpt><trkpt lat="39.79224422265405" lon="8.64614214045803"><ele>14.0</ele><time>2026-05-03T08:50:56.999Z</time></trkpt><trkpt lat="39.79216820679112" lon="8.646009301470677"><ele>14.0</ele><time>2026-05-03T08:50:57.999Z</time></trkpt><trkpt lat="39.7920951860704" lon="8.64587205523947"><ele>14.25</ele><time>2026-05-03T08:50:58.999Z</time></trkpt><trkpt lat="39.79203837404064" lon="8.645731148776592"><ele>14.5</ele><time>2026-05-03T08:50:59.999Z</time></trkpt><trkpt lat="39.79196904253826" lon="8.645573489070026"><ele>14.75</ele><time>2026-05-03T08:51:00.999Z</time></trkpt><trkpt lat="39.79188659096752" lon="8.64543597743479"><ele>15.0</ele><time>2026-05-03T08:51:02Z</time></trkpt><trkpt lat="39.79181685156403" lon="8.645314407565579"><ele>15.0</ele><time>2026-05-03T08:51:03Z</time></trkpt><trkpt lat="39.79175731533718" lon="8.645171993609871"><ele>15.0</ele><time>2026-05-03T08:51:04Z</time></trkpt><trkpt lat="39.791699953540146" lon="8.645019555849668"><ele>15.0</ele><time>2026-05-03T08:51:05Z</time></trkpt><trkpt lat="39.791660810163805" lon="8.64490607356333"><ele>15.0</ele><time>2026-05-03T08:51:06Z</time></trkpt><trkpt lat="39.791614386568014" lon="8.644794802309683"><ele>15.0</ele><time>2026-05-03T08:51:08Z</time></trkpt><trkpt lat="39.791591507334616" lon="8.644649998328468"><ele>15.0</ele><time>2026-05-03T08:51:10Z</time></trkpt><trkpt lat="39.79159093612596" lon="8.644541717216445"><ele>15.0</ele><time>2026-05-03T08:51:11Z</time></trkpt><trkpt lat="39.79159129964027" lon="8.644433231104772"><ele>15.0</ele><time>2026-05-03T08:51:12Z</time></trkpt><trkpt lat="39.79160377849542" lon="8.644319893598098"><ele>15.0</ele><time>2026-05-03T08:51:13Z</time></trkpt><trkpt lat="39.79161701591952" lon="8.644196759211004"><ele>15.0</ele><time>2026-05-03T08:51:14Z</time></trkpt><trkpt lat="39.79161228153086" lon="8.644077161030967"><ele>15.0</ele><time>2026-05-03T08:51:15Z</time></trkpt><trkpt lat="39.79161650698139" lon="8.643968433906814"><ele>14.75</ele><time>2026-05-03T08:51:16Z</time></trkpt><trkpt lat="39.79164791407662" lon="8.643840075925901"><ele>14.5</ele><time>2026-05-03T08:51:17Z</time></trkpt><trkpt lat="39.791705402828576" lon="8.643703690329195"><ele>14.25</ele><time>2026-05-03T08:51:18Z</time></trkpt><trkpt lat="39.79178392226811" lon="8.6435682404689"><ele>14.0</ele><time>2026-05-03T08:51:19Z</time></trkpt><trkpt lat="39.791873787435556" lon="8.643441207118203"><ele>13.799999999999999</ele><time>2026-05-03T08:51:20Z</time></trkpt><trkpt lat="39.79196274902267" lon="8.643320521546784"><ele>13.599999999999998</ele><time>2026-05-03T08:51:21Z</time></trkpt><trkpt lat="39.79204085459608" lon="8.643221497164946"><ele>13.4</ele><time>2026-05-03T08:51:22Z</time></trkpt><trkpt lat="39.79209823872825" lon="8.643140309807158"><ele>13.2</ele><time>2026-05-03T08:51:23Z</time></trkpt><trkpt lat="39.79212453389185" lon="8.643003645343507"><ele>13.0</ele><time>2026-05-03T08:51:25Z</time></trkpt><trkpt lat="39.79210123902909" lon="8.642909956946747"><ele>12.8</ele><time>2026-05-03T08:51:26Z</time></trkpt><trkpt lat="39.79204923880445" lon="8.642793612701066"><ele>12.600000000000001</ele><time>2026-05-03T08:51:27Z</time></trkpt><trkpt lat="39.79200120982799" lon="8.642677283728643"><ele>12.399999999999999</ele><time>2026-05-03T08:51:28Z</time></trkpt><trkpt lat="39.791971671416974" lon="8.642566950287037"><ele>12.2</ele><time>2026-05-03T08:51:29Z</time></trkpt><trkpt lat="39.79195626048762" lon="8.642448418584307"><ele>12.0</ele><time>2026-05-03T08:51:30Z</time></trkpt><trkpt lat="39.791928883513776" lon="8.642332049644573"><ele>12.0</ele><time>2026-05-03T08:51:31Z</time></trkpt><trkpt lat="39.79188256949346" lon="8.642226850291262"><ele>12.0</ele><time>2026-05-03T08:51:32Z</time></trkpt><trkpt lat="39.79185032749365" lon="8.642118732714573"><ele>12.0</ele><time>2026-05-03T08:51:33Z</time></trkpt><trkpt lat="39.79183148211482" lon="8.641981428832683"><ele>12.0</ele><time>2026-05-03T08:51:34Z</time></trkpt><trkpt lat="39.79179973990707" lon="8.641858320122806"><ele>12.0</ele><time>2026-05-03T08:51:35Z</time></trkpt><trkpt lat="39.79175751465249" lon="8.641754283676407"><ele>12.0</ele><time>2026-05-03T08:51:36Z</time></trkpt><trkpt lat="39.79170897428621" lon="8.641649860169393"><ele>12.0</ele><time>2026-05-03T08:51:37Z</time></trkpt><trkpt lat="39.79165509423944" lon="8.641548526097857"><ele>12.0</ele><time>2026-05-03T08:51:38Z</time></trkpt><trkpt lat="39.791590901933944" lon="8.6414448579895"><ele>12.0</ele><time>2026-05-03T08:51:39Z</time></trkpt><trkpt lat="39.7915175927033" lon="8.641347733683954"><ele>12.0</ele><time>2026-05-03T08:51:40Z</time></trkpt><trkpt lat="39.79144426114803" lon="8.641272584070197"><ele>12.0</ele><time>2026-05-03T08:51:41Z</time></trkpt><trkpt lat="39.79136415588587" lon="8.641202284728628"><ele>12.0</ele><time>2026-05-03T08:51:42Z</time></trkpt><trkpt lat="39.79128449050556" lon="8.64114163699746"><ele>12.0</ele><time>2026-05-03T08:51:43Z</time></trkpt><trkpt lat="39.791211065612224" lon="8.641073899500201"><ele>12.0</ele><time>2026-05-03T08:51:44Z</time></trkpt><trkpt lat="39.79115026676423" lon="8.64098565499149"><ele>12.0</ele><time>2026-05-03T08:51:45Z</time></trkpt><trkpt lat="39.791096240657005" lon="8.640883539599903"><ele>12.399999999999999</ele><time>2026-05-03T08:51:46Z</time></trkpt><trkpt lat="39.79103863287995" lon="8.640760416873519"><ele>12.799999999999999</ele><time>2026-05-03T08:51:47Z</time></trkpt><trkpt lat="39.79097393224042" lon="8.640639390084015"><ele>13.2</ele><time>2026-05-03T08:51:48Z</time></trkpt><trkpt lat="39.79092127350512" lon="8.640534960890573"><ele>13.6</ele><time>2026-05-03T08:51:49Z</time></trkpt><trkpt lat="39.79087873416534" lon="8.640446115523815"><ele>14.0</ele><time>2026-05-03T08:51:50Z</time></trkpt><trkpt lat="39.79082658015651" lon="8.640367461582178"><ele>14.0</ele><time>2026-05-03T08:51:51Z</time></trkpt><trkpt lat="39.7907550804254" lon="8.640299945770852"><ele>13.999999999999998</ele><time>2026-05-03T08:51:52Z</time></trkpt><trkpt lat="39.79066964344854" lon="8.640237629264325"><ele>13.999999999999998</ele><time>2026-05-03T08:51:53Z</time></trkpt><trkpt lat="39.79057520039949" lon="8.640162648704377"><ele>14.0</ele><time>2026-05-03T08:51:54Z</time></trkpt><trkpt lat="39.79047635240811" lon="8.640077203238356"><ele>14.0</ele><time>2026-05-03T08:51:55Z</time></trkpt><trkpt lat="39.79038659021524" lon="8.64000464101953"><ele>14.2</ele><time>2026-05-03T08:51:56Z</time></trkpt><trkpt lat="39.790289581874795" lon="8.639936502088807"><ele>14.399999999999999</ele><time>2026-05-03T08:51:57Z</time></trkpt><trkpt lat="39.79020088807807" lon="8.639871016234732"><ele>14.6</ele><time>2026-05-03T08:51:58Z</time></trkpt><trkpt lat="39.7901168826632" lon="8.639808258235965"><ele>14.8</ele><time>2026-05-03T08:51:59Z</time></trkpt><trkpt lat="39.79002140619462" lon="8.639767396411795"><ele>15.0</ele><time>2026-05-03T08:52:00Z</time></trkpt><trkpt lat="39.78991696062806" lon="8.639747786055265"><ele>15.0</ele><time>2026-05-03T08:52:01Z</time></trkpt><trkpt lat="39.789814522749424" lon="8.639739242299397"><ele>15.0</ele><time>2026-05-03T08:52:02Z</time></trkpt><trkpt lat="39.78973162170874" lon="8.639723702626853"><ele>15.0</ele><time>2026-05-03T08:52:03Z</time></trkpt><trkpt lat="39.789669589080944" lon="8.639685455505472"><ele>15.0</ele><time>2026-05-03T08:52:04Z</time></trkpt><trkpt lat="39.789621465436696" lon="8.639627370850803"><ele>15.0</ele><time>2026-05-03T08:52:05Z</time></trkpt><trkpt lat="39.78958196764511" lon="8.639560313834377"><ele>15.0</ele><time>2026-05-03T08:52:06Z</time></trkpt><trkpt lat="39.78944927375518" lon="8.639530464444102"><ele>15.0</ele><time>2026-05-03T08:52:08Z</time></trkpt><trkpt lat="39.78934387115904" lon="8.639540761838775"><ele>15.0</ele><time>2026-05-03T08:52:09Z</time></trkpt><trkpt lat="39.78926060007696" lon="8.639525869640197"><ele>15.0</ele><time>2026-05-03T08:52:10Z</time></trkpt><trkpt lat="39.78916934856456" lon="8.639487003791002"><ele>15.0</ele><time>2026-05-03T08:52:11Z</time></trkpt><trkpt lat="39.789082957647764" lon="8.639435401611"><ele>15.0</ele><time>2026-05-03T08:52:12Z</time></trkpt><trkpt lat="39.78900428083368" lon="8.639366455971281"><ele>14.25</ele><time>2026-05-03T08:52:12.999Z</time></trkpt><trkpt lat="39.78893309565264" lon="8.6393060569074"><ele>13.5</ele><time>2026-05-03T08:52:13.999Z</time></trkpt><trkpt lat="39.78883268789115" lon="8.639274105947072"><ele>12.75</ele><time>2026-05-03T08:52:14.999Z</time></trkpt><trkpt lat="39.78870385911536" lon="8.639236076127911"><ele>12.0</ele><time>2026-05-03T08:52:15.999Z</time></trkpt><trkpt lat="39.78856038407772" lon="8.639171080327275"><ele>12.333333333333332</ele><time>2026-05-03T08:52:16.999Z</time></trkpt><trkpt lat="39.788405190841175" lon="8.639058310982803"><ele>12.666666666666666</ele><time>2026-05-03T08:52:17.999Z</time></trkpt><trkpt lat="39.788246993927565" lon="8.63893006450961"><ele>13.0</ele><time>2026-05-03T08:52:18.999Z</time></trkpt><trkpt lat="39.78812781661229" lon="8.638851613367208"><ele>13.0</ele><time>2026-05-03T08:52:19.999Z</time></trkpt><trkpt lat="39.78805164432465" lon="8.638784919927632"><ele>13.0</ele><time>2026-05-03T08:52:20.999Z</time></trkpt><trkpt lat="39.78797904305977" lon="8.638705681263495"><ele>13.0</ele><time>2026-05-03T08:52:21.999Z</time></trkpt><trkpt lat="39.78786269107693" lon="8.638639254539733"><ele>13.0</ele><time>2026-05-03T08:52:22.999Z</time></trkpt><trkpt lat="39.78771691468947" lon="8.638586928253368"><ele>13.0</ele><time>2026-05-03T08:52:23.999Z</time></trkpt><trkpt lat="39.787577640964464" lon="8.638542012614005"><ele>13.0</ele><time>2026-05-03T08:52:24.999Z</time></trkpt><trkpt lat="39.787442219491616" lon="8.638496950517334"><ele>13.0</ele><time>2026-05-03T08:52:25.999Z</time></trkpt><trkpt lat="39.78730506762289" lon="8.638487326984924"><ele>13.0</ele><time>2026-05-03T08:52:26.999Z</time></trkpt><trkpt lat="39.78717276621718" lon="8.638507006534004"><ele>13.0</ele><time>2026-05-03T08:52:27.999Z</time></trkpt><trkpt lat="39.78705787674254" lon="8.638536910963214"><ele>13.0</ele><time>2026-05-03T08:52:28.999Z</time></trkpt><trkpt lat="39.78695809199605" lon="8.638547365900335"><ele>13.0</ele><time>2026-05-03T08:52:29.999Z</time></trkpt><trkpt lat="39.78687263701769" lon="8.638523846908923"><ele>13.0</ele><time>2026-05-03T08:52:30.999Z</time></trkpt><trkpt lat="39.786784192011766" lon="8.638463822808237"><ele>13.0</ele><time>2026-05-03T08:52:31.999Z</time></trkpt><trkpt lat="39.78666631746275" lon="8.63837147708965"><ele>13.0</ele><time>2026-05-03T08:52:32.999Z</time></trkpt><trkpt lat="39.7865305782169" lon="8.638308823961331"><ele>13.0</ele><time>2026-05-03T08:52:33.999Z</time></trkpt><trkpt lat="39.78640433891846" lon="8.638275029531979"><ele>13.0</ele><time>2026-05-03T08:52:34.999Z</time></trkpt><trkpt lat="39.78627174589279" lon="8.638219986375836"><ele>13.0</ele><time>2026-05-03T08:52:35.999Z</time></trkpt><trkpt lat="39.786134644204076" lon="8.638139632056838"><ele>13.25</ele><time>2026-05-03T08:52:36.999Z</time></trkpt><trkpt lat="39.78600922097501" lon="8.63807163811758"><ele>13.5</ele><time>2026-05-03T08:52:37.999Z</time></trkpt><trkpt lat="39.785886849674256" lon="8.63802857439979"><ele>13.75</ele><time>2026-05-03T08:52:38.999Z</time></trkpt><trkpt lat="39.785777702109726" lon="8.63797607608113"><ele>14.0</ele><time>2026-05-03T08:52:39.999Z</time></trkpt><trkpt lat="39.78565809649113" lon="8.637949225103501"><ele>14.0</ele><time>2026-05-03T08:52:40.999Z</time></trkpt><trkpt lat="39.78552889865452" lon="8.637960155301956"><ele>14.0</ele><time>2026-05-03T08:52:41.999Z</time></trkpt><trkpt lat="39.78541409147771" lon="8.637953881069976"><ele>14.0</ele><time>2026-05-03T08:52:42.999Z</time></trkpt><trkpt lat="39.7853097990512" lon="8.637937436868903"><ele>14.0</ele><time>2026-05-03T08:52:43.999Z</time></trkpt><trkpt lat="39.78520961907766" lon="8.63788205454468"><ele>14.25</ele><time>2026-05-03T08:52:44.999Z</time></trkpt><trkpt lat="39.78507386582507" lon="8.637839006964695"><ele>14.5</ele><time>2026-05-03T08:52:45.999Z</time></trkpt><trkpt lat="39.78494064981119" lon="8.637860893213576"><ele>14.75</ele><time>2026-05-03T08:52:46.999Z</time></trkpt><trkpt lat="39.78481489551632" lon="8.637870181386107"><ele>15.0</ele><time>2026-05-03T08:52:47.999Z</time></trkpt><trkpt lat="39.784701690645136" lon="8.637853102767364"><ele>15.0</ele><time>2026-05-03T08:52:48.999Z</time></trkpt><trkpt lat="39.78459420903263" lon="8.637872641111594"><ele>15.0</ele><time>2026-05-03T08:52:49.999Z</time></trkpt><trkpt lat="39.78447903001869" lon="8.63791535792542"><ele>15.0</ele><time>2026-05-03T08:52:50.999Z</time></trkpt><trkpt lat="39.7843430510065" lon="8.637975223742515"><ele>15.0</ele><time>2026-05-03T08:52:51.999Z</time></trkpt><trkpt lat="39.78422701161361" lon="8.638022913078162"><ele>14.75</ele><time>2026-05-03T08:52:52.999Z</time></trkpt><trkpt lat="39.784122009316235" lon="8.63802909795323"><ele>14.5</ele><time>2026-05-03T08:52:53.999Z</time></trkpt><trkpt lat="39.78398959259992" lon="8.638025741992609"><ele>14.25</ele><time>2026-05-03T08:52:54.999Z</time></trkpt><trkpt lat="39.78384091921631" lon="8.638034104453133"><ele>14.0</ele><time>2026-05-03T08:52:55.999Z</time></trkpt><trkpt lat="39.7836918405052" lon="8.63807494895928"><ele>14.0</ele><time>2026-05-03T08:52:56.999Z</time></trkpt><trkpt lat="39.78354936404231" lon="8.638104465029631"><ele>14.0</ele><time>2026-05-03T08:52:57.999Z</time></trkpt><trkpt lat="39.78342873799598" lon="8.638142896460282"><ele>14.0</ele><time>2026-05-03T08:52:58.999Z</time></trkpt><trkpt lat="39.783333820948876" lon="8.638168419338948"><ele>14.0</ele><time>2026-05-03T08:52:59.999Z</time></trkpt><trkpt lat="39.7832418871289" lon="8.638166492183782"><ele>14.0</ele><time>2026-05-03T08:53:00.999Z</time></trkpt><trkpt lat="39.783154349615046" lon="8.638064620839415"><ele>14.0</ele><time>2026-05-03T08:53:01.999Z</time></trkpt><trkpt lat="39.78304699215133" lon="8.637964865655368"><ele>14.0</ele><time>2026-05-03T08:53:02.999Z</time></trkpt><trkpt lat="39.78293207847896" lon="8.637817768979971"><ele>14.0</ele><time>2026-05-03T08:53:03.999Z</time></trkpt><trkpt lat="39.78280822256575" lon="8.637667264701467"><ele>14.0</ele><time>2026-05-03T08:53:04.999Z</time></trkpt><trkpt lat="39.782687249784935" lon="8.637484955336953"><ele>14.0</ele><time>2026-05-03T08:53:05.999Z</time></trkpt><trkpt lat="39.782594812739994" lon="8.63730763208019"><ele>14.0</ele><time>2026-05-03T08:53:07Z</time></trkpt><trkpt lat="39.78253253581302" lon="8.637155525638942"><ele>13.75</ele><time>2026-05-03T08:53:08Z</time></trkpt><trkpt lat="39.782494457048216" lon="8.637015398897306"><ele>13.5</ele><time>2026-05-03T08:53:09Z</time></trkpt><trkpt lat="39.78249381993764" lon="8.636850000367595"><ele>13.25</ele><time>2026-05-03T08:53:10Z</time></trkpt><trkpt lat="39.78246562266957" lon="8.63667721462844"><ele>13.0</ele><time>2026-05-03T08:53:11Z</time></trkpt><trkpt lat="39.78245466968792" lon="8.636524062874217"><ele>12.75</ele><time>2026-05-03T08:53:12Z</time></trkpt><trkpt lat="39.78241725924595" lon="8.636393720825662"><ele>12.5</ele><time>2026-05-03T08:53:13Z</time></trkpt><trkpt lat="39.78232878745326" lon="8.63630153388721"><ele>12.25</ele><time>2026-05-03T08:53:14Z</time></trkpt><trkpt lat="39.78222054505166" lon="8.636197452638852"><ele>12.0</ele><time>2026-05-03T08:53:15Z</time></trkpt><trkpt lat="39.78212903550899" lon="8.636072864117093"><ele>11.75</ele><time>2026-05-03T08:53:16Z</time></trkpt><trkpt lat="39.782059698984725" lon="8.635955598321967"><ele>11.5</ele><time>2026-05-03T08:53:17Z</time></trkpt><trkpt lat="39.78198411841871" lon="8.635825465489487"><ele>11.25</ele><time>2026-05-03T08:53:18Z</time></trkpt><trkpt lat="39.78189473293701" lon="8.635702248027851"><ele>11.0</ele><time>2026-05-03T08:53:19Z</time></trkpt><trkpt lat="39.781811320978406" lon="8.635580007998486"><ele>10.25</ele><time>2026-05-03T08:53:20Z</time></trkpt><trkpt lat="39.78172295602005" lon="8.635467059629745"><ele>9.5</ele><time>2026-05-03T08:53:21Z</time></trkpt><trkpt lat="39.78162890544301" lon="8.635370040351667"><ele>8.75</ele><time>2026-05-03T08:53:22Z</time></trkpt><trkpt lat="39.78153975307261" lon="8.635266809495489"><ele>8.0</ele><time>2026-05-03T08:53:23Z</time></trkpt><trkpt lat="39.78143471712769" lon="8.63519364990766"><ele>8.0</ele><time>2026-05-03T08:53:24Z</time></trkpt><trkpt lat="39.78131434191068" lon="8.635162681084017"><ele>8.0</ele><time>2026-05-03T08:53:25Z</time></trkpt><trkpt lat="39.78120468091039" lon="8.635124360728623"><ele>8.0</ele><time>2026-05-03T08:53:26Z</time></trkpt><trkpt lat="39.78111708639454" lon="8.635074705463612"><ele>8.0</ele><time>2026-05-03T08:53:27Z</time></trkpt><trkpt lat="39.781051154425214" lon="8.634987826973795"><ele>8.0</ele><time>2026-05-03T08:53:28Z</time></trkpt><trkpt lat="39.78099792895882" lon="8.63487549848637"><ele>8.4</ele><time>2026-05-03T08:53:29Z</time></trkpt><trkpt lat="39.78096948877297" lon="8.634755873417618"><ele>8.8</ele><time>2026-05-03T08:53:30Z</time></trkpt><trkpt lat="39.78087000192777" lon="8.634705899686121"><ele>9.2</ele><time>2026-05-03T08:53:31Z</time></trkpt><trkpt lat="39.78076853672812" lon="8.634654963512506"><ele>9.6</ele><time>2026-05-03T08:53:32Z</time></trkpt><trkpt lat="39.78063539247764" lon="8.634623226276148"><ele>10.0</ele><time>2026-05-03T08:53:33Z</time></trkpt><trkpt lat="39.78047871735512" lon="8.634613729362398"><ele>10.0</ele><time>2026-05-03T08:53:34Z</time></trkpt><trkpt lat="39.78031266047102" lon="8.634626869357627"><ele>10.0</ele><time>2026-05-03T08:53:35Z</time></trkpt><trkpt lat="39.78013748069022" lon="8.634318904226499"><ele>9.75</ele><time>2026-05-03T08:53:36Z</time></trkpt><trkpt lat="39.7800707643141" lon="8.634259508727451"><ele>9.5</ele><time>2026-05-03T08:53:37Z</time></trkpt><trkpt lat="39.77996452551544" lon="8.634216749693659"><ele>9.25</ele><time>2026-05-03T08:53:38Z</time></trkpt><trkpt lat="39.779898120729165" lon="8.63418851027603"><ele>9.0</ele><time>2026-05-03T08:53:39Z</time></trkpt><trkpt lat="39.7795226058875" lon="8.634955614093021"><ele>9.0</ele><time>2026-05-03T08:53:40Z</time></trkpt><trkpt lat="39.77942067843104" lon="8.63507144052748"><ele>9.0</ele><time>2026-05-03T08:53:41Z</time></trkpt><trkpt lat="39.7793365190229" lon="8.635222724156414"><ele>9.0</ele><time>2026-05-03T08:53:42Z</time></trkpt><trkpt lat="39.77927045399859" lon="8.635406605608013"><ele>9.0</ele><time>2026-05-03T08:53:43Z</time></trkpt><trkpt lat="39.779230123037735" lon="8.635602390548694"><ele>8.333333333333334</ele><time>2026-05-03T08:53:44Z</time></trkpt><trkpt lat="39.779214416978064" lon="8.63580706335709"><ele>7.666666666666667</ele><time>2026-05-03T08:53:45Z</time></trkpt><trkpt lat="39.77921661312656" lon="8.636027356881776"><ele>7.0</ele><time>2026-05-03T08:53:46Z</time></trkpt><trkpt lat="39.77920364755553" lon="8.636220768964517"><ele>7.0</ele><time>2026-05-03T08:53:47Z</time></trkpt><trkpt lat="39.779159490495594" lon="8.636387626726673"><ele>7.0</ele><time>2026-05-03T08:53:48Z</time></trkpt><trkpt lat="39.779089101039496" lon="8.636540803197333"><ele>7.0</ele><time>2026-05-03T08:53:49Z</time></trkpt><trkpt lat="39.779001318757" lon="8.636666181144191"><ele>7.0</ele><time>2026-05-03T08:53:50Z</time></trkpt><trkpt lat="39.77890223807556" lon="8.636767681627441"><ele>7.0</ele><time>2026-05-03T08:53:51Z</time></trkpt><trkpt lat="39.778787954111515" lon="8.63685203363475"><ele>7.0</ele><time>2026-05-03T08:53:52Z</time></trkpt><trkpt lat="39.77867082451581" lon="8.6369035587918"><ele>7.0</ele><time>2026-05-03T08:53:53Z</time></trkpt><trkpt lat="39.77854919516139" lon="8.636938183936318"><ele>7.0</ele><time>2026-05-03T08:53:54Z</time></trkpt><trkpt lat="39.778404794397424" lon="8.636950675426553"><ele>7.0</ele><time>2026-05-03T08:53:55Z</time></trkpt><trkpt lat="39.77825041993726" lon="8.636968270538894"><ele>7.0</ele><time>2026-05-03T08:53:56Z</time></trkpt><trkpt lat="39.778094411075635" lon="8.636986278414065"><ele>7.0</ele><time>2026-05-03T08:53:57Z</time></trkpt><trkpt lat="39.77794904794289" lon="8.636996290401198"><ele>6.75</ele><time>2026-05-03T08:53:58Z</time></trkpt><trkpt lat="39.77781370584419" lon="8.636987406325618"><ele>6.5</ele><time>2026-05-03T08:53:59Z</time></trkpt><trkpt lat="39.777684873702945" lon="8.636952331188768"><ele>6.25</ele><time>2026-05-03T08:54:00Z</time></trkpt><trkpt lat="39.777558562823444" lon="8.636893507543519"><ele>6.0</ele><time>2026-05-03T08:54:01Z</time></trkpt><trkpt lat="39.77743183678146" lon="8.636803843523003"><ele>6.0</ele><time>2026-05-03T08:54:02Z</time></trkpt><trkpt lat="39.77731093916082" lon="8.63668500603675"><ele>6.0</ele><time>2026-05-03T08:54:03Z</time></trkpt><trkpt lat="39.777205348778" lon="8.636548677259462"><ele>6.0</ele><time>2026-05-03T08:54:04Z</time></trkpt><trkpt lat="39.777117763444025" lon="8.636397210929225"><ele>6.0</ele><time>2026-05-03T08:54:05Z</time></trkpt><trkpt lat="39.777039228758625" lon="8.636205803525286"><ele>5.666666666666667</ele><time>2026-05-03T08:54:06Z</time></trkpt><trkpt lat="39.77696690172026" lon="8.635990125661856"><ele>5.333333333333334</ele><time>2026-05-03T08:54:07Z</time></trkpt><trkpt lat="39.776891671935104" lon="8.63577912585553"><ele>5.0</ele><time>2026-05-03T08:54:08Z</time></trkpt><trkpt lat="39.77682465121838" lon="8.635593371841924"><ele>5.5</ele><time>2026-05-03T08:54:09Z</time></trkpt><trkpt lat="39.776768404628825" lon="8.635428792435828"><ele>6.0</ele><time>2026-05-03T08:54:10Z</time></trkpt><trkpt lat="39.776715673632076" lon="8.63525070324984"><ele>6.5</ele><time>2026-05-03T08:54:11Z</time></trkpt><trkpt lat="39.77668604449799" lon="8.635051441273733"><ele>7.0</ele><time>2026-05-03T08:54:12Z</time></trkpt><trkpt lat="39.776682583444966" lon="8.634853946458016"><ele>7.0</ele><time>2026-05-03T08:54:13Z</time></trkpt><trkpt lat="39.77670396560163" lon="8.634649241773529"><ele>7.0</ele><time>2026-05-03T08:54:14Z</time></trkpt><trkpt lat="39.77672962400457" lon="8.634433105985368"><ele>7.0</ele><time>2026-05-03T08:54:15Z</time></trkpt><trkpt lat="39.77675275639687" lon="8.634210776787867"><ele>7.0</ele><time>2026-05-03T08:54:16Z</time></trkpt><trkpt lat="39.77676532222015" lon="8.633988342620896"><ele>7.0</ele><time>2026-05-03T08:54:16.999Z</time></trkpt><trkpt lat="39.7767623854024" lon="8.633756959832093"><ele>7.0</ele><time>2026-05-03T08:54:17.999Z</time></trkpt><trkpt lat="39.77674615888832" lon="8.633510059684452"><ele>7.0</ele><time>2026-05-03T08:54:18.999Z</time></trkpt><trkpt lat="39.776700353080685" lon="8.63326076659498"><ele>7.0</ele><time>2026-05-03T08:54:19.999Z</time></trkpt><trkpt lat="39.776643147647015" lon="8.633013447195614"><ele>7.0</ele><time>2026-05-03T08:54:20.999Z</time></trkpt><trkpt lat="39.77658609729231" lon="8.632782394838783"><ele>7.0</ele><time>2026-05-03T08:54:21.999Z</time></trkpt><trkpt lat="39.77654227192718" lon="8.632596574474418"><ele>6.999999999999999</ele><time>2026-05-03T08:54:22.999Z</time></trkpt><trkpt lat="39.77650350236404" lon="8.63247446549618"><ele>6.999999999999999</ele><time>2026-05-03T08:54:23.999Z</time></trkpt><trkpt lat="39.776477569295324" lon="8.632386553215836"><ele>7.0</ele><time>2026-05-03T08:54:25.999Z</time></trkpt><trkpt lat="39.77654330937065" lon="8.632368178161009"><ele>7.0</ele><time>2026-05-03T08:54:27.999Z</time></trkpt><trkpt lat="39.776618379951636" lon="8.632354015210309"><ele>7.0</ele><time>2026-05-03T08:54:28.999Z</time></trkpt><trkpt lat="39.77670133864151" lon="8.632317451369797"><ele>6.999999999999999</ele><time>2026-05-03T08:54:29.999Z</time></trkpt><trkpt lat="39.77675583156862" lon="8.632265481242566"><ele>6.999999999999999</ele><time>2026-05-03T08:54:30.999Z</time></trkpt><trkpt lat="39.7767460123376" lon="8.632155784778256"><ele>7.0</ele><time>2026-05-03T08:54:32.999Z</time></trkpt><trkpt lat="39.7766856401847" lon="8.632053087490704"><ele>7.0</ele><time>2026-05-03T08:54:33.999Z</time></trkpt><trkpt lat="39.77658456848085" lon="8.631908413718056"><ele>7.0</ele><time>2026-05-03T08:54:34.999Z</time></trkpt><trkpt lat="39.776508871289174" lon="8.631724848062081"><ele>7.0</ele><time>2026-05-03T08:54:35.999Z</time></trkpt><trkpt lat="39.776398256256634" lon="8.631541947188555"><ele>7.0</ele><time>2026-05-03T08:54:36.999Z</time></trkpt><trkpt lat="39.77632668029155" lon="8.631358725412323"><ele>7.0</ele><time>2026-05-03T08:54:37.999Z</time></trkpt><trkpt lat="39.776288426312554" lon="8.631243628021542"><ele>7.0</ele><time>2026-05-03T08:54:38.999Z</time></trkpt><trkpt lat="39.7761660208851" lon="8.631105376016077"><ele>7.0</ele><time>2026-05-03T08:54:40.999Z</time></trkpt><trkpt lat="39.77604644503069" lon="8.630996282538698"><ele>7.0</ele><time>2026-05-03T08:54:41.999Z</time></trkpt><trkpt lat="39.77589037991795" lon="8.630877005178233"><ele>9.0</ele><time>2026-05-03T08:54:42.999Z</time></trkpt><trkpt lat="39.77570756925037" lon="8.630729822373363"><ele>11.0</ele><time>2026-05-03T08:54:43.999Z</time></trkpt><trkpt lat="39.77548628591596" lon="8.630588606506961"><ele>11.0</ele><time>2026-05-03T08:54:44.999Z</time></trkpt><trkpt lat="39.775237182890436" lon="8.630474939791062"><ele>11.0</ele><time>2026-05-03T08:54:45.999Z</time></trkpt><trkpt lat="39.77496864085159" lon="8.630367126323328"><ele>10.5</ele><time>2026-05-03T08:54:46.999Z</time></trkpt><trkpt lat="39.77470926223395" lon="8.630231284071769"><ele>10.0</ele><time>2026-05-03T08:54:47.999Z</time></trkpt><trkpt lat="39.77451313659302" lon="8.63015337105711"><ele>10.0</ele><time>2026-05-03T08:54:48.999Z</time></trkpt><trkpt lat="39.774390648383005" lon="8.630102311561389"><ele>10.0</ele><time>2026-05-03T08:54:49.999Z</time></trkpt><trkpt lat="39.77431244364152" lon="8.630085025059369"><ele>10.0</ele><time>2026-05-03T08:54:50.999Z</time></trkpt><trkpt lat="39.7744849978083" lon="8.630197455372508"><ele>10.0</ele><time>2026-05-03T08:54:55.999Z</time></trkpt><trkpt lat="39.77453223901034" lon="8.630136940945615"><ele>10.0</ele><time>2026-05-03T08:54:57.999Z</time></trkpt><trkpt lat="39.77456199263313" lon="8.630016657957535"><ele>10.0</ele><time>2026-05-03T08:54:58.999Z</time></trkpt><trkpt lat="39.77460433549933" lon="8.629822618099562"><ele>10.0</ele><time>2026-05-03T08:54:59.999Z</time></trkpt><trkpt lat="39.77466415531426" lon="8.629592317103304"><ele>10.0</ele><time>2026-05-03T08:55:00.999Z</time></trkpt><trkpt lat="39.774758409432465" lon="8.629376772500901"><ele>8.0</ele><time>2026-05-03T08:55:01.999Z</time></trkpt><trkpt lat="39.77489506133156" lon="8.629133658964285"><ele>6.0</ele><time>2026-05-03T08:55:02.999Z</time></trkpt><trkpt lat="39.7750286583839" lon="8.628881898952924"><ele>6.0</ele><time>2026-05-03T08:55:03.999Z</time></trkpt><trkpt lat="39.77511958314324" lon="8.628683289697982"><ele>6.0</ele><time>2026-05-03T08:55:04.999Z</time></trkpt><trkpt lat="39.77518897813928" lon="8.628535529230437"><ele>6.0</ele><time>2026-05-03T08:55:05.999Z</time></trkpt><trkpt lat="39.775258711182474" lon="8.62841069264932"><ele>6.0</ele><time>2026-05-03T08:55:06.999Z</time></trkpt><trkpt lat="39.775349128983045" lon="8.62829285197056"><ele>5.5</ele><time>2026-05-03T08:55:07.999Z</time></trkpt><trkpt lat="39.775452059091535" lon="8.62817466280029"><ele>5.0</ele><time>2026-05-03T08:55:08.999Z</time></trkpt><trkpt lat="39.77555150710499" lon="8.628047954817301"><ele>4.5</ele><time>2026-05-03T08:55:09.999Z</time></trkpt><trkpt lat="39.775638707223" lon="8.627904464092598"><ele>4.0</ele><time>2026-05-03T08:55:10.999Z</time></trkpt><trkpt lat="39.77572057052331" lon="8.627716125968055"><ele>3.6666666666666665</ele><time>2026-05-03T08:55:11.999Z</time></trkpt><trkpt lat="39.77580514118828" lon="8.627488555517136"><ele>3.333333333333333</ele><time>2026-05-03T08:55:13Z</time></trkpt><trkpt lat="39.77588336936067" lon="8.627288814890674"><ele>3.0</ele><time>2026-05-03T08:55:14Z</time></trkpt><trkpt lat="39.775958594380526" lon="8.627131797939846"><ele>3.75</ele><time>2026-05-03T08:55:15Z</time></trkpt><trkpt lat="39.776032030187025" lon="8.62703469001813"><ele>4.5</ele><time>2026-05-03T08:55:16Z</time></trkpt><trkpt lat="39.776108950878445" lon="8.626950426408523"><ele>5.25</ele><time>2026-05-03T08:55:17Z</time></trkpt><trkpt lat="39.77621905679797" lon="8.626868767807004"><ele>6.0</ele><time>2026-05-03T08:55:18Z</time></trkpt><trkpt lat="39.77635619938544" lon="8.626780817103123"><ele>6.0</ele><time>2026-05-03T08:55:19Z</time></trkpt><trkpt lat="39.776502521258095" lon="8.626664865997304"><ele>6.0</ele><time>2026-05-03T08:55:20Z</time></trkpt><trkpt lat="39.776615621954164" lon="8.626528556795998"><ele>6.0</ele><time>2026-05-03T08:55:21Z</time></trkpt><trkpt lat="39.77670109886138" lon="8.626393173632037"><ele>6.0</ele><time>2026-05-03T08:55:22Z</time></trkpt><trkpt lat="39.7767758159567" lon="8.62626604770546"><ele>6.0</ele><time>2026-05-03T08:55:23Z</time></trkpt><trkpt lat="39.77684792519612" lon="8.626141387850266"><ele>6.0</ele><time>2026-05-03T08:55:24Z</time></trkpt><trkpt lat="39.77693049674885" lon="8.626024865697929"><ele>6.0</ele><time>2026-05-03T08:55:25Z</time></trkpt><trkpt lat="39.77702595322531" lon="8.625917174865922"><ele>5.0</ele><time>2026-05-03T08:55:26Z</time></trkpt><trkpt lat="39.77713259659061" lon="8.625823003999256"><ele>4.0</ele><time>2026-05-03T08:55:27Z</time></trkpt><trkpt lat="39.777249777389564" lon="8.625741777384622"><ele>3.0</ele><time>2026-05-03T08:55:28Z</time></trkpt><trkpt lat="39.77737507589839" lon="8.625671528133408"><ele>2.0</ele><time>2026-05-03T08:55:29Z</time></trkpt><trkpt lat="39.77750360618847" lon="8.625586904041892"><ele>2.0</ele><time>2026-05-03T08:55:30Z</time></trkpt><trkpt lat="39.77762472863399" lon="8.625475295786607"><ele>2.0</ele><time>2026-05-03T08:55:31Z</time></trkpt><trkpt lat="39.77773726387204" lon="8.625333899459749"><ele>2.0</ele><time>2026-05-03T08:55:32Z</time></trkpt><trkpt lat="39.777858568299216" lon="8.625177066095244"><ele>2.333333333333333</ele><time>2026-05-03T08:55:33Z</time></trkpt><trkpt lat="39.777979936642424" lon="8.625050546787222"><ele>2.6666666666666665</ele><time>2026-05-03T08:55:34Z</time></trkpt><trkpt lat="39.778099766698446" lon="8.624955603596538"><ele>3.0</ele><time>2026-05-03T08:55:35Z</time></trkpt><trkpt lat="39.77824455605427" lon="8.624876954450746"><ele>3.0</ele><time>2026-05-03T08:55:36Z</time></trkpt><trkpt lat="39.778352569955516" lon="8.62475653513707"><ele>3.0</ele><time>2026-05-03T08:55:37Z</time></trkpt><trkpt lat="39.778401813578704" lon="8.624646490944325"><ele>3.0</ele><time>2026-05-03T08:55:38Z</time></trkpt><trkpt lat="39.77861167203184" lon="8.624698066055869"><ele>2.75</ele><time>2026-05-03T08:55:39Z</time></trkpt><trkpt lat="39.77874783386061" lon="8.624657996251146"><ele>2.5</ele><time>2026-05-03T08:55:40Z</time></trkpt><trkpt lat="39.778892743625505" lon="8.624643788625187"><ele>2.25</ele><time>2026-05-03T08:55:41Z</time></trkpt><trkpt lat="39.779021403963135" lon="8.624623152440865"><ele>2.0</ele><time>2026-05-03T08:55:42Z</time></trkpt><trkpt lat="39.77912078105788" lon="8.624594310190425"><ele>2.0</ele><time>2026-05-03T08:55:43Z</time></trkpt><trkpt lat="39.77918987218787" lon="8.624548483919911"><ele>2.0</ele><time>2026-05-03T08:55:44Z</time></trkpt><trkpt lat="39.7792459397226" lon="8.624492047252257"><ele>2.0</ele><time>2026-05-03T08:55:45Z</time></trkpt><trkpt lat="39.779332124660456" lon="8.624466650012161"><ele>2.0</ele><time>2026-05-03T08:55:46Z</time></trkpt><trkpt lat="39.77947091678949" lon="8.624469274091085"><ele>2.0</ele><time>2026-05-03T08:55:47Z</time></trkpt><trkpt lat="39.779628932557095" lon="8.624458486739666"><ele>1.6666666666666665</ele><time>2026-05-03T08:55:48Z</time></trkpt><trkpt lat="39.77978796898793" lon="8.624432876188823"><ele>1.3333333333333333</ele><time>2026-05-03T08:55:49Z</time></trkpt><trkpt lat="39.77993626396779" lon="8.624390434663102"><ele>1.0</ele><time>2026-05-03T08:55:50Z</time></trkpt><trkpt lat="39.78006751023784" lon="8.6243369242196"><ele>0.9999999999999999</ele><time>2026-05-03T08:55:51Z</time></trkpt><trkpt lat="39.78017314446395" lon="8.624281281349333"><ele>1.0</ele><time>2026-05-03T08:55:52Z</time></trkpt><trkpt lat="39.780255624782235" lon="8.624232897625113"><ele>1.0</ele><time>2026-05-03T08:55:53Z</time></trkpt><trkpt lat="39.78031503152375" lon="8.624187228392062"><ele>1.0</ele><time>2026-05-03T08:55:54Z</time></trkpt><trkpt lat="39.78036304954537" lon="8.6241288689986"><ele>0.9999999999999999</ele><time>2026-05-03T08:55:55Z</time></trkpt><trkpt lat="39.78039017401761" lon="8.62405139967097"><ele>1.0</ele><time>2026-05-03T08:55:56Z</time></trkpt><trkpt lat="39.780381527600554" lon="8.62389937157058"><ele>1.0</ele><time>2026-05-03T08:55:58Z</time></trkpt><trkpt lat="39.78033082722403" lon="8.62379402162637"><ele>1.0</ele><time>2026-05-03T08:56:00Z</time></trkpt><trkpt lat="39.78023500579136" lon="8.623761840894508"><ele>1.0</ele><time>2026-05-03T08:56:02Z</time></trkpt><trkpt lat="39.78013910491015" lon="8.62374557843517"><ele>1.0</ele><time>2026-05-03T08:56:03Z</time></trkpt><trkpt lat="39.780030775918874" lon="8.623699825417985"><ele>1.0</ele><time>2026-05-03T08:56:04Z</time></trkpt><trkpt lat="39.77995059045784" lon="8.62362473393037"><ele>0.8</ele><time>2026-05-03T08:56:05Z</time></trkpt><trkpt lat="39.77987934380013" lon="8.623571470774989"><ele>0.6000000000000001</ele><time>2026-05-03T08:56:06Z</time></trkpt><trkpt lat="39.77982410071797" lon="8.623526832882794"><ele>0.4</ele><time>2026-05-03T08:56:07Z</time></trkpt><trkpt lat="39.77972698122825" lon="8.623467483954677"><ele>0.2</ele><time>2026-05-03T08:56:09Z</time></trkpt><trkpt lat="39.77963577515167" lon="8.623480533048404"><ele>0.0</ele><time>2026-05-03T08:56:10Z</time></trkpt><trkpt lat="39.77950713848115" lon="8.623503581765828"><ele>0.0</ele><time>2026-05-03T08:56:11Z</time></trkpt><trkpt lat="39.77935985694572" lon="8.623546234625724"><ele>0.0</ele><time>2026-05-03T08:56:12Z</time></trkpt><trkpt lat="39.77921828093302" lon="8.623583904622793"><ele>0.0</ele><time>2026-05-03T08:56:13Z</time></trkpt><trkpt lat="39.77909190675895" lon="8.623647879464336"><ele>0.0</ele><time>2026-05-03T08:56:14Z</time></trkpt><trkpt lat="39.77898608320688" lon="8.623693295781658"><ele>0.25</ele><time>2026-05-03T08:56:15Z</time></trkpt><trkpt lat="39.778879993226376" lon="8.623677171384484"><ele>0.5</ele><time>2026-05-03T08:56:16Z</time></trkpt><trkpt lat="39.77878201895696" lon="8.623568371256884"><ele>0.75</ele><time>2026-05-03T08:56:17Z</time></trkpt><trkpt lat="39.778640905889645" lon="8.623468069119005"><ele>1.0</ele><time>2026-05-03T08:56:18Z</time></trkpt><trkpt lat="39.77847191677054" lon="8.623347904387161"><ele>1.3333333333333333</ele><time>2026-05-03T08:56:19Z</time></trkpt><trkpt lat="39.778275691754374" lon="8.623219935893978"><ele>1.6666666666666665</ele><time>2026-05-03T08:56:20Z</time></trkpt><trkpt lat="39.778081711356656" lon="8.623075952931968"><ele>2.0</ele><time>2026-05-03T08:56:21Z</time></trkpt><trkpt lat="39.77790933972722" lon="8.622942195084839"><ele>2.0</ele><time>2026-05-03T08:56:21.999Z</time></trkpt><trkpt lat="39.777731841415736" lon="8.6228522027662"><ele>2.0</ele><time>2026-05-03T08:56:22.999Z</time></trkpt><trkpt lat="39.77754853554329" lon="8.622786065876777"><ele>2.0</ele><time>2026-05-03T08:56:23.999Z</time></trkpt><trkpt lat="39.7773497547384" lon="8.62272438172302"><ele>1.6666666666666665</ele><time>2026-05-03T08:56:24.999Z</time></trkpt><trkpt lat="39.77714481786796" lon="8.622665394406436"><ele>1.3333333333333333</ele><time>2026-05-03T08:56:25.999Z</time></trkpt><trkpt lat="39.77693238301387" lon="8.622607928617724"><ele>1.0</ele><time>2026-05-03T08:56:26.999Z</time></trkpt><trkpt lat="39.77673000941033" lon="8.622549308210694"><ele>1.0</ele><time>2026-05-03T08:56:27.999Z</time></trkpt><trkpt lat="39.77654775684773" lon="8.622526920595492"><ele>1.0</ele><time>2026-05-03T08:56:28.999Z</time></trkpt><trkpt lat="39.776385779365675" lon="8.62249815106589"><ele>1.0</ele><time>2026-05-03T08:56:29.999Z</time></trkpt><trkpt lat="39.77624015264151" lon="8.622469536299937"><ele>1.0</ele><time>2026-05-03T08:56:30.999Z</time></trkpt><trkpt lat="39.77610414272896" lon="8.62243155155841"><ele>1.0</ele><time>2026-05-03T08:56:31.999Z</time></trkpt><trkpt lat="39.77598325411979" lon="8.622340716596723"><ele>1.0</ele><time>2026-05-03T08:56:32.999Z</time></trkpt><trkpt lat="39.77584285975824" lon="8.622211052948245"><ele>0.6666666666666666</ele><time>2026-05-03T08:56:33.999Z</time></trkpt><trkpt lat="39.775665173871324" lon="8.622094013646365"><ele>0.3333333333333333</ele><time>2026-05-03T08:56:34.999Z</time></trkpt><trkpt lat="39.77547147298215" lon="8.621985971301893"><ele>0.0</ele><time>2026-05-03T08:56:35.999Z</time></trkpt><trkpt lat="39.775272916450035" lon="8.62185067669816"><ele>0.3333333333333333</ele><time>2026-05-03T08:56:36.999Z</time></trkpt><trkpt lat="39.77510152162931" lon="8.621703932196871"><ele>0.6666666666666666</ele><time>2026-05-03T08:56:37.999Z</time></trkpt><trkpt lat="39.77494510932645" lon="8.62159029750741"><ele>1.0</ele><time>2026-05-03T08:56:38.999Z</time></trkpt><trkpt lat="39.77479884065732" lon="8.621493334569125"><ele>1.0</ele><time>2026-05-03T08:56:39.999Z</time></trkpt><trkpt lat="39.77465548238133" lon="8.621416168053758"><ele>1.0</ele><time>2026-05-03T08:56:40.999Z</time></trkpt><trkpt lat="39.77452497072308" lon="8.621357520924953"><ele>1.0</ele><time>2026-05-03T08:56:41.999Z</time></trkpt><trkpt lat="39.77440607676039" lon="8.621312284056586"><ele>1.0</ele><time>2026-05-03T08:56:42.999Z</time></trkpt><trkpt lat="39.77430097740106" lon="8.621275058956272"><ele>1.0</ele><time>2026-05-03T08:56:43.999Z</time></trkpt><trkpt lat="39.7742194000002" lon="8.62124745156642"><ele>1.0</ele><time>2026-05-03T08:56:44.999Z</time></trkpt><trkpt lat="39.77414431821091" lon="8.621221170310882"><ele>1.0</ele><time>2026-05-03T08:56:46.999Z</time></trkpt><trkpt lat="39.7741578371778" lon="8.620994517499884"><ele>1.0</ele><time>2026-05-03T08:56:48.999Z</time></trkpt><trkpt lat="39.774158621586395" lon="8.620807694555575"><ele>1.3333333333333333</ele><time>2026-05-03T08:56:49.999Z</time></trkpt><trkpt lat="39.77414466386592" lon="8.62058278414728"><ele>1.6666666666666665</ele><time>2026-05-03T08:56:50.999Z</time></trkpt><trkpt lat="39.774151001806196" lon="8.62033594146557"><ele>2.0</ele><time>2026-05-03T08:56:51.999Z</time></trkpt><trkpt lat="39.774149564926404" lon="8.62004526064821"><ele>1.0</ele><time>2026-05-03T08:56:52.999Z</time></trkpt><trkpt lat="39.77414492597671" lon="8.619738360085366"><ele>0.0</ele><time>2026-05-03T08:56:53.999Z</time></trkpt><trkpt lat="39.7741429896209" lon="8.619403667523345"><ele>0.0</ele><time>2026-05-03T08:56:54.999Z</time></trkpt><trkpt lat="39.77414668614179" lon="8.619064923977298"><ele>0.0</ele><time>2026-05-03T08:56:55.999Z</time></trkpt><trkpt lat="39.77414445843255" lon="8.618714391429107"><ele>0.5</ele><time>2026-05-03T08:56:56.999Z</time></trkpt><trkpt lat="39.774147728183465" lon="8.618356453215766"><ele>1.0</ele><time>2026-05-03T08:56:57.999Z</time></trkpt><trkpt lat="39.77414691247814" lon="8.61801882786213"><ele>0.5</ele><time>2026-05-03T08:56:58.999Z</time></trkpt><trkpt lat="39.774147622602555" lon="8.617685943899192"><ele>0.0</ele><time>2026-05-03T08:56:59.999Z</time></trkpt><trkpt lat="39.77414271252936" lon="8.617366118337863"><ele>0.0</ele><time>2026-05-03T08:57:00.999Z</time></trkpt><trkpt lat="39.774139617704584" lon="8.617044655204385"><ele>0.0</ele><time>2026-05-03T08:57:01.999Z</time></trkpt><trkpt lat="39.77413682163699" lon="8.616733224970572"><ele>-0.5</ele><time>2026-05-03T08:57:02.999Z</time></trkpt><trkpt lat="39.77415337001409" lon="8.616429158979352"><ele>-1.0</ele><time>2026-05-03T08:57:03.999Z</time></trkpt><trkpt lat="39.77414943087859" lon="8.616128146311171"><ele>-1.0</ele><time>2026-05-03T08:57:04.999Z</time></trkpt><trkpt lat="39.77412822620436" lon="8.61582319573"><ele>-1.0</ele><time>2026-05-03T08:57:05.999Z</time></trkpt><trkpt lat="39.77412728742978" lon="8.615526289321325"><ele>-1.0</ele><time>2026-05-03T08:57:06.999Z</time></trkpt><trkpt lat="39.7741317218056" lon="8.615227266091155"><ele>-1.0</ele><time>2026-05-03T08:57:07.999Z</time></trkpt><trkpt lat="39.774133551482706" lon="8.614931738911523"><ele>-1.0</ele><time>2026-05-03T08:57:08.999Z</time></trkpt><trkpt lat="39.77413601913582" lon="8.614632656764064"><ele>-1.0</ele><time>2026-05-03T08:57:09.999Z</time></trkpt><trkpt lat="39.77413709548355" lon="8.614325241302328"><ele>-1.0</ele><time>2026-05-03T08:57:10.999Z</time></trkpt><trkpt lat="39.77413657322955" lon="8.614013695243981"><ele>-1.0</ele><time>2026-05-03T08:57:11.999Z</time></trkpt><trkpt lat="39.77413267649537" lon="8.61369975774551"><ele>-1.5</ele><time>2026-05-03T08:57:12.999Z</time></trkpt><trkpt lat="39.77413117975486" lon="8.613378895960794"><ele>-2.0</ele><time>2026-05-03T08:57:13.999Z</time></trkpt><trkpt lat="39.774129541343605" lon="8.613058788251397"><ele>-1.5</ele><time>2026-05-03T08:57:14.999Z</time></trkpt><trkpt lat="39.7741320444896" lon="8.612737842451006"><ele>-1.0</ele><time>2026-05-03T08:57:15.999Z</time></trkpt><trkpt lat="39.77413139807314" lon="8.612416122816285"><ele>-1.0</ele><time>2026-05-03T08:57:16.999Z</time></trkpt><trkpt lat="39.774129354440134" lon="8.6121095341631"><ele>-1.0</ele><time>2026-05-03T08:57:17.999Z</time></trkpt><trkpt lat="39.77412956228568" lon="8.611826464500156"><ele>-0.6666666666666666</ele><time>2026-05-03T08:57:19Z</time></trkpt><trkpt lat="39.77412455297484" lon="8.611544845558175"><ele>-0.3333333333333333</ele><time>2026-05-03T08:57:20Z</time></trkpt><trkpt lat="39.77412126529489" lon="8.611250427962922"><ele>0.0</ele><time>2026-05-03T08:57:21Z</time></trkpt><trkpt lat="39.774119534024656" lon="8.610951541017506"><ele>0.0</ele><time>2026-05-03T08:57:22Z</time></trkpt><trkpt lat="39.77411858620639" lon="8.610639774330378"><ele>0.0</ele><time>2026-05-03T08:57:23Z</time></trkpt><trkpt lat="39.7741128934283" lon="8.610319054203055"><ele>0.0</ele><time>2026-05-03T08:57:24Z</time></trkpt><trkpt lat="39.77410525728045" lon="8.609989905873864"><ele>0.0</ele><time>2026-05-03T08:57:25Z</time></trkpt><trkpt lat="39.77410697360506" lon="8.609651832062893"><ele>0.5</ele><time>2026-05-03T08:57:26Z</time></trkpt><trkpt lat="39.77410788592804" lon="8.609313327449591"><ele>1.0</ele><time>2026-05-03T08:57:27Z</time></trkpt><trkpt lat="39.7741076558422" lon="8.608977729894354"><ele>0.5</ele><time>2026-05-03T08:57:28Z</time></trkpt><trkpt lat="39.77410293417296" lon="8.608631459447244"><ele>0.0</ele><time>2026-05-03T08:57:29Z</time></trkpt><trkpt lat="39.77410034658363" lon="8.60826576282857"><ele>0.0</ele><time>2026-05-03T08:57:30Z</time></trkpt><trkpt lat="39.774108396625756" lon="8.607880957685587"><ele>0.0</ele><time>2026-05-03T08:57:31Z</time></trkpt><trkpt lat="39.774117163297845" lon="8.607475917593689"><ele>-0.5</ele><time>2026-05-03T08:57:32Z</time></trkpt><trkpt lat="39.77411837928584" lon="8.607059084002165"><ele>-1.0</ele><time>2026-05-03T08:57:33Z</time></trkpt><trkpt lat="39.77411269671907" lon="8.606636717137683"><ele>-1.0</ele><time>2026-05-03T08:57:34Z</time></trkpt><trkpt lat="39.774111595297406" lon="8.606218171911134"><ele>-1.0</ele><time>2026-05-03T08:57:35Z</time></trkpt><trkpt lat="39.77411225556219" lon="8.605810891383886"><ele>-1.0</ele><time>2026-05-03T08:57:36Z</time></trkpt><trkpt lat="39.7741027992771" lon="8.60545828958847"><ele>-1.0</ele><time>2026-05-03T08:57:37Z</time></trkpt><trkpt lat="39.774096277854696" lon="8.605200672407443"><ele>-1.25</ele><time>2026-05-03T08:57:38Z</time></trkpt><trkpt lat="39.77408893540764" lon="8.604997214179212"><ele>-1.5</ele><time>2026-05-03T08:57:39Z</time></trkpt><trkpt lat="39.77408397605541" lon="8.604819227334145"><ele>-1.75</ele><time>2026-05-03T08:57:40Z</time></trkpt><trkpt lat="39.77408669421191" lon="8.60468355292379"><ele>-2.0</ele><time>2026-05-03T08:57:41Z</time></trkpt><trkpt lat="39.77409548919917" lon="8.60460155402227"><ele>-2.0</ele><time>2026-05-03T08:57:42Z</time></trkpt><trkpt lat="39.774281074076846" lon="8.60455442059877"><ele>-2.0</ele><time>2026-05-03T08:57:45Z</time></trkpt><trkpt lat="39.774411389611885" lon="8.604573351370622"><ele>-2.0</ele><time>2026-05-03T08:57:46Z</time></trkpt><trkpt lat="39.77459013976089" lon="8.604599922070536"><ele>-2.0</ele><time>2026-05-03T08:57:47Z</time></trkpt><trkpt lat="39.77479758142587" lon="8.604610618282786"><ele>-2.0</ele><time>2026-05-03T08:57:48Z</time></trkpt><trkpt lat="39.77503111357795" lon="8.60460352231352"><ele>-2.0</ele><time>2026-05-03T08:57:49Z</time></trkpt><trkpt lat="39.77528932531824" lon="8.604582962437304"><ele>-2.0</ele><time>2026-05-03T08:57:50Z</time></trkpt><trkpt lat="39.7755567270602" lon="8.604566881322459"><ele>-2.0</ele><time>2026-05-03T08:57:51Z</time></trkpt><trkpt lat="39.77581190241332" lon="8.604553956688376"><ele>-2.0</ele><time>2026-05-03T08:57:52Z</time></trkpt><trkpt lat="39.776043353033764" lon="8.604556934578985"><ele>-2.0</ele><time>2026-05-03T08:57:53Z</time></trkpt><trkpt lat="39.776297845258334" lon="8.604559774423816"><ele>-2.0</ele><time>2026-05-03T08:57:54Z</time></trkpt><trkpt lat="39.776574206417635" lon="8.6045584355759"><ele>-2.0</ele><time>2026-05-03T08:57:55Z</time></trkpt><trkpt lat="39.77686037061443" lon="8.6045609696272"><ele>-2.0</ele><time>2026-05-03T08:57:56Z</time></trkpt><trkpt lat="39.77712592751408" lon="8.604564738078619"><ele>-2.0</ele><time>2026-05-03T08:57:57Z</time></trkpt><trkpt lat="39.777360184466716" lon="8.604569357047371"><ele>-2.0</ele><time>2026-05-03T08:57:58Z</time></trkpt><trkpt lat="39.77757604483762" lon="8.604568435408344"><ele>-2.0</ele><time>2026-05-03T08:57:59Z</time></trkpt><trkpt lat="39.77777530216302" lon="8.604563349698347"><ele>-2.0</ele><time>2026-05-03T08:58:00Z</time></trkpt><trkpt lat="39.77797478403321" lon="8.604560971831416"><ele>-2.0</ele><time>2026-05-03T08:58:01Z</time></trkpt><trkpt lat="39.778186659362476" lon="8.604568769832287"><ele>-2.0</ele><time>2026-05-03T08:58:02Z</time></trkpt><trkpt lat="39.778409599222975" lon="8.604581141304129"><ele>-2.0</ele><time>2026-05-03T08:58:03Z</time></trkpt><trkpt lat="39.7786601553856" lon="8.604579465836798"><ele>-1.5</ele><time>2026-05-03T08:58:04Z</time></trkpt><trkpt lat="39.7789215658368" lon="8.604572358390994"><ele>-1.0</ele><time>2026-05-03T08:58:05Z</time></trkpt><trkpt lat="39.77916098071494" lon="8.604567132345274"><ele>-0.6666666666666666</ele><time>2026-05-03T08:58:06Z</time></trkpt><trkpt lat="39.77937360567406" lon="8.60456142146411"><ele>-0.3333333333333333</ele><time>2026-05-03T08:58:07Z</time></trkpt><trkpt lat="39.779572969949164" lon="8.604556426641913"><ele>0.0</ele><time>2026-05-03T08:58:08Z</time></trkpt><trkpt lat="39.77976670227464" lon="8.604545067701393"><ele>0.0</ele><time>2026-05-03T08:58:09Z</time></trkpt><trkpt lat="39.77997503601295" lon="8.604531995712621"><ele>0.0</ele><time>2026-05-03T08:58:10Z</time></trkpt><trkpt lat="39.780201457595915" lon="8.604522257289194"><ele>0.0</ele><time>2026-05-03T08:58:11Z</time></trkpt><trkpt lat="39.78044515733852" lon="8.604530028786991"><ele>-0.5</ele><time>2026-05-03T08:58:12Z</time></trkpt><trkpt lat="39.780693681255386" lon="8.604536913109945"><ele>-1.0</ele><time>2026-05-03T08:58:13Z</time></trkpt><trkpt lat="39.780918843093175" lon="8.604539836246724"><ele>-1.0</ele><time>2026-05-03T08:58:14Z</time></trkpt><trkpt lat="39.78111779587471" lon="8.604542392814697"><ele>-1.0</ele><time>2026-05-03T08:58:15Z</time></trkpt><trkpt lat="39.781294647603026" lon="8.604546560919"><ele>-1.0</ele><time>2026-05-03T08:58:16Z</time></trkpt><trkpt lat="39.78144352048368" lon="8.604549011855768"><ele>-1.0</ele><time>2026-05-03T08:58:17Z</time></trkpt><trkpt lat="39.78156948429264" lon="8.604542974574613"><ele>-1.0</ele><time>2026-05-03T08:58:18Z</time></trkpt><trkpt lat="39.78171435936314" lon="8.604535993210536"><ele>-1.0</ele><time>2026-05-03T08:58:19Z</time></trkpt><trkpt lat="39.78189224207554" lon="8.604528715016965"><ele>-1.0</ele><time>2026-05-03T08:58:20Z</time></trkpt><trkpt lat="39.78209584670977" lon="8.604529948693484"><ele>-1.3333333333333333</ele><time>2026-05-03T08:58:21Z</time></trkpt><trkpt lat="39.78230930124601" lon="8.604534134346007"><ele>-1.6666666666666665</ele><time>2026-05-03T08:58:22Z</time></trkpt><trkpt lat="39.78254038246151" lon="8.604536200918316"><ele>-2.0</ele><time>2026-05-03T08:58:23Z</time></trkpt><trkpt lat="39.782763746205596" lon="8.604532388150089"><ele>-2.0</ele><time>2026-05-03T08:58:24Z</time></trkpt><trkpt lat="39.78297231805615" lon="8.604527278408025"><ele>-2.0</ele><time>2026-05-03T08:58:25Z</time></trkpt><trkpt lat="39.783186594462265" lon="8.604522971047796"><ele>-2.0</ele><time>2026-05-03T08:58:25.999Z</time></trkpt><trkpt lat="39.78340711182803" lon="8.604519634536823"><ele>-2.0</ele><time>2026-05-03T08:58:26.999Z</time></trkpt><trkpt lat="39.78363416810307" lon="8.604519724624122"><ele>-2.0</ele><time>2026-05-03T08:58:27.999Z</time></trkpt><trkpt lat="39.783874196624865" lon="8.604529697455096"><ele>-2.0</ele><time>2026-05-03T08:58:28.999Z</time></trkpt><trkpt lat="39.784125232247604" lon="8.60453185546947"><ele>-2.0</ele><time>2026-05-03T08:58:29.999Z</time></trkpt><trkpt lat="39.78439139645792" lon="8.604522823549468"><ele>-2.0</ele><time>2026-05-03T08:58:30.999Z</time></trkpt><trkpt lat="39.78466652476441" lon="8.604522271620414"><ele>-2.0</ele><time>2026-05-03T08:58:31.999Z</time></trkpt><trkpt lat="39.784918480188146" lon="8.60452025549741"><ele>-2.0</ele><time>2026-05-03T08:58:32.999Z</time></trkpt><trkpt lat="39.78514024823042" lon="8.604513347291862"><ele>-2.0</ele><time>2026-05-03T08:58:33.999Z</time></trkpt><trkpt lat="39.78531936530929" lon="8.604502865696144"><ele>-2.0</ele><time>2026-05-03T08:58:34.999Z</time></trkpt><trkpt lat="39.785472191188894" lon="8.604501111518609"><ele>-1.6666666666666665</ele><time>2026-05-03T08:58:35.999Z</time></trkpt><trkpt lat="39.78563306564372" lon="8.604526254736612"><ele>-1.3333333333333333</ele><time>2026-05-03T08:58:36.999Z</time></trkpt><trkpt lat="39.78581648932668" lon="8.60453147320985"><ele>-1.0</ele><time>2026-05-03T08:58:37.999Z</time></trkpt><trkpt lat="39.78603772402049" lon="8.604531535819472"><ele>-1.0</ele><time>2026-05-03T08:58:38.999Z</time></trkpt><trkpt lat="39.78626012514617" lon="8.604522932223233"><ele>-1.0</ele><time>2026-05-03T08:58:39.999Z</time></trkpt><trkpt lat="39.78648437417291" lon="8.604514227223909"><ele>-1.0</ele><time>2026-05-03T08:58:40.999Z</time></trkpt><trkpt lat="39.786691552410545" lon="8.604514218854707"><ele>-1.0</ele><time>2026-05-03T08:58:41.999Z</time></trkpt><trkpt lat="39.78688304774565" lon="8.604515256344147"><ele>-1.0</ele><time>2026-05-03T08:58:42.999Z</time></trkpt><trkpt lat="39.78702980784538" lon="8.604518884162474"><ele>-1.0</ele><time>2026-05-03T08:58:43.999Z</time></trkpt><trkpt lat="39.78712398483402" lon="8.604522918765229"><ele>-1.0</ele><time>2026-05-03T08:58:44.999Z</time></trkpt><trkpt lat="39.78720425893542" lon="8.60452772214143"><ele>-1.0</ele><time>2026-05-03T08:58:45.999Z</time></trkpt><trkpt lat="39.7872955335584" lon="8.604533838219366"><ele>-1.0</ele><time>2026-05-03T08:58:46.999Z</time></trkpt><trkpt lat="39.787402478325205" lon="8.604530435697765"><ele>-1.0</ele><time>2026-05-03T08:58:47.999Z</time></trkpt><trkpt lat="39.78753321680663" lon="8.60452144762141"><ele>-1.0</ele><time>2026-05-03T08:58:48.999Z</time></trkpt><trkpt lat="39.78768205370499" lon="8.604517359088511"><ele>-1.25</ele><time>2026-05-03T08:58:49.999Z</time></trkpt><trkpt lat="39.78782973786456" lon="8.604511273166418"><ele>-1.5</ele><time>2026-05-03T08:58:50.999Z</time></trkpt><trkpt lat="39.78795610799253" lon="8.60449118913206"><ele>-1.75</ele><time>2026-05-03T08:58:51.999Z</time></trkpt><trkpt lat="39.7880697062557" lon="8.604479359600246"><ele>-2.0</ele><time>2026-05-03T08:58:52.999Z</time></trkpt><trkpt lat="39.78816887282541" lon="8.604486581262746"><ele>-2.0</ele><time>2026-05-03T08:58:53.999Z</time></trkpt><trkpt lat="39.78827394797377" lon="8.60449404775864"><ele>-2.0</ele><time>2026-05-03T08:58:54.999Z</time></trkpt><trkpt lat="39.788406226534356" lon="8.604496491741255"><ele>-2.0</ele><time>2026-05-03T08:58:55.999Z</time></trkpt><trkpt lat="39.788548152156864" lon="8.604500854127334"><ele>-2.0</ele><time>2026-05-03T08:58:56.999Z</time></trkpt><trkpt lat="39.78868237922866" lon="8.604503577115288"><ele>-1.9999999999999998</ele><time>2026-05-03T08:58:57.999Z</time></trkpt><trkpt lat="39.7888009077835" lon="8.604495861022137"><ele>-2.0</ele><time>2026-05-03T08:58:58.999Z</time></trkpt><trkpt lat="39.78889670397717" lon="8.604501660827633"><ele>-2.0</ele><time>2026-05-03T08:58:59.999Z</time></trkpt><trkpt lat="39.78896223519563" lon="8.604462128511834"><ele>-2.0</ele><time>2026-05-03T08:59:02.999Z</time></trkpt><trkpt lat="39.788976005808074" lon="8.60437973896933"><ele>-1.9999999999999998</ele><time>2026-05-03T08:59:03.999Z</time></trkpt><trkpt lat="39.78896644250814" lon="8.604255707204098"><ele>-2.0</ele><time>2026-05-03T08:59:04.999Z</time></trkpt><trkpt lat="39.78894753125447" lon="8.604090488346761"><ele>-2.0</ele><time>2026-05-03T08:59:05.999Z</time></trkpt><trkpt lat="39.788941077213124" lon="8.603885165029663"><ele>-2.0</ele><time>2026-05-03T08:59:06.999Z</time></trkpt><trkpt lat="39.7889380592442" lon="8.60365025667248"><ele>-2.0</ele><time>2026-05-03T08:59:07.999Z</time></trkpt><trkpt lat="39.78894117467305" lon="8.603392533093752"><ele>-2.0</ele><time>2026-05-03T08:59:08.999Z</time></trkpt><trkpt lat="39.788940971857684" lon="8.603118189371365"><ele>-2.0</ele><time>2026-05-03T08:59:09.999Z</time></trkpt><trkpt lat="39.7889402843755" lon="8.60284311303976"><ele>-2.0</ele><time>2026-05-03T08:59:10.999Z</time></trkpt><trkpt lat="39.78893958002546" lon="8.602571204859018"><ele>-1.6666666666666665</ele><time>2026-05-03T08:59:11.999Z</time></trkpt><trkpt lat="39.78893881493216" lon="8.602297301350584"><ele>-1.3333333333333333</ele><time>2026-05-03T08:59:12.999Z</time></trkpt><trkpt lat="39.78893794008484" lon="8.602040536095735"><ele>-1.0</ele><time>2026-05-03T08:59:13.999Z</time></trkpt><trkpt lat="39.78893508651964" lon="8.60177883392751"><ele>-0.6666666666666666</ele><time>2026-05-03T08:59:14.999Z</time></trkpt><trkpt lat="39.788939546944576" lon="8.601515401917043"><ele>-0.3333333333333333</ele><time>2026-05-03T08:59:15.999Z</time></trkpt><trkpt lat="39.78894045761814" lon="8.601247918320345"><ele>0.0</ele><time>2026-05-03T08:59:16.999Z</time></trkpt><trkpt lat="39.788943576211594" lon="8.600972808275294"><ele>0.0</ele><time>2026-05-03T08:59:17.999Z</time></trkpt><trkpt lat="39.7889269620967" lon="8.600693837545846"><ele>0.0</ele><time>2026-05-03T08:59:18.999Z</time></trkpt><trkpt lat="39.78894284924305" lon="8.600403266338262"><ele>0.0</ele><time>2026-05-03T08:59:19.999Z</time></trkpt><trkpt lat="39.78893957755979" lon="8.600107482620153"><ele>0.0</ele><time>2026-05-03T08:59:20.999Z</time></trkpt><trkpt lat="39.78893925834399" lon="8.599814578110509"><ele>0.0</ele><time>2026-05-03T08:59:21.999Z</time></trkpt><trkpt lat="39.78893649654044" lon="8.599540375893628"><ele>0.0</ele><time>2026-05-03T08:59:22.999Z</time></trkpt><trkpt lat="39.78893752922752" lon="8.599307027048264"><ele>0.0</ele><time>2026-05-03T08:59:23.999Z</time></trkpt><trkpt lat="39.788936224494755" lon="8.599077949100913"><ele>0.0</ele><time>2026-05-03T08:59:25Z</time></trkpt><trkpt lat="39.788932004168345" lon="8.598841655484506"><ele>0.0</ele><time>2026-05-03T08:59:26Z</time></trkpt><trkpt lat="39.78893040691664" lon="8.598610066606035"><ele>0.0</ele><time>2026-05-03T08:59:27Z</time></trkpt><trkpt lat="39.788926331529105" lon="8.59838260818815"><ele>0.0</ele><time>2026-05-03T08:59:28Z</time></trkpt><trkpt lat="39.78892370419832" lon="8.598127313770274"><ele>0.0</ele><time>2026-05-03T08:59:29Z</time></trkpt><trkpt lat="39.78893053908882" lon="8.597881336192815"><ele>-0.3333333333333333</ele><time>2026-05-03T08:59:30Z</time></trkpt><trkpt lat="39.78892821034204" lon="8.597625312608455"><ele>-0.6666666666666666</ele><time>2026-05-03T08:59:31Z</time></trkpt><trkpt lat="39.78891298119197" lon="8.597357446354776"><ele>-1.0</ele><time>2026-05-03T08:59:32Z</time></trkpt><trkpt lat="39.78890950494606" lon="8.597108008576445"><ele>-1.0</ele><time>2026-05-03T08:59:33Z</time></trkpt><trkpt lat="39.78891220897113" lon="8.596841172814504"><ele>-1.0</ele><time>2026-05-03T08:59:34Z</time></trkpt><trkpt lat="39.788909334127496" lon="8.596566713780442"><ele>-1.0</ele><time>2026-05-03T08:59:35Z</time></trkpt><trkpt lat="39.78890879395139" lon="8.596324492261152"><ele>-0.3333333333333333</ele><time>2026-05-03T08:59:36Z</time></trkpt><trkpt lat="39.78891241790662" lon="8.5961033190233"><ele>0.3333333333333333</ele><time>2026-05-03T08:59:37Z</time></trkpt><trkpt lat="39.78891388549173" lon="8.595889792978847"><ele>1.0</ele><time>2026-05-03T08:59:38Z</time></trkpt><trkpt lat="39.788913458576744" lon="8.595676351439321"><ele>1.0</ele><time>2026-05-03T08:59:39Z</time></trkpt><trkpt lat="39.78890935676284" lon="8.595483219814543"><ele>1.0</ele><time>2026-05-03T08:59:40Z</time></trkpt><trkpt lat="39.78890665716323" lon="8.59529256895062"><ele>1.0</ele><time>2026-05-03T08:59:41Z</time></trkpt><trkpt lat="39.7889001562597" lon="8.595077798291074"><ele>1.0</ele><time>2026-05-03T08:59:42Z</time></trkpt><trkpt lat="39.78889957251855" lon="8.59485524349414"><ele>1.0</ele><time>2026-05-03T08:59:43Z</time></trkpt><trkpt lat="39.788898570234245" lon="8.594633179285392"><ele>1.0</ele><time>2026-05-03T08:59:44Z</time></trkpt><trkpt lat="39.78889857873282" lon="8.59441924815484"><ele>1.25</ele><time>2026-05-03T08:59:45Z</time></trkpt><trkpt lat="39.78889621970551" lon="8.594226281656242"><ele>1.5</ele><time>2026-05-03T08:59:46Z</time></trkpt><trkpt lat="39.788892538250515" lon="8.594048924933611"><ele>1.75</ele><time>2026-05-03T08:59:47Z</time></trkpt><trkpt lat="39.78889061506716" lon="8.5938842647098"><ele>2.0</ele><time>2026-05-03T08:59:48Z</time></trkpt><trkpt lat="39.788907461651235" lon="8.593728485748453"><ele>1.75</ele><time>2026-05-03T08:59:49Z</time></trkpt><trkpt lat="39.788908362075006" lon="8.593593299523384"><ele>1.5</ele><time>2026-05-03T08:59:50Z</time></trkpt><trkpt lat="39.78890836207615" lon="8.593493389952094"><ele>1.25</ele><time>2026-05-03T08:59:51Z</time></trkpt><trkpt lat="39.78890836207506" lon="8.593401827415109"><ele>1.0</ele><time>2026-05-03T08:59:55Z</time></trkpt><trkpt lat="39.788671336859224" lon="8.593354971202247"><ele>1.0</ele><time>2026-05-03T08:59:58Z</time></trkpt><trkpt lat="39.788560254602984" lon="8.593355202028226"><ele>1.0</ele><time>2026-05-03T08:59:59Z</time></trkpt><trkpt lat="39.788431245173896" lon="8.593367879629469"><ele>1.0</ele><time>2026-05-03T09:00:00Z</time></trkpt><trkpt lat="39.78829178440191" lon="8.593422826733207"><ele>1.0</ele><time>2026-05-03T09:00:01Z</time></trkpt><trkpt lat="39.78814210423674" lon="8.59349539464984"><ele>1.0</ele><time>2026-05-03T09:00:02Z</time></trkpt><trkpt lat="39.78798424824702" lon="8.593583843766885"><ele>1.0</ele><time>2026-05-03T09:00:03Z</time></trkpt><trkpt lat="39.787823437777384" lon="8.593678135619017"><ele>1.0</ele><time>2026-05-03T09:00:04Z</time></trkpt><trkpt lat="39.787656613325446" lon="8.593778586084051"><ele>1.0</ele><time>2026-05-03T09:00:05Z</time></trkpt><trkpt lat="39.78748098414352" lon="8.593885514546987"><ele>1.0</ele><time>2026-05-03T09:00:06Z</time></trkpt><trkpt lat="39.78731104874807" lon="8.593987340431887"><ele>1.0</ele><time>2026-05-03T09:00:07Z</time></trkpt><trkpt lat="39.787158520237526" lon="8.594078434991346"><ele>1.0</ele><time>2026-05-03T09:00:08Z</time></trkpt><trkpt lat="39.78703132386939" lon="8.594154400443815"><ele>1.0</ele><time>2026-05-03T09:00:09Z</time></trkpt><trkpt lat="39.78693217444536" lon="8.594213615423776"><ele>1.0</ele><time>2026-05-03T09:00:10Z</time></trkpt><trkpt lat="39.786865350232404" lon="8.594253524830599"><ele>1.0</ele><time>2026-05-03T09:00:11Z</time></trkpt><trkpt lat="39.786952880522264" lon="8.594273499069063"><ele>1.0</ele><time>2026-05-03T09:00:17Z</time></trkpt><trkpt lat="39.78704359146678" lon="8.594210237065388"><ele>1.0</ele><time>2026-05-03T09:00:18Z</time></trkpt><trkpt lat="39.78715817747498" lon="8.594135111101929"><ele>1.0</ele><time>2026-05-03T09:00:19Z</time></trkpt><trkpt lat="39.78730071130788" lon="8.594056466414845"><ele>1.0</ele><time>2026-05-03T09:00:20Z</time></trkpt><trkpt lat="39.78744907584334" lon="8.59397299710801"><ele>1.0</ele><time>2026-05-03T09:00:21Z</time></trkpt><trkpt lat="39.78760766119388" lon="8.593877776417571"><ele>1.3333333333333333</ele><time>2026-05-03T09:00:22Z</time></trkpt><trkpt lat="39.787769461361414" lon="8.593772277484295"><ele>1.6666666666666665</ele><time>2026-05-03T09:00:23Z</time></trkpt><trkpt lat="39.78793638317502" lon="8.593671709659807"><ele>2.0</ele><time>2026-05-03T09:00:24Z</time></trkpt><trkpt lat="39.78809139707312" lon="8.593586701060481"><ele>2.0</ele><time>2026-05-03T09:00:25Z</time></trkpt><trkpt lat="39.78823263632417" lon="8.593515644225041"><ele>2.0</ele><time>2026-05-03T09:00:26Z</time></trkpt><trkpt lat="39.788364922897124" lon="8.593455501993075"><ele>2.0</ele><time>2026-05-03T09:00:27Z</time></trkpt><trkpt lat="39.78847929568612" lon="8.593410769764745"><ele>2.0</ele><time>2026-05-03T09:00:28Z</time></trkpt><trkpt lat="39.788588075173884" lon="8.593391516013112"><ele>1.8333333333333333</ele><time>2026-05-03T09:00:28.999Z</time></trkpt><trkpt lat="39.78868336481484" lon="8.593399297962243"><ele>1.6666666666666665</ele><time>2026-05-03T09:00:29.999Z</time></trkpt><trkpt lat="39.78876433655657" lon="8.593415801292483"><ele>1.5</ele><time>2026-05-03T09:00:30.999Z</time></trkpt><trkpt lat="39.788830175447444" lon="8.59342485338082"><ele>1.3333333333333333</ele><time>2026-05-03T09:00:31.999Z</time></trkpt><trkpt lat="39.78890981922844" lon="8.593405970238127"><ele>1.1666666666666665</ele><time>2026-05-03T09:00:33.999Z</time></trkpt><trkpt lat="39.788927649555404" lon="8.593309861868878"><ele>1.0</ele><time>2026-05-03T09:00:35.999Z</time></trkpt><trkpt lat="39.78889977239085" lon="8.593158925642262"><ele>1.0</ele><time>2026-05-03T09:00:37.999Z</time></trkpt><trkpt lat="39.7888024294041" lon="8.593108487443699"><ele>1.0</ele><time>2026-05-03T09:00:39.999Z</time></trkpt><trkpt lat="39.7886855141182" lon="8.5931415079332"><ele>1.0</ele><time>2026-05-03T09:00:41.999Z</time></trkpt><trkpt lat="39.7885986019341" lon="8.593147738880527"><ele>1.0</ele><time>2026-05-03T09:00:42.999Z</time></trkpt><trkpt lat="39.78848722868622" lon="8.59315144841042"><ele>1.0</ele><time>2026-05-03T09:00:43.999Z</time></trkpt><trkpt lat="39.788358456091636" lon="8.593172677455033"><ele>1.3333333333333333</ele><time>2026-05-03T09:00:44.999Z</time></trkpt><trkpt lat="39.78822172639706" lon="8.593221518271617"><ele>1.6666666666666665</ele><time>2026-05-03T09:00:45.999Z</time></trkpt><trkpt lat="39.788080367383145" lon="8.593298206627603"><ele>2.0</ele><time>2026-05-03T09:00:46.999Z</time></trkpt><trkpt lat="39.787937780382805" lon="8.593390982729844"><ele>2.0</ele><time>2026-05-03T09:00:47.999Z</time></trkpt><trkpt lat="39.78779807527795" lon="8.593481618689163"><ele>2.0</ele><time>2026-05-03T09:00:48.999Z</time></trkpt><trkpt lat="39.787672884624534" lon="8.593555962128377"><ele>2.0</ele><time>2026-05-03T09:00:49.999Z</time></trkpt><trkpt lat="39.78756332615976" lon="8.593623794140711"><ele>2.0</ele><time>2026-05-03T09:00:50.999Z</time></trkpt><trkpt lat="39.78746286962976" lon="8.593684668477357"><ele>1.8</ele><time>2026-05-03T09:00:51.999Z</time></trkpt><trkpt lat="39.78737059914368" lon="8.59373809711108"><ele>1.6</ele><time>2026-05-03T09:00:52.999Z</time></trkpt><trkpt lat="39.78728599476876" lon="8.593786511535235"><ele>1.4000000000000001</ele><time>2026-05-03T09:00:53.999Z</time></trkpt><trkpt lat="39.787209156609805" lon="8.593825820721015"><ele>1.2000000000000002</ele><time>2026-05-03T09:00:54.999Z</time></trkpt><trkpt lat="39.78714385863606" lon="8.593834776153859"><ele>1.0</ele><time>2026-05-03T09:00:55.999Z</time></trkpt><trkpt lat="39.787074585007495" lon="8.593701110622073"><ele>1.25</ele><time>2026-05-03T09:00:57.999Z</time></trkpt><trkpt lat="39.78707376612554" lon="8.593558040323842"><ele>1.5</ele><time>2026-05-03T09:00:58.999Z</time></trkpt><trkpt lat="39.78709445757393" lon="8.593373481586145"><ele>1.75</ele><time>2026-05-03T09:00:59.999Z</time></trkpt><trkpt lat="39.78710979622801" lon="8.593149234066756"><ele>2.0</ele><time>2026-05-03T09:01:00.999Z</time></trkpt><trkpt lat="39.78710283590478" lon="8.592890329100745"><ele>3.0</ele><time>2026-05-03T09:01:01.999Z</time></trkpt><trkpt lat="39.78709753883066" lon="8.592600962302074"><ele>4.0</ele><time>2026-05-03T09:01:02.999Z</time></trkpt><trkpt lat="39.787099456509175" lon="8.592295238770324"><ele>4.5</ele><time>2026-05-03T09:01:03.999Z</time></trkpt><trkpt lat="39.78709745496738" lon="8.591969770648433"><ele>5.0</ele><time>2026-05-03T09:01:04.999Z</time></trkpt><trkpt lat="39.787091609398686" lon="8.591627178116516"><ele>5.0</ele><time>2026-05-03T09:01:05.999Z</time></trkpt><trkpt lat="39.78709278121149" lon="8.591285207920262"><ele>5.0</ele><time>2026-05-03T09:01:06.999Z</time></trkpt><trkpt lat="39.787092603565334" lon="8.590964947214648"><ele>5.5</ele><time>2026-05-03T09:01:07.999Z</time></trkpt><trkpt lat="39.78709552969178" lon="8.590657675360646"><ele>6.0</ele><time>2026-05-03T09:01:08.999Z</time></trkpt><trkpt lat="39.78709374588174" lon="8.590366396720944"><ele>6.333333333333334</ele><time>2026-05-03T09:01:09.999Z</time></trkpt><trkpt lat="39.7870927834387" lon="8.590084721548843"><ele>6.666666666666667</ele><time>2026-05-03T09:01:10.999Z</time></trkpt><trkpt lat="39.78709091737424" lon="8.589808293484309"><ele>7.0</ele><time>2026-05-03T09:01:11.999Z</time></trkpt><trkpt lat="39.78708964169906" lon="8.589552260985487"><ele>6.666666666666667</ele><time>2026-05-03T09:01:12.999Z</time></trkpt><trkpt lat="39.78708714363987" lon="8.589319026054763"><ele>6.333333333333334</ele><time>2026-05-03T09:01:13.999Z</time></trkpt><trkpt lat="39.78709068465829" lon="8.589106857023197"><ele>6.0</ele><time>2026-05-03T09:01:14.999Z</time></trkpt><trkpt lat="39.78709197596154" lon="8.588901186305788"><ele>6.0</ele><time>2026-05-03T09:01:15.999Z</time></trkpt><trkpt lat="39.78709028480303" lon="8.588682392608996"><ele>6.0</ele><time>2026-05-03T09:01:16.999Z</time></trkpt><trkpt lat="39.787088835989195" lon="8.58847189916784"><ele>6.0</ele><time>2026-05-03T09:01:17.999Z</time></trkpt><trkpt lat="39.787088682610595" lon="8.588282106212537"><ele>6.0</ele><time>2026-05-03T09:01:18.999Z</time></trkpt><trkpt lat="39.787086951075544" lon="8.588095374988253"><ele>6.0</ele><time>2026-05-03T09:01:19.999Z</time></trkpt><trkpt lat="39.787090363279454" lon="8.58789795173034"><ele>6.0</ele><time>2026-05-03T09:01:20.999Z</time></trkpt><trkpt lat="39.7870912527267" lon="8.587696294447909"><ele>5.666666666666667</ele><time>2026-05-03T09:01:21.999Z</time></trkpt><trkpt lat="39.787091383667416" lon="8.587489230167295"><ele>5.333333333333334</ele><time>2026-05-03T09:01:22.999Z</time></trkpt><trkpt lat="39.78709070567381" lon="8.587280954897551"><ele>5.0</ele><time>2026-05-03T09:01:23.999Z</time></trkpt><trkpt lat="39.78709193327685" lon="8.587065328772121"><ele>5.0</ele><time>2026-05-03T09:01:24.999Z</time></trkpt><trkpt lat="39.787092176080364" lon="8.586848193274665"><ele>5.0</ele><time>2026-05-03T09:01:25.999Z</time></trkpt><trkpt lat="39.78709189708839" lon="8.586624746427189"><ele>5.0</ele><time>2026-05-03T09:01:26.999Z</time></trkpt><trkpt lat="39.78709121264307" lon="8.586402536546364"><ele>5.0</ele><time>2026-05-03T09:01:27.999Z</time></trkpt><trkpt lat="39.787087927224036" lon="8.586184008396769"><ele>5.0</ele><time>2026-05-03T09:01:28.999Z</time></trkpt><trkpt lat="39.78708693448983" lon="8.585958095799235"><ele>5.0</ele><time>2026-05-03T09:01:30Z</time></trkpt><trkpt lat="39.78708580435866" lon="8.585724595872412"><ele>5.666666666666667</ele><time>2026-05-03T09:01:31Z</time></trkpt><trkpt lat="39.78708679934438" lon="8.585484344798097"><ele>6.333333333333334</ele><time>2026-05-03T09:01:32Z</time></trkpt><trkpt lat="39.787085920617834" lon="8.585242852540947"><ele>7.0</ele><time>2026-05-03T09:01:33Z</time></trkpt><trkpt lat="39.787084702173196" lon="8.585002257491801"><ele>7.0</ele><time>2026-05-03T09:01:34Z</time></trkpt><trkpt lat="39.78708286318464" lon="8.584759433110571"><ele>7.0</ele><time>2026-05-03T09:01:35Z</time></trkpt><trkpt lat="39.787084153521285" lon="8.58451463183252"><ele>7.0</ele><time>2026-05-03T09:01:36Z</time></trkpt><trkpt lat="39.787084990671" lon="8.584263379901035"><ele>7.0</ele><time>2026-05-03T09:01:37Z</time></trkpt><trkpt lat="39.7870850033465" lon="8.584007954441487"><ele>7.0</ele><time>2026-05-03T09:01:38Z</time></trkpt><trkpt lat="39.78708465028439" lon="8.583750900773587"><ele>7.0</ele><time>2026-05-03T09:01:39Z</time></trkpt><trkpt lat="39.787084212920966" lon="8.583504999965015"><ele>7.333333333333334</ele><time>2026-05-03T09:01:40Z</time></trkpt><trkpt lat="39.78708271939958" lon="8.58327980925021"><ele>7.666666666666666</ele><time>2026-05-03T09:01:41Z</time></trkpt><trkpt lat="39.78708086877769" lon="8.583066689485868"><ele>8.0</ele><time>2026-05-03T09:01:42Z</time></trkpt><trkpt lat="39.78708172437469" lon="8.582879964601613"><ele>8.4</ele><time>2026-05-03T09:01:43Z</time></trkpt><trkpt lat="39.78708331701987" lon="8.582721501336124"><ele>8.8</ele><time>2026-05-03T09:01:44Z</time></trkpt><trkpt lat="39.78707944381901" lon="8.58258229002426"><ele>9.2</ele><time>2026-05-03T09:01:45Z</time></trkpt><trkpt lat="39.787080302643226" lon="8.582475345056475"><ele>9.6</ele><time>2026-05-03T09:01:46Z</time></trkpt><trkpt lat="39.78709362413579" lon="8.582364622535446"><ele>10.0</ele><time>2026-05-03T09:01:48Z</time></trkpt><trkpt lat="39.787227100090504" lon="8.582337419331159"><ele>10.0</ele><time>2026-05-03T09:01:49Z</time></trkpt><trkpt lat="39.78732022550735" lon="8.582316075506359"><ele>10.0</ele><time>2026-05-03T09:01:50Z</time></trkpt><trkpt lat="39.78744100074905" lon="8.582310344086872"><ele>10.0</ele><time>2026-05-03T09:01:51Z</time></trkpt><trkpt lat="39.78759153637678" lon="8.582309731561526"><ele>10.0</ele><time>2026-05-03T09:01:52Z</time></trkpt><trkpt lat="39.78775365834663" lon="8.582312071936796"><ele>9.666666666666668</ele><time>2026-05-03T09:01:53Z</time></trkpt><trkpt lat="39.78794050948115" lon="8.582313809795794"><ele>9.333333333333334</ele><time>2026-05-03T09:01:54Z</time></trkpt><trkpt lat="39.78814541645855" lon="8.582312932007431"><ele>9.0</ele><time>2026-05-03T09:01:55Z</time></trkpt><trkpt lat="39.78836393700686" lon="8.582307394004957"><ele>9.0</ele><time>2026-05-03T09:01:56Z</time></trkpt><trkpt lat="39.7886018752962" lon="8.58230410352648"><ele>9.0</ele><time>2026-05-03T09:01:57Z</time></trkpt><trkpt lat="39.78884341340278" lon="8.582302190386768"><ele>9.0</ele><time>2026-05-03T09:01:58Z</time></trkpt><trkpt lat="39.789103269997" lon="8.58230079636962"><ele>9.0</ele><time>2026-05-03T09:01:59Z</time></trkpt><trkpt lat="39.789368368410834" lon="8.58229778586348"><ele>8.5</ele><time>2026-05-03T09:02:00Z</time></trkpt><trkpt lat="39.78962587577712" lon="8.58229773536158"><ele>8.0</ele><time>2026-05-03T09:02:01Z</time></trkpt><trkpt lat="39.78988414151245" lon="8.582298905666612"><ele>8.0</ele><time>2026-05-03T09:02:02Z</time></trkpt><trkpt lat="39.790142143831595" lon="8.582295584407484"><ele>8.0</ele><time>2026-05-03T09:02:03Z</time></trkpt><trkpt lat="39.79039858544385" lon="8.582293119515853"><ele>8.0</ele><time>2026-05-03T09:02:04Z</time></trkpt><trkpt lat="39.79065318615816" lon="8.582290451118574"><ele>8.0</ele><time>2026-05-03T09:02:05Z</time></trkpt><trkpt lat="39.790904880082124" lon="8.582289137389026"><ele>8.0</ele><time>2026-05-03T09:02:06Z</time></trkpt><trkpt lat="39.79115172239343" lon="8.582288551989695"><ele>8.0</ele><time>2026-05-03T09:02:07Z</time></trkpt><trkpt lat="39.791393802078936" lon="8.582287781872331"><ele>8.0</ele><time>2026-05-03T09:02:08Z</time></trkpt><trkpt lat="39.791631545168215" lon="8.58228506049032"><ele>8.0</ele><time>2026-05-03T09:02:09Z</time></trkpt><trkpt lat="39.791864198606206" lon="8.582283658883737"><ele>8.0</ele><time>2026-05-03T09:02:10Z</time></trkpt><trkpt lat="39.79208093188855" lon="8.582283734150439"><ele>8.0</ele><time>2026-05-03T09:02:11Z</time></trkpt><trkpt lat="39.792276213501886" lon="8.582284864842784"><ele>8.0</ele><time>2026-05-03T09:02:12Z</time></trkpt><trkpt lat="39.792465961819076" lon="8.582281563822987"><ele>8.0</ele><time>2026-05-03T09:02:13Z</time></trkpt><trkpt lat="39.79264494861079" lon="8.582276468648628"><ele>8.0</ele><time>2026-05-03T09:02:14Z</time></trkpt><trkpt lat="39.79281487146342" lon="8.58227655889578"><ele>8.0</ele><time>2026-05-03T09:02:15Z</time></trkpt><trkpt lat="39.792974362185305" lon="8.582282152062172"><ele>8.0</ele><time>2026-05-03T09:02:16Z</time></trkpt><trkpt lat="39.79313462035314" lon="8.582283783931016"><ele>8.0</ele><time>2026-05-03T09:02:17Z</time></trkpt><trkpt lat="39.793298300246356" lon="8.582277323723714"><ele>8.0</ele><time>2026-05-03T09:02:18Z</time></trkpt><trkpt lat="39.79345942350485" lon="8.582267748858872"><ele>8.666666666666666</ele><time>2026-05-03T09:02:19Z</time></trkpt><trkpt lat="39.793622401925376" lon="8.582267035903312"><ele>9.333333333333334</ele><time>2026-05-03T09:02:20Z</time></trkpt><trkpt lat="39.793786219482826" lon="8.58226186788924"><ele>10.0</ele><time>2026-05-03T09:02:21Z</time></trkpt><trkpt lat="39.79394848641481" lon="8.582263554379841"><ele>10.0</ele><time>2026-05-03T09:02:22Z</time></trkpt><trkpt lat="39.79409642783485" lon="8.582267485939427"><ele>10.0</ele><time>2026-05-03T09:02:23Z</time></trkpt><trkpt lat="39.794236645087864" lon="8.582265698536732"><ele>10.0</ele><time>2026-05-03T09:02:24Z</time></trkpt><trkpt lat="39.794349019093886" lon="8.582262732521228"><ele>10.0</ele><time>2026-05-03T09:02:25Z</time></trkpt><trkpt lat="39.79443553201993" lon="8.582258859226773"><ele>9.8</ele><time>2026-05-03T09:02:26Z</time></trkpt><trkpt lat="39.79453093321869" lon="8.58223974421104"><ele>9.6</ele><time>2026-05-03T09:02:28Z</time></trkpt><trkpt lat="39.79453672758299" lon="8.582088616342535"><ele>9.4</ele><time>2026-05-03T09:02:29Z</time></trkpt><trkpt lat="39.79452092499452" lon="8.581967374052907"><ele>9.2</ele><time>2026-05-03T09:02:30Z</time></trkpt><trkpt lat="39.79450325697551" lon="8.581817754732802"><ele>9.0</ele><time>2026-05-03T09:02:31Z</time></trkpt><trkpt lat="39.794495159429815" lon="8.581633916642575"><ele>9.0</ele><time>2026-05-03T09:02:31.999Z</time></trkpt><trkpt lat="39.794500586415225" lon="8.581420677956132"><ele>9.0</ele><time>2026-05-03T09:02:32.999Z</time></trkpt><trkpt lat="39.79450722025934" lon="8.581185066030631"><ele>9.0</ele><time>2026-05-03T09:02:33.999Z</time></trkpt><trkpt lat="39.79450836035646" lon="8.580931504558274"><ele>8.333333333333334</ele><time>2026-05-03T09:02:34.999Z</time></trkpt><trkpt lat="39.79450644504887" lon="8.580669718198179"><ele>7.666666666666667</ele><time>2026-05-03T09:02:35.999Z</time></trkpt><trkpt lat="39.79450162852497" lon="8.58038904037069"><ele>7.0</ele><time>2026-05-03T09:02:36.999Z</time></trkpt><trkpt lat="39.7945007260517" lon="8.580105884375786"><ele>7.0</ele><time>2026-05-03T09:02:37.999Z</time></trkpt><trkpt lat="39.79450186569821" lon="8.579810597501234"><ele>7.0</ele><time>2026-05-03T09:02:38.999Z</time></trkpt><trkpt lat="39.79450245676151" lon="8.57950847540724"><ele>7.5</ele><time>2026-05-03T09:02:39.999Z</time></trkpt><trkpt lat="39.79450157487136" lon="8.57920870074692"><ele>8.0</ele><time>2026-05-03T09:02:40.999Z</time></trkpt><trkpt lat="39.79449739369106" lon="8.578898828317646"><ele>7.5</ele><time>2026-05-03T09:02:41.999Z</time></trkpt><trkpt lat="39.79449423996948" lon="8.578581867556768"><ele>7.0</ele><time>2026-05-03T09:02:42.999Z</time></trkpt><trkpt lat="39.794493632474456" lon="8.578262146679414"><ele>7.0</ele><time>2026-05-03T09:02:43.999Z</time></trkpt><trkpt lat="39.79449419259568" lon="8.57793877356958"><ele>7.0</ele><time>2026-05-03T09:02:44.999Z</time></trkpt><trkpt lat="39.79449410796872" lon="8.57762025612721"><ele>6.0</ele><time>2026-05-03T09:02:45.999Z</time></trkpt><trkpt lat="39.794493275613455" lon="8.577305213072298"><ele>5.0</ele><time>2026-05-03T09:02:46.999Z</time></trkpt><trkpt lat="39.79449187654234" lon="8.576996708944552"><ele>5.0</ele><time>2026-05-03T09:02:47.999Z</time></trkpt><trkpt lat="39.794491402996606" lon="8.576693048656438"><ele>5.0</ele><time>2026-05-03T09:02:48.999Z</time></trkpt><trkpt lat="39.79449396893786" lon="8.576388647168933"><ele>5.0</ele><time>2026-05-03T09:02:49.999Z</time></trkpt><trkpt lat="39.79449304078408" lon="8.57608601060039"><ele>5.0</ele><time>2026-05-03T09:02:50.999Z</time></trkpt><trkpt lat="39.79449122769015" lon="8.57577730342425"><ele>5.0</ele><time>2026-05-03T09:02:51.999Z</time></trkpt><trkpt lat="39.794489179612725" lon="8.575458544002993"><ele>5.0</ele><time>2026-05-03T09:02:52.999Z</time></trkpt><trkpt lat="39.79448255652528" lon="8.575130800488715"><ele>5.5</ele><time>2026-05-03T09:02:53.999Z</time></trkpt><trkpt lat="39.794482241653824" lon="8.574800375122816"><ele>6.0</ele><time>2026-05-03T09:02:54.999Z</time></trkpt><trkpt lat="39.794487189605455" lon="8.574472165726714"><ele>6.0</ele><time>2026-05-03T09:02:55.999Z</time></trkpt><trkpt lat="39.79449219513978" lon="8.574151106036593"><ele>6.0</ele><time>2026-05-03T09:02:56.999Z</time></trkpt><trkpt lat="39.79449184989152" lon="8.573838235465928"><ele>7.0</ele><time>2026-05-03T09:02:57.999Z</time></trkpt><trkpt lat="39.79448994985636" lon="8.573517579511167"><ele>8.0</ele><time>2026-05-03T09:02:58.999Z</time></trkpt><trkpt lat="39.794486543101264" lon="8.573169717731103"><ele>8.5</ele><time>2026-05-03T09:02:59.999Z</time></trkpt><trkpt lat="39.79448706210807" lon="8.572797274109467"><ele>9.0</ele><time>2026-05-03T09:03:00.999Z</time></trkpt><trkpt lat="39.79448684266618" lon="8.572415688681676"><ele>9.0</ele><time>2026-05-03T09:03:01.999Z</time></trkpt><trkpt lat="39.79448889850122" lon="8.572049779871419"><ele>9.0</ele><time>2026-05-03T09:03:02.999Z</time></trkpt><trkpt lat="39.79449132937811" lon="8.571708047605703"><ele>8.5</ele><time>2026-05-03T09:03:03.999Z</time></trkpt><trkpt lat="39.79448767548459" lon="8.571367179371736"><ele>8.0</ele><time>2026-05-03T09:03:04.999Z</time></trkpt><trkpt lat="39.794482227356724" lon="8.571023132018546"><ele>7.0</ele><time>2026-05-03T09:03:05.999Z</time></trkpt><trkpt lat="39.794478947065" lon="8.570678123946267"><ele>6.0</ele><time>2026-05-03T09:03:06.999Z</time></trkpt><trkpt lat="39.79447767254941" lon="8.570334620063038"><ele>5.5</ele><time>2026-05-03T09:03:07.999Z</time></trkpt><trkpt lat="39.794477229929306" lon="8.56999195015767"><ele>5.0</ele><time>2026-05-03T09:03:08.999Z</time></trkpt><trkpt lat="39.79447787146858" lon="8.569650445041889"><ele>4.5</ele><time>2026-05-03T09:03:09.999Z</time></trkpt><trkpt lat="39.79447875971871" lon="8.569308750030904"><ele>4.0</ele><time>2026-05-03T09:03:10.999Z</time></trkpt><trkpt lat="39.7944768396795" lon="8.568965389001608"><ele>4.0</ele><time>2026-05-03T09:03:11.999Z</time></trkpt><trkpt lat="39.794475188717406" lon="8.568626199448067"><ele>4.0</ele><time>2026-05-03T09:03:12.999Z</time></trkpt><trkpt lat="39.79447463414527" lon="8.568288809654085"><ele>4.0</ele><time>2026-05-03T09:03:13.999Z</time></trkpt><trkpt lat="39.79447564109198" lon="8.567952835189207"><ele>4.0</ele><time>2026-05-03T09:03:14.999Z</time></trkpt><trkpt lat="39.794476730999094" lon="8.567618939933778"><ele>4.5</ele><time>2026-05-03T09:03:15.999Z</time></trkpt><trkpt lat="39.79447654290816" lon="8.567298903615146"><ele>5.0</ele><time>2026-05-03T09:03:16.999Z</time></trkpt><trkpt lat="39.794475647159885" lon="8.566987339730039"><ele>5.0</ele><time>2026-05-03T09:03:17.999Z</time></trkpt><trkpt lat="39.79447536936191" lon="8.566679792951582"><ele>5.0</ele><time>2026-05-03T09:03:18.999Z</time></trkpt><trkpt lat="39.794476757266565" lon="8.566373303647286"><ele>5.0</ele><time>2026-05-03T09:03:19.999Z</time></trkpt><trkpt lat="39.79448024243604" lon="8.566071302599484"><ele>5.0</ele><time>2026-05-03T09:03:20.999Z</time></trkpt><trkpt lat="39.794481189287886" lon="8.56577253623366"><ele>5.0</ele><time>2026-05-03T09:03:21.999Z</time></trkpt><trkpt lat="39.7944783941491" lon="8.565466465290632"><ele>5.0</ele><time>2026-05-03T09:03:22.999Z</time></trkpt><trkpt lat="39.79446943807992" lon="8.565154271486346"><ele>4.5</ele><time>2026-05-03T09:03:23.999Z</time></trkpt><trkpt lat="39.79446294700144" lon="8.56483644588592"><ele>4.0</ele><time>2026-05-03T09:03:24.999Z</time></trkpt><trkpt lat="39.794469519839325" lon="8.564516723698597"><ele>4.0</ele><time>2026-05-03T09:03:25.999Z</time></trkpt><trkpt lat="39.794478696973684" lon="8.564192410672472"><ele>4.0</ele><time>2026-05-03T09:03:26.999Z</time></trkpt><trkpt lat="39.79448090880331" lon="8.563868850628733"><ele>4.5</ele><time>2026-05-03T09:03:27.999Z</time></trkpt><trkpt lat="39.7944780374281" lon="8.563541639057982"><ele>5.0</ele><time>2026-05-03T09:03:28.999Z</time></trkpt><trkpt lat="39.79447568841426" lon="8.563218330500618"><ele>5.0</ele><time>2026-05-03T09:03:29.999Z</time></trkpt><trkpt lat="39.79447347552867" lon="8.562897706050997"><ele>5.0</ele><time>2026-05-03T09:03:30.999Z</time></trkpt><trkpt lat="39.794470256599176" lon="8.562583221827818"><ele>4.5</ele><time>2026-05-03T09:03:31.999Z</time></trkpt><trkpt lat="39.79446895549466" lon="8.56227431234531"><ele>4.0</ele><time>2026-05-03T09:03:32.999Z</time></trkpt><trkpt lat="39.79447135911871" lon="8.561971516696538"><ele>3.6666666666666665</ele><time>2026-05-03T09:03:33.999Z</time></trkpt><trkpt lat="39.79447401500791" lon="8.561677855950554"><ele>3.333333333333333</ele><time>2026-05-03T09:03:34.999Z</time></trkpt><trkpt lat="39.7944710003331" lon="8.56138906797912"><ele>3.0</ele><time>2026-05-03T09:03:36Z</time></trkpt><trkpt lat="39.79446533309687" lon="8.5611089828499"><ele>3.0</ele><time>2026-05-03T09:03:37Z</time></trkpt><trkpt lat="39.79446313950209" lon="8.560835437025887"><ele>3.0</ele><time>2026-05-03T09:03:38Z</time></trkpt><trkpt lat="39.7944646425662" lon="8.560566180647443"><ele>3.0</ele><time>2026-05-03T09:03:39Z</time></trkpt><trkpt lat="39.79446980086035" lon="8.560298499197328"><ele>3.333333333333333</ele><time>2026-05-03T09:03:40Z</time></trkpt><trkpt lat="39.79447107515321" lon="8.560038353683627"><ele>3.6666666666666665</ele><time>2026-05-03T09:03:41Z</time></trkpt><trkpt lat="39.79446644629999" lon="8.55978560888061"><ele>4.0</ele><time>2026-05-03T09:03:42Z</time></trkpt><trkpt lat="39.79446293683277" lon="8.559538427534333"><ele>4.333333333333333</ele><time>2026-05-03T09:03:43Z</time></trkpt><trkpt lat="39.79446236681859" lon="8.559294353438577"><ele>4.666666666666667</ele><time>2026-05-03T09:03:44Z</time></trkpt><trkpt lat="39.79446195126617" lon="8.55905283110571"><ele>5.0</ele><time>2026-05-03T09:03:45Z</time></trkpt><trkpt lat="39.794460858934066" lon="8.558816297630747"><ele>5.333333333333334</ele><time>2026-05-03T09:03:46Z</time></trkpt><trkpt lat="39.79446144991028" lon="8.558584831936175"><ele>5.666666666666667</ele><time>2026-05-03T09:03:47Z</time></trkpt><trkpt lat="39.79446041005648" lon="8.558355368211576"><ele>6.0</ele><time>2026-05-03T09:03:48Z</time></trkpt><trkpt lat="39.794462734604345" lon="8.558132483015576"><ele>6.0</ele><time>2026-05-03T09:03:49Z</time></trkpt><trkpt lat="39.794467322796216" lon="8.557913410569064"><ele>6.0</ele><time>2026-05-03T09:03:50Z</time></trkpt><trkpt lat="39.79447025432757" lon="8.557700407576675"><ele>6.0</ele><time>2026-05-03T09:03:51Z</time></trkpt><trkpt lat="39.794471319868144" lon="8.557488531494688"><ele>6.0</ele><time>2026-05-03T09:03:52Z</time></trkpt><trkpt lat="39.79446742136295" lon="8.557277568740808"><ele>6.0</ele><time>2026-05-03T09:03:53Z</time></trkpt><trkpt lat="39.794463610219765" lon="8.557066215000974"><ele>6.0</ele><time>2026-05-03T09:03:54Z</time></trkpt><trkpt lat="39.794460231841164" lon="8.556859313818213"><ele>5.666666666666667</ele><time>2026-05-03T09:03:55Z</time></trkpt><trkpt lat="39.794459497402244" lon="8.556651120723604"><ele>5.333333333333334</ele><time>2026-05-03T09:03:56Z</time></trkpt><trkpt lat="39.79445914639367" lon="8.556444632868716"><ele>5.0</ele><time>2026-05-03T09:03:57Z</time></trkpt><trkpt lat="39.79445770174429" lon="8.556242236955667"><ele>5.0</ele><time>2026-05-03T09:03:58Z</time></trkpt><trkpt lat="39.79446019147753" lon="8.55604479852102"><ele>5.0</ele><time>2026-05-03T09:03:59Z</time></trkpt><trkpt lat="39.79446290462548" lon="8.55585007851145"><ele>5.0</ele><time>2026-05-03T09:04:00Z</time></trkpt><trkpt lat="39.79446393619175" lon="8.555656331550246"><ele>5.0</ele><time>2026-05-03T09:04:01Z</time></trkpt><trkpt lat="39.794462817668375" lon="8.555468640227556"><ele>5.0</ele><time>2026-05-03T09:04:02Z</time></trkpt><trkpt lat="39.794460913305706" lon="8.555282174041317"><ele>5.0</ele><time>2026-05-03T09:04:03Z</time></trkpt><trkpt lat="39.794461315857156" lon="8.55509946598824"><ele>5.0</ele><time>2026-05-03T09:04:04Z</time></trkpt><trkpt lat="39.79446340790584" lon="8.554922063966467"><ele>4.75</ele><time>2026-05-03T09:04:05Z</time></trkpt><trkpt lat="39.794463135895946" lon="8.554745447863061"><ele>4.5</ele><time>2026-05-03T09:04:06Z</time></trkpt><trkpt lat="39.79446164190827" lon="8.554570297344155"><ele>4.25</ele><time>2026-05-03T09:04:07Z</time></trkpt><trkpt lat="39.79446119954621" lon="8.554395633050712"><ele>4.0</ele><time>2026-05-03T09:04:08Z</time></trkpt><trkpt lat="39.7944615217414" lon="8.554223758136418"><ele>3.75</ele><time>2026-05-03T09:04:09Z</time></trkpt><trkpt lat="39.79445964155749" lon="8.554062848789584"><ele>3.5</ele><time>2026-05-03T09:04:10Z</time></trkpt><trkpt lat="39.794457039753425" lon="8.553912191245821"><ele>3.25</ele><time>2026-05-03T09:04:11Z</time></trkpt><trkpt lat="39.79445460485358" lon="8.553771186236249"><ele>3.0</ele><time>2026-05-03T09:04:12Z</time></trkpt><trkpt lat="39.794454019205574" lon="8.553638042604016"><ele>3.0</ele><time>2026-05-03T09:04:13Z</time></trkpt><trkpt lat="39.794454655162696" lon="8.553513512338585"><ele>3.0</ele><time>2026-05-03T09:04:14Z</time></trkpt><trkpt lat="39.79445407413364" lon="8.553397374894411"><ele>3.0</ele><time>2026-05-03T09:04:15Z</time></trkpt><trkpt lat="39.794452119676116" lon="8.553286961666789"><ele>3.0</ele><time>2026-05-03T09:04:16Z</time></trkpt><trkpt lat="39.79444854765056" lon="8.553182136873296"><ele>3.0</ele><time>2026-05-03T09:04:17Z</time></trkpt><trkpt lat="39.79444516927658" lon="8.553079637904185"><ele>3.0</ele><time>2026-05-03T09:04:18Z</time></trkpt><trkpt lat="39.79444232534356" lon="8.552981885079044"><ele>3.0</ele><time>2026-05-03T09:04:19Z</time></trkpt><trkpt lat="39.79444387286467" lon="8.552890549098166"><ele>3.0</ele><time>2026-05-03T09:04:20Z</time></trkpt><trkpt lat="39.794444863627156" lon="8.55280124796458"><ele>3.0</ele><time>2026-05-03T09:04:21Z</time></trkpt><trkpt lat="39.79444342153848" lon="8.552717692290392"><ele>3.0</ele><time>2026-05-03T09:04:22Z</time></trkpt><trkpt lat="39.794437494054" lon="8.552599414460776"><ele>3.0</ele><time>2026-05-03T09:04:24Z</time></trkpt><trkpt lat="39.7944274684031" lon="8.552507330001513"><ele>3.0</ele><time>2026-05-03T09:04:27Z</time></trkpt><trkpt lat="39.79442412163547" lon="8.552396738121653"><ele>3.8</ele><time>2026-05-03T09:04:31Z</time></trkpt><trkpt lat="39.79443841802679" lon="8.552283325531864"><ele>4.6</ele><time>2026-05-03T09:04:34Z</time></trkpt><trkpt lat="39.794432540244394" lon="8.552179222669148"><ele>5.3999999999999995</ele><time>2026-05-03T09:04:35.999Z</time></trkpt><trkpt lat="39.794456680434266" lon="8.552007124957196"><ele>6.199999999999999</ele><time>2026-05-03T09:04:37.999Z</time></trkpt><trkpt lat="39.79446263301517" lon="8.551904538803116"><ele>7.0</ele><time>2026-05-03T09:04:38.999Z</time></trkpt><trkpt lat="39.794454784162994" lon="8.551804223702712"><ele>7.000000000000001</ele><time>2026-05-03T09:04:39.999Z</time></trkpt><trkpt lat="39.79444042357025" lon="8.551703701140534"><ele>7.0</ele><time>2026-05-03T09:04:40.999Z</time></trkpt><trkpt lat="39.79444479857268" lon="8.551604246483297"><ele>7.0</ele><time>2026-05-03T09:04:41.999Z</time></trkpt><trkpt lat="39.79444722464102" lon="8.551490330949184"><ele>7.0</ele><time>2026-05-03T09:04:42.999Z</time></trkpt><trkpt lat="39.79445479534741" lon="8.551362374771552"><ele>7.000000000000001</ele><time>2026-05-03T09:04:43.999Z</time></trkpt><trkpt lat="39.794448875231495" lon="8.55124823764643"><ele>7.0</ele><time>2026-05-03T09:04:44.999Z</time></trkpt><trkpt lat="39.794448699428784" lon="8.551139392580232"><ele>7.0</ele><time>2026-05-03T09:04:45.999Z</time></trkpt><trkpt lat="39.79444832609206" lon="8.551021742292876"><ele>6.999999999999999</ele><time>2026-05-03T09:04:46.999Z</time></trkpt><trkpt lat="39.79443294093644" lon="8.550899133566563"><ele>6.999999999999999</ele><time>2026-05-03T09:04:47.999Z</time></trkpt><trkpt lat="39.79441898758817" lon="8.550780116869147"><ele>7.0</ele><time>2026-05-03T09:04:48.999Z</time></trkpt><trkpt lat="39.79441271320254" lon="8.55066387367966"><ele>7.0</ele><time>2026-05-03T09:04:49.999Z</time></trkpt><trkpt lat="39.79441191514552" lon="8.550551674532793"><ele>7.000000000000001</ele><time>2026-05-03T09:04:50.999Z</time></trkpt><trkpt lat="39.79441380266075" lon="8.550436853199471"><ele>7.0</ele><time>2026-05-03T09:04:51.999Z</time></trkpt><trkpt lat="39.79441532339214" lon="8.550328506431711"><ele>7.0</ele><time>2026-05-03T09:04:52.999Z</time></trkpt><trkpt lat="39.7944198599622" lon="8.550227127216742"><ele>7.0</ele><time>2026-05-03T09:04:53.999Z</time></trkpt><trkpt lat="39.7944180247149" lon="8.550121222606686"><ele>7.000000000000001</ele><time>2026-05-03T09:04:54.999Z</time></trkpt><trkpt lat="39.79441671252343" lon="8.550022281583672"><ele>7.0</ele><time>2026-05-03T09:04:55.999Z</time></trkpt><trkpt lat="39.79441494710722" lon="8.54991907943568"><ele>7.428571428571429</ele><time>2026-05-03T09:04:56.999Z</time></trkpt><trkpt lat="39.79441642053374" lon="8.549815744174088"><ele>7.857142857142858</ele><time>2026-05-03T09:04:57.999Z</time></trkpt><trkpt lat="39.79442211943959" lon="8.549717619585794"><ele>8.285714285714285</ele><time>2026-05-03T09:04:58.999Z</time></trkpt><trkpt lat="39.79442053647927" lon="8.549621134737645"><ele>8.714285714285715</ele><time>2026-05-03T09:04:59.999Z</time></trkpt><trkpt lat="39.79442013757273" lon="8.549529268788666"><ele>9.142857142857142</ele><time>2026-05-03T09:05:00.999Z</time></trkpt><trkpt lat="39.794419284436714" lon="8.549442552649698"><ele>9.571428571428571</ele><time>2026-05-03T09:05:01.999Z</time></trkpt><trkpt lat="39.79442127896028" lon="8.549360270002145"><ele>10.0</ele><time>2026-05-03T09:05:02.999Z</time></trkpt><trkpt lat="39.79441852392075" lon="8.549202619233288"><ele>10.0</ele><time>2026-05-03T09:05:04.999Z</time></trkpt><trkpt lat="39.79442392557144" lon="8.549059643069782"><ele>10.0</ele><time>2026-05-03T09:05:06.999Z</time></trkpt><trkpt lat="39.7944300377267" lon="8.548935445075326"><ele>10.0</ele><time>2026-05-03T09:05:08.999Z</time></trkpt><trkpt lat="39.79442831278446" lon="8.54885048997686"><ele>10.0</ele><time>2026-05-03T09:05:10.999Z</time></trkpt></trkseg></trk></gpx>